<?xml version="1.0" encoding="UTF-8"?>
<gpx version="1.1" creator="https://www.youtrack.es" xsi:schemaLocation="http://www.topografix.com/GPX/1/1 http://www.topografix.com/GPX/1/1/gpx.xsd http://www.garmin.com/xmlschemas/GpxExtensions/v3 http://www.garmin.com/xmlschemas/GpxExtensionsv3.xsd http://www.garmin.com/xmlschemas/TrackPointExtension/v1 http://www.garmin.com/xmlschemas/TrackPointExtensionv1.xsd" xmlns:gpxtpx="http://www.garmin.com/xmlschemas/TrackPointExtension/v1" xmlns:gpxx="http://www.garmin.com/xmlschemas/GpxExtensions/v3" xmlns:xsi="http://www.w3.org/2001/XMLSchema-instance">
  <metadata>
    <link href="https://www.youtrack.es">
      <text>YouTrack.es</text>
    </link>
    <time>2026-05-10T15:55:33Z</time>
  </metadata>
  <trk>
    <src>https://www.youtrack.es</src>
    <link href="https://www.youtrack.es/ruta/13160-2-tr-estaon-cortinada">
      <text>YouTrack.es</text>
    </link>
    <trkseg>
      <trkpt lat="42.587999" lon="1.210518">
        <ele>1257.5</ele>
        <time>2013-07-30T05:48:48Z</time>
      </trkpt>
      <trkpt lat="42.587902" lon="1.210764">
        <ele>1255.1</ele>
        <time>2013-07-30T05:49:06Z</time>
      </trkpt>
      <trkpt lat="42.587868" lon="1.210874">
        <ele>1254.9</ele>
        <time>2013-07-30T05:49:16Z</time>
      </trkpt>
      <trkpt lat="42.587803" lon="1.211029">
        <ele>1254.2</ele>
        <time>2013-07-30T05:49:26Z</time>
      </trkpt>
      <trkpt lat="42.587777" lon="1.211217">
        <ele>1257.2</ele>
        <time>2013-07-30T05:49:41Z</time>
      </trkpt>
      <trkpt lat="42.587761" lon="1.211308">
        <ele>1258.5</ele>
        <time>2013-07-30T05:49:49Z</time>
      </trkpt>
      <trkpt lat="42.587746" lon="1.211386">
        <ele>1259.2</ele>
        <time>2013-07-30T05:50:03Z</time>
      </trkpt>
      <trkpt lat="42.587820" lon="1.211539">
        <ele>1258.5</ele>
        <time>2013-07-30T05:51:22Z</time>
      </trkpt>
      <trkpt lat="42.587885" lon="1.211634">
        <ele>1258.0</ele>
        <time>2013-07-30T05:51:32Z</time>
      </trkpt>
      <trkpt lat="42.587952" lon="1.211759">
        <ele>1256.5</ele>
        <time>2013-07-30T05:51:44Z</time>
      </trkpt>
      <trkpt lat="42.587997" lon="1.211861">
        <ele>1256.4</ele>
        <time>2013-07-30T05:51:56Z</time>
      </trkpt>
      <trkpt lat="42.588009" lon="1.211870">
        <ele>1256.8</ele>
        <time>2013-07-30T05:52:19Z</time>
      </trkpt>
      <trkpt lat="42.588041" lon="1.211880">
        <ele>1257.6</ele>
        <time>2013-07-30T05:52:23Z</time>
      </trkpt>
      <trkpt lat="42.588080" lon="1.211892">
        <ele>1258.0</ele>
        <time>2013-07-30T05:52:27Z</time>
      </trkpt>
      <trkpt lat="42.588097" lon="1.211895">
        <ele>1258.1</ele>
        <time>2013-07-30T05:52:29Z</time>
      </trkpt>
      <trkpt lat="42.588144" lon="1.211865">
        <ele>1258.8</ele>
        <time>2013-07-30T05:52:36Z</time>
      </trkpt>
      <trkpt lat="42.588246" lon="1.211921">
        <ele>1259.8</ele>
        <time>2013-07-30T05:52:48Z</time>
      </trkpt>
      <trkpt lat="42.588260" lon="1.211925">
        <ele>1259.9</ele>
        <time>2013-07-30T05:52:50Z</time>
      </trkpt>
      <trkpt lat="42.588370" lon="1.211912">
        <ele>1262.5</ele>
        <time>2013-07-30T05:53:03Z</time>
      </trkpt>
      <trkpt lat="42.588467" lon="1.211876">
        <ele>1264.5</ele>
        <time>2013-07-30T05:53:15Z</time>
      </trkpt>
      <trkpt lat="42.588549" lon="1.211841">
        <ele>1265.4</ele>
        <time>2013-07-30T05:53:27Z</time>
      </trkpt>
      <trkpt lat="42.588596" lon="1.211837">
        <ele>1266.9</ele>
        <time>2013-07-30T05:53:32Z</time>
      </trkpt>
      <trkpt lat="42.588661" lon="1.211797">
        <ele>1268.3</ele>
        <time>2013-07-30T05:53:43Z</time>
      </trkpt>
      <trkpt lat="42.588700" lon="1.211773">
        <ele>1266.6</ele>
        <time>2013-07-30T05:53:55Z</time>
      </trkpt>
      <trkpt lat="42.588817" lon="1.211782">
        <ele>1265.8</ele>
        <time>2013-07-30T05:54:09Z</time>
      </trkpt>
      <trkpt lat="42.588828" lon="1.211774">
        <ele>1265.7</ele>
        <time>2013-07-30T05:54:10Z</time>
      </trkpt>
      <trkpt lat="42.588892" lon="1.211750">
        <ele>1264.8</ele>
        <time>2013-07-30T05:54:15Z</time>
      </trkpt>
      <trkpt lat="42.589073" lon="1.211781">
        <ele>1262.3</ele>
        <time>2013-07-30T05:54:29Z</time>
      </trkpt>
      <trkpt lat="42.589201" lon="1.211751">
        <ele>1261.7</ele>
        <time>2013-07-30T05:54:43Z</time>
      </trkpt>
      <trkpt lat="42.589335" lon="1.211739">
        <ele>1261.2</ele>
        <time>2013-07-30T05:54:55Z</time>
      </trkpt>
      <trkpt lat="42.589409" lon="1.211766">
        <ele>1260.4</ele>
        <time>2013-07-30T05:55:03Z</time>
      </trkpt>
      <trkpt lat="42.589452" lon="1.211802">
        <ele>1260.0</ele>
        <time>2013-07-30T05:55:07Z</time>
      </trkpt>
      <trkpt lat="42.589555" lon="1.211880">
        <ele>1259.9</ele>
        <time>2013-07-30T05:55:20Z</time>
      </trkpt>
      <trkpt lat="42.589589" lon="1.211899">
        <ele>1260.1</ele>
        <time>2013-07-30T05:55:25Z</time>
      </trkpt>
      <trkpt lat="42.589711" lon="1.211985">
        <ele>1257.8</ele>
        <time>2013-07-30T05:55:40Z</time>
      </trkpt>
      <trkpt lat="42.589711" lon="1.211985">
        <ele>1257.8</ele>
        <time>2013-07-30T05:56:01Z</time>
      </trkpt>
      <trkpt lat="42.589720" lon="1.212001">
        <ele>1257.0</ele>
        <time>2013-07-30T05:56:04Z</time>
      </trkpt>
      <trkpt lat="42.589854" lon="1.212082">
        <ele>1255.9</ele>
        <time>2013-07-30T05:56:18Z</time>
      </trkpt>
      <trkpt lat="42.589943" lon="1.212120">
        <ele>1252.7</ele>
        <time>2013-07-30T05:56:28Z</time>
      </trkpt>
      <trkpt lat="42.589942" lon="1.212120">
        <ele>1252.7</ele>
        <time>2013-07-30T05:56:32Z</time>
      </trkpt>
      <trkpt lat="42.589962" lon="1.212136">
        <ele>1252.1</ele>
        <time>2013-07-30T05:56:37Z</time>
      </trkpt>
      <trkpt lat="42.590075" lon="1.212280">
        <ele>1248.9</ele>
        <time>2013-07-30T05:56:49Z</time>
      </trkpt>
      <trkpt lat="42.590139" lon="1.212376">
        <ele>1247.8</ele>
        <time>2013-07-30T05:57:01Z</time>
      </trkpt>
      <trkpt lat="42.590158" lon="1.212401">
        <ele>1248.7</ele>
        <time>2013-07-30T05:57:03Z</time>
      </trkpt>
      <trkpt lat="42.590177" lon="1.212420">
        <ele>1249.1</ele>
        <time>2013-07-30T05:57:05Z</time>
      </trkpt>
      <trkpt lat="42.590217" lon="1.212472">
        <ele>1249.0</ele>
        <time>2013-07-30T05:57:11Z</time>
      </trkpt>
      <trkpt lat="42.590332" lon="1.212549">
        <ele>1247.7</ele>
        <time>2013-07-30T05:57:23Z</time>
      </trkpt>
      <trkpt lat="42.590349" lon="1.212576">
        <ele>1244.9</ele>
        <time>2013-07-30T05:57:25Z</time>
      </trkpt>
      <trkpt lat="42.590396" lon="1.212617">
        <ele>1242.7</ele>
        <time>2013-07-30T05:57:29Z</time>
      </trkpt>
      <trkpt lat="42.590460" lon="1.212668">
        <ele>1241.8</ele>
        <time>2013-07-30T05:57:37Z</time>
      </trkpt>
      <trkpt lat="42.590560" lon="1.212709">
        <ele>1246.7</ele>
        <time>2013-07-30T05:57:49Z</time>
      </trkpt>
      <trkpt lat="42.590565" lon="1.212713">
        <ele>1246.6</ele>
        <time>2013-07-30T05:57:50Z</time>
      </trkpt>
      <trkpt lat="42.590669" lon="1.212779">
        <ele>1243.5</ele>
        <time>2013-07-30T05:58:01Z</time>
      </trkpt>
      <trkpt lat="42.590715" lon="1.212842">
        <ele>1241.0</ele>
        <time>2013-07-30T05:58:06Z</time>
      </trkpt>
      <trkpt lat="42.590805" lon="1.212972">
        <ele>1241.6</ele>
        <time>2013-07-30T05:58:16Z</time>
      </trkpt>
      <trkpt lat="42.590812" lon="1.212983">
        <ele>1241.7</ele>
        <time>2013-07-30T05:58:17Z</time>
      </trkpt>
      <trkpt lat="42.590883" lon="1.213073">
        <ele>1239.0</ele>
        <time>2013-07-30T05:58:28Z</time>
      </trkpt>
      <trkpt lat="42.590916" lon="1.213106">
        <ele>1237.2</ele>
        <time>2013-07-30T05:58:33Z</time>
      </trkpt>
      <trkpt lat="42.590932" lon="1.213112">
        <ele>1236.9</ele>
        <time>2013-07-30T05:58:46Z</time>
      </trkpt>
      <trkpt lat="42.590932" lon="1.213112">
        <ele>1236.9</ele>
        <time>2013-07-30T05:58:51Z</time>
      </trkpt>
      <trkpt lat="42.590932" lon="1.213112">
        <ele>1236.9</ele>
        <time>2013-07-30T05:58:56Z</time>
      </trkpt>
      <trkpt lat="42.590950" lon="1.213133">
        <ele>1235.5</ele>
        <time>2013-07-30T05:59:09Z</time>
      </trkpt>
      <trkpt lat="42.591072" lon="1.213210">
        <ele>1231.2</ele>
        <time>2013-07-30T05:59:22Z</time>
      </trkpt>
      <trkpt lat="42.591126" lon="1.213229">
        <ele>1233.6</ele>
        <time>2013-07-30T05:59:27Z</time>
      </trkpt>
      <trkpt lat="42.591183" lon="1.213290">
        <ele>1236.5</ele>
        <time>2013-07-30T05:59:39Z</time>
      </trkpt>
      <trkpt lat="42.591203" lon="1.213301">
        <ele>1233.6</ele>
        <time>2013-07-30T05:59:44Z</time>
      </trkpt>
      <trkpt lat="42.591255" lon="1.213398">
        <ele>1223.1</ele>
        <time>2013-07-30T05:59:56Z</time>
      </trkpt>
      <trkpt lat="42.591307" lon="1.213506">
        <ele>1217.7</ele>
        <time>2013-07-30T06:04:56Z</time>
      </trkpt>
      <trkpt lat="42.591331" lon="1.213541">
        <ele>1216.4</ele>
        <time>2013-07-30T06:05:11Z</time>
      </trkpt>
      <trkpt lat="42.591339" lon="1.213553">
        <ele>1216.3</ele>
        <time>2013-07-30T06:05:34Z</time>
      </trkpt>
      <trkpt lat="42.591363" lon="1.213628">
        <ele>1216.0</ele>
        <time>2013-07-30T06:05:49Z</time>
      </trkpt>
      <trkpt lat="42.591374" lon="1.213757">
        <ele>1219.6</ele>
        <time>2013-07-30T06:06:02Z</time>
      </trkpt>
      <trkpt lat="42.591394" lon="1.213767">
        <ele>1220.4</ele>
        <time>2013-07-30T06:06:05Z</time>
      </trkpt>
      <trkpt lat="42.591417" lon="1.213787">
        <ele>1221.2</ele>
        <time>2013-07-30T06:06:16Z</time>
      </trkpt>
      <trkpt lat="42.591417" lon="1.213787">
        <ele>1221.2</ele>
        <time>2013-07-30T06:06:17Z</time>
      </trkpt>
      <trkpt lat="42.591467" lon="1.213789">
        <ele>1221.8</ele>
        <time>2013-07-30T06:06:21Z</time>
      </trkpt>
      <trkpt lat="42.591569" lon="1.213813">
        <ele>1222.6</ele>
        <time>2013-07-30T06:06:34Z</time>
      </trkpt>
      <trkpt lat="42.591611" lon="1.213858">
        <ele>1223.2</ele>
        <time>2013-07-30T06:07:39Z</time>
      </trkpt>
      <trkpt lat="42.591667" lon="1.213868">
        <ele>1224.0</ele>
        <time>2013-07-30T06:07:45Z</time>
      </trkpt>
      <trkpt lat="42.591818" lon="1.213850">
        <ele>1225.4</ele>
        <time>2013-07-30T06:07:57Z</time>
      </trkpt>
      <trkpt lat="42.591893" lon="1.213840">
        <ele>1226.0</ele>
        <time>2013-07-30T06:08:03Z</time>
      </trkpt>
      <trkpt lat="42.592075" lon="1.213833">
        <ele>1228.5</ele>
        <time>2013-07-30T06:08:20Z</time>
      </trkpt>
      <trkpt lat="42.592184" lon="1.213807">
        <ele>1229.5</ele>
        <time>2013-07-30T06:08:31Z</time>
      </trkpt>
      <trkpt lat="42.592251" lon="1.213774">
        <ele>1230.5</ele>
        <time>2013-07-30T06:08:37Z</time>
      </trkpt>
      <trkpt lat="42.592378" lon="1.213626">
        <ele>1232.1</ele>
        <time>2013-07-30T06:08:50Z</time>
      </trkpt>
      <trkpt lat="42.592443" lon="1.213469">
        <ele>1233.5</ele>
        <time>2013-07-30T06:09:01Z</time>
      </trkpt>
      <trkpt lat="42.592497" lon="1.213282">
        <ele>1235.3</ele>
        <time>2013-07-30T06:09:13Z</time>
      </trkpt>
      <trkpt lat="42.592551" lon="1.213138">
        <ele>1236.0</ele>
        <time>2013-07-30T06:09:24Z</time>
      </trkpt>
      <trkpt lat="42.592665" lon="1.212958">
        <ele>1237.3</ele>
        <time>2013-07-30T06:09:39Z</time>
      </trkpt>
      <trkpt lat="42.592686" lon="1.212829">
        <ele>1236.2</ele>
        <time>2013-07-30T06:09:49Z</time>
      </trkpt>
      <trkpt lat="42.592699" lon="1.212750">
        <ele>1238.9</ele>
        <time>2013-07-30T06:09:54Z</time>
      </trkpt>
      <trkpt lat="42.592794" lon="1.212589">
        <ele>1240.1</ele>
        <time>2013-07-30T06:10:06Z</time>
      </trkpt>
      <trkpt lat="42.592855" lon="1.212538">
        <ele>1240.6</ele>
        <time>2013-07-30T06:10:11Z</time>
      </trkpt>
      <trkpt lat="42.592945" lon="1.212497">
        <ele>1241.9</ele>
        <time>2013-07-30T06:10:17Z</time>
      </trkpt>
      <trkpt lat="42.593027" lon="1.212402">
        <ele>1243.6</ele>
        <time>2013-07-30T06:10:29Z</time>
      </trkpt>
      <trkpt lat="42.593071" lon="1.212361">
        <ele>1244.2</ele>
        <time>2013-07-30T06:10:35Z</time>
      </trkpt>
      <trkpt lat="42.593192" lon="1.212272">
        <ele>1245.4</ele>
        <time>2013-07-30T06:10:47Z</time>
      </trkpt>
      <trkpt lat="42.593282" lon="1.212192">
        <ele>1246.8</ele>
        <time>2013-07-30T06:10:57Z</time>
      </trkpt>
      <trkpt lat="42.593376" lon="1.212045">
        <ele>1249.1</ele>
        <time>2013-07-30T06:11:11Z</time>
      </trkpt>
      <trkpt lat="42.593392" lon="1.211979">
        <ele>1249.7</ele>
        <time>2013-07-30T06:11:19Z</time>
      </trkpt>
      <trkpt lat="42.593387" lon="1.211823">
        <ele>1251.1</ele>
        <time>2013-07-30T06:11:29Z</time>
      </trkpt>
      <trkpt lat="42.593436" lon="1.211638">
        <ele>1252.2</ele>
        <time>2013-07-30T06:11:39Z</time>
      </trkpt>
      <trkpt lat="42.593474" lon="1.211544">
        <ele>1253.9</ele>
        <time>2013-07-30T06:11:45Z</time>
      </trkpt>
      <trkpt lat="42.593605" lon="1.211404">
        <ele>1256.2</ele>
        <time>2013-07-30T06:11:58Z</time>
      </trkpt>
      <trkpt lat="42.593720" lon="1.211323">
        <ele>1257.7</ele>
        <time>2013-07-30T06:12:08Z</time>
      </trkpt>
      <trkpt lat="42.593820" lon="1.211267">
        <ele>1259.0</ele>
        <time>2013-07-30T06:12:19Z</time>
      </trkpt>
      <trkpt lat="42.593916" lon="1.211218">
        <ele>1260.2</ele>
        <time>2013-07-30T06:12:31Z</time>
      </trkpt>
      <trkpt lat="42.594047" lon="1.211169">
        <ele>1261.9</ele>
        <time>2013-07-30T06:12:44Z</time>
      </trkpt>
      <trkpt lat="42.594066" lon="1.211156">
        <ele>1262.0</ele>
        <time>2013-07-30T06:12:48Z</time>
      </trkpt>
      <trkpt lat="42.594211" lon="1.211136">
        <ele>1263.1</ele>
        <time>2013-07-30T06:13:00Z</time>
      </trkpt>
      <trkpt lat="42.594224" lon="1.211132">
        <ele>1263.3</ele>
        <time>2013-07-30T06:13:01Z</time>
      </trkpt>
      <trkpt lat="42.594364" lon="1.211032">
        <ele>1264.3</ele>
        <time>2013-07-30T06:13:13Z</time>
      </trkpt>
      <trkpt lat="42.594479" lon="1.210975">
        <ele>1264.9</ele>
        <time>2013-07-30T06:13:24Z</time>
      </trkpt>
      <trkpt lat="42.594647" lon="1.210980">
        <ele>1265.6</ele>
        <time>2013-07-30T06:13:38Z</time>
      </trkpt>
      <trkpt lat="42.594704" lon="1.210986">
        <ele>1266.5</ele>
        <time>2013-07-30T06:13:42Z</time>
      </trkpt>
      <trkpt lat="42.594869" lon="1.210993">
        <ele>1268.5</ele>
        <time>2013-07-30T06:13:54Z</time>
      </trkpt>
      <trkpt lat="42.594907" lon="1.211036">
        <ele>1268.1</ele>
        <time>2013-07-30T06:13:58Z</time>
      </trkpt>
      <trkpt lat="42.595049" lon="1.211151">
        <ele>1268.6</ele>
        <time>2013-07-30T06:14:12Z</time>
      </trkpt>
      <trkpt lat="42.595067" lon="1.211169">
        <ele>1268.9</ele>
        <time>2013-07-30T06:14:14Z</time>
      </trkpt>
      <trkpt lat="42.595188" lon="1.211307">
        <ele>1268.9</ele>
        <time>2013-07-30T06:14:28Z</time>
      </trkpt>
      <trkpt lat="42.595207" lon="1.211337">
        <ele>1269.1</ele>
        <time>2013-07-30T06:14:31Z</time>
      </trkpt>
      <trkpt lat="42.595347" lon="1.211546">
        <ele>1270.8</ele>
        <time>2013-07-30T06:14:45Z</time>
      </trkpt>
      <trkpt lat="42.595392" lon="1.211609">
        <ele>1271.4</ele>
        <time>2013-07-30T06:14:51Z</time>
      </trkpt>
      <trkpt lat="42.595433" lon="1.211641">
        <ele>1271.8</ele>
        <time>2013-07-30T06:14:55Z</time>
      </trkpt>
      <trkpt lat="42.595473" lon="1.211701">
        <ele>1272.4</ele>
        <time>2013-07-30T06:14:59Z</time>
      </trkpt>
      <trkpt lat="42.595503" lon="1.211751">
        <ele>1272.7</ele>
        <time>2013-07-30T06:15:04Z</time>
      </trkpt>
      <trkpt lat="42.595605" lon="1.211896">
        <ele>1274.1</ele>
        <time>2013-07-30T06:15:15Z</time>
      </trkpt>
      <trkpt lat="42.595728" lon="1.212013">
        <ele>1275.3</ele>
        <time>2013-07-30T06:15:27Z</time>
      </trkpt>
      <trkpt lat="42.595779" lon="1.212031">
        <ele>1276.2</ele>
        <time>2013-07-30T06:15:31Z</time>
      </trkpt>
      <trkpt lat="42.595904" lon="1.212017">
        <ele>1277.1</ele>
        <time>2013-07-30T06:15:46Z</time>
      </trkpt>
      <trkpt lat="42.596054" lon="1.211993">
        <ele>1278.0</ele>
        <time>2013-07-30T06:15:57Z</time>
      </trkpt>
      <trkpt lat="42.596215" lon="1.212005">
        <ele>1279.0</ele>
        <time>2013-07-30T06:16:09Z</time>
      </trkpt>
      <trkpt lat="42.596305" lon="1.212028">
        <ele>1279.5</ele>
        <time>2013-07-30T06:16:19Z</time>
      </trkpt>
      <trkpt lat="42.596385" lon="1.212066">
        <ele>1280.2</ele>
        <time>2013-07-30T06:16:29Z</time>
      </trkpt>
      <trkpt lat="42.596395" lon="1.212072">
        <ele>1280.3</ele>
        <time>2013-07-30T06:16:42Z</time>
      </trkpt>
      <trkpt lat="42.596411" lon="1.212078">
        <ele>1280.4</ele>
        <time>2013-07-30T06:16:55Z</time>
      </trkpt>
      <trkpt lat="42.596411" lon="1.212078">
        <ele>1280.4</ele>
        <time>2013-07-30T06:17:22Z</time>
      </trkpt>
      <trkpt lat="42.596465" lon="1.211971">
        <ele>1282.8</ele>
        <time>2013-07-30T06:17:33Z</time>
      </trkpt>
      <trkpt lat="42.596447" lon="1.211989">
        <ele>1282.5</ele>
        <time>2013-07-30T06:17:37Z</time>
      </trkpt>
      <trkpt lat="42.596465" lon="1.211932">
        <ele>1283.0</ele>
        <time>2013-07-30T06:17:46Z</time>
      </trkpt>
      <trkpt lat="42.596461" lon="1.211926">
        <ele>1283.0</ele>
        <time>2013-07-30T06:17:47Z</time>
      </trkpt>
      <trkpt lat="42.596419" lon="1.211852">
        <ele>1283.8</ele>
        <time>2013-07-30T06:17:58Z</time>
      </trkpt>
      <trkpt lat="42.596410" lon="1.211871">
        <ele>1283.1</ele>
        <time>2013-07-30T06:18:09Z</time>
      </trkpt>
      <trkpt lat="42.596429" lon="1.211979">
        <ele>1282.3</ele>
        <time>2013-07-30T06:18:20Z</time>
      </trkpt>
      <trkpt lat="42.596435" lon="1.211983">
        <ele>1282.4</ele>
        <time>2013-07-30T06:18:21Z</time>
      </trkpt>
      <trkpt lat="42.596491" lon="1.212056">
        <ele>1282.1</ele>
        <time>2013-07-30T06:18:31Z</time>
      </trkpt>
      <trkpt lat="42.596493" lon="1.212047">
        <ele>1282.2</ele>
        <time>2013-07-30T06:18:44Z</time>
      </trkpt>
      <trkpt lat="42.596496" lon="1.212079">
        <ele>1281.8</ele>
        <time>2013-07-30T06:19:03Z</time>
      </trkpt>
      <trkpt lat="42.596635" lon="1.212125">
        <ele>1282.6</ele>
        <time>2013-07-30T06:19:17Z</time>
      </trkpt>
      <trkpt lat="42.596706" lon="1.212116">
        <ele>1283.1</ele>
        <time>2013-07-30T06:19:24Z</time>
      </trkpt>
      <trkpt lat="42.596729" lon="1.212108">
        <ele>1283.3</ele>
        <time>2013-07-30T06:19:26Z</time>
      </trkpt>
      <trkpt lat="42.596754" lon="1.212111">
        <ele>1283.5</ele>
        <time>2013-07-30T06:19:27Z</time>
      </trkpt>
      <trkpt lat="42.596864" lon="1.212100">
        <ele>1284.7</ele>
        <time>2013-07-30T06:19:37Z</time>
      </trkpt>
      <trkpt lat="42.596997" lon="1.212109">
        <ele>1286.3</ele>
        <time>2013-07-30T06:19:48Z</time>
      </trkpt>
      <trkpt lat="42.597093" lon="1.212147">
        <ele>1287.0</ele>
        <time>2013-07-30T06:19:57Z</time>
      </trkpt>
      <trkpt lat="42.597111" lon="1.212163">
        <ele>1286.8</ele>
        <time>2013-07-30T06:19:59Z</time>
      </trkpt>
      <trkpt lat="42.597133" lon="1.212177">
        <ele>1287.0</ele>
        <time>2013-07-30T06:20:01Z</time>
      </trkpt>
      <trkpt lat="42.597184" lon="1.212247">
        <ele>1286.4</ele>
        <time>2013-07-30T06:20:14Z</time>
      </trkpt>
      <trkpt lat="42.597229" lon="1.212239">
        <ele>1287.4</ele>
        <time>2013-07-30T06:20:29Z</time>
      </trkpt>
      <trkpt lat="42.597254" lon="1.212272">
        <ele>1287.2</ele>
        <time>2013-07-30T06:20:50Z</time>
      </trkpt>
      <trkpt lat="42.597234" lon="1.212306">
        <ele>1286.6</ele>
        <time>2013-07-30T06:21:09Z</time>
      </trkpt>
      <trkpt lat="42.597253" lon="1.212348">
        <ele>1286.6</ele>
        <time>2013-07-30T06:21:26Z</time>
      </trkpt>
      <trkpt lat="42.597169" lon="1.212358">
        <ele>1286.3</ele>
        <time>2013-07-30T06:21:38Z</time>
      </trkpt>
      <trkpt lat="42.597158" lon="1.212366">
        <ele>1286.6</ele>
        <time>2013-07-30T06:21:49Z</time>
      </trkpt>
      <trkpt lat="42.597169" lon="1.212391">
        <ele>1287.0</ele>
        <time>2013-07-30T06:21:52Z</time>
      </trkpt>
      <trkpt lat="42.597188" lon="1.212441">
        <ele>1288.8</ele>
        <time>2013-07-30T06:21:57Z</time>
      </trkpt>
      <trkpt lat="42.597207" lon="1.212487">
        <ele>1290.0</ele>
        <time>2013-07-30T06:22:01Z</time>
      </trkpt>
      <trkpt lat="42.597274" lon="1.212591">
        <ele>1290.6</ele>
        <time>2013-07-30T06:22:11Z</time>
      </trkpt>
      <trkpt lat="42.597380" lon="1.212724">
        <ele>1291.5</ele>
        <time>2013-07-30T06:22:26Z</time>
      </trkpt>
      <trkpt lat="42.597442" lon="1.212780">
        <ele>1291.7</ele>
        <time>2013-07-30T06:22:33Z</time>
      </trkpt>
      <trkpt lat="42.597484" lon="1.212824">
        <ele>1293.0</ele>
        <time>2013-07-30T06:22:43Z</time>
      </trkpt>
      <trkpt lat="42.597536" lon="1.212834">
        <ele>1293.5</ele>
        <time>2013-07-30T06:22:55Z</time>
      </trkpt>
      <trkpt lat="42.597629" lon="1.212855">
        <ele>1294.8</ele>
        <time>2013-07-30T06:23:05Z</time>
      </trkpt>
      <trkpt lat="42.597718" lon="1.212834">
        <ele>1293.5</ele>
        <time>2013-07-30T06:23:14Z</time>
      </trkpt>
      <trkpt lat="42.597772" lon="1.212845">
        <ele>1294.3</ele>
        <time>2013-07-30T06:23:19Z</time>
      </trkpt>
      <trkpt lat="42.597862" lon="1.212876">
        <ele>1297.2</ele>
        <time>2013-07-30T06:23:25Z</time>
      </trkpt>
      <trkpt lat="42.598080" lon="1.212969">
        <ele>1300.3</ele>
        <time>2013-07-30T06:23:32Z</time>
      </trkpt>
      <trkpt lat="42.598111" lon="1.213032">
        <ele>1300.5</ele>
        <time>2013-07-30T06:23:38Z</time>
      </trkpt>
      <trkpt lat="42.598145" lon="1.213089">
        <ele>1300.5</ele>
        <time>2013-07-30T06:23:43Z</time>
      </trkpt>
      <trkpt lat="42.598218" lon="1.213236">
        <ele>1302.6</ele>
        <time>2013-07-30T06:23:53Z</time>
      </trkpt>
      <trkpt lat="42.598289" lon="1.213360">
        <ele>1301.9</ele>
        <time>2013-07-30T06:24:05Z</time>
      </trkpt>
      <trkpt lat="42.598318" lon="1.213396">
        <ele>1300.8</ele>
        <time>2013-07-30T06:24:09Z</time>
      </trkpt>
      <trkpt lat="42.598467" lon="1.213430">
        <ele>1300.2</ele>
        <time>2013-07-30T06:24:23Z</time>
      </trkpt>
      <trkpt lat="42.598594" lon="1.213483">
        <ele>1302.3</ele>
        <time>2013-07-30T06:24:33Z</time>
      </trkpt>
      <trkpt lat="42.598656" lon="1.213462">
        <ele>1302.1</ele>
        <time>2013-07-30T06:24:40Z</time>
      </trkpt>
      <trkpt lat="42.598694" lon="1.213467">
        <ele>1303.1</ele>
        <time>2013-07-30T06:24:44Z</time>
      </trkpt>
      <trkpt lat="42.598725" lon="1.213479">
        <ele>1304.1</ele>
        <time>2013-07-30T06:24:47Z</time>
      </trkpt>
      <trkpt lat="42.598809" lon="1.213506">
        <ele>1305.6</ele>
        <time>2013-07-30T06:24:58Z</time>
      </trkpt>
      <trkpt lat="42.598817" lon="1.213506">
        <ele>1305.6</ele>
        <time>2013-07-30T06:25:00Z</time>
      </trkpt>
      <trkpt lat="42.598836" lon="1.213502">
        <ele>1305.6</ele>
        <time>2013-07-30T06:25:02Z</time>
      </trkpt>
      <trkpt lat="42.598915" lon="1.213483">
        <ele>1305.5</ele>
        <time>2013-07-30T06:25:12Z</time>
      </trkpt>
      <trkpt lat="42.598933" lon="1.213446">
        <ele>1305.4</ele>
        <time>2013-07-30T06:25:17Z</time>
      </trkpt>
      <trkpt lat="42.598998" lon="1.213420">
        <ele>1305.8</ele>
        <time>2013-07-30T06:25:28Z</time>
      </trkpt>
      <trkpt lat="42.599107" lon="1.213353">
        <ele>1306.9</ele>
        <time>2013-07-30T06:25:37Z</time>
      </trkpt>
      <trkpt lat="42.599242" lon="1.213309">
        <ele>1309.7</ele>
        <time>2013-07-30T06:25:45Z</time>
      </trkpt>
      <trkpt lat="42.599275" lon="1.213308">
        <ele>1310.3</ele>
        <time>2013-07-30T06:25:48Z</time>
      </trkpt>
      <trkpt lat="42.599337" lon="1.213322">
        <ele>1311.0</ele>
        <time>2013-07-30T06:25:53Z</time>
      </trkpt>
      <trkpt lat="42.599466" lon="1.213307">
        <ele>1312.0</ele>
        <time>2013-07-30T06:26:04Z</time>
      </trkpt>
      <trkpt lat="42.599561" lon="1.213263">
        <ele>1312.4</ele>
        <time>2013-07-30T06:26:15Z</time>
      </trkpt>
      <trkpt lat="42.599638" lon="1.213227">
        <ele>1311.6</ele>
        <time>2013-07-30T06:26:23Z</time>
      </trkpt>
      <trkpt lat="42.599710" lon="1.213208">
        <ele>1311.3</ele>
        <time>2013-07-30T06:26:30Z</time>
      </trkpt>
      <trkpt lat="42.599749" lon="1.213185">
        <ele>1311.3</ele>
        <time>2013-07-30T06:26:34Z</time>
      </trkpt>
      <trkpt lat="42.599775" lon="1.213175">
        <ele>1311.2</ele>
        <time>2013-07-30T06:26:37Z</time>
      </trkpt>
      <trkpt lat="42.599853" lon="1.213108">
        <ele>1312.5</ele>
        <time>2013-07-30T06:26:47Z</time>
      </trkpt>
      <trkpt lat="42.599856" lon="1.213101">
        <ele>1312.5</ele>
        <time>2013-07-30T06:26:55Z</time>
      </trkpt>
      <trkpt lat="42.599857" lon="1.213085">
        <ele>1312.5</ele>
        <time>2013-07-30T06:26:56Z</time>
      </trkpt>
      <trkpt lat="42.599928" lon="1.212982">
        <ele>1312.6</ele>
        <time>2013-07-30T06:27:06Z</time>
      </trkpt>
      <trkpt lat="42.599937" lon="1.212966">
        <ele>1313.1</ele>
        <time>2013-07-30T06:27:18Z</time>
      </trkpt>
      <trkpt lat="42.599959" lon="1.212934">
        <ele>1313.9</ele>
        <time>2013-07-30T06:27:42Z</time>
      </trkpt>
      <trkpt lat="42.599985" lon="1.212835">
        <ele>1314.8</ele>
        <time>2013-07-30T06:27:47Z</time>
      </trkpt>
      <trkpt lat="42.600004" lon="1.212787">
        <ele>1315.5</ele>
        <time>2013-07-30T06:27:50Z</time>
      </trkpt>
      <trkpt lat="42.600034" lon="1.212704">
        <ele>1315.5</ele>
        <time>2013-07-30T06:27:54Z</time>
      </trkpt>
      <trkpt lat="42.600100" lon="1.212572">
        <ele>1317.4</ele>
        <time>2013-07-30T06:28:03Z</time>
      </trkpt>
      <trkpt lat="42.600146" lon="1.212449">
        <ele>1318.5</ele>
        <time>2013-07-30T06:28:09Z</time>
      </trkpt>
      <trkpt lat="42.600181" lon="1.212370">
        <ele>1319.3</ele>
        <time>2013-07-30T06:28:15Z</time>
      </trkpt>
      <trkpt lat="42.600189" lon="1.212320">
        <ele>1319.1</ele>
        <time>2013-07-30T06:28:18Z</time>
      </trkpt>
      <trkpt lat="42.600196" lon="1.212292">
        <ele>1319.0</ele>
        <time>2013-07-30T06:28:20Z</time>
      </trkpt>
      <trkpt lat="42.600217" lon="1.212204">
        <ele>1319.4</ele>
        <time>2013-07-30T06:28:26Z</time>
      </trkpt>
      <trkpt lat="42.600332" lon="1.211967">
        <ele>1321.2</ele>
        <time>2013-07-30T06:28:41Z</time>
      </trkpt>
      <trkpt lat="42.600406" lon="1.211827">
        <ele>1322.1</ele>
        <time>2013-07-30T06:28:51Z</time>
      </trkpt>
      <trkpt lat="42.600474" lon="1.211686">
        <ele>1323.0</ele>
        <time>2013-07-30T06:29:03Z</time>
      </trkpt>
      <trkpt lat="42.600559" lon="1.211553">
        <ele>1323.6</ele>
        <time>2013-07-30T06:29:13Z</time>
      </trkpt>
      <trkpt lat="42.600677" lon="1.211408">
        <ele>1324.3</ele>
        <time>2013-07-30T06:29:27Z</time>
      </trkpt>
      <trkpt lat="42.600742" lon="1.211294">
        <ele>1324.6</ele>
        <time>2013-07-30T06:29:37Z</time>
      </trkpt>
      <trkpt lat="42.600747" lon="1.211270">
        <ele>1324.5</ele>
        <time>2013-07-30T06:29:40Z</time>
      </trkpt>
      <trkpt lat="42.600894" lon="1.211157">
        <ele>1327.3</ele>
        <time>2013-07-30T06:29:54Z</time>
      </trkpt>
      <trkpt lat="42.600985" lon="1.211050">
        <ele>1328.3</ele>
        <time>2013-07-30T06:30:03Z</time>
      </trkpt>
      <trkpt lat="42.601048" lon="1.210897">
        <ele>1328.3</ele>
        <time>2013-07-30T06:30:14Z</time>
      </trkpt>
      <trkpt lat="42.601058" lon="1.210829">
        <ele>1328.2</ele>
        <time>2013-07-30T06:30:18Z</time>
      </trkpt>
      <trkpt lat="42.601105" lon="1.210724">
        <ele>1329.2</ele>
        <time>2013-07-30T06:30:25Z</time>
      </trkpt>
      <trkpt lat="42.601177" lon="1.210537">
        <ele>1329.6</ele>
        <time>2013-07-30T06:30:37Z</time>
      </trkpt>
      <trkpt lat="42.601205" lon="1.210471">
        <ele>1330.0</ele>
        <time>2013-07-30T06:30:41Z</time>
      </trkpt>
      <trkpt lat="42.601277" lon="1.210291">
        <ele>1331.2</ele>
        <time>2013-07-30T06:30:52Z</time>
      </trkpt>
      <trkpt lat="42.601280" lon="1.210274">
        <ele>1331.3</ele>
        <time>2013-07-30T06:30:53Z</time>
      </trkpt>
      <trkpt lat="42.601282" lon="1.210255">
        <ele>1331.5</ele>
        <time>2013-07-30T06:30:54Z</time>
      </trkpt>
      <trkpt lat="42.601321" lon="1.210046">
        <ele>1332.9</ele>
        <time>2013-07-30T06:31:07Z</time>
      </trkpt>
      <trkpt lat="42.601324" lon="1.210035">
        <ele>1333.0</ele>
        <time>2013-07-30T06:31:09Z</time>
      </trkpt>
      <trkpt lat="42.601329" lon="1.210012">
        <ele>1333.1</ele>
        <time>2013-07-30T06:31:10Z</time>
      </trkpt>
      <trkpt lat="42.601390" lon="1.209841">
        <ele>1334.2</ele>
        <time>2013-07-30T06:31:18Z</time>
      </trkpt>
      <trkpt lat="42.601403" lon="1.209734">
        <ele>1335.0</ele>
        <time>2013-07-30T06:31:25Z</time>
      </trkpt>
      <trkpt lat="42.601433" lon="1.209651">
        <ele>1335.7</ele>
        <time>2013-07-30T06:31:30Z</time>
      </trkpt>
      <trkpt lat="42.601442" lon="1.209608">
        <ele>1336.0</ele>
        <time>2013-07-30T06:31:33Z</time>
      </trkpt>
      <trkpt lat="42.601496" lon="1.209432">
        <ele>1337.0</ele>
        <time>2013-07-30T06:31:44Z</time>
      </trkpt>
      <trkpt lat="42.601505" lon="1.209393">
        <ele>1337.1</ele>
        <time>2013-07-30T06:31:46Z</time>
      </trkpt>
      <trkpt lat="42.601515" lon="1.209380">
        <ele>1337.2</ele>
        <time>2013-07-30T06:31:47Z</time>
      </trkpt>
      <trkpt lat="42.601578" lon="1.209263">
        <ele>1337.8</ele>
        <time>2013-07-30T06:31:57Z</time>
      </trkpt>
      <trkpt lat="42.601650" lon="1.209167">
        <ele>1338.5</ele>
        <time>2013-07-30T06:32:08Z</time>
      </trkpt>
      <trkpt lat="42.601743" lon="1.209136">
        <ele>1340.0</ele>
        <time>2013-07-30T06:32:12Z</time>
      </trkpt>
      <trkpt lat="42.601951" lon="1.209190">
        <ele>1341.7</ele>
        <time>2013-07-30T06:32:25Z</time>
      </trkpt>
      <trkpt lat="42.601995" lon="1.209201">
        <ele>1341.7</ele>
        <time>2013-07-30T06:32:29Z</time>
      </trkpt>
      <trkpt lat="42.602088" lon="1.209240">
        <ele>1341.6</ele>
        <time>2013-07-30T06:32:37Z</time>
      </trkpt>
      <trkpt lat="42.602218" lon="1.209316">
        <ele>1342.8</ele>
        <time>2013-07-30T06:32:49Z</time>
      </trkpt>
      <trkpt lat="42.602243" lon="1.209330">
        <ele>1343.3</ele>
        <time>2013-07-30T06:32:52Z</time>
      </trkpt>
      <trkpt lat="42.602404" lon="1.209331">
        <ele>1344.5</ele>
        <time>2013-07-30T06:33:05Z</time>
      </trkpt>
      <trkpt lat="42.602536" lon="1.209290">
        <ele>1343.6</ele>
        <time>2013-07-30T06:33:18Z</time>
      </trkpt>
      <trkpt lat="42.602577" lon="1.209279">
        <ele>1343.9</ele>
        <time>2013-07-30T06:33:23Z</time>
      </trkpt>
      <trkpt lat="42.602598" lon="1.209265">
        <ele>1343.9</ele>
        <time>2013-07-30T06:33:25Z</time>
      </trkpt>
      <trkpt lat="42.602713" lon="1.209267">
        <ele>1344.8</ele>
        <time>2013-07-30T06:33:35Z</time>
      </trkpt>
      <trkpt lat="42.602762" lon="1.209287">
        <ele>1345.5</ele>
        <time>2013-07-30T06:33:40Z</time>
      </trkpt>
      <trkpt lat="42.602880" lon="1.209341">
        <ele>1346.6</ele>
        <time>2013-07-30T06:33:54Z</time>
      </trkpt>
      <trkpt lat="42.603002" lon="1.209351">
        <ele>1346.3</ele>
        <time>2013-07-30T06:34:05Z</time>
      </trkpt>
      <trkpt lat="42.603146" lon="1.209408">
        <ele>1348.2</ele>
        <time>2013-07-30T06:34:19Z</time>
      </trkpt>
      <trkpt lat="42.603256" lon="1.209392">
        <ele>1348.7</ele>
        <time>2013-07-30T06:34:29Z</time>
      </trkpt>
      <trkpt lat="42.603386" lon="1.209408">
        <ele>1350.1</ele>
        <time>2013-07-30T06:34:34Z</time>
      </trkpt>
      <trkpt lat="42.603412" lon="1.209392">
        <ele>1350.0</ele>
        <time>2013-07-30T06:34:39Z</time>
      </trkpt>
      <trkpt lat="42.603445" lon="1.209403">
        <ele>1350.3</ele>
        <time>2013-07-30T06:34:43Z</time>
      </trkpt>
      <trkpt lat="42.603576" lon="1.209472">
        <ele>1352.6</ele>
        <time>2013-07-30T06:34:57Z</time>
      </trkpt>
      <trkpt lat="42.603633" lon="1.209503">
        <ele>1354.0</ele>
        <time>2013-07-30T06:35:03Z</time>
      </trkpt>
      <trkpt lat="42.603755" lon="1.209603">
        <ele>1356.0</ele>
        <time>2013-07-30T06:35:17Z</time>
      </trkpt>
      <trkpt lat="42.603848" lon="1.209652">
        <ele>1356.1</ele>
        <time>2013-07-30T06:35:29Z</time>
      </trkpt>
      <trkpt lat="42.603966" lon="1.209702">
        <ele>1356.9</ele>
        <time>2013-07-30T06:35:41Z</time>
      </trkpt>
      <trkpt lat="42.603999" lon="1.209705">
        <ele>1356.7</ele>
        <time>2013-07-30T06:35:44Z</time>
      </trkpt>
      <trkpt lat="42.604012" lon="1.209714">
        <ele>1356.9</ele>
        <time>2013-07-30T06:35:45Z</time>
      </trkpt>
      <trkpt lat="42.604124" lon="1.209773">
        <ele>1358.2</ele>
        <time>2013-07-30T06:35:53Z</time>
      </trkpt>
      <trkpt lat="42.604233" lon="1.209813">
        <ele>1358.8</ele>
        <time>2013-07-30T06:36:02Z</time>
      </trkpt>
      <trkpt lat="42.604284" lon="1.209853">
        <ele>1359.5</ele>
        <time>2013-07-30T06:36:07Z</time>
      </trkpt>
      <trkpt lat="42.604379" lon="1.209954">
        <ele>1361.2</ele>
        <time>2013-07-30T06:36:19Z</time>
      </trkpt>
      <trkpt lat="42.604464" lon="1.210025">
        <ele>1361.9</ele>
        <time>2013-07-30T06:36:30Z</time>
      </trkpt>
      <trkpt lat="42.604485" lon="1.210048">
        <ele>1362.3</ele>
        <time>2013-07-30T06:36:33Z</time>
      </trkpt>
      <trkpt lat="42.604513" lon="1.210087">
        <ele>1363.0</ele>
        <time>2013-07-30T06:36:37Z</time>
      </trkpt>
      <trkpt lat="42.604623" lon="1.210195">
        <ele>1363.8</ele>
        <time>2013-07-30T06:36:47Z</time>
      </trkpt>
      <trkpt lat="42.604712" lon="1.210256">
        <ele>1363.2</ele>
        <time>2013-07-30T06:36:56Z</time>
      </trkpt>
      <trkpt lat="42.604827" lon="1.210394">
        <ele>1363.9</ele>
        <time>2013-07-30T06:37:10Z</time>
      </trkpt>
      <trkpt lat="42.604870" lon="1.210443">
        <ele>1364.4</ele>
        <time>2013-07-30T06:37:16Z</time>
      </trkpt>
      <trkpt lat="42.604926" lon="1.210486">
        <ele>1364.8</ele>
        <time>2013-07-30T06:37:22Z</time>
      </trkpt>
      <trkpt lat="42.605034" lon="1.210630">
        <ele>1366.2</ele>
        <time>2013-07-30T06:37:37Z</time>
      </trkpt>
      <trkpt lat="42.605151" lon="1.210656">
        <ele>1365.4</ele>
        <time>2013-07-30T06:37:50Z</time>
      </trkpt>
      <trkpt lat="42.605279" lon="1.210689">
        <ele>1365.7</ele>
        <time>2013-07-30T06:38:02Z</time>
      </trkpt>
      <trkpt lat="42.605321" lon="1.210695">
        <ele>1365.6</ele>
        <time>2013-07-30T06:38:05Z</time>
      </trkpt>
      <trkpt lat="42.605499" lon="1.210711">
        <ele>1366.8</ele>
        <time>2013-07-30T06:38:18Z</time>
      </trkpt>
      <trkpt lat="42.605528" lon="1.210706">
        <ele>1367.0</ele>
        <time>2013-07-30T06:38:28Z</time>
      </trkpt>
      <trkpt lat="42.605611" lon="1.210692">
        <ele>1366.7</ele>
        <time>2013-07-30T06:38:34Z</time>
      </trkpt>
      <trkpt lat="42.605630" lon="1.210693">
        <ele>1366.6</ele>
        <time>2013-07-30T06:38:35Z</time>
      </trkpt>
      <trkpt lat="42.605778" lon="1.210689">
        <ele>1367.2</ele>
        <time>2013-07-30T06:38:45Z</time>
      </trkpt>
      <trkpt lat="42.605917" lon="1.210647">
        <ele>1368.4</ele>
        <time>2013-07-30T06:38:57Z</time>
      </trkpt>
      <trkpt lat="42.606040" lon="1.210625">
        <ele>1369.9</ele>
        <time>2013-07-30T06:39:09Z</time>
      </trkpt>
      <trkpt lat="42.606142" lon="1.210660">
        <ele>1372.4</ele>
        <time>2013-07-30T06:39:20Z</time>
      </trkpt>
      <trkpt lat="42.606203" lon="1.210783">
        <ele>1372.8</ele>
        <time>2013-07-30T06:39:32Z</time>
      </trkpt>
      <trkpt lat="42.606263" lon="1.210894">
        <ele>1374.4</ele>
        <time>2013-07-30T06:39:43Z</time>
      </trkpt>
      <trkpt lat="42.606266" lon="1.210907">
        <ele>1374.6</ele>
        <time>2013-07-30T06:39:44Z</time>
      </trkpt>
      <trkpt lat="42.606331" lon="1.211008">
        <ele>1376.4</ele>
        <time>2013-07-30T06:39:56Z</time>
      </trkpt>
      <trkpt lat="42.606339" lon="1.211019">
        <ele>1376.7</ele>
        <time>2013-07-30T06:39:58Z</time>
      </trkpt>
      <trkpt lat="42.606378" lon="1.211058">
        <ele>1377.9</ele>
        <time>2013-07-30T06:40:04Z</time>
      </trkpt>
      <trkpt lat="42.606457" lon="1.211119">
        <ele>1379.6</ele>
        <time>2013-07-30T06:40:15Z</time>
      </trkpt>
      <trkpt lat="42.606488" lon="1.211138">
        <ele>1380.0</ele>
        <time>2013-07-30T06:40:19Z</time>
      </trkpt>
      <trkpt lat="42.606607" lon="1.211251">
        <ele>1382.8</ele>
        <time>2013-07-30T06:40:32Z</time>
      </trkpt>
      <trkpt lat="42.606720" lon="1.211370">
        <ele>1382.4</ele>
        <time>2013-07-30T06:40:45Z</time>
      </trkpt>
      <trkpt lat="42.606843" lon="1.211449">
        <ele>1382.1</ele>
        <time>2013-07-30T06:40:57Z</time>
      </trkpt>
      <trkpt lat="42.606957" lon="1.211523">
        <ele>1382.3</ele>
        <time>2013-07-30T06:41:09Z</time>
      </trkpt>
      <trkpt lat="42.607079" lon="1.211587">
        <ele>1383.3</ele>
        <time>2013-07-30T06:41:20Z</time>
      </trkpt>
      <trkpt lat="42.607174" lon="1.211627">
        <ele>1382.5</ele>
        <time>2013-07-30T06:41:35Z</time>
      </trkpt>
      <trkpt lat="42.607312" lon="1.211670">
        <ele>1381.3</ele>
        <time>2013-07-30T06:41:46Z</time>
      </trkpt>
      <trkpt lat="42.607363" lon="1.211659">
        <ele>1382.0</ele>
        <time>2013-07-30T06:41:51Z</time>
      </trkpt>
      <trkpt lat="42.607431" lon="1.211685">
        <ele>1381.4</ele>
        <time>2013-07-30T06:41:56Z</time>
      </trkpt>
      <trkpt lat="42.607529" lon="1.211713">
        <ele>1382.6</ele>
        <time>2013-07-30T06:42:10Z</time>
      </trkpt>
      <trkpt lat="42.607699" lon="1.211708">
        <ele>1384.2</ele>
        <time>2013-07-30T06:42:20Z</time>
      </trkpt>
      <trkpt lat="42.607798" lon="1.211706">
        <ele>1386.4</ele>
        <time>2013-07-30T06:42:33Z</time>
      </trkpt>
      <trkpt lat="42.608112" lon="1.211709">
        <ele>1387.8</ele>
        <time>2013-07-30T06:42:45Z</time>
      </trkpt>
      <trkpt lat="42.608233" lon="1.211747">
        <ele>1388.2</ele>
        <time>2013-07-30T06:43:00Z</time>
      </trkpt>
      <trkpt lat="42.608358" lon="1.211771">
        <ele>1386.9</ele>
        <time>2013-07-30T06:43:12Z</time>
      </trkpt>
      <trkpt lat="42.608403" lon="1.211764">
        <ele>1388.6</ele>
        <time>2013-07-30T06:43:19Z</time>
      </trkpt>
      <trkpt lat="42.608523" lon="1.211761">
        <ele>1388.4</ele>
        <time>2013-07-30T06:43:32Z</time>
      </trkpt>
      <trkpt lat="42.608591" lon="1.211748">
        <ele>1389.9</ele>
        <time>2013-07-30T06:43:37Z</time>
      </trkpt>
      <trkpt lat="42.608627" lon="1.211731">
        <ele>1390.2</ele>
        <time>2013-07-30T06:43:41Z</time>
      </trkpt>
      <trkpt lat="42.608652" lon="1.211722">
        <ele>1390.2</ele>
        <time>2013-07-30T06:43:44Z</time>
      </trkpt>
      <trkpt lat="42.608722" lon="1.211645">
        <ele>1390.7</ele>
        <time>2013-07-30T06:43:54Z</time>
      </trkpt>
      <trkpt lat="42.608761" lon="1.211594">
        <ele>1390.8</ele>
        <time>2013-07-30T06:43:59Z</time>
      </trkpt>
      <trkpt lat="42.608830" lon="1.211576">
        <ele>1390.9</ele>
        <time>2013-07-30T06:44:05Z</time>
      </trkpt>
      <trkpt lat="42.608908" lon="1.211548">
        <ele>1391.3</ele>
        <time>2013-07-30T06:44:10Z</time>
      </trkpt>
      <trkpt lat="42.608992" lon="1.211504">
        <ele>1391.8</ele>
        <time>2013-07-30T06:44:23Z</time>
      </trkpt>
      <trkpt lat="42.609016" lon="1.211465">
        <ele>1392.5</ele>
        <time>2013-07-30T06:44:37Z</time>
      </trkpt>
      <trkpt lat="42.609055" lon="1.211473">
        <ele>1392.5</ele>
        <time>2013-07-30T06:44:49Z</time>
      </trkpt>
      <trkpt lat="42.609135" lon="1.211515">
        <ele>1392.7</ele>
        <time>2013-07-30T06:45:00Z</time>
      </trkpt>
      <trkpt lat="42.609140" lon="1.211513">
        <ele>1392.8</ele>
        <time>2013-07-30T06:45:15Z</time>
      </trkpt>
      <trkpt lat="42.609140" lon="1.211513">
        <ele>1392.8</ele>
        <time>2013-07-30T06:45:35Z</time>
      </trkpt>
      <trkpt lat="42.609141" lon="1.211514">
        <ele>1392.8</ele>
        <time>2013-07-30T06:45:47Z</time>
      </trkpt>
      <trkpt lat="42.609141" lon="1.211514">
        <ele>1392.8</ele>
        <time>2013-07-30T06:46:01Z</time>
      </trkpt>
      <trkpt lat="42.609251" lon="1.211495">
        <ele>1393.9</ele>
        <time>2013-07-30T06:46:13Z</time>
      </trkpt>
      <trkpt lat="42.609297" lon="1.211481">
        <ele>1394.6</ele>
        <time>2013-07-30T06:46:21Z</time>
      </trkpt>
      <trkpt lat="42.609361" lon="1.211467">
        <ele>1395.2</ele>
        <time>2013-07-30T06:46:28Z</time>
      </trkpt>
      <trkpt lat="42.609417" lon="1.211447">
        <ele>1395.7</ele>
        <time>2013-07-30T06:46:33Z</time>
      </trkpt>
      <trkpt lat="42.609580" lon="1.211367">
        <ele>1396.3</ele>
        <time>2013-07-30T06:46:45Z</time>
      </trkpt>
      <trkpt lat="42.609604" lon="1.211339">
        <ele>1396.3</ele>
        <time>2013-07-30T06:46:48Z</time>
      </trkpt>
      <trkpt lat="42.609637" lon="1.211302">
        <ele>1396.1</ele>
        <time>2013-07-30T06:46:51Z</time>
      </trkpt>
      <trkpt lat="42.609695" lon="1.211226">
        <ele>1398.9</ele>
        <time>2013-07-30T06:46:58Z</time>
      </trkpt>
      <trkpt lat="42.609759" lon="1.211225">
        <ele>1398.3</ele>
        <time>2013-07-30T06:47:03Z</time>
      </trkpt>
      <trkpt lat="42.609816" lon="1.211223">
        <ele>1398.4</ele>
        <time>2013-07-30T06:47:07Z</time>
      </trkpt>
      <trkpt lat="42.609959" lon="1.211229">
        <ele>1401.6</ele>
        <time>2013-07-30T06:47:18Z</time>
      </trkpt>
      <trkpt lat="42.610001" lon="1.211209">
        <ele>1403.1</ele>
        <time>2013-07-30T06:47:23Z</time>
      </trkpt>
      <trkpt lat="42.610059" lon="1.211209">
        <ele>1405.6</ele>
        <time>2013-07-30T06:47:27Z</time>
      </trkpt>
      <trkpt lat="42.610195" lon="1.211184">
        <ele>1409.7</ele>
        <time>2013-07-30T06:47:38Z</time>
      </trkpt>
      <trkpt lat="42.610265" lon="1.211158">
        <ele>1413.0</ele>
        <time>2013-07-30T06:47:49Z</time>
      </trkpt>
      <trkpt lat="42.610293" lon="1.211105">
        <ele>1412.1</ele>
        <time>2013-07-30T06:47:56Z</time>
      </trkpt>
      <trkpt lat="42.610320" lon="1.211025">
        <ele>1409.6</ele>
        <time>2013-07-30T06:48:07Z</time>
      </trkpt>
      <trkpt lat="42.610373" lon="1.210967">
        <ele>1409.5</ele>
        <time>2013-07-30T06:48:18Z</time>
      </trkpt>
      <trkpt lat="42.610455" lon="1.210935">
        <ele>1411.8</ele>
        <time>2013-07-30T06:48:30Z</time>
      </trkpt>
      <trkpt lat="42.610491" lon="1.210913">
        <ele>1412.7</ele>
        <time>2013-07-30T06:48:34Z</time>
      </trkpt>
      <trkpt lat="42.610529" lon="1.210885">
        <ele>1413.2</ele>
        <time>2013-07-30T06:48:38Z</time>
      </trkpt>
      <trkpt lat="42.610629" lon="1.210852">
        <ele>1417.2</ele>
        <time>2013-07-30T06:48:49Z</time>
      </trkpt>
      <trkpt lat="42.610661" lon="1.210837">
        <ele>1418.2</ele>
        <time>2013-07-30T06:48:52Z</time>
      </trkpt>
      <trkpt lat="42.610780" lon="1.210777">
        <ele>1420.7</ele>
        <time>2013-07-30T06:49:04Z</time>
      </trkpt>
      <trkpt lat="42.610805" lon="1.210720">
        <ele>1420.3</ele>
        <time>2013-07-30T06:49:10Z</time>
      </trkpt>
      <trkpt lat="42.610879" lon="1.210590">
        <ele>1422.9</ele>
        <time>2013-07-30T06:49:22Z</time>
      </trkpt>
      <trkpt lat="42.610927" lon="1.210530">
        <ele>1424.2</ele>
        <time>2013-07-30T06:49:32Z</time>
      </trkpt>
      <trkpt lat="42.611062" lon="1.210418">
        <ele>1426.4</ele>
        <time>2013-07-30T06:49:45Z</time>
      </trkpt>
      <trkpt lat="42.611074" lon="1.210396">
        <ele>1426.4</ele>
        <time>2013-07-30T06:49:48Z</time>
      </trkpt>
      <trkpt lat="42.611180" lon="1.210318">
        <ele>1427.6</ele>
        <time>2013-07-30T06:50:00Z</time>
      </trkpt>
      <trkpt lat="42.611243" lon="1.210298">
        <ele>1428.2</ele>
        <time>2013-07-30T06:50:06Z</time>
      </trkpt>
      <trkpt lat="42.611370" lon="1.210379">
        <ele>1432.1</ele>
        <time>2013-07-30T06:50:17Z</time>
      </trkpt>
      <trkpt lat="42.611442" lon="1.210441">
        <ele>1434.2</ele>
        <time>2013-07-30T06:50:25Z</time>
      </trkpt>
      <trkpt lat="42.611538" lon="1.210424">
        <ele>1429.8</ele>
        <time>2013-07-30T06:50:36Z</time>
      </trkpt>
      <trkpt lat="42.611641" lon="1.210449">
        <ele>1430.5</ele>
        <time>2013-07-30T06:50:50Z</time>
      </trkpt>
      <trkpt lat="42.611685" lon="1.210439">
        <ele>1429.7</ele>
        <time>2013-07-30T06:50:56Z</time>
      </trkpt>
      <trkpt lat="42.611798" lon="1.210408">
        <ele>1430.4</ele>
        <time>2013-07-30T06:51:07Z</time>
      </trkpt>
      <trkpt lat="42.611936" lon="1.210427">
        <ele>1436.7</ele>
        <time>2013-07-30T06:51:18Z</time>
      </trkpt>
      <trkpt lat="42.611980" lon="1.210450">
        <ele>1438.0</ele>
        <time>2013-07-30T06:51:22Z</time>
      </trkpt>
      <trkpt lat="42.612015" lon="1.210473">
        <ele>1438.6</ele>
        <time>2013-07-30T06:51:25Z</time>
      </trkpt>
      <trkpt lat="42.612077" lon="1.210468">
        <ele>1436.7</ele>
        <time>2013-07-30T06:51:31Z</time>
      </trkpt>
      <trkpt lat="42.612132" lon="1.210484">
        <ele>1437.1</ele>
        <time>2013-07-30T06:51:35Z</time>
      </trkpt>
      <trkpt lat="42.612249" lon="1.210576">
        <ele>1442.4</ele>
        <time>2013-07-30T06:51:44Z</time>
      </trkpt>
      <trkpt lat="42.612383" lon="1.210617">
        <ele>1443.2</ele>
        <time>2013-07-30T06:51:59Z</time>
      </trkpt>
      <trkpt lat="42.612485" lon="1.210637">
        <ele>1445.3</ele>
        <time>2013-07-30T06:52:11Z</time>
      </trkpt>
      <trkpt lat="42.612612" lon="1.210666">
        <ele>1446.2</ele>
        <time>2013-07-30T06:52:24Z</time>
      </trkpt>
      <trkpt lat="42.612774" lon="1.210720">
        <ele>1448.6</ele>
        <time>2013-07-30T06:52:39Z</time>
      </trkpt>
      <trkpt lat="42.612914" lon="1.210743">
        <ele>1451.5</ele>
        <time>2013-07-30T06:52:50Z</time>
      </trkpt>
      <trkpt lat="42.612944" lon="1.210743">
        <ele>1451.9</ele>
        <time>2013-07-30T06:52:53Z</time>
      </trkpt>
      <trkpt lat="42.612974" lon="1.210735">
        <ele>1451.9</ele>
        <time>2013-07-30T06:52:56Z</time>
      </trkpt>
      <trkpt lat="42.613021" lon="1.210746">
        <ele>1453.0</ele>
        <time>2013-07-30T06:53:00Z</time>
      </trkpt>
      <trkpt lat="42.613176" lon="1.210766">
        <ele>1455.1</ele>
        <time>2013-07-30T06:53:12Z</time>
      </trkpt>
      <trkpt lat="42.613324" lon="1.210792">
        <ele>1456.9</ele>
        <time>2013-07-30T06:53:25Z</time>
      </trkpt>
      <trkpt lat="42.613415" lon="1.210785">
        <ele>1456.8</ele>
        <time>2013-07-30T06:53:34Z</time>
      </trkpt>
      <trkpt lat="42.613568" lon="1.210770">
        <ele>1458.4</ele>
        <time>2013-07-30T06:53:48Z</time>
      </trkpt>
      <trkpt lat="42.613708" lon="1.210707">
        <ele>1459.0</ele>
        <time>2013-07-30T06:54:01Z</time>
      </trkpt>
      <trkpt lat="42.613839" lon="1.210676">
        <ele>1460.4</ele>
        <time>2013-07-30T06:54:12Z</time>
      </trkpt>
      <trkpt lat="42.613892" lon="1.210679">
        <ele>1461.7</ele>
        <time>2013-07-30T06:54:16Z</time>
      </trkpt>
      <trkpt lat="42.614031" lon="1.210638">
        <ele>1464.4</ele>
        <time>2013-07-30T06:54:29Z</time>
      </trkpt>
      <trkpt lat="42.614049" lon="1.210619">
        <ele>1464.6</ele>
        <time>2013-07-30T06:54:32Z</time>
      </trkpt>
      <trkpt lat="42.614090" lon="1.210599">
        <ele>1465.4</ele>
        <time>2013-07-30T06:54:36Z</time>
      </trkpt>
      <trkpt lat="42.614195" lon="1.210574">
        <ele>1467.6</ele>
        <time>2013-07-30T06:54:47Z</time>
      </trkpt>
      <trkpt lat="42.614329" lon="1.210502">
        <ele>1468.4</ele>
        <time>2013-07-30T06:55:00Z</time>
      </trkpt>
      <trkpt lat="42.614444" lon="1.210435">
        <ele>1467.9</ele>
        <time>2013-07-30T06:55:11Z</time>
      </trkpt>
      <trkpt lat="42.614487" lon="1.210426">
        <ele>1468.2</ele>
        <time>2013-07-30T06:55:14Z</time>
      </trkpt>
      <trkpt lat="42.614604" lon="1.210417">
        <ele>1468.6</ele>
        <time>2013-07-30T06:55:25Z</time>
      </trkpt>
      <trkpt lat="42.614729" lon="1.210443">
        <ele>1471.2</ele>
        <time>2013-07-30T06:55:36Z</time>
      </trkpt>
      <trkpt lat="42.614848" lon="1.210420">
        <ele>1471.1</ele>
        <time>2013-07-30T06:55:47Z</time>
      </trkpt>
      <trkpt lat="42.614885" lon="1.210413">
        <ele>1471.2</ele>
        <time>2013-07-30T06:55:50Z</time>
      </trkpt>
      <trkpt lat="42.615025" lon="1.210437">
        <ele>1472.8</ele>
        <time>2013-07-30T06:56:02Z</time>
      </trkpt>
      <trkpt lat="42.615053" lon="1.210435">
        <ele>1472.7</ele>
        <time>2013-07-30T06:56:14Z</time>
      </trkpt>
      <trkpt lat="42.615053" lon="1.210435">
        <ele>1472.7</ele>
        <time>2013-07-30T06:56:43Z</time>
      </trkpt>
      <trkpt lat="42.615055" lon="1.210424">
        <ele>1472.1</ele>
        <time>2013-07-30T06:57:03Z</time>
      </trkpt>
      <trkpt lat="42.615118" lon="1.210446">
        <ele>1474.3</ele>
        <time>2013-07-30T06:57:07Z</time>
      </trkpt>
      <trkpt lat="42.615160" lon="1.210465">
        <ele>1475.8</ele>
        <time>2013-07-30T06:57:12Z</time>
      </trkpt>
      <trkpt lat="42.615302" lon="1.210467">
        <ele>1477.2</ele>
        <time>2013-07-30T06:57:25Z</time>
      </trkpt>
      <trkpt lat="42.615436" lon="1.210494">
        <ele>1477.8</ele>
        <time>2013-07-30T06:57:37Z</time>
      </trkpt>
      <trkpt lat="42.615531" lon="1.210515">
        <ele>1479.1</ele>
        <time>2013-07-30T06:57:47Z</time>
      </trkpt>
      <trkpt lat="42.615581" lon="1.210536">
        <ele>1480.1</ele>
        <time>2013-07-30T06:57:54Z</time>
      </trkpt>
      <trkpt lat="42.615595" lon="1.210547">
        <ele>1480.4</ele>
        <time>2013-07-30T06:58:12Z</time>
      </trkpt>
      <trkpt lat="42.615596" lon="1.210549">
        <ele>1480.4</ele>
        <time>2013-07-30T06:58:28Z</time>
      </trkpt>
      <trkpt lat="42.615597" lon="1.210548">
        <ele>1480.4</ele>
        <time>2013-07-30T06:58:48Z</time>
      </trkpt>
      <trkpt lat="42.615643" lon="1.210548">
        <ele>1480.4</ele>
        <time>2013-07-30T06:59:00Z</time>
      </trkpt>
      <trkpt lat="42.615682" lon="1.210553">
        <ele>1481.2</ele>
        <time>2013-07-30T06:59:06Z</time>
      </trkpt>
      <trkpt lat="42.615735" lon="1.210547">
        <ele>1482.1</ele>
        <time>2013-07-30T06:59:18Z</time>
      </trkpt>
      <trkpt lat="42.615739" lon="1.210549">
        <ele>1482.2</ele>
        <time>2013-07-30T06:59:50Z</time>
      </trkpt>
      <trkpt lat="42.615749" lon="1.210571">
        <ele>1482.9</ele>
        <time>2013-07-30T07:00:02Z</time>
      </trkpt>
      <trkpt lat="42.615804" lon="1.210624">
        <ele>1484.6</ele>
        <time>2013-07-30T07:00:09Z</time>
      </trkpt>
      <trkpt lat="42.615830" lon="1.210638">
        <ele>1485.1</ele>
        <time>2013-07-30T07:00:12Z</time>
      </trkpt>
      <trkpt lat="42.615857" lon="1.210658">
        <ele>1486.1</ele>
        <time>2013-07-30T07:00:16Z</time>
      </trkpt>
      <trkpt lat="42.615965" lon="1.210681">
        <ele>1488.1</ele>
        <time>2013-07-30T07:00:29Z</time>
      </trkpt>
      <trkpt lat="42.616024" lon="1.210709">
        <ele>1490.0</ele>
        <time>2013-07-30T07:00:36Z</time>
      </trkpt>
      <trkpt lat="42.616056" lon="1.210726">
        <ele>1491.2</ele>
        <time>2013-07-30T07:00:40Z</time>
      </trkpt>
      <trkpt lat="42.616085" lon="1.210732">
        <ele>1492.0</ele>
        <time>2013-07-30T07:00:44Z</time>
      </trkpt>
      <trkpt lat="42.616179" lon="1.210726">
        <ele>1494.0</ele>
        <time>2013-07-30T07:00:55Z</time>
      </trkpt>
      <trkpt lat="42.616220" lon="1.210734">
        <ele>1495.2</ele>
        <time>2013-07-30T07:00:59Z</time>
      </trkpt>
      <trkpt lat="42.616271" lon="1.210751">
        <ele>1495.8</ele>
        <time>2013-07-30T07:01:04Z</time>
      </trkpt>
      <trkpt lat="42.616291" lon="1.210748">
        <ele>1495.9</ele>
        <time>2013-07-30T07:01:06Z</time>
      </trkpt>
      <trkpt lat="42.616397" lon="1.210744">
        <ele>1497.2</ele>
        <time>2013-07-30T07:01:16Z</time>
      </trkpt>
      <trkpt lat="42.616468" lon="1.210769">
        <ele>1499.5</ele>
        <time>2013-07-30T07:01:25Z</time>
      </trkpt>
      <trkpt lat="42.616627" lon="1.210801">
        <ele>1501.4</ele>
        <time>2013-07-30T07:01:40Z</time>
      </trkpt>
      <trkpt lat="42.616681" lon="1.210813">
        <ele>1502.0</ele>
        <time>2013-07-30T07:01:45Z</time>
      </trkpt>
      <trkpt lat="42.616739" lon="1.210796">
        <ele>1501.6</ele>
        <time>2013-07-30T07:01:50Z</time>
      </trkpt>
      <trkpt lat="42.616866" lon="1.210819">
        <ele>1504.1</ele>
        <time>2013-07-30T07:02:02Z</time>
      </trkpt>
      <trkpt lat="42.616876" lon="1.210820">
        <ele>1504.2</ele>
        <time>2013-07-30T07:02:03Z</time>
      </trkpt>
      <trkpt lat="42.616973" lon="1.210842">
        <ele>1505.1</ele>
        <time>2013-07-30T07:02:12Z</time>
      </trkpt>
      <trkpt lat="42.617115" lon="1.210867">
        <ele>1506.3</ele>
        <time>2013-07-30T07:02:25Z</time>
      </trkpt>
      <trkpt lat="42.617189" lon="1.210899">
        <ele>1507.7</ele>
        <time>2013-07-30T07:02:33Z</time>
      </trkpt>
      <trkpt lat="42.617260" lon="1.210904">
        <ele>1507.7</ele>
        <time>2013-07-30T07:02:40Z</time>
      </trkpt>
      <trkpt lat="42.617323" lon="1.210939">
        <ele>1510.3</ele>
        <time>2013-07-30T07:02:47Z</time>
      </trkpt>
      <trkpt lat="42.617423" lon="1.210974">
        <ele>1510.3</ele>
        <time>2013-07-30T07:02:58Z</time>
      </trkpt>
      <trkpt lat="42.617448" lon="1.210984">
        <ele>1510.5</ele>
        <time>2013-07-30T07:03:01Z</time>
      </trkpt>
      <trkpt lat="42.617617" lon="1.210999">
        <ele>1511.1</ele>
        <time>2013-07-30T07:03:16Z</time>
      </trkpt>
      <trkpt lat="42.617625" lon="1.210998">
        <ele>1511.0</ele>
        <time>2013-07-30T07:03:17Z</time>
      </trkpt>
      <trkpt lat="42.617663" lon="1.210991">
        <ele>1510.9</ele>
        <time>2013-07-30T07:03:20Z</time>
      </trkpt>
      <trkpt lat="42.617727" lon="1.210993">
        <ele>1511.7</ele>
        <time>2013-07-30T07:03:26Z</time>
      </trkpt>
      <trkpt lat="42.617776" lon="1.210991">
        <ele>1512.3</ele>
        <time>2013-07-30T07:03:31Z</time>
      </trkpt>
      <trkpt lat="42.617855" lon="1.211015">
        <ele>1514.9</ele>
        <time>2013-07-30T07:03:40Z</time>
      </trkpt>
      <trkpt lat="42.617926" lon="1.211032">
        <ele>1516.6</ele>
        <time>2013-07-30T07:03:48Z</time>
      </trkpt>
      <trkpt lat="42.617954" lon="1.211041">
        <ele>1517.2</ele>
        <time>2013-07-30T07:03:51Z</time>
      </trkpt>
      <trkpt lat="42.617992" lon="1.211033">
        <ele>1517.4</ele>
        <time>2013-07-30T07:03:55Z</time>
      </trkpt>
      <trkpt lat="42.618069" lon="1.211038">
        <ele>1519.6</ele>
        <time>2013-07-30T07:04:04Z</time>
      </trkpt>
      <trkpt lat="42.618112" lon="1.211029">
        <ele>1520.4</ele>
        <time>2013-07-30T07:04:08Z</time>
      </trkpt>
      <trkpt lat="42.618204" lon="1.211070">
        <ele>1522.9</ele>
        <time>2013-07-30T07:04:19Z</time>
      </trkpt>
      <trkpt lat="42.618227" lon="1.211068">
        <ele>1523.4</ele>
        <time>2013-07-30T07:04:22Z</time>
      </trkpt>
      <trkpt lat="42.618254" lon="1.211055">
        <ele>1523.6</ele>
        <time>2013-07-30T07:04:25Z</time>
      </trkpt>
      <trkpt lat="42.618301" lon="1.211052">
        <ele>1524.6</ele>
        <time>2013-07-30T07:04:31Z</time>
      </trkpt>
      <trkpt lat="42.618384" lon="1.211057">
        <ele>1525.8</ele>
        <time>2013-07-30T07:04:39Z</time>
      </trkpt>
      <trkpt lat="42.618501" lon="1.211076">
        <ele>1527.6</ele>
        <time>2013-07-30T07:04:51Z</time>
      </trkpt>
      <trkpt lat="42.618600" lon="1.211120">
        <ele>1529.3</ele>
        <time>2013-07-30T07:05:02Z</time>
      </trkpt>
      <trkpt lat="42.618701" lon="1.211172">
        <ele>1531.1</ele>
        <time>2013-07-30T07:05:13Z</time>
      </trkpt>
      <trkpt lat="42.618739" lon="1.211201">
        <ele>1531.7</ele>
        <time>2013-07-30T07:05:25Z</time>
      </trkpt>
      <trkpt lat="42.618738" lon="1.211203">
        <ele>1531.8</ele>
        <time>2013-07-30T07:05:46Z</time>
      </trkpt>
      <trkpt lat="42.618723" lon="1.211216">
        <ele>1532.4</ele>
        <time>2013-07-30T07:05:54Z</time>
      </trkpt>
      <trkpt lat="42.618653" lon="1.211215">
        <ele>1532.8</ele>
        <time>2013-07-30T07:06:02Z</time>
      </trkpt>
      <trkpt lat="42.618569" lon="1.211250">
        <ele>1534.1</ele>
        <time>2013-07-30T07:06:10Z</time>
      </trkpt>
      <trkpt lat="42.618446" lon="1.211326">
        <ele>1536.3</ele>
        <time>2013-07-30T07:06:24Z</time>
      </trkpt>
      <trkpt lat="42.618370" lon="1.211354">
        <ele>1537.3</ele>
        <time>2013-07-30T07:06:33Z</time>
      </trkpt>
      <trkpt lat="42.618344" lon="1.211366">
        <ele>1537.8</ele>
        <time>2013-07-30T07:06:38Z</time>
      </trkpt>
      <trkpt lat="42.618224" lon="1.211398">
        <ele>1539.3</ele>
        <time>2013-07-30T07:06:50Z</time>
      </trkpt>
      <trkpt lat="42.618104" lon="1.211451">
        <ele>1540.3</ele>
        <time>2013-07-30T07:07:03Z</time>
      </trkpt>
      <trkpt lat="42.618092" lon="1.211468">
        <ele>1541.0</ele>
        <time>2013-07-30T07:07:16Z</time>
      </trkpt>
      <trkpt lat="42.618082" lon="1.211478">
        <ele>1541.4</ele>
        <time>2013-07-30T07:07:18Z</time>
      </trkpt>
      <trkpt lat="42.618084" lon="1.211508">
        <ele>1542.7</ele>
        <time>2013-07-30T07:07:28Z</time>
      </trkpt>
      <trkpt lat="42.618071" lon="1.211518">
        <ele>1543.0</ele>
        <time>2013-07-30T07:07:36Z</time>
      </trkpt>
      <trkpt lat="42.618045" lon="1.211550">
        <ele>1543.9</ele>
        <time>2013-07-30T07:07:46Z</time>
      </trkpt>
      <trkpt lat="42.618040" lon="1.211583">
        <ele>1545.4</ele>
        <time>2013-07-30T07:07:59Z</time>
      </trkpt>
      <trkpt lat="42.618007" lon="1.211617">
        <ele>1546.5</ele>
        <time>2013-07-30T07:08:12Z</time>
      </trkpt>
      <trkpt lat="42.617893" lon="1.211706">
        <ele>1548.5</ele>
        <time>2013-07-30T07:08:25Z</time>
      </trkpt>
      <trkpt lat="42.617884" lon="1.211711">
        <ele>1548.5</ele>
        <time>2013-07-30T07:08:26Z</time>
      </trkpt>
      <trkpt lat="42.617864" lon="1.211738">
        <ele>1549.2</ele>
        <time>2013-07-30T07:08:29Z</time>
      </trkpt>
      <trkpt lat="42.617803" lon="1.211799">
        <ele>1551.7</ele>
        <time>2013-07-30T07:08:40Z</time>
      </trkpt>
      <trkpt lat="42.617735" lon="1.211868">
        <ele>1554.1</ele>
        <time>2013-07-30T07:08:53Z</time>
      </trkpt>
      <trkpt lat="42.617712" lon="1.211894">
        <ele>1555.1</ele>
        <time>2013-07-30T07:08:58Z</time>
      </trkpt>
      <trkpt lat="42.617669" lon="1.211932">
        <ele>1556.2</ele>
        <time>2013-07-30T07:09:09Z</time>
      </trkpt>
      <trkpt lat="42.617661" lon="1.211934">
        <ele>1556.2</ele>
        <time>2013-07-30T07:09:10Z</time>
      </trkpt>
      <trkpt lat="42.617637" lon="1.211947">
        <ele>1556.7</ele>
        <time>2013-07-30T07:09:13Z</time>
      </trkpt>
      <trkpt lat="42.617613" lon="1.211967">
        <ele>1557.7</ele>
        <time>2013-07-30T07:09:16Z</time>
      </trkpt>
      <trkpt lat="42.617552" lon="1.212029">
        <ele>1560.1</ele>
        <time>2013-07-30T07:09:29Z</time>
      </trkpt>
      <trkpt lat="42.617511" lon="1.212049">
        <ele>1560.5</ele>
        <time>2013-07-30T07:09:40Z</time>
      </trkpt>
      <trkpt lat="42.617471" lon="1.212083">
        <ele>1562.1</ele>
        <time>2013-07-30T07:09:47Z</time>
      </trkpt>
      <trkpt lat="42.617451" lon="1.212093">
        <ele>1562.3</ele>
        <time>2013-07-30T07:09:50Z</time>
      </trkpt>
      <trkpt lat="42.617404" lon="1.212118">
        <ele>1563.5</ele>
        <time>2013-07-30T07:09:55Z</time>
      </trkpt>
      <trkpt lat="42.617351" lon="1.212135">
        <ele>1564.3</ele>
        <time>2013-07-30T07:10:02Z</time>
      </trkpt>
      <trkpt lat="42.617272" lon="1.212192">
        <ele>1566.7</ele>
        <time>2013-07-30T07:10:14Z</time>
      </trkpt>
      <trkpt lat="42.617197" lon="1.212221">
        <ele>1567.4</ele>
        <time>2013-07-30T07:10:22Z</time>
      </trkpt>
      <trkpt lat="42.617177" lon="1.212220">
        <ele>1567.3</ele>
        <time>2013-07-30T07:10:24Z</time>
      </trkpt>
      <trkpt lat="42.617099" lon="1.212293">
        <ele>1570.6</ele>
        <time>2013-07-30T07:10:36Z</time>
      </trkpt>
      <trkpt lat="42.617018" lon="1.212357">
        <ele>1573.3</ele>
        <time>2013-07-30T07:10:48Z</time>
      </trkpt>
      <trkpt lat="42.617018" lon="1.212355">
        <ele>1573.2</ele>
        <time>2013-07-30T07:11:17Z</time>
      </trkpt>
      <trkpt lat="42.616930" lon="1.212380">
        <ele>1574.0</ele>
        <time>2013-07-30T07:11:29Z</time>
      </trkpt>
      <trkpt lat="42.616895" lon="1.212400">
        <ele>1574.6</ele>
        <time>2013-07-30T07:11:34Z</time>
      </trkpt>
      <trkpt lat="42.616813" lon="1.212445">
        <ele>1576.9</ele>
        <time>2013-07-30T07:11:46Z</time>
      </trkpt>
      <trkpt lat="42.616754" lon="1.212474">
        <ele>1578.1</ele>
        <time>2013-07-30T07:11:57Z</time>
      </trkpt>
      <trkpt lat="42.616691" lon="1.212503">
        <ele>1579.4</ele>
        <time>2013-07-30T07:12:08Z</time>
      </trkpt>
      <trkpt lat="42.616662" lon="1.212521">
        <ele>1579.7</ele>
        <time>2013-07-30T07:12:11Z</time>
      </trkpt>
      <trkpt lat="42.616593" lon="1.212564">
        <ele>1581.2</ele>
        <time>2013-07-30T07:12:22Z</time>
      </trkpt>
      <trkpt lat="42.616509" lon="1.212558">
        <ele>1581.9</ele>
        <time>2013-07-30T07:12:34Z</time>
      </trkpt>
      <trkpt lat="42.616438" lon="1.212549">
        <ele>1584.0</ele>
        <time>2013-07-30T07:12:45Z</time>
      </trkpt>
      <trkpt lat="42.616417" lon="1.212539">
        <ele>1584.4</ele>
        <time>2013-07-30T07:12:48Z</time>
      </trkpt>
      <trkpt lat="42.616371" lon="1.212504">
        <ele>1584.7</ele>
        <time>2013-07-30T07:12:54Z</time>
      </trkpt>
      <trkpt lat="42.616338" lon="1.212501">
        <ele>1585.8</ele>
        <time>2013-07-30T07:12:58Z</time>
      </trkpt>
      <trkpt lat="42.616286" lon="1.212538">
        <ele>1588.5</ele>
        <time>2013-07-30T07:13:09Z</time>
      </trkpt>
      <trkpt lat="42.616221" lon="1.212547">
        <ele>1589.1</ele>
        <time>2013-07-30T07:13:28Z</time>
      </trkpt>
      <trkpt lat="42.616181" lon="1.212552">
        <ele>1589.8</ele>
        <time>2013-07-30T07:13:32Z</time>
      </trkpt>
      <trkpt lat="42.616138" lon="1.212530">
        <ele>1589.2</ele>
        <time>2013-07-30T07:13:36Z</time>
      </trkpt>
      <trkpt lat="42.616105" lon="1.212528">
        <ele>1589.8</ele>
        <time>2013-07-30T07:13:39Z</time>
      </trkpt>
      <trkpt lat="42.616004" lon="1.212561">
        <ele>1591.7</ele>
        <time>2013-07-30T07:13:49Z</time>
      </trkpt>
      <trkpt lat="42.615951" lon="1.212589">
        <ele>1592.9</ele>
        <time>2013-07-30T07:13:56Z</time>
      </trkpt>
      <trkpt lat="42.615828" lon="1.212632">
        <ele>1594.4</ele>
        <time>2013-07-30T07:14:09Z</time>
      </trkpt>
      <trkpt lat="42.615779" lon="1.212653">
        <ele>1594.9</ele>
        <time>2013-07-30T07:14:15Z</time>
      </trkpt>
      <trkpt lat="42.615664" lon="1.212714">
        <ele>1597.7</ele>
        <time>2013-07-30T07:14:28Z</time>
      </trkpt>
      <trkpt lat="42.615631" lon="1.212740">
        <ele>1598.7</ele>
        <time>2013-07-30T07:14:33Z</time>
      </trkpt>
      <trkpt lat="42.615537" lon="1.212788">
        <ele>1600.9</ele>
        <time>2013-07-30T07:14:45Z</time>
      </trkpt>
      <trkpt lat="42.615503" lon="1.212843">
        <ele>1602.9</ele>
        <time>2013-07-30T07:14:57Z</time>
      </trkpt>
      <trkpt lat="42.615451" lon="1.212906">
        <ele>1605.1</ele>
        <time>2013-07-30T07:15:09Z</time>
      </trkpt>
      <trkpt lat="42.615446" lon="1.212947">
        <ele>1606.5</ele>
        <time>2013-07-30T07:15:18Z</time>
      </trkpt>
      <trkpt lat="42.615428" lon="1.213004">
        <ele>1608.9</ele>
        <time>2013-07-30T07:15:28Z</time>
      </trkpt>
      <trkpt lat="42.615367" lon="1.213081">
        <ele>1611.2</ele>
        <time>2013-07-30T07:15:40Z</time>
      </trkpt>
      <trkpt lat="42.615333" lon="1.213145">
        <ele>1613.2</ele>
        <time>2013-07-30T07:15:50Z</time>
      </trkpt>
      <trkpt lat="42.615301" lon="1.213227">
        <ele>1615.8</ele>
        <time>2013-07-30T07:16:03Z</time>
      </trkpt>
      <trkpt lat="42.615271" lon="1.213337">
        <ele>1618.2</ele>
        <time>2013-07-30T07:16:17Z</time>
      </trkpt>
      <trkpt lat="42.615280" lon="1.213400">
        <ele>1619.6</ele>
        <time>2013-07-30T07:16:24Z</time>
      </trkpt>
      <trkpt lat="42.615313" lon="1.213420">
        <ele>1620.3</ele>
        <time>2013-07-30T07:16:30Z</time>
      </trkpt>
      <trkpt lat="42.615405" lon="1.213368">
        <ele>1622.2</ele>
        <time>2013-07-30T07:16:43Z</time>
      </trkpt>
      <trkpt lat="42.615483" lon="1.213357">
        <ele>1624.2</ele>
        <time>2013-07-30T07:16:54Z</time>
      </trkpt>
      <trkpt lat="42.615549" lon="1.213349">
        <ele>1625.9</ele>
        <time>2013-07-30T07:17:04Z</time>
      </trkpt>
      <trkpt lat="42.615545" lon="1.213384">
        <ele>1627.0</ele>
        <time>2013-07-30T07:17:09Z</time>
      </trkpt>
      <trkpt lat="42.615492" lon="1.213465">
        <ele>1628.6</ele>
        <time>2013-07-30T07:17:20Z</time>
      </trkpt>
      <trkpt lat="42.615516" lon="1.213515">
        <ele>1631.3</ele>
        <time>2013-07-30T07:17:31Z</time>
      </trkpt>
      <trkpt lat="42.615542" lon="1.213515">
        <ele>1632.1</ele>
        <time>2013-07-30T07:17:36Z</time>
      </trkpt>
      <trkpt lat="42.615561" lon="1.213509">
        <ele>1632.5</ele>
        <time>2013-07-30T07:17:39Z</time>
      </trkpt>
      <trkpt lat="42.615608" lon="1.213496">
        <ele>1633.8</ele>
        <time>2013-07-30T07:17:48Z</time>
      </trkpt>
      <trkpt lat="42.615639" lon="1.213506">
        <ele>1635.4</ele>
        <time>2013-07-30T07:17:54Z</time>
      </trkpt>
      <trkpt lat="42.615688" lon="1.213518">
        <ele>1637.1</ele>
        <time>2013-07-30T07:18:02Z</time>
      </trkpt>
      <trkpt lat="42.615708" lon="1.213512">
        <ele>1637.4</ele>
        <time>2013-07-30T07:18:05Z</time>
      </trkpt>
      <trkpt lat="42.615731" lon="1.213545">
        <ele>1639.2</ele>
        <time>2013-07-30T07:18:15Z</time>
      </trkpt>
      <trkpt lat="42.615722" lon="1.213637">
        <ele>1641.7</ele>
        <time>2013-07-30T07:18:26Z</time>
      </trkpt>
      <trkpt lat="42.615708" lon="1.213733">
        <ele>1644.4</ele>
        <time>2013-07-30T07:18:36Z</time>
      </trkpt>
      <trkpt lat="42.615706" lon="1.213768">
        <ele>1645.3</ele>
        <time>2013-07-30T07:18:43Z</time>
      </trkpt>
      <trkpt lat="42.615701" lon="1.213801">
        <ele>1646.1</ele>
        <time>2013-07-30T07:18:46Z</time>
      </trkpt>
      <trkpt lat="42.615745" lon="1.213790">
        <ele>1646.8</ele>
        <time>2013-07-30T07:22:42Z</time>
      </trkpt>
      <trkpt lat="42.615807" lon="1.213786">
        <ele>1647.8</ele>
        <time>2013-07-30T07:22:51Z</time>
      </trkpt>
      <trkpt lat="42.615862" lon="1.213796">
        <ele>1649.0</ele>
        <time>2013-07-30T07:23:02Z</time>
      </trkpt>
      <trkpt lat="42.615901" lon="1.213792">
        <ele>1649.6</ele>
        <time>2013-07-30T07:38:58Z</time>
      </trkpt>
      <trkpt lat="42.615987" lon="1.213844">
        <ele>1652.0</ele>
        <time>2013-07-30T07:39:08Z</time>
      </trkpt>
      <trkpt lat="42.616025" lon="1.213867">
        <ele>1653.2</ele>
        <time>2013-07-30T07:39:12Z</time>
      </trkpt>
      <trkpt lat="42.616079" lon="1.213895">
        <ele>1654.2</ele>
        <time>2013-07-30T07:39:19Z</time>
      </trkpt>
      <trkpt lat="42.616144" lon="1.213948">
        <ele>1656.2</ele>
        <time>2013-07-30T07:39:30Z</time>
      </trkpt>
      <trkpt lat="42.616141" lon="1.213961">
        <ele>1656.6</ele>
        <time>2013-07-30T07:39:38Z</time>
      </trkpt>
      <trkpt lat="42.616103" lon="1.214051">
        <ele>1658.7</ele>
        <time>2013-07-30T07:39:49Z</time>
      </trkpt>
      <trkpt lat="42.616082" lon="1.214118">
        <ele>1659.6</ele>
        <time>2013-07-30T07:39:56Z</time>
      </trkpt>
      <trkpt lat="42.616085" lon="1.214199">
        <ele>1661.8</ele>
        <time>2013-07-30T07:40:07Z</time>
      </trkpt>
      <trkpt lat="42.616085" lon="1.214223">
        <ele>1662.4</ele>
        <time>2013-07-30T07:40:10Z</time>
      </trkpt>
      <trkpt lat="42.616079" lon="1.214258">
        <ele>1662.8</ele>
        <time>2013-07-30T07:40:20Z</time>
      </trkpt>
      <trkpt lat="42.616079" lon="1.214258">
        <ele>1662.8</ele>
        <time>2013-07-30T07:40:33Z</time>
      </trkpt>
      <trkpt lat="42.616073" lon="1.214325">
        <ele>1663.9</ele>
        <time>2013-07-30T07:40:41Z</time>
      </trkpt>
      <trkpt lat="42.616079" lon="1.214392">
        <ele>1665.5</ele>
        <time>2013-07-30T07:40:53Z</time>
      </trkpt>
      <trkpt lat="42.616080" lon="1.214417">
        <ele>1665.9</ele>
        <time>2013-07-30T07:43:00Z</time>
      </trkpt>
      <trkpt lat="42.616085" lon="1.214457">
        <ele>1666.9</ele>
        <time>2013-07-30T07:43:04Z</time>
      </trkpt>
      <trkpt lat="42.616085" lon="1.214494">
        <ele>1667.6</ele>
        <time>2013-07-30T07:43:07Z</time>
      </trkpt>
      <trkpt lat="42.616081" lon="1.214530">
        <ele>1668.1</ele>
        <time>2013-07-30T07:43:11Z</time>
      </trkpt>
      <trkpt lat="42.616091" lon="1.214617">
        <ele>1670.8</ele>
        <time>2013-07-30T07:43:21Z</time>
      </trkpt>
      <trkpt lat="42.616100" lon="1.214692">
        <ele>1673.0</ele>
        <time>2013-07-30T07:43:31Z</time>
      </trkpt>
      <trkpt lat="42.616129" lon="1.214747">
        <ele>1675.9</ele>
        <time>2013-07-30T07:43:42Z</time>
      </trkpt>
      <trkpt lat="42.616145" lon="1.214783">
        <ele>1677.7</ele>
        <time>2013-07-30T07:43:53Z</time>
      </trkpt>
      <trkpt lat="42.616141" lon="1.214805">
        <ele>1678.1</ele>
        <time>2013-07-30T07:43:56Z</time>
      </trkpt>
      <trkpt lat="42.616146" lon="1.214837">
        <ele>1679.1</ele>
        <time>2013-07-30T07:44:02Z</time>
      </trkpt>
      <trkpt lat="42.616141" lon="1.214899">
        <ele>1680.0</ele>
        <time>2013-07-30T07:44:09Z</time>
      </trkpt>
      <trkpt lat="42.616135" lon="1.215030">
        <ele>1681.9</ele>
        <time>2013-07-30T07:44:21Z</time>
      </trkpt>
      <trkpt lat="42.616121" lon="1.215155">
        <ele>1684.0</ele>
        <time>2013-07-30T07:44:33Z</time>
      </trkpt>
      <trkpt lat="42.616122" lon="1.215165">
        <ele>1684.3</ele>
        <time>2013-07-30T07:44:34Z</time>
      </trkpt>
      <trkpt lat="42.616119" lon="1.215189">
        <ele>1684.7</ele>
        <time>2013-07-30T07:44:36Z</time>
      </trkpt>
      <trkpt lat="42.616123" lon="1.215209">
        <ele>1685.4</ele>
        <time>2013-07-30T07:44:39Z</time>
      </trkpt>
      <trkpt lat="42.616115" lon="1.215316">
        <ele>1687.4</ele>
        <time>2013-07-30T07:44:50Z</time>
      </trkpt>
      <trkpt lat="42.616112" lon="1.215379">
        <ele>1688.3</ele>
        <time>2013-07-30T07:44:57Z</time>
      </trkpt>
      <trkpt lat="42.616107" lon="1.215482">
        <ele>1690.0</ele>
        <time>2013-07-30T07:45:07Z</time>
      </trkpt>
      <trkpt lat="42.616110" lon="1.215561">
        <ele>1691.8</ele>
        <time>2013-07-30T07:45:18Z</time>
      </trkpt>
      <trkpt lat="42.616112" lon="1.215655">
        <ele>1693.8</ele>
        <time>2013-07-30T07:45:28Z</time>
      </trkpt>
      <trkpt lat="42.616114" lon="1.215687">
        <ele>1694.6</ele>
        <time>2013-07-30T07:45:31Z</time>
      </trkpt>
      <trkpt lat="42.616126" lon="1.215788">
        <ele>1697.3</ele>
        <time>2013-07-30T07:45:42Z</time>
      </trkpt>
      <trkpt lat="42.616123" lon="1.215820">
        <ele>1697.6</ele>
        <time>2013-07-30T07:45:45Z</time>
      </trkpt>
      <trkpt lat="42.616113" lon="1.215868">
        <ele>1697.7</ele>
        <time>2013-07-30T07:45:49Z</time>
      </trkpt>
      <trkpt lat="42.616098" lon="1.215947">
        <ele>1698.1</ele>
        <time>2013-07-30T07:45:55Z</time>
      </trkpt>
      <trkpt lat="42.616092" lon="1.216049">
        <ele>1699.7</ele>
        <time>2013-07-30T07:46:03Z</time>
      </trkpt>
      <trkpt lat="42.616094" lon="1.216120">
        <ele>1701.6</ele>
        <time>2013-07-30T07:46:11Z</time>
      </trkpt>
      <trkpt lat="42.616106" lon="1.216181">
        <ele>1704.1</ele>
        <time>2013-07-30T07:46:22Z</time>
      </trkpt>
      <trkpt lat="42.616089" lon="1.216235">
        <ele>1705.4</ele>
        <time>2013-07-30T07:46:32Z</time>
      </trkpt>
      <trkpt lat="42.616069" lon="1.216297">
        <ele>1707.5</ele>
        <time>2013-07-30T07:46:44Z</time>
      </trkpt>
      <trkpt lat="42.616045" lon="1.216368">
        <ele>1709.9</ele>
        <time>2013-07-30T07:46:54Z</time>
      </trkpt>
      <trkpt lat="42.616040" lon="1.216444">
        <ele>1712.8</ele>
        <time>2013-07-30T07:47:06Z</time>
      </trkpt>
      <trkpt lat="42.616018" lon="1.216472">
        <ele>1713.6</ele>
        <time>2013-07-30T07:47:12Z</time>
      </trkpt>
      <trkpt lat="42.615974" lon="1.216542">
        <ele>1715.8</ele>
        <time>2013-07-30T07:47:22Z</time>
      </trkpt>
      <trkpt lat="42.615960" lon="1.216622">
        <ele>1718.7</ele>
        <time>2013-07-30T07:47:33Z</time>
      </trkpt>
      <trkpt lat="42.615949" lon="1.216646">
        <ele>1719.4</ele>
        <time>2013-07-30T07:47:37Z</time>
      </trkpt>
      <trkpt lat="42.615890" lon="1.216722">
        <ele>1721.1</ele>
        <time>2013-07-30T07:47:49Z</time>
      </trkpt>
      <trkpt lat="42.615858" lon="1.216793">
        <ele>1723.2</ele>
        <time>2013-07-30T07:48:00Z</time>
      </trkpt>
      <trkpt lat="42.615839" lon="1.216860">
        <ele>1725.6</ele>
        <time>2013-07-30T07:48:10Z</time>
      </trkpt>
      <trkpt lat="42.615812" lon="1.216934">
        <ele>1727.7</ele>
        <time>2013-07-30T07:48:21Z</time>
      </trkpt>
      <trkpt lat="42.615792" lon="1.216992">
        <ele>1729.4</ele>
        <time>2013-07-30T07:48:31Z</time>
      </trkpt>
      <trkpt lat="42.615788" lon="1.217023">
        <ele>1730.3</ele>
        <time>2013-07-30T07:48:35Z</time>
      </trkpt>
      <trkpt lat="42.615826" lon="1.217045">
        <ele>1732.5</ele>
        <time>2013-07-30T07:48:45Z</time>
      </trkpt>
      <trkpt lat="42.615844" lon="1.217041">
        <ele>1732.9</ele>
        <time>2013-07-30T07:48:48Z</time>
      </trkpt>
      <trkpt lat="42.615906" lon="1.217048">
        <ele>1735.0</ele>
        <time>2013-07-30T07:48:58Z</time>
      </trkpt>
      <trkpt lat="42.615959" lon="1.217048">
        <ele>1736.7</ele>
        <time>2013-07-30T07:49:05Z</time>
      </trkpt>
      <trkpt lat="42.616003" lon="1.217041">
        <ele>1737.9</ele>
        <time>2013-07-30T07:49:14Z</time>
      </trkpt>
      <trkpt lat="42.616073" lon="1.217045">
        <ele>1739.9</ele>
        <time>2013-07-30T07:49:26Z</time>
      </trkpt>
      <trkpt lat="42.616103" lon="1.217050">
        <ele>1740.8</ele>
        <time>2013-07-30T07:49:30Z</time>
      </trkpt>
      <trkpt lat="42.616129" lon="1.217058">
        <ele>1741.8</ele>
        <time>2013-07-30T07:49:35Z</time>
      </trkpt>
      <trkpt lat="42.616163" lon="1.217053">
        <ele>1742.6</ele>
        <time>2013-07-30T07:49:40Z</time>
      </trkpt>
      <trkpt lat="42.616182" lon="1.217051">
        <ele>1743.1</ele>
        <time>2013-07-30T07:49:43Z</time>
      </trkpt>
      <trkpt lat="42.616216" lon="1.217056">
        <ele>1744.2</ele>
        <time>2013-07-30T07:49:48Z</time>
      </trkpt>
      <trkpt lat="42.616286" lon="1.217054">
        <ele>1746.2</ele>
        <time>2013-07-30T07:49:59Z</time>
      </trkpt>
      <trkpt lat="42.616340" lon="1.217055">
        <ele>1747.8</ele>
        <time>2013-07-30T07:50:07Z</time>
      </trkpt>
      <trkpt lat="42.616404" lon="1.217059">
        <ele>1749.7</ele>
        <time>2013-07-30T07:50:17Z</time>
      </trkpt>
      <trkpt lat="42.616465" lon="1.217062">
        <ele>1751.8</ele>
        <time>2013-07-30T07:50:28Z</time>
      </trkpt>
      <trkpt lat="42.616522" lon="1.217066">
        <ele>1754.0</ele>
        <time>2013-07-30T07:50:38Z</time>
      </trkpt>
      <trkpt lat="42.616569" lon="1.217042">
        <ele>1755.3</ele>
        <time>2013-07-30T07:50:54Z</time>
      </trkpt>
      <trkpt lat="42.616569" lon="1.217042">
        <ele>1755.3</ele>
        <time>2013-07-30T07:51:22Z</time>
      </trkpt>
      <trkpt lat="42.616573" lon="1.217044">
        <ele>1755.5</ele>
        <time>2013-07-30T07:52:01Z</time>
      </trkpt>
      <trkpt lat="42.616581" lon="1.217051">
        <ele>1756.1</ele>
        <time>2013-07-30T07:52:11Z</time>
      </trkpt>
      <trkpt lat="42.616596" lon="1.217052">
        <ele>1756.8</ele>
        <time>2013-07-30T07:52:14Z</time>
      </trkpt>
      <trkpt lat="42.616655" lon="1.217006">
        <ele>1757.9</ele>
        <time>2013-07-30T07:52:25Z</time>
      </trkpt>
      <trkpt lat="42.616676" lon="1.217000">
        <ele>1758.7</ele>
        <time>2013-07-30T07:52:31Z</time>
      </trkpt>
      <trkpt lat="42.616725" lon="1.217003">
        <ele>1760.8</ele>
        <time>2013-07-30T07:52:41Z</time>
      </trkpt>
      <trkpt lat="42.616791" lon="1.216936">
        <ele>1762.3</ele>
        <time>2013-07-30T07:52:54Z</time>
      </trkpt>
      <trkpt lat="42.616818" lon="1.216947">
        <ele>1764.2</ele>
        <time>2013-07-30T07:53:06Z</time>
      </trkpt>
      <trkpt lat="42.616815" lon="1.217007">
        <ele>1765.7</ele>
        <time>2013-07-30T07:53:16Z</time>
      </trkpt>
      <trkpt lat="42.616807" lon="1.217027">
        <ele>1765.9</ele>
        <time>2013-07-30T07:53:18Z</time>
      </trkpt>
      <trkpt lat="42.616783" lon="1.217104">
        <ele>1767.2</ele>
        <time>2013-07-30T07:53:25Z</time>
      </trkpt>
      <trkpt lat="42.616776" lon="1.217122">
        <ele>1767.4</ele>
        <time>2013-07-30T07:53:27Z</time>
      </trkpt>
      <trkpt lat="42.616699" lon="1.217264">
        <ele>1768.8</ele>
        <time>2013-07-30T07:53:40Z</time>
      </trkpt>
      <trkpt lat="42.616647" lon="1.217340">
        <ele>1769.3</ele>
        <time>2013-07-30T07:53:48Z</time>
      </trkpt>
      <trkpt lat="42.616596" lon="1.217429">
        <ele>1771.6</ele>
        <time>2013-07-30T07:53:57Z</time>
      </trkpt>
      <trkpt lat="42.616573" lon="1.217462">
        <ele>1772.6</ele>
        <time>2013-07-30T07:54:01Z</time>
      </trkpt>
      <trkpt lat="42.616491" lon="1.217511">
        <ele>1772.5</ele>
        <time>2013-07-30T07:54:10Z</time>
      </trkpt>
      <trkpt lat="42.616465" lon="1.217541">
        <ele>1773.5</ele>
        <time>2013-07-30T07:54:14Z</time>
      </trkpt>
      <trkpt lat="42.616404" lon="1.217602">
        <ele>1774.8</ele>
        <time>2013-07-30T07:54:22Z</time>
      </trkpt>
      <trkpt lat="42.616365" lon="1.217670">
        <ele>1777.0</ele>
        <time>2013-07-30T07:54:31Z</time>
      </trkpt>
      <trkpt lat="42.616342" lon="1.217701">
        <ele>1777.6</ele>
        <time>2013-07-30T07:54:37Z</time>
      </trkpt>
      <trkpt lat="42.616301" lon="1.217739">
        <ele>1778.6</ele>
        <time>2013-07-30T07:54:43Z</time>
      </trkpt>
      <trkpt lat="42.616235" lon="1.217839">
        <ele>1781.2</ele>
        <time>2013-07-30T07:54:56Z</time>
      </trkpt>
      <trkpt lat="42.616204" lon="1.217878">
        <ele>1782.0</ele>
        <time>2013-07-30T07:55:01Z</time>
      </trkpt>
      <trkpt lat="42.616185" lon="1.217894">
        <ele>1782.1</ele>
        <time>2013-07-30T07:55:03Z</time>
      </trkpt>
      <trkpt lat="42.616102" lon="1.218014">
        <ele>1784.5</ele>
        <time>2013-07-30T07:55:16Z</time>
      </trkpt>
      <trkpt lat="42.616087" lon="1.218034">
        <ele>1784.8</ele>
        <time>2013-07-30T07:55:18Z</time>
      </trkpt>
      <trkpt lat="42.616017" lon="1.218129">
        <ele>1786.4</ele>
        <time>2013-07-30T07:55:31Z</time>
      </trkpt>
      <trkpt lat="42.615931" lon="1.218231">
        <ele>1787.7</ele>
        <time>2013-07-30T07:55:42Z</time>
      </trkpt>
      <trkpt lat="42.615900" lon="1.218290">
        <ele>1789.1</ele>
        <time>2013-07-30T07:55:53Z</time>
      </trkpt>
      <trkpt lat="42.615877" lon="1.218315">
        <ele>1789.4</ele>
        <time>2013-07-30T07:55:56Z</time>
      </trkpt>
      <trkpt lat="42.615852" lon="1.218365">
        <ele>1790.8</ele>
        <time>2013-07-30T07:56:02Z</time>
      </trkpt>
      <trkpt lat="42.615838" lon="1.218395">
        <ele>1791.6</ele>
        <time>2013-07-30T07:56:08Z</time>
      </trkpt>
      <trkpt lat="42.615808" lon="1.218441">
        <ele>1792.9</ele>
        <time>2013-07-30T07:56:12Z</time>
      </trkpt>
      <trkpt lat="42.615775" lon="1.218522">
        <ele>1795.5</ele>
        <time>2013-07-30T07:56:20Z</time>
      </trkpt>
      <trkpt lat="42.615763" lon="1.218549">
        <ele>1796.2</ele>
        <time>2013-07-30T07:56:23Z</time>
      </trkpt>
      <trkpt lat="42.615746" lon="1.218558">
        <ele>1795.9</ele>
        <time>2013-07-30T07:56:25Z</time>
      </trkpt>
      <trkpt lat="42.615717" lon="1.218631">
        <ele>1797.8</ele>
        <time>2013-07-30T07:56:38Z</time>
      </trkpt>
      <trkpt lat="42.615707" lon="1.218650">
        <ele>1798.2</ele>
        <time>2013-07-30T07:56:40Z</time>
      </trkpt>
      <trkpt lat="42.615689" lon="1.218714">
        <ele>1800.2</ele>
        <time>2013-07-30T07:56:47Z</time>
      </trkpt>
      <trkpt lat="42.615645" lon="1.218760">
        <ele>1799.5</ele>
        <time>2013-07-30T07:56:53Z</time>
      </trkpt>
      <trkpt lat="42.615560" lon="1.218862">
        <ele>1799.2</ele>
        <time>2013-07-30T07:57:05Z</time>
      </trkpt>
      <trkpt lat="42.615530" lon="1.218897">
        <ele>1799.7</ele>
        <time>2013-07-30T07:57:09Z</time>
      </trkpt>
      <trkpt lat="42.615507" lon="1.218930">
        <ele>1800.4</ele>
        <time>2013-07-30T07:57:13Z</time>
      </trkpt>
      <trkpt lat="42.615451" lon="1.219037">
        <ele>1803.1</ele>
        <time>2013-07-30T07:57:25Z</time>
      </trkpt>
      <trkpt lat="42.615430" lon="1.219067">
        <ele>1803.6</ele>
        <time>2013-07-30T07:57:31Z</time>
      </trkpt>
      <trkpt lat="42.615408" lon="1.219095">
        <ele>1803.9</ele>
        <time>2013-07-30T07:57:35Z</time>
      </trkpt>
      <trkpt lat="42.615295" lon="1.219222">
        <ele>1804.2</ele>
        <time>2013-07-30T07:57:49Z</time>
      </trkpt>
      <trkpt lat="42.615273" lon="1.219262">
        <ele>1805.1</ele>
        <time>2013-07-30T07:57:53Z</time>
      </trkpt>
      <trkpt lat="42.615235" lon="1.219288">
        <ele>1805.3</ele>
        <time>2013-07-30T07:57:57Z</time>
      </trkpt>
      <trkpt lat="42.615154" lon="1.219377">
        <ele>1806.8</ele>
        <time>2013-07-30T07:58:08Z</time>
      </trkpt>
      <trkpt lat="42.615129" lon="1.219403">
        <ele>1807.5</ele>
        <time>2013-07-30T07:58:12Z</time>
      </trkpt>
      <trkpt lat="42.615037" lon="1.219461">
        <ele>1808.6</ele>
        <time>2013-07-30T07:58:23Z</time>
      </trkpt>
      <trkpt lat="42.614970" lon="1.219508">
        <ele>1810.0</ele>
        <time>2013-07-30T07:58:31Z</time>
      </trkpt>
      <trkpt lat="42.614947" lon="1.219528">
        <ele>1810.4</ele>
        <time>2013-07-30T07:58:34Z</time>
      </trkpt>
      <trkpt lat="42.614879" lon="1.219591">
        <ele>1812.7</ele>
        <time>2013-07-30T07:58:45Z</time>
      </trkpt>
      <trkpt lat="42.614855" lon="1.219610">
        <ele>1813.4</ele>
        <time>2013-07-30T07:58:48Z</time>
      </trkpt>
      <trkpt lat="42.614798" lon="1.219636">
        <ele>1814.5</ele>
        <time>2013-07-30T07:58:55Z</time>
      </trkpt>
      <trkpt lat="42.614778" lon="1.219649">
        <ele>1815.0</ele>
        <time>2013-07-30T07:58:58Z</time>
      </trkpt>
      <trkpt lat="42.614745" lon="1.219668">
        <ele>1815.8</ele>
        <time>2013-07-30T07:59:03Z</time>
      </trkpt>
      <trkpt lat="42.614723" lon="1.219679">
        <ele>1816.4</ele>
        <time>2013-07-30T07:59:06Z</time>
      </trkpt>
      <trkpt lat="42.614686" lon="1.219693">
        <ele>1817.3</ele>
        <time>2013-07-30T07:59:11Z</time>
      </trkpt>
      <trkpt lat="42.614663" lon="1.219699">
        <ele>1817.8</ele>
        <time>2013-07-30T07:59:14Z</time>
      </trkpt>
      <trkpt lat="42.614663" lon="1.219736">
        <ele>1819.0</ele>
        <time>2013-07-30T07:59:22Z</time>
      </trkpt>
      <trkpt lat="42.614703" lon="1.219791">
        <ele>1820.5</ele>
        <time>2013-07-30T07:59:33Z</time>
      </trkpt>
      <trkpt lat="42.614699" lon="1.219806">
        <ele>1821.0</ele>
        <time>2013-07-30T07:59:35Z</time>
      </trkpt>
      <trkpt lat="42.614679" lon="1.219824">
        <ele>1821.8</ele>
        <time>2013-07-30T07:59:40Z</time>
      </trkpt>
      <trkpt lat="42.614647" lon="1.219872">
        <ele>1823.6</ele>
        <time>2013-07-30T07:59:50Z</time>
      </trkpt>
      <trkpt lat="42.614689" lon="1.219936">
        <ele>1825.5</ele>
        <time>2013-07-30T08:00:00Z</time>
      </trkpt>
      <trkpt lat="42.614747" lon="1.219982">
        <ele>1827.2</ele>
        <time>2013-07-30T08:00:12Z</time>
      </trkpt>
      <trkpt lat="42.614746" lon="1.219987">
        <ele>1827.3</ele>
        <time>2013-07-30T08:00:13Z</time>
      </trkpt>
      <trkpt lat="42.614697" lon="1.220054">
        <ele>1829.4</ele>
        <time>2013-07-30T08:00:24Z</time>
      </trkpt>
      <trkpt lat="42.614645" lon="1.220123">
        <ele>1831.1</ele>
        <time>2013-07-30T08:00:35Z</time>
      </trkpt>
      <trkpt lat="42.614585" lon="1.220178">
        <ele>1832.7</ele>
        <time>2013-07-30T08:00:46Z</time>
      </trkpt>
      <trkpt lat="42.614574" lon="1.220191">
        <ele>1833.1</ele>
        <time>2013-07-30T08:00:48Z</time>
      </trkpt>
      <trkpt lat="42.614554" lon="1.220272">
        <ele>1834.8</ele>
        <time>2013-07-30T08:00:57Z</time>
      </trkpt>
      <trkpt lat="42.614552" lon="1.220294">
        <ele>1835.2</ele>
        <time>2013-07-30T08:00:59Z</time>
      </trkpt>
      <trkpt lat="42.614544" lon="1.220322">
        <ele>1835.6</ele>
        <time>2013-07-30T08:01:02Z</time>
      </trkpt>
      <trkpt lat="42.614529" lon="1.220346">
        <ele>1835.8</ele>
        <time>2013-07-30T08:01:15Z</time>
      </trkpt>
      <trkpt lat="42.614554" lon="1.220362">
        <ele>1835.8</ele>
        <time>2013-07-30T08:18:33Z</time>
      </trkpt>
      <trkpt lat="42.614642" lon="1.220458">
        <ele>1834.3</ele>
        <time>2013-07-30T08:18:46Z</time>
      </trkpt>
      <trkpt lat="42.614734" lon="1.220555">
        <ele>1831.7</ele>
        <time>2013-07-30T08:18:59Z</time>
      </trkpt>
      <trkpt lat="42.614731" lon="1.220592">
        <ele>1830.7</ele>
        <time>2013-07-30T08:19:02Z</time>
      </trkpt>
      <trkpt lat="42.614606" lon="1.220723">
        <ele>1826.4</ele>
        <time>2013-07-30T08:19:17Z</time>
      </trkpt>
      <trkpt lat="42.614539" lon="1.220828">
        <ele>1823.8</ele>
        <time>2013-07-30T08:19:29Z</time>
      </trkpt>
      <trkpt lat="42.614534" lon="1.220875">
        <ele>1822.6</ele>
        <time>2013-07-30T08:19:33Z</time>
      </trkpt>
      <trkpt lat="42.614504" lon="1.220966">
        <ele>1820.3</ele>
        <time>2013-07-30T08:19:40Z</time>
      </trkpt>
      <trkpt lat="42.614449" lon="1.221110">
        <ele>1816.7</ele>
        <time>2013-07-30T08:19:53Z</time>
      </trkpt>
      <trkpt lat="42.614453" lon="1.221151">
        <ele>1815.7</ele>
        <time>2013-07-30T08:19:56Z</time>
      </trkpt>
      <trkpt lat="42.614422" lon="1.221306">
        <ele>1811.8</ele>
        <time>2013-07-30T08:20:09Z</time>
      </trkpt>
      <trkpt lat="42.614419" lon="1.221378">
        <ele>1809.8</ele>
        <time>2013-07-30T08:20:15Z</time>
      </trkpt>
      <trkpt lat="42.614416" lon="1.221430">
        <ele>1808.4</ele>
        <time>2013-07-30T08:20:19Z</time>
      </trkpt>
      <trkpt lat="42.614392" lon="1.221590">
        <ele>1804.1</ele>
        <time>2013-07-30T08:20:34Z</time>
      </trkpt>
      <trkpt lat="42.614351" lon="1.221682">
        <ele>1801.1</ele>
        <time>2013-07-30T08:20:44Z</time>
      </trkpt>
      <trkpt lat="42.614315" lon="1.221819">
        <ele>1798.1</ele>
        <time>2013-07-30T08:20:56Z</time>
      </trkpt>
      <trkpt lat="42.614287" lon="1.221865">
        <ele>1796.8</ele>
        <time>2013-07-30T08:21:02Z</time>
      </trkpt>
      <trkpt lat="42.614252" lon="1.221894">
        <ele>1795.6</ele>
        <time>2013-07-30T08:21:07Z</time>
      </trkpt>
      <trkpt lat="42.614155" lon="1.221987">
        <ele>1791.9</ele>
        <time>2013-07-30T08:21:21Z</time>
      </trkpt>
      <trkpt lat="42.614074" lon="1.222074">
        <ele>1788.2</ele>
        <time>2013-07-30T08:21:35Z</time>
      </trkpt>
      <trkpt lat="42.614064" lon="1.222078">
        <ele>1788.0</ele>
        <time>2013-07-30T08:21:36Z</time>
      </trkpt>
      <trkpt lat="42.613971" lon="1.222146">
        <ele>1784.6</ele>
        <time>2013-07-30T08:21:51Z</time>
      </trkpt>
      <trkpt lat="42.613952" lon="1.222209">
        <ele>1782.7</ele>
        <time>2013-07-30T08:22:00Z</time>
      </trkpt>
      <trkpt lat="42.613934" lon="1.222233">
        <ele>1781.4</ele>
        <time>2013-07-30T08:22:05Z</time>
      </trkpt>
      <trkpt lat="42.613908" lon="1.222368">
        <ele>1777.0</ele>
        <time>2013-07-30T08:22:21Z</time>
      </trkpt>
      <trkpt lat="42.613910" lon="1.222510">
        <ele>1772.8</ele>
        <time>2013-07-30T08:22:36Z</time>
      </trkpt>
      <trkpt lat="42.613919" lon="1.222563">
        <ele>1771.3</ele>
        <time>2013-07-30T08:22:41Z</time>
      </trkpt>
      <trkpt lat="42.613908" lon="1.222598">
        <ele>1770.2</ele>
        <time>2013-07-30T08:22:45Z</time>
      </trkpt>
      <trkpt lat="42.613836" lon="1.222726">
        <ele>1765.6</ele>
        <time>2013-07-30T08:23:03Z</time>
      </trkpt>
      <trkpt lat="42.613758" lon="1.222828">
        <ele>1761.8</ele>
        <time>2013-07-30T08:23:18Z</time>
      </trkpt>
      <trkpt lat="42.613716" lon="1.222878">
        <ele>1759.6</ele>
        <time>2013-07-30T08:23:25Z</time>
      </trkpt>
      <trkpt lat="42.613704" lon="1.222906">
        <ele>1758.8</ele>
        <time>2013-07-30T08:23:29Z</time>
      </trkpt>
      <trkpt lat="42.613676" lon="1.223067">
        <ele>1754.4</ele>
        <time>2013-07-30T08:23:46Z</time>
      </trkpt>
      <trkpt lat="42.613676" lon="1.223204">
        <ele>1750.9</ele>
        <time>2013-07-30T08:24:00Z</time>
      </trkpt>
      <trkpt lat="42.613637" lon="1.223299">
        <ele>1748.5</ele>
        <time>2013-07-30T08:24:11Z</time>
      </trkpt>
      <trkpt lat="42.613624" lon="1.223389">
        <ele>1746.8</ele>
        <time>2013-07-30T08:24:20Z</time>
      </trkpt>
      <trkpt lat="42.613632" lon="1.223470">
        <ele>1745.0</ele>
        <time>2013-07-30T08:24:28Z</time>
      </trkpt>
      <trkpt lat="42.613598" lon="1.223536">
        <ele>1743.2</ele>
        <time>2013-07-30T08:24:35Z</time>
      </trkpt>
      <trkpt lat="42.613548" lon="1.223653">
        <ele>1740.1</ele>
        <time>2013-07-30T08:24:47Z</time>
      </trkpt>
      <trkpt lat="42.613528" lon="1.223678">
        <ele>1739.4</ele>
        <time>2013-07-30T08:24:51Z</time>
      </trkpt>
      <trkpt lat="42.613400" lon="1.223751">
        <ele>1736.4</ele>
        <time>2013-07-30T08:25:04Z</time>
      </trkpt>
      <trkpt lat="42.613346" lon="1.223786">
        <ele>1735.5</ele>
        <time>2013-07-30T08:25:11Z</time>
      </trkpt>
      <trkpt lat="42.613264" lon="1.223836">
        <ele>1733.3</ele>
        <time>2013-07-30T08:25:21Z</time>
      </trkpt>
      <trkpt lat="42.613237" lon="1.223856">
        <ele>1732.3</ele>
        <time>2013-07-30T08:25:24Z</time>
      </trkpt>
      <trkpt lat="42.613249" lon="1.223896">
        <ele>1731.4</ele>
        <time>2013-07-30T08:25:28Z</time>
      </trkpt>
      <trkpt lat="42.613280" lon="1.223978">
        <ele>1729.4</ele>
        <time>2013-07-30T08:25:36Z</time>
      </trkpt>
      <trkpt lat="42.613279" lon="1.224043">
        <ele>1728.0</ele>
        <time>2013-07-30T08:25:42Z</time>
      </trkpt>
      <trkpt lat="42.613247" lon="1.224070">
        <ele>1726.8</ele>
        <time>2013-07-30T08:25:47Z</time>
      </trkpt>
      <trkpt lat="42.613177" lon="1.224101">
        <ele>1724.7</ele>
        <time>2013-07-30T08:25:55Z</time>
      </trkpt>
      <trkpt lat="42.613091" lon="1.224157">
        <ele>1722.0</ele>
        <time>2013-07-30T08:26:03Z</time>
      </trkpt>
      <trkpt lat="42.613048" lon="1.224195">
        <ele>1721.0</ele>
        <time>2013-07-30T08:26:16Z</time>
      </trkpt>
      <trkpt lat="42.613015" lon="1.224228">
        <ele>1719.9</ele>
        <time>2013-07-30T08:26:21Z</time>
      </trkpt>
      <trkpt lat="42.612975" lon="1.224235">
        <ele>1718.8</ele>
        <time>2013-07-30T08:26:36Z</time>
      </trkpt>
      <trkpt lat="42.612920" lon="1.224264">
        <ele>1717.1</ele>
        <time>2013-07-30T08:26:47Z</time>
      </trkpt>
      <trkpt lat="42.612937" lon="1.224307">
        <ele>1716.7</ele>
        <time>2013-07-30T08:27:01Z</time>
      </trkpt>
      <trkpt lat="42.612937" lon="1.224307">
        <ele>1716.7</ele>
        <time>2013-07-30T08:27:29Z</time>
      </trkpt>
      <trkpt lat="42.612936" lon="1.224309">
        <ele>1716.6</ele>
        <time>2013-07-30T08:27:53Z</time>
      </trkpt>
      <trkpt lat="42.612938" lon="1.224306">
        <ele>1716.7</ele>
        <time>2013-07-30T08:28:22Z</time>
      </trkpt>
      <trkpt lat="42.612936" lon="1.224311">
        <ele>1716.6</ele>
        <time>2013-07-30T08:28:28Z</time>
      </trkpt>
      <trkpt lat="42.612927" lon="1.224276">
        <ele>1717.1</ele>
        <time>2013-07-30T08:28:32Z</time>
      </trkpt>
      <trkpt lat="42.612830" lon="1.224279">
        <ele>1716.3</ele>
        <time>2013-07-30T08:28:44Z</time>
      </trkpt>
      <trkpt lat="42.612732" lon="1.224315">
        <ele>1714.4</ele>
        <time>2013-07-30T08:28:58Z</time>
      </trkpt>
      <trkpt lat="42.612684" lon="1.224319">
        <ele>1714.0</ele>
        <time>2013-07-30T08:29:03Z</time>
      </trkpt>
      <trkpt lat="42.612575" lon="1.224338">
        <ele>1712.2</ele>
        <time>2013-07-30T08:29:12Z</time>
      </trkpt>
      <trkpt lat="42.612465" lon="1.224383">
        <ele>1710.9</ele>
        <time>2013-07-30T08:29:21Z</time>
      </trkpt>
      <trkpt lat="42.612293" lon="1.224464">
        <ele>1707.6</ele>
        <time>2013-07-30T08:29:38Z</time>
      </trkpt>
      <trkpt lat="42.612222" lon="1.224512">
        <ele>1705.8</ele>
        <time>2013-07-30T08:29:51Z</time>
      </trkpt>
      <trkpt lat="42.612213" lon="1.224507">
        <ele>1706.0</ele>
        <time>2013-07-30T08:30:20Z</time>
      </trkpt>
      <trkpt lat="42.612094" lon="1.224547">
        <ele>1703.8</ele>
        <time>2013-07-30T08:30:32Z</time>
      </trkpt>
      <trkpt lat="42.612025" lon="1.224578">
        <ele>1702.5</ele>
        <time>2013-07-30T08:30:38Z</time>
      </trkpt>
      <trkpt lat="42.611889" lon="1.224651">
        <ele>1698.9</ele>
        <time>2013-07-30T08:30:51Z</time>
      </trkpt>
      <trkpt lat="42.611772" lon="1.224718">
        <ele>1696.2</ele>
        <time>2013-07-30T08:31:03Z</time>
      </trkpt>
      <trkpt lat="42.611727" lon="1.224735">
        <ele>1695.8</ele>
        <time>2013-07-30T08:31:08Z</time>
      </trkpt>
      <trkpt lat="42.611612" lon="1.224805">
        <ele>1692.9</ele>
        <time>2013-07-30T08:31:20Z</time>
      </trkpt>
      <trkpt lat="42.611580" lon="1.224836">
        <ele>1691.7</ele>
        <time>2013-07-30T08:31:23Z</time>
      </trkpt>
      <trkpt lat="42.611521" lon="1.224856">
        <ele>1690.6</ele>
        <time>2013-07-30T08:31:28Z</time>
      </trkpt>
      <trkpt lat="42.611355" lon="1.224960">
        <ele>1687.1</ele>
        <time>2013-07-30T08:31:45Z</time>
      </trkpt>
      <trkpt lat="42.611197" lon="1.225058">
        <ele>1683.2</ele>
        <time>2013-07-30T08:32:00Z</time>
      </trkpt>
      <trkpt lat="42.611148" lon="1.225090">
        <ele>1681.9</ele>
        <time>2013-07-30T08:32:06Z</time>
      </trkpt>
      <trkpt lat="42.611091" lon="1.225131">
        <ele>1680.4</ele>
        <time>2013-07-30T08:32:11Z</time>
      </trkpt>
      <trkpt lat="42.610945" lon="1.225247">
        <ele>1676.1</ele>
        <time>2013-07-30T08:32:26Z</time>
      </trkpt>
      <trkpt lat="42.610797" lon="1.225325">
        <ele>1673.4</ele>
        <time>2013-07-30T08:32:41Z</time>
      </trkpt>
      <trkpt lat="42.610648" lon="1.225464">
        <ele>1669.1</ele>
        <time>2013-07-30T08:32:57Z</time>
      </trkpt>
      <trkpt lat="42.610594" lon="1.225516">
        <ele>1667.2</ele>
        <time>2013-07-30T08:33:03Z</time>
      </trkpt>
      <trkpt lat="42.610543" lon="1.225554">
        <ele>1665.9</ele>
        <time>2013-07-30T08:33:08Z</time>
      </trkpt>
      <trkpt lat="42.610510" lon="1.225565">
        <ele>1665.5</ele>
        <time>2013-07-30T08:33:12Z</time>
      </trkpt>
      <trkpt lat="42.610376" lon="1.225689">
        <ele>1661.7</ele>
        <time>2013-07-30T08:33:27Z</time>
      </trkpt>
      <trkpt lat="42.610324" lon="1.225752">
        <ele>1659.8</ele>
        <time>2013-07-30T08:33:33Z</time>
      </trkpt>
      <trkpt lat="42.610226" lon="1.225797">
        <ele>1657.6</ele>
        <time>2013-07-30T08:33:43Z</time>
      </trkpt>
      <trkpt lat="42.610116" lon="1.225843">
        <ele>1654.9</ele>
        <time>2013-07-30T08:33:56Z</time>
      </trkpt>
      <trkpt lat="42.610085" lon="1.225866">
        <ele>1653.6</ele>
        <time>2013-07-30T08:34:00Z</time>
      </trkpt>
      <trkpt lat="42.610070" lon="1.225888">
        <ele>1652.9</ele>
        <time>2013-07-30T08:34:02Z</time>
      </trkpt>
      <trkpt lat="42.610088" lon="1.226161">
        <ele>1649.1</ele>
        <time>2013-07-30T08:34:20Z</time>
      </trkpt>
      <trkpt lat="42.610086" lon="1.226186">
        <ele>1648.7</ele>
        <time>2013-07-30T08:34:22Z</time>
      </trkpt>
      <trkpt lat="42.610069" lon="1.226311">
        <ele>1646.6</ele>
        <time>2013-07-30T08:34:30Z</time>
      </trkpt>
      <trkpt lat="42.610037" lon="1.226343">
        <ele>1645.8</ele>
        <time>2013-07-30T08:34:33Z</time>
      </trkpt>
      <trkpt lat="42.609900" lon="1.226272">
        <ele>1643.8</ele>
        <time>2013-07-30T08:34:47Z</time>
      </trkpt>
      <trkpt lat="42.609868" lon="1.226238">
        <ele>1643.1</ele>
        <time>2013-07-30T08:34:51Z</time>
      </trkpt>
      <trkpt lat="42.609816" lon="1.226179">
        <ele>1641.6</ele>
        <time>2013-07-30T08:34:59Z</time>
      </trkpt>
      <trkpt lat="42.609777" lon="1.226201">
        <ele>1640.7</ele>
        <time>2013-07-30T08:35:03Z</time>
      </trkpt>
      <trkpt lat="42.609755" lon="1.226235">
        <ele>1639.8</ele>
        <time>2013-07-30T08:35:06Z</time>
      </trkpt>
      <trkpt lat="42.609719" lon="1.226347">
        <ele>1637.3</ele>
        <time>2013-07-30T08:35:18Z</time>
      </trkpt>
      <trkpt lat="42.609716" lon="1.226370">
        <ele>1636.7</ele>
        <time>2013-07-30T08:35:20Z</time>
      </trkpt>
      <trkpt lat="42.609712" lon="1.226399">
        <ele>1636.0</ele>
        <time>2013-07-30T08:35:22Z</time>
      </trkpt>
      <trkpt lat="42.609718" lon="1.226655">
        <ele>1632.4</ele>
        <time>2013-07-30T08:35:39Z</time>
      </trkpt>
      <trkpt lat="42.609737" lon="1.226695">
        <ele>1631.8</ele>
        <time>2013-07-30T08:35:43Z</time>
      </trkpt>
      <trkpt lat="42.609815" lon="1.226773">
        <ele>1630.5</ele>
        <time>2013-07-30T08:35:50Z</time>
      </trkpt>
      <trkpt lat="42.609952" lon="1.226886">
        <ele>1628.1</ele>
        <time>2013-07-30T08:36:04Z</time>
      </trkpt>
      <trkpt lat="42.610109" lon="1.226958">
        <ele>1625.9</ele>
        <time>2013-07-30T08:36:18Z</time>
      </trkpt>
      <trkpt lat="42.610268" lon="1.227039">
        <ele>1624.4</ele>
        <time>2013-07-30T08:36:33Z</time>
      </trkpt>
      <trkpt lat="42.610425" lon="1.227129">
        <ele>1622.0</ele>
        <time>2013-07-30T08:36:46Z</time>
      </trkpt>
      <trkpt lat="42.610545" lon="1.227218">
        <ele>1620.3</ele>
        <time>2013-07-30T08:36:58Z</time>
      </trkpt>
      <trkpt lat="42.610629" lon="1.227260">
        <ele>1618.8</ele>
        <time>2013-07-30T08:37:07Z</time>
      </trkpt>
      <trkpt lat="42.610740" lon="1.227290">
        <ele>1618.4</ele>
        <time>2013-07-30T08:37:15Z</time>
      </trkpt>
      <trkpt lat="42.610900" lon="1.227368">
        <ele>1615.6</ele>
        <time>2013-07-30T08:37:30Z</time>
      </trkpt>
      <trkpt lat="42.611075" lon="1.227460">
        <ele>1613.3</ele>
        <time>2013-07-30T08:37:46Z</time>
      </trkpt>
      <trkpt lat="42.611099" lon="1.227478">
        <ele>1612.7</ele>
        <time>2013-07-30T08:37:48Z</time>
      </trkpt>
      <trkpt lat="42.611169" lon="1.227516">
        <ele>1612.4</ele>
        <time>2013-07-30T08:37:54Z</time>
      </trkpt>
      <trkpt lat="42.611174" lon="1.227595">
        <ele>1610.8</ele>
        <time>2013-07-30T08:38:02Z</time>
      </trkpt>
      <trkpt lat="42.611026" lon="1.227672">
        <ele>1606.9</ele>
        <time>2013-07-30T08:38:16Z</time>
      </trkpt>
      <trkpt lat="42.610854" lon="1.227694">
        <ele>1603.3</ele>
        <time>2013-07-30T08:38:32Z</time>
      </trkpt>
      <trkpt lat="42.610726" lon="1.227681">
        <ele>1602.4</ele>
        <time>2013-07-30T08:38:46Z</time>
      </trkpt>
      <trkpt lat="42.610722" lon="1.227691">
        <ele>1602.0</ele>
        <time>2013-07-30T08:39:00Z</time>
      </trkpt>
      <trkpt lat="42.610721" lon="1.227690">
        <ele>1602.1</ele>
        <time>2013-07-30T08:39:35Z</time>
      </trkpt>
      <trkpt lat="42.610607" lon="1.227655">
        <ele>1601.6</ele>
        <time>2013-07-30T08:39:47Z</time>
      </trkpt>
      <trkpt lat="42.610593" lon="1.227650">
        <ele>1601.5</ele>
        <time>2013-07-30T08:40:05Z</time>
      </trkpt>
      <trkpt lat="42.610593" lon="1.227651">
        <ele>1601.4</ele>
        <time>2013-07-30T08:40:38Z</time>
      </trkpt>
      <trkpt lat="42.610593" lon="1.227651">
        <ele>1601.4</ele>
        <time>2013-07-30T08:40:40Z</time>
      </trkpt>
      <trkpt lat="42.610455" lon="1.227677">
        <ele>1599.4</ele>
        <time>2013-07-30T08:40:54Z</time>
      </trkpt>
      <trkpt lat="42.610302" lon="1.227731">
        <ele>1595.3</ele>
        <time>2013-07-30T08:41:10Z</time>
      </trkpt>
      <trkpt lat="42.610314" lon="1.227744">
        <ele>1595.0</ele>
        <time>2013-07-30T08:41:12Z</time>
      </trkpt>
      <trkpt lat="42.610357" lon="1.227762">
        <ele>1595.4</ele>
        <time>2013-07-30T08:41:16Z</time>
      </trkpt>
      <trkpt lat="42.610375" lon="1.227758">
        <ele>1595.6</ele>
        <time>2013-07-30T08:41:18Z</time>
      </trkpt>
      <trkpt lat="42.610475" lon="1.227801">
        <ele>1594.5</ele>
        <time>2013-07-30T08:41:28Z</time>
      </trkpt>
      <trkpt lat="42.610657" lon="1.227908">
        <ele>1591.7</ele>
        <time>2013-07-30T08:41:45Z</time>
      </trkpt>
      <trkpt lat="42.610848" lon="1.227951">
        <ele>1591.6</ele>
        <time>2013-07-30T08:42:00Z</time>
      </trkpt>
      <trkpt lat="42.610872" lon="1.227956">
        <ele>1591.5</ele>
        <time>2013-07-30T08:42:02Z</time>
      </trkpt>
      <trkpt lat="42.611030" lon="1.228047">
        <ele>1589.6</ele>
        <time>2013-07-30T08:42:16Z</time>
      </trkpt>
      <trkpt lat="42.611173" lon="1.228156">
        <ele>1586.3</ele>
        <time>2013-07-30T08:42:32Z</time>
      </trkpt>
      <trkpt lat="42.611205" lon="1.228183">
        <ele>1585.3</ele>
        <time>2013-07-30T08:42:37Z</time>
      </trkpt>
      <trkpt lat="42.611333" lon="1.228256">
        <ele>1582.5</ele>
        <time>2013-07-30T08:42:51Z</time>
      </trkpt>
      <trkpt lat="42.611334" lon="1.228270">
        <ele>1581.9</ele>
        <time>2013-07-30T08:42:52Z</time>
      </trkpt>
      <trkpt lat="42.611226" lon="1.228321">
        <ele>1579.5</ele>
        <time>2013-07-30T08:43:06Z</time>
      </trkpt>
      <trkpt lat="42.611068" lon="1.228365">
        <ele>1577.6</ele>
        <time>2013-07-30T08:43:19Z</time>
      </trkpt>
      <trkpt lat="42.610989" lon="1.228376">
        <ele>1576.5</ele>
        <time>2013-07-30T08:43:27Z</time>
      </trkpt>
      <trkpt lat="42.610947" lon="1.228396">
        <ele>1575.4</ele>
        <time>2013-07-30T08:43:31Z</time>
      </trkpt>
      <trkpt lat="42.610786" lon="1.228388">
        <ele>1573.0</ele>
        <time>2013-07-30T08:43:45Z</time>
      </trkpt>
      <trkpt lat="42.610609" lon="1.228428">
        <ele>1570.3</ele>
        <time>2013-07-30T08:43:59Z</time>
      </trkpt>
      <trkpt lat="42.610431" lon="1.228373">
        <ele>1568.3</ele>
        <time>2013-07-30T08:44:15Z</time>
      </trkpt>
      <trkpt lat="42.610369" lon="1.228354">
        <ele>1567.6</ele>
        <time>2013-07-30T08:44:22Z</time>
      </trkpt>
      <trkpt lat="42.610306" lon="1.228399">
        <ele>1565.3</ele>
        <time>2013-07-30T08:44:28Z</time>
      </trkpt>
      <trkpt lat="42.610320" lon="1.228447">
        <ele>1564.6</ele>
        <time>2013-07-30T08:44:43Z</time>
      </trkpt>
      <trkpt lat="42.610345" lon="1.228463">
        <ele>1564.4</ele>
        <time>2013-07-30T08:45:01Z</time>
      </trkpt>
      <trkpt lat="42.610449" lon="1.228525">
        <ele>1562.8</ele>
        <time>2013-07-30T08:45:10Z</time>
      </trkpt>
      <trkpt lat="42.610561" lon="1.228584">
        <ele>1561.7</ele>
        <time>2013-07-30T08:45:22Z</time>
      </trkpt>
      <trkpt lat="42.610643" lon="1.228653">
        <ele>1559.6</ele>
        <time>2013-07-30T08:45:40Z</time>
      </trkpt>
      <trkpt lat="42.610643" lon="1.228653">
        <ele>1559.6</ele>
        <time>2013-07-30T08:45:47Z</time>
      </trkpt>
      <trkpt lat="42.610727" lon="1.228716">
        <ele>1558.9</ele>
        <time>2013-07-30T08:45:54Z</time>
      </trkpt>
      <trkpt lat="42.610862" lon="1.228832">
        <ele>1556.5</ele>
        <time>2013-07-30T08:46:08Z</time>
      </trkpt>
      <trkpt lat="42.610872" lon="1.228853">
        <ele>1555.8</ele>
        <time>2013-07-30T08:46:22Z</time>
      </trkpt>
      <trkpt lat="42.610871" lon="1.228852">
        <ele>1555.9</ele>
        <time>2013-07-30T08:47:02Z</time>
      </trkpt>
      <trkpt lat="42.610870" lon="1.228853">
        <ele>1555.8</ele>
        <time>2013-07-30T08:47:40Z</time>
      </trkpt>
      <trkpt lat="42.610870" lon="1.228853">
        <ele>1555.8</ele>
        <time>2013-07-30T08:47:49Z</time>
      </trkpt>
      <trkpt lat="42.610908" lon="1.228891">
        <ele>1554.9</ele>
        <time>2013-07-30T08:47:53Z</time>
      </trkpt>
      <trkpt lat="42.611004" lon="1.228996">
        <ele>1551.7</ele>
        <time>2013-07-30T08:48:03Z</time>
      </trkpt>
      <trkpt lat="42.611024" lon="1.229001">
        <ele>1551.5</ele>
        <time>2013-07-30T08:48:05Z</time>
      </trkpt>
      <trkpt lat="42.611086" lon="1.229033">
        <ele>1550.6</ele>
        <time>2013-07-30T08:48:11Z</time>
      </trkpt>
      <trkpt lat="42.611171" lon="1.229092">
        <ele>1549.7</ele>
        <time>2013-07-30T08:48:18Z</time>
      </trkpt>
      <trkpt lat="42.611215" lon="1.229119">
        <ele>1549.4</ele>
        <time>2013-07-30T08:48:22Z</time>
      </trkpt>
      <trkpt lat="42.611406" lon="1.229210">
        <ele>1546.8</ele>
        <time>2013-07-30T08:48:40Z</time>
      </trkpt>
      <trkpt lat="42.611580" lon="1.229325">
        <ele>1542.9</ele>
        <time>2013-07-30T08:48:55Z</time>
      </trkpt>
      <trkpt lat="42.611740" lon="1.229330">
        <ele>1539.3</ele>
        <time>2013-07-30T08:49:10Z</time>
      </trkpt>
      <trkpt lat="42.611849" lon="1.229397">
        <ele>1536.8</ele>
        <time>2013-07-30T08:49:23Z</time>
      </trkpt>
      <trkpt lat="42.611878" lon="1.229516">
        <ele>1536.2</ele>
        <time>2013-07-30T08:49:31Z</time>
      </trkpt>
      <trkpt lat="42.611992" lon="1.229775">
        <ele>1533.6</ele>
        <time>2013-07-30T08:49:50Z</time>
      </trkpt>
      <trkpt lat="42.612141" lon="1.229937">
        <ele>1532.8</ele>
        <time>2013-07-30T08:50:05Z</time>
      </trkpt>
      <trkpt lat="42.612296" lon="1.230033">
        <ele>1533.5</ele>
        <time>2013-07-30T08:50:19Z</time>
      </trkpt>
      <trkpt lat="42.612433" lon="1.230167">
        <ele>1530.6</ele>
        <time>2013-07-30T08:50:34Z</time>
      </trkpt>
      <trkpt lat="42.612609" lon="1.230328">
        <ele>1527.3</ele>
        <time>2013-07-30T08:50:50Z</time>
      </trkpt>
      <trkpt lat="42.612714" lon="1.230439">
        <ele>1526.2</ele>
        <time>2013-07-30T08:51:02Z</time>
      </trkpt>
      <trkpt lat="42.612723" lon="1.230445">
        <ele>1526.0</ele>
        <time>2013-07-30T08:51:03Z</time>
      </trkpt>
      <trkpt lat="42.612773" lon="1.230474">
        <ele>1525.7</ele>
        <time>2013-07-30T08:51:07Z</time>
      </trkpt>
      <trkpt lat="42.612944" lon="1.230629">
        <ele>1523.3</ele>
        <time>2013-07-30T08:51:22Z</time>
      </trkpt>
      <trkpt lat="42.613042" lon="1.230739">
        <ele>1521.8</ele>
        <time>2013-07-30T08:51:35Z</time>
      </trkpt>
      <trkpt lat="42.613108" lon="1.230793">
        <ele>1521.3</ele>
        <time>2013-07-30T08:51:41Z</time>
      </trkpt>
      <trkpt lat="42.613298" lon="1.230981">
        <ele>1516.3</ele>
        <time>2013-07-30T08:51:58Z</time>
      </trkpt>
      <trkpt lat="42.613315" lon="1.230992">
        <ele>1515.8</ele>
        <time>2013-07-30T08:52:01Z</time>
      </trkpt>
      <trkpt lat="42.613409" lon="1.230995">
        <ele>1514.5</ele>
        <time>2013-07-30T08:52:09Z</time>
      </trkpt>
      <trkpt lat="42.613509" lon="1.231128">
        <ele>1514.6</ele>
        <time>2013-07-30T08:52:24Z</time>
      </trkpt>
      <trkpt lat="42.613557" lon="1.231262">
        <ele>1513.1</ele>
        <time>2013-07-30T08:52:35Z</time>
      </trkpt>
      <trkpt lat="42.613650" lon="1.231484">
        <ele>1510.8</ele>
        <time>2013-07-30T08:52:51Z</time>
      </trkpt>
      <trkpt lat="42.613679" lon="1.231577">
        <ele>1509.0</ele>
        <time>2013-07-30T08:52:56Z</time>
      </trkpt>
      <trkpt lat="42.613694" lon="1.231609">
        <ele>1508.5</ele>
        <time>2013-07-30T08:52:58Z</time>
      </trkpt>
      <trkpt lat="42.613735" lon="1.231671">
        <ele>1507.6</ele>
        <time>2013-07-30T08:53:03Z</time>
      </trkpt>
      <trkpt lat="42.613770" lon="1.231781">
        <ele>1506.2</ele>
        <time>2013-07-30T08:53:10Z</time>
      </trkpt>
      <trkpt lat="42.613909" lon="1.231963">
        <ele>1505.2</ele>
        <time>2013-07-30T08:53:26Z</time>
      </trkpt>
      <trkpt lat="42.614074" lon="1.232162">
        <ele>1501.8</ele>
        <time>2013-07-30T08:53:44Z</time>
      </trkpt>
      <trkpt lat="42.614262" lon="1.232312">
        <ele>1499.9</ele>
        <time>2013-07-30T08:53:59Z</time>
      </trkpt>
      <trkpt lat="42.614341" lon="1.232353">
        <ele>1499.5</ele>
        <time>2013-07-30T08:54:09Z</time>
      </trkpt>
      <trkpt lat="42.614540" lon="1.232408">
        <ele>1496.9</ele>
        <time>2013-07-30T08:54:25Z</time>
      </trkpt>
      <trkpt lat="42.614739" lon="1.232406">
        <ele>1494.3</ele>
        <time>2013-07-30T08:54:41Z</time>
      </trkpt>
      <trkpt lat="42.614911" lon="1.232421">
        <ele>1492.3</ele>
        <time>2013-07-30T08:54:55Z</time>
      </trkpt>
      <trkpt lat="42.615104" lon="1.232351">
        <ele>1492.2</ele>
        <time>2013-07-30T08:55:11Z</time>
      </trkpt>
      <trkpt lat="42.615147" lon="1.232322">
        <ele>1492.1</ele>
        <time>2013-07-30T08:55:15Z</time>
      </trkpt>
      <trkpt lat="42.615190" lon="1.232295">
        <ele>1492.1</ele>
        <time>2013-07-30T08:55:19Z</time>
      </trkpt>
      <trkpt lat="42.615345" lon="1.232170">
        <ele>1491.9</ele>
        <time>2013-07-30T08:55:34Z</time>
      </trkpt>
      <trkpt lat="42.615395" lon="1.232166">
        <ele>1491.0</ele>
        <time>2013-07-30T08:55:50Z</time>
      </trkpt>
      <trkpt lat="42.615399" lon="1.232162">
        <ele>1491.2</ele>
        <time>2013-07-30T08:56:04Z</time>
      </trkpt>
      <trkpt lat="42.615415" lon="1.232158">
        <ele>1491.3</ele>
        <time>2013-07-30T08:56:16Z</time>
      </trkpt>
      <trkpt lat="42.615440" lon="1.232157">
        <ele>1491.7</ele>
        <time>2013-07-30T08:56:18Z</time>
      </trkpt>
      <trkpt lat="42.615564" lon="1.232134">
        <ele>1491.7</ele>
        <time>2013-07-30T08:56:28Z</time>
      </trkpt>
      <trkpt lat="42.615675" lon="1.232078">
        <ele>1491.6</ele>
        <time>2013-07-30T08:56:38Z</time>
      </trkpt>
      <trkpt lat="42.615861" lon="1.232023">
        <ele>1493.0</ele>
        <time>2013-07-30T08:56:52Z</time>
      </trkpt>
      <trkpt lat="42.615942" lon="1.231981">
        <ele>1492.6</ele>
        <time>2013-07-30T08:56:59Z</time>
      </trkpt>
      <trkpt lat="42.616015" lon="1.231938">
        <ele>1492.5</ele>
        <time>2013-07-30T08:57:04Z</time>
      </trkpt>
      <trkpt lat="42.616054" lon="1.231940">
        <ele>1493.0</ele>
        <time>2013-07-30T08:57:08Z</time>
      </trkpt>
      <trkpt lat="42.616161" lon="1.232043">
        <ele>1493.9</ele>
        <time>2013-07-30T08:57:19Z</time>
      </trkpt>
      <trkpt lat="42.616253" lon="1.232113">
        <ele>1495.4</ele>
        <time>2013-07-30T08:57:28Z</time>
      </trkpt>
      <trkpt lat="42.616340" lon="1.232209">
        <ele>1494.2</ele>
        <time>2013-07-30T08:57:36Z</time>
      </trkpt>
      <trkpt lat="42.616471" lon="1.232268">
        <ele>1492.3</ele>
        <time>2013-07-30T08:57:48Z</time>
      </trkpt>
      <trkpt lat="42.616529" lon="1.232269">
        <ele>1492.2</ele>
        <time>2013-07-30T08:57:53Z</time>
      </trkpt>
      <trkpt lat="42.616663" lon="1.232213">
        <ele>1493.8</ele>
        <time>2013-07-30T08:58:04Z</time>
      </trkpt>
      <trkpt lat="42.616845" lon="1.232264">
        <ele>1493.5</ele>
        <time>2013-07-30T08:58:19Z</time>
      </trkpt>
      <trkpt lat="42.616860" lon="1.232270">
        <ele>1493.7</ele>
        <time>2013-07-30T08:58:20Z</time>
      </trkpt>
      <trkpt lat="42.616886" lon="1.232287">
        <ele>1493.4</ele>
        <time>2013-07-30T08:58:22Z</time>
      </trkpt>
      <trkpt lat="42.617045" lon="1.232314">
        <ele>1493.5</ele>
        <time>2013-07-30T08:58:35Z</time>
      </trkpt>
      <trkpt lat="42.617087" lon="1.232312">
        <ele>1493.5</ele>
        <time>2013-07-30T08:58:38Z</time>
      </trkpt>
      <trkpt lat="42.617125" lon="1.232335">
        <ele>1492.9</ele>
        <time>2013-07-30T08:58:41Z</time>
      </trkpt>
      <trkpt lat="42.617281" lon="1.232391">
        <ele>1491.6</ele>
        <time>2013-07-30T08:58:54Z</time>
      </trkpt>
      <trkpt lat="42.617356" lon="1.232434">
        <ele>1490.5</ele>
        <time>2013-07-30T08:59:01Z</time>
      </trkpt>
      <trkpt lat="42.617533" lon="1.232462">
        <ele>1491.3</ele>
        <time>2013-07-30T08:59:15Z</time>
      </trkpt>
      <trkpt lat="42.617623" lon="1.232491">
        <ele>1490.5</ele>
        <time>2013-07-30T08:59:29Z</time>
      </trkpt>
      <trkpt lat="42.617660" lon="1.232500">
        <ele>1490.4</ele>
        <time>2013-07-30T08:59:47Z</time>
      </trkpt>
      <trkpt lat="42.617820" lon="1.232525">
        <ele>1489.8</ele>
        <time>2013-07-30T08:59:58Z</time>
      </trkpt>
      <trkpt lat="42.617899" lon="1.232552">
        <ele>1489.3</ele>
        <time>2013-07-30T09:00:05Z</time>
      </trkpt>
      <trkpt lat="42.618006" lon="1.232577">
        <ele>1489.4</ele>
        <time>2013-07-30T09:00:14Z</time>
      </trkpt>
      <trkpt lat="42.618213" lon="1.232692">
        <ele>1486.5</ele>
        <time>2013-07-30T09:00:30Z</time>
      </trkpt>
      <trkpt lat="42.618273" lon="1.232718">
        <ele>1485.7</ele>
        <time>2013-07-30T09:00:35Z</time>
      </trkpt>
      <trkpt lat="42.618334" lon="1.232730">
        <ele>1485.5</ele>
        <time>2013-07-30T09:00:40Z</time>
      </trkpt>
      <trkpt lat="42.618410" lon="1.232695">
        <ele>1486.8</ele>
        <time>2013-07-30T09:00:46Z</time>
      </trkpt>
      <trkpt lat="42.618484" lon="1.232730">
        <ele>1485.3</ele>
        <time>2013-07-30T09:00:59Z</time>
      </trkpt>
      <trkpt lat="42.618484" lon="1.232730">
        <ele>1485.3</ele>
        <time>2013-07-30T09:01:28Z</time>
      </trkpt>
      <trkpt lat="42.618484" lon="1.232737">
        <ele>1485.0</ele>
        <time>2013-07-30T09:01:54Z</time>
      </trkpt>
      <trkpt lat="42.618509" lon="1.232757">
        <ele>1484.3</ele>
        <time>2013-07-30T09:02:18Z</time>
      </trkpt>
      <trkpt lat="42.618619" lon="1.232807">
        <ele>1482.5</ele>
        <time>2013-07-30T09:02:27Z</time>
      </trkpt>
      <trkpt lat="42.618764" lon="1.232866">
        <ele>1478.6</ele>
        <time>2013-07-30T09:02:41Z</time>
      </trkpt>
      <trkpt lat="42.618934" lon="1.232971">
        <ele>1476.6</ele>
        <time>2013-07-30T09:02:57Z</time>
      </trkpt>
      <trkpt lat="42.619136" lon="1.233047">
        <ele>1473.7</ele>
        <time>2013-07-30T09:03:13Z</time>
      </trkpt>
      <trkpt lat="42.619199" lon="1.233061">
        <ele>1473.4</ele>
        <time>2013-07-30T09:03:17Z</time>
      </trkpt>
      <trkpt lat="42.619380" lon="1.233129">
        <ele>1471.2</ele>
        <time>2013-07-30T09:03:31Z</time>
      </trkpt>
      <trkpt lat="42.619518" lon="1.233142">
        <ele>1470.0</ele>
        <time>2013-07-30T09:03:45Z</time>
      </trkpt>
      <trkpt lat="42.619528" lon="1.233152">
        <ele>1469.2</ele>
        <time>2013-07-30T09:03:46Z</time>
      </trkpt>
      <trkpt lat="42.619625" lon="1.233171">
        <ele>1468.0</ele>
        <time>2013-07-30T09:03:54Z</time>
      </trkpt>
      <trkpt lat="42.619747" lon="1.233204">
        <ele>1466.2</ele>
        <time>2013-07-30T09:04:04Z</time>
      </trkpt>
      <trkpt lat="42.619916" lon="1.233285">
        <ele>1462.1</ele>
        <time>2013-07-30T09:04:19Z</time>
      </trkpt>
      <trkpt lat="42.620028" lon="1.233413">
        <ele>1457.6</ele>
        <time>2013-07-30T09:04:32Z</time>
      </trkpt>
      <trkpt lat="42.620209" lon="1.233437">
        <ele>1454.7</ele>
        <time>2013-07-30T09:04:46Z</time>
      </trkpt>
      <trkpt lat="42.620317" lon="1.233438">
        <ele>1452.8</ele>
        <time>2013-07-30T09:04:53Z</time>
      </trkpt>
      <trkpt lat="42.620382" lon="1.233438">
        <ele>1451.9</ele>
        <time>2013-07-30T09:04:58Z</time>
      </trkpt>
      <trkpt lat="42.620401" lon="1.233429">
        <ele>1452.1</ele>
        <time>2013-07-30T09:05:00Z</time>
      </trkpt>
      <trkpt lat="42.620549" lon="1.233393">
        <ele>1448.7</ele>
        <time>2013-07-30T09:05:15Z</time>
      </trkpt>
      <trkpt lat="42.620633" lon="1.233348">
        <ele>1448.6</ele>
        <time>2013-07-30T09:05:21Z</time>
      </trkpt>
      <trkpt lat="42.620800" lon="1.233344">
        <ele>1444.1</ele>
        <time>2013-07-30T09:05:34Z</time>
      </trkpt>
      <trkpt lat="42.620815" lon="1.233361">
        <ele>1443.7</ele>
        <time>2013-07-30T09:05:36Z</time>
      </trkpt>
      <trkpt lat="42.620798" lon="1.233446">
        <ele>1441.8</ele>
        <time>2013-07-30T09:05:41Z</time>
      </trkpt>
      <trkpt lat="42.620732" lon="1.233500">
        <ele>1440.4</ele>
        <time>2013-07-30T09:05:56Z</time>
      </trkpt>
      <trkpt lat="42.620733" lon="1.233507">
        <ele>1440.3</ele>
        <time>2013-07-30T09:06:12Z</time>
      </trkpt>
      <trkpt lat="42.620700" lon="1.233510">
        <ele>1439.9</ele>
        <time>2013-07-30T09:06:30Z</time>
      </trkpt>
      <trkpt lat="42.620680" lon="1.233514">
        <ele>1439.5</ele>
        <time>2013-07-30T09:06:32Z</time>
      </trkpt>
      <trkpt lat="42.620615" lon="1.233585">
        <ele>1437.3</ele>
        <time>2013-07-30T09:06:38Z</time>
      </trkpt>
      <trkpt lat="42.620484" lon="1.233795">
        <ele>1433.2</ele>
        <time>2013-07-30T09:06:54Z</time>
      </trkpt>
      <trkpt lat="42.620373" lon="1.233950">
        <ele>1431.2</ele>
        <time>2013-07-30T09:07:09Z</time>
      </trkpt>
      <trkpt lat="42.620313" lon="1.234049">
        <ele>1429.5</ele>
        <time>2013-07-30T09:07:18Z</time>
      </trkpt>
      <trkpt lat="42.620237" lon="1.234238">
        <ele>1425.7</ele>
        <time>2013-07-30T09:07:33Z</time>
      </trkpt>
      <trkpt lat="42.620201" lon="1.234329">
        <ele>1424.8</ele>
        <time>2013-07-30T09:07:39Z</time>
      </trkpt>
      <trkpt lat="42.620108" lon="1.234524">
        <ele>1423.3</ele>
        <time>2013-07-30T09:07:52Z</time>
      </trkpt>
      <trkpt lat="42.620019" lon="1.234630">
        <ele>1421.9</ele>
        <time>2013-07-30T09:08:03Z</time>
      </trkpt>
      <trkpt lat="42.620074" lon="1.234714">
        <ele>1419.0</ele>
        <time>2013-07-30T09:08:14Z</time>
      </trkpt>
      <trkpt lat="42.619992" lon="1.234782">
        <ele>1419.3</ele>
        <time>2013-07-30T09:10:27Z</time>
      </trkpt>
      <trkpt lat="42.620128" lon="1.234690">
        <ele>1417.7</ele>
        <time>2013-07-30T09:10:42Z</time>
      </trkpt>
      <trkpt lat="42.620229" lon="1.234549">
        <ele>1416.5</ele>
        <time>2013-07-30T09:10:52Z</time>
      </trkpt>
      <trkpt lat="42.620338" lon="1.234427">
        <ele>1415.1</ele>
        <time>2013-07-30T09:11:06Z</time>
      </trkpt>
      <trkpt lat="42.620504" lon="1.234284">
        <ele>1412.3</ele>
        <time>2013-07-30T09:11:20Z</time>
      </trkpt>
      <trkpt lat="42.620559" lon="1.234224">
        <ele>1411.7</ele>
        <time>2013-07-30T09:11:25Z</time>
      </trkpt>
      <trkpt lat="42.620652" lon="1.234134">
        <ele>1411.2</ele>
        <time>2013-07-30T09:11:39Z</time>
      </trkpt>
      <trkpt lat="42.620692" lon="1.234102">
        <ele>1411.5</ele>
        <time>2013-07-30T09:11:49Z</time>
      </trkpt>
      <trkpt lat="42.620723" lon="1.234069">
        <ele>1411.8</ele>
        <time>2013-07-30T09:12:01Z</time>
      </trkpt>
      <trkpt lat="42.620723" lon="1.234067">
        <ele>1411.9</ele>
        <time>2013-07-30T09:12:13Z</time>
      </trkpt>
      <trkpt lat="42.620711" lon="1.234072">
        <ele>1411.9</ele>
        <time>2013-07-30T09:12:27Z</time>
      </trkpt>
      <trkpt lat="42.620687" lon="1.234105">
        <ele>1411.5</ele>
        <time>2013-07-30T09:12:31Z</time>
      </trkpt>
      <trkpt lat="42.620665" lon="1.234142">
        <ele>1410.8</ele>
        <time>2013-07-30T09:12:34Z</time>
      </trkpt>
      <trkpt lat="42.620600" lon="1.234274">
        <ele>1408.9</ele>
        <time>2013-07-30T09:12:47Z</time>
      </trkpt>
      <trkpt lat="42.620528" lon="1.234412">
        <ele>1407.3</ele>
        <time>2013-07-30T09:12:58Z</time>
      </trkpt>
      <trkpt lat="42.620497" lon="1.234505">
        <ele>1404.9</ele>
        <time>2013-07-30T09:13:03Z</time>
      </trkpt>
      <trkpt lat="42.620488" lon="1.234537">
        <ele>1404.2</ele>
        <time>2013-07-30T09:13:05Z</time>
      </trkpt>
      <trkpt lat="42.620485" lon="1.234596">
        <ele>1403.1</ele>
        <time>2013-07-30T09:13:21Z</time>
      </trkpt>
      <trkpt lat="42.620483" lon="1.234598">
        <ele>1403.1</ele>
        <time>2013-07-30T09:13:42Z</time>
      </trkpt>
      <trkpt lat="42.620458" lon="1.234645">
        <ele>1402.5</ele>
        <time>2013-07-30T09:13:55Z</time>
      </trkpt>
      <trkpt lat="42.620430" lon="1.234709">
        <ele>1401.4</ele>
        <time>2013-07-30T09:13:59Z</time>
      </trkpt>
      <trkpt lat="42.620338" lon="1.234919">
        <ele>1398.4</ele>
        <time>2013-07-30T09:14:12Z</time>
      </trkpt>
      <trkpt lat="42.620236" lon="1.235108">
        <ele>1396.2</ele>
        <time>2013-07-30T09:14:27Z</time>
      </trkpt>
      <trkpt lat="42.620217" lon="1.235185">
        <ele>1394.8</ele>
        <time>2013-07-30T09:14:32Z</time>
      </trkpt>
      <trkpt lat="42.620135" lon="1.235377">
        <ele>1393.0</ele>
        <time>2013-07-30T09:14:44Z</time>
      </trkpt>
      <trkpt lat="42.620091" lon="1.235526">
        <ele>1390.7</ele>
        <time>2013-07-30T09:14:57Z</time>
      </trkpt>
      <trkpt lat="42.620034" lon="1.235682">
        <ele>1388.4</ele>
        <time>2013-07-30T09:15:11Z</time>
      </trkpt>
      <trkpt lat="42.620012" lon="1.235738">
        <ele>1387.6</ele>
        <time>2013-07-30T09:15:14Z</time>
      </trkpt>
      <trkpt lat="42.619991" lon="1.235784">
        <ele>1386.8</ele>
        <time>2013-07-30T09:15:30Z</time>
      </trkpt>
      <trkpt lat="42.619991" lon="1.235784">
        <ele>1386.8</ele>
        <time>2013-07-30T09:15:52Z</time>
      </trkpt>
      <trkpt lat="42.619983" lon="1.235790">
        <ele>1386.9</ele>
        <time>2013-07-30T09:16:28Z</time>
      </trkpt>
      <trkpt lat="42.619959" lon="1.235817">
        <ele>1386.6</ele>
        <time>2013-07-30T09:16:31Z</time>
      </trkpt>
      <trkpt lat="42.619936" lon="1.236022">
        <ele>1383.5</ele>
        <time>2013-07-30T09:16:44Z</time>
      </trkpt>
      <trkpt lat="42.619961" lon="1.235987">
        <ele>1383.1</ele>
        <time>2013-07-30T09:29:19Z</time>
      </trkpt>
      <trkpt lat="42.620052" lon="1.235882">
        <ele>1382.9</ele>
        <time>2013-07-30T09:29:32Z</time>
      </trkpt>
      <trkpt lat="42.620062" lon="1.235834">
        <ele>1383.1</ele>
        <time>2013-07-30T09:29:36Z</time>
      </trkpt>
      <trkpt lat="42.620167" lon="1.235693">
        <ele>1382.2</ele>
        <time>2013-07-30T09:29:51Z</time>
      </trkpt>
      <trkpt lat="42.620293" lon="1.235578">
        <ele>1381.1</ele>
        <time>2013-07-30T09:30:06Z</time>
      </trkpt>
      <trkpt lat="42.620363" lon="1.235568">
        <ele>1379.7</ele>
        <time>2013-07-30T09:30:12Z</time>
      </trkpt>
      <trkpt lat="42.620412" lon="1.235573">
        <ele>1378.2</ele>
        <time>2013-07-30T09:30:23Z</time>
      </trkpt>
      <trkpt lat="42.620467" lon="1.235550">
        <ele>1378.9</ele>
        <time>2013-07-30T09:30:26Z</time>
      </trkpt>
      <trkpt lat="42.620723" lon="1.235534">
        <ele>1378.4</ele>
        <time>2013-07-30T09:30:41Z</time>
      </trkpt>
      <trkpt lat="42.620757" lon="1.235532">
        <ele>1378.4</ele>
        <time>2013-07-30T09:30:57Z</time>
      </trkpt>
      <trkpt lat="42.620757" lon="1.235532">
        <ele>1378.4</ele>
        <time>2013-07-30T09:31:20Z</time>
      </trkpt>
      <trkpt lat="42.620760" lon="1.235532">
        <ele>1378.4</ele>
        <time>2013-07-30T09:31:55Z</time>
      </trkpt>
      <trkpt lat="42.620868" lon="1.235537">
        <ele>1378.7</ele>
        <time>2013-07-30T09:32:07Z</time>
      </trkpt>
      <trkpt lat="42.620895" lon="1.235502">
        <ele>1379.9</ele>
        <time>2013-07-30T09:32:14Z</time>
      </trkpt>
      <trkpt lat="42.620954" lon="1.235432">
        <ele>1382.2</ele>
        <time>2013-07-30T09:32:24Z</time>
      </trkpt>
      <trkpt lat="42.620990" lon="1.235395">
        <ele>1383.7</ele>
        <time>2013-07-30T09:32:34Z</time>
      </trkpt>
      <trkpt lat="42.621003" lon="1.235393">
        <ele>1383.7</ele>
        <time>2013-07-30T09:32:36Z</time>
      </trkpt>
      <trkpt lat="42.621050" lon="1.235353">
        <ele>1383.4</ele>
        <time>2013-07-30T09:32:46Z</time>
      </trkpt>
      <trkpt lat="42.621169" lon="1.235221">
        <ele>1382.5</ele>
        <time>2013-07-30T09:32:59Z</time>
      </trkpt>
      <trkpt lat="42.621310" lon="1.235161">
        <ele>1379.7</ele>
        <time>2013-07-30T09:33:13Z</time>
      </trkpt>
      <trkpt lat="42.621421" lon="1.235102">
        <ele>1377.7</ele>
        <time>2013-07-30T09:33:26Z</time>
      </trkpt>
      <trkpt lat="42.621527" lon="1.235034">
        <ele>1375.2</ele>
        <time>2013-07-30T09:33:38Z</time>
      </trkpt>
      <trkpt lat="42.621605" lon="1.235036">
        <ele>1374.8</ele>
        <time>2013-07-30T09:33:50Z</time>
      </trkpt>
      <trkpt lat="42.621656" lon="1.235173">
        <ele>1374.7</ele>
        <time>2013-07-30T09:34:02Z</time>
      </trkpt>
      <trkpt lat="42.621680" lon="1.235286">
        <ele>1373.4</ele>
        <time>2013-07-30T09:34:10Z</time>
      </trkpt>
      <trkpt lat="42.621721" lon="1.235479">
        <ele>1371.7</ele>
        <time>2013-07-30T09:34:23Z</time>
      </trkpt>
      <trkpt lat="42.621743" lon="1.235547">
        <ele>1371.8</ele>
        <time>2013-07-30T09:34:33Z</time>
      </trkpt>
      <trkpt lat="42.621765" lon="1.235701">
        <ele>1369.6</ele>
        <time>2013-07-30T09:34:41Z</time>
      </trkpt>
      <trkpt lat="42.621796" lon="1.235782">
        <ele>1370.0</ele>
        <time>2013-07-30T09:34:47Z</time>
      </trkpt>
      <trkpt lat="42.621859" lon="1.235866">
        <ele>1371.2</ele>
        <time>2013-07-30T09:34:59Z</time>
      </trkpt>
      <trkpt lat="42.621956" lon="1.235989">
        <ele>1373.0</ele>
        <time>2013-07-30T09:35:14Z</time>
      </trkpt>
      <trkpt lat="42.622028" lon="1.236081">
        <ele>1374.8</ele>
        <time>2013-07-30T09:35:25Z</time>
      </trkpt>
      <trkpt lat="42.622033" lon="1.236084">
        <ele>1374.9</ele>
        <time>2013-07-30T09:35:27Z</time>
      </trkpt>
      <trkpt lat="42.622142" lon="1.236203">
        <ele>1377.5</ele>
        <time>2013-07-30T09:35:38Z</time>
      </trkpt>
      <trkpt lat="42.622210" lon="1.236286">
        <ele>1378.3</ele>
        <time>2013-07-30T09:35:48Z</time>
      </trkpt>
      <trkpt lat="42.622289" lon="1.236366">
        <ele>1378.9</ele>
        <time>2013-07-30T09:35:59Z</time>
      </trkpt>
      <trkpt lat="42.622324" lon="1.236392">
        <ele>1379.5</ele>
        <time>2013-07-30T09:36:03Z</time>
      </trkpt>
      <trkpt lat="42.622341" lon="1.236416">
        <ele>1379.6</ele>
        <time>2013-07-30T09:36:06Z</time>
      </trkpt>
      <trkpt lat="42.622363" lon="1.236445">
        <ele>1380.2</ele>
        <time>2013-07-30T09:36:10Z</time>
      </trkpt>
      <trkpt lat="42.622444" lon="1.236504">
        <ele>1384.0</ele>
        <time>2013-07-30T09:36:21Z</time>
      </trkpt>
      <trkpt lat="42.622485" lon="1.236535">
        <ele>1386.0</ele>
        <time>2013-07-30T09:36:28Z</time>
      </trkpt>
      <trkpt lat="42.622530" lon="1.236618">
        <ele>1387.1</ele>
        <time>2013-07-30T09:36:39Z</time>
      </trkpt>
      <trkpt lat="42.622564" lon="1.236644">
        <ele>1388.0</ele>
        <time>2013-07-30T09:36:55Z</time>
      </trkpt>
      <trkpt lat="42.622572" lon="1.236644">
        <ele>1388.3</ele>
        <time>2013-07-30T09:37:08Z</time>
      </trkpt>
      <trkpt lat="42.622594" lon="1.236632">
        <ele>1389.3</ele>
        <time>2013-07-30T09:37:14Z</time>
      </trkpt>
      <trkpt lat="42.622617" lon="1.236654">
        <ele>1390.4</ele>
        <time>2013-07-30T09:37:17Z</time>
      </trkpt>
      <trkpt lat="42.622628" lon="1.236710">
        <ele>1390.7</ele>
        <time>2013-07-30T09:37:23Z</time>
      </trkpt>
      <trkpt lat="42.622671" lon="1.236762">
        <ele>1393.8</ele>
        <time>2013-07-30T09:37:32Z</time>
      </trkpt>
      <trkpt lat="42.622682" lon="1.236792">
        <ele>1394.3</ele>
        <time>2013-07-30T09:37:35Z</time>
      </trkpt>
      <trkpt lat="42.622691" lon="1.236825">
        <ele>1394.6</ele>
        <time>2013-07-30T09:37:38Z</time>
      </trkpt>
      <trkpt lat="42.622705" lon="1.236858">
        <ele>1395.2</ele>
        <time>2013-07-30T09:37:41Z</time>
      </trkpt>
      <trkpt lat="42.622767" lon="1.236964">
        <ele>1397.5</ele>
        <time>2013-07-30T09:37:53Z</time>
      </trkpt>
      <trkpt lat="42.622784" lon="1.236980">
        <ele>1398.1</ele>
        <time>2013-07-30T09:37:56Z</time>
      </trkpt>
      <trkpt lat="42.622821" lon="1.237020">
        <ele>1398.8</ele>
        <time>2013-07-30T09:38:02Z</time>
      </trkpt>
      <trkpt lat="42.622844" lon="1.237032">
        <ele>1399.2</ele>
        <time>2013-07-30T09:38:05Z</time>
      </trkpt>
      <trkpt lat="42.622866" lon="1.237049">
        <ele>1398.9</ele>
        <time>2013-07-30T09:38:08Z</time>
      </trkpt>
      <trkpt lat="42.622965" lon="1.237045">
        <ele>1401.0</ele>
        <time>2013-07-30T09:38:20Z</time>
      </trkpt>
      <trkpt lat="42.623038" lon="1.237049">
        <ele>1403.7</ele>
        <time>2013-07-30T09:38:30Z</time>
      </trkpt>
      <trkpt lat="42.623080" lon="1.237099">
        <ele>1404.0</ele>
        <time>2013-07-30T09:38:38Z</time>
      </trkpt>
      <trkpt lat="42.623115" lon="1.237131">
        <ele>1405.0</ele>
        <time>2013-07-30T09:38:46Z</time>
      </trkpt>
      <trkpt lat="42.623151" lon="1.237162">
        <ele>1406.3</ele>
        <time>2013-07-30T09:38:51Z</time>
      </trkpt>
      <trkpt lat="42.623168" lon="1.237175">
        <ele>1406.8</ele>
        <time>2013-07-30T09:38:53Z</time>
      </trkpt>
      <trkpt lat="42.623186" lon="1.237208">
        <ele>1406.7</ele>
        <time>2013-07-30T09:38:56Z</time>
      </trkpt>
      <trkpt lat="42.623240" lon="1.237255">
        <ele>1408.1</ele>
        <time>2013-07-30T09:39:03Z</time>
      </trkpt>
      <trkpt lat="42.623265" lon="1.237306">
        <ele>1407.8</ele>
        <time>2013-07-30T09:39:08Z</time>
      </trkpt>
      <trkpt lat="42.623364" lon="1.237383">
        <ele>1409.1</ele>
        <time>2013-07-30T09:39:20Z</time>
      </trkpt>
      <trkpt lat="42.623431" lon="1.237432">
        <ele>1409.5</ele>
        <time>2013-07-30T09:39:28Z</time>
      </trkpt>
      <trkpt lat="42.623522" lon="1.237513">
        <ele>1410.2</ele>
        <time>2013-07-30T09:39:39Z</time>
      </trkpt>
      <trkpt lat="42.623604" lon="1.237631">
        <ele>1410.9</ele>
        <time>2013-07-30T09:39:50Z</time>
      </trkpt>
      <trkpt lat="42.623657" lon="1.237701">
        <ele>1411.7</ele>
        <time>2013-07-30T09:39:57Z</time>
      </trkpt>
      <trkpt lat="42.623753" lon="1.237785">
        <ele>1413.4</ele>
        <time>2013-07-30T09:40:08Z</time>
      </trkpt>
      <trkpt lat="42.623840" lon="1.237853">
        <ele>1413.9</ele>
        <time>2013-07-30T09:40:18Z</time>
      </trkpt>
      <trkpt lat="42.623988" lon="1.237877">
        <ele>1412.4</ele>
        <time>2013-07-30T09:40:31Z</time>
      </trkpt>
      <trkpt lat="42.624119" lon="1.237862">
        <ele>1413.2</ele>
        <time>2013-07-30T09:40:44Z</time>
      </trkpt>
      <trkpt lat="42.624155" lon="1.237903">
        <ele>1413.7</ele>
        <time>2013-07-30T09:40:56Z</time>
      </trkpt>
      <trkpt lat="42.624162" lon="1.237917">
        <ele>1414.0</ele>
        <time>2013-07-30T09:41:10Z</time>
      </trkpt>
      <trkpt lat="42.624164" lon="1.237917">
        <ele>1414.1</ele>
        <time>2013-07-30T09:41:43Z</time>
      </trkpt>
      <trkpt lat="42.624164" lon="1.237917">
        <ele>1414.1</ele>
        <time>2013-07-30T09:42:05Z</time>
      </trkpt>
      <trkpt lat="42.624147" lon="1.237989">
        <ele>1414.3</ele>
        <time>2013-07-30T09:42:16Z</time>
      </trkpt>
      <trkpt lat="42.624142" lon="1.237997">
        <ele>1414.2</ele>
        <time>2013-07-30T09:42:17Z</time>
      </trkpt>
      <trkpt lat="42.624119" lon="1.238225">
        <ele>1415.7</ele>
        <time>2013-07-30T09:42:31Z</time>
      </trkpt>
      <trkpt lat="42.624156" lon="1.238314">
        <ele>1415.5</ele>
        <time>2013-07-30T09:42:42Z</time>
      </trkpt>
      <trkpt lat="42.624177" lon="1.238340">
        <ele>1415.9</ele>
        <time>2013-07-30T09:43:03Z</time>
      </trkpt>
      <trkpt lat="42.624201" lon="1.238382">
        <ele>1416.2</ele>
        <time>2013-07-30T09:43:07Z</time>
      </trkpt>
      <trkpt lat="42.624283" lon="1.238492">
        <ele>1417.5</ele>
        <time>2013-07-30T09:43:18Z</time>
      </trkpt>
      <trkpt lat="42.624308" lon="1.238530">
        <ele>1418.7</ele>
        <time>2013-07-30T09:43:23Z</time>
      </trkpt>
      <trkpt lat="42.624321" lon="1.238562">
        <ele>1419.1</ele>
        <time>2013-07-30T09:43:26Z</time>
      </trkpt>
      <trkpt lat="42.624342" lon="1.238638">
        <ele>1418.5</ele>
        <time>2013-07-30T09:43:32Z</time>
      </trkpt>
      <trkpt lat="42.624440" lon="1.238795">
        <ele>1419.3</ele>
        <time>2013-07-30T09:43:46Z</time>
      </trkpt>
      <trkpt lat="42.624447" lon="1.238801">
        <ele>1419.5</ele>
        <time>2013-07-30T09:43:47Z</time>
      </trkpt>
      <trkpt lat="42.624580" lon="1.239002">
        <ele>1419.6</ele>
        <time>2013-07-30T09:44:04Z</time>
      </trkpt>
      <trkpt lat="42.624650" lon="1.239071">
        <ele>1420.5</ele>
        <time>2013-07-30T09:44:12Z</time>
      </trkpt>
      <trkpt lat="42.624673" lon="1.239066">
        <ele>1421.3</ele>
        <time>2013-07-30T09:44:15Z</time>
      </trkpt>
      <trkpt lat="42.624733" lon="1.239149">
        <ele>1420.8</ele>
        <time>2013-07-30T09:44:23Z</time>
      </trkpt>
      <trkpt lat="42.624758" lon="1.239153">
        <ele>1421.5</ele>
        <time>2013-07-30T09:44:25Z</time>
      </trkpt>
      <trkpt lat="42.624889" lon="1.239301">
        <ele>1420.6</ele>
        <time>2013-07-30T09:44:41Z</time>
      </trkpt>
      <trkpt lat="42.625024" lon="1.239479">
        <ele>1420.7</ele>
        <time>2013-07-30T09:44:56Z</time>
      </trkpt>
      <trkpt lat="42.625125" lon="1.239617">
        <ele>1420.7</ele>
        <time>2013-07-30T09:45:09Z</time>
      </trkpt>
      <trkpt lat="42.625229" lon="1.239833">
        <ele>1417.4</ele>
        <time>2013-07-30T09:45:24Z</time>
      </trkpt>
      <trkpt lat="42.625280" lon="1.239893">
        <ele>1416.4</ele>
        <time>2013-07-30T09:45:30Z</time>
      </trkpt>
      <trkpt lat="42.625334" lon="1.239957">
        <ele>1415.3</ele>
        <time>2013-07-30T09:45:36Z</time>
      </trkpt>
      <trkpt lat="42.625435" lon="1.240058">
        <ele>1414.6</ele>
        <time>2013-07-30T09:45:48Z</time>
      </trkpt>
      <trkpt lat="42.625568" lon="1.240314">
        <ele>1415.1</ele>
        <time>2013-07-30T09:46:05Z</time>
      </trkpt>
      <trkpt lat="42.625610" lon="1.240476">
        <ele>1416.9</ele>
        <time>2013-07-30T09:46:17Z</time>
      </trkpt>
      <trkpt lat="42.625637" lon="1.240537">
        <ele>1416.2</ele>
        <time>2013-07-30T09:46:22Z</time>
      </trkpt>
      <trkpt lat="42.625677" lon="1.240562">
        <ele>1416.1</ele>
        <time>2013-07-30T09:46:26Z</time>
      </trkpt>
      <trkpt lat="42.625792" lon="1.240654">
        <ele>1414.9</ele>
        <time>2013-07-30T09:46:38Z</time>
      </trkpt>
      <trkpt lat="42.625934" lon="1.240810">
        <ele>1415.2</ele>
        <time>2013-07-30T09:46:54Z</time>
      </trkpt>
      <trkpt lat="42.626043" lon="1.240953">
        <ele>1414.5</ele>
        <time>2013-07-30T09:47:07Z</time>
      </trkpt>
      <trkpt lat="42.626119" lon="1.241039">
        <ele>1413.5</ele>
        <time>2013-07-30T09:47:15Z</time>
      </trkpt>
      <trkpt lat="42.626177" lon="1.241131">
        <ele>1413.8</ele>
        <time>2013-07-30T09:47:26Z</time>
      </trkpt>
      <trkpt lat="42.626263" lon="1.241179">
        <ele>1414.6</ele>
        <time>2013-07-30T09:47:37Z</time>
      </trkpt>
      <trkpt lat="42.626297" lon="1.241217">
        <ele>1413.9</ele>
        <time>2013-07-30T09:47:42Z</time>
      </trkpt>
      <trkpt lat="42.626421" lon="1.241320">
        <ele>1412.9</ele>
        <time>2013-07-30T09:47:54Z</time>
      </trkpt>
      <trkpt lat="42.626510" lon="1.241431">
        <ele>1412.2</ele>
        <time>2013-07-30T09:48:06Z</time>
      </trkpt>
      <trkpt lat="42.626510" lon="1.241431">
        <ele>1412.2</ele>
        <time>2013-07-30T09:48:20Z</time>
      </trkpt>
      <trkpt lat="42.626612" lon="1.241541">
        <ele>1411.5</ele>
        <time>2013-07-30T09:48:33Z</time>
      </trkpt>
      <trkpt lat="42.626641" lon="1.241564">
        <ele>1411.9</ele>
        <time>2013-07-30T09:48:37Z</time>
      </trkpt>
      <trkpt lat="42.626657" lon="1.241586">
        <ele>1411.5</ele>
        <time>2013-07-30T09:48:39Z</time>
      </trkpt>
      <trkpt lat="42.626778" lon="1.241721">
        <ele>1411.3</ele>
        <time>2013-07-30T09:48:53Z</time>
      </trkpt>
      <trkpt lat="42.626787" lon="1.241731">
        <ele>1411.1</ele>
        <time>2013-07-30T09:48:54Z</time>
      </trkpt>
      <trkpt lat="42.626902" lon="1.241784">
        <ele>1409.3</ele>
        <time>2013-07-30T09:49:07Z</time>
      </trkpt>
      <trkpt lat="42.626910" lon="1.241791">
        <ele>1409.1</ele>
        <time>2013-07-30T09:49:08Z</time>
      </trkpt>
      <trkpt lat="42.627051" lon="1.241764">
        <ele>1408.8</ele>
        <time>2013-07-30T09:49:21Z</time>
      </trkpt>
      <trkpt lat="42.627114" lon="1.241852">
        <ele>1406.7</ele>
        <time>2013-07-30T09:49:33Z</time>
      </trkpt>
      <trkpt lat="42.627169" lon="1.241916">
        <ele>1404.7</ele>
        <time>2013-07-30T09:49:41Z</time>
      </trkpt>
      <trkpt lat="42.627306" lon="1.241991">
        <ele>1403.9</ele>
        <time>2013-07-30T09:49:53Z</time>
      </trkpt>
      <trkpt lat="42.627411" lon="1.242025">
        <ele>1403.9</ele>
        <time>2013-07-30T09:50:02Z</time>
      </trkpt>
      <trkpt lat="42.627555" lon="1.242090">
        <ele>1403.4</ele>
        <time>2013-07-30T09:50:15Z</time>
      </trkpt>
      <trkpt lat="42.627665" lon="1.242189">
        <ele>1402.9</ele>
        <time>2013-07-30T09:50:27Z</time>
      </trkpt>
      <trkpt lat="42.627686" lon="1.242201">
        <ele>1403.4</ele>
        <time>2013-07-30T09:50:30Z</time>
      </trkpt>
      <trkpt lat="42.627784" lon="1.242250">
        <ele>1403.4</ele>
        <time>2013-07-30T09:50:42Z</time>
      </trkpt>
      <trkpt lat="42.627862" lon="1.242198">
        <ele>1401.5</ele>
        <time>2013-07-30T09:50:52Z</time>
      </trkpt>
      <trkpt lat="42.627925" lon="1.242201">
        <ele>1401.5</ele>
        <time>2013-07-30T09:50:57Z</time>
      </trkpt>
      <trkpt lat="42.628011" lon="1.242267">
        <ele>1402.0</ele>
        <time>2013-07-30T09:51:07Z</time>
      </trkpt>
      <trkpt lat="42.628056" lon="1.242299">
        <ele>1401.0</ele>
        <time>2013-07-30T09:51:12Z</time>
      </trkpt>
      <trkpt lat="42.628149" lon="1.242318">
        <ele>1401.4</ele>
        <time>2013-07-30T09:51:24Z</time>
      </trkpt>
      <trkpt lat="42.628180" lon="1.242316">
        <ele>1401.6</ele>
        <time>2013-07-30T09:51:28Z</time>
      </trkpt>
      <trkpt lat="42.628291" lon="1.242473">
        <ele>1399.4</ele>
        <time>2013-07-30T09:51:44Z</time>
      </trkpt>
      <trkpt lat="42.628377" lon="1.242569">
        <ele>1395.3</ele>
        <time>2013-07-30T09:51:57Z</time>
      </trkpt>
      <trkpt lat="42.628532" lon="1.242519">
        <ele>1392.8</ele>
        <time>2013-07-30T09:52:11Z</time>
      </trkpt>
      <trkpt lat="42.628644" lon="1.242475">
        <ele>1393.5</ele>
        <time>2013-07-30T09:52:22Z</time>
      </trkpt>
      <trkpt lat="42.628734" lon="1.242442">
        <ele>1395.3</ele>
        <time>2013-07-30T09:52:34Z</time>
      </trkpt>
      <trkpt lat="42.628773" lon="1.242447">
        <ele>1396.4</ele>
        <time>2013-07-30T09:52:39Z</time>
      </trkpt>
      <trkpt lat="42.628821" lon="1.242474">
        <ele>1396.6</ele>
        <time>2013-07-30T09:52:44Z</time>
      </trkpt>
      <trkpt lat="42.628868" lon="1.242527">
        <ele>1396.4</ele>
        <time>2013-07-30T09:52:48Z</time>
      </trkpt>
      <trkpt lat="42.628903" lon="1.242554">
        <ele>1397.2</ele>
        <time>2013-07-30T09:52:52Z</time>
      </trkpt>
      <trkpt lat="42.628923" lon="1.242574">
        <ele>1397.7</ele>
        <time>2013-07-30T09:52:54Z</time>
      </trkpt>
      <trkpt lat="42.628938" lon="1.242612">
        <ele>1397.6</ele>
        <time>2013-07-30T09:52:57Z</time>
      </trkpt>
      <trkpt lat="42.629034" lon="1.242681">
        <ele>1397.9</ele>
        <time>2013-07-30T09:53:07Z</time>
      </trkpt>
      <trkpt lat="42.629070" lon="1.242711">
        <ele>1397.7</ele>
        <time>2013-07-30T09:53:11Z</time>
      </trkpt>
      <trkpt lat="42.629128" lon="1.242756">
        <ele>1398.1</ele>
        <time>2013-07-30T09:53:17Z</time>
      </trkpt>
      <trkpt lat="42.629147" lon="1.242763">
        <ele>1398.5</ele>
        <time>2013-07-30T09:53:19Z</time>
      </trkpt>
      <trkpt lat="42.629184" lon="1.242786">
        <ele>1398.7</ele>
        <time>2013-07-30T09:53:23Z</time>
      </trkpt>
      <trkpt lat="42.629260" lon="1.242801">
        <ele>1401.2</ele>
        <time>2013-07-30T09:53:32Z</time>
      </trkpt>
      <trkpt lat="42.629335" lon="1.242867">
        <ele>1399.6</ele>
        <time>2013-07-30T09:53:40Z</time>
      </trkpt>
      <trkpt lat="42.629441" lon="1.242856">
        <ele>1399.5</ele>
        <time>2013-07-30T09:53:51Z</time>
      </trkpt>
      <trkpt lat="42.629606" lon="1.242947">
        <ele>1398.2</ele>
        <time>2013-07-30T09:54:07Z</time>
      </trkpt>
      <trkpt lat="42.629673" lon="1.242964">
        <ele>1398.4</ele>
        <time>2013-07-30T09:54:15Z</time>
      </trkpt>
      <trkpt lat="42.629746" lon="1.243000">
        <ele>1399.2</ele>
        <time>2013-07-30T09:54:24Z</time>
      </trkpt>
      <trkpt lat="42.629789" lon="1.243012">
        <ele>1399.8</ele>
        <time>2013-07-30T09:54:28Z</time>
      </trkpt>
      <trkpt lat="42.629836" lon="1.243028">
        <ele>1399.3</ele>
        <time>2013-07-30T09:54:32Z</time>
      </trkpt>
      <trkpt lat="42.629940" lon="1.243007">
        <ele>1399.1</ele>
        <time>2013-07-30T09:54:45Z</time>
      </trkpt>
      <trkpt lat="42.630022" lon="1.243034">
        <ele>1400.1</ele>
        <time>2013-07-30T09:54:53Z</time>
      </trkpt>
      <trkpt lat="42.630108" lon="1.243032">
        <ele>1401.6</ele>
        <time>2013-07-30T09:55:02Z</time>
      </trkpt>
      <trkpt lat="42.630197" lon="1.243020">
        <ele>1402.9</ele>
        <time>2013-07-30T09:55:14Z</time>
      </trkpt>
      <trkpt lat="42.630263" lon="1.243013">
        <ele>1404.7</ele>
        <time>2013-07-30T09:55:25Z</time>
      </trkpt>
      <trkpt lat="42.630362" lon="1.243025">
        <ele>1408.1</ele>
        <time>2013-07-30T09:55:36Z</time>
      </trkpt>
      <trkpt lat="42.630414" lon="1.243047">
        <ele>1409.2</ele>
        <time>2013-07-30T09:55:47Z</time>
      </trkpt>
      <trkpt lat="42.630466" lon="1.243035">
        <ele>1411.3</ele>
        <time>2013-07-30T09:55:56Z</time>
      </trkpt>
      <trkpt lat="42.630502" lon="1.243020">
        <ele>1411.9</ele>
        <time>2013-07-30T09:56:01Z</time>
      </trkpt>
      <trkpt lat="42.630571" lon="1.242967">
        <ele>1412.7</ele>
        <time>2013-07-30T09:56:11Z</time>
      </trkpt>
      <trkpt lat="42.630618" lon="1.242921">
        <ele>1413.0</ele>
        <time>2013-07-30T09:56:17Z</time>
      </trkpt>
      <trkpt lat="42.630752" lon="1.242900">
        <ele>1408.7</ele>
        <time>2013-07-30T09:56:32Z</time>
      </trkpt>
      <trkpt lat="42.630903" lon="1.242841">
        <ele>1407.9</ele>
        <time>2013-07-30T09:56:47Z</time>
      </trkpt>
      <trkpt lat="42.630961" lon="1.242780">
        <ele>1407.7</ele>
        <time>2013-07-30T09:56:52Z</time>
      </trkpt>
      <trkpt lat="42.631027" lon="1.242716">
        <ele>1406.6</ele>
        <time>2013-07-30T09:57:00Z</time>
      </trkpt>
      <trkpt lat="42.631096" lon="1.242599">
        <ele>1408.7</ele>
        <time>2013-07-30T09:57:12Z</time>
      </trkpt>
      <trkpt lat="42.631101" lon="1.242464">
        <ele>1407.9</ele>
        <time>2013-07-30T09:57:26Z</time>
      </trkpt>
      <trkpt lat="42.631107" lon="1.242432">
        <ele>1406.7</ele>
        <time>2013-07-30T09:57:28Z</time>
      </trkpt>
      <trkpt lat="42.631182" lon="1.242351">
        <ele>1401.2</ele>
        <time>2013-07-30T09:57:38Z</time>
      </trkpt>
      <trkpt lat="42.631237" lon="1.242210">
        <ele>1406.1</ele>
        <time>2013-07-30T09:57:49Z</time>
      </trkpt>
      <trkpt lat="42.631356" lon="1.242107">
        <ele>1403.1</ele>
        <time>2013-07-30T09:58:01Z</time>
      </trkpt>
      <trkpt lat="42.631381" lon="1.242108">
        <ele>1402.7</ele>
        <time>2013-07-30T09:58:04Z</time>
      </trkpt>
      <trkpt lat="42.631545" lon="1.242137">
        <ele>1400.7</ele>
        <time>2013-07-30T09:58:15Z</time>
      </trkpt>
      <trkpt lat="42.631575" lon="1.242150">
        <ele>1400.9</ele>
        <time>2013-07-30T09:58:18Z</time>
      </trkpt>
      <trkpt lat="42.631607" lon="1.242141">
        <ele>1402.0</ele>
        <time>2013-07-30T09:58:21Z</time>
      </trkpt>
      <trkpt lat="42.631622" lon="1.242125">
        <ele>1402.6</ele>
        <time>2013-07-30T09:58:23Z</time>
      </trkpt>
      <trkpt lat="42.631685" lon="1.242053">
        <ele>1404.0</ele>
        <time>2013-07-30T09:58:35Z</time>
      </trkpt>
      <trkpt lat="42.631761" lon="1.241928">
        <ele>1403.2</ele>
        <time>2013-07-30T09:58:47Z</time>
      </trkpt>
      <trkpt lat="42.631792" lon="1.241921">
        <ele>1401.6</ele>
        <time>2013-07-30T09:58:51Z</time>
      </trkpt>
      <trkpt lat="42.631875" lon="1.241920">
        <ele>1400.2</ele>
        <time>2013-07-30T09:58:59Z</time>
      </trkpt>
      <trkpt lat="42.631948" lon="1.241914">
        <ele>1401.5</ele>
        <time>2013-07-30T09:59:07Z</time>
      </trkpt>
      <trkpt lat="42.632064" lon="1.241930">
        <ele>1402.1</ele>
        <time>2013-07-30T09:59:19Z</time>
      </trkpt>
      <trkpt lat="42.632116" lon="1.241945">
        <ele>1402.9</ele>
        <time>2013-07-30T09:59:25Z</time>
      </trkpt>
      <trkpt lat="42.632205" lon="1.241984">
        <ele>1405.8</ele>
        <time>2013-07-30T09:59:36Z</time>
      </trkpt>
      <trkpt lat="42.632239" lon="1.242019">
        <ele>1406.3</ele>
        <time>2013-07-30T09:59:41Z</time>
      </trkpt>
      <trkpt lat="42.632336" lon="1.242087">
        <ele>1408.6</ele>
        <time>2013-07-30T09:59:53Z</time>
      </trkpt>
      <trkpt lat="42.632411" lon="1.242122">
        <ele>1410.2</ele>
        <time>2013-07-30T10:00:03Z</time>
      </trkpt>
      <trkpt lat="42.632463" lon="1.242143">
        <ele>1411.5</ele>
        <time>2013-07-30T10:00:15Z</time>
      </trkpt>
      <trkpt lat="42.632515" lon="1.242128">
        <ele>1413.5</ele>
        <time>2013-07-30T10:00:26Z</time>
      </trkpt>
      <trkpt lat="42.632554" lon="1.242139">
        <ele>1414.3</ele>
        <time>2013-07-30T10:00:31Z</time>
      </trkpt>
      <trkpt lat="42.632627" lon="1.242102">
        <ele>1415.7</ele>
        <time>2013-07-30T10:00:41Z</time>
      </trkpt>
      <trkpt lat="42.632709" lon="1.242113">
        <ele>1416.3</ele>
        <time>2013-07-30T10:00:52Z</time>
      </trkpt>
      <trkpt lat="42.632769" lon="1.242162">
        <ele>1418.5</ele>
        <time>2013-07-30T10:01:03Z</time>
      </trkpt>
      <trkpt lat="42.632797" lon="1.242203">
        <ele>1420.0</ele>
        <time>2013-07-30T10:01:09Z</time>
      </trkpt>
      <trkpt lat="42.632824" lon="1.242273">
        <ele>1421.3</ele>
        <time>2013-07-30T10:01:16Z</time>
      </trkpt>
      <trkpt lat="42.632857" lon="1.242309">
        <ele>1422.4</ele>
        <time>2013-07-30T10:01:20Z</time>
      </trkpt>
      <trkpt lat="42.632895" lon="1.242359">
        <ele>1423.7</ele>
        <time>2013-07-30T10:01:26Z</time>
      </trkpt>
      <trkpt lat="42.632915" lon="1.242422">
        <ele>1423.7</ele>
        <time>2013-07-30T10:01:31Z</time>
      </trkpt>
      <trkpt lat="42.632933" lon="1.242442">
        <ele>1423.9</ele>
        <time>2013-07-30T10:01:33Z</time>
      </trkpt>
      <trkpt lat="42.632948" lon="1.242454">
        <ele>1423.9</ele>
        <time>2013-07-30T10:01:35Z</time>
      </trkpt>
      <trkpt lat="42.632981" lon="1.242518">
        <ele>1422.4</ele>
        <time>2013-07-30T10:01:41Z</time>
      </trkpt>
      <trkpt lat="42.633080" lon="1.242545">
        <ele>1420.6</ele>
        <time>2013-07-30T10:01:52Z</time>
      </trkpt>
      <trkpt lat="42.633116" lon="1.242561">
        <ele>1421.7</ele>
        <time>2013-07-30T10:01:55Z</time>
      </trkpt>
      <trkpt lat="42.633226" lon="1.242590">
        <ele>1420.9</ele>
        <time>2013-07-30T10:02:05Z</time>
      </trkpt>
      <trkpt lat="42.633307" lon="1.242623">
        <ele>1420.4</ele>
        <time>2013-07-30T10:02:15Z</time>
      </trkpt>
      <trkpt lat="42.633397" lon="1.242673">
        <ele>1419.6</ele>
        <time>2013-07-30T10:02:24Z</time>
      </trkpt>
      <trkpt lat="42.633464" lon="1.242690">
        <ele>1420.4</ele>
        <time>2013-07-30T10:02:30Z</time>
      </trkpt>
      <trkpt lat="42.633540" lon="1.242721">
        <ele>1418.9</ele>
        <time>2013-07-30T10:02:37Z</time>
      </trkpt>
      <trkpt lat="42.633698" lon="1.242788">
        <ele>1418.3</ele>
        <time>2013-07-30T10:02:51Z</time>
      </trkpt>
      <trkpt lat="42.633771" lon="1.242849">
        <ele>1417.9</ele>
        <time>2013-07-30T10:03:01Z</time>
      </trkpt>
      <trkpt lat="42.633853" lon="1.242957">
        <ele>1417.4</ele>
        <time>2013-07-30T10:03:11Z</time>
      </trkpt>
      <trkpt lat="42.633966" lon="1.242978">
        <ele>1418.4</ele>
        <time>2013-07-30T10:03:25Z</time>
      </trkpt>
      <trkpt lat="42.634112" lon="1.242980">
        <ele>1417.8</ele>
        <time>2013-07-30T10:03:37Z</time>
      </trkpt>
      <trkpt lat="42.634158" lon="1.242993">
        <ele>1417.2</ele>
        <time>2013-07-30T10:03:42Z</time>
      </trkpt>
      <trkpt lat="42.634299" lon="1.243060">
        <ele>1415.1</ele>
        <time>2013-07-30T10:03:55Z</time>
      </trkpt>
      <trkpt lat="42.634415" lon="1.243105">
        <ele>1413.3</ele>
        <time>2013-07-30T10:04:09Z</time>
      </trkpt>
      <trkpt lat="42.634465" lon="1.243122">
        <ele>1412.7</ele>
        <time>2013-07-30T10:04:14Z</time>
      </trkpt>
      <trkpt lat="42.634484" lon="1.243142">
        <ele>1411.9</ele>
        <time>2013-07-30T10:04:16Z</time>
      </trkpt>
      <trkpt lat="42.634538" lon="1.243194">
        <ele>1410.2</ele>
        <time>2013-07-30T10:04:23Z</time>
      </trkpt>
      <trkpt lat="42.634588" lon="1.243246">
        <ele>1409.1</ele>
        <time>2013-07-30T10:04:29Z</time>
      </trkpt>
      <trkpt lat="42.634632" lon="1.243290">
        <ele>1409.6</ele>
        <time>2013-07-30T10:04:36Z</time>
      </trkpt>
      <trkpt lat="42.634646" lon="1.243314">
        <ele>1409.6</ele>
        <time>2013-07-30T10:04:38Z</time>
      </trkpt>
      <trkpt lat="42.634669" lon="1.243384">
        <ele>1407.3</ele>
        <time>2013-07-30T10:04:44Z</time>
      </trkpt>
      <trkpt lat="42.634741" lon="1.243443">
        <ele>1405.6</ele>
        <time>2013-07-30T10:04:53Z</time>
      </trkpt>
      <trkpt lat="42.634918" lon="1.243477">
        <ele>1404.4</ele>
        <time>2013-07-30T10:05:08Z</time>
      </trkpt>
      <trkpt lat="42.634962" lon="1.243502">
        <ele>1403.7</ele>
        <time>2013-07-30T10:05:12Z</time>
      </trkpt>
      <trkpt lat="42.635056" lon="1.243551">
        <ele>1402.9</ele>
        <time>2013-07-30T10:05:20Z</time>
      </trkpt>
      <trkpt lat="42.635144" lon="1.243674">
        <ele>1401.7</ele>
        <time>2013-07-30T10:05:32Z</time>
      </trkpt>
      <trkpt lat="42.635148" lon="1.243679">
        <ele>1401.8</ele>
        <time>2013-07-30T10:05:33Z</time>
      </trkpt>
      <trkpt lat="42.635237" lon="1.243731">
        <ele>1401.8</ele>
        <time>2013-07-30T10:05:42Z</time>
      </trkpt>
      <trkpt lat="42.635339" lon="1.243699">
        <ele>1402.4</ele>
        <time>2013-07-30T10:05:54Z</time>
      </trkpt>
      <trkpt lat="42.635455" lon="1.243671">
        <ele>1400.7</ele>
        <time>2013-07-30T10:06:08Z</time>
      </trkpt>
      <trkpt lat="42.635545" lon="1.243714">
        <ele>1397.8</ele>
        <time>2013-07-30T10:06:22Z</time>
      </trkpt>
      <trkpt lat="42.635582" lon="1.243726">
        <ele>1397.0</ele>
        <time>2013-07-30T10:06:33Z</time>
      </trkpt>
      <trkpt lat="42.635646" lon="1.243785">
        <ele>1393.5</ele>
        <time>2013-07-30T10:06:43Z</time>
      </trkpt>
      <trkpt lat="42.635678" lon="1.243804">
        <ele>1392.0</ele>
        <time>2013-07-30T10:06:47Z</time>
      </trkpt>
      <trkpt lat="42.635755" lon="1.243822">
        <ele>1389.2</ele>
        <time>2013-07-30T10:07:01Z</time>
      </trkpt>
      <trkpt lat="42.635911" lon="1.243859">
        <ele>1385.9</ele>
        <time>2013-07-30T10:07:14Z</time>
      </trkpt>
      <trkpt lat="42.636028" lon="1.243951">
        <ele>1381.6</ele>
        <time>2013-07-30T10:07:27Z</time>
      </trkpt>
      <trkpt lat="42.636062" lon="1.243987">
        <ele>1380.0</ele>
        <time>2013-07-30T10:07:34Z</time>
      </trkpt>
      <trkpt lat="42.636081" lon="1.244017">
        <ele>1378.7</ele>
        <time>2013-07-30T10:07:39Z</time>
      </trkpt>
      <trkpt lat="42.636075" lon="1.244131">
        <ele>1375.0</ele>
        <time>2013-07-30T10:07:52Z</time>
      </trkpt>
      <trkpt lat="42.636084" lon="1.244261">
        <ele>1371.4</ele>
        <time>2013-07-30T10:08:05Z</time>
      </trkpt>
      <trkpt lat="42.636155" lon="1.244239">
        <ele>1370.4</ele>
        <time>2013-07-30T10:08:16Z</time>
      </trkpt>
      <trkpt lat="42.636186" lon="1.244221">
        <ele>1368.7</ele>
        <time>2013-07-30T10:08:25Z</time>
      </trkpt>
      <trkpt lat="42.636214" lon="1.244221">
        <ele>1367.3</ele>
        <time>2013-07-30T10:08:29Z</time>
      </trkpt>
      <trkpt lat="42.636268" lon="1.244184">
        <ele>1365.2</ele>
        <time>2013-07-30T10:08:40Z</time>
      </trkpt>
      <trkpt lat="42.636332" lon="1.244227">
        <ele>1361.2</ele>
        <time>2013-07-30T10:08:52Z</time>
      </trkpt>
      <trkpt lat="42.636365" lon="1.244295">
        <ele>1358.8</ele>
        <time>2013-07-30T10:09:04Z</time>
      </trkpt>
      <trkpt lat="42.636432" lon="1.244390">
        <ele>1354.5</ele>
        <time>2013-07-30T10:09:16Z</time>
      </trkpt>
      <trkpt lat="42.636497" lon="1.244409">
        <ele>1351.7</ele>
        <time>2013-07-30T10:09:30Z</time>
      </trkpt>
      <trkpt lat="42.636506" lon="1.244434">
        <ele>1350.6</ele>
        <time>2013-07-30T10:09:35Z</time>
      </trkpt>
      <trkpt lat="42.636507" lon="1.244430">
        <ele>1350.6</ele>
        <time>2013-07-30T10:09:36Z</time>
      </trkpt>
      <trkpt lat="42.636509" lon="1.244445">
        <ele>1350.1</ele>
        <time>2013-07-30T10:09:47Z</time>
      </trkpt>
      <trkpt lat="42.636549" lon="1.244564">
        <ele>1344.8</ele>
        <time>2013-07-30T10:10:01Z</time>
      </trkpt>
      <trkpt lat="42.636571" lon="1.244599">
        <ele>1342.9</ele>
        <time>2013-07-30T10:10:14Z</time>
      </trkpt>
      <trkpt lat="42.636571" lon="1.244599">
        <ele>1342.9</ele>
        <time>2013-07-30T10:10:32Z</time>
      </trkpt>
      <trkpt lat="42.636601" lon="1.244676">
        <ele>1339.1</ele>
        <time>2013-07-30T10:10:59Z</time>
      </trkpt>
      <trkpt lat="42.636650" lon="1.244797">
        <ele>1334.4</ele>
        <time>2013-07-30T10:11:12Z</time>
      </trkpt>
      <trkpt lat="42.636616" lon="1.244915">
        <ele>1330.4</ele>
        <time>2013-07-30T10:11:23Z</time>
      </trkpt>
      <trkpt lat="42.636600" lon="1.244935">
        <ele>1329.9</ele>
        <time>2013-07-30T10:11:29Z</time>
      </trkpt>
      <trkpt lat="42.636622" lon="1.245058">
        <ele>1326.0</ele>
        <time>2013-07-30T10:11:42Z</time>
      </trkpt>
      <trkpt lat="42.636622" lon="1.245078">
        <ele>1325.4</ele>
        <time>2013-07-30T10:11:44Z</time>
      </trkpt>
      <trkpt lat="42.636620" lon="1.245104">
        <ele>1324.7</ele>
        <time>2013-07-30T10:11:47Z</time>
      </trkpt>
      <trkpt lat="42.636559" lon="1.245200">
        <ele>1322.2</ele>
        <time>2013-07-30T10:11:59Z</time>
      </trkpt>
      <trkpt lat="42.636582" lon="1.245259">
        <ele>1319.3</ele>
        <time>2013-07-30T10:12:12Z</time>
      </trkpt>
      <trkpt lat="42.636595" lon="1.245264">
        <ele>1318.8</ele>
        <time>2013-07-30T10:12:25Z</time>
      </trkpt>
      <trkpt lat="42.636630" lon="1.245281">
        <ele>1317.6</ele>
        <time>2013-07-30T10:12:30Z</time>
      </trkpt>
      <trkpt lat="42.636734" lon="1.245280">
        <ele>1316.5</ele>
        <time>2013-07-30T10:12:38Z</time>
      </trkpt>
      <trkpt lat="42.636775" lon="1.245270">
        <ele>1315.7</ele>
        <time>2013-07-30T10:12:42Z</time>
      </trkpt>
      <trkpt lat="42.636831" lon="1.245230">
        <ele>1314.3</ele>
        <time>2013-07-30T10:12:49Z</time>
      </trkpt>
      <trkpt lat="42.636849" lon="1.245210">
        <ele>1313.7</ele>
        <time>2013-07-30T10:13:01Z</time>
      </trkpt>
      <trkpt lat="42.636855" lon="1.245302">
        <ele>1310.6</ele>
        <time>2013-07-30T10:13:14Z</time>
      </trkpt>
      <trkpt lat="42.636851" lon="1.245312">
        <ele>1310.4</ele>
        <time>2013-07-30T10:13:27Z</time>
      </trkpt>
      <trkpt lat="42.636851" lon="1.245312">
        <ele>1310.4</ele>
        <time>2013-07-30T10:13:41Z</time>
      </trkpt>
      <trkpt lat="42.636868" lon="1.245369">
        <ele>1306.9</ele>
        <time>2013-07-30T10:13:53Z</time>
      </trkpt>
      <trkpt lat="42.636870" lon="1.245366">
        <ele>1306.9</ele>
        <time>2013-07-30T10:14:03Z</time>
      </trkpt>
      <trkpt lat="42.636870" lon="1.245366">
        <ele>1306.9</ele>
        <time>2013-07-30T10:14:07Z</time>
      </trkpt>
      <trkpt lat="42.636911" lon="1.245437">
        <ele>1301.3</ele>
        <time>2013-07-30T10:14:18Z</time>
      </trkpt>
      <trkpt lat="42.636947" lon="1.245492">
        <ele>1297.2</ele>
        <time>2013-07-30T10:14:24Z</time>
      </trkpt>
      <trkpt lat="42.636956" lon="1.245603">
        <ele>1292.9</ele>
        <time>2013-07-30T10:14:36Z</time>
      </trkpt>
      <trkpt lat="42.636964" lon="1.245683">
        <ele>1289.3</ele>
        <time>2013-07-30T10:14:46Z</time>
      </trkpt>
      <trkpt lat="42.636959" lon="1.245711">
        <ele>1288.1</ele>
        <time>2013-07-30T10:14:49Z</time>
      </trkpt>
      <trkpt lat="42.636957" lon="1.245717">
        <ele>1287.9</ele>
        <time>2013-07-30T10:14:51Z</time>
      </trkpt>
      <trkpt lat="42.636929" lon="1.245798">
        <ele>1284.6</ele>
        <time>2013-07-30T10:15:04Z</time>
      </trkpt>
      <trkpt lat="42.636887" lon="1.245883">
        <ele>1282.4</ele>
        <time>2013-07-30T10:15:10Z</time>
      </trkpt>
      <trkpt lat="42.636878" lon="1.245948">
        <ele>1280.8</ele>
        <time>2013-07-30T10:15:21Z</time>
      </trkpt>
      <trkpt lat="42.636992" lon="1.246021">
        <ele>1277.2</ele>
        <time>2013-07-30T10:15:37Z</time>
      </trkpt>
      <trkpt lat="42.637000" lon="1.246141">
        <ele>1273.1</ele>
        <time>2013-07-30T10:15:51Z</time>
      </trkpt>
      <trkpt lat="42.636966" lon="1.246180">
        <ele>1271.8</ele>
        <time>2013-07-30T10:15:57Z</time>
      </trkpt>
      <trkpt lat="42.636966" lon="1.246221">
        <ele>1270.4</ele>
        <time>2013-07-30T10:16:03Z</time>
      </trkpt>
      <trkpt lat="42.637032" lon="1.246296">
        <ele>1267.7</ele>
        <time>2013-07-30T10:16:17Z</time>
      </trkpt>
      <trkpt lat="42.637092" lon="1.246356">
        <ele>1264.4</ele>
        <time>2013-07-30T10:16:28Z</time>
      </trkpt>
      <trkpt lat="42.637147" lon="1.246454">
        <ele>1262.0</ele>
        <time>2013-07-30T10:16:39Z</time>
      </trkpt>
      <trkpt lat="42.637160" lon="1.246542">
        <ele>1259.5</ele>
        <time>2013-07-30T10:16:52Z</time>
      </trkpt>
      <trkpt lat="42.637143" lon="1.246624">
        <ele>1256.6</ele>
        <time>2013-07-30T10:17:05Z</time>
      </trkpt>
      <trkpt lat="42.637149" lon="1.246663">
        <ele>1255.3</ele>
        <time>2013-07-30T10:17:12Z</time>
      </trkpt>
      <trkpt lat="42.637154" lon="1.246688">
        <ele>1254.5</ele>
        <time>2013-07-30T10:17:16Z</time>
      </trkpt>
      <trkpt lat="42.637133" lon="1.246806">
        <ele>1251.3</ele>
        <time>2013-07-30T10:17:29Z</time>
      </trkpt>
      <trkpt lat="42.637107" lon="1.246940">
        <ele>1246.9</ele>
        <time>2013-07-30T10:17:42Z</time>
      </trkpt>
      <trkpt lat="42.637103" lon="1.247083">
        <ele>1243.3</ele>
        <time>2013-07-30T10:17:54Z</time>
      </trkpt>
      <trkpt lat="42.637118" lon="1.247128">
        <ele>1242.3</ele>
        <time>2013-07-30T10:17:58Z</time>
      </trkpt>
      <trkpt lat="42.637101" lon="1.247247">
        <ele>1238.8</ele>
        <time>2013-07-30T10:18:13Z</time>
      </trkpt>
      <trkpt lat="42.637075" lon="1.247243">
        <ele>1238.8</ele>
        <time>2013-07-30T10:18:15Z</time>
      </trkpt>
      <trkpt lat="42.636939" lon="1.247197">
        <ele>1237.1</ele>
        <time>2013-07-30T10:18:29Z</time>
      </trkpt>
      <trkpt lat="42.636884" lon="1.247231">
        <ele>1235.8</ele>
        <time>2013-07-30T10:18:35Z</time>
      </trkpt>
      <trkpt lat="42.636881" lon="1.247255">
        <ele>1235.6</ele>
        <time>2013-07-30T10:18:37Z</time>
      </trkpt>
      <trkpt lat="42.636968" lon="1.247406">
        <ele>1232.7</ele>
        <time>2013-07-30T10:18:50Z</time>
      </trkpt>
      <trkpt lat="42.637100" lon="1.247527">
        <ele>1230.3</ele>
        <time>2013-07-30T10:19:04Z</time>
      </trkpt>
      <trkpt lat="42.637238" lon="1.247628">
        <ele>1227.8</ele>
        <time>2013-07-30T10:19:19Z</time>
      </trkpt>
      <trkpt lat="42.637388" lon="1.247729">
        <ele>1223.7</ele>
        <time>2013-07-30T10:19:33Z</time>
      </trkpt>
      <trkpt lat="42.637407" lon="1.247750">
        <ele>1223.3</ele>
        <time>2013-07-30T10:19:35Z</time>
      </trkpt>
      <trkpt lat="42.637473" lon="1.247788">
        <ele>1222.4</ele>
        <time>2013-07-30T10:19:41Z</time>
      </trkpt>
      <trkpt lat="42.637520" lon="1.247813">
        <ele>1222.0</ele>
        <time>2013-07-30T10:19:45Z</time>
      </trkpt>
      <trkpt lat="42.637642" lon="1.247929">
        <ele>1220.2</ele>
        <time>2013-07-30T10:19:56Z</time>
      </trkpt>
      <trkpt lat="42.637614" lon="1.247998">
        <ele>1219.5</ele>
        <time>2013-07-30T10:20:00Z</time>
      </trkpt>
      <trkpt lat="42.637459" lon="1.247955">
        <ele>1217.5</ele>
        <time>2013-07-30T10:20:15Z</time>
      </trkpt>
      <trkpt lat="42.637391" lon="1.247930">
        <ele>1217.2</ele>
        <time>2013-07-30T10:20:20Z</time>
      </trkpt>
      <trkpt lat="42.637322" lon="1.247956">
        <ele>1216.0</ele>
        <time>2013-07-30T10:20:25Z</time>
      </trkpt>
      <trkpt lat="42.637179" lon="1.248111">
        <ele>1213.0</ele>
        <time>2013-07-30T10:20:40Z</time>
      </trkpt>
      <trkpt lat="42.637301" lon="1.248244">
        <ele>1209.0</ele>
        <time>2013-07-30T10:20:56Z</time>
      </trkpt>
      <trkpt lat="42.637314" lon="1.248264">
        <ele>1208.6</ele>
        <time>2013-07-30T10:20:58Z</time>
      </trkpt>
      <trkpt lat="42.637444" lon="1.248364">
        <ele>1209.3</ele>
        <time>2013-07-30T10:21:09Z</time>
      </trkpt>
      <trkpt lat="42.637568" lon="1.248465">
        <ele>1209.6</ele>
        <time>2013-07-30T10:21:21Z</time>
      </trkpt>
      <trkpt lat="42.637666" lon="1.248548">
        <ele>1211.3</ele>
        <time>2013-07-30T10:21:34Z</time>
      </trkpt>
      <trkpt lat="42.637730" lon="1.248518">
        <ele>1212.2</ele>
        <time>2013-07-30T10:21:41Z</time>
      </trkpt>
      <trkpt lat="42.637784" lon="1.248514">
        <ele>1213.3</ele>
        <time>2013-07-30T10:21:53Z</time>
      </trkpt>
      <trkpt lat="42.637831" lon="1.248584">
        <ele>1215.1</ele>
        <time>2013-07-30T10:36:27Z</time>
      </trkpt>
      <trkpt lat="42.637857" lon="1.248736">
        <ele>1214.5</ele>
        <time>2013-07-30T10:36:39Z</time>
      </trkpt>
      <trkpt lat="42.637862" lon="1.248754">
        <ele>1214.6</ele>
        <time>2013-07-30T10:37:00Z</time>
      </trkpt>
      <trkpt lat="42.637861" lon="1.248779">
        <ele>1214.4</ele>
        <time>2013-07-30T10:37:16Z</time>
      </trkpt>
      <trkpt lat="42.637860" lon="1.248796">
        <ele>1214.3</ele>
        <time>2013-07-30T10:37:24Z</time>
      </trkpt>
      <trkpt lat="42.637913" lon="1.248963">
        <ele>1214.1</ele>
        <time>2013-07-30T10:37:38Z</time>
      </trkpt>
      <trkpt lat="42.637912" lon="1.249041">
        <ele>1213.6</ele>
        <time>2013-07-30T10:37:42Z</time>
      </trkpt>
      <trkpt lat="42.637887" lon="1.249121">
        <ele>1214.0</ele>
        <time>2013-07-30T10:37:55Z</time>
      </trkpt>
      <trkpt lat="42.637864" lon="1.249119">
        <ele>1213.8</ele>
        <time>2013-07-30T10:38:12Z</time>
      </trkpt>
      <trkpt lat="42.637863" lon="1.249121">
        <ele>1213.8</ele>
        <time>2013-07-30T10:38:44Z</time>
      </trkpt>
      <trkpt lat="42.637872" lon="1.249128">
        <ele>1213.9</ele>
        <time>2013-07-30T10:39:16Z</time>
      </trkpt>
      <trkpt lat="42.637881" lon="1.249135">
        <ele>1214.0</ele>
        <time>2013-07-30T10:39:17Z</time>
      </trkpt>
      <trkpt lat="42.637922" lon="1.249204">
        <ele>1214.8</ele>
        <time>2013-07-30T10:39:29Z</time>
      </trkpt>
      <trkpt lat="42.637922" lon="1.249204">
        <ele>1214.8</ele>
        <time>2013-07-30T10:39:54Z</time>
      </trkpt>
      <trkpt lat="42.637924" lon="1.249239">
        <ele>1215.3</ele>
        <time>2013-07-30T10:40:08Z</time>
      </trkpt>
      <trkpt lat="42.637893" lon="1.249352">
        <ele>1214.5</ele>
        <time>2013-07-30T10:40:13Z</time>
      </trkpt>
      <trkpt lat="42.637872" lon="1.249421">
        <ele>1213.5</ele>
        <time>2013-07-30T10:40:20Z</time>
      </trkpt>
      <trkpt lat="42.637896" lon="1.249515">
        <ele>1212.4</ele>
        <time>2013-07-30T10:40:28Z</time>
      </trkpt>
      <trkpt lat="42.637888" lon="1.249542">
        <ele>1211.9</ele>
        <time>2013-07-30T10:40:30Z</time>
      </trkpt>
      <trkpt lat="42.637875" lon="1.249556">
        <ele>1211.4</ele>
        <time>2013-07-30T10:40:46Z</time>
      </trkpt>
      <trkpt lat="42.637876" lon="1.249560">
        <ele>1211.4</ele>
        <time>2013-07-30T10:41:16Z</time>
      </trkpt>
      <trkpt lat="42.637830" lon="1.249578">
        <ele>1210.6</ele>
        <time>2013-07-30T10:41:20Z</time>
      </trkpt>
      <trkpt lat="42.637806" lon="1.249585">
        <ele>1210.2</ele>
        <time>2013-07-30T10:41:35Z</time>
      </trkpt>
      <trkpt lat="42.637822" lon="1.249634">
        <ele>1207.8</ele>
        <time>2013-07-30T10:41:44Z</time>
      </trkpt>
      <trkpt lat="42.637949" lon="1.249690">
        <ele>1203.9</ele>
        <time>2013-07-30T10:41:59Z</time>
      </trkpt>
      <trkpt lat="42.638099" lon="1.249730">
        <ele>1200.0</ele>
        <time>2013-07-30T10:42:14Z</time>
      </trkpt>
      <trkpt lat="42.638215" lon="1.249751">
        <ele>1198.0</ele>
        <time>2013-07-30T10:42:24Z</time>
      </trkpt>
      <trkpt lat="42.638264" lon="1.249790">
        <ele>1195.3</ele>
        <time>2013-07-30T10:42:29Z</time>
      </trkpt>
      <trkpt lat="42.638310" lon="1.249824">
        <ele>1194.5</ele>
        <time>2013-07-30T10:42:33Z</time>
      </trkpt>
      <trkpt lat="42.638445" lon="1.249875">
        <ele>1192.8</ele>
        <time>2013-07-30T10:42:44Z</time>
      </trkpt>
      <trkpt lat="42.638482" lon="1.249895">
        <ele>1192.6</ele>
        <time>2013-07-30T10:42:57Z</time>
      </trkpt>
      <trkpt lat="42.638483" lon="1.249897">
        <ele>1192.5</ele>
        <time>2013-07-30T10:43:31Z</time>
      </trkpt>
      <trkpt lat="42.638518" lon="1.249904">
        <ele>1192.2</ele>
        <time>2013-07-30T10:43:58Z</time>
      </trkpt>
      <trkpt lat="42.638600" lon="1.249956">
        <ele>1188.2</ele>
        <time>2013-07-30T10:44:06Z</time>
      </trkpt>
      <trkpt lat="42.638629" lon="1.249975">
        <ele>1187.6</ele>
        <time>2013-07-30T10:44:10Z</time>
      </trkpt>
      <trkpt lat="42.638656" lon="1.249996">
        <ele>1187.5</ele>
        <time>2013-07-30T10:44:14Z</time>
      </trkpt>
      <trkpt lat="42.638710" lon="1.250022">
        <ele>1187.0</ele>
        <time>2013-07-30T10:44:18Z</time>
      </trkpt>
      <trkpt lat="42.638848" lon="1.250140">
        <ele>1184.8</ele>
        <time>2013-07-30T10:44:31Z</time>
      </trkpt>
      <trkpt lat="42.638910" lon="1.250207">
        <ele>1182.3</ele>
        <time>2013-07-30T10:44:36Z</time>
      </trkpt>
      <trkpt lat="42.638920" lon="1.250223">
        <ele>1181.8</ele>
        <time>2013-07-30T10:44:37Z</time>
      </trkpt>
      <trkpt lat="42.638960" lon="1.250244">
        <ele>1180.6</ele>
        <time>2013-07-30T10:44:41Z</time>
      </trkpt>
      <trkpt lat="42.639035" lon="1.250238">
        <ele>1180.4</ele>
        <time>2013-07-30T10:44:47Z</time>
      </trkpt>
      <trkpt lat="42.639109" lon="1.250340">
        <ele>1176.4</ele>
        <time>2013-07-30T10:44:55Z</time>
      </trkpt>
      <trkpt lat="42.639199" lon="1.250454">
        <ele>1175.0</ele>
        <time>2013-07-30T10:45:04Z</time>
      </trkpt>
      <trkpt lat="42.639225" lon="1.250471">
        <ele>1175.2</ele>
        <time>2013-07-30T10:45:06Z</time>
      </trkpt>
      <trkpt lat="42.639251" lon="1.250503">
        <ele>1174.3</ele>
        <time>2013-07-30T10:45:09Z</time>
      </trkpt>
      <trkpt lat="42.639397" lon="1.250591">
        <ele>1171.7</ele>
        <time>2013-07-30T10:45:23Z</time>
      </trkpt>
      <trkpt lat="42.639517" lon="1.250655">
        <ele>1172.8</ele>
        <time>2013-07-30T10:45:33Z</time>
      </trkpt>
      <trkpt lat="42.639667" lon="1.250687">
        <ele>1172.5</ele>
        <time>2013-07-30T10:45:46Z</time>
      </trkpt>
      <trkpt lat="42.639683" lon="1.250699">
        <ele>1171.4</ele>
        <time>2013-07-30T10:45:48Z</time>
      </trkpt>
      <trkpt lat="42.639797" lon="1.250816">
        <ele>1170.4</ele>
        <time>2013-07-30T10:45:58Z</time>
      </trkpt>
      <trkpt lat="42.639893" lon="1.250923">
        <ele>1168.2</ele>
        <time>2013-07-30T10:46:10Z</time>
      </trkpt>
      <trkpt lat="42.640061" lon="1.250944">
        <ele>1168.5</ele>
        <time>2013-07-30T10:46:23Z</time>
      </trkpt>
      <trkpt lat="42.640167" lon="1.250960">
        <ele>1166.5</ele>
        <time>2013-07-30T10:46:32Z</time>
      </trkpt>
      <trkpt lat="42.640277" lon="1.251124">
        <ele>1163.8</ele>
        <time>2013-07-30T10:46:46Z</time>
      </trkpt>
      <trkpt lat="42.640344" lon="1.251198">
        <ele>1168.7</ele>
        <time>2013-07-30T10:46:55Z</time>
      </trkpt>
      <trkpt lat="42.640386" lon="1.251230">
        <ele>1169.0</ele>
        <time>2013-07-30T10:46:58Z</time>
      </trkpt>
      <trkpt lat="42.640431" lon="1.251271">
        <ele>1168.2</ele>
        <time>2013-07-30T10:47:02Z</time>
      </trkpt>
      <trkpt lat="42.640601" lon="1.251358">
        <ele>1169.1</ele>
        <time>2013-07-30T10:47:15Z</time>
      </trkpt>
      <trkpt lat="42.640615" lon="1.251363">
        <ele>1169.1</ele>
        <time>2013-07-30T10:47:16Z</time>
      </trkpt>
      <trkpt lat="42.640762" lon="1.251504">
        <ele>1166.4</ele>
        <time>2013-07-30T10:47:31Z</time>
      </trkpt>
      <trkpt lat="42.640810" lon="1.251555">
        <ele>1166.1</ele>
        <time>2013-07-30T10:47:36Z</time>
      </trkpt>
      <trkpt lat="42.640826" lon="1.251575">
        <ele>1165.8</ele>
        <time>2013-07-30T10:47:38Z</time>
      </trkpt>
      <trkpt lat="42.640890" lon="1.251617">
        <ele>1166.1</ele>
        <time>2013-07-30T10:47:43Z</time>
      </trkpt>
      <trkpt lat="42.640919" lon="1.251639">
        <ele>1166.1</ele>
        <time>2013-07-30T10:47:45Z</time>
      </trkpt>
      <trkpt lat="42.641006" lon="1.251782">
        <ele>1163.2</ele>
        <time>2013-07-30T10:47:54Z</time>
      </trkpt>
      <trkpt lat="42.641129" lon="1.251960">
        <ele>1161.1</ele>
        <time>2013-07-30T10:48:08Z</time>
      </trkpt>
      <trkpt lat="42.641255" lon="1.252032">
        <ele>1162.4</ele>
        <time>2013-07-30T10:48:19Z</time>
      </trkpt>
      <trkpt lat="42.641386" lon="1.252123">
        <ele>1162.5</ele>
        <time>2013-07-30T10:48:31Z</time>
      </trkpt>
      <trkpt lat="42.641397" lon="1.252129">
        <ele>1162.6</ele>
        <time>2013-07-30T10:48:32Z</time>
      </trkpt>
      <trkpt lat="42.641462" lon="1.252180">
        <ele>1162.0</ele>
        <time>2013-07-30T10:48:40Z</time>
      </trkpt>
      <trkpt lat="42.641620" lon="1.252278">
        <ele>1162.4</ele>
        <time>2013-07-30T10:48:54Z</time>
      </trkpt>
      <trkpt lat="42.641656" lon="1.252298">
        <ele>1162.6</ele>
        <time>2013-07-30T10:48:58Z</time>
      </trkpt>
      <trkpt lat="42.641727" lon="1.252331">
        <ele>1162.9</ele>
        <time>2013-07-30T10:49:05Z</time>
      </trkpt>
      <trkpt lat="42.641853" lon="1.252335">
        <ele>1163.5</ele>
        <time>2013-07-30T10:49:20Z</time>
      </trkpt>
      <trkpt lat="42.641989" lon="1.252352">
        <ele>1159.5</ele>
        <time>2013-07-30T10:49:32Z</time>
      </trkpt>
      <trkpt lat="42.642171" lon="1.252421">
        <ele>1159.4</ele>
        <time>2013-07-30T10:49:45Z</time>
      </trkpt>
      <trkpt lat="42.642254" lon="1.252474">
        <ele>1158.9</ele>
        <time>2013-07-30T10:49:53Z</time>
      </trkpt>
      <trkpt lat="42.642379" lon="1.252589">
        <ele>1158.5</ele>
        <time>2013-07-30T10:50:05Z</time>
      </trkpt>
      <trkpt lat="42.642406" lon="1.252598">
        <ele>1158.7</ele>
        <time>2013-07-30T10:50:07Z</time>
      </trkpt>
      <trkpt lat="42.642497" lon="1.252647">
        <ele>1158.1</ele>
        <time>2013-07-30T10:50:13Z</time>
      </trkpt>
      <trkpt lat="42.642641" lon="1.252814">
        <ele>1157.6</ele>
        <time>2013-07-30T10:50:26Z</time>
      </trkpt>
      <trkpt lat="42.642660" lon="1.252833">
        <ele>1157.6</ele>
        <time>2013-07-30T10:50:28Z</time>
      </trkpt>
      <trkpt lat="42.642680" lon="1.252840">
        <ele>1157.9</ele>
        <time>2013-07-30T10:50:30Z</time>
      </trkpt>
      <trkpt lat="42.642805" lon="1.252937">
        <ele>1156.4</ele>
        <time>2013-07-30T10:50:44Z</time>
      </trkpt>
      <trkpt lat="42.642817" lon="1.252983">
        <ele>1154.5</ele>
        <time>2013-07-30T10:50:47Z</time>
      </trkpt>
      <trkpt lat="42.642867" lon="1.253189">
        <ele>1150.8</ele>
        <time>2013-07-30T10:51:01Z</time>
      </trkpt>
      <trkpt lat="42.642901" lon="1.253221">
        <ele>1149.9</ele>
        <time>2013-07-30T10:51:05Z</time>
      </trkpt>
      <trkpt lat="42.642935" lon="1.253252">
        <ele>1148.4</ele>
        <time>2013-07-30T10:51:09Z</time>
      </trkpt>
      <trkpt lat="42.643036" lon="1.253368">
        <ele>1146.8</ele>
        <time>2013-07-30T10:51:23Z</time>
      </trkpt>
      <trkpt lat="42.643155" lon="1.253477">
        <ele>1144.5</ele>
        <time>2013-07-30T10:51:36Z</time>
      </trkpt>
      <trkpt lat="42.643195" lon="1.253553">
        <ele>1143.0</ele>
        <time>2013-07-30T10:51:41Z</time>
      </trkpt>
      <trkpt lat="42.643246" lon="1.253706">
        <ele>1140.4</ele>
        <time>2013-07-30T10:51:54Z</time>
      </trkpt>
      <trkpt lat="42.643259" lon="1.253724">
        <ele>1140.6</ele>
        <time>2013-07-30T10:52:09Z</time>
      </trkpt>
      <trkpt lat="42.643259" lon="1.253724">
        <ele>1140.6</ele>
        <time>2013-07-30T10:52:31Z</time>
      </trkpt>
      <trkpt lat="42.643385" lon="1.253891">
        <ele>1140.5</ele>
        <time>2013-07-30T10:52:44Z</time>
      </trkpt>
      <trkpt lat="42.643443" lon="1.253981">
        <ele>1138.2</ele>
        <time>2013-07-30T10:52:52Z</time>
      </trkpt>
      <trkpt lat="42.643477" lon="1.254065">
        <ele>1137.0</ele>
        <time>2013-07-30T10:52:57Z</time>
      </trkpt>
      <trkpt lat="42.643475" lon="1.254333">
        <ele>1133.4</ele>
        <time>2013-07-30T10:53:12Z</time>
      </trkpt>
      <trkpt lat="42.643472" lon="1.254579">
        <ele>1130.6</ele>
        <time>2013-07-30T10:53:27Z</time>
      </trkpt>
      <trkpt lat="42.643510" lon="1.254773">
        <ele>1129.4</ele>
        <time>2013-07-30T10:53:40Z</time>
      </trkpt>
      <trkpt lat="42.643561" lon="1.255000">
        <ele>1130.1</ele>
        <time>2013-07-30T10:53:54Z</time>
      </trkpt>
      <trkpt lat="42.643604" lon="1.255200">
        <ele>1131.3</ele>
        <time>2013-07-30T10:54:07Z</time>
      </trkpt>
      <trkpt lat="42.643634" lon="1.255249">
        <ele>1132.2</ele>
        <time>2013-07-30T10:54:21Z</time>
      </trkpt>
      <trkpt lat="42.643661" lon="1.255304">
        <ele>1132.6</ele>
        <time>2013-07-30T10:54:37Z</time>
      </trkpt>
      <trkpt lat="42.643680" lon="1.255320">
        <ele>1133.0</ele>
        <time>2013-07-30T10:54:42Z</time>
      </trkpt>
      <trkpt lat="42.643718" lon="1.255433">
        <ele>1133.3</ele>
        <time>2013-07-30T10:54:51Z</time>
      </trkpt>
      <trkpt lat="42.643687" lon="1.255664">
        <ele>1128.3</ele>
        <time>2013-07-30T10:55:04Z</time>
      </trkpt>
      <trkpt lat="42.643737" lon="1.255826">
        <ele>1126.9</ele>
        <time>2013-07-30T10:55:19Z</time>
      </trkpt>
      <trkpt lat="42.643740" lon="1.255849">
        <ele>1126.8</ele>
        <time>2013-07-30T10:55:36Z</time>
      </trkpt>
      <trkpt lat="42.643750" lon="1.255873">
        <ele>1126.9</ele>
        <time>2013-07-30T10:55:51Z</time>
      </trkpt>
      <trkpt lat="42.643762" lon="1.255940">
        <ele>1126.6</ele>
        <time>2013-07-30T10:56:02Z</time>
      </trkpt>
      <trkpt lat="42.643790" lon="1.255996">
        <ele>1126.6</ele>
        <time>2013-07-30T10:56:17Z</time>
      </trkpt>
      <trkpt lat="42.643803" lon="1.256075">
        <ele>1125.4</ele>
        <time>2013-07-30T10:56:28Z</time>
      </trkpt>
      <trkpt lat="42.643821" lon="1.256147">
        <ele>1124.6</ele>
        <time>2013-07-30T10:56:32Z</time>
      </trkpt>
      <trkpt lat="42.643833" lon="1.256190">
        <ele>1123.9</ele>
        <time>2013-07-30T10:56:34Z</time>
      </trkpt>
      <trkpt lat="42.643949" lon="1.256463">
        <ele>1116.4</ele>
        <time>2013-07-30T10:56:50Z</time>
      </trkpt>
      <trkpt lat="42.643984" lon="1.256522">
        <ele>1115.5</ele>
        <time>2013-07-30T10:56:55Z</time>
      </trkpt>
      <trkpt lat="42.644038" lon="1.256563">
        <ele>1114.7</ele>
        <time>2013-07-30T10:57:00Z</time>
      </trkpt>
      <trkpt lat="42.644097" lon="1.256583">
        <ele>1114.2</ele>
        <time>2013-07-30T10:57:09Z</time>
      </trkpt>
      <trkpt lat="42.644138" lon="1.256581">
        <ele>1113.3</ele>
        <time>2013-07-30T10:57:18Z</time>
      </trkpt>
      <trkpt lat="42.644155" lon="1.256554">
        <ele>1113.5</ele>
        <time>2013-07-30T10:57:33Z</time>
      </trkpt>
      <trkpt lat="42.644157" lon="1.256550">
        <ele>1113.6</ele>
        <time>2013-07-30T10:57:58Z</time>
      </trkpt>
      <trkpt lat="42.644155" lon="1.256554">
        <ele>1113.5</ele>
        <time>2013-07-30T10:58:02Z</time>
      </trkpt>
      <trkpt lat="42.644182" lon="1.256531">
        <ele>1112.8</ele>
        <time>2013-07-30T10:58:05Z</time>
      </trkpt>
      <trkpt lat="42.644202" lon="1.256528">
        <ele>1111.5</ele>
        <time>2013-07-30T10:58:08Z</time>
      </trkpt>
      <trkpt lat="42.644293" lon="1.256572">
        <ele>1108.6</ele>
        <time>2013-07-30T10:58:19Z</time>
      </trkpt>
      <trkpt lat="42.644339" lon="1.256682">
        <ele>1112.4</ele>
        <time>2013-07-30T11:01:01Z</time>
      </trkpt>
      <trkpt lat="42.644292" lon="1.256721">
        <ele>1110.5</ele>
        <time>2013-07-30T11:01:06Z</time>
      </trkpt>
      <trkpt lat="42.644189" lon="1.257009">
        <ele>1111.9</ele>
        <time>2013-07-30T11:01:20Z</time>
      </trkpt>
      <trkpt lat="42.644182" lon="1.257021">
        <ele>1111.7</ele>
        <time>2013-07-30T11:01:21Z</time>
      </trkpt>
      <trkpt lat="42.644138" lon="1.257129">
        <ele>1110.4</ele>
        <time>2013-07-30T11:01:35Z</time>
      </trkpt>
      <trkpt lat="42.644138" lon="1.257129">
        <ele>1110.4</ele>
        <time>2013-07-30T11:01:57Z</time>
      </trkpt>
      <trkpt lat="42.644138" lon="1.257129">
        <ele>1110.4</ele>
        <time>2013-07-30T11:02:17Z</time>
      </trkpt>
      <trkpt lat="42.644123" lon="1.257173">
        <ele>1109.9</ele>
        <time>2013-07-30T11:02:27Z</time>
      </trkpt>
      <trkpt lat="42.644123" lon="1.257173">
        <ele>1109.9</ele>
        <time>2013-07-30T11:02:42Z</time>
      </trkpt>
      <trkpt lat="42.644087" lon="1.257195">
        <ele>1109.2</ele>
        <time>2013-07-30T11:02:57Z</time>
      </trkpt>
      <trkpt lat="42.644108" lon="1.257223">
        <ele>1109.8</ele>
        <time>2013-07-30T13:12:31Z</time>
      </trkpt>
      <trkpt lat="42.644161" lon="1.257274">
        <ele>1110.1</ele>
        <time>2013-07-30T13:12:38Z</time>
      </trkpt>
      <trkpt lat="42.644136" lon="1.257379">
        <ele>1109.3</ele>
        <time>2013-07-30T13:12:47Z</time>
      </trkpt>
      <trkpt lat="42.644068" lon="1.257483">
        <ele>1104.8</ele>
        <time>2013-07-30T13:12:57Z</time>
      </trkpt>
      <trkpt lat="42.644087" lon="1.257609">
        <ele>1107.9</ele>
        <time>2013-07-30T13:13:11Z</time>
      </trkpt>
      <trkpt lat="42.644117" lon="1.257705">
        <ele>1109.6</ele>
        <time>2013-07-30T13:13:21Z</time>
      </trkpt>
      <trkpt lat="42.644166" lon="1.257831">
        <ele>1111.2</ele>
        <time>2013-07-30T13:13:32Z</time>
      </trkpt>
      <trkpt lat="42.644154" lon="1.257893">
        <ele>1113.2</ele>
        <time>2013-07-30T13:13:43Z</time>
      </trkpt>
      <trkpt lat="42.644152" lon="1.257937">
        <ele>1114.4</ele>
        <time>2013-07-30T13:13:49Z</time>
      </trkpt>
      <trkpt lat="42.644162" lon="1.258024">
        <ele>1116.0</ele>
        <time>2013-07-30T13:14:01Z</time>
      </trkpt>
      <trkpt lat="42.644170" lon="1.258054">
        <ele>1116.5</ele>
        <time>2013-07-30T13:14:05Z</time>
      </trkpt>
      <trkpt lat="42.644167" lon="1.258121">
        <ele>1118.4</ele>
        <time>2013-07-30T13:14:17Z</time>
      </trkpt>
      <trkpt lat="42.644132" lon="1.258134">
        <ele>1119.7</ele>
        <time>2013-07-30T13:14:31Z</time>
      </trkpt>
      <trkpt lat="42.644142" lon="1.258192">
        <ele>1121.5</ele>
        <time>2013-07-30T13:14:42Z</time>
      </trkpt>
      <trkpt lat="42.644163" lon="1.258283">
        <ele>1124.4</ele>
        <time>2013-07-30T13:14:54Z</time>
      </trkpt>
      <trkpt lat="42.644192" lon="1.258336">
        <ele>1125.8</ele>
        <time>2013-07-30T13:15:04Z</time>
      </trkpt>
      <trkpt lat="42.644196" lon="1.258389">
        <ele>1127.6</ele>
        <time>2013-07-30T13:15:14Z</time>
      </trkpt>
      <trkpt lat="42.644211" lon="1.258441">
        <ele>1128.2</ele>
        <time>2013-07-30T13:15:23Z</time>
      </trkpt>
      <trkpt lat="42.644215" lon="1.258461">
        <ele>1128.6</ele>
        <time>2013-07-30T13:15:34Z</time>
      </trkpt>
      <trkpt lat="42.644214" lon="1.258480">
        <ele>1129.2</ele>
        <time>2013-07-30T13:15:51Z</time>
      </trkpt>
      <trkpt lat="42.644199" lon="1.258552">
        <ele>1131.9</ele>
        <time>2013-07-30T13:16:03Z</time>
      </trkpt>
      <trkpt lat="42.644181" lon="1.258619">
        <ele>1134.3</ele>
        <time>2013-07-30T13:16:13Z</time>
      </trkpt>
      <trkpt lat="42.644164" lon="1.258712">
        <ele>1136.9</ele>
        <time>2013-07-30T13:16:24Z</time>
      </trkpt>
      <trkpt lat="42.644192" lon="1.258834">
        <ele>1139.8</ele>
        <time>2013-07-30T13:16:38Z</time>
      </trkpt>
      <trkpt lat="42.644202" lon="1.258921">
        <ele>1142.8</ele>
        <time>2013-07-30T13:16:47Z</time>
      </trkpt>
      <trkpt lat="42.644214" lon="1.258973">
        <ele>1143.9</ele>
        <time>2013-07-30T13:16:57Z</time>
      </trkpt>
      <trkpt lat="42.644207" lon="1.259028">
        <ele>1145.9</ele>
        <time>2013-07-30T13:17:07Z</time>
      </trkpt>
      <trkpt lat="42.644235" lon="1.259091">
        <ele>1147.2</ele>
        <time>2013-07-30T13:17:17Z</time>
      </trkpt>
      <trkpt lat="42.644245" lon="1.259145">
        <ele>1148.6</ele>
        <time>2013-07-30T13:17:27Z</time>
      </trkpt>
      <trkpt lat="42.644191" lon="1.259150">
        <ele>1149.8</ele>
        <time>2013-07-30T13:17:38Z</time>
      </trkpt>
      <trkpt lat="42.644151" lon="1.259159">
        <ele>1151.6</ele>
        <time>2013-07-30T13:17:49Z</time>
      </trkpt>
      <trkpt lat="42.644148" lon="1.259202">
        <ele>1153.2</ele>
        <time>2013-07-30T13:18:01Z</time>
      </trkpt>
      <trkpt lat="42.644153" lon="1.259220">
        <ele>1153.6</ele>
        <time>2013-07-30T13:18:19Z</time>
      </trkpt>
      <trkpt lat="42.644163" lon="1.259276">
        <ele>1155.7</ele>
        <time>2013-07-30T13:18:31Z</time>
      </trkpt>
      <trkpt lat="42.644165" lon="1.259305">
        <ele>1156.9</ele>
        <time>2013-07-30T13:18:43Z</time>
      </trkpt>
      <trkpt lat="42.644161" lon="1.259342">
        <ele>1158.6</ele>
        <time>2013-07-30T13:18:56Z</time>
      </trkpt>
      <trkpt lat="42.644187" lon="1.259403">
        <ele>1160.1</ele>
        <time>2013-07-30T13:19:13Z</time>
      </trkpt>
      <trkpt lat="42.644184" lon="1.259446">
        <ele>1162.0</ele>
        <time>2013-07-30T13:19:26Z</time>
      </trkpt>
      <trkpt lat="42.644182" lon="1.259481">
        <ele>1163.5</ele>
        <time>2013-07-30T13:19:39Z</time>
      </trkpt>
      <trkpt lat="42.644166" lon="1.259485">
        <ele>1164.4</ele>
        <time>2013-07-30T13:19:56Z</time>
      </trkpt>
      <trkpt lat="42.644121" lon="1.259497">
        <ele>1166.2</ele>
        <time>2013-07-30T13:20:11Z</time>
      </trkpt>
      <trkpt lat="42.644084" lon="1.259482">
        <ele>1166.6</ele>
        <time>2013-07-30T13:20:37Z</time>
      </trkpt>
      <trkpt lat="42.644065" lon="1.259482">
        <ele>1167.2</ele>
        <time>2013-07-30T13:20:51Z</time>
      </trkpt>
      <trkpt lat="42.644044" lon="1.259477">
        <ele>1167.7</ele>
        <time>2013-07-30T13:21:09Z</time>
      </trkpt>
      <trkpt lat="42.644012" lon="1.259460">
        <ele>1168.9</ele>
        <time>2013-07-30T13:21:24Z</time>
      </trkpt>
      <trkpt lat="42.643990" lon="1.259444">
        <ele>1169.7</ele>
        <time>2013-07-30T13:21:43Z</time>
      </trkpt>
      <trkpt lat="42.643934" lon="1.259392">
        <ele>1171.0</ele>
        <time>2013-07-30T13:22:01Z</time>
      </trkpt>
      <trkpt lat="42.643900" lon="1.259369">
        <ele>1172.1</ele>
        <time>2013-07-30T13:22:23Z</time>
      </trkpt>
      <trkpt lat="42.643902" lon="1.259370">
        <ele>1172.0</ele>
        <time>2013-07-30T13:22:43Z</time>
      </trkpt>
      <trkpt lat="42.643880" lon="1.259354">
        <ele>1172.4</ele>
        <time>2013-07-30T13:22:56Z</time>
      </trkpt>
      <trkpt lat="42.643856" lon="1.259333">
        <ele>1172.7</ele>
        <time>2013-07-30T13:23:24Z</time>
      </trkpt>
      <trkpt lat="42.643845" lon="1.259322">
        <ele>1172.8</ele>
        <time>2013-07-30T13:23:49Z</time>
      </trkpt>
      <trkpt lat="42.643785" lon="1.259287">
        <ele>1174.1</ele>
        <time>2013-07-30T13:24:10Z</time>
      </trkpt>
      <trkpt lat="42.643692" lon="1.259245">
        <ele>1177.3</ele>
        <time>2013-07-30T13:24:29Z</time>
      </trkpt>
      <trkpt lat="42.643624" lon="1.259185">
        <ele>1178.3</ele>
        <time>2013-07-30T13:24:44Z</time>
      </trkpt>
      <trkpt lat="42.643547" lon="1.259148">
        <ele>1180.8</ele>
        <time>2013-07-30T13:24:58Z</time>
      </trkpt>
      <trkpt lat="42.643401" lon="1.259101">
        <ele>1188.1</ele>
        <time>2013-07-30T13:30:21Z</time>
      </trkpt>
      <trkpt lat="42.643356" lon="1.259057">
        <ele>1188.9</ele>
        <time>2013-07-30T13:30:32Z</time>
      </trkpt>
      <trkpt lat="42.643350" lon="1.259049">
        <ele>1189.0</ele>
        <time>2013-07-30T13:30:45Z</time>
      </trkpt>
      <trkpt lat="42.643350" lon="1.259049">
        <ele>1189.0</ele>
        <time>2013-07-30T13:31:00Z</time>
      </trkpt>
      <trkpt lat="42.643338" lon="1.259052">
        <ele>1189.9</ele>
        <time>2013-07-30T13:31:14Z</time>
      </trkpt>
      <trkpt lat="42.643261" lon="1.259033">
        <ele>1194.3</ele>
        <time>2013-07-30T13:31:26Z</time>
      </trkpt>
      <trkpt lat="42.643176" lon="1.259030">
        <ele>1199.3</ele>
        <time>2013-07-30T13:31:40Z</time>
      </trkpt>
      <trkpt lat="42.643139" lon="1.259027">
        <ele>1200.9</ele>
        <time>2013-07-30T13:31:54Z</time>
      </trkpt>
      <trkpt lat="42.643015" lon="1.259013">
        <ele>1205.2</ele>
        <time>2013-07-30T13:32:08Z</time>
      </trkpt>
      <trkpt lat="42.642880" lon="1.258986">
        <ele>1210.5</ele>
        <time>2013-07-30T13:32:20Z</time>
      </trkpt>
      <trkpt lat="42.642845" lon="1.258961">
        <ele>1211.0</ele>
        <time>2013-07-30T13:32:32Z</time>
      </trkpt>
      <trkpt lat="42.642829" lon="1.259008">
        <ele>1213.5</ele>
        <time>2013-07-30T13:32:44Z</time>
      </trkpt>
      <trkpt lat="42.642786" lon="1.258957">
        <ele>1213.7</ele>
        <time>2013-07-30T13:32:56Z</time>
      </trkpt>
      <trkpt lat="42.642722" lon="1.258947">
        <ele>1216.4</ele>
        <time>2013-07-30T13:33:09Z</time>
      </trkpt>
      <trkpt lat="42.642680" lon="1.258923">
        <ele>1217.0</ele>
        <time>2013-07-30T13:33:20Z</time>
      </trkpt>
      <trkpt lat="42.642626" lon="1.258973">
        <ele>1223.3</ele>
        <time>2013-07-30T13:33:31Z</time>
      </trkpt>
      <trkpt lat="42.642582" lon="1.258978">
        <ele>1225.2</ele>
        <time>2013-07-30T13:33:45Z</time>
      </trkpt>
      <trkpt lat="42.642542" lon="1.258979">
        <ele>1226.6</ele>
        <time>2013-07-30T13:33:55Z</time>
      </trkpt>
      <trkpt lat="42.642499" lon="1.258949">
        <ele>1228.1</ele>
        <time>2013-07-30T13:34:03Z</time>
      </trkpt>
      <trkpt lat="42.642418" lon="1.258929">
        <ele>1230.7</ele>
        <time>2013-07-30T13:34:13Z</time>
      </trkpt>
      <trkpt lat="42.642352" lon="1.258922">
        <ele>1232.4</ele>
        <time>2013-07-30T13:34:24Z</time>
      </trkpt>
      <trkpt lat="42.642347" lon="1.258981">
        <ele>1234.6</ele>
        <time>2013-07-30T13:34:35Z</time>
      </trkpt>
      <trkpt lat="42.642353" lon="1.259045">
        <ele>1237.1</ele>
        <time>2013-07-30T13:34:41Z</time>
      </trkpt>
      <trkpt lat="42.642340" lon="1.259080">
        <ele>1238.7</ele>
        <time>2013-07-30T13:34:53Z</time>
      </trkpt>
      <trkpt lat="42.642306" lon="1.259075">
        <ele>1239.2</ele>
        <time>2013-07-30T13:35:03Z</time>
      </trkpt>
      <trkpt lat="42.642267" lon="1.259066">
        <ele>1239.9</ele>
        <time>2013-07-30T13:35:12Z</time>
      </trkpt>
      <trkpt lat="42.642215" lon="1.259062">
        <ele>1241.3</ele>
        <time>2013-07-30T13:35:22Z</time>
      </trkpt>
      <trkpt lat="42.642157" lon="1.259007">
        <ele>1241.2</ele>
        <time>2013-07-30T13:35:35Z</time>
      </trkpt>
      <trkpt lat="42.642103" lon="1.258994">
        <ele>1243.4</ele>
        <time>2013-07-30T13:35:45Z</time>
      </trkpt>
      <trkpt lat="42.642055" lon="1.258982">
        <ele>1245.0</ele>
        <time>2013-07-30T13:35:56Z</time>
      </trkpt>
      <trkpt lat="42.642005" lon="1.258970">
        <ele>1246.3</ele>
        <time>2013-07-30T13:36:09Z</time>
      </trkpt>
      <trkpt lat="42.641981" lon="1.258969">
        <ele>1247.2</ele>
        <time>2013-07-30T13:36:21Z</time>
      </trkpt>
      <trkpt lat="42.641938" lon="1.258968">
        <ele>1249.2</ele>
        <time>2013-07-30T13:36:33Z</time>
      </trkpt>
      <trkpt lat="42.641909" lon="1.259034">
        <ele>1253.4</ele>
        <time>2013-07-30T13:36:45Z</time>
      </trkpt>
      <trkpt lat="42.641832" lon="1.259047">
        <ele>1257.6</ele>
        <time>2013-07-30T13:36:56Z</time>
      </trkpt>
      <trkpt lat="42.641819" lon="1.259038">
        <ele>1257.8</ele>
        <time>2013-07-30T13:37:00Z</time>
      </trkpt>
      <trkpt lat="42.641769" lon="1.258989">
        <ele>1258.4</ele>
        <time>2013-07-30T13:37:11Z</time>
      </trkpt>
      <trkpt lat="42.641724" lon="1.258972">
        <ele>1260.0</ele>
        <time>2013-07-30T13:37:19Z</time>
      </trkpt>
      <trkpt lat="42.641715" lon="1.258970">
        <ele>1260.3</ele>
        <time>2013-07-30T13:37:21Z</time>
      </trkpt>
      <trkpt lat="42.641683" lon="1.258962">
        <ele>1261.5</ele>
        <time>2013-07-30T13:37:32Z</time>
      </trkpt>
      <trkpt lat="42.641637" lon="1.258940">
        <ele>1262.9</ele>
        <time>2013-07-30T13:37:42Z</time>
      </trkpt>
      <trkpt lat="42.641622" lon="1.258940">
        <ele>1263.8</ele>
        <time>2013-07-30T13:37:51Z</time>
      </trkpt>
      <trkpt lat="42.641622" lon="1.258940">
        <ele>1263.8</ele>
        <time>2013-07-30T13:38:04Z</time>
      </trkpt>
      <trkpt lat="42.641620" lon="1.258936">
        <ele>1263.8</ele>
        <time>2013-07-30T13:38:24Z</time>
      </trkpt>
      <trkpt lat="42.641616" lon="1.258934">
        <ele>1263.9</ele>
        <time>2013-07-30T13:38:51Z</time>
      </trkpt>
      <trkpt lat="42.641601" lon="1.258922">
        <ele>1264.2</ele>
        <time>2013-07-30T13:38:57Z</time>
      </trkpt>
      <trkpt lat="42.641525" lon="1.258874">
        <ele>1265.3</ele>
        <time>2013-07-30T13:39:08Z</time>
      </trkpt>
      <trkpt lat="42.641491" lon="1.258860">
        <ele>1266.4</ele>
        <time>2013-07-30T13:39:11Z</time>
      </trkpt>
      <trkpt lat="42.641406" lon="1.258819">
        <ele>1270.2</ele>
        <time>2013-07-30T13:39:21Z</time>
      </trkpt>
      <trkpt lat="42.641347" lon="1.258791">
        <ele>1272.6</ele>
        <time>2013-07-30T13:39:31Z</time>
      </trkpt>
      <trkpt lat="42.641318" lon="1.258788">
        <ele>1274.0</ele>
        <time>2013-07-30T13:39:33Z</time>
      </trkpt>
      <trkpt lat="42.641252" lon="1.258741">
        <ele>1275.6</ele>
        <time>2013-07-30T13:39:42Z</time>
      </trkpt>
      <trkpt lat="42.641211" lon="1.258746">
        <ele>1277.3</ele>
        <time>2013-07-30T13:39:53Z</time>
      </trkpt>
      <trkpt lat="42.641206" lon="1.258853">
        <ele>1281.8</ele>
        <time>2013-07-30T13:40:06Z</time>
      </trkpt>
      <trkpt lat="42.641197" lon="1.258888">
        <ele>1283.8</ele>
        <time>2013-07-30T13:40:17Z</time>
      </trkpt>
      <trkpt lat="42.641175" lon="1.258882">
        <ele>1284.4</ele>
        <time>2013-07-30T13:40:27Z</time>
      </trkpt>
      <trkpt lat="42.641108" lon="1.258872">
        <ele>1286.8</ele>
        <time>2013-07-30T13:40:39Z</time>
      </trkpt>
      <trkpt lat="42.641105" lon="1.258940">
        <ele>1289.9</ele>
        <time>2013-07-30T13:40:50Z</time>
      </trkpt>
      <trkpt lat="42.641100" lon="1.258984">
        <ele>1291.9</ele>
        <time>2013-07-30T13:41:00Z</time>
      </trkpt>
      <trkpt lat="42.641081" lon="1.258963">
        <ele>1291.8</ele>
        <time>2013-07-30T13:41:07Z</time>
      </trkpt>
      <trkpt lat="42.641034" lon="1.258940">
        <ele>1292.7</ele>
        <time>2013-07-30T13:41:18Z</time>
      </trkpt>
      <trkpt lat="42.640971" lon="1.258924">
        <ele>1295.2</ele>
        <time>2013-07-30T13:41:30Z</time>
      </trkpt>
      <trkpt lat="42.640945" lon="1.258902">
        <ele>1295.4</ele>
        <time>2013-07-30T13:41:42Z</time>
      </trkpt>
      <trkpt lat="42.640887" lon="1.258867">
        <ele>1296.0</ele>
        <time>2013-07-30T13:41:53Z</time>
      </trkpt>
      <trkpt lat="42.640841" lon="1.258828">
        <ele>1296.2</ele>
        <time>2013-07-30T13:42:05Z</time>
      </trkpt>
      <trkpt lat="42.640792" lon="1.258818">
        <ele>1298.4</ele>
        <time>2013-07-30T13:42:15Z</time>
      </trkpt>
      <trkpt lat="42.640744" lon="1.258771">
        <ele>1300.2</ele>
        <time>2013-07-30T13:42:26Z</time>
      </trkpt>
      <trkpt lat="42.640674" lon="1.258706">
        <ele>1302.8</ele>
        <time>2013-07-30T13:42:37Z</time>
      </trkpt>
      <trkpt lat="42.640674" lon="1.258706">
        <ele>1302.8</ele>
        <time>2013-07-30T13:42:38Z</time>
      </trkpt>
      <trkpt lat="42.640605" lon="1.258640">
        <ele>1307.1</ele>
        <time>2013-07-30T13:42:50Z</time>
      </trkpt>
      <trkpt lat="42.640528" lon="1.258557">
        <ele>1307.7</ele>
        <time>2013-07-30T13:43:02Z</time>
      </trkpt>
      <trkpt lat="42.640499" lon="1.258538">
        <ele>1308.1</ele>
        <time>2013-07-30T13:43:05Z</time>
      </trkpt>
      <trkpt lat="42.640448" lon="1.258483">
        <ele>1308.8</ele>
        <time>2013-07-30T13:43:15Z</time>
      </trkpt>
      <trkpt lat="42.640401" lon="1.258450">
        <ele>1310.0</ele>
        <time>2013-07-30T13:43:25Z</time>
      </trkpt>
      <trkpt lat="42.640311" lon="1.258381">
        <ele>1311.1</ele>
        <time>2013-07-30T13:43:36Z</time>
      </trkpt>
      <trkpt lat="42.640251" lon="1.258298">
        <ele>1309.0</ele>
        <time>2013-07-30T13:43:49Z</time>
      </trkpt>
      <trkpt lat="42.640251" lon="1.258298">
        <ele>1309.0</ele>
        <time>2013-07-30T13:43:50Z</time>
      </trkpt>
      <trkpt lat="42.640218" lon="1.258247">
        <ele>1307.1</ele>
        <time>2013-07-30T13:43:54Z</time>
      </trkpt>
      <trkpt lat="42.640159" lon="1.258195">
        <ele>1307.6</ele>
        <time>2013-07-30T13:44:03Z</time>
      </trkpt>
      <trkpt lat="42.640100" lon="1.258146">
        <ele>1309.3</ele>
        <time>2013-07-30T13:44:08Z</time>
      </trkpt>
      <trkpt lat="42.640045" lon="1.258094">
        <ele>1309.8</ele>
        <time>2013-07-30T13:44:13Z</time>
      </trkpt>
      <trkpt lat="42.640009" lon="1.258064">
        <ele>1310.5</ele>
        <time>2013-07-30T13:44:17Z</time>
      </trkpt>
      <trkpt lat="42.639937" lon="1.258005">
        <ele>1311.5</ele>
        <time>2013-07-30T13:44:23Z</time>
      </trkpt>
      <trkpt lat="42.639823" lon="1.257912">
        <ele>1313.0</ele>
        <time>2013-07-30T13:44:35Z</time>
      </trkpt>
      <trkpt lat="42.639727" lon="1.257849">
        <ele>1314.0</ele>
        <time>2013-07-30T13:44:48Z</time>
      </trkpt>
      <trkpt lat="42.639688" lon="1.257798">
        <ele>1313.5</ele>
        <time>2013-07-30T13:44:53Z</time>
      </trkpt>
      <trkpt lat="42.639594" lon="1.257705">
        <ele>1311.5</ele>
        <time>2013-07-30T13:45:03Z</time>
      </trkpt>
      <trkpt lat="42.639482" lon="1.257610">
        <ele>1313.7</ele>
        <time>2013-07-30T13:45:15Z</time>
      </trkpt>
      <trkpt lat="42.639419" lon="1.257542">
        <ele>1314.5</ele>
        <time>2013-07-30T13:45:21Z</time>
      </trkpt>
      <trkpt lat="42.639339" lon="1.257486">
        <ele>1315.0</ele>
        <time>2013-07-30T13:45:31Z</time>
      </trkpt>
      <trkpt lat="42.639281" lon="1.257454">
        <ele>1316.1</ele>
        <time>2013-07-30T13:45:40Z</time>
      </trkpt>
      <trkpt lat="42.639197" lon="1.257364">
        <ele>1315.3</ele>
        <time>2013-07-30T13:45:50Z</time>
      </trkpt>
      <trkpt lat="42.639169" lon="1.257345">
        <ele>1315.7</ele>
        <time>2013-07-30T13:45:55Z</time>
      </trkpt>
      <trkpt lat="42.639099" lon="1.257331">
        <ele>1318.6</ele>
        <time>2013-07-30T13:46:03Z</time>
      </trkpt>
      <trkpt lat="42.639031" lon="1.257318">
        <ele>1319.7</ele>
        <time>2013-07-30T13:46:13Z</time>
      </trkpt>
      <trkpt lat="42.638963" lon="1.257272">
        <ele>1319.3</ele>
        <time>2013-07-30T13:46:24Z</time>
      </trkpt>
      <trkpt lat="42.638908" lon="1.257241">
        <ele>1318.8</ele>
        <time>2013-07-30T13:46:35Z</time>
      </trkpt>
      <trkpt lat="42.638811" lon="1.257179">
        <ele>1319.3</ele>
        <time>2013-07-30T13:46:46Z</time>
      </trkpt>
      <trkpt lat="42.638762" lon="1.257158">
        <ele>1321.1</ele>
        <time>2013-07-30T13:46:50Z</time>
      </trkpt>
      <trkpt lat="42.638724" lon="1.257131">
        <ele>1322.4</ele>
        <time>2013-07-30T13:46:53Z</time>
      </trkpt>
      <trkpt lat="42.638610" lon="1.257029">
        <ele>1321.5</ele>
        <time>2013-07-30T13:47:05Z</time>
      </trkpt>
      <trkpt lat="42.638592" lon="1.257019">
        <ele>1321.9</ele>
        <time>2013-07-30T13:47:09Z</time>
      </trkpt>
      <trkpt lat="42.638524" lon="1.257000">
        <ele>1323.0</ele>
        <time>2013-07-30T13:47:19Z</time>
      </trkpt>
      <trkpt lat="42.638466" lon="1.256961">
        <ele>1324.7</ele>
        <time>2013-07-30T13:47:25Z</time>
      </trkpt>
      <trkpt lat="42.638440" lon="1.256947">
        <ele>1325.3</ele>
        <time>2013-07-30T13:47:28Z</time>
      </trkpt>
      <trkpt lat="42.638390" lon="1.256900">
        <ele>1325.5</ele>
        <time>2013-07-30T13:47:39Z</time>
      </trkpt>
      <trkpt lat="42.638370" lon="1.256895">
        <ele>1325.7</ele>
        <time>2013-07-30T13:47:42Z</time>
      </trkpt>
      <trkpt lat="42.638340" lon="1.256886">
        <ele>1326.4</ele>
        <time>2013-07-30T13:47:52Z</time>
      </trkpt>
      <trkpt lat="42.638277" lon="1.256879">
        <ele>1329.4</ele>
        <time>2013-07-30T13:48:02Z</time>
      </trkpt>
      <trkpt lat="42.638277" lon="1.256879">
        <ele>1329.4</ele>
        <time>2013-07-30T13:48:13Z</time>
      </trkpt>
      <trkpt lat="42.638273" lon="1.256878">
        <ele>1329.6</ele>
        <time>2013-07-30T13:48:20Z</time>
      </trkpt>
      <trkpt lat="42.638176" lon="1.256811">
        <ele>1332.6</ele>
        <time>2013-07-30T13:48:31Z</time>
      </trkpt>
      <trkpt lat="42.638112" lon="1.256758">
        <ele>1333.8</ele>
        <time>2013-07-30T13:48:42Z</time>
      </trkpt>
      <trkpt lat="42.638082" lon="1.256726">
        <ele>1334.7</ele>
        <time>2013-07-30T13:48:46Z</time>
      </trkpt>
      <trkpt lat="42.638059" lon="1.256707">
        <ele>1335.7</ele>
        <time>2013-07-30T13:48:49Z</time>
      </trkpt>
      <trkpt lat="42.638033" lon="1.256666">
        <ele>1335.6</ele>
        <time>2013-07-30T13:48:53Z</time>
      </trkpt>
      <trkpt lat="42.638004" lon="1.256634">
        <ele>1335.7</ele>
        <time>2013-07-30T13:49:05Z</time>
      </trkpt>
      <trkpt lat="42.638004" lon="1.256634">
        <ele>1335.7</ele>
        <time>2013-07-30T13:49:31Z</time>
      </trkpt>
      <trkpt lat="42.638004" lon="1.256634">
        <ele>1335.7</ele>
        <time>2013-07-30T13:49:35Z</time>
      </trkpt>
      <trkpt lat="42.637944" lon="1.256605">
        <ele>1337.6</ele>
        <time>2013-07-30T13:49:45Z</time>
      </trkpt>
      <trkpt lat="42.637937" lon="1.256597">
        <ele>1337.8</ele>
        <time>2013-07-30T13:49:59Z</time>
      </trkpt>
      <trkpt lat="42.637937" lon="1.256594">
        <ele>1337.7</ele>
        <time>2013-07-30T13:50:26Z</time>
      </trkpt>
      <trkpt lat="42.637919" lon="1.256576">
        <ele>1338.2</ele>
        <time>2013-07-30T13:50:39Z</time>
      </trkpt>
      <trkpt lat="42.637850" lon="1.256541">
        <ele>1339.4</ele>
        <time>2013-07-30T13:50:52Z</time>
      </trkpt>
      <trkpt lat="42.637887" lon="1.256655">
        <ele>1341.9</ele>
        <time>2013-07-30T13:52:03Z</time>
      </trkpt>
      <trkpt lat="42.637895" lon="1.256665">
        <ele>1341.8</ele>
        <time>2013-07-30T13:52:04Z</time>
      </trkpt>
      <trkpt lat="42.637901" lon="1.256677">
        <ele>1341.7</ele>
        <time>2013-07-30T13:52:05Z</time>
      </trkpt>
      <trkpt lat="42.637950" lon="1.256789">
        <ele>1341.2</ele>
        <time>2013-07-30T13:52:20Z</time>
      </trkpt>
      <trkpt lat="42.637945" lon="1.256828">
        <ele>1341.9</ele>
        <time>2013-07-30T13:52:24Z</time>
      </trkpt>
      <trkpt lat="42.637961" lon="1.256914">
        <ele>1342.9</ele>
        <time>2013-07-30T13:52:35Z</time>
      </trkpt>
      <trkpt lat="42.637967" lon="1.256994">
        <ele>1343.0</ele>
        <time>2013-07-30T13:52:44Z</time>
      </trkpt>
      <trkpt lat="42.637942" lon="1.257078">
        <ele>1343.9</ele>
        <time>2013-07-30T13:52:56Z</time>
      </trkpt>
      <trkpt lat="42.637943" lon="1.257079">
        <ele>1343.9</ele>
        <time>2013-07-30T13:53:23Z</time>
      </trkpt>
      <trkpt lat="42.637876" lon="1.257083">
        <ele>1345.9</ele>
        <time>2013-07-30T13:53:34Z</time>
      </trkpt>
      <trkpt lat="42.637826" lon="1.257068">
        <ele>1346.8</ele>
        <time>2013-07-30T13:53:43Z</time>
      </trkpt>
      <trkpt lat="42.637756" lon="1.257052">
        <ele>1347.6</ele>
        <time>2013-07-30T13:53:54Z</time>
      </trkpt>
      <trkpt lat="42.637712" lon="1.257053">
        <ele>1348.5</ele>
        <time>2013-07-30T13:54:04Z</time>
      </trkpt>
      <trkpt lat="42.637707" lon="1.257055">
        <ele>1348.7</ele>
        <time>2013-07-30T13:54:16Z</time>
      </trkpt>
      <trkpt lat="42.637666" lon="1.257037">
        <ele>1349.1</ele>
        <time>2013-07-30T13:54:26Z</time>
      </trkpt>
      <trkpt lat="42.637588" lon="1.256992">
        <ele>1351.0</ele>
        <time>2013-07-30T13:54:38Z</time>
      </trkpt>
      <trkpt lat="42.637545" lon="1.257022">
        <ele>1353.4</ele>
        <time>2013-07-30T13:54:49Z</time>
      </trkpt>
      <trkpt lat="42.637535" lon="1.257044">
        <ele>1354.2</ele>
        <time>2013-07-30T13:55:02Z</time>
      </trkpt>
      <trkpt lat="42.637491" lon="1.257062">
        <ele>1356.4</ele>
        <time>2013-07-30T13:55:12Z</time>
      </trkpt>
      <trkpt lat="42.637410" lon="1.257052">
        <ele>1360.4</ele>
        <time>2013-07-30T13:55:24Z</time>
      </trkpt>
      <trkpt lat="42.637386" lon="1.257119">
        <ele>1363.0</ele>
        <time>2013-07-30T13:55:35Z</time>
      </trkpt>
      <trkpt lat="42.637373" lon="1.257149">
        <ele>1364.4</ele>
        <time>2013-07-30T13:55:45Z</time>
      </trkpt>
      <trkpt lat="42.637327" lon="1.257154">
        <ele>1366.6</ele>
        <time>2013-07-30T13:55:54Z</time>
      </trkpt>
      <trkpt lat="42.637294" lon="1.257179">
        <ele>1369.4</ele>
        <time>2013-07-30T13:56:03Z</time>
      </trkpt>
      <trkpt lat="42.637263" lon="1.257213">
        <ele>1370.9</ele>
        <time>2013-07-30T13:56:13Z</time>
      </trkpt>
      <trkpt lat="42.637187" lon="1.257241">
        <ele>1373.1</ele>
        <time>2013-07-30T13:56:23Z</time>
      </trkpt>
      <trkpt lat="42.637166" lon="1.257287">
        <ele>1374.7</ele>
        <time>2013-07-30T13:56:32Z</time>
      </trkpt>
      <trkpt lat="42.637141" lon="1.257354">
        <ele>1377.0</ele>
        <time>2013-07-30T13:56:45Z</time>
      </trkpt>
      <trkpt lat="42.637137" lon="1.257397">
        <ele>1378.5</ele>
        <time>2013-07-30T13:56:55Z</time>
      </trkpt>
      <trkpt lat="42.637135" lon="1.257403">
        <ele>1378.7</ele>
        <time>2013-07-30T13:57:06Z</time>
      </trkpt>
      <trkpt lat="42.637126" lon="1.257431">
        <ele>1379.9</ele>
        <time>2013-07-30T13:57:15Z</time>
      </trkpt>
      <trkpt lat="42.637125" lon="1.257506">
        <ele>1382.6</ele>
        <time>2013-07-30T13:57:27Z</time>
      </trkpt>
      <trkpt lat="42.637121" lon="1.257572">
        <ele>1385.2</ele>
        <time>2013-07-30T13:57:33Z</time>
      </trkpt>
      <trkpt lat="42.637116" lon="1.257636">
        <ele>1387.4</ele>
        <time>2013-07-30T13:57:44Z</time>
      </trkpt>
      <trkpt lat="42.637113" lon="1.257699">
        <ele>1389.5</ele>
        <time>2013-07-30T13:57:57Z</time>
      </trkpt>
      <trkpt lat="42.637110" lon="1.257708">
        <ele>1389.9</ele>
        <time>2013-07-30T13:58:16Z</time>
      </trkpt>
      <trkpt lat="42.637092" lon="1.257739">
        <ele>1391.4</ele>
        <time>2013-07-30T13:58:27Z</time>
      </trkpt>
      <trkpt lat="42.637049" lon="1.257759">
        <ele>1392.8</ele>
        <time>2013-07-30T13:58:36Z</time>
      </trkpt>
      <trkpt lat="42.636990" lon="1.257764">
        <ele>1393.6</ele>
        <time>2013-07-30T13:58:46Z</time>
      </trkpt>
      <trkpt lat="42.636943" lon="1.257782">
        <ele>1394.7</ele>
        <time>2013-07-30T13:58:55Z</time>
      </trkpt>
      <trkpt lat="42.636877" lon="1.257796">
        <ele>1395.2</ele>
        <time>2013-07-30T13:59:06Z</time>
      </trkpt>
      <trkpt lat="42.636869" lon="1.257800">
        <ele>1395.3</ele>
        <time>2013-07-30T13:59:07Z</time>
      </trkpt>
      <trkpt lat="42.636800" lon="1.257836">
        <ele>1396.5</ele>
        <time>2013-07-30T13:59:17Z</time>
      </trkpt>
      <trkpt lat="42.636756" lon="1.257844">
        <ele>1396.6</ele>
        <time>2013-07-30T13:59:22Z</time>
      </trkpt>
      <trkpt lat="42.636718" lon="1.257879">
        <ele>1397.6</ele>
        <time>2013-07-30T13:59:31Z</time>
      </trkpt>
      <trkpt lat="42.636684" lon="1.257930">
        <ele>1399.4</ele>
        <time>2013-07-30T13:59:41Z</time>
      </trkpt>
      <trkpt lat="42.636683" lon="1.257971">
        <ele>1401.0</ele>
        <time>2013-07-30T13:59:53Z</time>
      </trkpt>
      <trkpt lat="42.636682" lon="1.257971">
        <ele>1401.0</ele>
        <time>2013-07-30T14:00:06Z</time>
      </trkpt>
      <trkpt lat="42.636681" lon="1.257968">
        <ele>1400.8</ele>
        <time>2013-07-30T14:00:21Z</time>
      </trkpt>
      <trkpt lat="42.636679" lon="1.257971">
        <ele>1400.9</ele>
        <time>2013-07-30T14:00:38Z</time>
      </trkpt>
      <trkpt lat="42.636480" lon="1.258273">
        <ele>1414.4</ele>
        <time>2013-07-30T14:00:52Z</time>
      </trkpt>
      <trkpt lat="42.636404" lon="1.258281">
        <ele>1415.2</ele>
        <time>2013-07-30T14:01:05Z</time>
      </trkpt>
      <trkpt lat="42.636334" lon="1.258272">
        <ele>1415.5</ele>
        <time>2013-07-30T14:01:17Z</time>
      </trkpt>
      <trkpt lat="42.636285" lon="1.258299">
        <ele>1417.8</ele>
        <time>2013-07-30T14:01:28Z</time>
      </trkpt>
      <trkpt lat="42.636225" lon="1.258285">
        <ele>1419.0</ele>
        <time>2013-07-30T14:01:37Z</time>
      </trkpt>
      <trkpt lat="42.636154" lon="1.258301">
        <ele>1421.7</ele>
        <time>2013-07-30T14:01:50Z</time>
      </trkpt>
      <trkpt lat="42.636145" lon="1.258371">
        <ele>1425.0</ele>
        <time>2013-07-30T14:02:02Z</time>
      </trkpt>
      <trkpt lat="42.636130" lon="1.258388">
        <ele>1426.1</ele>
        <time>2013-07-30T14:02:14Z</time>
      </trkpt>
      <trkpt lat="42.636127" lon="1.258463">
        <ele>1429.7</ele>
        <time>2013-07-30T14:02:27Z</time>
      </trkpt>
      <trkpt lat="42.636128" lon="1.258497">
        <ele>1431.5</ele>
        <time>2013-07-30T14:02:42Z</time>
      </trkpt>
      <trkpt lat="42.636128" lon="1.258535">
        <ele>1433.5</ele>
        <time>2013-07-30T14:04:50Z</time>
      </trkpt>
      <trkpt lat="42.636112" lon="1.258552">
        <ele>1434.8</ele>
        <time>2013-07-30T14:05:00Z</time>
      </trkpt>
      <trkpt lat="42.636115" lon="1.258554">
        <ele>1434.8</ele>
        <time>2013-07-30T14:05:11Z</time>
      </trkpt>
      <trkpt lat="42.636021" lon="1.258603">
        <ele>1440.9</ele>
        <time>2013-07-30T14:05:21Z</time>
      </trkpt>
      <trkpt lat="42.635971" lon="1.258649">
        <ele>1447.7</ele>
        <time>2013-07-30T14:05:26Z</time>
      </trkpt>
      <trkpt lat="42.635870" lon="1.258742">
        <ele>1453.9</ele>
        <time>2013-07-30T14:05:36Z</time>
      </trkpt>
      <trkpt lat="42.635863" lon="1.258752">
        <ele>1454.2</ele>
        <time>2013-07-30T14:05:49Z</time>
      </trkpt>
      <trkpt lat="42.635864" lon="1.258756">
        <ele>1454.4</ele>
        <time>2013-07-30T14:06:01Z</time>
      </trkpt>
      <trkpt lat="42.635862" lon="1.258754">
        <ele>1454.3</ele>
        <time>2013-07-30T14:06:13Z</time>
      </trkpt>
      <trkpt lat="42.635857" lon="1.258772">
        <ele>1454.9</ele>
        <time>2013-07-30T14:06:25Z</time>
      </trkpt>
      <trkpt lat="42.635857" lon="1.258772">
        <ele>1454.9</ele>
        <time>2013-07-30T14:06:36Z</time>
      </trkpt>
      <trkpt lat="42.635747" lon="1.259270">
        <ele>1476.7</ele>
        <time>2013-07-30T14:06:50Z</time>
      </trkpt>
      <trkpt lat="42.635777" lon="1.259402">
        <ele>1481.3</ele>
        <time>2013-07-30T14:07:00Z</time>
      </trkpt>
      <trkpt lat="42.635761" lon="1.259434">
        <ele>1482.8</ele>
        <time>2013-07-30T14:07:15Z</time>
      </trkpt>
      <trkpt lat="42.635733" lon="1.259482">
        <ele>1484.6</ele>
        <time>2013-07-30T14:07:26Z</time>
      </trkpt>
      <trkpt lat="42.635701" lon="1.259467">
        <ele>1483.7</ele>
        <time>2013-07-30T14:07:29Z</time>
      </trkpt>
      <trkpt lat="42.635658" lon="1.259466">
        <ele>1481.9</ele>
        <time>2013-07-30T14:07:34Z</time>
      </trkpt>
      <trkpt lat="42.635635" lon="1.259487">
        <ele>1481.5</ele>
        <time>2013-07-30T14:07:37Z</time>
      </trkpt>
      <trkpt lat="42.635570" lon="1.259554">
        <ele>1481.6</ele>
        <time>2013-07-30T14:07:48Z</time>
      </trkpt>
      <trkpt lat="42.635495" lon="1.259645">
        <ele>1482.4</ele>
        <time>2013-07-30T14:08:01Z</time>
      </trkpt>
      <trkpt lat="42.635412" lon="1.259702">
        <ele>1481.6</ele>
        <time>2013-07-30T14:08:11Z</time>
      </trkpt>
      <trkpt lat="42.635385" lon="1.259715">
        <ele>1481.4</ele>
        <time>2013-07-30T14:08:14Z</time>
      </trkpt>
      <trkpt lat="42.635332" lon="1.259785">
        <ele>1485.0</ele>
        <time>2013-07-30T14:08:24Z</time>
      </trkpt>
      <trkpt lat="42.635314" lon="1.259802">
        <ele>1486.4</ele>
        <time>2013-07-30T14:08:38Z</time>
      </trkpt>
      <trkpt lat="42.635311" lon="1.259802">
        <ele>1486.4</ele>
        <time>2013-07-30T14:08:50Z</time>
      </trkpt>
      <trkpt lat="42.635101" lon="1.259845">
        <ele>1492.7</ele>
        <time>2013-07-30T14:09:02Z</time>
      </trkpt>
      <trkpt lat="42.635079" lon="1.259888">
        <ele>1496.1</ele>
        <time>2013-07-30T14:09:14Z</time>
      </trkpt>
      <trkpt lat="42.635038" lon="1.259902">
        <ele>1497.0</ele>
        <time>2013-07-30T14:09:24Z</time>
      </trkpt>
      <trkpt lat="42.635039" lon="1.259908">
        <ele>1497.3</ele>
        <time>2013-07-30T14:09:27Z</time>
      </trkpt>
      <trkpt lat="42.634977" lon="1.259928">
        <ele>1498.0</ele>
        <time>2013-07-30T14:09:37Z</time>
      </trkpt>
      <trkpt lat="42.634930" lon="1.259956">
        <ele>1499.9</ele>
        <time>2013-07-30T14:09:54Z</time>
      </trkpt>
      <trkpt lat="42.634927" lon="1.259967">
        <ele>1500.5</ele>
        <time>2013-07-30T14:10:10Z</time>
      </trkpt>
      <trkpt lat="42.634889" lon="1.259966">
        <ele>1501.2</ele>
        <time>2013-07-30T14:10:21Z</time>
      </trkpt>
      <trkpt lat="42.634848" lon="1.260034">
        <ele>1505.0</ele>
        <time>2013-07-30T14:10:32Z</time>
      </trkpt>
      <trkpt lat="42.634823" lon="1.260045">
        <ele>1505.3</ele>
        <time>2013-07-30T14:10:41Z</time>
      </trkpt>
      <trkpt lat="42.634722" lon="1.260170">
        <ele>1511.0</ele>
        <time>2013-07-30T14:16:22Z</time>
      </trkpt>
      <trkpt lat="42.634661" lon="1.260261">
        <ele>1515.3</ele>
        <time>2013-07-30T14:16:39Z</time>
      </trkpt>
      <trkpt lat="42.634581" lon="1.260286">
        <ele>1514.2</ele>
        <time>2013-07-30T14:16:52Z</time>
      </trkpt>
      <trkpt lat="42.634477" lon="1.260387">
        <ele>1515.0</ele>
        <time>2013-07-30T14:17:08Z</time>
      </trkpt>
      <trkpt lat="42.634441" lon="1.260411">
        <ele>1515.0</ele>
        <time>2013-07-30T14:17:22Z</time>
      </trkpt>
      <trkpt lat="42.634371" lon="1.260465">
        <ele>1518.3</ele>
        <time>2013-07-30T14:17:38Z</time>
      </trkpt>
      <trkpt lat="42.634346" lon="1.260483">
        <ele>1519.8</ele>
        <time>2013-07-30T14:17:45Z</time>
      </trkpt>
      <trkpt lat="42.634338" lon="1.260484">
        <ele>1519.8</ele>
        <time>2013-07-30T14:17:46Z</time>
      </trkpt>
      <trkpt lat="42.634260" lon="1.260613">
        <ele>1523.5</ele>
        <time>2013-07-30T14:18:01Z</time>
      </trkpt>
      <trkpt lat="42.634180" lon="1.260707">
        <ele>1525.5</ele>
        <time>2013-07-30T14:18:21Z</time>
      </trkpt>
      <trkpt lat="42.634153" lon="1.260760">
        <ele>1526.9</ele>
        <time>2013-07-30T14:18:39Z</time>
      </trkpt>
      <trkpt lat="42.634091" lon="1.260908">
        <ele>1531.6</ele>
        <time>2013-07-30T14:18:54Z</time>
      </trkpt>
      <trkpt lat="42.633939" lon="1.261025">
        <ele>1531.4</ele>
        <time>2013-07-30T14:19:11Z</time>
      </trkpt>
      <trkpt lat="42.633867" lon="1.261146">
        <ele>1535.2</ele>
        <time>2013-07-30T14:19:27Z</time>
      </trkpt>
      <trkpt lat="42.633848" lon="1.261243">
        <ele>1538.4</ele>
        <time>2013-07-30T14:19:43Z</time>
      </trkpt>
      <trkpt lat="42.633843" lon="1.261265">
        <ele>1539.2</ele>
        <time>2013-07-30T14:20:04Z</time>
      </trkpt>
      <trkpt lat="42.633836" lon="1.261270">
        <ele>1539.2</ele>
        <time>2013-07-30T14:20:25Z</time>
      </trkpt>
      <trkpt lat="42.633827" lon="1.261291">
        <ele>1539.8</ele>
        <time>2013-07-30T14:20:50Z</time>
      </trkpt>
      <trkpt lat="42.633808" lon="1.261300">
        <ele>1539.5</ele>
        <time>2013-07-30T14:21:05Z</time>
      </trkpt>
      <trkpt lat="42.633794" lon="1.261344">
        <ele>1540.4</ele>
        <time>2013-07-30T14:21:08Z</time>
      </trkpt>
      <trkpt lat="42.633727" lon="1.261427">
        <ele>1538.8</ele>
        <time>2013-07-30T14:21:22Z</time>
      </trkpt>
      <trkpt lat="42.633681" lon="1.261418">
        <ele>1537.2</ele>
        <time>2013-07-30T14:21:27Z</time>
      </trkpt>
      <trkpt lat="42.633664" lon="1.261407">
        <ele>1536.5</ele>
        <time>2013-07-30T14:21:29Z</time>
      </trkpt>
      <trkpt lat="42.633612" lon="1.261430">
        <ele>1536.8</ele>
        <time>2013-07-30T14:21:36Z</time>
      </trkpt>
      <trkpt lat="42.633577" lon="1.261420">
        <ele>1536.3</ele>
        <time>2013-07-30T14:21:39Z</time>
      </trkpt>
      <trkpt lat="42.633512" lon="1.261366">
        <ele>1536.4</ele>
        <time>2013-07-30T14:21:50Z</time>
      </trkpt>
      <trkpt lat="42.633481" lon="1.261316">
        <ele>1535.4</ele>
        <time>2013-07-30T14:21:57Z</time>
      </trkpt>
      <trkpt lat="42.633400" lon="1.261253">
        <ele>1535.8</ele>
        <time>2013-07-30T14:22:07Z</time>
      </trkpt>
      <trkpt lat="42.633316" lon="1.261215">
        <ele>1536.1</ele>
        <time>2013-07-30T14:22:16Z</time>
      </trkpt>
      <trkpt lat="42.633270" lon="1.261252">
        <ele>1536.5</ele>
        <time>2013-07-30T14:22:22Z</time>
      </trkpt>
      <trkpt lat="42.633231" lon="1.261309">
        <ele>1537.1</ele>
        <time>2013-07-30T14:22:28Z</time>
      </trkpt>
      <trkpt lat="42.633089" lon="1.261381">
        <ele>1537.4</ele>
        <time>2013-07-30T14:22:41Z</time>
      </trkpt>
      <trkpt lat="42.633006" lon="1.261395">
        <ele>1537.5</ele>
        <time>2013-07-30T14:22:50Z</time>
      </trkpt>
      <trkpt lat="42.632935" lon="1.261403">
        <ele>1538.6</ele>
        <time>2013-07-30T14:23:05Z</time>
      </trkpt>
      <trkpt lat="42.632920" lon="1.261398">
        <ele>1538.5</ele>
        <time>2013-07-30T14:23:07Z</time>
      </trkpt>
      <trkpt lat="42.632839" lon="1.261363">
        <ele>1538.2</ele>
        <time>2013-07-30T14:23:17Z</time>
      </trkpt>
      <trkpt lat="42.632750" lon="1.261327">
        <ele>1539.4</ele>
        <time>2013-07-30T14:23:29Z</time>
      </trkpt>
      <trkpt lat="42.632681" lon="1.261328">
        <ele>1542.0</ele>
        <time>2013-07-30T14:23:41Z</time>
      </trkpt>
      <trkpt lat="42.632613" lon="1.261350">
        <ele>1544.3</ele>
        <time>2013-07-30T14:23:51Z</time>
      </trkpt>
      <trkpt lat="42.632552" lon="1.261334">
        <ele>1544.9</ele>
        <time>2013-07-30T14:24:01Z</time>
      </trkpt>
      <trkpt lat="42.632454" lon="1.261350">
        <ele>1546.1</ele>
        <time>2013-07-30T14:24:11Z</time>
      </trkpt>
      <trkpt lat="42.632321" lon="1.261453">
        <ele>1544.8</ele>
        <time>2013-07-30T14:24:24Z</time>
      </trkpt>
      <trkpt lat="42.632237" lon="1.261505">
        <ele>1543.6</ele>
        <time>2013-07-30T14:24:34Z</time>
      </trkpt>
      <trkpt lat="42.632154" lon="1.261562">
        <ele>1542.3</ele>
        <time>2013-07-30T14:24:45Z</time>
      </trkpt>
      <trkpt lat="42.632062" lon="1.261627">
        <ele>1542.1</ele>
        <time>2013-07-30T14:24:55Z</time>
      </trkpt>
      <trkpt lat="42.632055" lon="1.261634">
        <ele>1542.3</ele>
        <time>2013-07-30T14:24:56Z</time>
      </trkpt>
      <trkpt lat="42.631960" lon="1.261681">
        <ele>1541.5</ele>
        <time>2013-07-30T14:25:08Z</time>
      </trkpt>
      <trkpt lat="42.631931" lon="1.261706">
        <ele>1540.6</ele>
        <time>2013-07-30T14:25:14Z</time>
      </trkpt>
      <trkpt lat="42.631808" lon="1.261771">
        <ele>1537.1</ele>
        <time>2013-07-30T14:25:26Z</time>
      </trkpt>
      <trkpt lat="42.631789" lon="1.261780">
        <ele>1537.2</ele>
        <time>2013-07-30T14:25:43Z</time>
      </trkpt>
      <trkpt lat="42.631789" lon="1.261780">
        <ele>1537.2</ele>
        <time>2013-07-30T14:26:08Z</time>
      </trkpt>
      <trkpt lat="42.631794" lon="1.261776">
        <ele>1537.1</ele>
        <time>2013-07-30T14:26:21Z</time>
      </trkpt>
      <trkpt lat="42.631788" lon="1.261765">
        <ele>1536.3</ele>
        <time>2013-07-30T14:26:23Z</time>
      </trkpt>
      <trkpt lat="42.631742" lon="1.261791">
        <ele>1537.3</ele>
        <time>2013-07-30T14:26:28Z</time>
      </trkpt>
      <trkpt lat="42.631693" lon="1.261839">
        <ele>1538.5</ele>
        <time>2013-07-30T14:26:42Z</time>
      </trkpt>
      <trkpt lat="42.631614" lon="1.261866">
        <ele>1537.5</ele>
        <time>2013-07-30T14:26:49Z</time>
      </trkpt>
      <trkpt lat="42.631544" lon="1.261825">
        <ele>1537.2</ele>
        <time>2013-07-30T14:26:55Z</time>
      </trkpt>
      <trkpt lat="42.631526" lon="1.261809">
        <ele>1537.5</ele>
        <time>2013-07-30T14:26:59Z</time>
      </trkpt>
      <trkpt lat="42.631438" lon="1.261798">
        <ele>1536.6</ele>
        <time>2013-07-30T14:27:10Z</time>
      </trkpt>
      <trkpt lat="42.631358" lon="1.261850">
        <ele>1533.6</ele>
        <time>2013-07-30T14:27:22Z</time>
      </trkpt>
      <trkpt lat="42.631292" lon="1.261886">
        <ele>1532.0</ele>
        <time>2013-07-30T14:27:27Z</time>
      </trkpt>
      <trkpt lat="42.631176" lon="1.261880">
        <ele>1531.7</ele>
        <time>2013-07-30T14:27:39Z</time>
      </trkpt>
      <trkpt lat="42.631116" lon="1.261823">
        <ele>1529.3</ele>
        <time>2013-07-30T14:27:47Z</time>
      </trkpt>
      <trkpt lat="42.631095" lon="1.261795">
        <ele>1528.6</ele>
        <time>2013-07-30T14:27:51Z</time>
      </trkpt>
      <trkpt lat="42.631059" lon="1.261741">
        <ele>1528.6</ele>
        <time>2013-07-30T14:27:57Z</time>
      </trkpt>
      <trkpt lat="42.631032" lon="1.261672">
        <ele>1528.4</ele>
        <time>2013-07-30T14:28:03Z</time>
      </trkpt>
      <trkpt lat="42.630994" lon="1.261681">
        <ele>1531.2</ele>
        <time>2013-07-30T14:28:08Z</time>
      </trkpt>
      <trkpt lat="42.630895" lon="1.261702">
        <ele>1533.1</ele>
        <time>2013-07-30T14:28:19Z</time>
      </trkpt>
      <trkpt lat="42.630865" lon="1.261731">
        <ele>1532.9</ele>
        <time>2013-07-30T14:28:25Z</time>
      </trkpt>
      <trkpt lat="42.630827" lon="1.261780">
        <ele>1532.0</ele>
        <time>2013-07-30T14:28:30Z</time>
      </trkpt>
      <trkpt lat="42.630800" lon="1.261803">
        <ele>1531.7</ele>
        <time>2013-07-30T14:28:42Z</time>
      </trkpt>
      <trkpt lat="42.630776" lon="1.261827">
        <ele>1531.2</ele>
        <time>2013-07-30T14:28:58Z</time>
      </trkpt>
      <trkpt lat="42.630776" lon="1.261827">
        <ele>1531.2</ele>
        <time>2013-07-30T14:29:07Z</time>
      </trkpt>
      <trkpt lat="42.630763" lon="1.261826">
        <ele>1529.6</ele>
        <time>2013-07-30T14:29:17Z</time>
      </trkpt>
      <trkpt lat="42.630641" lon="1.261919">
        <ele>1528.4</ele>
        <time>2013-07-30T14:29:28Z</time>
      </trkpt>
      <trkpt lat="42.630596" lon="1.261958">
        <ele>1528.9</ele>
        <time>2013-07-30T14:29:39Z</time>
      </trkpt>
      <trkpt lat="42.630493" lon="1.262045">
        <ele>1522.9</ele>
        <time>2013-07-30T14:29:51Z</time>
      </trkpt>
      <trkpt lat="42.630386" lon="1.262258">
        <ele>1526.7</ele>
        <time>2013-07-30T14:30:04Z</time>
      </trkpt>
      <trkpt lat="42.630355" lon="1.262283">
        <ele>1528.0</ele>
        <time>2013-07-30T14:30:19Z</time>
      </trkpt>
      <trkpt lat="42.630347" lon="1.262284">
        <ele>1528.1</ele>
        <time>2013-07-30T14:30:35Z</time>
      </trkpt>
      <trkpt lat="42.630283" lon="1.262153">
        <ele>1527.1</ele>
        <time>2013-07-30T14:30:47Z</time>
      </trkpt>
      <trkpt lat="42.630242" lon="1.262005">
        <ele>1526.8</ele>
        <time>2013-07-30T14:30:59Z</time>
      </trkpt>
      <trkpt lat="42.630229" lon="1.261961">
        <ele>1527.2</ele>
        <time>2013-07-30T14:31:04Z</time>
      </trkpt>
      <trkpt lat="42.630201" lon="1.261828">
        <ele>1525.9</ele>
        <time>2013-07-30T14:31:15Z</time>
      </trkpt>
      <trkpt lat="42.630199" lon="1.261777">
        <ele>1525.7</ele>
        <time>2013-07-30T14:31:19Z</time>
      </trkpt>
      <trkpt lat="42.630193" lon="1.261757">
        <ele>1526.6</ele>
        <time>2013-07-30T14:31:21Z</time>
      </trkpt>
      <trkpt lat="42.630105" lon="1.261641">
        <ele>1535.2</ele>
        <time>2013-07-30T14:31:33Z</time>
      </trkpt>
      <trkpt lat="42.630060" lon="1.261578">
        <ele>1532.9</ele>
        <time>2013-07-30T14:31:45Z</time>
      </trkpt>
      <trkpt lat="42.630044" lon="1.261516">
        <ele>1529.9</ele>
        <time>2013-07-30T14:31:51Z</time>
      </trkpt>
      <trkpt lat="42.630037" lon="1.261462">
        <ele>1528.5</ele>
        <time>2013-07-30T14:31:55Z</time>
      </trkpt>
      <trkpt lat="42.630052" lon="1.261303">
        <ele>1528.1</ele>
        <time>2013-07-30T14:32:09Z</time>
      </trkpt>
      <trkpt lat="42.630051" lon="1.261282">
        <ele>1528.8</ele>
        <time>2013-07-30T14:32:11Z</time>
      </trkpt>
      <trkpt lat="42.630040" lon="1.261223">
        <ele>1530.2</ele>
        <time>2013-07-30T14:32:16Z</time>
      </trkpt>
      <trkpt lat="42.630043" lon="1.261152">
        <ele>1529.3</ele>
        <time>2013-07-30T14:32:25Z</time>
      </trkpt>
      <trkpt lat="42.630040" lon="1.261030">
        <ele>1530.0</ele>
        <time>2013-07-30T14:32:37Z</time>
      </trkpt>
      <trkpt lat="42.630058" lon="1.260902">
        <ele>1529.8</ele>
        <time>2013-07-30T14:32:47Z</time>
      </trkpt>
      <trkpt lat="42.630081" lon="1.260740">
        <ele>1529.5</ele>
        <time>2013-07-30T14:32:58Z</time>
      </trkpt>
      <trkpt lat="42.630163" lon="1.260576">
        <ele>1528.6</ele>
        <time>2013-07-30T14:33:09Z</time>
      </trkpt>
      <trkpt lat="42.630213" lon="1.260333">
        <ele>1529.4</ele>
        <time>2013-07-30T14:33:23Z</time>
      </trkpt>
      <trkpt lat="42.630205" lon="1.260141">
        <ele>1528.9</ele>
        <time>2013-07-30T14:33:35Z</time>
      </trkpt>
      <trkpt lat="42.630214" lon="1.259969">
        <ele>1525.9</ele>
        <time>2013-07-30T14:33:45Z</time>
      </trkpt>
      <trkpt lat="42.630188" lon="1.259844">
        <ele>1524.6</ele>
        <time>2013-07-30T14:33:54Z</time>
      </trkpt>
      <trkpt lat="42.630124" lon="1.259660">
        <ele>1523.6</ele>
        <time>2013-07-30T14:34:07Z</time>
      </trkpt>
      <trkpt lat="42.630104" lon="1.259593">
        <ele>1522.5</ele>
        <time>2013-07-30T14:42:08Z</time>
      </trkpt>
      <trkpt lat="42.630031" lon="1.259476">
        <ele>1521.8</ele>
        <time>2013-07-30T14:42:20Z</time>
      </trkpt>
      <trkpt lat="42.630017" lon="1.259446">
        <ele>1521.6</ele>
        <time>2013-07-30T14:42:22Z</time>
      </trkpt>
      <trkpt lat="42.629991" lon="1.259406">
        <ele>1521.7</ele>
        <time>2013-07-30T14:42:25Z</time>
      </trkpt>
      <trkpt lat="42.629970" lon="1.259376">
        <ele>1521.7</ele>
        <time>2013-07-30T14:42:28Z</time>
      </trkpt>
      <trkpt lat="42.629895" lon="1.259272">
        <ele>1522.1</ele>
        <time>2013-07-30T14:42:37Z</time>
      </trkpt>
      <trkpt lat="42.629805" lon="1.259236">
        <ele>1523.0</ele>
        <time>2013-07-30T14:42:46Z</time>
      </trkpt>
      <trkpt lat="42.629699" lon="1.259158">
        <ele>1521.6</ele>
        <time>2013-07-30T14:42:57Z</time>
      </trkpt>
      <trkpt lat="42.629681" lon="1.259141">
        <ele>1521.1</ele>
        <time>2013-07-30T14:42:59Z</time>
      </trkpt>
      <trkpt lat="42.629544" lon="1.259117">
        <ele>1521.9</ele>
        <time>2013-07-30T14:43:11Z</time>
      </trkpt>
      <trkpt lat="42.629465" lon="1.259106">
        <ele>1522.1</ele>
        <time>2013-07-30T14:43:20Z</time>
      </trkpt>
      <trkpt lat="42.629431" lon="1.259109">
        <ele>1522.9</ele>
        <time>2013-07-30T14:43:25Z</time>
      </trkpt>
      <trkpt lat="42.629380" lon="1.259114">
        <ele>1524.2</ele>
        <time>2013-07-30T14:43:31Z</time>
      </trkpt>
      <trkpt lat="42.629316" lon="1.259121">
        <ele>1525.3</ele>
        <time>2013-07-30T14:43:37Z</time>
      </trkpt>
      <trkpt lat="42.629292" lon="1.259126">
        <ele>1526.0</ele>
        <time>2013-07-30T14:43:41Z</time>
      </trkpt>
      <trkpt lat="42.629257" lon="1.259106">
        <ele>1525.2</ele>
        <time>2013-07-30T14:43:45Z</time>
      </trkpt>
      <trkpt lat="42.629142" lon="1.259112">
        <ele>1527.7</ele>
        <time>2013-07-30T14:43:59Z</time>
      </trkpt>
      <trkpt lat="42.629059" lon="1.259121">
        <ele>1528.0</ele>
        <time>2013-07-30T14:44:08Z</time>
      </trkpt>
      <trkpt lat="42.629002" lon="1.259125">
        <ele>1527.5</ele>
        <time>2013-07-30T14:44:12Z</time>
      </trkpt>
      <trkpt lat="42.628926" lon="1.259133">
        <ele>1527.3</ele>
        <time>2013-07-30T14:44:19Z</time>
      </trkpt>
      <trkpt lat="42.628792" lon="1.259157">
        <ele>1528.1</ele>
        <time>2013-07-30T14:44:31Z</time>
      </trkpt>
      <trkpt lat="42.628727" lon="1.259168">
        <ele>1528.1</ele>
        <time>2013-07-30T14:44:37Z</time>
      </trkpt>
      <trkpt lat="42.628634" lon="1.259188">
        <ele>1527.3</ele>
        <time>2013-07-30T14:44:46Z</time>
      </trkpt>
      <trkpt lat="42.628525" lon="1.259260">
        <ele>1526.1</ele>
        <time>2013-07-30T14:44:58Z</time>
      </trkpt>
      <trkpt lat="42.628493" lon="1.259268">
        <ele>1525.2</ele>
        <time>2013-07-30T14:45:02Z</time>
      </trkpt>
      <trkpt lat="42.628448" lon="1.259282">
        <ele>1523.6</ele>
        <time>2013-07-30T14:45:06Z</time>
      </trkpt>
      <trkpt lat="42.628400" lon="1.259290">
        <ele>1521.9</ele>
        <time>2013-07-30T14:45:12Z</time>
      </trkpt>
      <trkpt lat="42.628266" lon="1.259279">
        <ele>1521.7</ele>
        <time>2013-07-30T14:45:26Z</time>
      </trkpt>
      <trkpt lat="42.628266" lon="1.259279">
        <ele>1521.7</ele>
        <time>2013-07-30T14:45:53Z</time>
      </trkpt>
      <trkpt lat="42.628271" lon="1.259290">
        <ele>1522.3</ele>
        <time>2013-07-30T14:46:16Z</time>
      </trkpt>
      <trkpt lat="42.628243" lon="1.259301">
        <ele>1522.7</ele>
        <time>2013-07-30T14:46:38Z</time>
      </trkpt>
      <trkpt lat="42.628206" lon="1.259297">
        <ele>1521.9</ele>
        <time>2013-07-30T14:46:41Z</time>
      </trkpt>
      <trkpt lat="42.628152" lon="1.259306">
        <ele>1520.4</ele>
        <time>2013-07-30T14:46:46Z</time>
      </trkpt>
      <trkpt lat="42.628093" lon="1.259304">
        <ele>1517.5</ele>
        <time>2013-07-30T14:46:57Z</time>
      </trkpt>
      <trkpt lat="42.628067" lon="1.259403">
        <ele>1518.5</ele>
        <time>2013-07-30T14:47:08Z</time>
      </trkpt>
      <trkpt lat="42.628044" lon="1.259440">
        <ele>1517.5</ele>
        <time>2013-07-30T14:47:12Z</time>
      </trkpt>
      <trkpt lat="42.627941" lon="1.259577">
        <ele>1517.6</ele>
        <time>2013-07-30T14:47:23Z</time>
      </trkpt>
      <trkpt lat="42.627887" lon="1.259619">
        <ele>1518.7</ele>
        <time>2013-07-30T14:47:36Z</time>
      </trkpt>
      <trkpt lat="42.627783" lon="1.259678">
        <ele>1521.6</ele>
        <time>2013-07-30T14:47:48Z</time>
      </trkpt>
      <trkpt lat="42.627759" lon="1.259682">
        <ele>1521.7</ele>
        <time>2013-07-30T14:47:51Z</time>
      </trkpt>
      <trkpt lat="42.627660" lon="1.259736">
        <ele>1519.5</ele>
        <time>2013-07-30T14:48:03Z</time>
      </trkpt>
      <trkpt lat="42.627652" lon="1.259746">
        <ele>1519.4</ele>
        <time>2013-07-30T14:48:04Z</time>
      </trkpt>
      <trkpt lat="42.627622" lon="1.259784">
        <ele>1518.6</ele>
        <time>2013-07-30T14:48:07Z</time>
      </trkpt>
      <trkpt lat="42.627602" lon="1.259837">
        <ele>1519.8</ele>
        <time>2013-07-30T14:48:11Z</time>
      </trkpt>
      <trkpt lat="42.627532" lon="1.259911">
        <ele>1519.1</ele>
        <time>2013-07-30T14:48:21Z</time>
      </trkpt>
      <trkpt lat="42.627481" lon="1.259882">
        <ele>1518.3</ele>
        <time>2013-07-30T14:48:26Z</time>
      </trkpt>
      <trkpt lat="42.627439" lon="1.259848">
        <ele>1517.8</ele>
        <time>2013-07-30T14:48:31Z</time>
      </trkpt>
      <trkpt lat="42.627300" lon="1.259846">
        <ele>1516.3</ele>
        <time>2013-07-30T14:48:46Z</time>
      </trkpt>
      <trkpt lat="42.627301" lon="1.259849">
        <ele>1516.6</ele>
        <time>2013-07-30T14:48:50Z</time>
      </trkpt>
      <trkpt lat="42.627252" lon="1.259868">
        <ele>1516.1</ele>
        <time>2013-07-30T14:49:03Z</time>
      </trkpt>
      <trkpt lat="42.627205" lon="1.259882">
        <ele>1515.4</ele>
        <time>2013-07-30T14:49:08Z</time>
      </trkpt>
      <trkpt lat="42.627145" lon="1.259890">
        <ele>1515.5</ele>
        <time>2013-07-30T14:49:13Z</time>
      </trkpt>
      <trkpt lat="42.627118" lon="1.259886">
        <ele>1515.7</ele>
        <time>2013-07-30T14:49:15Z</time>
      </trkpt>
      <trkpt lat="42.627046" lon="1.259820">
        <ele>1515.6</ele>
        <time>2013-07-30T14:49:24Z</time>
      </trkpt>
      <trkpt lat="42.627014" lon="1.259714">
        <ele>1513.9</ele>
        <time>2013-07-30T14:49:36Z</time>
      </trkpt>
      <trkpt lat="42.627006" lon="1.259691">
        <ele>1514.5</ele>
        <time>2013-07-30T14:49:40Z</time>
      </trkpt>
      <trkpt lat="42.626998" lon="1.259637">
        <ele>1515.3</ele>
        <time>2013-07-30T14:49:45Z</time>
      </trkpt>
      <trkpt lat="42.626979" lon="1.259571">
        <ele>1516.9</ele>
        <time>2013-07-30T14:49:51Z</time>
      </trkpt>
      <trkpt lat="42.626924" lon="1.259435">
        <ele>1519.2</ele>
        <time>2013-07-30T14:50:03Z</time>
      </trkpt>
      <trkpt lat="42.626861" lon="1.259348">
        <ele>1522.0</ele>
        <time>2013-07-30T14:50:14Z</time>
      </trkpt>
      <trkpt lat="42.626817" lon="1.259292">
        <ele>1522.8</ele>
        <time>2013-07-30T14:50:20Z</time>
      </trkpt>
      <trkpt lat="42.626758" lon="1.259207">
        <ele>1523.4</ele>
        <time>2013-07-30T14:50:32Z</time>
      </trkpt>
      <trkpt lat="42.626746" lon="1.259196">
        <ele>1524.1</ele>
        <time>2013-07-30T14:50:35Z</time>
      </trkpt>
      <trkpt lat="42.626677" lon="1.259079">
        <ele>1525.2</ele>
        <time>2013-07-30T14:50:46Z</time>
      </trkpt>
      <trkpt lat="42.626618" lon="1.258958">
        <ele>1525.8</ele>
        <time>2013-07-30T14:50:57Z</time>
      </trkpt>
      <trkpt lat="42.626561" lon="1.258838">
        <ele>1526.9</ele>
        <time>2013-07-30T14:51:08Z</time>
      </trkpt>
      <trkpt lat="42.626479" lon="1.258761">
        <ele>1529.9</ele>
        <time>2013-07-30T14:51:19Z</time>
      </trkpt>
      <trkpt lat="42.626423" lon="1.258679">
        <ele>1531.7</ele>
        <time>2013-07-30T14:51:29Z</time>
      </trkpt>
      <trkpt lat="42.626417" lon="1.258655">
        <ele>1531.4</ele>
        <time>2013-07-30T14:51:31Z</time>
      </trkpt>
      <trkpt lat="42.626312" lon="1.258512">
        <ele>1532.0</ele>
        <time>2013-07-30T14:51:44Z</time>
      </trkpt>
      <trkpt lat="42.626293" lon="1.258495">
        <ele>1532.2</ele>
        <time>2013-07-30T14:51:46Z</time>
      </trkpt>
      <trkpt lat="42.626267" lon="1.258455">
        <ele>1532.4</ele>
        <time>2013-07-30T14:51:50Z</time>
      </trkpt>
      <trkpt lat="42.626194" lon="1.258319">
        <ele>1532.8</ele>
        <time>2013-07-30T14:52:02Z</time>
      </trkpt>
      <trkpt lat="42.626124" lon="1.258285">
        <ele>1532.7</ele>
        <time>2013-07-30T14:52:09Z</time>
      </trkpt>
      <trkpt lat="42.626061" lon="1.258268">
        <ele>1533.1</ele>
        <time>2013-07-30T14:52:16Z</time>
      </trkpt>
      <trkpt lat="42.625995" lon="1.258246">
        <ele>1535.1</ele>
        <time>2013-07-30T14:52:25Z</time>
      </trkpt>
      <trkpt lat="42.625883" lon="1.258156">
        <ele>1535.4</ele>
        <time>2013-07-30T14:52:37Z</time>
      </trkpt>
      <trkpt lat="42.625763" lon="1.258159">
        <ele>1536.0</ele>
        <time>2013-07-30T14:52:48Z</time>
      </trkpt>
      <trkpt lat="42.625696" lon="1.258208">
        <ele>1536.8</ele>
        <time>2013-07-30T14:52:55Z</time>
      </trkpt>
      <trkpt lat="42.625634" lon="1.258232">
        <ele>1536.3</ele>
        <time>2013-07-30T14:53:00Z</time>
      </trkpt>
      <trkpt lat="42.625574" lon="1.258267">
        <ele>1536.5</ele>
        <time>2013-07-30T14:53:06Z</time>
      </trkpt>
      <trkpt lat="42.625496" lon="1.258303">
        <ele>1537.8</ele>
        <time>2013-07-30T14:53:15Z</time>
      </trkpt>
      <trkpt lat="42.625438" lon="1.258295">
        <ele>1537.7</ele>
        <time>2013-07-30T14:53:20Z</time>
      </trkpt>
      <trkpt lat="42.625353" lon="1.258252">
        <ele>1537.9</ele>
        <time>2013-07-30T14:53:30Z</time>
      </trkpt>
      <trkpt lat="42.625306" lon="1.258249">
        <ele>1537.9</ele>
        <time>2013-07-30T14:53:35Z</time>
      </trkpt>
      <trkpt lat="42.625284" lon="1.258228">
        <ele>1536.6</ele>
        <time>2013-07-30T14:53:38Z</time>
      </trkpt>
      <trkpt lat="42.625160" lon="1.258113">
        <ele>1535.9</ele>
        <time>2013-07-30T14:53:52Z</time>
      </trkpt>
      <trkpt lat="42.625135" lon="1.258094">
        <ele>1535.2</ele>
        <time>2013-07-30T14:53:55Z</time>
      </trkpt>
      <trkpt lat="42.625102" lon="1.258092">
        <ele>1535.5</ele>
        <time>2013-07-30T14:53:58Z</time>
      </trkpt>
      <trkpt lat="42.625015" lon="1.258061">
        <ele>1534.9</ele>
        <time>2013-07-30T14:54:05Z</time>
      </trkpt>
      <trkpt lat="42.624886" lon="1.257995">
        <ele>1534.8</ele>
        <time>2013-07-30T14:54:18Z</time>
      </trkpt>
      <trkpt lat="42.624854" lon="1.257986">
        <ele>1535.0</ele>
        <time>2013-07-30T14:54:21Z</time>
      </trkpt>
      <trkpt lat="42.624824" lon="1.257978">
        <ele>1535.2</ele>
        <time>2013-07-30T14:54:24Z</time>
      </trkpt>
      <trkpt lat="42.624779" lon="1.257975">
        <ele>1535.4</ele>
        <time>2013-07-30T14:54:29Z</time>
      </trkpt>
      <trkpt lat="42.624739" lon="1.257970">
        <ele>1534.8</ele>
        <time>2013-07-30T14:54:33Z</time>
      </trkpt>
      <trkpt lat="42.624694" lon="1.257954">
        <ele>1533.9</ele>
        <time>2013-07-30T14:54:37Z</time>
      </trkpt>
      <trkpt lat="42.624572" lon="1.257949">
        <ele>1532.7</ele>
        <time>2013-07-30T14:54:49Z</time>
      </trkpt>
      <trkpt lat="42.624546" lon="1.257938">
        <ele>1531.9</ele>
        <time>2013-07-30T14:54:52Z</time>
      </trkpt>
      <trkpt lat="42.624411" lon="1.257921">
        <ele>1531.1</ele>
        <time>2013-07-30T14:55:05Z</time>
      </trkpt>
      <trkpt lat="42.624387" lon="1.257913">
        <ele>1530.8</ele>
        <time>2013-07-30T14:55:08Z</time>
      </trkpt>
      <trkpt lat="42.624295" lon="1.257934">
        <ele>1530.5</ele>
        <time>2013-07-30T14:55:15Z</time>
      </trkpt>
      <trkpt lat="42.624152" lon="1.258006">
        <ele>1530.2</ele>
        <time>2013-07-30T14:55:28Z</time>
      </trkpt>
      <trkpt lat="42.624049" lon="1.258120">
        <ele>1532.4</ele>
        <time>2013-07-30T14:55:39Z</time>
      </trkpt>
      <trkpt lat="42.624042" lon="1.258132">
        <ele>1532.7</ele>
        <time>2013-07-30T14:55:40Z</time>
      </trkpt>
      <trkpt lat="42.624005" lon="1.258156">
        <ele>1532.7</ele>
        <time>2013-07-30T14:55:44Z</time>
      </trkpt>
      <trkpt lat="42.623938" lon="1.258223">
        <ele>1532.3</ele>
        <time>2013-07-30T14:55:51Z</time>
      </trkpt>
      <trkpt lat="42.623806" lon="1.258286">
        <ele>1532.6</ele>
        <time>2013-07-30T14:56:04Z</time>
      </trkpt>
      <trkpt lat="42.623728" lon="1.258259">
        <ele>1532.6</ele>
        <time>2013-07-30T14:56:11Z</time>
      </trkpt>
      <trkpt lat="42.623618" lon="1.258230">
        <ele>1535.6</ele>
        <time>2013-07-30T14:56:23Z</time>
      </trkpt>
      <trkpt lat="42.623473" lon="1.258282">
        <ele>1535.5</ele>
        <time>2013-07-30T14:56:37Z</time>
      </trkpt>
      <trkpt lat="42.623363" lon="1.258326">
        <ele>1536.1</ele>
        <time>2013-07-30T14:56:50Z</time>
      </trkpt>
      <trkpt lat="42.623242" lon="1.258384">
        <ele>1535.2</ele>
        <time>2013-07-30T14:57:02Z</time>
      </trkpt>
      <trkpt lat="42.623154" lon="1.258484">
        <ele>1536.6</ele>
        <time>2013-07-30T14:57:13Z</time>
      </trkpt>
      <trkpt lat="42.623072" lon="1.258609">
        <ele>1537.0</ele>
        <time>2013-07-30T14:57:24Z</time>
      </trkpt>
      <trkpt lat="42.623060" lon="1.258629">
        <ele>1537.2</ele>
        <time>2013-07-30T14:57:26Z</time>
      </trkpt>
      <trkpt lat="42.623003" lon="1.258769">
        <ele>1537.5</ele>
        <time>2013-07-30T14:57:38Z</time>
      </trkpt>
      <trkpt lat="42.622912" lon="1.258974">
        <ele>1536.8</ele>
        <time>2013-07-30T14:57:52Z</time>
      </trkpt>
      <trkpt lat="42.622849" lon="1.259087">
        <ele>1537.4</ele>
        <time>2013-07-30T14:58:01Z</time>
      </trkpt>
      <trkpt lat="42.622747" lon="1.259252">
        <ele>1536.8</ele>
        <time>2013-07-30T14:58:14Z</time>
      </trkpt>
      <trkpt lat="42.622714" lon="1.259341">
        <ele>1536.1</ele>
        <time>2013-07-30T14:58:21Z</time>
      </trkpt>
      <trkpt lat="42.622633" lon="1.259477">
        <ele>1533.2</ele>
        <time>2013-07-30T14:58:34Z</time>
      </trkpt>
      <trkpt lat="42.622621" lon="1.259508">
        <ele>1532.8</ele>
        <time>2013-07-30T14:58:36Z</time>
      </trkpt>
      <trkpt lat="42.622614" lon="1.259545">
        <ele>1532.8</ele>
        <time>2013-07-30T14:58:39Z</time>
      </trkpt>
      <trkpt lat="42.622538" lon="1.259750">
        <ele>1531.9</ele>
        <time>2013-07-30T14:58:53Z</time>
      </trkpt>
      <trkpt lat="42.622529" lon="1.259771">
        <ele>1532.0</ele>
        <time>2013-07-30T14:58:55Z</time>
      </trkpt>
      <trkpt lat="42.622446" lon="1.259909">
        <ele>1531.9</ele>
        <time>2013-07-30T14:59:07Z</time>
      </trkpt>
      <trkpt lat="42.622385" lon="1.260052">
        <ele>1533.5</ele>
        <time>2013-07-30T14:59:18Z</time>
      </trkpt>
      <trkpt lat="42.622365" lon="1.260118">
        <ele>1534.3</ele>
        <time>2013-07-30T14:59:24Z</time>
      </trkpt>
      <trkpt lat="42.622341" lon="1.260153">
        <ele>1533.7</ele>
        <time>2013-07-30T14:59:27Z</time>
      </trkpt>
      <trkpt lat="42.622216" lon="1.260296">
        <ele>1532.2</ele>
        <time>2013-07-30T14:59:41Z</time>
      </trkpt>
      <trkpt lat="42.622171" lon="1.260365">
        <ele>1530.7</ele>
        <time>2013-07-30T14:59:48Z</time>
      </trkpt>
      <trkpt lat="42.622148" lon="1.260411">
        <ele>1530.5</ele>
        <time>2013-07-30T14:59:52Z</time>
      </trkpt>
      <trkpt lat="42.622117" lon="1.260437">
        <ele>1529.4</ele>
        <time>2013-07-30T14:59:56Z</time>
      </trkpt>
      <trkpt lat="42.622062" lon="1.260509">
        <ele>1529.5</ele>
        <time>2013-07-30T15:00:03Z</time>
      </trkpt>
      <trkpt lat="42.621959" lon="1.260536">
        <ele>1527.5</ele>
        <time>2013-07-30T15:00:16Z</time>
      </trkpt>
      <trkpt lat="42.621921" lon="1.260573">
        <ele>1528.0</ele>
        <time>2013-07-30T15:00:22Z</time>
      </trkpt>
      <trkpt lat="42.621826" lon="1.260617">
        <ele>1527.1</ele>
        <time>2013-07-30T15:00:34Z</time>
      </trkpt>
      <trkpt lat="42.621810" lon="1.260638">
        <ele>1527.5</ele>
        <time>2013-07-30T15:00:37Z</time>
      </trkpt>
      <trkpt lat="42.621747" lon="1.260684">
        <ele>1527.2</ele>
        <time>2013-07-30T15:00:44Z</time>
      </trkpt>
      <trkpt lat="42.621663" lon="1.260768">
        <ele>1527.7</ele>
        <time>2013-07-30T15:00:56Z</time>
      </trkpt>
      <trkpt lat="42.621600" lon="1.260849">
        <ele>1528.8</ele>
        <time>2013-07-30T15:01:06Z</time>
      </trkpt>
      <trkpt lat="42.621492" lon="1.260969">
        <ele>1528.5</ele>
        <time>2013-07-30T15:01:19Z</time>
      </trkpt>
      <trkpt lat="42.621436" lon="1.261036">
        <ele>1528.4</ele>
        <time>2013-07-30T15:01:27Z</time>
      </trkpt>
      <trkpt lat="42.621321" lon="1.261171">
        <ele>1527.6</ele>
        <time>2013-07-30T15:01:41Z</time>
      </trkpt>
      <trkpt lat="42.621238" lon="1.261313">
        <ele>1528.3</ele>
        <time>2013-07-30T15:01:52Z</time>
      </trkpt>
      <trkpt lat="42.621230" lon="1.261332">
        <ele>1528.4</ele>
        <time>2013-07-30T15:01:54Z</time>
      </trkpt>
      <trkpt lat="42.621212" lon="1.261416">
        <ele>1528.7</ele>
        <time>2013-07-30T15:02:00Z</time>
      </trkpt>
      <trkpt lat="42.621236" lon="1.261644">
        <ele>1526.5</ele>
        <time>2013-07-30T15:02:14Z</time>
      </trkpt>
      <trkpt lat="42.621233" lon="1.261840">
        <ele>1523.6</ele>
        <time>2013-07-30T15:02:27Z</time>
      </trkpt>
      <trkpt lat="42.621236" lon="1.261963">
        <ele>1521.9</ele>
        <time>2013-07-30T15:02:37Z</time>
      </trkpt>
      <trkpt lat="42.621231" lon="1.261986">
        <ele>1521.4</ele>
        <time>2013-07-30T15:02:50Z</time>
      </trkpt>
      <trkpt lat="42.621184" lon="1.262033">
        <ele>1519.4</ele>
        <time>2013-07-30T15:03:08Z</time>
      </trkpt>
      <trkpt lat="42.621134" lon="1.262078">
        <ele>1518.3</ele>
        <time>2013-07-30T15:03:12Z</time>
      </trkpt>
      <trkpt lat="42.621016" lon="1.262156">
        <ele>1515.8</ele>
        <time>2013-07-30T15:03:23Z</time>
      </trkpt>
      <trkpt lat="42.620975" lon="1.262207">
        <ele>1514.6</ele>
        <time>2013-07-30T15:03:27Z</time>
      </trkpt>
      <trkpt lat="42.620841" lon="1.262329">
        <ele>1512.7</ele>
        <time>2013-07-30T15:03:42Z</time>
      </trkpt>
      <trkpt lat="42.620834" lon="1.262332">
        <ele>1512.5</ele>
        <time>2013-07-30T15:03:43Z</time>
      </trkpt>
      <trkpt lat="42.620777" lon="1.262370">
        <ele>1511.4</ele>
        <time>2013-07-30T15:03:50Z</time>
      </trkpt>
      <trkpt lat="42.620723" lon="1.262363">
        <ele>1509.4</ele>
        <time>2013-07-30T15:03:55Z</time>
      </trkpt>
      <trkpt lat="42.620557" lon="1.262433">
        <ele>1505.9</ele>
        <time>2013-07-30T15:04:09Z</time>
      </trkpt>
      <trkpt lat="42.620426" lon="1.262516">
        <ele>1503.9</ele>
        <time>2013-07-30T15:04:24Z</time>
      </trkpt>
      <trkpt lat="42.620382" lon="1.262540">
        <ele>1503.2</ele>
        <time>2013-07-30T15:04:28Z</time>
      </trkpt>
      <trkpt lat="42.620364" lon="1.262563">
        <ele>1503.6</ele>
        <time>2013-07-30T15:04:30Z</time>
      </trkpt>
      <trkpt lat="42.620272" lon="1.262617">
        <ele>1503.2</ele>
        <time>2013-07-30T15:04:38Z</time>
      </trkpt>
      <trkpt lat="42.620169" lon="1.262687">
        <ele>1502.7</ele>
        <time>2013-07-30T15:04:47Z</time>
      </trkpt>
      <trkpt lat="42.620117" lon="1.262702">
        <ele>1502.4</ele>
        <time>2013-07-30T15:04:51Z</time>
      </trkpt>
      <trkpt lat="42.619995" lon="1.262810">
        <ele>1503.2</ele>
        <time>2013-07-30T15:05:03Z</time>
      </trkpt>
      <trkpt lat="42.619953" lon="1.262869">
        <ele>1502.9</ele>
        <time>2013-07-30T15:05:09Z</time>
      </trkpt>
      <trkpt lat="42.619857" lon="1.262925">
        <ele>1502.0</ele>
        <time>2013-07-30T15:05:17Z</time>
      </trkpt>
      <trkpt lat="42.619782" lon="1.262998">
        <ele>1502.7</ele>
        <time>2013-07-30T15:05:30Z</time>
      </trkpt>
      <trkpt lat="42.619699" lon="1.263055">
        <ele>1501.4</ele>
        <time>2013-07-30T15:05:39Z</time>
      </trkpt>
      <trkpt lat="42.619587" lon="1.263205">
        <ele>1499.9</ele>
        <time>2013-07-30T15:05:54Z</time>
      </trkpt>
      <trkpt lat="42.619545" lon="1.263251">
        <ele>1499.2</ele>
        <time>2013-07-30T15:05:58Z</time>
      </trkpt>
      <trkpt lat="42.619484" lon="1.263358">
        <ele>1496.9</ele>
        <time>2013-07-30T15:06:08Z</time>
      </trkpt>
      <trkpt lat="42.619376" lon="1.263461">
        <ele>1494.0</ele>
        <time>2013-07-30T15:06:20Z</time>
      </trkpt>
      <trkpt lat="42.619262" lon="1.263582">
        <ele>1492.0</ele>
        <time>2013-07-30T15:06:34Z</time>
      </trkpt>
      <trkpt lat="42.619098" lon="1.263667">
        <ele>1489.0</ele>
        <time>2013-07-30T15:06:48Z</time>
      </trkpt>
      <trkpt lat="42.619055" lon="1.263706">
        <ele>1488.3</ele>
        <time>2013-07-30T15:06:54Z</time>
      </trkpt>
      <trkpt lat="42.619036" lon="1.263726">
        <ele>1487.3</ele>
        <time>2013-07-30T15:06:56Z</time>
      </trkpt>
      <trkpt lat="42.618982" lon="1.263805">
        <ele>1485.3</ele>
        <time>2013-07-30T15:07:04Z</time>
      </trkpt>
      <trkpt lat="42.618905" lon="1.263903">
        <ele>1484.2</ele>
        <time>2013-07-30T15:07:12Z</time>
      </trkpt>
      <trkpt lat="42.618854" lon="1.263943">
        <ele>1483.7</ele>
        <time>2013-07-30T15:07:18Z</time>
      </trkpt>
      <trkpt lat="42.618838" lon="1.263967">
        <ele>1483.7</ele>
        <time>2013-07-30T15:07:20Z</time>
      </trkpt>
      <trkpt lat="42.618703" lon="1.264067">
        <ele>1481.5</ele>
        <time>2013-07-30T15:07:33Z</time>
      </trkpt>
      <trkpt lat="42.618564" lon="1.264119">
        <ele>1479.6</ele>
        <time>2013-07-30T15:07:46Z</time>
      </trkpt>
      <trkpt lat="42.618506" lon="1.264113">
        <ele>1480.7</ele>
        <time>2013-07-30T15:07:53Z</time>
      </trkpt>
      <trkpt lat="42.618477" lon="1.264083">
        <ele>1481.2</ele>
        <time>2013-07-30T15:07:57Z</time>
      </trkpt>
      <trkpt lat="42.618425" lon="1.264048">
        <ele>1482.0</ele>
        <time>2013-07-30T15:08:03Z</time>
      </trkpt>
      <trkpt lat="42.618391" lon="1.264044">
        <ele>1482.6</ele>
        <time>2013-07-30T15:08:18Z</time>
      </trkpt>
      <trkpt lat="42.618383" lon="1.264040">
        <ele>1482.4</ele>
        <time>2013-07-30T15:08:37Z</time>
      </trkpt>
      <trkpt lat="42.618383" lon="1.264040">
        <ele>1482.4</ele>
        <time>2013-07-30T15:08:51Z</time>
      </trkpt>
      <trkpt lat="42.618194" lon="1.264069">
        <ele>1482.6</ele>
        <time>2013-07-30T15:09:07Z</time>
      </trkpt>
      <trkpt lat="42.618058" lon="1.264130">
        <ele>1482.6</ele>
        <time>2013-07-30T15:09:20Z</time>
      </trkpt>
      <trkpt lat="42.617968" lon="1.264235">
        <ele>1482.7</ele>
        <time>2013-07-30T15:09:31Z</time>
      </trkpt>
      <trkpt lat="42.617962" lon="1.264237">
        <ele>1482.6</ele>
        <time>2013-07-30T15:09:32Z</time>
      </trkpt>
      <trkpt lat="42.617798" lon="1.264307">
        <ele>1481.2</ele>
        <time>2013-07-30T15:09:46Z</time>
      </trkpt>
      <trkpt lat="42.617764" lon="1.264346">
        <ele>1481.5</ele>
        <time>2013-07-30T15:09:50Z</time>
      </trkpt>
      <trkpt lat="42.617620" lon="1.264454">
        <ele>1481.4</ele>
        <time>2013-07-30T15:10:03Z</time>
      </trkpt>
      <trkpt lat="42.617543" lon="1.264518">
        <ele>1483.1</ele>
        <time>2013-07-30T15:10:12Z</time>
      </trkpt>
      <trkpt lat="42.617429" lon="1.264606">
        <ele>1483.1</ele>
        <time>2013-07-30T15:10:25Z</time>
      </trkpt>
      <trkpt lat="42.617333" lon="1.264667">
        <ele>1482.1</ele>
        <time>2013-07-30T15:10:34Z</time>
      </trkpt>
      <trkpt lat="42.617285" lon="1.264720">
        <ele>1482.0</ele>
        <time>2013-07-30T15:10:39Z</time>
      </trkpt>
      <trkpt lat="42.617199" lon="1.264874">
        <ele>1482.1</ele>
        <time>2013-07-30T15:10:53Z</time>
      </trkpt>
      <trkpt lat="42.617186" lon="1.264899">
        <ele>1482.1</ele>
        <time>2013-07-30T15:10:55Z</time>
      </trkpt>
      <trkpt lat="42.617107" lon="1.264982">
        <ele>1480.2</ele>
        <time>2013-07-30T15:11:10Z</time>
      </trkpt>
      <trkpt lat="42.617104" lon="1.264981">
        <ele>1480.0</ele>
        <time>2013-07-30T15:11:47Z</time>
      </trkpt>
      <trkpt lat="42.617046" lon="1.265088">
        <ele>1479.0</ele>
        <time>2013-07-30T15:12:09Z</time>
      </trkpt>
      <trkpt lat="42.617040" lon="1.265102">
        <ele>1479.0</ele>
        <time>2013-07-30T15:12:10Z</time>
      </trkpt>
      <trkpt lat="42.616972" lon="1.265292">
        <ele>1478.2</ele>
        <time>2013-07-30T15:12:24Z</time>
      </trkpt>
      <trkpt lat="42.616945" lon="1.265528">
        <ele>1476.2</ele>
        <time>2013-07-30T15:12:38Z</time>
      </trkpt>
      <trkpt lat="42.616951" lon="1.265700">
        <ele>1477.3</ele>
        <time>2013-07-30T15:12:49Z</time>
      </trkpt>
      <trkpt lat="42.616948" lon="1.265948">
        <ele>1474.1</ele>
        <time>2013-07-30T15:13:06Z</time>
      </trkpt>
      <trkpt lat="42.616938" lon="1.266114">
        <ele>1470.6</ele>
        <time>2013-07-30T15:13:18Z</time>
      </trkpt>
      <trkpt lat="42.616969" lon="1.266250">
        <ele>1467.7</ele>
        <time>2013-07-30T15:13:27Z</time>
      </trkpt>
      <trkpt lat="42.616979" lon="1.266274">
        <ele>1467.1</ele>
        <time>2013-07-30T15:13:29Z</time>
      </trkpt>
      <trkpt lat="42.617011" lon="1.266337">
        <ele>1465.9</ele>
        <time>2013-07-30T15:13:34Z</time>
      </trkpt>
      <trkpt lat="42.617046" lon="1.266380">
        <ele>1465.4</ele>
        <time>2013-07-30T15:13:38Z</time>
      </trkpt>
      <trkpt lat="42.617085" lon="1.266452">
        <ele>1463.9</ele>
        <time>2013-07-30T15:13:45Z</time>
      </trkpt>
      <trkpt lat="42.617193" lon="1.266612">
        <ele>1464.1</ele>
        <time>2013-07-30T15:13:59Z</time>
      </trkpt>
      <trkpt lat="42.617286" lon="1.266708">
        <ele>1463.6</ele>
        <time>2013-07-30T15:14:11Z</time>
      </trkpt>
      <trkpt lat="42.617328" lon="1.266746">
        <ele>1463.1</ele>
        <time>2013-07-30T15:14:17Z</time>
      </trkpt>
      <trkpt lat="42.617454" lon="1.266884">
        <ele>1460.2</ele>
        <time>2013-07-30T15:14:31Z</time>
      </trkpt>
      <trkpt lat="42.617566" lon="1.267054">
        <ele>1459.0</ele>
        <time>2013-07-30T15:14:44Z</time>
      </trkpt>
      <trkpt lat="42.617624" lon="1.267166">
        <ele>1456.8</ele>
        <time>2013-07-30T15:14:52Z</time>
      </trkpt>
      <trkpt lat="42.617727" lon="1.267278">
        <ele>1457.5</ele>
        <time>2013-07-30T15:15:04Z</time>
      </trkpt>
      <trkpt lat="42.617742" lon="1.267298">
        <ele>1457.4</ele>
        <time>2013-07-30T15:15:06Z</time>
      </trkpt>
      <trkpt lat="42.617787" lon="1.267332">
        <ele>1458.6</ele>
        <time>2013-07-30T15:15:10Z</time>
      </trkpt>
      <trkpt lat="42.617867" lon="1.267418">
        <ele>1460.5</ele>
        <time>2013-07-30T15:15:22Z</time>
      </trkpt>
      <trkpt lat="42.617879" lon="1.267438">
        <ele>1460.8</ele>
        <time>2013-07-30T15:15:25Z</time>
      </trkpt>
      <trkpt lat="42.617916" lon="1.267494">
        <ele>1461.3</ele>
        <time>2013-07-30T15:15:31Z</time>
      </trkpt>
      <trkpt lat="42.617943" lon="1.267555">
        <ele>1460.9</ele>
        <time>2013-07-30T15:15:36Z</time>
      </trkpt>
      <trkpt lat="42.617976" lon="1.267630">
        <ele>1460.5</ele>
        <time>2013-07-30T15:15:41Z</time>
      </trkpt>
      <trkpt lat="42.617985" lon="1.267662">
        <ele>1460.0</ele>
        <time>2013-07-30T15:15:43Z</time>
      </trkpt>
      <trkpt lat="42.618072" lon="1.267751">
        <ele>1460.5</ele>
        <time>2013-07-30T15:15:55Z</time>
      </trkpt>
      <trkpt lat="42.618125" lon="1.267849">
        <ele>1459.4</ele>
        <time>2013-07-30T15:16:05Z</time>
      </trkpt>
      <trkpt lat="42.618187" lon="1.268053">
        <ele>1458.0</ele>
        <time>2013-07-30T15:16:18Z</time>
      </trkpt>
      <trkpt lat="42.618237" lon="1.268160">
        <ele>1458.9</ele>
        <time>2013-07-30T15:16:29Z</time>
      </trkpt>
      <trkpt lat="42.618253" lon="1.268283">
        <ele>1456.1</ele>
        <time>2013-07-30T15:16:38Z</time>
      </trkpt>
      <trkpt lat="42.618268" lon="1.268389">
        <ele>1457.3</ele>
        <time>2013-07-30T15:16:50Z</time>
      </trkpt>
      <trkpt lat="42.618213" lon="1.268431">
        <ele>1458.8</ele>
        <time>2013-07-30T15:16:57Z</time>
      </trkpt>
      <trkpt lat="42.618183" lon="1.268442">
        <ele>1460.1</ele>
        <time>2013-07-30T15:17:00Z</time>
      </trkpt>
      <trkpt lat="42.618100" lon="1.268438">
        <ele>1460.6</ele>
        <time>2013-07-30T15:17:06Z</time>
      </trkpt>
      <trkpt lat="42.618031" lon="1.268420">
        <ele>1460.0</ele>
        <time>2013-07-30T15:17:11Z</time>
      </trkpt>
      <trkpt lat="42.617905" lon="1.268394">
        <ele>1459.6</ele>
        <time>2013-07-30T15:17:22Z</time>
      </trkpt>
      <trkpt lat="42.617894" lon="1.268395">
        <ele>1459.7</ele>
        <time>2013-07-30T15:17:23Z</time>
      </trkpt>
      <trkpt lat="42.617742" lon="1.268371">
        <ele>1459.3</ele>
        <time>2013-07-30T15:17:36Z</time>
      </trkpt>
      <trkpt lat="42.617612" lon="1.268394">
        <ele>1460.8</ele>
        <time>2013-07-30T15:17:47Z</time>
      </trkpt>
      <trkpt lat="42.617519" lon="1.268401">
        <ele>1459.2</ele>
        <time>2013-07-30T15:17:57Z</time>
      </trkpt>
      <trkpt lat="42.617486" lon="1.268406">
        <ele>1459.0</ele>
        <time>2013-07-30T15:18:11Z</time>
      </trkpt>
      <trkpt lat="42.617486" lon="1.268407">
        <ele>1459.0</ele>
        <time>2013-07-30T15:18:47Z</time>
      </trkpt>
      <trkpt lat="42.617449" lon="1.268409">
        <ele>1458.4</ele>
        <time>2013-07-30T15:19:08Z</time>
      </trkpt>
      <trkpt lat="42.617434" lon="1.268413">
        <ele>1458.3</ele>
        <time>2013-07-30T15:19:20Z</time>
      </trkpt>
      <trkpt lat="42.617378" lon="1.268421">
        <ele>1458.6</ele>
        <time>2013-07-30T15:19:24Z</time>
      </trkpt>
      <trkpt lat="42.617223" lon="1.268499">
        <ele>1458.8</ele>
        <time>2013-07-30T15:19:36Z</time>
      </trkpt>
      <trkpt lat="42.617095" lon="1.268545">
        <ele>1459.3</ele>
        <time>2013-07-30T15:19:47Z</time>
      </trkpt>
      <trkpt lat="42.616960" lon="1.268584">
        <ele>1458.8</ele>
        <time>2013-07-30T15:19:59Z</time>
      </trkpt>
      <trkpt lat="42.616913" lon="1.268601">
        <ele>1458.2</ele>
        <time>2013-07-30T15:20:04Z</time>
      </trkpt>
      <trkpt lat="42.616814" lon="1.268656">
        <ele>1457.5</ele>
        <time>2013-07-30T15:20:13Z</time>
      </trkpt>
      <trkpt lat="42.616753" lon="1.268685">
        <ele>1457.3</ele>
        <time>2013-07-30T15:20:18Z</time>
      </trkpt>
      <trkpt lat="42.616725" lon="1.268707">
        <ele>1457.1</ele>
        <time>2013-07-30T15:20:21Z</time>
      </trkpt>
      <trkpt lat="42.616684" lon="1.268738">
        <ele>1456.5</ele>
        <time>2013-07-30T15:20:25Z</time>
      </trkpt>
      <trkpt lat="42.616661" lon="1.268753">
        <ele>1456.3</ele>
        <time>2013-07-30T15:20:27Z</time>
      </trkpt>
      <trkpt lat="42.616475" lon="1.268747">
        <ele>1455.5</ele>
        <time>2013-07-30T15:20:42Z</time>
      </trkpt>
      <trkpt lat="42.616388" lon="1.268781">
        <ele>1457.6</ele>
        <time>2013-07-30T15:20:51Z</time>
      </trkpt>
      <trkpt lat="42.616258" lon="1.268774">
        <ele>1457.0</ele>
        <time>2013-07-30T15:21:03Z</time>
      </trkpt>
      <trkpt lat="42.616207" lon="1.268788">
        <ele>1456.7</ele>
        <time>2013-07-30T15:21:08Z</time>
      </trkpt>
      <trkpt lat="42.616164" lon="1.268828">
        <ele>1458.5</ele>
        <time>2013-07-30T15:21:14Z</time>
      </trkpt>
      <trkpt lat="42.616027" lon="1.268848">
        <ele>1457.5</ele>
        <time>2013-07-30T15:21:25Z</time>
      </trkpt>
      <trkpt lat="42.616011" lon="1.268851">
        <ele>1458.0</ele>
        <time>2013-07-30T15:21:28Z</time>
      </trkpt>
      <trkpt lat="42.615895" lon="1.268858">
        <ele>1459.3</ele>
        <time>2013-07-30T15:21:39Z</time>
      </trkpt>
      <trkpt lat="42.615842" lon="1.268860">
        <ele>1458.9</ele>
        <time>2013-07-30T15:21:44Z</time>
      </trkpt>
      <trkpt lat="42.615776" lon="1.268820">
        <ele>1457.8</ele>
        <time>2013-07-30T15:21:50Z</time>
      </trkpt>
      <trkpt lat="42.615755" lon="1.268821">
        <ele>1458.1</ele>
        <time>2013-07-30T15:21:52Z</time>
      </trkpt>
      <trkpt lat="42.615631" lon="1.268830">
        <ele>1458.9</ele>
        <time>2013-07-30T15:22:04Z</time>
      </trkpt>
      <trkpt lat="42.615597" lon="1.268832">
        <ele>1458.9</ele>
        <time>2013-07-30T15:22:07Z</time>
      </trkpt>
      <trkpt lat="42.615548" lon="1.268870">
        <ele>1460.0</ele>
        <time>2013-07-30T15:22:13Z</time>
      </trkpt>
      <trkpt lat="42.615505" lon="1.268877">
        <ele>1459.3</ele>
        <time>2013-07-30T15:22:17Z</time>
      </trkpt>
      <trkpt lat="42.615399" lon="1.268906">
        <ele>1461.6</ele>
        <time>2013-07-30T15:22:29Z</time>
      </trkpt>
      <trkpt lat="42.615393" lon="1.268907">
        <ele>1461.9</ele>
        <time>2013-07-30T15:22:30Z</time>
      </trkpt>
      <trkpt lat="42.615357" lon="1.268909">
        <ele>1463.3</ele>
        <time>2013-07-30T15:22:34Z</time>
      </trkpt>
      <trkpt lat="42.615335" lon="1.268908">
        <ele>1463.4</ele>
        <time>2013-07-30T15:22:37Z</time>
      </trkpt>
      <trkpt lat="42.615289" lon="1.268933">
        <ele>1464.3</ele>
        <time>2013-07-30T15:22:42Z</time>
      </trkpt>
      <trkpt lat="42.615266" lon="1.268953">
        <ele>1464.5</ele>
        <time>2013-07-30T15:22:45Z</time>
      </trkpt>
      <trkpt lat="42.615246" lon="1.268990">
        <ele>1465.3</ele>
        <time>2013-07-30T15:22:49Z</time>
      </trkpt>
      <trkpt lat="42.615223" lon="1.268999">
        <ele>1465.2</ele>
        <time>2013-07-30T15:22:52Z</time>
      </trkpt>
      <trkpt lat="42.615146" lon="1.269031">
        <ele>1466.4</ele>
        <time>2013-07-30T15:23:03Z</time>
      </trkpt>
      <trkpt lat="42.615085" lon="1.269076">
        <ele>1467.5</ele>
        <time>2013-07-30T15:23:12Z</time>
      </trkpt>
      <trkpt lat="42.615038" lon="1.269193">
        <ele>1469.3</ele>
        <time>2013-07-30T15:23:26Z</time>
      </trkpt>
      <trkpt lat="42.615001" lon="1.269271">
        <ele>1469.7</ele>
        <time>2013-07-30T15:23:37Z</time>
      </trkpt>
      <trkpt lat="42.614963" lon="1.269362">
        <ele>1471.7</ele>
        <time>2013-07-30T15:23:46Z</time>
      </trkpt>
      <trkpt lat="42.614934" lon="1.269404">
        <ele>1471.7</ele>
        <time>2013-07-30T15:23:50Z</time>
      </trkpt>
      <trkpt lat="42.614898" lon="1.269481">
        <ele>1471.6</ele>
        <time>2013-07-30T15:23:56Z</time>
      </trkpt>
      <trkpt lat="42.614875" lon="1.269583">
        <ele>1472.1</ele>
        <time>2013-07-30T15:24:03Z</time>
      </trkpt>
      <trkpt lat="42.614832" lon="1.269714">
        <ele>1472.7</ele>
        <time>2013-07-30T15:24:13Z</time>
      </trkpt>
      <trkpt lat="42.614803" lon="1.269782">
        <ele>1472.7</ele>
        <time>2013-07-30T15:24:18Z</time>
      </trkpt>
      <trkpt lat="42.614745" lon="1.269901">
        <ele>1472.7</ele>
        <time>2013-07-30T15:24:26Z</time>
      </trkpt>
      <trkpt lat="42.614727" lon="1.269921">
        <ele>1472.5</ele>
        <time>2013-07-30T15:24:28Z</time>
      </trkpt>
      <trkpt lat="42.614666" lon="1.270010">
        <ele>1473.8</ele>
        <time>2013-07-30T15:24:39Z</time>
      </trkpt>
      <trkpt lat="42.614584" lon="1.270112">
        <ele>1475.7</ele>
        <time>2013-07-30T15:24:50Z</time>
      </trkpt>
      <trkpt lat="42.614540" lon="1.270187">
        <ele>1477.3</ele>
        <time>2013-07-30T15:25:00Z</time>
      </trkpt>
      <trkpt lat="42.614529" lon="1.270216">
        <ele>1477.8</ele>
        <time>2013-07-30T15:25:03Z</time>
      </trkpt>
      <trkpt lat="42.614488" lon="1.270290">
        <ele>1478.7</ele>
        <time>2013-07-30T15:25:10Z</time>
      </trkpt>
      <trkpt lat="42.614407" lon="1.270345">
        <ele>1480.2</ele>
        <time>2013-07-30T15:25:20Z</time>
      </trkpt>
      <trkpt lat="42.614318" lon="1.270485">
        <ele>1480.7</ele>
        <time>2013-07-30T15:25:34Z</time>
      </trkpt>
      <trkpt lat="42.614307" lon="1.270505">
        <ele>1480.7</ele>
        <time>2013-07-30T15:25:36Z</time>
      </trkpt>
      <trkpt lat="42.614259" lon="1.270595">
        <ele>1480.4</ele>
        <time>2013-07-30T15:25:44Z</time>
      </trkpt>
      <trkpt lat="42.614260" lon="1.270621">
        <ele>1481.1</ele>
        <time>2013-07-30T15:25:46Z</time>
      </trkpt>
      <trkpt lat="42.614224" lon="1.270728">
        <ele>1481.4</ele>
        <time>2013-07-30T15:25:56Z</time>
      </trkpt>
      <trkpt lat="42.614211" lon="1.270772">
        <ele>1481.3</ele>
        <time>2013-07-30T15:26:00Z</time>
      </trkpt>
      <trkpt lat="42.614204" lon="1.270803">
        <ele>1481.4</ele>
        <time>2013-07-30T15:26:03Z</time>
      </trkpt>
      <trkpt lat="42.614200" lon="1.270843">
        <ele>1482.0</ele>
        <time>2013-07-30T15:26:06Z</time>
      </trkpt>
      <trkpt lat="42.614179" lon="1.270918">
        <ele>1482.9</ele>
        <time>2013-07-30T15:26:13Z</time>
      </trkpt>
      <trkpt lat="42.614161" lon="1.270995">
        <ele>1484.2</ele>
        <time>2013-07-30T15:26:20Z</time>
      </trkpt>
      <trkpt lat="42.614142" lon="1.271125">
        <ele>1486.9</ele>
        <time>2013-07-30T15:26:31Z</time>
      </trkpt>
      <trkpt lat="42.614113" lon="1.271239">
        <ele>1488.2</ele>
        <time>2013-07-30T15:26:42Z</time>
      </trkpt>
      <trkpt lat="42.614079" lon="1.271334">
        <ele>1488.6</ele>
        <time>2013-07-30T15:26:52Z</time>
      </trkpt>
      <trkpt lat="42.614071" lon="1.271345">
        <ele>1488.6</ele>
        <time>2013-07-30T15:26:55Z</time>
      </trkpt>
      <trkpt lat="42.614050" lon="1.271366">
        <ele>1488.4</ele>
        <time>2013-07-30T15:26:59Z</time>
      </trkpt>
      <trkpt lat="42.613962" lon="1.271401">
        <ele>1485.9</ele>
        <time>2013-07-30T15:27:13Z</time>
      </trkpt>
      <trkpt lat="42.613898" lon="1.271602">
        <ele>1488.2</ele>
        <time>2013-07-30T15:30:09Z</time>
      </trkpt>
      <trkpt lat="42.613839" lon="1.271669">
        <ele>1488.0</ele>
        <time>2013-07-30T15:30:17Z</time>
      </trkpt>
      <trkpt lat="42.613826" lon="1.271690">
        <ele>1488.5</ele>
        <time>2013-07-30T15:30:19Z</time>
      </trkpt>
      <trkpt lat="42.613779" lon="1.271779">
        <ele>1488.0</ele>
        <time>2013-07-30T15:30:27Z</time>
      </trkpt>
      <trkpt lat="42.613769" lon="1.271808">
        <ele>1488.1</ele>
        <time>2013-07-30T15:30:29Z</time>
      </trkpt>
      <trkpt lat="42.613675" lon="1.272001">
        <ele>1487.3</ele>
        <time>2013-07-30T15:30:43Z</time>
      </trkpt>
      <trkpt lat="42.613601" lon="1.272142">
        <ele>1486.0</ele>
        <time>2013-07-30T15:30:55Z</time>
      </trkpt>
      <trkpt lat="42.613524" lon="1.272312">
        <ele>1485.1</ele>
        <time>2013-07-30T15:31:08Z</time>
      </trkpt>
      <trkpt lat="42.613555" lon="1.272369">
        <ele>1485.9</ele>
        <time>2013-07-30T16:05:13Z</time>
      </trkpt>
      <trkpt lat="42.613572" lon="1.272481">
        <ele>1487.5</ele>
        <time>2013-07-30T16:05:25Z</time>
      </trkpt>
      <trkpt lat="42.613605" lon="1.272618">
        <ele>1488.6</ele>
        <time>2013-07-30T16:05:39Z</time>
      </trkpt>
      <trkpt lat="42.613605" lon="1.272768">
        <ele>1488.8</ele>
        <time>2013-07-30T16:05:50Z</time>
      </trkpt>
      <trkpt lat="42.613610" lon="1.272832">
        <ele>1488.8</ele>
        <time>2013-07-30T16:05:54Z</time>
      </trkpt>
      <trkpt lat="42.613616" lon="1.272876">
        <ele>1488.7</ele>
        <time>2013-07-30T16:05:57Z</time>
      </trkpt>
      <trkpt lat="42.613613" lon="1.273070">
        <ele>1489.8</ele>
        <time>2013-07-30T16:06:09Z</time>
      </trkpt>
      <trkpt lat="42.613590" lon="1.273255">
        <ele>1489.9</ele>
        <time>2013-07-30T16:06:21Z</time>
      </trkpt>
      <trkpt lat="42.613589" lon="1.273386">
        <ele>1492.1</ele>
        <time>2013-07-30T16:06:30Z</time>
      </trkpt>
      <trkpt lat="42.613589" lon="1.273559">
        <ele>1493.0</ele>
        <time>2013-07-30T16:06:41Z</time>
      </trkpt>
      <trkpt lat="42.613576" lon="1.273748">
        <ele>1494.2</ele>
        <time>2013-07-30T16:06:53Z</time>
      </trkpt>
      <trkpt lat="42.613564" lon="1.273953">
        <ele>1494.8</ele>
        <time>2013-07-30T16:07:06Z</time>
      </trkpt>
      <trkpt lat="42.613567" lon="1.274148">
        <ele>1496.7</ele>
        <time>2013-07-30T16:07:18Z</time>
      </trkpt>
      <trkpt lat="42.613581" lon="1.274222">
        <ele>1496.9</ele>
        <time>2013-07-30T16:07:23Z</time>
      </trkpt>
      <trkpt lat="42.613603" lon="1.274313">
        <ele>1497.7</ele>
        <time>2013-07-30T16:07:30Z</time>
      </trkpt>
      <trkpt lat="42.613607" lon="1.274361">
        <ele>1497.8</ele>
        <time>2013-07-30T16:07:33Z</time>
      </trkpt>
      <trkpt lat="42.613653" lon="1.274475">
        <ele>1499.8</ele>
        <time>2013-07-30T16:07:42Z</time>
      </trkpt>
      <trkpt lat="42.613682" lon="1.274537">
        <ele>1500.4</ele>
        <time>2013-07-30T16:07:48Z</time>
      </trkpt>
      <trkpt lat="42.613738" lon="1.274719">
        <ele>1500.7</ele>
        <time>2013-07-30T16:08:02Z</time>
      </trkpt>
      <trkpt lat="42.613781" lon="1.274911">
        <ele>1502.9</ele>
        <time>2013-07-30T16:08:15Z</time>
      </trkpt>
      <trkpt lat="42.613790" lon="1.274952">
        <ele>1503.2</ele>
        <time>2013-07-30T16:08:18Z</time>
      </trkpt>
      <trkpt lat="42.613807" lon="1.275107">
        <ele>1504.6</ele>
        <time>2013-07-30T16:08:30Z</time>
      </trkpt>
      <trkpt lat="42.613804" lon="1.275276">
        <ele>1506.2</ele>
        <time>2013-07-30T16:08:42Z</time>
      </trkpt>
      <trkpt lat="42.613803" lon="1.275313">
        <ele>1506.5</ele>
        <time>2013-07-30T16:08:45Z</time>
      </trkpt>
      <trkpt lat="42.613835" lon="1.275511">
        <ele>1508.9</ele>
        <time>2013-07-30T16:08:58Z</time>
      </trkpt>
      <trkpt lat="42.613865" lon="1.275677">
        <ele>1510.9</ele>
        <time>2013-07-30T16:09:10Z</time>
      </trkpt>
      <trkpt lat="42.613866" lon="1.275872">
        <ele>1512.7</ele>
        <time>2013-07-30T16:09:22Z</time>
      </trkpt>
      <trkpt lat="42.613852" lon="1.276018">
        <ele>1513.3</ele>
        <time>2013-07-30T16:09:33Z</time>
      </trkpt>
      <trkpt lat="42.613825" lon="1.276205">
        <ele>1514.7</ele>
        <time>2013-07-30T16:09:45Z</time>
      </trkpt>
      <trkpt lat="42.613789" lon="1.276426">
        <ele>1515.9</ele>
        <time>2013-07-30T16:09:58Z</time>
      </trkpt>
      <trkpt lat="42.613758" lon="1.276607">
        <ele>1517.4</ele>
        <time>2013-07-30T16:10:10Z</time>
      </trkpt>
      <trkpt lat="42.613718" lon="1.276784">
        <ele>1518.1</ele>
        <time>2013-07-30T16:10:23Z</time>
      </trkpt>
      <trkpt lat="42.613638" lon="1.276966">
        <ele>1519.5</ele>
        <time>2013-07-30T16:10:36Z</time>
      </trkpt>
      <trkpt lat="42.613573" lon="1.277118">
        <ele>1520.6</ele>
        <time>2013-07-30T16:10:47Z</time>
      </trkpt>
      <trkpt lat="42.613530" lon="1.277278">
        <ele>1521.9</ele>
        <time>2013-07-30T16:10:58Z</time>
      </trkpt>
      <trkpt lat="42.613506" lon="1.277466">
        <ele>1523.8</ele>
        <time>2013-07-30T16:11:10Z</time>
      </trkpt>
      <trkpt lat="42.613486" lon="1.277641">
        <ele>1525.0</ele>
        <time>2013-07-30T16:11:21Z</time>
      </trkpt>
      <trkpt lat="42.613473" lon="1.277819">
        <ele>1526.0</ele>
        <time>2013-07-30T16:11:32Z</time>
      </trkpt>
      <trkpt lat="42.613497" lon="1.278021">
        <ele>1526.5</ele>
        <time>2013-07-30T16:11:45Z</time>
      </trkpt>
      <trkpt lat="42.613584" lon="1.278184">
        <ele>1526.9</ele>
        <time>2013-07-30T16:11:57Z</time>
      </trkpt>
      <trkpt lat="42.613597" lon="1.278208">
        <ele>1527.0</ele>
        <time>2013-07-30T16:11:59Z</time>
      </trkpt>
      <trkpt lat="42.613716" lon="1.278362">
        <ele>1527.8</ele>
        <time>2013-07-30T16:12:12Z</time>
      </trkpt>
      <trkpt lat="42.613792" lon="1.278559">
        <ele>1528.9</ele>
        <time>2013-07-30T16:12:25Z</time>
      </trkpt>
      <trkpt lat="42.613842" lon="1.278768">
        <ele>1530.4</ele>
        <time>2013-07-30T16:12:39Z</time>
      </trkpt>
      <trkpt lat="42.613895" lon="1.278953">
        <ele>1531.6</ele>
        <time>2013-07-30T16:12:51Z</time>
      </trkpt>
      <trkpt lat="42.613913" lon="1.279026">
        <ele>1531.6</ele>
        <time>2013-07-30T16:12:57Z</time>
      </trkpt>
      <trkpt lat="42.613908" lon="1.279061">
        <ele>1531.8</ele>
        <time>2013-07-30T16:13:01Z</time>
      </trkpt>
      <trkpt lat="42.613846" lon="1.279140">
        <ele>1532.2</ele>
        <time>2013-07-30T16:13:09Z</time>
      </trkpt>
      <trkpt lat="42.613664" lon="1.279244">
        <ele>1533.1</ele>
        <time>2013-07-30T16:13:24Z</time>
      </trkpt>
      <trkpt lat="42.613592" lon="1.279452">
        <ele>1534.8</ele>
        <time>2013-07-30T16:13:37Z</time>
      </trkpt>
      <trkpt lat="42.613496" lon="1.279624">
        <ele>1535.2</ele>
        <time>2013-07-30T16:13:50Z</time>
      </trkpt>
      <trkpt lat="42.613409" lon="1.279789">
        <ele>1536.0</ele>
        <time>2013-07-30T16:14:02Z</time>
      </trkpt>
      <trkpt lat="42.613397" lon="1.279812">
        <ele>1536.4</ele>
        <time>2013-07-30T16:14:04Z</time>
      </trkpt>
      <trkpt lat="42.613282" lon="1.279930">
        <ele>1535.5</ele>
        <time>2013-07-30T16:14:16Z</time>
      </trkpt>
      <trkpt lat="42.613165" lon="1.279845">
        <ele>1535.5</ele>
        <time>2013-07-30T16:14:29Z</time>
      </trkpt>
      <trkpt lat="42.613143" lon="1.279819">
        <ele>1535.6</ele>
        <time>2013-07-30T16:14:32Z</time>
      </trkpt>
      <trkpt lat="42.613081" lon="1.279654">
        <ele>1536.9</ele>
        <time>2013-07-30T16:14:43Z</time>
      </trkpt>
      <trkpt lat="42.612978" lon="1.279456">
        <ele>1537.3</ele>
        <time>2013-07-30T16:14:58Z</time>
      </trkpt>
      <trkpt lat="42.612850" lon="1.279343">
        <ele>1539.6</ele>
        <time>2013-07-30T16:15:10Z</time>
      </trkpt>
      <trkpt lat="42.612800" lon="1.279331">
        <ele>1540.8</ele>
        <time>2013-07-30T16:15:14Z</time>
      </trkpt>
      <trkpt lat="42.612729" lon="1.279354">
        <ele>1541.7</ele>
        <time>2013-07-30T16:15:19Z</time>
      </trkpt>
      <trkpt lat="42.612701" lon="1.279366">
        <ele>1541.9</ele>
        <time>2013-07-30T16:15:21Z</time>
      </trkpt>
      <trkpt lat="42.612668" lon="1.279379">
        <ele>1542.4</ele>
        <time>2013-07-30T16:15:24Z</time>
      </trkpt>
      <trkpt lat="42.612543" lon="1.279445">
        <ele>1544.1</ele>
        <time>2013-07-30T16:15:35Z</time>
      </trkpt>
      <trkpt lat="42.612399" lon="1.279440">
        <ele>1546.1</ele>
        <time>2013-07-30T16:15:48Z</time>
      </trkpt>
      <trkpt lat="42.612259" lon="1.279380">
        <ele>1547.4</ele>
        <time>2013-07-30T16:16:03Z</time>
      </trkpt>
      <trkpt lat="42.612203" lon="1.279368">
        <ele>1548.4</ele>
        <time>2013-07-30T16:16:08Z</time>
      </trkpt>
      <trkpt lat="42.612151" lon="1.279367">
        <ele>1548.8</ele>
        <time>2013-07-30T16:16:13Z</time>
      </trkpt>
      <trkpt lat="42.612003" lon="1.279312">
        <ele>1550.7</ele>
        <time>2013-07-30T16:16:26Z</time>
      </trkpt>
      <trkpt lat="42.611912" lon="1.279292">
        <ele>1551.5</ele>
        <time>2013-07-30T16:16:33Z</time>
      </trkpt>
      <trkpt lat="42.611722" lon="1.279177">
        <ele>1552.9</ele>
        <time>2013-07-30T16:16:49Z</time>
      </trkpt>
      <trkpt lat="42.611604" lon="1.279047">
        <ele>1554.1</ele>
        <time>2013-07-30T16:17:02Z</time>
      </trkpt>
      <trkpt lat="42.611512" lon="1.278912">
        <ele>1555.8</ele>
        <time>2013-07-30T16:17:13Z</time>
      </trkpt>
      <trkpt lat="42.611408" lon="1.278737">
        <ele>1556.6</ele>
        <time>2013-07-30T16:17:28Z</time>
      </trkpt>
      <trkpt lat="42.611323" lon="1.278586">
        <ele>1557.8</ele>
        <time>2013-07-30T16:17:40Z</time>
      </trkpt>
      <trkpt lat="42.611246" lon="1.278384">
        <ele>1559.3</ele>
        <time>2013-07-30T16:17:54Z</time>
      </trkpt>
      <trkpt lat="42.611222" lon="1.278183">
        <ele>1560.5</ele>
        <time>2013-07-30T16:18:07Z</time>
      </trkpt>
      <trkpt lat="42.611221" lon="1.278169">
        <ele>1560.6</ele>
        <time>2013-07-30T16:18:08Z</time>
      </trkpt>
      <trkpt lat="42.611203" lon="1.277975">
        <ele>1562.1</ele>
        <time>2013-07-30T16:18:20Z</time>
      </trkpt>
      <trkpt lat="42.611173" lon="1.277781">
        <ele>1564.3</ele>
        <time>2013-07-30T16:18:32Z</time>
      </trkpt>
      <trkpt lat="42.611142" lon="1.277623">
        <ele>1565.3</ele>
        <time>2013-07-30T16:18:42Z</time>
      </trkpt>
      <trkpt lat="42.611116" lon="1.277389">
        <ele>1566.6</ele>
        <time>2013-07-30T16:18:56Z</time>
      </trkpt>
      <trkpt lat="42.611056" lon="1.277161">
        <ele>1568.0</ele>
        <time>2013-07-30T16:19:11Z</time>
      </trkpt>
      <trkpt lat="42.610939" lon="1.277022">
        <ele>1569.3</ele>
        <time>2013-07-30T16:19:24Z</time>
      </trkpt>
      <trkpt lat="42.610819" lon="1.276936">
        <ele>1571.3</ele>
        <time>2013-07-30T16:19:36Z</time>
      </trkpt>
      <trkpt lat="42.610800" lon="1.276923">
        <ele>1571.6</ele>
        <time>2013-07-30T16:19:39Z</time>
      </trkpt>
      <trkpt lat="42.610749" lon="1.276891">
        <ele>1572.1</ele>
        <time>2013-07-30T16:19:44Z</time>
      </trkpt>
      <trkpt lat="42.610599" lon="1.276785">
        <ele>1573.7</ele>
        <time>2013-07-30T16:19:58Z</time>
      </trkpt>
      <trkpt lat="42.610487" lon="1.276699">
        <ele>1575.0</ele>
        <time>2013-07-30T16:20:08Z</time>
      </trkpt>
      <trkpt lat="42.610470" lon="1.276680">
        <ele>1575.0</ele>
        <time>2013-07-30T16:20:10Z</time>
      </trkpt>
      <trkpt lat="42.610430" lon="1.276641">
        <ele>1575.5</ele>
        <time>2013-07-30T16:20:14Z</time>
      </trkpt>
      <trkpt lat="42.610320" lon="1.276497">
        <ele>1576.9</ele>
        <time>2013-07-30T16:20:28Z</time>
      </trkpt>
      <trkpt lat="42.610260" lon="1.276437">
        <ele>1578.0</ele>
        <time>2013-07-30T16:20:34Z</time>
      </trkpt>
      <trkpt lat="42.610125" lon="1.276318">
        <ele>1579.3</ele>
        <time>2013-07-30T16:20:47Z</time>
      </trkpt>
      <trkpt lat="42.610003" lon="1.276237">
        <ele>1581.2</ele>
        <time>2013-07-30T16:21:00Z</time>
      </trkpt>
      <trkpt lat="42.609875" lon="1.276137">
        <ele>1582.1</ele>
        <time>2013-07-30T16:21:13Z</time>
      </trkpt>
      <trkpt lat="42.609756" lon="1.276067">
        <ele>1584.0</ele>
        <time>2013-07-30T16:21:25Z</time>
      </trkpt>
      <trkpt lat="42.609709" lon="1.276028">
        <ele>1584.4</ele>
        <time>2013-07-30T16:21:29Z</time>
      </trkpt>
      <trkpt lat="42.609643" lon="1.275973">
        <ele>1584.8</ele>
        <time>2013-07-30T16:21:35Z</time>
      </trkpt>
      <trkpt lat="42.609510" lon="1.275859">
        <ele>1586.3</ele>
        <time>2013-07-30T16:21:49Z</time>
      </trkpt>
      <trkpt lat="42.609446" lon="1.275800">
        <ele>1586.7</ele>
        <time>2013-07-30T16:21:56Z</time>
      </trkpt>
      <trkpt lat="42.609393" lon="1.275758">
        <ele>1587.4</ele>
        <time>2013-07-30T16:22:01Z</time>
      </trkpt>
      <trkpt lat="42.609255" lon="1.275661">
        <ele>1589.9</ele>
        <time>2013-07-30T16:22:14Z</time>
      </trkpt>
      <trkpt lat="42.609122" lon="1.275546">
        <ele>1591.6</ele>
        <time>2013-07-30T16:22:27Z</time>
      </trkpt>
      <trkpt lat="42.608998" lon="1.275442">
        <ele>1593.3</ele>
        <time>2013-07-30T16:22:39Z</time>
      </trkpt>
      <trkpt lat="42.608886" lon="1.275325">
        <ele>1594.0</ele>
        <time>2013-07-30T16:22:52Z</time>
      </trkpt>
      <trkpt lat="42.608774" lon="1.275262">
        <ele>1595.0</ele>
        <time>2013-07-30T16:23:03Z</time>
      </trkpt>
      <trkpt lat="42.608663" lon="1.275249">
        <ele>1597.1</ele>
        <time>2013-07-30T16:23:15Z</time>
      </trkpt>
      <trkpt lat="42.608542" lon="1.275265">
        <ele>1597.7</ele>
        <time>2013-07-30T16:23:26Z</time>
      </trkpt>
      <trkpt lat="42.608420" lon="1.275290">
        <ele>1598.4</ele>
        <time>2013-07-30T16:23:36Z</time>
      </trkpt>
      <trkpt lat="42.608367" lon="1.275266">
        <ele>1599.0</ele>
        <time>2013-07-30T16:23:41Z</time>
      </trkpt>
      <trkpt lat="42.608348" lon="1.275255">
        <ele>1599.2</ele>
        <time>2013-07-30T16:23:43Z</time>
      </trkpt>
      <trkpt lat="42.608194" lon="1.275183">
        <ele>1600.9</ele>
        <time>2013-07-30T16:23:56Z</time>
      </trkpt>
      <trkpt lat="42.608062" lon="1.275122">
        <ele>1602.2</ele>
        <time>2013-07-30T16:24:09Z</time>
      </trkpt>
      <trkpt lat="42.607932" lon="1.275079">
        <ele>1603.2</ele>
        <time>2013-07-30T16:24:21Z</time>
      </trkpt>
      <trkpt lat="42.607783" lon="1.275048">
        <ele>1604.7</ele>
        <time>2013-07-30T16:24:34Z</time>
      </trkpt>
      <trkpt lat="42.607607" lon="1.275029">
        <ele>1606.2</ele>
        <time>2013-07-30T16:24:48Z</time>
      </trkpt>
      <trkpt lat="42.607430" lon="1.275053">
        <ele>1607.7</ele>
        <time>2013-07-30T16:25:02Z</time>
      </trkpt>
      <trkpt lat="42.607308" lon="1.275140">
        <ele>1609.7</ele>
        <time>2013-07-30T16:25:14Z</time>
      </trkpt>
      <trkpt lat="42.607299" lon="1.275150">
        <ele>1609.8</ele>
        <time>2013-07-30T16:25:15Z</time>
      </trkpt>
      <trkpt lat="42.607155" lon="1.275199">
        <ele>1610.2</ele>
        <time>2013-07-30T16:25:29Z</time>
      </trkpt>
      <trkpt lat="42.607142" lon="1.275195">
        <ele>1610.4</ele>
        <time>2013-07-30T16:25:30Z</time>
      </trkpt>
      <trkpt lat="42.607069" lon="1.275152">
        <ele>1611.6</ele>
        <time>2013-07-30T16:25:36Z</time>
      </trkpt>
      <trkpt lat="42.607048" lon="1.275131">
        <ele>1611.8</ele>
        <time>2013-07-30T16:25:38Z</time>
      </trkpt>
      <trkpt lat="42.606922" lon="1.275004">
        <ele>1613.4</ele>
        <time>2013-07-30T16:25:51Z</time>
      </trkpt>
      <trkpt lat="42.606824" lon="1.274909">
        <ele>1613.1</ele>
        <time>2013-07-30T16:26:03Z</time>
      </trkpt>
      <trkpt lat="42.606690" lon="1.274812">
        <ele>1613.7</ele>
        <time>2013-07-30T16:26:17Z</time>
      </trkpt>
      <trkpt lat="42.606542" lon="1.274746">
        <ele>1615.2</ele>
        <time>2013-07-30T16:26:29Z</time>
      </trkpt>
      <trkpt lat="42.606389" lon="1.274659">
        <ele>1618.3</ele>
        <time>2013-07-30T16:26:43Z</time>
      </trkpt>
      <trkpt lat="42.606316" lon="1.274584">
        <ele>1619.4</ele>
        <time>2013-07-30T16:26:50Z</time>
      </trkpt>
      <trkpt lat="42.606224" lon="1.274468">
        <ele>1620.4</ele>
        <time>2013-07-30T16:27:02Z</time>
      </trkpt>
      <trkpt lat="42.606162" lon="1.274292">
        <ele>1620.7</ele>
        <time>2013-07-30T16:27:14Z</time>
      </trkpt>
      <trkpt lat="42.606156" lon="1.274277">
        <ele>1620.8</ele>
        <time>2013-07-30T16:27:15Z</time>
      </trkpt>
      <trkpt lat="42.606095" lon="1.274109">
        <ele>1622.6</ele>
        <time>2013-07-30T16:27:29Z</time>
      </trkpt>
      <trkpt lat="42.606059" lon="1.273907">
        <ele>1623.4</ele>
        <time>2013-07-30T16:27:41Z</time>
      </trkpt>
      <trkpt lat="42.606029" lon="1.273712">
        <ele>1624.4</ele>
        <time>2013-07-30T16:27:53Z</time>
      </trkpt>
      <trkpt lat="42.605982" lon="1.273504">
        <ele>1627.6</ele>
        <time>2013-07-30T16:28:06Z</time>
      </trkpt>
      <trkpt lat="42.605976" lon="1.273343">
        <ele>1629.0</ele>
        <time>2013-07-30T16:28:17Z</time>
      </trkpt>
      <trkpt lat="42.605967" lon="1.273189">
        <ele>1630.8</ele>
        <time>2013-07-30T16:28:27Z</time>
      </trkpt>
      <trkpt lat="42.605957" lon="1.273004">
        <ele>1633.0</ele>
        <time>2013-07-30T16:28:39Z</time>
      </trkpt>
      <trkpt lat="42.605954" lon="1.272925">
        <ele>1633.5</ele>
        <time>2013-07-30T16:28:44Z</time>
      </trkpt>
      <trkpt lat="42.605948" lon="1.272841">
        <ele>1634.2</ele>
        <time>2013-07-30T16:28:49Z</time>
      </trkpt>
      <trkpt lat="42.605922" lon="1.272656">
        <ele>1635.7</ele>
        <time>2013-07-30T16:29:01Z</time>
      </trkpt>
      <trkpt lat="42.605911" lon="1.272628">
        <ele>1636.4</ele>
        <time>2013-07-30T16:29:03Z</time>
      </trkpt>
      <trkpt lat="42.605869" lon="1.272421">
        <ele>1639.5</ele>
        <time>2013-07-30T16:29:17Z</time>
      </trkpt>
      <trkpt lat="42.605859" lon="1.272374">
        <ele>1639.6</ele>
        <time>2013-07-30T16:29:20Z</time>
      </trkpt>
      <trkpt lat="42.605829" lon="1.272236">
        <ele>1640.7</ele>
        <time>2013-07-30T16:29:29Z</time>
      </trkpt>
      <trkpt lat="42.605824" lon="1.272159">
        <ele>1640.6</ele>
        <time>2013-07-30T16:29:34Z</time>
      </trkpt>
      <trkpt lat="42.605808" lon="1.272021">
        <ele>1640.1</ele>
        <time>2013-07-30T16:29:43Z</time>
      </trkpt>
      <trkpt lat="42.605797" lon="1.271893">
        <ele>1640.2</ele>
        <time>2013-07-30T16:29:52Z</time>
      </trkpt>
      <trkpt lat="42.605763" lon="1.271741">
        <ele>1641.2</ele>
        <time>2013-07-30T16:30:01Z</time>
      </trkpt>
      <trkpt lat="42.605710" lon="1.271591">
        <ele>1642.8</ele>
        <time>2013-07-30T16:30:12Z</time>
      </trkpt>
      <trkpt lat="42.605654" lon="1.271422">
        <ele>1643.7</ele>
        <time>2013-07-30T16:30:26Z</time>
      </trkpt>
      <trkpt lat="42.605622" lon="1.271351">
        <ele>1644.5</ele>
        <time>2013-07-30T16:30:31Z</time>
      </trkpt>
      <trkpt lat="42.605564" lon="1.271149">
        <ele>1646.4</ele>
        <time>2013-07-30T16:30:43Z</time>
      </trkpt>
      <trkpt lat="42.605518" lon="1.270946">
        <ele>1647.7</ele>
        <time>2013-07-30T16:30:56Z</time>
      </trkpt>
      <trkpt lat="42.605501" lon="1.270884">
        <ele>1648.5</ele>
        <time>2013-07-30T16:30:59Z</time>
      </trkpt>
      <trkpt lat="42.605453" lon="1.270711">
        <ele>1650.5</ele>
        <time>2013-07-30T16:31:12Z</time>
      </trkpt>
      <trkpt lat="42.605455" lon="1.270693">
        <ele>1650.4</ele>
        <time>2013-07-30T16:31:13Z</time>
      </trkpt>
      <trkpt lat="42.605458" lon="1.270571">
        <ele>1649.9</ele>
        <time>2013-07-30T16:31:20Z</time>
      </trkpt>
      <trkpt lat="42.605442" lon="1.270488">
        <ele>1650.5</ele>
        <time>2013-07-30T16:31:25Z</time>
      </trkpt>
      <trkpt lat="42.605415" lon="1.270395">
        <ele>1652.4</ele>
        <time>2013-07-30T16:31:30Z</time>
      </trkpt>
      <trkpt lat="42.605397" lon="1.270216">
        <ele>1653.0</ele>
        <time>2013-07-30T16:31:42Z</time>
      </trkpt>
      <trkpt lat="42.605379" lon="1.270106">
        <ele>1653.5</ele>
        <time>2013-07-30T16:31:49Z</time>
      </trkpt>
      <trkpt lat="42.605345" lon="1.269945">
        <ele>1654.8</ele>
        <time>2013-07-30T16:32:02Z</time>
      </trkpt>
      <trkpt lat="42.605242" lon="1.269733">
        <ele>1656.5</ele>
        <time>2013-07-30T16:32:15Z</time>
      </trkpt>
      <trkpt lat="42.605144" lon="1.269615">
        <ele>1657.5</ele>
        <time>2013-07-30T16:32:28Z</time>
      </trkpt>
      <trkpt lat="42.605050" lon="1.269473">
        <ele>1657.9</ele>
        <time>2013-07-30T16:32:40Z</time>
      </trkpt>
      <trkpt lat="42.604997" lon="1.269319">
        <ele>1658.4</ele>
        <time>2013-07-30T16:32:50Z</time>
      </trkpt>
      <trkpt lat="42.604900" lon="1.269131">
        <ele>1661.6</ele>
        <time>2013-07-30T16:33:02Z</time>
      </trkpt>
      <trkpt lat="42.604894" lon="1.269097">
        <ele>1661.8</ele>
        <time>2013-07-30T16:33:04Z</time>
      </trkpt>
      <trkpt lat="42.604881" lon="1.268983">
        <ele>1662.6</ele>
        <time>2013-07-30T16:33:11Z</time>
      </trkpt>
      <trkpt lat="42.604895" lon="1.268824">
        <ele>1663.7</ele>
        <time>2013-07-30T16:33:21Z</time>
      </trkpt>
      <trkpt lat="42.604891" lon="1.268730">
        <ele>1665.5</ele>
        <time>2013-07-30T16:33:28Z</time>
      </trkpt>
      <trkpt lat="42.604886" lon="1.268700">
        <ele>1665.8</ele>
        <time>2013-07-30T16:33:30Z</time>
      </trkpt>
      <trkpt lat="42.604899" lon="1.268612">
        <ele>1665.7</ele>
        <time>2013-07-30T16:33:36Z</time>
      </trkpt>
      <trkpt lat="42.604890" lon="1.268530">
        <ele>1665.9</ele>
        <time>2013-07-30T16:33:42Z</time>
      </trkpt>
      <trkpt lat="42.604917" lon="1.268321">
        <ele>1666.0</ele>
        <time>2013-07-30T16:33:55Z</time>
      </trkpt>
      <trkpt lat="42.604887" lon="1.268074">
        <ele>1668.3</ele>
        <time>2013-07-30T16:34:09Z</time>
      </trkpt>
      <trkpt lat="42.604872" lon="1.267988">
        <ele>1669.5</ele>
        <time>2013-07-30T16:34:14Z</time>
      </trkpt>
      <trkpt lat="42.604849" lon="1.267942">
        <ele>1671.0</ele>
        <time>2013-07-30T16:34:17Z</time>
      </trkpt>
      <trkpt lat="42.604858" lon="1.267797">
        <ele>1671.3</ele>
        <time>2013-07-30T16:34:25Z</time>
      </trkpt>
      <trkpt lat="42.604873" lon="1.267714">
        <ele>1670.5</ele>
        <time>2013-07-30T16:34:31Z</time>
      </trkpt>
      <trkpt lat="42.604860" lon="1.267642">
        <ele>1671.3</ele>
        <time>2013-07-30T16:34:36Z</time>
      </trkpt>
      <trkpt lat="42.604827" lon="1.267412">
        <ele>1673.1</ele>
        <time>2013-07-30T16:34:50Z</time>
      </trkpt>
      <trkpt lat="42.604820" lon="1.267393">
        <ele>1673.6</ele>
        <time>2013-07-30T16:34:52Z</time>
      </trkpt>
      <trkpt lat="42.604817" lon="1.267363">
        <ele>1673.8</ele>
        <time>2013-07-30T16:34:54Z</time>
      </trkpt>
      <trkpt lat="42.604796" lon="1.267163">
        <ele>1675.0</ele>
        <time>2013-07-30T16:35:07Z</time>
      </trkpt>
      <trkpt lat="42.604785" lon="1.267050">
        <ele>1675.5</ele>
        <time>2013-07-30T16:35:15Z</time>
      </trkpt>
      <trkpt lat="42.604745" lon="1.266958">
        <ele>1677.8</ele>
        <time>2013-07-30T16:35:20Z</time>
      </trkpt>
      <trkpt lat="42.604734" lon="1.266921">
        <ele>1678.8</ele>
        <time>2013-07-30T16:35:22Z</time>
      </trkpt>
      <trkpt lat="42.604721" lon="1.266843">
        <ele>1679.6</ele>
        <time>2013-07-30T16:35:27Z</time>
      </trkpt>
      <trkpt lat="42.604731" lon="1.266619">
        <ele>1680.1</ele>
        <time>2013-07-30T16:35:41Z</time>
      </trkpt>
      <trkpt lat="42.604729" lon="1.266591">
        <ele>1680.2</ele>
        <time>2013-07-30T16:35:43Z</time>
      </trkpt>
      <trkpt lat="42.604734" lon="1.266554">
        <ele>1680.2</ele>
        <time>2013-07-30T16:35:45Z</time>
      </trkpt>
      <trkpt lat="42.604734" lon="1.266343">
        <ele>1680.7</ele>
        <time>2013-07-30T16:35:58Z</time>
      </trkpt>
      <trkpt lat="42.604743" lon="1.266160">
        <ele>1681.3</ele>
        <time>2013-07-30T16:36:11Z</time>
      </trkpt>
      <trkpt lat="42.604726" lon="1.265944">
        <ele>1683.0</ele>
        <time>2013-07-30T16:36:25Z</time>
      </trkpt>
      <trkpt lat="42.604716" lon="1.265705">
        <ele>1684.9</ele>
        <time>2013-07-30T16:36:39Z</time>
      </trkpt>
      <trkpt lat="42.604712" lon="1.265523">
        <ele>1685.9</ele>
        <time>2013-07-30T16:36:50Z</time>
      </trkpt>
      <trkpt lat="42.604714" lon="1.265480">
        <ele>1686.0</ele>
        <time>2013-07-30T16:36:53Z</time>
      </trkpt>
      <trkpt lat="42.604691" lon="1.265288">
        <ele>1688.8</ele>
        <time>2013-07-30T16:37:05Z</time>
      </trkpt>
      <trkpt lat="42.604673" lon="1.265106">
        <ele>1690.3</ele>
        <time>2013-07-30T16:37:17Z</time>
      </trkpt>
      <trkpt lat="42.604670" lon="1.265084">
        <ele>1690.7</ele>
        <time>2013-07-30T16:37:19Z</time>
      </trkpt>
      <trkpt lat="42.604660" lon="1.264880">
        <ele>1693.0</ele>
        <time>2013-07-30T16:37:31Z</time>
      </trkpt>
      <trkpt lat="42.604671" lon="1.264682">
        <ele>1693.9</ele>
        <time>2013-07-30T16:37:44Z</time>
      </trkpt>
      <trkpt lat="42.604668" lon="1.264504">
        <ele>1695.4</ele>
        <time>2013-07-30T16:37:56Z</time>
      </trkpt>
      <trkpt lat="42.604673" lon="1.264464">
        <ele>1695.4</ele>
        <time>2013-07-30T16:37:59Z</time>
      </trkpt>
      <trkpt lat="42.604656" lon="1.264299">
        <ele>1697.5</ele>
        <time>2013-07-30T16:38:10Z</time>
      </trkpt>
      <trkpt lat="42.604663" lon="1.264220">
        <ele>1697.8</ele>
        <time>2013-07-30T16:38:16Z</time>
      </trkpt>
      <trkpt lat="42.604647" lon="1.264151">
        <ele>1698.9</ele>
        <time>2013-07-30T16:38:20Z</time>
      </trkpt>
      <trkpt lat="42.604642" lon="1.264110">
        <ele>1699.4</ele>
        <time>2013-07-30T16:38:22Z</time>
      </trkpt>
      <trkpt lat="42.604672" lon="1.263856">
        <ele>1699.6</ele>
        <time>2013-07-30T16:38:36Z</time>
      </trkpt>
      <trkpt lat="42.604673" lon="1.263830">
        <ele>1699.9</ele>
        <time>2013-07-30T16:38:38Z</time>
      </trkpt>
      <trkpt lat="42.604658" lon="1.263791">
        <ele>1700.7</ele>
        <time>2013-07-30T16:38:41Z</time>
      </trkpt>
      <trkpt lat="42.604610" lon="1.263775">
        <ele>1700.4</ele>
        <time>2013-07-30T16:38:45Z</time>
      </trkpt>
      <trkpt lat="42.604563" lon="1.263935">
        <ele>1702.4</ele>
        <time>2013-07-30T16:38:57Z</time>
      </trkpt>
      <trkpt lat="42.604558" lon="1.264030">
        <ele>1703.1</ele>
        <time>2013-07-30T16:39:03Z</time>
      </trkpt>
      <trkpt lat="42.604551" lon="1.264061">
        <ele>1703.4</ele>
        <time>2013-07-30T16:39:05Z</time>
      </trkpt>
      <trkpt lat="42.604540" lon="1.264123">
        <ele>1703.5</ele>
        <time>2013-07-30T16:39:09Z</time>
      </trkpt>
      <trkpt lat="42.604507" lon="1.264298">
        <ele>1704.3</ele>
        <time>2013-07-30T16:39:21Z</time>
      </trkpt>
      <trkpt lat="42.604459" lon="1.264488">
        <ele>1705.2</ele>
        <time>2013-07-30T16:39:33Z</time>
      </trkpt>
      <trkpt lat="42.604398" lon="1.264682">
        <ele>1707.0</ele>
        <time>2013-07-30T16:39:46Z</time>
      </trkpt>
      <trkpt lat="42.604375" lon="1.264751">
        <ele>1707.6</ele>
        <time>2013-07-30T16:39:51Z</time>
      </trkpt>
      <trkpt lat="42.604367" lon="1.264781">
        <ele>1707.5</ele>
        <time>2013-07-30T16:39:53Z</time>
      </trkpt>
      <trkpt lat="42.604348" lon="1.264838">
        <ele>1708.2</ele>
        <time>2013-07-30T16:39:57Z</time>
      </trkpt>
      <trkpt lat="42.604342" lon="1.264864">
        <ele>1708.4</ele>
        <time>2013-07-30T16:39:59Z</time>
      </trkpt>
      <trkpt lat="42.604275" lon="1.265059">
        <ele>1709.4</ele>
        <time>2013-07-30T16:40:12Z</time>
      </trkpt>
      <trkpt lat="42.604224" lon="1.265241">
        <ele>1710.7</ele>
        <time>2013-07-30T16:40:24Z</time>
      </trkpt>
      <trkpt lat="42.604179" lon="1.265342">
        <ele>1711.6</ele>
        <time>2013-07-30T16:40:32Z</time>
      </trkpt>
      <trkpt lat="42.604136" lon="1.265551">
        <ele>1713.1</ele>
        <time>2013-07-30T16:40:45Z</time>
      </trkpt>
      <trkpt lat="42.604110" lon="1.265700">
        <ele>1713.6</ele>
        <time>2013-07-30T16:40:55Z</time>
      </trkpt>
      <trkpt lat="42.604067" lon="1.265874">
        <ele>1715.1</ele>
        <time>2013-07-30T16:41:07Z</time>
      </trkpt>
      <trkpt lat="42.604045" lon="1.265979">
        <ele>1716.1</ele>
        <time>2013-07-30T16:41:14Z</time>
      </trkpt>
      <trkpt lat="42.604038" lon="1.266022">
        <ele>1716.3</ele>
        <time>2013-07-30T16:41:17Z</time>
      </trkpt>
      <trkpt lat="42.603985" lon="1.266242">
        <ele>1717.5</ele>
        <time>2013-07-30T16:41:31Z</time>
      </trkpt>
      <trkpt lat="42.603928" lon="1.266455">
        <ele>1718.1</ele>
        <time>2013-07-30T16:41:45Z</time>
      </trkpt>
      <trkpt lat="42.603913" lon="1.266552">
        <ele>1718.5</ele>
        <time>2013-07-30T16:41:51Z</time>
      </trkpt>
      <trkpt lat="42.603889" lon="1.266749">
        <ele>1720.0</ele>
        <time>2013-07-30T16:42:04Z</time>
      </trkpt>
      <trkpt lat="42.603852" lon="1.266932">
        <ele>1721.3</ele>
        <time>2013-07-30T16:42:16Z</time>
      </trkpt>
      <trkpt lat="42.603840" lon="1.266992">
        <ele>1722.0</ele>
        <time>2013-07-30T16:42:20Z</time>
      </trkpt>
      <trkpt lat="42.603793" lon="1.267210">
        <ele>1723.4</ele>
        <time>2013-07-30T16:42:34Z</time>
      </trkpt>
      <trkpt lat="42.603752" lon="1.267372">
        <ele>1724.6</ele>
        <time>2013-07-30T16:42:45Z</time>
      </trkpt>
      <trkpt lat="42.603734" lon="1.267454">
        <ele>1724.9</ele>
        <time>2013-07-30T16:42:51Z</time>
      </trkpt>
      <trkpt lat="42.603696" lon="1.267643">
        <ele>1726.0</ele>
        <time>2013-07-30T16:43:03Z</time>
      </trkpt>
      <trkpt lat="42.603668" lon="1.267775">
        <ele>1727.1</ele>
        <time>2013-07-30T16:43:11Z</time>
      </trkpt>
      <trkpt lat="42.603635" lon="1.267962">
        <ele>1728.0</ele>
        <time>2013-07-30T16:43:23Z</time>
      </trkpt>
      <trkpt lat="42.603628" lon="1.267990">
        <ele>1728.3</ele>
        <time>2013-07-30T16:43:25Z</time>
      </trkpt>
      <trkpt lat="42.603576" lon="1.268189">
        <ele>1729.8</ele>
        <time>2013-07-30T16:43:39Z</time>
      </trkpt>
      <trkpt lat="42.603547" lon="1.268370">
        <ele>1731.1</ele>
        <time>2013-07-30T16:43:51Z</time>
      </trkpt>
      <trkpt lat="42.603540" lon="1.268435">
        <ele>1731.6</ele>
        <time>2013-07-30T16:43:55Z</time>
      </trkpt>
      <trkpt lat="42.603513" lon="1.268596">
        <ele>1732.2</ele>
        <time>2013-07-30T16:44:06Z</time>
      </trkpt>
      <trkpt lat="42.603509" lon="1.268628">
        <ele>1732.7</ele>
        <time>2013-07-30T16:44:08Z</time>
      </trkpt>
      <trkpt lat="42.603494" lon="1.268765">
        <ele>1733.6</ele>
        <time>2013-07-30T16:44:17Z</time>
      </trkpt>
      <trkpt lat="42.603485" lon="1.268812">
        <ele>1733.8</ele>
        <time>2013-07-30T16:44:20Z</time>
      </trkpt>
      <trkpt lat="42.603461" lon="1.268952">
        <ele>1735.0</ele>
        <time>2013-07-30T16:44:29Z</time>
      </trkpt>
      <trkpt lat="42.603457" lon="1.268983">
        <ele>1735.2</ele>
        <time>2013-07-30T16:44:31Z</time>
      </trkpt>
      <trkpt lat="42.603441" lon="1.269181">
        <ele>1735.5</ele>
        <time>2013-07-30T16:44:44Z</time>
      </trkpt>
      <trkpt lat="42.603438" lon="1.269381">
        <ele>1736.6</ele>
        <time>2013-07-30T16:44:56Z</time>
      </trkpt>
      <trkpt lat="42.603415" lon="1.269507">
        <ele>1738.5</ele>
        <time>2013-07-30T16:45:04Z</time>
      </trkpt>
      <trkpt lat="42.603425" lon="1.269592">
        <ele>1738.2</ele>
        <time>2013-07-30T16:45:10Z</time>
      </trkpt>
      <trkpt lat="42.603422" lon="1.269622">
        <ele>1738.2</ele>
        <time>2013-07-30T16:45:12Z</time>
      </trkpt>
      <trkpt lat="42.603402" lon="1.269828">
        <ele>1739.3</ele>
        <time>2013-07-30T16:45:25Z</time>
      </trkpt>
      <trkpt lat="42.603405" lon="1.269851">
        <ele>1739.3</ele>
        <time>2013-07-30T16:45:27Z</time>
      </trkpt>
      <trkpt lat="42.603404" lon="1.269883">
        <ele>1739.5</ele>
        <time>2013-07-30T16:45:29Z</time>
      </trkpt>
      <trkpt lat="42.603359" lon="1.270055">
        <ele>1741.6</ele>
        <time>2013-07-30T16:45:40Z</time>
      </trkpt>
      <trkpt lat="42.603339" lon="1.270250">
        <ele>1743.4</ele>
        <time>2013-07-30T16:45:52Z</time>
      </trkpt>
      <trkpt lat="42.603340" lon="1.270428">
        <ele>1744.1</ele>
        <time>2013-07-30T16:46:03Z</time>
      </trkpt>
      <trkpt lat="42.603331" lon="1.270565">
        <ele>1744.6</ele>
        <time>2013-07-30T16:46:14Z</time>
      </trkpt>
      <trkpt lat="42.603319" lon="1.270620">
        <ele>1745.3</ele>
        <time>2013-07-30T16:46:18Z</time>
      </trkpt>
      <trkpt lat="42.603314" lon="1.270776">
        <ele>1746.3</ele>
        <time>2013-07-30T16:46:29Z</time>
      </trkpt>
      <trkpt lat="42.603311" lon="1.270818">
        <ele>1746.7</ele>
        <time>2013-07-30T16:46:32Z</time>
      </trkpt>
      <trkpt lat="42.603267" lon="1.271021">
        <ele>1748.6</ele>
        <time>2013-07-30T16:46:45Z</time>
      </trkpt>
      <trkpt lat="42.603263" lon="1.271219">
        <ele>1749.5</ele>
        <time>2013-07-30T16:46:58Z</time>
      </trkpt>
      <trkpt lat="42.603250" lon="1.271350">
        <ele>1750.8</ele>
        <time>2013-07-30T16:47:07Z</time>
      </trkpt>
      <trkpt lat="42.603248" lon="1.271484">
        <ele>1751.3</ele>
        <time>2013-07-30T16:47:18Z</time>
      </trkpt>
      <trkpt lat="42.603242" lon="1.271516">
        <ele>1751.1</ele>
        <time>2013-07-30T16:47:20Z</time>
      </trkpt>
      <trkpt lat="42.603226" lon="1.271637">
        <ele>1751.4</ele>
        <time>2013-07-30T16:47:27Z</time>
      </trkpt>
      <trkpt lat="42.603198" lon="1.271806">
        <ele>1752.4</ele>
        <time>2013-07-30T16:47:37Z</time>
      </trkpt>
      <trkpt lat="42.603209" lon="1.271879">
        <ele>1752.7</ele>
        <time>2013-07-30T16:47:42Z</time>
      </trkpt>
      <trkpt lat="42.603229" lon="1.272056">
        <ele>1754.3</ele>
        <time>2013-07-30T16:47:55Z</time>
      </trkpt>
      <trkpt lat="42.603243" lon="1.272152">
        <ele>1754.3</ele>
        <time>2013-07-30T16:48:01Z</time>
      </trkpt>
      <trkpt lat="42.603230" lon="1.272349">
        <ele>1756.1</ele>
        <time>2013-07-30T16:48:13Z</time>
      </trkpt>
      <trkpt lat="42.603198" lon="1.272550">
        <ele>1756.9</ele>
        <time>2013-07-30T16:48:25Z</time>
      </trkpt>
      <trkpt lat="42.603164" lon="1.272708">
        <ele>1757.5</ele>
        <time>2013-07-30T16:48:37Z</time>
      </trkpt>
      <trkpt lat="42.603130" lon="1.272792">
        <ele>1758.4</ele>
        <time>2013-07-30T16:48:44Z</time>
      </trkpt>
      <trkpt lat="42.603117" lon="1.272858">
        <ele>1758.6</ele>
        <time>2013-07-30T16:48:49Z</time>
      </trkpt>
      <trkpt lat="42.603101" lon="1.272977">
        <ele>1759.4</ele>
        <time>2013-07-30T16:48:55Z</time>
      </trkpt>
      <trkpt lat="42.603079" lon="1.273188">
        <ele>1760.5</ele>
        <time>2013-07-30T16:49:07Z</time>
      </trkpt>
      <trkpt lat="42.603066" lon="1.273371">
        <ele>1761.7</ele>
        <time>2013-07-30T16:49:19Z</time>
      </trkpt>
      <trkpt lat="42.603050" lon="1.273522">
        <ele>1762.1</ele>
        <time>2013-07-30T16:49:30Z</time>
      </trkpt>
      <trkpt lat="42.603034" lon="1.273675">
        <ele>1763.3</ele>
        <time>2013-07-30T16:49:41Z</time>
      </trkpt>
      <trkpt lat="42.603024" lon="1.273812">
        <ele>1763.9</ele>
        <time>2013-07-30T16:49:49Z</time>
      </trkpt>
      <trkpt lat="42.603003" lon="1.273968">
        <ele>1765.0</ele>
        <time>2013-07-30T16:49:58Z</time>
      </trkpt>
      <trkpt lat="42.603005" lon="1.274029">
        <ele>1765.3</ele>
        <time>2013-07-30T16:50:02Z</time>
      </trkpt>
      <trkpt lat="42.602993" lon="1.274216">
        <ele>1766.9</ele>
        <time>2013-07-30T16:50:14Z</time>
      </trkpt>
      <trkpt lat="42.603006" lon="1.274428">
        <ele>1768.0</ele>
        <time>2013-07-30T16:50:26Z</time>
      </trkpt>
      <trkpt lat="42.603006" lon="1.274439">
        <ele>1768.1</ele>
        <time>2013-07-30T16:50:27Z</time>
      </trkpt>
      <trkpt lat="42.603015" lon="1.274490">
        <ele>1768.0</ele>
        <time>2013-07-30T16:50:30Z</time>
      </trkpt>
      <trkpt lat="42.603059" lon="1.274645">
        <ele>1769.1</ele>
        <time>2013-07-30T16:50:41Z</time>
      </trkpt>
      <trkpt lat="42.603070" lon="1.274699">
        <ele>1769.2</ele>
        <time>2013-07-30T16:50:45Z</time>
      </trkpt>
      <trkpt lat="42.603095" lon="1.274900">
        <ele>1771.4</ele>
        <time>2013-07-30T16:50:58Z</time>
      </trkpt>
      <trkpt lat="42.603128" lon="1.275056">
        <ele>1772.4</ele>
        <time>2013-07-30T16:51:08Z</time>
      </trkpt>
      <trkpt lat="42.603143" lon="1.275215">
        <ele>1773.1</ele>
        <time>2013-07-30T16:51:21Z</time>
      </trkpt>
      <trkpt lat="42.603134" lon="1.275236">
        <ele>1773.6</ele>
        <time>2013-07-30T16:57:06Z</time>
      </trkpt>
      <trkpt lat="42.603172" lon="1.275449">
        <ele>1774.2</ele>
        <time>2013-07-30T16:57:21Z</time>
      </trkpt>
      <trkpt lat="42.603169" lon="1.275638">
        <ele>1776.5</ele>
        <time>2013-07-30T16:57:33Z</time>
      </trkpt>
      <trkpt lat="42.603253" lon="1.275921">
        <ele>1777.2</ele>
        <time>2013-07-30T16:57:50Z</time>
      </trkpt>
      <trkpt lat="42.603312" lon="1.276090">
        <ele>1779.1</ele>
        <time>2013-07-30T16:58:03Z</time>
      </trkpt>
      <trkpt lat="42.603422" lon="1.276316">
        <ele>1781.3</ele>
        <time>2013-07-30T16:58:22Z</time>
      </trkpt>
      <trkpt lat="42.603485" lon="1.276411">
        <ele>1781.1</ele>
        <time>2013-07-30T16:58:30Z</time>
      </trkpt>
      <trkpt lat="42.603614" lon="1.276688">
        <ele>1784.6</ele>
        <time>2013-07-30T16:58:50Z</time>
      </trkpt>
      <trkpt lat="42.603777" lon="1.276909">
        <ele>1785.7</ele>
        <time>2013-07-30T16:59:09Z</time>
      </trkpt>
      <trkpt lat="42.603884" lon="1.277068">
        <ele>1787.1</ele>
        <time>2013-07-30T16:59:21Z</time>
      </trkpt>
      <trkpt lat="42.604028" lon="1.277283">
        <ele>1788.5</ele>
        <time>2013-07-30T16:59:39Z</time>
      </trkpt>
      <trkpt lat="42.604054" lon="1.277387">
        <ele>1790.6</ele>
        <time>2013-07-30T16:59:46Z</time>
      </trkpt>
      <trkpt lat="42.604064" lon="1.277418">
        <ele>1791.2</ele>
        <time>2013-07-30T16:59:48Z</time>
      </trkpt>
      <trkpt lat="42.604169" lon="1.277663">
        <ele>1790.1</ele>
        <time>2013-07-30T17:00:05Z</time>
      </trkpt>
      <trkpt lat="42.604239" lon="1.277888">
        <ele>1792.0</ele>
        <time>2013-07-30T17:00:21Z</time>
      </trkpt>
      <trkpt lat="42.604275" lon="1.277932">
        <ele>1791.5</ele>
        <time>2013-07-30T17:00:25Z</time>
      </trkpt>
      <trkpt lat="42.604416" lon="1.278130">
        <ele>1792.8</ele>
        <time>2013-07-30T17:00:41Z</time>
      </trkpt>
      <trkpt lat="42.604423" lon="1.278138">
        <ele>1792.6</ele>
        <time>2013-07-30T17:00:42Z</time>
      </trkpt>
      <trkpt lat="42.604554" lon="1.278339">
        <ele>1794.7</ele>
        <time>2013-07-30T17:01:03Z</time>
      </trkpt>
      <trkpt lat="42.604763" lon="1.278508">
        <ele>1796.7</ele>
        <time>2013-07-30T17:01:24Z</time>
      </trkpt>
      <trkpt lat="42.604996" lon="1.278666">
        <ele>1799.8</ele>
        <time>2013-07-30T17:01:44Z</time>
      </trkpt>
      <trkpt lat="42.605164" lon="1.278749">
        <ele>1802.5</ele>
        <time>2013-07-30T17:02:04Z</time>
      </trkpt>
      <trkpt lat="42.605348" lon="1.278890">
        <ele>1803.2</ele>
        <time>2013-07-30T17:02:23Z</time>
      </trkpt>
      <trkpt lat="42.605549" lon="1.278990">
        <ele>1804.6</ele>
        <time>2013-07-30T17:02:44Z</time>
      </trkpt>
      <trkpt lat="42.605847" lon="1.279092">
        <ele>1807.9</ele>
        <time>2013-07-30T17:03:05Z</time>
      </trkpt>
      <trkpt lat="42.605953" lon="1.279239">
        <ele>1809.5</ele>
        <time>2013-07-30T17:03:19Z</time>
      </trkpt>
      <trkpt lat="42.605950" lon="1.279274">
        <ele>1809.6</ele>
        <time>2013-07-30T17:03:22Z</time>
      </trkpt>
      <trkpt lat="42.605926" lon="1.279341">
        <ele>1810.3</ele>
        <time>2013-07-30T17:03:28Z</time>
      </trkpt>
      <trkpt lat="42.605889" lon="1.279407">
        <ele>1811.8</ele>
        <time>2013-07-30T17:03:34Z</time>
      </trkpt>
      <trkpt lat="42.605823" lon="1.279545">
        <ele>1814.9</ele>
        <time>2013-07-30T17:03:45Z</time>
      </trkpt>
      <trkpt lat="42.605755" lon="1.279819">
        <ele>1815.4</ele>
        <time>2013-07-30T17:04:03Z</time>
      </trkpt>
      <trkpt lat="42.605696" lon="1.280072">
        <ele>1816.5</ele>
        <time>2013-07-30T17:04:19Z</time>
      </trkpt>
      <trkpt lat="42.605651" lon="1.280281">
        <ele>1817.2</ele>
        <time>2013-07-30T17:04:33Z</time>
      </trkpt>
      <trkpt lat="42.605643" lon="1.280309">
        <ele>1817.3</ele>
        <time>2013-07-30T17:04:35Z</time>
      </trkpt>
      <trkpt lat="42.605569" lon="1.280522">
        <ele>1819.5</ele>
        <time>2013-07-30T17:04:50Z</time>
      </trkpt>
      <trkpt lat="42.605531" lon="1.280771">
        <ele>1820.2</ele>
        <time>2013-07-30T17:05:07Z</time>
      </trkpt>
      <trkpt lat="42.605481" lon="1.280973">
        <ele>1822.5</ele>
        <time>2013-07-30T17:05:22Z</time>
      </trkpt>
      <trkpt lat="42.605468" lon="1.281220">
        <ele>1822.1</ele>
        <time>2013-07-30T17:05:38Z</time>
      </trkpt>
      <trkpt lat="42.605466" lon="1.281473">
        <ele>1824.0</ele>
        <time>2013-07-30T17:05:55Z</time>
      </trkpt>
      <trkpt lat="42.605438" lon="1.281844">
        <ele>1828.0</ele>
        <time>2013-07-30T17:06:14Z</time>
      </trkpt>
      <trkpt lat="42.605528" lon="1.282147">
        <ele>1829.1</ele>
        <time>2013-07-30T17:06:33Z</time>
      </trkpt>
      <trkpt lat="42.605703" lon="1.282321">
        <ele>1830.9</ele>
        <time>2013-07-30T17:06:54Z</time>
      </trkpt>
      <trkpt lat="42.605897" lon="1.282369">
        <ele>1832.3</ele>
        <time>2013-07-30T17:07:15Z</time>
      </trkpt>
      <trkpt lat="42.606147" lon="1.282505">
        <ele>1834.9</ele>
        <time>2013-07-30T17:07:36Z</time>
      </trkpt>
      <trkpt lat="42.606272" lon="1.282581">
        <ele>1835.2</ele>
        <time>2013-07-30T17:07:48Z</time>
      </trkpt>
      <trkpt lat="42.606416" lon="1.282646">
        <ele>1836.7</ele>
        <time>2013-07-30T17:08:00Z</time>
      </trkpt>
      <trkpt lat="42.606557" lon="1.282747">
        <ele>1839.1</ele>
        <time>2013-07-30T17:08:13Z</time>
      </trkpt>
      <trkpt lat="42.606684" lon="1.282809">
        <ele>1839.6</ele>
        <time>2013-07-30T17:08:26Z</time>
      </trkpt>
      <trkpt lat="42.606798" lon="1.282865">
        <ele>1840.6</ele>
        <time>2013-07-30T17:08:39Z</time>
      </trkpt>
      <trkpt lat="42.606834" lon="1.282886">
        <ele>1841.4</ele>
        <time>2013-07-30T17:08:42Z</time>
      </trkpt>
      <trkpt lat="42.606888" lon="1.282911">
        <ele>1842.0</ele>
        <time>2013-07-30T17:08:47Z</time>
      </trkpt>
      <trkpt lat="42.606975" lon="1.282958">
        <ele>1843.1</ele>
        <time>2013-07-30T17:08:53Z</time>
      </trkpt>
      <trkpt lat="42.607121" lon="1.283037">
        <ele>1845.8</ele>
        <time>2013-07-30T17:09:05Z</time>
      </trkpt>
      <trkpt lat="42.607137" lon="1.283040">
        <ele>1846.0</ele>
        <time>2013-07-30T17:09:06Z</time>
      </trkpt>
      <trkpt lat="42.607260" lon="1.283067">
        <ele>1847.3</ele>
        <time>2013-07-30T17:09:20Z</time>
      </trkpt>
      <trkpt lat="42.607453" lon="1.283125">
        <ele>1848.7</ele>
        <time>2013-07-30T17:09:32Z</time>
      </trkpt>
      <trkpt lat="42.607613" lon="1.283219">
        <ele>1849.4</ele>
        <time>2013-07-30T17:09:47Z</time>
      </trkpt>
      <trkpt lat="42.607765" lon="1.283346">
        <ele>1851.8</ele>
        <time>2013-07-30T17:10:02Z</time>
      </trkpt>
      <trkpt lat="42.607835" lon="1.283431">
        <ele>1852.7</ele>
        <time>2013-07-30T17:10:10Z</time>
      </trkpt>
      <trkpt lat="42.607952" lon="1.283549">
        <ele>1853.4</ele>
        <time>2013-07-30T17:10:22Z</time>
      </trkpt>
      <trkpt lat="42.607955" lon="1.283620">
        <ele>1854.0</ele>
        <time>2013-07-30T17:10:29Z</time>
      </trkpt>
      <trkpt lat="42.607931" lon="1.283625">
        <ele>1854.4</ele>
        <time>2013-07-30T17:10:32Z</time>
      </trkpt>
      <trkpt lat="42.607858" lon="1.283548">
        <ele>1855.7</ele>
        <time>2013-07-30T17:10:44Z</time>
      </trkpt>
      <trkpt lat="42.607831" lon="1.283531">
        <ele>1856.3</ele>
        <time>2013-07-30T17:10:47Z</time>
      </trkpt>
      <trkpt lat="42.607687" lon="1.283443">
        <ele>1858.3</ele>
        <time>2013-07-30T17:11:01Z</time>
      </trkpt>
      <trkpt lat="42.607655" lon="1.283439">
        <ele>1858.8</ele>
        <time>2013-07-30T17:11:04Z</time>
      </trkpt>
      <trkpt lat="42.607579" lon="1.283414">
        <ele>1858.7</ele>
        <time>2013-07-30T17:11:11Z</time>
      </trkpt>
      <trkpt lat="42.607451" lon="1.283376">
        <ele>1858.9</ele>
        <time>2013-07-30T17:11:23Z</time>
      </trkpt>
      <trkpt lat="42.607318" lon="1.283410">
        <ele>1860.8</ele>
        <time>2013-07-30T17:11:36Z</time>
      </trkpt>
      <trkpt lat="42.607252" lon="1.283415">
        <ele>1861.1</ele>
        <time>2013-07-30T17:11:42Z</time>
      </trkpt>
      <trkpt lat="42.607101" lon="1.283388">
        <ele>1860.9</ele>
        <time>2013-07-30T17:11:54Z</time>
      </trkpt>
      <trkpt lat="42.606952" lon="1.283394">
        <ele>1861.3</ele>
        <time>2013-07-30T17:12:06Z</time>
      </trkpt>
      <trkpt lat="42.606803" lon="1.283361">
        <ele>1861.3</ele>
        <time>2013-07-30T17:12:19Z</time>
      </trkpt>
      <trkpt lat="42.606661" lon="1.283324">
        <ele>1862.3</ele>
        <time>2013-07-30T17:12:31Z</time>
      </trkpt>
      <trkpt lat="42.606602" lon="1.283319">
        <ele>1863.4</ele>
        <time>2013-07-30T17:12:35Z</time>
      </trkpt>
      <trkpt lat="42.606520" lon="1.283291">
        <ele>1864.4</ele>
        <time>2013-07-30T17:12:42Z</time>
      </trkpt>
      <trkpt lat="42.606455" lon="1.283278">
        <ele>1865.4</ele>
        <time>2013-07-30T17:12:48Z</time>
      </trkpt>
      <trkpt lat="42.606329" lon="1.283220">
        <ele>1867.1</ele>
        <time>2013-07-30T17:13:01Z</time>
      </trkpt>
      <trkpt lat="42.606163" lon="1.283163">
        <ele>1868.3</ele>
        <time>2013-07-30T17:13:13Z</time>
      </trkpt>
      <trkpt lat="42.606144" lon="1.283161">
        <ele>1868.5</ele>
        <time>2013-07-30T17:13:15Z</time>
      </trkpt>
      <trkpt lat="42.606089" lon="1.283158">
        <ele>1869.3</ele>
        <time>2013-07-30T17:13:22Z</time>
      </trkpt>
      <trkpt lat="42.606027" lon="1.283158">
        <ele>1870.7</ele>
        <time>2013-07-30T17:13:28Z</time>
      </trkpt>
      <trkpt lat="42.605995" lon="1.283160">
        <ele>1871.2</ele>
        <time>2013-07-30T17:13:32Z</time>
      </trkpt>
      <trkpt lat="42.605860" lon="1.283156">
        <ele>1873.2</ele>
        <time>2013-07-30T17:13:43Z</time>
      </trkpt>
      <trkpt lat="42.605736" lon="1.283147">
        <ele>1873.8</ele>
        <time>2013-07-30T17:13:56Z</time>
      </trkpt>
      <trkpt lat="42.605699" lon="1.283155">
        <ele>1874.3</ele>
        <time>2013-07-30T17:13:59Z</time>
      </trkpt>
      <trkpt lat="42.605653" lon="1.283145">
        <ele>1873.7</ele>
        <time>2013-07-30T17:14:02Z</time>
      </trkpt>
      <trkpt lat="42.605612" lon="1.283136">
        <ele>1873.2</ele>
        <time>2013-07-30T17:14:05Z</time>
      </trkpt>
      <trkpt lat="42.605479" lon="1.283182">
        <ele>1875.5</ele>
        <time>2013-07-30T17:14:17Z</time>
      </trkpt>
      <trkpt lat="42.605373" lon="1.283302">
        <ele>1877.7</ele>
        <time>2013-07-30T17:14:28Z</time>
      </trkpt>
      <trkpt lat="42.605337" lon="1.283308">
        <ele>1876.4</ele>
        <time>2013-07-30T17:14:32Z</time>
      </trkpt>
      <trkpt lat="42.605280" lon="1.283318">
        <ele>1876.4</ele>
        <time>2013-07-30T17:14:36Z</time>
      </trkpt>
      <trkpt lat="42.605139" lon="1.283272">
        <ele>1879.7</ele>
        <time>2013-07-30T17:14:51Z</time>
      </trkpt>
      <trkpt lat="42.605082" lon="1.283235">
        <ele>1880.7</ele>
        <time>2013-07-30T17:14:59Z</time>
      </trkpt>
      <trkpt lat="42.604945" lon="1.283103">
        <ele>1882.1</ele>
        <time>2013-07-30T17:15:12Z</time>
      </trkpt>
      <trkpt lat="42.604857" lon="1.283037">
        <ele>1883.5</ele>
        <time>2013-07-30T17:15:25Z</time>
      </trkpt>
      <trkpt lat="42.604795" lon="1.282972">
        <ele>1884.4</ele>
        <time>2013-07-30T17:15:30Z</time>
      </trkpt>
      <trkpt lat="42.604711" lon="1.282845">
        <ele>1885.4</ele>
        <time>2013-07-30T17:15:42Z</time>
      </trkpt>
      <trkpt lat="42.604641" lon="1.282708">
        <ele>1886.2</ele>
        <time>2013-07-30T17:15:54Z</time>
      </trkpt>
      <trkpt lat="42.604531" lon="1.282536">
        <ele>1889.2</ele>
        <time>2013-07-30T17:16:07Z</time>
      </trkpt>
      <trkpt lat="42.604476" lon="1.282356">
        <ele>1891.0</ele>
        <time>2013-07-30T17:16:20Z</time>
      </trkpt>
      <trkpt lat="42.604431" lon="1.282228">
        <ele>1891.8</ele>
        <time>2013-07-30T17:16:29Z</time>
      </trkpt>
      <trkpt lat="42.604399" lon="1.282038">
        <ele>1893.7</ele>
        <time>2013-07-30T17:16:41Z</time>
      </trkpt>
      <trkpt lat="42.604365" lon="1.281825">
        <ele>1894.8</ele>
        <time>2013-07-30T17:16:57Z</time>
      </trkpt>
      <trkpt lat="42.604365" lon="1.281811">
        <ele>1894.8</ele>
        <time>2013-07-30T17:16:58Z</time>
      </trkpt>
      <trkpt lat="42.604347" lon="1.281696">
        <ele>1896.1</ele>
        <time>2013-07-30T17:17:06Z</time>
      </trkpt>
      <trkpt lat="42.604322" lon="1.281489">
        <ele>1897.9</ele>
        <time>2013-07-30T17:17:20Z</time>
      </trkpt>
      <trkpt lat="42.604307" lon="1.281364">
        <ele>1898.8</ele>
        <time>2013-07-30T17:17:29Z</time>
      </trkpt>
      <trkpt lat="42.604283" lon="1.281278">
        <ele>1899.8</ele>
        <time>2013-07-30T17:17:37Z</time>
      </trkpt>
      <trkpt lat="42.604261" lon="1.281069">
        <ele>1901.8</ele>
        <time>2013-07-30T17:17:52Z</time>
      </trkpt>
      <trkpt lat="42.604224" lon="1.280924">
        <ele>1903.8</ele>
        <time>2013-07-30T17:18:01Z</time>
      </trkpt>
      <trkpt lat="42.604183" lon="1.280730">
        <ele>1905.9</ele>
        <time>2013-07-30T17:18:14Z</time>
      </trkpt>
      <trkpt lat="42.604155" lon="1.280647">
        <ele>1906.7</ele>
        <time>2013-07-30T17:18:20Z</time>
      </trkpt>
      <trkpt lat="42.604058" lon="1.280506">
        <ele>1908.3</ele>
        <time>2013-07-30T17:18:34Z</time>
      </trkpt>
      <trkpt lat="42.603927" lon="1.280395">
        <ele>1909.7</ele>
        <time>2013-07-30T17:18:48Z</time>
      </trkpt>
      <trkpt lat="42.603827" lon="1.280328">
        <ele>1911.0</ele>
        <time>2013-07-30T17:18:59Z</time>
      </trkpt>
      <trkpt lat="42.603704" lon="1.280230">
        <ele>1913.0</ele>
        <time>2013-07-30T17:19:11Z</time>
      </trkpt>
      <trkpt lat="42.603647" lon="1.280190">
        <ele>1914.7</ele>
        <time>2013-07-30T17:19:16Z</time>
      </trkpt>
      <trkpt lat="42.603568" lon="1.280086">
        <ele>1914.4</ele>
        <time>2013-07-30T17:19:26Z</time>
      </trkpt>
      <trkpt lat="42.603460" lon="1.279979">
        <ele>1916.2</ele>
        <time>2013-07-30T17:19:36Z</time>
      </trkpt>
      <trkpt lat="42.603406" lon="1.280023">
        <ele>1916.2</ele>
        <time>2013-07-30T17:19:43Z</time>
      </trkpt>
      <trkpt lat="42.603394" lon="1.280054">
        <ele>1916.3</ele>
        <time>2013-07-30T17:19:45Z</time>
      </trkpt>
      <trkpt lat="42.603384" lon="1.280220">
        <ele>1917.1</ele>
        <time>2013-07-30T17:19:56Z</time>
      </trkpt>
      <trkpt lat="42.603383" lon="1.280396">
        <ele>1918.3</ele>
        <time>2013-07-30T17:20:08Z</time>
      </trkpt>
      <trkpt lat="42.603389" lon="1.280620">
        <ele>1920.6</ele>
        <time>2013-07-30T17:20:21Z</time>
      </trkpt>
      <trkpt lat="42.603390" lon="1.280731">
        <ele>1920.8</ele>
        <time>2013-07-30T17:20:28Z</time>
      </trkpt>
      <trkpt lat="42.603377" lon="1.280875">
        <ele>1921.6</ele>
        <time>2013-07-30T17:20:37Z</time>
      </trkpt>
      <trkpt lat="42.603365" lon="1.281079">
        <ele>1923.0</ele>
        <time>2013-07-30T17:20:49Z</time>
      </trkpt>
      <trkpt lat="42.603326" lon="1.281271">
        <ele>1924.0</ele>
        <time>2013-07-30T17:21:02Z</time>
      </trkpt>
      <trkpt lat="42.603281" lon="1.281423">
        <ele>1925.0</ele>
        <time>2013-07-30T17:21:12Z</time>
      </trkpt>
      <trkpt lat="42.603297" lon="1.281459">
        <ele>1925.6</ele>
        <time>2013-07-30T17:21:15Z</time>
      </trkpt>
      <trkpt lat="42.603314" lon="1.281503">
        <ele>1926.4</ele>
        <time>2013-07-30T17:21:19Z</time>
      </trkpt>
      <trkpt lat="42.603358" lon="1.281572">
        <ele>1927.5</ele>
        <time>2013-07-30T17:21:26Z</time>
      </trkpt>
      <trkpt lat="42.603391" lon="1.281657">
        <ele>1928.5</ele>
        <time>2013-07-30T17:21:37Z</time>
      </trkpt>
      <trkpt lat="42.603398" lon="1.281695">
        <ele>1928.9</ele>
        <time>2013-07-31T05:14:28Z</time>
      </trkpt>
      <trkpt lat="42.603380" lon="1.281838">
        <ele>1930.6</ele>
        <time>2013-07-31T05:14:41Z</time>
      </trkpt>
      <trkpt lat="42.603357" lon="1.281870">
        <ele>1931.1</ele>
        <time>2013-07-31T05:14:44Z</time>
      </trkpt>
      <trkpt lat="42.603328" lon="1.281902">
        <ele>1931.7</ele>
        <time>2013-07-31T05:14:48Z</time>
      </trkpt>
      <trkpt lat="42.603294" lon="1.281925">
        <ele>1932.3</ele>
        <time>2013-07-31T05:14:52Z</time>
      </trkpt>
      <trkpt lat="42.603278" lon="1.282051">
        <ele>1934.1</ele>
        <time>2013-07-31T05:15:04Z</time>
      </trkpt>
      <trkpt lat="42.603259" lon="1.282155">
        <ele>1935.7</ele>
        <time>2013-07-31T05:15:15Z</time>
      </trkpt>
      <trkpt lat="42.603250" lon="1.282261">
        <ele>1937.2</ele>
        <time>2013-07-31T05:15:26Z</time>
      </trkpt>
      <trkpt lat="42.603245" lon="1.282271">
        <ele>1937.4</ele>
        <time>2013-07-31T05:15:27Z</time>
      </trkpt>
      <trkpt lat="42.603193" lon="1.282370">
        <ele>1939.5</ele>
        <time>2013-07-31T05:15:38Z</time>
      </trkpt>
      <trkpt lat="42.603117" lon="1.282436">
        <ele>1941.4</ele>
        <time>2013-07-31T05:15:50Z</time>
      </trkpt>
      <trkpt lat="42.603096" lon="1.282466">
        <ele>1941.9</ele>
        <time>2013-07-31T05:15:54Z</time>
      </trkpt>
      <trkpt lat="42.603043" lon="1.282563">
        <ele>1943.6</ele>
        <time>2013-07-31T05:16:06Z</time>
      </trkpt>
      <trkpt lat="42.603005" lon="1.282679">
        <ele>1945.4</ele>
        <time>2013-07-31T05:16:18Z</time>
      </trkpt>
      <trkpt lat="42.603010" lon="1.282792">
        <ele>1947.3</ele>
        <time>2013-07-31T05:16:28Z</time>
      </trkpt>
      <trkpt lat="42.603007" lon="1.282856">
        <ele>1948.0</ele>
        <time>2013-07-31T05:16:34Z</time>
      </trkpt>
      <trkpt lat="42.603023" lon="1.282985">
        <ele>1949.7</ele>
        <time>2013-07-31T05:16:46Z</time>
      </trkpt>
      <trkpt lat="42.603030" lon="1.283081">
        <ele>1951.2</ele>
        <time>2013-07-31T05:16:56Z</time>
      </trkpt>
      <trkpt lat="42.603045" lon="1.283223">
        <ele>1953.4</ele>
        <time>2013-07-31T05:17:08Z</time>
      </trkpt>
      <trkpt lat="42.603056" lon="1.283272">
        <ele>1954.1</ele>
        <time>2013-07-31T05:17:13Z</time>
      </trkpt>
      <trkpt lat="42.603053" lon="1.283301">
        <ele>1954.7</ele>
        <time>2013-07-31T05:17:16Z</time>
      </trkpt>
      <trkpt lat="42.603041" lon="1.283403">
        <ele>1956.4</ele>
        <time>2013-07-31T05:17:28Z</time>
      </trkpt>
      <trkpt lat="42.603013" lon="1.283494">
        <ele>1958.2</ele>
        <time>2013-07-31T05:17:40Z</time>
      </trkpt>
      <trkpt lat="42.603013" lon="1.283547">
        <ele>1959.2</ele>
        <time>2013-07-31T05:17:50Z</time>
      </trkpt>
      <trkpt lat="42.603018" lon="1.283656">
        <ele>1961.5</ele>
        <time>2013-07-31T05:18:01Z</time>
      </trkpt>
      <trkpt lat="42.602992" lon="1.283777">
        <ele>1963.5</ele>
        <time>2013-07-31T05:18:13Z</time>
      </trkpt>
      <trkpt lat="42.602971" lon="1.283894">
        <ele>1965.5</ele>
        <time>2013-07-31T05:18:25Z</time>
      </trkpt>
      <trkpt lat="42.602976" lon="1.284000">
        <ele>1968.2</ele>
        <time>2013-07-31T05:18:36Z</time>
      </trkpt>
      <trkpt lat="42.602987" lon="1.284043">
        <ele>1969.4</ele>
        <time>2013-07-31T05:18:43Z</time>
      </trkpt>
      <trkpt lat="42.602982" lon="1.284179">
        <ele>1972.4</ele>
        <time>2013-07-31T05:18:56Z</time>
      </trkpt>
      <trkpt lat="42.603022" lon="1.284293">
        <ele>1974.2</ele>
        <time>2013-07-31T05:19:08Z</time>
      </trkpt>
      <trkpt lat="42.603019" lon="1.284356">
        <ele>1975.1</ele>
        <time>2013-07-31T05:19:14Z</time>
      </trkpt>
      <trkpt lat="42.602957" lon="1.284489">
        <ele>1976.1</ele>
        <time>2013-07-31T05:19:26Z</time>
      </trkpt>
      <trkpt lat="42.602915" lon="1.284660">
        <ele>1976.8</ele>
        <time>2013-07-31T05:19:38Z</time>
      </trkpt>
      <trkpt lat="42.602848" lon="1.284804">
        <ele>1976.0</ele>
        <time>2013-07-31T05:19:50Z</time>
      </trkpt>
      <trkpt lat="42.602830" lon="1.284875">
        <ele>1976.9</ele>
        <time>2013-07-31T05:19:55Z</time>
      </trkpt>
      <trkpt lat="42.602807" lon="1.284907">
        <ele>1976.7</ele>
        <time>2013-07-31T05:19:58Z</time>
      </trkpt>
      <trkpt lat="42.602763" lon="1.285048">
        <ele>1978.9</ele>
        <time>2013-07-31T05:20:10Z</time>
      </trkpt>
      <trkpt lat="42.602752" lon="1.285070">
        <ele>1979.2</ele>
        <time>2013-07-31T05:20:12Z</time>
      </trkpt>
      <trkpt lat="42.602731" lon="1.285106">
        <ele>1979.4</ele>
        <time>2013-07-31T05:20:16Z</time>
      </trkpt>
      <trkpt lat="42.602668" lon="1.285286">
        <ele>1979.4</ele>
        <time>2013-07-31T05:20:30Z</time>
      </trkpt>
      <trkpt lat="42.602643" lon="1.285350">
        <ele>1979.3</ele>
        <time>2013-07-31T05:20:35Z</time>
      </trkpt>
      <trkpt lat="42.602617" lon="1.285392">
        <ele>1979.2</ele>
        <time>2013-07-31T05:20:39Z</time>
      </trkpt>
      <trkpt lat="42.602587" lon="1.285472">
        <ele>1980.4</ele>
        <time>2013-07-31T05:20:46Z</time>
      </trkpt>
      <trkpt lat="42.602575" lon="1.285545">
        <ele>1982.0</ele>
        <time>2013-07-31T05:20:54Z</time>
      </trkpt>
      <trkpt lat="42.602538" lon="1.285634">
        <ele>1983.1</ele>
        <time>2013-07-31T05:21:04Z</time>
      </trkpt>
      <trkpt lat="42.602490" lon="1.285734">
        <ele>1984.6</ele>
        <time>2013-07-31T05:21:15Z</time>
      </trkpt>
      <trkpt lat="42.602473" lon="1.285814">
        <ele>1986.4</ele>
        <time>2013-07-31T05:21:25Z</time>
      </trkpt>
      <trkpt lat="42.602447" lon="1.285855">
        <ele>1987.0</ele>
        <time>2013-07-31T05:21:30Z</time>
      </trkpt>
      <trkpt lat="42.602419" lon="1.285903">
        <ele>1987.5</ele>
        <time>2013-07-31T05:21:37Z</time>
      </trkpt>
      <trkpt lat="42.602379" lon="1.286002">
        <ele>1988.2</ele>
        <time>2013-07-31T05:21:47Z</time>
      </trkpt>
      <trkpt lat="42.602313" lon="1.286146">
        <ele>1988.6</ele>
        <time>2013-07-31T05:21:59Z</time>
      </trkpt>
      <trkpt lat="42.602280" lon="1.286201">
        <ele>1988.5</ele>
        <time>2013-07-31T05:22:04Z</time>
      </trkpt>
      <trkpt lat="42.602244" lon="1.286252">
        <ele>1988.3</ele>
        <time>2013-07-31T05:22:09Z</time>
      </trkpt>
      <trkpt lat="42.602229" lon="1.286294">
        <ele>1989.0</ele>
        <time>2013-07-31T05:22:13Z</time>
      </trkpt>
      <trkpt lat="42.602190" lon="1.286386">
        <ele>1990.1</ele>
        <time>2013-07-31T05:22:24Z</time>
      </trkpt>
      <trkpt lat="42.602183" lon="1.286442">
        <ele>1991.4</ele>
        <time>2013-07-31T05:22:29Z</time>
      </trkpt>
      <trkpt lat="42.602161" lon="1.286539">
        <ele>1993.7</ele>
        <time>2013-07-31T05:22:41Z</time>
      </trkpt>
      <trkpt lat="42.602126" lon="1.286587">
        <ele>1994.8</ele>
        <time>2013-07-31T05:22:52Z</time>
      </trkpt>
      <trkpt lat="42.602119" lon="1.286596">
        <ele>1995.0</ele>
        <time>2013-07-31T05:22:53Z</time>
      </trkpt>
      <trkpt lat="42.602059" lon="1.286641">
        <ele>1996.5</ele>
        <time>2013-07-31T05:23:01Z</time>
      </trkpt>
      <trkpt lat="42.601981" lon="1.286697">
        <ele>1998.7</ele>
        <time>2013-07-31T05:23:13Z</time>
      </trkpt>
      <trkpt lat="42.601934" lon="1.286770">
        <ele>2000.8</ele>
        <time>2013-07-31T05:23:24Z</time>
      </trkpt>
      <trkpt lat="42.601885" lon="1.286846">
        <ele>2002.7</ele>
        <time>2013-07-31T05:23:36Z</time>
      </trkpt>
      <trkpt lat="42.601857" lon="1.286907">
        <ele>2004.4</ele>
        <time>2013-07-31T05:23:45Z</time>
      </trkpt>
      <trkpt lat="42.601811" lon="1.286985">
        <ele>2006.2</ele>
        <time>2013-07-31T05:23:56Z</time>
      </trkpt>
      <trkpt lat="42.601788" lon="1.287064">
        <ele>2008.8</ele>
        <time>2013-07-31T05:24:06Z</time>
      </trkpt>
      <trkpt lat="42.601788" lon="1.287119">
        <ele>2010.7</ele>
        <time>2013-07-31T05:24:17Z</time>
      </trkpt>
      <trkpt lat="42.601776" lon="1.287156">
        <ele>2011.8</ele>
        <time>2013-07-31T05:24:22Z</time>
      </trkpt>
      <trkpt lat="42.601836" lon="1.287200">
        <ele>2014.7</ele>
        <time>2013-07-31T05:24:33Z</time>
      </trkpt>
      <trkpt lat="42.601810" lon="1.287275">
        <ele>2016.3</ele>
        <time>2013-07-31T05:24:45Z</time>
      </trkpt>
      <trkpt lat="42.601763" lon="1.287304">
        <ele>2017.0</ele>
        <time>2013-07-31T05:24:52Z</time>
      </trkpt>
      <trkpt lat="42.601707" lon="1.287350">
        <ele>2018.9</ele>
        <time>2013-07-31T05:25:00Z</time>
      </trkpt>
      <trkpt lat="42.601632" lon="1.287376">
        <ele>2020.7</ele>
        <time>2013-07-31T05:25:12Z</time>
      </trkpt>
      <trkpt lat="42.601564" lon="1.287403">
        <ele>2021.9</ele>
        <time>2013-07-31T05:25:21Z</time>
      </trkpt>
      <trkpt lat="42.601535" lon="1.287441">
        <ele>2023.5</ele>
        <time>2013-07-31T05:25:27Z</time>
      </trkpt>
      <trkpt lat="42.601501" lon="1.287504">
        <ele>2025.7</ele>
        <time>2013-07-31T05:25:38Z</time>
      </trkpt>
      <trkpt lat="42.601505" lon="1.287530">
        <ele>2026.7</ele>
        <time>2013-07-31T05:25:40Z</time>
      </trkpt>
      <trkpt lat="42.601573" lon="1.287542">
        <ele>2028.6</ele>
        <time>2013-07-31T05:25:50Z</time>
      </trkpt>
      <trkpt lat="42.601608" lon="1.287555">
        <ele>2029.3</ele>
        <time>2013-07-31T05:25:55Z</time>
      </trkpt>
      <trkpt lat="42.601636" lon="1.287613">
        <ele>2031.1</ele>
        <time>2013-07-31T05:26:06Z</time>
      </trkpt>
      <trkpt lat="42.601641" lon="1.287637">
        <ele>2031.6</ele>
        <time>2013-07-31T05:26:10Z</time>
      </trkpt>
      <trkpt lat="42.601632" lon="1.287683">
        <ele>2032.7</ele>
        <time>2013-07-31T05:26:15Z</time>
      </trkpt>
      <trkpt lat="42.601589" lon="1.287742">
        <ele>2034.4</ele>
        <time>2013-07-31T05:26:27Z</time>
      </trkpt>
      <trkpt lat="42.601584" lon="1.287752">
        <ele>2034.6</ele>
        <time>2013-07-31T05:26:28Z</time>
      </trkpt>
      <trkpt lat="42.601589" lon="1.287833">
        <ele>2036.6</ele>
        <time>2013-07-31T05:26:39Z</time>
      </trkpt>
      <trkpt lat="42.601531" lon="1.287902">
        <ele>2038.7</ele>
        <time>2013-07-31T05:26:51Z</time>
      </trkpt>
      <trkpt lat="42.601455" lon="1.287941">
        <ele>2040.6</ele>
        <time>2013-07-31T05:27:03Z</time>
      </trkpt>
      <trkpt lat="42.601391" lon="1.288013">
        <ele>2042.7</ele>
        <time>2013-07-31T05:27:15Z</time>
      </trkpt>
      <trkpt lat="42.601386" lon="1.288052">
        <ele>2043.8</ele>
        <time>2013-07-31T05:27:19Z</time>
      </trkpt>
      <trkpt lat="42.601418" lon="1.288140">
        <ele>2046.5</ele>
        <time>2013-07-31T05:27:33Z</time>
      </trkpt>
      <trkpt lat="42.601442" lon="1.288210">
        <ele>2048.4</ele>
        <time>2013-07-31T05:27:41Z</time>
      </trkpt>
      <trkpt lat="42.601478" lon="1.288281">
        <ele>2050.7</ele>
        <time>2013-07-31T05:27:52Z</time>
      </trkpt>
      <trkpt lat="42.601512" lon="1.288343">
        <ele>2052.5</ele>
        <time>2013-07-31T05:28:04Z</time>
      </trkpt>
      <trkpt lat="42.601553" lon="1.288410">
        <ele>2054.5</ele>
        <time>2013-07-31T05:28:14Z</time>
      </trkpt>
      <trkpt lat="42.601572" lon="1.288475">
        <ele>2056.5</ele>
        <time>2013-07-31T05:28:25Z</time>
      </trkpt>
      <trkpt lat="42.601605" lon="1.288523">
        <ele>2057.7</ele>
        <time>2013-07-31T05:28:36Z</time>
      </trkpt>
      <trkpt lat="42.601584" lon="1.288568">
        <ele>2058.8</ele>
        <time>2013-07-31T05:28:43Z</time>
      </trkpt>
      <trkpt lat="42.601529" lon="1.288622">
        <ele>2060.6</ele>
        <time>2013-07-31T05:28:56Z</time>
      </trkpt>
      <trkpt lat="42.601476" lon="1.288650">
        <ele>2062.3</ele>
        <time>2013-07-31T05:29:10Z</time>
      </trkpt>
      <trkpt lat="42.601356" lon="1.288713">
        <ele>2064.4</ele>
        <time>2013-07-31T05:29:23Z</time>
      </trkpt>
      <trkpt lat="42.601357" lon="1.288786">
        <ele>2066.9</ele>
        <time>2013-07-31T05:29:33Z</time>
      </trkpt>
      <trkpt lat="42.601402" lon="1.288825">
        <ele>2068.4</ele>
        <time>2013-07-31T05:29:46Z</time>
      </trkpt>
      <trkpt lat="42.601465" lon="1.288908">
        <ele>2070.9</ele>
        <time>2013-07-31T05:29:53Z</time>
      </trkpt>
      <trkpt lat="42.601547" lon="1.288950">
        <ele>2072.7</ele>
        <time>2013-07-31T05:30:04Z</time>
      </trkpt>
      <trkpt lat="42.601601" lon="1.288973">
        <ele>2074.5</ele>
        <time>2013-07-31T05:30:14Z</time>
      </trkpt>
      <trkpt lat="42.601693" lon="1.288994">
        <ele>2076.7</ele>
        <time>2013-07-31T05:30:28Z</time>
      </trkpt>
      <trkpt lat="42.601702" lon="1.288992">
        <ele>2076.7</ele>
        <time>2013-07-31T05:30:29Z</time>
      </trkpt>
      <trkpt lat="42.601756" lon="1.289004">
        <ele>2078.2</ele>
        <time>2013-07-31T05:30:40Z</time>
      </trkpt>
      <trkpt lat="42.601720" lon="1.289029">
        <ele>2078.6</ele>
        <time>2013-07-31T05:31:00Z</time>
      </trkpt>
      <trkpt lat="42.601657" lon="1.289098">
        <ele>2081.2</ele>
        <time>2013-07-31T05:31:12Z</time>
      </trkpt>
      <trkpt lat="42.601680" lon="1.289171">
        <ele>2084.5</ele>
        <time>2013-07-31T05:31:23Z</time>
      </trkpt>
      <trkpt lat="42.601736" lon="1.289216">
        <ele>2087.2</ele>
        <time>2013-07-31T05:31:34Z</time>
      </trkpt>
      <trkpt lat="42.601823" lon="1.289238">
        <ele>2089.0</ele>
        <time>2013-07-31T05:31:45Z</time>
      </trkpt>
      <trkpt lat="42.601833" lon="1.289252">
        <ele>2089.8</ele>
        <time>2013-07-31T05:31:57Z</time>
      </trkpt>
      <trkpt lat="42.601797" lon="1.289281">
        <ele>2090.1</ele>
        <time>2013-07-31T05:32:02Z</time>
      </trkpt>
      <trkpt lat="42.601771" lon="1.289302">
        <ele>2091.0</ele>
        <time>2013-07-31T05:32:12Z</time>
      </trkpt>
      <trkpt lat="42.601683" lon="1.289333">
        <ele>2093.3</ele>
        <time>2013-07-31T05:32:24Z</time>
      </trkpt>
      <trkpt lat="42.601677" lon="1.289335">
        <ele>2093.4</ele>
        <time>2013-07-31T05:32:25Z</time>
      </trkpt>
      <trkpt lat="42.601593" lon="1.289402">
        <ele>2095.8</ele>
        <time>2013-07-31T05:32:39Z</time>
      </trkpt>
      <trkpt lat="42.601522" lon="1.289441">
        <ele>2097.3</ele>
        <time>2013-07-31T05:32:51Z</time>
      </trkpt>
      <trkpt lat="42.601454" lon="1.289510">
        <ele>2099.8</ele>
        <time>2013-07-31T05:33:03Z</time>
      </trkpt>
      <trkpt lat="42.601389" lon="1.289571">
        <ele>2101.4</ele>
        <time>2013-07-31T05:33:14Z</time>
      </trkpt>
      <trkpt lat="42.601350" lon="1.289631">
        <ele>2103.8</ele>
        <time>2013-07-31T05:33:26Z</time>
      </trkpt>
      <trkpt lat="42.601307" lon="1.289687">
        <ele>2106.6</ele>
        <time>2013-07-31T05:33:38Z</time>
      </trkpt>
      <trkpt lat="42.601262" lon="1.289708">
        <ele>2107.9</ele>
        <time>2013-07-31T05:33:49Z</time>
      </trkpt>
      <trkpt lat="42.601203" lon="1.289753">
        <ele>2110.7</ele>
        <time>2013-07-31T05:34:00Z</time>
      </trkpt>
      <trkpt lat="42.601139" lon="1.289814">
        <ele>2113.0</ele>
        <time>2013-07-31T05:34:13Z</time>
      </trkpt>
      <trkpt lat="42.601097" lon="1.289879">
        <ele>2115.2</ele>
        <time>2013-07-31T05:34:24Z</time>
      </trkpt>
      <trkpt lat="42.601065" lon="1.289931">
        <ele>2116.9</ele>
        <time>2013-07-31T05:34:34Z</time>
      </trkpt>
      <trkpt lat="42.601047" lon="1.289996">
        <ele>2119.5</ele>
        <time>2013-07-31T05:34:45Z</time>
      </trkpt>
      <trkpt lat="42.601006" lon="1.290048">
        <ele>2120.9</ele>
        <time>2013-07-31T05:34:55Z</time>
      </trkpt>
      <trkpt lat="42.600959" lon="1.290115">
        <ele>2123.4</ele>
        <time>2013-07-31T05:35:07Z</time>
      </trkpt>
      <trkpt lat="42.600900" lon="1.290185">
        <ele>2125.7</ele>
        <time>2013-07-31T05:35:19Z</time>
      </trkpt>
      <trkpt lat="42.600853" lon="1.290241">
        <ele>2127.7</ele>
        <time>2013-07-31T05:35:31Z</time>
      </trkpt>
      <trkpt lat="42.600842" lon="1.290263">
        <ele>2128.6</ele>
        <time>2013-07-31T05:35:34Z</time>
      </trkpt>
      <trkpt lat="42.600769" lon="1.290310">
        <ele>2131.2</ele>
        <time>2013-07-31T05:35:45Z</time>
      </trkpt>
      <trkpt lat="42.600768" lon="1.290387">
        <ele>2134.0</ele>
        <time>2013-07-31T05:35:56Z</time>
      </trkpt>
      <trkpt lat="42.600753" lon="1.290449">
        <ele>2136.2</ele>
        <time>2013-07-31T05:36:08Z</time>
      </trkpt>
      <trkpt lat="42.600734" lon="1.290527">
        <ele>2138.5</ele>
        <time>2013-07-31T05:36:20Z</time>
      </trkpt>
      <trkpt lat="42.600717" lon="1.290562">
        <ele>2139.9</ele>
        <time>2013-07-31T05:36:33Z</time>
      </trkpt>
      <trkpt lat="42.600703" lon="1.290601">
        <ele>2141.6</ele>
        <time>2013-07-31T05:36:43Z</time>
      </trkpt>
      <trkpt lat="42.600691" lon="1.290684">
        <ele>2144.7</ele>
        <time>2013-07-31T05:36:55Z</time>
      </trkpt>
      <trkpt lat="42.600667" lon="1.290772">
        <ele>2147.9</ele>
        <time>2013-07-31T05:37:08Z</time>
      </trkpt>
      <trkpt lat="42.600639" lon="1.290842">
        <ele>2150.1</ele>
        <time>2013-07-31T05:37:21Z</time>
      </trkpt>
      <trkpt lat="42.600579" lon="1.290883">
        <ele>2151.3</ele>
        <time>2013-07-31T05:37:33Z</time>
      </trkpt>
      <trkpt lat="42.600590" lon="1.290930">
        <ele>2153.1</ele>
        <time>2013-07-31T05:37:42Z</time>
      </trkpt>
      <trkpt lat="42.600559" lon="1.290999">
        <ele>2155.5</ele>
        <time>2013-07-31T05:37:54Z</time>
      </trkpt>
      <trkpt lat="42.600514" lon="1.291052">
        <ele>2157.7</ele>
        <time>2013-07-31T05:38:05Z</time>
      </trkpt>
      <trkpt lat="42.600463" lon="1.291092">
        <ele>2159.0</ele>
        <time>2013-07-31T05:38:17Z</time>
      </trkpt>
      <trkpt lat="42.600428" lon="1.291119">
        <ele>2160.2</ele>
        <time>2013-07-31T05:38:29Z</time>
      </trkpt>
      <trkpt lat="42.600371" lon="1.291222">
        <ele>2163.8</ele>
        <time>2013-07-31T05:38:43Z</time>
      </trkpt>
      <trkpt lat="42.600308" lon="1.291291">
        <ele>2166.1</ele>
        <time>2013-07-31T05:38:54Z</time>
      </trkpt>
      <trkpt lat="42.600267" lon="1.291328">
        <ele>2167.0</ele>
        <time>2013-07-31T05:39:00Z</time>
      </trkpt>
      <trkpt lat="42.600239" lon="1.291338">
        <ele>2167.1</ele>
        <time>2013-07-31T05:39:03Z</time>
      </trkpt>
      <trkpt lat="42.600190" lon="1.291413">
        <ele>2169.2</ele>
        <time>2013-07-31T05:39:13Z</time>
      </trkpt>
      <trkpt lat="42.600178" lon="1.291477">
        <ele>2171.2</ele>
        <time>2013-07-31T05:39:24Z</time>
      </trkpt>
      <trkpt lat="42.600150" lon="1.291547">
        <ele>2173.4</ele>
        <time>2013-07-31T05:39:36Z</time>
      </trkpt>
      <trkpt lat="42.600135" lon="1.291638">
        <ele>2176.0</ele>
        <time>2013-07-31T05:39:47Z</time>
      </trkpt>
      <trkpt lat="42.600101" lon="1.291724">
        <ele>2177.9</ele>
        <time>2013-07-31T05:39:58Z</time>
      </trkpt>
      <trkpt lat="42.600083" lon="1.291760">
        <ele>2179.1</ele>
        <time>2013-07-31T05:40:02Z</time>
      </trkpt>
      <trkpt lat="42.600059" lon="1.291828">
        <ele>2180.9</ele>
        <time>2013-07-31T05:40:12Z</time>
      </trkpt>
      <trkpt lat="42.600024" lon="1.291896">
        <ele>2182.5</ele>
        <time>2013-07-31T05:40:23Z</time>
      </trkpt>
      <trkpt lat="42.600010" lon="1.291968">
        <ele>2184.3</ele>
        <time>2013-07-31T05:40:34Z</time>
      </trkpt>
      <trkpt lat="42.599970" lon="1.292028">
        <ele>2186.0</ele>
        <time>2013-07-31T05:40:45Z</time>
      </trkpt>
      <trkpt lat="42.599948" lon="1.292084">
        <ele>2187.4</ele>
        <time>2013-07-31T05:40:55Z</time>
      </trkpt>
      <trkpt lat="42.599854" lon="1.292187">
        <ele>2190.2</ele>
        <time>2013-07-31T05:41:10Z</time>
      </trkpt>
      <trkpt lat="42.599832" lon="1.292225">
        <ele>2191.3</ele>
        <time>2013-07-31T05:41:17Z</time>
      </trkpt>
      <trkpt lat="42.599749" lon="1.292321">
        <ele>2193.9</ele>
        <time>2013-07-31T05:41:30Z</time>
      </trkpt>
      <trkpt lat="42.599711" lon="1.292379">
        <ele>2195.1</ele>
        <time>2013-07-31T05:41:36Z</time>
      </trkpt>
      <trkpt lat="42.599653" lon="1.292471">
        <ele>2197.0</ele>
        <time>2013-07-31T05:41:47Z</time>
      </trkpt>
      <trkpt lat="42.599629" lon="1.292503">
        <ele>2197.7</ele>
        <time>2013-07-31T05:41:55Z</time>
      </trkpt>
      <trkpt lat="42.599576" lon="1.292571">
        <ele>2199.3</ele>
        <time>2013-07-31T05:42:03Z</time>
      </trkpt>
      <trkpt lat="42.599531" lon="1.292621">
        <ele>2200.4</ele>
        <time>2013-07-31T05:42:09Z</time>
      </trkpt>
      <trkpt lat="42.599515" lon="1.292640">
        <ele>2200.9</ele>
        <time>2013-07-31T05:42:26Z</time>
      </trkpt>
      <trkpt lat="42.599523" lon="1.292641">
        <ele>2200.9</ele>
        <time>2013-07-31T05:42:39Z</time>
      </trkpt>
      <trkpt lat="42.599524" lon="1.292645">
        <ele>2200.9</ele>
        <time>2013-07-31T05:43:10Z</time>
      </trkpt>
      <trkpt lat="42.599524" lon="1.292645">
        <ele>2200.9</ele>
        <time>2013-07-31T05:43:28Z</time>
      </trkpt>
      <trkpt lat="42.599450" lon="1.292703">
        <ele>2202.5</ele>
        <time>2013-07-31T05:43:39Z</time>
      </trkpt>
      <trkpt lat="42.599355" lon="1.292733">
        <ele>2204.2</ele>
        <time>2013-07-31T05:43:50Z</time>
      </trkpt>
      <trkpt lat="42.599282" lon="1.292766">
        <ele>2206.1</ele>
        <time>2013-07-31T05:44:01Z</time>
      </trkpt>
      <trkpt lat="42.599209" lon="1.292809">
        <ele>2208.6</ele>
        <time>2013-07-31T05:44:12Z</time>
      </trkpt>
      <trkpt lat="42.599161" lon="1.292845">
        <ele>2210.4</ele>
        <time>2013-07-31T05:44:23Z</time>
      </trkpt>
      <trkpt lat="42.599065" lon="1.292887">
        <ele>2212.2</ele>
        <time>2013-07-31T05:44:34Z</time>
      </trkpt>
      <trkpt lat="42.598973" lon="1.292931">
        <ele>2214.6</ele>
        <time>2013-07-31T05:44:46Z</time>
      </trkpt>
      <trkpt lat="42.598974" lon="1.292931">
        <ele>2214.6</ele>
        <time>2013-07-31T05:44:47Z</time>
      </trkpt>
      <trkpt lat="42.598895" lon="1.293001">
        <ele>2216.1</ele>
        <time>2013-07-31T05:44:58Z</time>
      </trkpt>
      <trkpt lat="42.598832" lon="1.293054">
        <ele>2217.2</ele>
        <time>2013-07-31T05:45:05Z</time>
      </trkpt>
      <trkpt lat="42.598723" lon="1.293107">
        <ele>2218.5</ele>
        <time>2013-07-31T05:45:15Z</time>
      </trkpt>
      <trkpt lat="42.598668" lon="1.293129">
        <ele>2219.2</ele>
        <time>2013-07-31T05:45:21Z</time>
      </trkpt>
      <trkpt lat="42.598516" lon="1.293223">
        <ele>2220.6</ele>
        <time>2013-07-31T05:45:34Z</time>
      </trkpt>
      <trkpt lat="42.598400" lon="1.293286">
        <ele>2221.1</ele>
        <time>2013-07-31T05:45:45Z</time>
      </trkpt>
      <trkpt lat="42.598281" lon="1.293349">
        <ele>2222.4</ele>
        <time>2013-07-31T05:45:56Z</time>
      </trkpt>
      <trkpt lat="42.598170" lon="1.293412">
        <ele>2224.2</ele>
        <time>2013-07-31T05:46:07Z</time>
      </trkpt>
      <trkpt lat="42.598150" lon="1.293419">
        <ele>2224.5</ele>
        <time>2013-07-31T05:46:09Z</time>
      </trkpt>
      <trkpt lat="42.598059" lon="1.293465">
        <ele>2226.0</ele>
        <time>2013-07-31T05:46:18Z</time>
      </trkpt>
      <trkpt lat="42.598002" lon="1.293494">
        <ele>2226.9</ele>
        <time>2013-07-31T05:46:23Z</time>
      </trkpt>
      <trkpt lat="42.597899" lon="1.293544">
        <ele>2228.0</ele>
        <time>2013-07-31T05:46:33Z</time>
      </trkpt>
      <trkpt lat="42.597755" lon="1.293583">
        <ele>2229.3</ele>
        <time>2013-07-31T05:46:46Z</time>
      </trkpt>
      <trkpt lat="42.597660" lon="1.293648">
        <ele>2230.4</ele>
        <time>2013-07-31T05:46:56Z</time>
      </trkpt>
      <trkpt lat="42.597623" lon="1.293678">
        <ele>2230.9</ele>
        <time>2013-07-31T05:47:00Z</time>
      </trkpt>
      <trkpt lat="42.597514" lon="1.293761">
        <ele>2232.2</ele>
        <time>2013-07-31T05:47:11Z</time>
      </trkpt>
      <trkpt lat="42.597403" lon="1.293879">
        <ele>2233.8</ele>
        <time>2013-07-31T05:47:24Z</time>
      </trkpt>
      <trkpt lat="42.597396" lon="1.293887">
        <ele>2233.9</ele>
        <time>2013-07-31T05:47:25Z</time>
      </trkpt>
      <trkpt lat="42.597384" lon="1.294042">
        <ele>2235.0</ele>
        <time>2013-07-31T05:47:37Z</time>
      </trkpt>
      <trkpt lat="42.597383" lon="1.294050">
        <ele>2235.1</ele>
        <time>2013-07-31T05:47:38Z</time>
      </trkpt>
      <trkpt lat="42.597361" lon="1.294100">
        <ele>2235.8</ele>
        <time>2013-07-31T05:47:42Z</time>
      </trkpt>
      <trkpt lat="42.597363" lon="1.294161">
        <ele>2236.4</ele>
        <time>2013-07-31T05:47:53Z</time>
      </trkpt>
      <trkpt lat="42.597363" lon="1.294161">
        <ele>2236.4</ele>
        <time>2013-07-31T05:48:03Z</time>
      </trkpt>
      <trkpt lat="42.597372" lon="1.294161">
        <ele>2236.4</ele>
        <time>2013-07-31T05:48:16Z</time>
      </trkpt>
      <trkpt lat="42.597372" lon="1.294167">
        <ele>2236.4</ele>
        <time>2013-07-31T05:48:36Z</time>
      </trkpt>
      <trkpt lat="42.597374" lon="1.294170">
        <ele>2236.4</ele>
        <time>2013-07-31T05:48:47Z</time>
      </trkpt>
      <trkpt lat="42.597357" lon="1.294208">
        <ele>2237.2</ele>
        <time>2013-07-31T05:48:51Z</time>
      </trkpt>
      <trkpt lat="42.597272" lon="1.294360">
        <ele>2238.5</ele>
        <time>2013-07-31T05:49:03Z</time>
      </trkpt>
      <trkpt lat="42.597196" lon="1.294542">
        <ele>2238.9</ele>
        <time>2013-07-31T05:49:16Z</time>
      </trkpt>
      <trkpt lat="42.597193" lon="1.294573">
        <ele>2238.8</ele>
        <time>2013-07-31T05:49:18Z</time>
      </trkpt>
      <trkpt lat="42.597180" lon="1.294788">
        <ele>2238.3</ele>
        <time>2013-07-31T05:49:31Z</time>
      </trkpt>
      <trkpt lat="42.597153" lon="1.294959">
        <ele>2238.6</ele>
        <time>2013-07-31T05:49:42Z</time>
      </trkpt>
      <trkpt lat="42.597138" lon="1.295004">
        <ele>2238.5</ele>
        <time>2013-07-31T05:49:45Z</time>
      </trkpt>
      <trkpt lat="42.597080" lon="1.295187">
        <ele>2237.2</ele>
        <time>2013-07-31T05:49:59Z</time>
      </trkpt>
      <trkpt lat="42.597083" lon="1.295186">
        <ele>2237.1</ele>
        <time>2013-07-31T05:50:15Z</time>
      </trkpt>
      <trkpt lat="42.597082" lon="1.295201">
        <ele>2237.1</ele>
        <time>2013-07-31T05:50:41Z</time>
      </trkpt>
      <trkpt lat="42.597069" lon="1.295296">
        <ele>2237.7</ele>
        <time>2013-07-31T05:50:53Z</time>
      </trkpt>
      <trkpt lat="42.597042" lon="1.295366">
        <ele>2238.5</ele>
        <time>2013-07-31T05:50:58Z</time>
      </trkpt>
      <trkpt lat="42.596930" lon="1.295576">
        <ele>2236.6</ele>
        <time>2013-07-31T05:51:14Z</time>
      </trkpt>
      <trkpt lat="42.596749" lon="1.295807">
        <ele>2234.1</ele>
        <time>2013-07-31T05:51:28Z</time>
      </trkpt>
      <trkpt lat="42.596732" lon="1.295840">
        <ele>2233.5</ele>
        <time>2013-07-31T05:51:31Z</time>
      </trkpt>
      <trkpt lat="42.596649" lon="1.295959">
        <ele>2232.3</ele>
        <time>2013-07-31T05:51:42Z</time>
      </trkpt>
      <trkpt lat="42.596539" lon="1.296067">
        <ele>2232.0</ele>
        <time>2013-07-31T05:51:54Z</time>
      </trkpt>
      <trkpt lat="42.596498" lon="1.296094">
        <ele>2232.1</ele>
        <time>2013-07-31T05:51:58Z</time>
      </trkpt>
      <trkpt lat="42.596317" lon="1.296287">
        <ele>2230.8</ele>
        <time>2013-07-31T05:52:13Z</time>
      </trkpt>
      <trkpt lat="42.596170" lon="1.296451">
        <ele>2229.9</ele>
        <time>2013-07-31T05:52:26Z</time>
      </trkpt>
      <trkpt lat="42.596053" lon="1.296545">
        <ele>2229.8</ele>
        <time>2013-07-31T05:52:39Z</time>
      </trkpt>
      <trkpt lat="42.595946" lon="1.296773">
        <ele>2225.3</ele>
        <time>2013-07-31T05:52:53Z</time>
      </trkpt>
      <trkpt lat="42.595892" lon="1.296835">
        <ele>2224.3</ele>
        <time>2013-07-31T05:52:58Z</time>
      </trkpt>
      <trkpt lat="42.595795" lon="1.296937">
        <ele>2222.9</ele>
        <time>2013-07-31T05:53:09Z</time>
      </trkpt>
      <trkpt lat="42.595747" lon="1.296964">
        <ele>2223.1</ele>
        <time>2013-07-31T05:53:13Z</time>
      </trkpt>
      <trkpt lat="42.595722" lon="1.296973">
        <ele>2223.4</ele>
        <time>2013-07-31T05:53:15Z</time>
      </trkpt>
      <trkpt lat="42.595554" lon="1.297124">
        <ele>2222.3</ele>
        <time>2013-07-31T05:53:29Z</time>
      </trkpt>
      <trkpt lat="42.595419" lon="1.297294">
        <ele>2220.5</ele>
        <time>2013-07-31T05:53:42Z</time>
      </trkpt>
      <trkpt lat="42.595382" lon="1.297364">
        <ele>2219.1</ele>
        <time>2013-07-31T05:53:47Z</time>
      </trkpt>
      <trkpt lat="42.595307" lon="1.297465">
        <ele>2216.6</ele>
        <time>2013-07-31T05:53:58Z</time>
      </trkpt>
      <trkpt lat="42.595254" lon="1.297520">
        <ele>2215.3</ele>
        <time>2013-07-31T05:54:03Z</time>
      </trkpt>
      <trkpt lat="42.595238" lon="1.297537">
        <ele>2215.1</ele>
        <time>2013-07-31T05:54:05Z</time>
      </trkpt>
      <trkpt lat="42.595175" lon="1.297598">
        <ele>2214.4</ele>
        <time>2013-07-31T05:54:11Z</time>
      </trkpt>
      <trkpt lat="42.595046" lon="1.297723">
        <ele>2212.7</ele>
        <time>2013-07-31T05:54:24Z</time>
      </trkpt>
      <trkpt lat="42.594888" lon="1.297864">
        <ele>2211.4</ele>
        <time>2013-07-31T05:54:40Z</time>
      </trkpt>
      <trkpt lat="42.594807" lon="1.297954">
        <ele>2209.3</ele>
        <time>2013-07-31T05:54:50Z</time>
      </trkpt>
      <trkpt lat="42.594724" lon="1.298088">
        <ele>2205.1</ele>
        <time>2013-07-31T05:55:00Z</time>
      </trkpt>
      <trkpt lat="42.594695" lon="1.298127">
        <ele>2204.1</ele>
        <time>2013-07-31T05:55:04Z</time>
      </trkpt>
      <trkpt lat="42.594674" lon="1.298160">
        <ele>2203.1</ele>
        <time>2013-07-31T05:55:06Z</time>
      </trkpt>
      <trkpt lat="42.594594" lon="1.298226">
        <ele>2201.9</ele>
        <time>2013-07-31T05:55:17Z</time>
      </trkpt>
      <trkpt lat="42.594444" lon="1.298350">
        <ele>2199.5</ele>
        <time>2013-07-31T05:55:29Z</time>
      </trkpt>
      <trkpt lat="42.594352" lon="1.298403">
        <ele>2198.2</ele>
        <time>2013-07-31T05:55:44Z</time>
      </trkpt>
      <trkpt lat="42.594313" lon="1.298454">
        <ele>2196.1</ele>
        <time>2013-07-31T05:55:50Z</time>
      </trkpt>
      <trkpt lat="42.594274" lon="1.298511">
        <ele>2194.2</ele>
        <time>2013-07-31T05:55:55Z</time>
      </trkpt>
      <trkpt lat="42.594099" lon="1.298678">
        <ele>2190.2</ele>
        <time>2013-07-31T05:56:10Z</time>
      </trkpt>
      <trkpt lat="42.594001" lon="1.298802">
        <ele>2187.5</ele>
        <time>2013-07-31T05:56:23Z</time>
      </trkpt>
      <trkpt lat="42.593868" lon="1.299006">
        <ele>2182.9</ele>
        <time>2013-07-31T05:56:35Z</time>
      </trkpt>
      <trkpt lat="42.593813" lon="1.299096">
        <ele>2181.0</ele>
        <time>2013-07-31T05:56:42Z</time>
      </trkpt>
      <trkpt lat="42.593753" lon="1.299221">
        <ele>2177.5</ele>
        <time>2013-07-31T05:56:47Z</time>
      </trkpt>
      <trkpt lat="42.593718" lon="1.299285">
        <ele>2175.6</ele>
        <time>2013-07-31T05:56:50Z</time>
      </trkpt>
      <trkpt lat="42.593594" lon="1.299474">
        <ele>2170.5</ele>
        <time>2013-07-31T05:57:04Z</time>
      </trkpt>
      <trkpt lat="42.593482" lon="1.299559">
        <ele>2168.4</ele>
        <time>2013-07-31T05:57:18Z</time>
      </trkpt>
      <trkpt lat="42.593440" lon="1.299619">
        <ele>2166.2</ele>
        <time>2013-07-31T05:57:26Z</time>
      </trkpt>
      <trkpt lat="42.593397" lon="1.299648">
        <ele>2165.4</ele>
        <time>2013-07-31T05:57:30Z</time>
      </trkpt>
      <trkpt lat="42.593249" lon="1.299802">
        <ele>2160.3</ele>
        <time>2013-07-31T05:57:44Z</time>
      </trkpt>
      <trkpt lat="42.593238" lon="1.299818">
        <ele>2159.8</ele>
        <time>2013-07-31T05:57:45Z</time>
      </trkpt>
      <trkpt lat="42.593104" lon="1.299978">
        <ele>2155.6</ele>
        <time>2013-07-31T05:58:00Z</time>
      </trkpt>
      <trkpt lat="42.592984" lon="1.300000">
        <ele>2154.1</ele>
        <time>2013-07-31T05:58:12Z</time>
      </trkpt>
      <trkpt lat="42.592902" lon="1.299988">
        <ele>2152.5</ele>
        <time>2013-07-31T05:58:24Z</time>
      </trkpt>
      <trkpt lat="42.592863" lon="1.299975">
        <ele>2151.8</ele>
        <time>2013-07-31T05:58:29Z</time>
      </trkpt>
      <trkpt lat="42.592767" lon="1.299929">
        <ele>2150.0</ele>
        <time>2013-07-31T05:58:39Z</time>
      </trkpt>
      <trkpt lat="42.592668" lon="1.299858">
        <ele>2147.4</ele>
        <time>2013-07-31T05:58:50Z</time>
      </trkpt>
      <trkpt lat="42.592554" lon="1.299802">
        <ele>2143.7</ele>
        <time>2013-07-31T05:59:03Z</time>
      </trkpt>
      <trkpt lat="42.592422" lon="1.299723">
        <ele>2142.4</ele>
        <time>2013-07-31T05:59:18Z</time>
      </trkpt>
      <trkpt lat="42.592335" lon="1.299676">
        <ele>2141.3</ele>
        <time>2013-07-31T05:59:27Z</time>
      </trkpt>
      <trkpt lat="42.592198" lon="1.299580">
        <ele>2138.0</ele>
        <time>2013-07-31T05:59:41Z</time>
      </trkpt>
      <trkpt lat="42.592143" lon="1.299557">
        <ele>2135.7</ele>
        <time>2013-07-31T05:59:47Z</time>
      </trkpt>
      <trkpt lat="42.592018" lon="1.299485">
        <ele>2132.1</ele>
        <time>2013-07-31T06:00:00Z</time>
      </trkpt>
      <trkpt lat="42.591890" lon="1.299407">
        <ele>2130.1</ele>
        <time>2013-07-31T06:00:15Z</time>
      </trkpt>
      <trkpt lat="42.591840" lon="1.299375">
        <ele>2129.4</ele>
        <time>2013-07-31T06:00:20Z</time>
      </trkpt>
      <trkpt lat="42.591683" lon="1.299326">
        <ele>2125.2</ele>
        <time>2013-07-31T06:00:34Z</time>
      </trkpt>
      <trkpt lat="42.591560" lon="1.299311">
        <ele>2121.0</ele>
        <time>2013-07-31T06:00:46Z</time>
      </trkpt>
      <trkpt lat="42.591420" lon="1.299271">
        <ele>2119.2</ele>
        <time>2013-07-31T06:00:59Z</time>
      </trkpt>
      <trkpt lat="42.591346" lon="1.299274">
        <ele>2118.4</ele>
        <time>2013-07-31T06:01:06Z</time>
      </trkpt>
      <trkpt lat="42.591297" lon="1.299285">
        <ele>2117.3</ele>
        <time>2013-07-31T06:01:10Z</time>
      </trkpt>
      <trkpt lat="42.591151" lon="1.299270">
        <ele>2114.7</ele>
        <time>2013-07-31T06:01:21Z</time>
      </trkpt>
      <trkpt lat="42.590984" lon="1.299271">
        <ele>2113.6</ele>
        <time>2013-07-31T06:01:35Z</time>
      </trkpt>
      <trkpt lat="42.590858" lon="1.299297">
        <ele>2112.9</ele>
        <time>2013-07-31T06:01:49Z</time>
      </trkpt>
      <trkpt lat="42.590854" lon="1.299377">
        <ele>2109.3</ele>
        <time>2013-07-31T06:02:00Z</time>
      </trkpt>
      <trkpt lat="42.590885" lon="1.299416">
        <ele>2107.6</ele>
        <time>2013-07-31T06:02:05Z</time>
      </trkpt>
      <trkpt lat="42.590933" lon="1.299462">
        <ele>2105.5</ele>
        <time>2013-07-31T06:02:18Z</time>
      </trkpt>
      <trkpt lat="42.591080" lon="1.299585">
        <ele>2099.5</ele>
        <time>2013-07-31T06:02:33Z</time>
      </trkpt>
      <trkpt lat="42.591253" lon="1.299722">
        <ele>2097.8</ele>
        <time>2013-07-31T06:02:45Z</time>
      </trkpt>
      <trkpt lat="42.591291" lon="1.299772">
        <ele>2095.7</ele>
        <time>2013-07-31T06:02:54Z</time>
      </trkpt>
      <trkpt lat="42.591403" lon="1.299919">
        <ele>2091.9</ele>
        <time>2013-07-31T06:03:05Z</time>
      </trkpt>
      <trkpt lat="42.591465" lon="1.299977">
        <ele>2092.4</ele>
        <time>2013-07-31T06:03:10Z</time>
      </trkpt>
      <trkpt lat="42.591532" lon="1.300063">
        <ele>2092.3</ele>
        <time>2013-07-31T06:03:22Z</time>
      </trkpt>
      <trkpt lat="42.591619" lon="1.300219">
        <ele>2090.0</ele>
        <time>2013-07-31T06:03:35Z</time>
      </trkpt>
      <trkpt lat="42.591657" lon="1.300319">
        <ele>2087.6</ele>
        <time>2013-07-31T06:03:44Z</time>
      </trkpt>
      <trkpt lat="42.591717" lon="1.300416">
        <ele>2086.0</ele>
        <time>2013-07-31T06:03:50Z</time>
      </trkpt>
      <trkpt lat="42.591736" lon="1.300457">
        <ele>2085.1</ele>
        <time>2013-07-31T06:03:54Z</time>
      </trkpt>
      <trkpt lat="42.591828" lon="1.300614">
        <ele>2081.7</ele>
        <time>2013-07-31T06:04:06Z</time>
      </trkpt>
      <trkpt lat="42.591885" lon="1.300738">
        <ele>2078.5</ele>
        <time>2013-07-31T06:04:15Z</time>
      </trkpt>
      <trkpt lat="42.591958" lon="1.300880">
        <ele>2074.6</ele>
        <time>2013-07-31T06:04:28Z</time>
      </trkpt>
      <trkpt lat="42.592037" lon="1.301012">
        <ele>2071.9</ele>
        <time>2013-07-31T06:04:42Z</time>
      </trkpt>
      <trkpt lat="42.592080" lon="1.301177">
        <ele>2068.0</ele>
        <time>2013-07-31T06:04:54Z</time>
      </trkpt>
      <trkpt lat="42.592134" lon="1.301408">
        <ele>2065.2</ele>
        <time>2013-07-31T06:05:06Z</time>
      </trkpt>
      <trkpt lat="42.592156" lon="1.301513">
        <ele>2064.5</ele>
        <time>2013-07-31T06:05:18Z</time>
      </trkpt>
      <trkpt lat="42.592136" lon="1.301536">
        <ele>2062.8</ele>
        <time>2013-07-31T06:05:32Z</time>
      </trkpt>
      <trkpt lat="42.592090" lon="1.301485">
        <ele>2061.0</ele>
        <time>2013-07-31T06:05:45Z</time>
      </trkpt>
      <trkpt lat="42.592013" lon="1.301418">
        <ele>2058.8</ele>
        <time>2013-07-31T06:06:00Z</time>
      </trkpt>
      <trkpt lat="42.591893" lon="1.301364">
        <ele>2055.0</ele>
        <time>2013-07-31T06:06:13Z</time>
      </trkpt>
      <trkpt lat="42.591846" lon="1.301346">
        <ele>2053.4</ele>
        <time>2013-07-31T06:06:17Z</time>
      </trkpt>
      <trkpt lat="42.591848" lon="1.301382">
        <ele>2052.1</ele>
        <time>2013-07-31T06:06:21Z</time>
      </trkpt>
      <trkpt lat="42.591881" lon="1.301487">
        <ele>2050.5</ele>
        <time>2013-07-31T06:06:36Z</time>
      </trkpt>
      <trkpt lat="42.591840" lon="1.301614">
        <ele>2045.2</ele>
        <time>2013-07-31T06:06:49Z</time>
      </trkpt>
      <trkpt lat="42.591810" lon="1.301624">
        <ele>2043.5</ele>
        <time>2013-07-31T06:06:59Z</time>
      </trkpt>
      <trkpt lat="42.591810" lon="1.301650">
        <ele>2042.9</ele>
        <time>2013-07-31T06:07:03Z</time>
      </trkpt>
      <trkpt lat="42.591796" lon="1.301899">
        <ele>2036.6</ele>
        <time>2013-07-31T06:07:17Z</time>
      </trkpt>
      <trkpt lat="42.591785" lon="1.302105">
        <ele>2031.8</ele>
        <time>2013-07-31T06:07:30Z</time>
      </trkpt>
      <trkpt lat="42.591802" lon="1.302194">
        <ele>2030.8</ele>
        <time>2013-07-31T06:07:40Z</time>
      </trkpt>
      <trkpt lat="42.591817" lon="1.302315">
        <ele>2029.1</ele>
        <time>2013-07-31T06:07:51Z</time>
      </trkpt>
      <trkpt lat="42.591816" lon="1.302317">
        <ele>2029.0</ele>
        <time>2013-07-31T06:08:10Z</time>
      </trkpt>
      <trkpt lat="42.591818" lon="1.302317">
        <ele>2029.1</ele>
        <time>2013-07-31T06:08:37Z</time>
      </trkpt>
      <trkpt lat="42.591818" lon="1.302317">
        <ele>2029.1</ele>
        <time>2013-07-31T06:08:59Z</time>
      </trkpt>
      <trkpt lat="42.591817" lon="1.302324">
        <ele>2028.9</ele>
        <time>2013-07-31T06:09:22Z</time>
      </trkpt>
      <trkpt lat="42.591819" lon="1.302430">
        <ele>2026.9</ele>
        <time>2013-07-31T06:09:36Z</time>
      </trkpt>
      <trkpt lat="42.591815" lon="1.302531">
        <ele>2025.1</ele>
        <time>2013-07-31T06:09:45Z</time>
      </trkpt>
      <trkpt lat="42.591784" lon="1.302797">
        <ele>2022.2</ele>
        <time>2013-07-31T06:09:58Z</time>
      </trkpt>
      <trkpt lat="42.591761" lon="1.302937">
        <ele>2018.9</ele>
        <time>2013-07-31T06:10:11Z</time>
      </trkpt>
      <trkpt lat="42.591766" lon="1.302998">
        <ele>2018.1</ele>
        <time>2013-07-31T06:10:16Z</time>
      </trkpt>
      <trkpt lat="42.591809" lon="1.303059">
        <ele>2018.9</ele>
        <time>2013-07-31T06:10:23Z</time>
      </trkpt>
      <trkpt lat="42.591827" lon="1.303251">
        <ele>2014.3</ele>
        <time>2013-07-31T06:10:37Z</time>
      </trkpt>
      <trkpt lat="42.591839" lon="1.303341">
        <ele>2012.4</ele>
        <time>2013-07-31T06:10:46Z</time>
      </trkpt>
      <trkpt lat="42.591883" lon="1.303428">
        <ele>2010.5</ele>
        <time>2013-07-31T06:10:56Z</time>
      </trkpt>
      <trkpt lat="42.591914" lon="1.303477">
        <ele>2010.0</ele>
        <time>2013-07-31T06:11:01Z</time>
      </trkpt>
      <trkpt lat="42.591954" lon="1.303582">
        <ele>2007.5</ele>
        <time>2013-07-31T06:11:10Z</time>
      </trkpt>
      <trkpt lat="42.592000" lon="1.303745">
        <ele>2003.2</ele>
        <time>2013-07-31T06:11:24Z</time>
      </trkpt>
      <trkpt lat="42.592038" lon="1.303870">
        <ele>2000.9</ele>
        <time>2013-07-31T06:11:34Z</time>
      </trkpt>
      <trkpt lat="42.592052" lon="1.303969">
        <ele>1998.4</ele>
        <time>2013-07-31T06:11:40Z</time>
      </trkpt>
      <trkpt lat="42.592094" lon="1.304115">
        <ele>1995.1</ele>
        <time>2013-07-31T06:11:54Z</time>
      </trkpt>
      <trkpt lat="42.592156" lon="1.304189">
        <ele>1993.5</ele>
        <time>2013-07-31T06:12:05Z</time>
      </trkpt>
      <trkpt lat="42.592252" lon="1.304307">
        <ele>1990.3</ele>
        <time>2013-07-31T06:12:18Z</time>
      </trkpt>
      <trkpt lat="42.592284" lon="1.304341">
        <ele>1989.4</ele>
        <time>2013-07-31T06:12:21Z</time>
      </trkpt>
      <trkpt lat="42.592377" lon="1.304452">
        <ele>1985.6</ele>
        <time>2013-07-31T06:12:33Z</time>
      </trkpt>
      <trkpt lat="42.592435" lon="1.304490">
        <ele>1984.3</ele>
        <time>2013-07-31T06:12:41Z</time>
      </trkpt>
      <trkpt lat="42.592484" lon="1.304532">
        <ele>1982.5</ele>
        <time>2013-07-31T06:12:45Z</time>
      </trkpt>
      <trkpt lat="42.592477" lon="1.304614">
        <ele>1978.4</ele>
        <time>2013-07-31T06:12:57Z</time>
      </trkpt>
      <trkpt lat="42.592420" lon="1.304630">
        <ele>1977.3</ele>
        <time>2013-07-31T06:13:01Z</time>
      </trkpt>
      <trkpt lat="42.592272" lon="1.304689">
        <ele>1974.2</ele>
        <time>2013-07-31T06:13:13Z</time>
      </trkpt>
      <trkpt lat="42.592176" lon="1.304751">
        <ele>1971.2</ele>
        <time>2013-07-31T06:13:23Z</time>
      </trkpt>
      <trkpt lat="42.592161" lon="1.304752">
        <ele>1970.8</ele>
        <time>2013-07-31T06:13:27Z</time>
      </trkpt>
      <trkpt lat="42.592088" lon="1.304761">
        <ele>1968.5</ele>
        <time>2013-07-31T06:13:40Z</time>
      </trkpt>
      <trkpt lat="42.591958" lon="1.304787">
        <ele>1963.5</ele>
        <time>2013-07-31T06:13:55Z</time>
      </trkpt>
      <trkpt lat="42.591898" lon="1.304795">
        <ele>1961.4</ele>
        <time>2013-07-31T06:14:04Z</time>
      </trkpt>
      <trkpt lat="42.591878" lon="1.304794">
        <ele>1960.8</ele>
        <time>2013-07-31T06:14:08Z</time>
      </trkpt>
      <trkpt lat="42.591859" lon="1.304879">
        <ele>1955.7</ele>
        <time>2013-07-31T06:14:20Z</time>
      </trkpt>
      <trkpt lat="42.591892" lon="1.305005">
        <ele>1949.7</ele>
        <time>2013-07-31T06:14:33Z</time>
      </trkpt>
      <trkpt lat="42.591914" lon="1.305054">
        <ele>1947.5</ele>
        <time>2013-07-31T06:14:39Z</time>
      </trkpt>
      <trkpt lat="42.591930" lon="1.305077">
        <ele>1946.5</ele>
        <time>2013-07-31T06:14:43Z</time>
      </trkpt>
      <trkpt lat="42.591854" lon="1.305123">
        <ele>1943.1</ele>
        <time>2013-07-31T06:14:57Z</time>
      </trkpt>
      <trkpt lat="42.591800" lon="1.305151">
        <ele>1941.5</ele>
        <time>2013-07-31T06:15:02Z</time>
      </trkpt>
      <trkpt lat="42.591728" lon="1.305120">
        <ele>1940.7</ele>
        <time>2013-07-31T06:15:10Z</time>
      </trkpt>
      <trkpt lat="42.591666" lon="1.305140">
        <ele>1937.6</ele>
        <time>2013-07-31T06:15:16Z</time>
      </trkpt>
      <trkpt lat="42.591632" lon="1.305137">
        <ele>1936.7</ele>
        <time>2013-07-31T06:15:20Z</time>
      </trkpt>
      <trkpt lat="42.591536" lon="1.305142">
        <ele>1934.0</ele>
        <time>2013-07-31T06:15:31Z</time>
      </trkpt>
      <trkpt lat="42.591418" lon="1.305109">
        <ele>1931.0</ele>
        <time>2013-07-31T06:15:46Z</time>
      </trkpt>
      <trkpt lat="42.591394" lon="1.305126">
        <ele>1929.6</ele>
        <time>2013-07-31T06:15:55Z</time>
      </trkpt>
      <trkpt lat="42.591463" lon="1.305245">
        <ele>1926.8</ele>
        <time>2013-07-31T06:16:09Z</time>
      </trkpt>
      <trkpt lat="42.591485" lon="1.305306">
        <ele>1924.5</ele>
        <time>2013-07-31T06:16:15Z</time>
      </trkpt>
      <trkpt lat="42.591509" lon="1.305338">
        <ele>1923.6</ele>
        <time>2013-07-31T06:16:20Z</time>
      </trkpt>
      <trkpt lat="42.591454" lon="1.305397">
        <ele>1920.1</ele>
        <time>2013-07-31T06:16:30Z</time>
      </trkpt>
      <trkpt lat="42.591345" lon="1.305388">
        <ele>1918.9</ele>
        <time>2013-07-31T06:16:40Z</time>
      </trkpt>
      <trkpt lat="42.591276" lon="1.305397">
        <ele>1917.4</ele>
        <time>2013-07-31T06:16:49Z</time>
      </trkpt>
      <trkpt lat="42.591216" lon="1.305475">
        <ele>1913.7</ele>
        <time>2013-07-31T06:17:01Z</time>
      </trkpt>
      <trkpt lat="42.591197" lon="1.305512">
        <ele>1912.5</ele>
        <time>2013-07-31T06:17:07Z</time>
      </trkpt>
      <trkpt lat="42.591216" lon="1.305583">
        <ele>1910.3</ele>
        <time>2013-07-31T06:17:14Z</time>
      </trkpt>
      <trkpt lat="42.591217" lon="1.305607">
        <ele>1909.5</ele>
        <time>2013-07-31T06:17:18Z</time>
      </trkpt>
      <trkpt lat="42.591312" lon="1.305707">
        <ele>1904.1</ele>
        <time>2013-07-31T06:17:35Z</time>
      </trkpt>
      <trkpt lat="42.591412" lon="1.305788">
        <ele>1899.2</ele>
        <time>2013-07-31T06:17:50Z</time>
      </trkpt>
      <trkpt lat="42.591465" lon="1.305849">
        <ele>1896.4</ele>
        <time>2013-07-31T06:17:58Z</time>
      </trkpt>
      <trkpt lat="42.591492" lon="1.305873">
        <ele>1895.1</ele>
        <time>2013-07-31T06:18:02Z</time>
      </trkpt>
      <trkpt lat="42.591609" lon="1.305929">
        <ele>1891.6</ele>
        <time>2013-07-31T06:18:17Z</time>
      </trkpt>
      <trkpt lat="42.591696" lon="1.305934">
        <ele>1889.4</ele>
        <time>2013-07-31T06:18:30Z</time>
      </trkpt>
      <trkpt lat="42.591718" lon="1.305955">
        <ele>1887.7</ele>
        <time>2013-07-31T06:18:34Z</time>
      </trkpt>
      <trkpt lat="42.591798" lon="1.306004">
        <ele>1885.8</ele>
        <time>2013-07-31T06:18:50Z</time>
      </trkpt>
      <trkpt lat="42.591829" lon="1.306038">
        <ele>1884.5</ele>
        <time>2013-07-31T06:19:02Z</time>
      </trkpt>
      <trkpt lat="42.591808" lon="1.306082">
        <ele>1882.0</ele>
        <time>2013-07-31T06:19:14Z</time>
      </trkpt>
      <trkpt lat="42.591801" lon="1.306099">
        <ele>1881.0</ele>
        <time>2013-07-31T06:19:21Z</time>
      </trkpt>
      <trkpt lat="42.591809" lon="1.306127">
        <ele>1879.5</ele>
        <time>2013-07-31T06:19:25Z</time>
      </trkpt>
      <trkpt lat="42.591781" lon="1.306169">
        <ele>1876.9</ele>
        <time>2013-07-31T06:19:37Z</time>
      </trkpt>
      <trkpt lat="42.591722" lon="1.306209">
        <ele>1875.1</ele>
        <time>2013-07-31T06:19:49Z</time>
      </trkpt>
      <trkpt lat="42.591678" lon="1.306248">
        <ele>1873.9</ele>
        <time>2013-07-31T06:20:06Z</time>
      </trkpt>
      <trkpt lat="42.591561" lon="1.306365">
        <ele>1867.7</ele>
        <time>2013-07-31T06:20:22Z</time>
      </trkpt>
      <trkpt lat="42.591487" lon="1.306473">
        <ele>1864.6</ele>
        <time>2013-07-31T06:20:37Z</time>
      </trkpt>
      <trkpt lat="42.591449" lon="1.306518">
        <ele>1863.6</ele>
        <time>2013-07-31T06:20:43Z</time>
      </trkpt>
      <trkpt lat="42.591345" lon="1.306661">
        <ele>1861.1</ele>
        <time>2013-07-31T06:20:57Z</time>
      </trkpt>
      <trkpt lat="42.591359" lon="1.306673">
        <ele>1860.0</ele>
        <time>2013-07-31T06:21:09Z</time>
      </trkpt>
      <trkpt lat="42.591403" lon="1.306677">
        <ele>1858.0</ele>
        <time>2013-07-31T06:21:19Z</time>
      </trkpt>
      <trkpt lat="42.591459" lon="1.306693">
        <ele>1855.3</ele>
        <time>2013-07-31T06:21:23Z</time>
      </trkpt>
      <trkpt lat="42.591459" lon="1.306693">
        <ele>1855.3</ele>
        <time>2013-07-31T06:21:26Z</time>
      </trkpt>
      <trkpt lat="42.591576" lon="1.306755">
        <ele>1850.0</ele>
        <time>2013-07-31T06:21:40Z</time>
      </trkpt>
      <trkpt lat="42.591633" lon="1.306769">
        <ele>1848.8</ele>
        <time>2013-07-31T06:21:52Z</time>
      </trkpt>
      <trkpt lat="42.591714" lon="1.306817">
        <ele>1846.2</ele>
        <time>2013-07-31T06:22:04Z</time>
      </trkpt>
      <trkpt lat="42.591745" lon="1.306855">
        <ele>1844.3</ele>
        <time>2013-07-31T06:22:08Z</time>
      </trkpt>
      <trkpt lat="42.591765" lon="1.306862">
        <ele>1843.8</ele>
        <time>2013-07-31T06:22:21Z</time>
      </trkpt>
      <trkpt lat="42.591905" lon="1.306983">
        <ele>1838.3</ele>
        <time>2013-07-31T06:22:34Z</time>
      </trkpt>
      <trkpt lat="42.591942" lon="1.307056">
        <ele>1835.7</ele>
        <time>2013-07-31T06:22:46Z</time>
      </trkpt>
      <trkpt lat="42.591959" lon="1.307091">
        <ele>1834.5</ele>
        <time>2013-07-31T06:22:53Z</time>
      </trkpt>
      <trkpt lat="42.591972" lon="1.307122">
        <ele>1833.4</ele>
        <time>2013-07-31T06:22:57Z</time>
      </trkpt>
      <trkpt lat="42.591973" lon="1.307138">
        <ele>1832.8</ele>
        <time>2013-07-31T06:22:58Z</time>
      </trkpt>
      <trkpt lat="42.592065" lon="1.307278">
        <ele>1828.6</ele>
        <time>2013-07-31T06:23:11Z</time>
      </trkpt>
      <trkpt lat="42.592050" lon="1.307302">
        <ele>1827.1</ele>
        <time>2013-07-31T06:23:27Z</time>
      </trkpt>
      <trkpt lat="42.592058" lon="1.307318">
        <ele>1826.5</ele>
        <time>2013-07-31T06:23:33Z</time>
      </trkpt>
      <trkpt lat="42.592055" lon="1.307360">
        <ele>1824.4</ele>
        <time>2013-07-31T06:23:37Z</time>
      </trkpt>
      <trkpt lat="42.592048" lon="1.307383">
        <ele>1823.2</ele>
        <time>2013-07-31T06:23:39Z</time>
      </trkpt>
      <trkpt lat="42.591903" lon="1.307459">
        <ele>1817.7</ele>
        <time>2013-07-31T06:23:55Z</time>
      </trkpt>
      <trkpt lat="42.591774" lon="1.307499">
        <ele>1815.9</ele>
        <time>2013-07-31T06:24:12Z</time>
      </trkpt>
      <trkpt lat="42.591642" lon="1.307584">
        <ele>1812.4</ele>
        <time>2013-07-31T06:24:29Z</time>
      </trkpt>
      <trkpt lat="42.591674" lon="1.307611">
        <ele>1811.0</ele>
        <time>2013-07-31T06:24:34Z</time>
      </trkpt>
      <trkpt lat="42.591684" lon="1.307613">
        <ele>1810.8</ele>
        <time>2013-07-31T06:24:36Z</time>
      </trkpt>
      <trkpt lat="42.591812" lon="1.307691">
        <ele>1807.1</ele>
        <time>2013-07-31T06:24:48Z</time>
      </trkpt>
      <trkpt lat="42.591913" lon="1.307794">
        <ele>1802.5</ele>
        <time>2013-07-31T06:25:01Z</time>
      </trkpt>
      <trkpt lat="42.592029" lon="1.307903">
        <ele>1799.4</ele>
        <time>2013-07-31T06:25:13Z</time>
      </trkpt>
      <trkpt lat="42.592071" lon="1.307988">
        <ele>1796.4</ele>
        <time>2013-07-31T06:25:24Z</time>
      </trkpt>
      <trkpt lat="42.591979" lon="1.307990">
        <ele>1794.9</ele>
        <time>2013-07-31T06:25:36Z</time>
      </trkpt>
      <trkpt lat="42.591900" lon="1.308005">
        <ele>1793.6</ele>
        <time>2013-07-31T06:25:48Z</time>
      </trkpt>
      <trkpt lat="42.591787" lon="1.308092">
        <ele>1789.9</ele>
        <time>2013-07-31T06:26:00Z</time>
      </trkpt>
      <trkpt lat="42.591705" lon="1.308138">
        <ele>1787.7</ele>
        <time>2013-07-31T06:26:13Z</time>
      </trkpt>
      <trkpt lat="42.591661" lon="1.308115">
        <ele>1788.9</ele>
        <time>2013-07-31T06:26:17Z</time>
      </trkpt>
      <trkpt lat="42.591508" lon="1.308113">
        <ele>1791.8</ele>
        <time>2013-07-31T06:26:29Z</time>
      </trkpt>
      <trkpt lat="42.591489" lon="1.308146">
        <ele>1790.6</ele>
        <time>2013-07-31T06:26:31Z</time>
      </trkpt>
      <trkpt lat="42.591364" lon="1.308452">
        <ele>1780.6</ele>
        <time>2013-07-31T06:26:44Z</time>
      </trkpt>
      <trkpt lat="42.591332" lon="1.308584">
        <ele>1776.2</ele>
        <time>2013-07-31T06:26:55Z</time>
      </trkpt>
      <trkpt lat="42.591361" lon="1.308566">
        <ele>1775.8</ele>
        <time>2013-07-31T06:26:59Z</time>
      </trkpt>
      <trkpt lat="42.591439" lon="1.308539">
        <ele>1774.9</ele>
        <time>2013-07-31T06:27:13Z</time>
      </trkpt>
      <trkpt lat="42.591527" lon="1.308518">
        <ele>1774.1</ele>
        <time>2013-07-31T06:27:22Z</time>
      </trkpt>
      <trkpt lat="42.591609" lon="1.308522">
        <ele>1772.6</ele>
        <time>2013-07-31T06:27:34Z</time>
      </trkpt>
      <trkpt lat="42.591604" lon="1.308550">
        <ele>1771.6</ele>
        <time>2013-07-31T06:27:37Z</time>
      </trkpt>
      <trkpt lat="42.591596" lon="1.308587">
        <ele>1770.2</ele>
        <time>2013-07-31T06:27:42Z</time>
      </trkpt>
      <trkpt lat="42.591593" lon="1.308587">
        <ele>1770.3</ele>
        <time>2013-07-31T06:27:46Z</time>
      </trkpt>
      <trkpt lat="42.591581" lon="1.308605">
        <ele>1769.8</ele>
        <time>2013-07-31T06:27:48Z</time>
      </trkpt>
      <trkpt lat="42.591486" lon="1.308751">
        <ele>1765.7</ele>
        <time>2013-07-31T06:28:01Z</time>
      </trkpt>
      <trkpt lat="42.591395" lon="1.308966">
        <ele>1758.8</ele>
        <time>2013-07-31T06:28:14Z</time>
      </trkpt>
      <trkpt lat="42.591328" lon="1.309158">
        <ele>1753.6</ele>
        <time>2013-07-31T06:28:24Z</time>
      </trkpt>
      <trkpt lat="42.591305" lon="1.309206">
        <ele>1752.4</ele>
        <time>2013-07-31T06:28:28Z</time>
      </trkpt>
      <trkpt lat="42.591305" lon="1.309238">
        <ele>1751.1</ele>
        <time>2013-07-31T06:28:39Z</time>
      </trkpt>
      <trkpt lat="42.591337" lon="1.309187">
        <ele>1752.1</ele>
        <time>2013-07-31T06:28:50Z</time>
      </trkpt>
      <trkpt lat="42.591470" lon="1.309185">
        <ele>1748.2</ele>
        <time>2013-07-31T06:29:04Z</time>
      </trkpt>
      <trkpt lat="42.591478" lon="1.309230">
        <ele>1746.5</ele>
        <time>2013-07-31T06:29:16Z</time>
      </trkpt>
      <trkpt lat="42.591416" lon="1.309331">
        <ele>1744.1</ele>
        <time>2013-07-31T06:29:29Z</time>
      </trkpt>
      <trkpt lat="42.591328" lon="1.309458">
        <ele>1741.2</ele>
        <time>2013-07-31T06:29:38Z</time>
      </trkpt>
      <trkpt lat="42.591220" lon="1.309638">
        <ele>1737.5</ele>
        <time>2013-07-31T06:29:49Z</time>
      </trkpt>
      <trkpt lat="42.591083" lon="1.309712">
        <ele>1737.9</ele>
        <time>2013-07-31T06:30:04Z</time>
      </trkpt>
      <trkpt lat="42.591018" lon="1.309772">
        <ele>1735.6</ele>
        <time>2013-07-31T06:30:17Z</time>
      </trkpt>
      <trkpt lat="42.590958" lon="1.309845">
        <ele>1733.8</ele>
        <time>2013-07-31T06:30:28Z</time>
      </trkpt>
      <trkpt lat="42.590883" lon="1.309927">
        <ele>1730.9</ele>
        <time>2013-07-31T06:30:50Z</time>
      </trkpt>
      <trkpt lat="42.590752" lon="1.309993">
        <ele>1729.1</ele>
        <time>2013-07-31T06:31:04Z</time>
      </trkpt>
      <trkpt lat="42.590707" lon="1.310029">
        <ele>1727.9</ele>
        <time>2013-07-31T06:31:08Z</time>
      </trkpt>
      <trkpt lat="42.590589" lon="1.310123">
        <ele>1725.3</ele>
        <time>2013-07-31T06:31:23Z</time>
      </trkpt>
      <trkpt lat="42.590562" lon="1.310144">
        <ele>1724.7</ele>
        <time>2013-07-31T06:31:35Z</time>
      </trkpt>
      <trkpt lat="42.590566" lon="1.310143">
        <ele>1724.7</ele>
        <time>2013-07-31T06:31:49Z</time>
      </trkpt>
      <trkpt lat="42.590558" lon="1.310160">
        <ele>1724.0</ele>
        <time>2013-07-31T06:32:11Z</time>
      </trkpt>
      <trkpt lat="42.590535" lon="1.310204">
        <ele>1722.4</ele>
        <time>2013-07-31T06:32:18Z</time>
      </trkpt>
      <trkpt lat="42.590532" lon="1.310307">
        <ele>1720.0</ele>
        <time>2013-07-31T06:32:31Z</time>
      </trkpt>
      <trkpt lat="42.590520" lon="1.310545">
        <ele>1715.6</ele>
        <time>2013-07-31T06:55:35Z</time>
      </trkpt>
      <trkpt lat="42.590547" lon="1.310609">
        <ele>1714.5</ele>
        <time>2013-07-31T06:55:39Z</time>
      </trkpt>
      <trkpt lat="42.590616" lon="1.310875">
        <ele>1711.1</ele>
        <time>2013-07-31T06:55:57Z</time>
      </trkpt>
      <trkpt lat="42.590611" lon="1.310890">
        <ele>1711.0</ele>
        <time>2013-07-31T06:56:08Z</time>
      </trkpt>
      <trkpt lat="42.590611" lon="1.310890">
        <ele>1711.0</ele>
        <time>2013-07-31T06:56:24Z</time>
      </trkpt>
      <trkpt lat="42.590559" lon="1.310902">
        <ele>1710.7</ele>
        <time>2013-07-31T06:56:28Z</time>
      </trkpt>
      <trkpt lat="42.590376" lon="1.311019">
        <ele>1709.3</ele>
        <time>2013-07-31T06:56:44Z</time>
      </trkpt>
      <trkpt lat="42.590368" lon="1.311021">
        <ele>1709.3</ele>
        <time>2013-07-31T06:56:45Z</time>
      </trkpt>
      <trkpt lat="42.590204" lon="1.311024">
        <ele>1709.5</ele>
        <time>2013-07-31T06:57:00Z</time>
      </trkpt>
      <trkpt lat="42.590204" lon="1.311024">
        <ele>1709.5</ele>
        <time>2013-07-31T06:57:35Z</time>
      </trkpt>
      <trkpt lat="42.590204" lon="1.311023">
        <ele>1709.5</ele>
        <time>2013-07-31T06:57:40Z</time>
      </trkpt>
      <trkpt lat="42.590110" lon="1.310944">
        <ele>1707.8</ele>
        <time>2013-07-31T06:57:49Z</time>
      </trkpt>
      <trkpt lat="42.590026" lon="1.310924">
        <ele>1705.6</ele>
        <time>2013-07-31T06:57:57Z</time>
      </trkpt>
      <trkpt lat="42.589994" lon="1.311007">
        <ele>1705.8</ele>
        <time>2013-07-31T06:58:04Z</time>
      </trkpt>
      <trkpt lat="42.589937" lon="1.311079">
        <ele>1708.3</ele>
        <time>2013-07-31T06:58:10Z</time>
      </trkpt>
      <trkpt lat="42.589778" lon="1.311096">
        <ele>1706.5</ele>
        <time>2013-07-31T06:58:24Z</time>
      </trkpt>
      <trkpt lat="42.589748" lon="1.311097">
        <ele>1706.3</ele>
        <time>2013-07-31T06:58:28Z</time>
      </trkpt>
      <trkpt lat="42.589730" lon="1.311097">
        <ele>1706.6</ele>
        <time>2013-07-31T06:58:44Z</time>
      </trkpt>
      <trkpt lat="42.589726" lon="1.311098">
        <ele>1706.8</ele>
        <time>2013-07-31T06:59:16Z</time>
      </trkpt>
      <trkpt lat="42.589726" lon="1.311098">
        <ele>1706.8</ele>
        <time>2013-07-31T06:59:37Z</time>
      </trkpt>
      <trkpt lat="42.589743" lon="1.311197">
        <ele>1706.3</ele>
        <time>2013-07-31T06:59:45Z</time>
      </trkpt>
      <trkpt lat="42.589765" lon="1.311376">
        <ele>1709.7</ele>
        <time>2013-07-31T06:59:58Z</time>
      </trkpt>
      <trkpt lat="42.589780" lon="1.311392">
        <ele>1709.3</ele>
        <time>2013-07-31T07:00:14Z</time>
      </trkpt>
      <trkpt lat="42.589780" lon="1.311391">
        <ele>1709.2</ele>
        <time>2013-07-31T07:00:35Z</time>
      </trkpt>
      <trkpt lat="42.589785" lon="1.311392">
        <ele>1709.0</ele>
        <time>2013-07-31T07:00:54Z</time>
      </trkpt>
      <trkpt lat="42.589834" lon="1.311449">
        <ele>1709.1</ele>
        <time>2013-07-31T07:01:22Z</time>
      </trkpt>
      <trkpt lat="42.589946" lon="1.311644">
        <ele>1704.4</ele>
        <time>2013-07-31T07:01:35Z</time>
      </trkpt>
      <trkpt lat="42.590038" lon="1.311830">
        <ele>1700.5</ele>
        <time>2013-07-31T07:01:50Z</time>
      </trkpt>
      <trkpt lat="42.590080" lon="1.312042">
        <ele>1696.5</ele>
        <time>2013-07-31T07:02:03Z</time>
      </trkpt>
      <trkpt lat="42.590123" lon="1.312065">
        <ele>1694.7</ele>
        <time>2013-07-31T07:02:11Z</time>
      </trkpt>
      <trkpt lat="42.590181" lon="1.312095">
        <ele>1691.9</ele>
        <time>2013-07-31T07:02:22Z</time>
      </trkpt>
      <trkpt lat="42.590185" lon="1.312150">
        <ele>1690.3</ele>
        <time>2013-07-31T07:02:26Z</time>
      </trkpt>
      <trkpt lat="42.590209" lon="1.312208">
        <ele>1688.3</ele>
        <time>2013-07-31T07:02:32Z</time>
      </trkpt>
      <trkpt lat="42.590275" lon="1.312298">
        <ele>1684.5</ele>
        <time>2013-07-31T07:02:43Z</time>
      </trkpt>
      <trkpt lat="42.590304" lon="1.312399">
        <ele>1681.2</ele>
        <time>2013-07-31T07:02:56Z</time>
      </trkpt>
      <trkpt lat="42.590303" lon="1.312416">
        <ele>1680.8</ele>
        <time>2013-07-31T07:03:00Z</time>
      </trkpt>
      <trkpt lat="42.590351" lon="1.312544">
        <ele>1677.4</ele>
        <time>2013-07-31T07:03:13Z</time>
      </trkpt>
      <trkpt lat="42.590349" lon="1.312624">
        <ele>1675.6</ele>
        <time>2013-07-31T07:03:17Z</time>
      </trkpt>
      <trkpt lat="42.590369" lon="1.312700">
        <ele>1673.2</ele>
        <time>2013-07-31T07:03:24Z</time>
      </trkpt>
      <trkpt lat="42.590429" lon="1.312801">
        <ele>1670.1</ele>
        <time>2013-07-31T07:03:36Z</time>
      </trkpt>
      <trkpt lat="42.590424" lon="1.313023">
        <ele>1667.2</ele>
        <time>2013-07-31T07:03:49Z</time>
      </trkpt>
      <trkpt lat="42.590392" lon="1.313150">
        <ele>1666.1</ele>
        <time>2013-07-31T07:04:01Z</time>
      </trkpt>
      <trkpt lat="42.590325" lon="1.313354">
        <ele>1664.4</ele>
        <time>2013-07-31T07:04:16Z</time>
      </trkpt>
      <trkpt lat="42.590328" lon="1.313568">
        <ele>1661.3</ele>
        <time>2013-07-31T07:04:27Z</time>
      </trkpt>
      <trkpt lat="42.590372" lon="1.313607">
        <ele>1659.7</ele>
        <time>2013-07-31T07:04:36Z</time>
      </trkpt>
      <trkpt lat="42.590437" lon="1.313555">
        <ele>1657.5</ele>
        <time>2013-07-31T07:04:48Z</time>
      </trkpt>
      <trkpt lat="42.590448" lon="1.313596">
        <ele>1656.7</ele>
        <time>2013-07-31T07:04:53Z</time>
      </trkpt>
      <trkpt lat="42.590452" lon="1.313620">
        <ele>1656.4</ele>
        <time>2013-07-31T07:04:59Z</time>
      </trkpt>
      <trkpt lat="42.590426" lon="1.313807">
        <ele>1651.7</ele>
        <time>2013-07-31T07:05:15Z</time>
      </trkpt>
      <trkpt lat="42.590391" lon="1.313866">
        <ele>1652.1</ele>
        <time>2013-07-31T07:05:27Z</time>
      </trkpt>
      <trkpt lat="42.590346" lon="1.314023">
        <ele>1649.2</ele>
        <time>2013-07-31T07:05:36Z</time>
      </trkpt>
      <trkpt lat="42.590322" lon="1.314099">
        <ele>1647.4</ele>
        <time>2013-07-31T07:05:40Z</time>
      </trkpt>
      <trkpt lat="42.590312" lon="1.314118">
        <ele>1647.1</ele>
        <time>2013-07-31T07:05:41Z</time>
      </trkpt>
      <trkpt lat="42.590295" lon="1.314165">
        <ele>1645.8</ele>
        <time>2013-07-31T07:05:43Z</time>
      </trkpt>
      <trkpt lat="42.590297" lon="1.314251">
        <ele>1641.1</ele>
        <time>2013-07-31T07:05:47Z</time>
      </trkpt>
      <trkpt lat="42.590458" lon="1.314142">
        <ele>1637.1</ele>
        <time>2013-07-31T07:06:03Z</time>
      </trkpt>
      <trkpt lat="42.590552" lon="1.314029">
        <ele>1635.4</ele>
        <time>2013-07-31T07:06:15Z</time>
      </trkpt>
      <trkpt lat="42.590584" lon="1.313987">
        <ele>1634.9</ele>
        <time>2013-07-31T07:06:18Z</time>
      </trkpt>
      <trkpt lat="42.590622" lon="1.313934">
        <ele>1634.1</ele>
        <time>2013-07-31T07:06:23Z</time>
      </trkpt>
      <trkpt lat="42.590706" lon="1.314011">
        <ele>1631.5</ele>
        <time>2013-07-31T07:06:37Z</time>
      </trkpt>
      <trkpt lat="42.590823" lon="1.314024">
        <ele>1626.2</ele>
        <time>2013-07-31T07:36:29Z</time>
      </trkpt>
      <trkpt lat="42.590836" lon="1.314047">
        <ele>1624.7</ele>
        <time>2013-07-31T07:36:36Z</time>
      </trkpt>
      <trkpt lat="42.590850" lon="1.314080">
        <ele>1623.4</ele>
        <time>2013-07-31T07:36:40Z</time>
      </trkpt>
      <trkpt lat="42.590857" lon="1.314090">
        <ele>1622.9</ele>
        <time>2013-07-31T07:36:41Z</time>
      </trkpt>
      <trkpt lat="42.590869" lon="1.314206">
        <ele>1620.4</ele>
        <time>2013-07-31T07:36:51Z</time>
      </trkpt>
      <trkpt lat="42.590787" lon="1.314291">
        <ele>1616.6</ele>
        <time>2013-07-31T07:37:02Z</time>
      </trkpt>
      <trkpt lat="42.590772" lon="1.314312">
        <ele>1615.6</ele>
        <time>2013-07-31T07:37:04Z</time>
      </trkpt>
      <trkpt lat="42.590755" lon="1.314331">
        <ele>1614.9</ele>
        <time>2013-07-31T07:37:06Z</time>
      </trkpt>
      <trkpt lat="42.590698" lon="1.314446">
        <ele>1612.6</ele>
        <time>2013-07-31T07:37:16Z</time>
      </trkpt>
      <trkpt lat="42.590685" lon="1.314475">
        <ele>1612.5</ele>
        <time>2013-07-31T07:37:18Z</time>
      </trkpt>
      <trkpt lat="42.590672" lon="1.314508">
        <ele>1611.8</ele>
        <time>2013-07-31T07:37:21Z</time>
      </trkpt>
      <trkpt lat="42.590677" lon="1.314535">
        <ele>1610.7</ele>
        <time>2013-07-31T07:37:24Z</time>
      </trkpt>
      <trkpt lat="42.590646" lon="1.314611">
        <ele>1608.8</ele>
        <time>2013-07-31T07:37:29Z</time>
      </trkpt>
      <trkpt lat="42.590631" lon="1.314629">
        <ele>1608.5</ele>
        <time>2013-07-31T07:37:31Z</time>
      </trkpt>
      <trkpt lat="42.590618" lon="1.314758">
        <ele>1604.2</ele>
        <time>2013-07-31T07:37:40Z</time>
      </trkpt>
      <trkpt lat="42.590576" lon="1.314810">
        <ele>1603.4</ele>
        <time>2013-07-31T07:37:45Z</time>
      </trkpt>
      <trkpt lat="42.590502" lon="1.314907">
        <ele>1600.3</ele>
        <time>2013-07-31T07:37:58Z</time>
      </trkpt>
      <trkpt lat="42.590505" lon="1.314925">
        <ele>1599.3</ele>
        <time>2013-07-31T07:37:59Z</time>
      </trkpt>
      <trkpt lat="42.590520" lon="1.314967">
        <ele>1596.7</ele>
        <time>2013-07-31T07:38:06Z</time>
      </trkpt>
      <trkpt lat="42.590491" lon="1.315005">
        <ele>1596.2</ele>
        <time>2013-07-31T07:38:11Z</time>
      </trkpt>
      <trkpt lat="42.590413" lon="1.315156">
        <ele>1591.0</ele>
        <time>2013-07-31T07:38:22Z</time>
      </trkpt>
      <trkpt lat="42.590448" lon="1.315179">
        <ele>1589.5</ele>
        <time>2013-07-31T07:38:25Z</time>
      </trkpt>
      <trkpt lat="42.590593" lon="1.315183">
        <ele>1584.9</ele>
        <time>2013-07-31T07:38:37Z</time>
      </trkpt>
      <trkpt lat="42.590644" lon="1.315177">
        <ele>1583.8</ele>
        <time>2013-07-31T07:38:41Z</time>
      </trkpt>
      <trkpt lat="42.590688" lon="1.315173">
        <ele>1582.7</ele>
        <time>2013-07-31T07:38:44Z</time>
      </trkpt>
      <trkpt lat="42.590846" lon="1.315138">
        <ele>1578.9</ele>
        <time>2013-07-31T07:38:56Z</time>
      </trkpt>
      <trkpt lat="42.590966" lon="1.315157">
        <ele>1575.7</ele>
        <time>2013-07-31T07:39:10Z</time>
      </trkpt>
      <trkpt lat="42.590984" lon="1.315160">
        <ele>1575.4</ele>
        <time>2013-07-31T07:39:14Z</time>
      </trkpt>
      <trkpt lat="42.590996" lon="1.315169">
        <ele>1574.9</ele>
        <time>2013-07-31T07:39:15Z</time>
      </trkpt>
      <trkpt lat="42.591076" lon="1.315223">
        <ele>1572.5</ele>
        <time>2013-07-31T07:39:21Z</time>
      </trkpt>
      <trkpt lat="42.591214" lon="1.315287">
        <ele>1570.6</ele>
        <time>2013-07-31T07:39:32Z</time>
      </trkpt>
      <trkpt lat="42.591215" lon="1.315294">
        <ele>1570.4</ele>
        <time>2013-07-31T07:39:33Z</time>
      </trkpt>
      <trkpt lat="42.591172" lon="1.315344">
        <ele>1567.3</ele>
        <time>2013-07-31T07:39:47Z</time>
      </trkpt>
      <trkpt lat="42.591174" lon="1.315343">
        <ele>1567.4</ele>
        <time>2013-07-31T07:39:52Z</time>
      </trkpt>
      <trkpt lat="42.591174" lon="1.315343">
        <ele>1567.4</ele>
        <time>2013-07-31T07:39:54Z</time>
      </trkpt>
      <trkpt lat="42.591340" lon="1.315402">
        <ele>1565.2</ele>
        <time>2013-07-31T07:40:08Z</time>
      </trkpt>
      <trkpt lat="42.591342" lon="1.315448">
        <ele>1562.5</ele>
        <time>2013-07-31T07:40:19Z</time>
      </trkpt>
      <trkpt lat="42.591342" lon="1.315448">
        <ele>1562.5</ele>
        <time>2013-07-31T07:40:31Z</time>
      </trkpt>
      <trkpt lat="42.591342" lon="1.315448">
        <ele>1562.5</ele>
        <time>2013-07-31T07:40:35Z</time>
      </trkpt>
      <trkpt lat="42.591342" lon="1.315448">
        <ele>1562.5</ele>
        <time>2013-07-31T07:40:36Z</time>
      </trkpt>
      <trkpt lat="42.591334" lon="1.315442">
        <ele>1562.6</ele>
        <time>2013-07-31T07:40:43Z</time>
      </trkpt>
      <trkpt lat="42.591331" lon="1.315445">
        <ele>1562.4</ele>
        <time>2013-07-31T07:40:45Z</time>
      </trkpt>
      <trkpt lat="42.591268" lon="1.315556">
        <ele>1556.4</ele>
        <time>2013-07-31T07:40:57Z</time>
      </trkpt>
      <trkpt lat="42.591267" lon="1.315565">
        <ele>1555.9</ele>
        <time>2013-07-31T07:40:58Z</time>
      </trkpt>
      <trkpt lat="42.591281" lon="1.315600">
        <ele>1554.1</ele>
        <time>2013-07-31T07:41:02Z</time>
      </trkpt>
      <trkpt lat="42.591324" lon="1.315628">
        <ele>1552.4</ele>
        <time>2013-07-31T07:41:07Z</time>
      </trkpt>
      <trkpt lat="42.591344" lon="1.315637">
        <ele>1551.8</ele>
        <time>2013-07-31T07:41:09Z</time>
      </trkpt>
      <trkpt lat="42.591353" lon="1.315637">
        <ele>1551.8</ele>
        <time>2013-07-31T07:41:10Z</time>
      </trkpt>
      <trkpt lat="42.591403" lon="1.315672">
        <ele>1549.7</ele>
        <time>2013-07-31T07:41:16Z</time>
      </trkpt>
      <trkpt lat="42.591474" lon="1.315795">
        <ele>1542.1</ele>
        <time>2013-07-31T07:41:26Z</time>
      </trkpt>
      <trkpt lat="42.591504" lon="1.315883">
        <ele>1537.6</ele>
        <time>2013-07-31T07:41:39Z</time>
      </trkpt>
      <trkpt lat="42.591494" lon="1.315880">
        <ele>1537.8</ele>
        <time>2013-07-31T07:41:44Z</time>
      </trkpt>
      <trkpt lat="42.591466" lon="1.315900">
        <ele>1537.1</ele>
        <time>2013-07-31T07:41:47Z</time>
      </trkpt>
      <trkpt lat="42.591452" lon="1.315910">
        <ele>1536.8</ele>
        <time>2013-07-31T07:41:49Z</time>
      </trkpt>
      <trkpt lat="42.591437" lon="1.315927">
        <ele>1535.9</ele>
        <time>2013-07-31T07:41:51Z</time>
      </trkpt>
      <trkpt lat="42.591450" lon="1.315947">
        <ele>1534.6</ele>
        <time>2013-07-31T07:41:54Z</time>
      </trkpt>
      <trkpt lat="42.591516" lon="1.315998">
        <ele>1531.4</ele>
        <time>2013-07-31T07:42:04Z</time>
      </trkpt>
      <trkpt lat="42.591547" lon="1.316021">
        <ele>1530.3</ele>
        <time>2013-07-31T07:42:08Z</time>
      </trkpt>
      <trkpt lat="42.591573" lon="1.316029">
        <ele>1530.0</ele>
        <time>2013-07-31T07:42:11Z</time>
      </trkpt>
      <trkpt lat="42.591591" lon="1.316045">
        <ele>1529.2</ele>
        <time>2013-07-31T07:42:13Z</time>
      </trkpt>
      <trkpt lat="42.591591" lon="1.316074">
        <ele>1527.5</ele>
        <time>2013-07-31T07:42:18Z</time>
      </trkpt>
      <trkpt lat="42.591555" lon="1.316101">
        <ele>1525.8</ele>
        <time>2013-07-31T07:42:24Z</time>
      </trkpt>
      <trkpt lat="42.591510" lon="1.316133">
        <ele>1524.1</ele>
        <time>2013-07-31T07:42:29Z</time>
      </trkpt>
      <trkpt lat="42.591559" lon="1.316230">
        <ele>1518.5</ele>
        <time>2013-07-31T07:42:41Z</time>
      </trkpt>
      <trkpt lat="42.591573" lon="1.316258">
        <ele>1517.2</ele>
        <time>2013-07-31T07:42:46Z</time>
      </trkpt>
      <trkpt lat="42.591559" lon="1.316271">
        <ele>1516.6</ele>
        <time>2013-07-31T07:42:49Z</time>
      </trkpt>
      <trkpt lat="42.591517" lon="1.316310">
        <ele>1515.0</ele>
        <time>2013-07-31T07:42:55Z</time>
      </trkpt>
      <trkpt lat="42.591530" lon="1.316326">
        <ele>1514.3</ele>
        <time>2013-07-31T07:42:57Z</time>
      </trkpt>
      <trkpt lat="42.591571" lon="1.316368">
        <ele>1511.2</ele>
        <time>2013-07-31T07:43:03Z</time>
      </trkpt>
      <trkpt lat="42.591559" lon="1.316425">
        <ele>1508.6</ele>
        <time>2013-07-31T07:43:08Z</time>
      </trkpt>
      <trkpt lat="42.591681" lon="1.316444">
        <ele>1507.3</ele>
        <time>2013-07-31T07:43:21Z</time>
      </trkpt>
      <trkpt lat="42.591666" lon="1.316482">
        <ele>1504.7</ele>
        <time>2013-07-31T07:43:30Z</time>
      </trkpt>
      <trkpt lat="42.591656" lon="1.316507">
        <ele>1503.3</ele>
        <time>2013-07-31T07:43:34Z</time>
      </trkpt>
      <trkpt lat="42.591647" lon="1.316559">
        <ele>1499.6</ele>
        <time>2013-07-31T07:43:55Z</time>
      </trkpt>
      <trkpt lat="42.591665" lon="1.316601">
        <ele>1497.2</ele>
        <time>2013-07-31T07:46:30Z</time>
      </trkpt>
      <trkpt lat="42.591729" lon="1.316595">
        <ele>1497.9</ele>
        <time>2013-07-31T07:46:35Z</time>
      </trkpt>
      <trkpt lat="42.591843" lon="1.316677">
        <ele>1494.3</ele>
        <time>2013-07-31T07:46:49Z</time>
      </trkpt>
      <trkpt lat="42.591783" lon="1.316749">
        <ele>1490.7</ele>
        <time>2013-07-31T07:47:05Z</time>
      </trkpt>
      <trkpt lat="42.591752" lon="1.316793">
        <ele>1489.1</ele>
        <time>2013-07-31T07:47:11Z</time>
      </trkpt>
      <trkpt lat="42.591758" lon="1.316807">
        <ele>1488.2</ele>
        <time>2013-07-31T07:47:14Z</time>
      </trkpt>
      <trkpt lat="42.591803" lon="1.316811">
        <ele>1487.4</ele>
        <time>2013-07-31T07:47:25Z</time>
      </trkpt>
      <trkpt lat="42.591871" lon="1.316881">
        <ele>1483.7</ele>
        <time>2013-07-31T07:47:32Z</time>
      </trkpt>
      <trkpt lat="42.591942" lon="1.317013">
        <ele>1477.8</ele>
        <time>2013-07-31T07:47:45Z</time>
      </trkpt>
      <trkpt lat="42.591918" lon="1.317050">
        <ele>1476.0</ele>
        <time>2013-07-31T07:47:50Z</time>
      </trkpt>
      <trkpt lat="42.591882" lon="1.317063">
        <ele>1475.1</ele>
        <time>2013-07-31T07:47:55Z</time>
      </trkpt>
      <trkpt lat="42.591845" lon="1.317163">
        <ele>1471.6</ele>
        <time>2013-07-31T07:48:07Z</time>
      </trkpt>
      <trkpt lat="42.591943" lon="1.317215">
        <ele>1468.3</ele>
        <time>2013-07-31T07:48:19Z</time>
      </trkpt>
      <trkpt lat="42.591989" lon="1.317285">
        <ele>1465.3</ele>
        <time>2013-07-31T07:48:26Z</time>
      </trkpt>
      <trkpt lat="42.591998" lon="1.317292">
        <ele>1465.1</ele>
        <time>2013-07-31T07:48:27Z</time>
      </trkpt>
      <trkpt lat="42.592041" lon="1.317368">
        <ele>1462.3</ele>
        <time>2013-07-31T07:48:32Z</time>
      </trkpt>
      <trkpt lat="42.592042" lon="1.317429">
        <ele>1459.7</ele>
        <time>2013-07-31T07:48:41Z</time>
      </trkpt>
      <trkpt lat="42.591979" lon="1.317439">
        <ele>1458.7</ele>
        <time>2013-07-31T07:48:50Z</time>
      </trkpt>
      <trkpt lat="42.591991" lon="1.317465">
        <ele>1457.7</ele>
        <time>2013-07-31T07:48:53Z</time>
      </trkpt>
      <trkpt lat="42.592016" lon="1.317486">
        <ele>1457.0</ele>
        <time>2013-07-31T07:48:56Z</time>
      </trkpt>
      <trkpt lat="42.592084" lon="1.317570">
        <ele>1454.2</ele>
        <time>2013-07-31T07:49:07Z</time>
      </trkpt>
      <trkpt lat="42.592104" lon="1.317596">
        <ele>1453.7</ele>
        <time>2013-07-31T07:49:09Z</time>
      </trkpt>
      <trkpt lat="42.592130" lon="1.317636">
        <ele>1452.9</ele>
        <time>2013-07-31T07:49:12Z</time>
      </trkpt>
      <trkpt lat="42.592189" lon="1.317805">
        <ele>1449.6</ele>
        <time>2013-07-31T07:49:24Z</time>
      </trkpt>
      <trkpt lat="42.592246" lon="1.317993">
        <ele>1445.8</ele>
        <time>2013-07-31T07:49:39Z</time>
      </trkpt>
      <trkpt lat="42.592374" lon="1.318071">
        <ele>1446.3</ele>
        <time>2013-07-31T07:49:51Z</time>
      </trkpt>
      <trkpt lat="42.592445" lon="1.318097">
        <ele>1443.1</ele>
        <time>2013-07-31T07:49:58Z</time>
      </trkpt>
      <trkpt lat="42.592479" lon="1.318100">
        <ele>1441.7</ele>
        <time>2013-07-31T07:50:01Z</time>
      </trkpt>
      <trkpt lat="42.592526" lon="1.318207">
        <ele>1436.8</ele>
        <time>2013-07-31T07:50:14Z</time>
      </trkpt>
      <trkpt lat="42.592527" lon="1.318217">
        <ele>1436.5</ele>
        <time>2013-07-31T07:50:15Z</time>
      </trkpt>
      <trkpt lat="42.592520" lon="1.318258">
        <ele>1435.3</ele>
        <time>2013-07-31T07:50:18Z</time>
      </trkpt>
      <trkpt lat="42.592542" lon="1.318333">
        <ele>1432.3</ele>
        <time>2013-07-31T07:50:30Z</time>
      </trkpt>
      <trkpt lat="42.592602" lon="1.318350">
        <ele>1430.6</ele>
        <time>2013-07-31T07:50:38Z</time>
      </trkpt>
      <trkpt lat="42.592583" lon="1.318395">
        <ele>1429.2</ele>
        <time>2013-07-31T07:50:42Z</time>
      </trkpt>
      <trkpt lat="42.592578" lon="1.318402">
        <ele>1429.0</ele>
        <time>2013-07-31T07:50:43Z</time>
      </trkpt>
      <trkpt lat="42.592543" lon="1.318443">
        <ele>1427.9</ele>
        <time>2013-07-31T07:50:51Z</time>
      </trkpt>
      <trkpt lat="42.592655" lon="1.318464">
        <ele>1425.4</ele>
        <time>2013-07-31T07:51:01Z</time>
      </trkpt>
      <trkpt lat="42.592811" lon="1.318496">
        <ele>1420.9</ele>
        <time>2013-07-31T07:51:15Z</time>
      </trkpt>
      <trkpt lat="42.592794" lon="1.318538">
        <ele>1420.2</ele>
        <time>2013-07-31T07:51:20Z</time>
      </trkpt>
      <trkpt lat="42.592740" lon="1.318602">
        <ele>1418.2</ele>
        <time>2013-07-31T07:51:25Z</time>
      </trkpt>
      <trkpt lat="42.592655" lon="1.318654">
        <ele>1417.1</ele>
        <time>2013-07-31T07:51:31Z</time>
      </trkpt>
      <trkpt lat="42.592659" lon="1.318707">
        <ele>1415.2</ele>
        <time>2013-07-31T07:51:36Z</time>
      </trkpt>
      <trkpt lat="42.592787" lon="1.318795">
        <ele>1409.0</ele>
        <time>2013-07-31T07:51:50Z</time>
      </trkpt>
      <trkpt lat="42.592814" lon="1.318791">
        <ele>1409.1</ele>
        <time>2013-07-31T07:51:53Z</time>
      </trkpt>
      <trkpt lat="42.592855" lon="1.318792">
        <ele>1408.9</ele>
        <time>2013-07-31T07:51:57Z</time>
      </trkpt>
      <trkpt lat="42.592869" lon="1.318811">
        <ele>1408.2</ele>
        <time>2013-07-31T07:51:59Z</time>
      </trkpt>
      <trkpt lat="42.592768" lon="1.318884">
        <ele>1404.8</ele>
        <time>2013-07-31T07:52:14Z</time>
      </trkpt>
      <trkpt lat="42.592778" lon="1.318889">
        <ele>1404.5</ele>
        <time>2013-07-31T07:52:15Z</time>
      </trkpt>
      <trkpt lat="42.592897" lon="1.318932">
        <ele>1402.3</ele>
        <time>2013-07-31T07:52:27Z</time>
      </trkpt>
      <trkpt lat="42.592842" lon="1.318997">
        <ele>1399.2</ele>
        <time>2013-07-31T07:52:40Z</time>
      </trkpt>
      <trkpt lat="42.592823" lon="1.319022">
        <ele>1398.1</ele>
        <time>2013-07-31T07:52:43Z</time>
      </trkpt>
      <trkpt lat="42.592797" lon="1.319056">
        <ele>1396.5</ele>
        <time>2013-07-31T07:52:46Z</time>
      </trkpt>
      <trkpt lat="42.592743" lon="1.319077">
        <ele>1395.0</ele>
        <time>2013-07-31T07:52:51Z</time>
      </trkpt>
      <trkpt lat="42.592678" lon="1.319094">
        <ele>1393.5</ele>
        <time>2013-07-31T07:52:56Z</time>
      </trkpt>
      <trkpt lat="42.592633" lon="1.319101">
        <ele>1392.5</ele>
        <time>2013-07-31T07:53:00Z</time>
      </trkpt>
      <trkpt lat="42.592562" lon="1.319123">
        <ele>1391.2</ele>
        <time>2013-07-31T07:53:13Z</time>
      </trkpt>
      <trkpt lat="42.592431" lon="1.319195">
        <ele>1389.6</ele>
        <time>2013-07-31T07:53:27Z</time>
      </trkpt>
      <trkpt lat="42.592409" lon="1.319220">
        <ele>1389.4</ele>
        <time>2013-07-31T07:53:29Z</time>
      </trkpt>
      <trkpt lat="42.592368" lon="1.319298">
        <ele>1388.0</ele>
        <time>2013-07-31T07:53:40Z</time>
      </trkpt>
      <trkpt lat="42.592308" lon="1.319471">
        <ele>1385.5</ele>
        <time>2013-07-31T07:53:53Z</time>
      </trkpt>
      <trkpt lat="42.592314" lon="1.319586">
        <ele>1381.7</ele>
        <time>2013-07-31T07:54:02Z</time>
      </trkpt>
      <trkpt lat="42.592316" lon="1.319625">
        <ele>1380.8</ele>
        <time>2013-07-31T07:54:07Z</time>
      </trkpt>
      <trkpt lat="42.592354" lon="1.319811">
        <ele>1377.3</ele>
        <time>2013-07-31T07:54:21Z</time>
      </trkpt>
      <trkpt lat="42.592381" lon="1.319943">
        <ele>1374.3</ele>
        <time>2013-07-31T07:54:35Z</time>
      </trkpt>
      <trkpt lat="42.592406" lon="1.320075">
        <ele>1370.5</ele>
        <time>2013-07-31T07:54:47Z</time>
      </trkpt>
      <trkpt lat="42.592418" lon="1.320151">
        <ele>1368.7</ele>
        <time>2013-07-31T07:54:51Z</time>
      </trkpt>
      <trkpt lat="42.592421" lon="1.320199">
        <ele>1367.9</ele>
        <time>2013-07-31T07:54:53Z</time>
      </trkpt>
      <trkpt lat="42.592434" lon="1.320339">
        <ele>1365.8</ele>
        <time>2013-07-31T07:55:05Z</time>
      </trkpt>
      <trkpt lat="42.592453" lon="1.320473">
        <ele>1362.6</ele>
        <time>2013-07-31T07:55:16Z</time>
      </trkpt>
      <trkpt lat="42.592470" lon="1.320571">
        <ele>1359.9</ele>
        <time>2013-07-31T07:55:27Z</time>
      </trkpt>
      <trkpt lat="42.592478" lon="1.320628">
        <ele>1358.6</ele>
        <time>2013-07-31T07:55:32Z</time>
      </trkpt>
      <trkpt lat="42.592491" lon="1.320676">
        <ele>1356.7</ele>
        <time>2013-07-31T07:55:36Z</time>
      </trkpt>
      <trkpt lat="42.592512" lon="1.320844">
        <ele>1351.5</ele>
        <time>2013-07-31T07:55:50Z</time>
      </trkpt>
      <trkpt lat="42.592510" lon="1.320975">
        <ele>1348.3</ele>
        <time>2013-07-31T07:56:01Z</time>
      </trkpt>
      <trkpt lat="42.592504" lon="1.321010">
        <ele>1347.6</ele>
        <time>2013-07-31T07:56:04Z</time>
      </trkpt>
      <trkpt lat="42.592488" lon="1.321179">
        <ele>1344.7</ele>
        <time>2013-07-31T07:56:19Z</time>
      </trkpt>
      <trkpt lat="42.592480" lon="1.321217">
        <ele>1344.1</ele>
        <time>2013-07-31T07:56:24Z</time>
      </trkpt>
      <trkpt lat="42.592481" lon="1.321254">
        <ele>1343.2</ele>
        <time>2013-07-31T07:56:27Z</time>
      </trkpt>
      <trkpt lat="42.592485" lon="1.321371">
        <ele>1340.4</ele>
        <time>2013-07-31T07:56:36Z</time>
      </trkpt>
      <trkpt lat="42.592502" lon="1.321404">
        <ele>1339.6</ele>
        <time>2013-07-31T07:56:39Z</time>
      </trkpt>
      <trkpt lat="42.592544" lon="1.321473">
        <ele>1338.6</ele>
        <time>2013-07-31T07:56:44Z</time>
      </trkpt>
      <trkpt lat="42.592581" lon="1.321544">
        <ele>1338.0</ele>
        <time>2013-07-31T07:56:49Z</time>
      </trkpt>
      <trkpt lat="42.592547" lon="1.321598">
        <ele>1336.6</ele>
        <time>2013-07-31T07:57:00Z</time>
      </trkpt>
      <trkpt lat="42.592527" lon="1.321611">
        <ele>1335.3</ele>
        <time>2013-07-31T07:57:04Z</time>
      </trkpt>
      <trkpt lat="42.592466" lon="1.321625">
        <ele>1332.5</ele>
        <time>2013-07-31T07:57:12Z</time>
      </trkpt>
      <trkpt lat="42.592456" lon="1.321653">
        <ele>1331.7</ele>
        <time>2013-07-31T07:57:16Z</time>
      </trkpt>
      <trkpt lat="42.592393" lon="1.321721">
        <ele>1328.7</ele>
        <time>2013-07-31T07:57:29Z</time>
      </trkpt>
      <trkpt lat="42.592353" lon="1.321832">
        <ele>1324.6</ele>
        <time>2013-07-31T07:57:43Z</time>
      </trkpt>
      <trkpt lat="42.592347" lon="1.321852">
        <ele>1323.8</ele>
        <time>2013-07-31T07:57:48Z</time>
      </trkpt>
      <trkpt lat="42.592319" lon="1.321922">
        <ele>1321.8</ele>
        <time>2013-07-31T07:57:54Z</time>
      </trkpt>
      <trkpt lat="42.592307" lon="1.321950">
        <ele>1321.2</ele>
        <time>2013-07-31T07:57:56Z</time>
      </trkpt>
      <trkpt lat="42.592219" lon="1.322114">
        <ele>1315.7</ele>
        <time>2013-07-31T07:58:10Z</time>
      </trkpt>
      <trkpt lat="42.592155" lon="1.322244">
        <ele>1311.0</ele>
        <time>2013-07-31T07:58:22Z</time>
      </trkpt>
      <trkpt lat="42.592140" lon="1.322288">
        <ele>1310.2</ele>
        <time>2013-07-31T07:58:27Z</time>
      </trkpt>
      <trkpt lat="42.592147" lon="1.322351">
        <ele>1308.3</ele>
        <time>2013-07-31T07:58:33Z</time>
      </trkpt>
      <trkpt lat="42.592143" lon="1.322480">
        <ele>1305.5</ele>
        <time>2013-07-31T07:58:46Z</time>
      </trkpt>
      <trkpt lat="42.592120" lon="1.322670">
        <ele>1301.4</ele>
        <time>2013-07-31T07:59:00Z</time>
      </trkpt>
      <trkpt lat="42.592112" lon="1.322726">
        <ele>1299.8</ele>
        <time>2013-07-31T07:59:06Z</time>
      </trkpt>
      <trkpt lat="42.592110" lon="1.322799">
        <ele>1297.6</ele>
        <time>2013-07-31T07:59:11Z</time>
      </trkpt>
      <trkpt lat="42.592107" lon="1.322868">
        <ele>1295.7</ele>
        <time>2013-07-31T07:59:15Z</time>
      </trkpt>
      <trkpt lat="42.592088" lon="1.322949">
        <ele>1293.9</ele>
        <time>2013-07-31T07:59:20Z</time>
      </trkpt>
      <trkpt lat="42.592015" lon="1.323118">
        <ele>1291.0</ele>
        <time>2013-07-31T07:59:35Z</time>
      </trkpt>
      <trkpt lat="42.592010" lon="1.323152">
        <ele>1290.3</ele>
        <time>2013-07-31T07:59:37Z</time>
      </trkpt>
      <trkpt lat="42.592036" lon="1.323282">
        <ele>1287.5</ele>
        <time>2013-07-31T07:59:45Z</time>
      </trkpt>
      <trkpt lat="42.592046" lon="1.323295">
        <ele>1287.1</ele>
        <time>2013-07-31T07:59:46Z</time>
      </trkpt>
      <trkpt lat="42.592091" lon="1.323303">
        <ele>1285.9</ele>
        <time>2013-07-31T07:59:50Z</time>
      </trkpt>
      <trkpt lat="42.592106" lon="1.323321">
        <ele>1285.4</ele>
        <time>2013-07-31T07:59:53Z</time>
      </trkpt>
      <trkpt lat="42.592051" lon="1.323453">
        <ele>1284.3</ele>
        <time>2013-07-31T08:00:06Z</time>
      </trkpt>
      <trkpt lat="42.592052" lon="1.323553">
        <ele>1281.7</ele>
        <time>2013-07-31T08:00:19Z</time>
      </trkpt>
      <trkpt lat="42.592052" lon="1.323553">
        <ele>1281.7</ele>
        <time>2013-07-31T08:00:24Z</time>
      </trkpt>
      <trkpt lat="42.591990" lon="1.323629">
        <ele>1279.6</ele>
        <time>2013-07-31T08:00:35Z</time>
      </trkpt>
      <trkpt lat="42.591962" lon="1.323656">
        <ele>1278.1</ele>
        <time>2013-07-31T08:00:48Z</time>
      </trkpt>
      <trkpt lat="42.591912" lon="1.323672">
        <ele>1275.5</ele>
        <time>2013-07-31T08:00:57Z</time>
      </trkpt>
      <trkpt lat="42.591880" lon="1.323626">
        <ele>1277.6</ele>
        <time>2013-07-31T08:01:03Z</time>
      </trkpt>
      <trkpt lat="42.591866" lon="1.323624">
        <ele>1277.0</ele>
        <time>2013-07-31T08:01:15Z</time>
      </trkpt>
      <trkpt lat="42.591866" lon="1.323630">
        <ele>1276.7</ele>
        <time>2013-07-31T08:01:33Z</time>
      </trkpt>
      <trkpt lat="42.591879" lon="1.323646">
        <ele>1276.4</ele>
        <time>2013-07-31T08:01:51Z</time>
      </trkpt>
      <trkpt lat="42.591894" lon="1.323666">
        <ele>1275.4</ele>
        <time>2013-07-31T08:01:54Z</time>
      </trkpt>
      <trkpt lat="42.591847" lon="1.323708">
        <ele>1271.6</ele>
        <time>2013-07-31T08:02:00Z</time>
      </trkpt>
      <trkpt lat="42.591834" lon="1.323737">
        <ele>1269.5</ele>
        <time>2013-07-31T08:02:06Z</time>
      </trkpt>
      <trkpt lat="42.591897" lon="1.323820">
        <ele>1267.6</ele>
        <time>2013-07-31T08:02:13Z</time>
      </trkpt>
      <trkpt lat="42.591917" lon="1.323871">
        <ele>1268.0</ele>
        <time>2013-07-31T08:02:17Z</time>
      </trkpt>
      <trkpt lat="42.591894" lon="1.323892">
        <ele>1266.5</ele>
        <time>2013-07-31T08:02:21Z</time>
      </trkpt>
      <trkpt lat="42.591848" lon="1.323849">
        <ele>1265.1</ele>
        <time>2013-07-31T08:02:27Z</time>
      </trkpt>
      <trkpt lat="42.591819" lon="1.323865">
        <ele>1263.5</ele>
        <time>2013-07-31T08:02:37Z</time>
      </trkpt>
      <trkpt lat="42.591846" lon="1.323948">
        <ele>1261.7</ele>
        <time>2013-07-31T08:02:48Z</time>
      </trkpt>
      <trkpt lat="42.591855" lon="1.323966">
        <ele>1261.3</ele>
        <time>2013-07-31T08:02:49Z</time>
      </trkpt>
      <trkpt lat="42.591876" lon="1.324039">
        <ele>1259.9</ele>
        <time>2013-07-31T08:03:04Z</time>
      </trkpt>
      <trkpt lat="42.591874" lon="1.324041">
        <ele>1259.8</ele>
        <time>2013-07-31T08:03:35Z</time>
      </trkpt>
      <trkpt lat="42.591918" lon="1.324117">
        <ele>1259.7</ele>
        <time>2013-07-31T08:03:54Z</time>
      </trkpt>
      <trkpt lat="42.591927" lon="1.324132">
        <ele>1259.7</ele>
        <time>2013-07-31T08:03:57Z</time>
      </trkpt>
      <trkpt lat="42.591854" lon="1.324104">
        <ele>1258.5</ele>
        <time>2013-07-31T08:04:09Z</time>
      </trkpt>
      <trkpt lat="42.591759" lon="1.324067">
        <ele>1257.8</ele>
        <time>2013-07-31T08:04:17Z</time>
      </trkpt>
      <trkpt lat="42.591692" lon="1.324033">
        <ele>1256.9</ele>
        <time>2013-07-31T08:04:24Z</time>
      </trkpt>
      <trkpt lat="42.591652" lon="1.323999">
        <ele>1256.7</ele>
        <time>2013-07-31T08:04:27Z</time>
      </trkpt>
      <trkpt lat="42.591631" lon="1.323992">
        <ele>1256.5</ele>
        <time>2013-07-31T08:04:37Z</time>
      </trkpt>
      <trkpt lat="42.591626" lon="1.323959">
        <ele>1256.9</ele>
        <time>2013-07-31T08:04:40Z</time>
      </trkpt>
      <trkpt lat="42.591530" lon="1.323834">
        <ele>1258.6</ele>
        <time>2013-07-31T08:04:51Z</time>
      </trkpt>
      <trkpt lat="42.591480" lon="1.323833">
        <ele>1257.9</ele>
        <time>2013-07-31T08:04:57Z</time>
      </trkpt>
      <trkpt lat="42.591367" lon="1.324043">
        <ele>1252.9</ele>
        <time>2013-07-31T08:05:11Z</time>
      </trkpt>
      <trkpt lat="42.591276" lon="1.324229">
        <ele>1250.7</ele>
        <time>2013-07-31T08:05:26Z</time>
      </trkpt>
      <trkpt lat="42.591154" lon="1.324522">
        <ele>1248.5</ele>
        <time>2013-07-31T08:05:44Z</time>
      </trkpt>
      <trkpt lat="42.591042" lon="1.324852">
        <ele>1246.4</ele>
        <time>2013-07-31T08:06:01Z</time>
      </trkpt>
      <trkpt lat="42.590995" lon="1.325068">
        <ele>1246.6</ele>
        <time>2013-07-31T08:06:15Z</time>
      </trkpt>
      <trkpt lat="42.591158" lon="1.325080">
        <ele>1247.3</ele>
        <time>2013-07-31T08:56:28Z</time>
      </trkpt>
      <trkpt lat="42.591307" lon="1.325003">
        <ele>1248.8</ele>
        <time>2013-07-31T08:56:41Z</time>
      </trkpt>
      <trkpt lat="42.591424" lon="1.324931">
        <ele>1250.7</ele>
        <time>2013-07-31T08:56:52Z</time>
      </trkpt>
      <trkpt lat="42.591466" lon="1.324914">
        <ele>1251.3</ele>
        <time>2013-07-31T08:56:56Z</time>
      </trkpt>
      <trkpt lat="42.591566" lon="1.324875">
        <ele>1252.8</ele>
        <time>2013-07-31T08:57:08Z</time>
      </trkpt>
      <trkpt lat="42.591591" lon="1.324854">
        <ele>1253.4</ele>
        <time>2013-07-31T08:57:25Z</time>
      </trkpt>
      <trkpt lat="42.591591" lon="1.324854">
        <ele>1253.4</ele>
        <time>2013-07-31T08:57:38Z</time>
      </trkpt>
      <trkpt lat="42.591724" lon="1.324816">
        <ele>1255.4</ele>
        <time>2013-07-31T08:57:51Z</time>
      </trkpt>
      <trkpt lat="42.591824" lon="1.324799">
        <ele>1257.5</ele>
        <time>2013-07-31T08:58:02Z</time>
      </trkpt>
      <trkpt lat="42.591866" lon="1.324790">
        <ele>1257.6</ele>
        <time>2013-07-31T08:58:06Z</time>
      </trkpt>
      <trkpt lat="42.591997" lon="1.324759">
        <ele>1259.8</ele>
        <time>2013-07-31T08:58:18Z</time>
      </trkpt>
      <trkpt lat="42.592024" lon="1.324737">
        <ele>1260.7</ele>
        <time>2013-07-31T08:58:33Z</time>
      </trkpt>
      <trkpt lat="42.592030" lon="1.324763">
        <ele>1260.5</ele>
        <time>2013-07-31T08:58:49Z</time>
      </trkpt>
      <trkpt lat="42.592028" lon="1.324750">
        <ele>1260.6</ele>
        <time>2013-07-31T08:58:55Z</time>
      </trkpt>
      <trkpt lat="42.592048" lon="1.324664">
        <ele>1261.8</ele>
        <time>2013-07-31T08:59:02Z</time>
      </trkpt>
      <trkpt lat="42.592145" lon="1.324486">
        <ele>1263.9</ele>
        <time>2013-07-31T08:59:16Z</time>
      </trkpt>
      <trkpt lat="42.592151" lon="1.324460">
        <ele>1264.1</ele>
        <time>2013-07-31T08:59:30Z</time>
      </trkpt>
      <trkpt lat="42.592150" lon="1.324464">
        <ele>1264.1</ele>
        <time>2013-07-31T08:59:41Z</time>
      </trkpt>
      <trkpt lat="42.592184" lon="1.324481">
        <ele>1264.7</ele>
        <time>2013-07-31T08:59:48Z</time>
      </trkpt>
      <trkpt lat="42.592235" lon="1.324487">
        <ele>1265.5</ele>
        <time>2013-07-31T08:59:53Z</time>
      </trkpt>
      <trkpt lat="42.592275" lon="1.324479">
        <ele>1266.0</ele>
        <time>2013-07-31T08:59:57Z</time>
      </trkpt>
      <trkpt lat="42.592422" lon="1.324462">
        <ele>1268.3</ele>
        <time>2013-07-31T09:00:10Z</time>
      </trkpt>
      <trkpt lat="42.592499" lon="1.324461">
        <ele>1269.6</ele>
        <time>2013-07-31T09:00:18Z</time>
      </trkpt>
      <trkpt lat="42.592536" lon="1.324460">
        <ele>1270.2</ele>
        <time>2013-07-31T09:00:21Z</time>
      </trkpt>
      <trkpt lat="42.592691" lon="1.324440">
        <ele>1272.8</ele>
        <time>2013-07-31T09:00:34Z</time>
      </trkpt>
      <trkpt lat="42.592793" lon="1.324423">
        <ele>1274.2</ele>
        <time>2013-07-31T09:00:43Z</time>
      </trkpt>
      <trkpt lat="42.592927" lon="1.324454">
        <ele>1274.9</ele>
        <time>2013-07-31T09:00:55Z</time>
      </trkpt>
      <trkpt lat="42.593088" lon="1.324505">
        <ele>1276.6</ele>
        <time>2013-07-31T09:01:09Z</time>
      </trkpt>
      <trkpt lat="42.593147" lon="1.324508">
        <ele>1277.3</ele>
        <time>2013-07-31T09:01:14Z</time>
      </trkpt>
      <trkpt lat="42.593289" lon="1.324513">
        <ele>1279.8</ele>
        <time>2013-07-31T09:01:25Z</time>
      </trkpt>
      <trkpt lat="42.593415" lon="1.324487">
        <ele>1280.0</ele>
        <time>2013-07-31T09:01:37Z</time>
      </trkpt>
      <trkpt lat="42.593560" lon="1.324466">
        <ele>1281.1</ele>
        <time>2013-07-31T09:01:48Z</time>
      </trkpt>
      <trkpt lat="42.593718" lon="1.324374">
        <ele>1281.8</ele>
        <time>2013-07-31T09:02:02Z</time>
      </trkpt>
      <trkpt lat="42.593851" lon="1.324363">
        <ele>1283.4</ele>
        <time>2013-07-31T09:02:14Z</time>
      </trkpt>
      <trkpt lat="42.593983" lon="1.324366">
        <ele>1284.3</ele>
        <time>2013-07-31T09:02:26Z</time>
      </trkpt>
      <trkpt lat="42.594179" lon="1.324327">
        <ele>1286.2</ele>
        <time>2013-07-31T09:02:40Z</time>
      </trkpt>
      <trkpt lat="42.594295" lon="1.324200">
        <ele>1288.0</ele>
        <time>2013-07-31T09:02:52Z</time>
      </trkpt>
      <trkpt lat="42.594301" lon="1.324196">
        <ele>1288.0</ele>
        <time>2013-07-31T09:02:53Z</time>
      </trkpt>
      <trkpt lat="42.594422" lon="1.324089">
        <ele>1288.9</ele>
        <time>2013-07-31T09:03:05Z</time>
      </trkpt>
      <trkpt lat="42.594541" lon="1.323982">
        <ele>1290.9</ele>
        <time>2013-07-31T09:03:18Z</time>
      </trkpt>
      <trkpt lat="42.594586" lon="1.323940">
        <ele>1291.7</ele>
        <time>2013-07-31T09:03:23Z</time>
      </trkpt>
      <trkpt lat="42.594766" lon="1.323838">
        <ele>1291.7</ele>
        <time>2013-07-31T09:03:37Z</time>
      </trkpt>
      <trkpt lat="42.594850" lon="1.323773">
        <ele>1292.2</ele>
        <time>2013-07-31T09:03:46Z</time>
      </trkpt>
      <trkpt lat="42.594905" lon="1.323734">
        <ele>1292.4</ele>
        <time>2013-07-31T09:03:53Z</time>
      </trkpt>
      <trkpt lat="42.595006" lon="1.323668">
        <ele>1292.6</ele>
        <time>2013-07-31T09:04:00Z</time>
      </trkpt>
      <trkpt lat="42.595053" lon="1.323642">
        <ele>1292.5</ele>
        <time>2013-07-31T09:04:03Z</time>
      </trkpt>
      <trkpt lat="42.595192" lon="1.323540">
        <ele>1293.0</ele>
        <time>2013-07-31T09:04:18Z</time>
      </trkpt>
      <trkpt lat="42.595290" lon="1.323430">
        <ele>1294.2</ele>
        <time>2013-07-31T09:04:27Z</time>
      </trkpt>
      <trkpt lat="42.595398" lon="1.323321">
        <ele>1294.5</ele>
        <time>2013-07-31T09:04:40Z</time>
      </trkpt>
      <trkpt lat="42.595579" lon="1.323115">
        <ele>1296.0</ele>
        <time>2013-07-31T09:04:56Z</time>
      </trkpt>
      <trkpt lat="42.595686" lon="1.323041">
        <ele>1295.8</ele>
        <time>2013-07-31T09:05:09Z</time>
      </trkpt>
      <trkpt lat="42.595686" lon="1.323041">
        <ele>1295.8</ele>
        <time>2013-07-31T09:05:13Z</time>
      </trkpt>
      <trkpt lat="42.595687" lon="1.322966">
        <ele>1297.2</ele>
        <time>2013-07-31T09:05:25Z</time>
      </trkpt>
      <trkpt lat="42.595691" lon="1.322972">
        <ele>1297.1</ele>
        <time>2013-07-31T09:05:42Z</time>
      </trkpt>
      <trkpt lat="42.595739" lon="1.323003">
        <ele>1296.3</ele>
        <time>2013-07-31T09:05:48Z</time>
      </trkpt>
      <trkpt lat="42.595938" lon="1.322918">
        <ele>1296.4</ele>
        <time>2013-07-31T09:06:03Z</time>
      </trkpt>
      <trkpt lat="42.596076" lon="1.322864">
        <ele>1296.5</ele>
        <time>2013-07-31T09:06:16Z</time>
      </trkpt>
      <trkpt lat="42.596221" lon="1.322813">
        <ele>1297.1</ele>
        <time>2013-07-31T09:06:26Z</time>
      </trkpt>
      <trkpt lat="42.596342" lon="1.322792">
        <ele>1297.6</ele>
        <time>2013-07-31T09:06:36Z</time>
      </trkpt>
      <trkpt lat="42.596416" lon="1.322781">
        <ele>1298.2</ele>
        <time>2013-07-31T09:06:42Z</time>
      </trkpt>
      <trkpt lat="42.596580" lon="1.322792">
        <ele>1299.1</ele>
        <time>2013-07-31T09:06:54Z</time>
      </trkpt>
      <trkpt lat="42.596794" lon="1.322825">
        <ele>1300.8</ele>
        <time>2013-07-31T09:07:09Z</time>
      </trkpt>
      <trkpt lat="42.596953" lon="1.322894">
        <ele>1301.9</ele>
        <time>2013-07-31T09:07:21Z</time>
      </trkpt>
      <trkpt lat="42.596973" lon="1.322914">
        <ele>1301.1</ele>
        <time>2013-07-31T09:07:23Z</time>
      </trkpt>
      <trkpt lat="42.597149" lon="1.323002">
        <ele>1303.6</ele>
        <time>2013-07-31T09:07:37Z</time>
      </trkpt>
      <trkpt lat="42.597266" lon="1.323066">
        <ele>1302.4</ele>
        <time>2013-07-31T09:07:48Z</time>
      </trkpt>
      <trkpt lat="42.597410" lon="1.323116">
        <ele>1305.2</ele>
        <time>2013-07-31T09:08:00Z</time>
      </trkpt>
      <trkpt lat="42.597534" lon="1.323177">
        <ele>1306.6</ele>
        <time>2013-07-31T09:08:12Z</time>
      </trkpt>
      <trkpt lat="42.597549" lon="1.323182">
        <ele>1306.8</ele>
        <time>2013-07-31T09:08:14Z</time>
      </trkpt>
      <trkpt lat="42.597731" lon="1.323239">
        <ele>1307.0</ele>
        <time>2013-07-31T09:08:29Z</time>
      </trkpt>
      <trkpt lat="42.597806" lon="1.323198">
        <ele>1308.0</ele>
        <time>2013-07-31T09:08:46Z</time>
      </trkpt>
      <trkpt lat="42.597831" lon="1.323121">
        <ele>1309.0</ele>
        <time>2013-07-31T09:09:14Z</time>
      </trkpt>
      <trkpt lat="42.597867" lon="1.323166">
        <ele>1309.1</ele>
        <time>2013-07-31T09:09:22Z</time>
      </trkpt>
      <trkpt lat="42.597982" lon="1.323284">
        <ele>1309.1</ele>
        <time>2013-07-31T09:09:34Z</time>
      </trkpt>
      <trkpt lat="42.598129" lon="1.323289">
        <ele>1309.4</ele>
        <time>2013-07-31T09:09:46Z</time>
      </trkpt>
      <trkpt lat="42.598254" lon="1.323191">
        <ele>1307.3</ele>
        <time>2013-07-31T09:09:59Z</time>
      </trkpt>
      <trkpt lat="42.598328" lon="1.323097">
        <ele>1306.4</ele>
        <time>2013-07-31T09:10:06Z</time>
      </trkpt>
      <trkpt lat="42.598348" lon="1.323068">
        <ele>1306.3</ele>
        <time>2013-07-31T09:10:08Z</time>
      </trkpt>
      <trkpt lat="42.598482" lon="1.322889">
        <ele>1305.7</ele>
        <time>2013-07-31T09:10:20Z</time>
      </trkpt>
      <trkpt lat="42.598690" lon="1.322684">
        <ele>1306.2</ele>
        <time>2013-07-31T09:10:35Z</time>
      </trkpt>
      <trkpt lat="42.598820" lon="1.322573">
        <ele>1307.3</ele>
        <time>2013-07-31T09:10:48Z</time>
      </trkpt>
      <trkpt lat="42.598960" lon="1.322538">
        <ele>1306.9</ele>
        <time>2013-07-31T09:11:02Z</time>
      </trkpt>
      <trkpt lat="42.599080" lon="1.322539">
        <ele>1307.4</ele>
        <time>2013-07-31T09:11:14Z</time>
      </trkpt>
      <trkpt lat="42.599121" lon="1.322540">
        <ele>1307.6</ele>
        <time>2013-07-31T09:11:17Z</time>
      </trkpt>
      <trkpt lat="42.599271" lon="1.322532">
        <ele>1308.2</ele>
        <time>2013-07-31T09:11:29Z</time>
      </trkpt>
      <trkpt lat="42.599335" lon="1.322513">
        <ele>1308.5</ele>
        <time>2013-07-31T09:11:34Z</time>
      </trkpt>
      <trkpt lat="42.599357" lon="1.322503">
        <ele>1308.7</ele>
        <time>2013-07-31T09:11:36Z</time>
      </trkpt>
      <trkpt lat="42.599532" lon="1.322537">
        <ele>1309.6</ele>
        <time>2013-07-31T09:11:49Z</time>
      </trkpt>
      <trkpt lat="42.599595" lon="1.322567">
        <ele>1309.8</ele>
        <time>2013-07-31T09:11:54Z</time>
      </trkpt>
      <trkpt lat="42.599763" lon="1.322656">
        <ele>1309.9</ele>
        <time>2013-07-31T09:12:08Z</time>
      </trkpt>
      <trkpt lat="42.599840" lon="1.322668">
        <ele>1310.2</ele>
        <time>2013-07-31T09:12:14Z</time>
      </trkpt>
      <trkpt lat="42.600036" lon="1.322665">
        <ele>1312.2</ele>
        <time>2013-07-31T09:12:28Z</time>
      </trkpt>
      <trkpt lat="42.600091" lon="1.322617">
        <ele>1313.0</ele>
        <time>2013-07-31T09:12:40Z</time>
      </trkpt>
      <trkpt lat="42.600091" lon="1.322617">
        <ele>1313.0</ele>
        <time>2013-07-31T09:13:03Z</time>
      </trkpt>
      <trkpt lat="42.600107" lon="1.322613">
        <ele>1313.0</ele>
        <time>2013-07-31T09:13:08Z</time>
      </trkpt>
      <trkpt lat="42.600164" lon="1.322573">
        <ele>1313.3</ele>
        <time>2013-07-31T09:13:15Z</time>
      </trkpt>
      <trkpt lat="42.600226" lon="1.322518">
        <ele>1313.8</ele>
        <time>2013-07-31T09:13:20Z</time>
      </trkpt>
      <trkpt lat="42.600321" lon="1.322432">
        <ele>1313.9</ele>
        <time>2013-07-31T09:13:30Z</time>
      </trkpt>
      <trkpt lat="42.600522" lon="1.322406">
        <ele>1313.8</ele>
        <time>2013-07-31T09:13:46Z</time>
      </trkpt>
      <trkpt lat="42.600725" lon="1.322347">
        <ele>1314.2</ele>
        <time>2013-07-31T09:14:00Z</time>
      </trkpt>
      <trkpt lat="42.600887" lon="1.322281">
        <ele>1314.9</ele>
        <time>2013-07-31T09:14:14Z</time>
      </trkpt>
      <trkpt lat="42.601043" lon="1.322221">
        <ele>1315.4</ele>
        <time>2013-07-31T09:14:26Z</time>
      </trkpt>
      <trkpt lat="42.601224" lon="1.322181">
        <ele>1316.3</ele>
        <time>2013-07-31T09:14:39Z</time>
      </trkpt>
      <trkpt lat="42.601408" lon="1.322177">
        <ele>1316.8</ele>
        <time>2013-07-31T09:14:53Z</time>
      </trkpt>
      <trkpt lat="42.601586" lon="1.322189">
        <ele>1316.9</ele>
        <time>2013-07-31T09:15:07Z</time>
      </trkpt>
      <trkpt lat="42.601790" lon="1.322123">
        <ele>1317.1</ele>
        <time>2013-07-31T09:15:22Z</time>
      </trkpt>
      <trkpt lat="42.601931" lon="1.322017">
        <ele>1317.7</ele>
        <time>2013-07-31T09:15:37Z</time>
      </trkpt>
      <trkpt lat="42.601957" lon="1.322011">
        <ele>1317.7</ele>
        <time>2013-07-31T09:15:40Z</time>
      </trkpt>
      <trkpt lat="42.602156" lon="1.321919">
        <ele>1318.5</ele>
        <time>2013-07-31T09:15:54Z</time>
      </trkpt>
      <trkpt lat="42.602208" lon="1.321922">
        <ele>1318.6</ele>
        <time>2013-07-31T09:15:58Z</time>
      </trkpt>
      <trkpt lat="42.602359" lon="1.321951">
        <ele>1319.4</ele>
        <time>2013-07-31T09:16:08Z</time>
      </trkpt>
      <trkpt lat="42.602399" lon="1.321972">
        <ele>1319.7</ele>
        <time>2013-07-31T09:16:12Z</time>
      </trkpt>
      <trkpt lat="42.602596" lon="1.321988">
        <ele>1320.8</ele>
        <time>2013-07-31T09:16:28Z</time>
      </trkpt>
      <trkpt lat="42.602784" lon="1.322033">
        <ele>1321.8</ele>
        <time>2013-07-31T09:16:44Z</time>
      </trkpt>
      <trkpt lat="42.602954" lon="1.322147">
        <ele>1322.0</ele>
        <time>2013-07-31T09:16:58Z</time>
      </trkpt>
      <trkpt lat="42.603065" lon="1.322227">
        <ele>1322.1</ele>
        <time>2013-07-31T09:17:09Z</time>
      </trkpt>
      <trkpt lat="42.603109" lon="1.322263">
        <ele>1322.2</ele>
        <time>2013-07-31T09:17:13Z</time>
      </trkpt>
      <trkpt lat="42.603170" lon="1.322329">
        <ele>1322.4</ele>
        <time>2013-07-31T09:17:19Z</time>
      </trkpt>
      <trkpt lat="42.603309" lon="1.322482">
        <ele>1322.7</ele>
        <time>2013-07-31T09:17:33Z</time>
      </trkpt>
      <trkpt lat="42.603404" lon="1.322628">
        <ele>1323.9</ele>
        <time>2013-07-31T09:17:44Z</time>
      </trkpt>
      <trkpt lat="42.603540" lon="1.322776">
        <ele>1325.1</ele>
        <time>2013-07-31T09:17:59Z</time>
      </trkpt>
      <trkpt lat="42.603715" lon="1.322969">
        <ele>1326.2</ele>
        <time>2013-07-31T09:18:15Z</time>
      </trkpt>
      <trkpt lat="42.603804" lon="1.323091">
        <ele>1327.2</ele>
        <time>2013-07-31T09:18:24Z</time>
      </trkpt>
      <trkpt lat="42.603873" lon="1.323147">
        <ele>1327.6</ele>
        <time>2013-07-31T09:18:31Z</time>
      </trkpt>
      <trkpt lat="42.603957" lon="1.323250">
        <ele>1328.2</ele>
        <time>2013-07-31T09:18:39Z</time>
      </trkpt>
      <trkpt lat="42.604038" lon="1.323329">
        <ele>1328.5</ele>
        <time>2013-07-31T09:18:47Z</time>
      </trkpt>
      <trkpt lat="42.604174" lon="1.323390">
        <ele>1329.1</ele>
        <time>2013-07-31T09:19:00Z</time>
      </trkpt>
      <trkpt lat="42.604281" lon="1.323390">
        <ele>1329.5</ele>
        <time>2013-07-31T09:19:08Z</time>
      </trkpt>
      <trkpt lat="42.604441" lon="1.323357">
        <ele>1330.2</ele>
        <time>2013-07-31T09:19:22Z</time>
      </trkpt>
      <trkpt lat="42.604541" lon="1.323316">
        <ele>1330.9</ele>
        <time>2013-07-31T09:19:33Z</time>
      </trkpt>
      <trkpt lat="42.604682" lon="1.323319">
        <ele>1332.0</ele>
        <time>2013-07-31T09:19:45Z</time>
      </trkpt>
      <trkpt lat="42.604832" lon="1.323314">
        <ele>1332.6</ele>
        <time>2013-07-31T09:19:57Z</time>
      </trkpt>
      <trkpt lat="42.605028" lon="1.323291">
        <ele>1333.6</ele>
        <time>2013-07-31T09:20:11Z</time>
      </trkpt>
      <trkpt lat="42.605081" lon="1.323293">
        <ele>1333.8</ele>
        <time>2013-07-31T09:20:15Z</time>
      </trkpt>
      <trkpt lat="42.605150" lon="1.323252">
        <ele>1334.0</ele>
        <time>2013-07-31T09:20:21Z</time>
      </trkpt>
      <trkpt lat="42.605306" lon="1.323133">
        <ele>1334.7</ele>
        <time>2013-07-31T09:20:35Z</time>
      </trkpt>
      <trkpt lat="42.605387" lon="1.323020">
        <ele>1335.7</ele>
        <time>2013-07-31T09:20:46Z</time>
      </trkpt>
      <trkpt lat="42.605446" lon="1.322855">
        <ele>1336.3</ele>
        <time>2013-07-31T09:20:54Z</time>
      </trkpt>
      <trkpt lat="42.605461" lon="1.322732">
        <ele>1336.5</ele>
        <time>2013-07-31T09:21:01Z</time>
      </trkpt>
      <trkpt lat="42.605461" lon="1.322676">
        <ele>1336.8</ele>
        <time>2013-07-31T09:21:04Z</time>
      </trkpt>
      <trkpt lat="42.605482" lon="1.322468">
        <ele>1336.8</ele>
        <time>2013-07-31T09:21:16Z</time>
      </trkpt>
      <trkpt lat="42.605485" lon="1.322433">
        <ele>1336.7</ele>
        <time>2013-07-31T09:21:30Z</time>
      </trkpt>
      <trkpt lat="42.605495" lon="1.322370">
        <ele>1336.7</ele>
        <time>2013-07-31T09:21:45Z</time>
      </trkpt>
      <trkpt lat="42.605505" lon="1.322204">
        <ele>1338.0</ele>
        <time>2013-07-31T09:21:56Z</time>
      </trkpt>
      <trkpt lat="42.605524" lon="1.322084">
        <ele>1337.9</ele>
        <time>2013-07-31T09:22:05Z</time>
      </trkpt>
      <trkpt lat="42.605519" lon="1.321981">
        <ele>1338.5</ele>
        <time>2013-07-31T09:22:13Z</time>
      </trkpt>
      <trkpt lat="42.605575" lon="1.321744">
        <ele>1339.8</ele>
        <time>2013-07-31T09:22:26Z</time>
      </trkpt>
      <trkpt lat="42.605557" lon="1.321593">
        <ele>1340.8</ele>
        <time>2013-07-31T09:22:38Z</time>
      </trkpt>
      <trkpt lat="42.605561" lon="1.321538">
        <ele>1341.2</ele>
        <time>2013-07-31T09:22:41Z</time>
      </trkpt>
      <trkpt lat="42.605590" lon="1.321288">
        <ele>1341.4</ele>
        <time>2013-07-31T09:22:54Z</time>
      </trkpt>
      <trkpt lat="42.605627" lon="1.321112">
        <ele>1341.7</ele>
        <time>2013-07-31T09:23:03Z</time>
      </trkpt>
      <trkpt lat="42.605612" lon="1.320864">
        <ele>1343.6</ele>
        <time>2013-07-31T09:23:16Z</time>
      </trkpt>
      <trkpt lat="42.605627" lon="1.320705">
        <ele>1344.5</ele>
        <time>2013-07-31T09:23:27Z</time>
      </trkpt>
      <trkpt lat="42.605657" lon="1.320574">
        <ele>1345.0</ele>
        <time>2013-07-31T09:23:39Z</time>
      </trkpt>
      <trkpt lat="42.605662" lon="1.320565">
        <ele>1345.1</ele>
        <time>2013-07-31T09:23:41Z</time>
      </trkpt>
      <trkpt lat="42.605734" lon="1.320426">
        <ele>1345.5</ele>
        <time>2013-07-31T09:23:53Z</time>
      </trkpt>
      <trkpt lat="42.605813" lon="1.320350">
        <ele>1345.3</ele>
        <time>2013-07-31T09:24:02Z</time>
      </trkpt>
      <trkpt lat="42.605899" lon="1.320191">
        <ele>1346.6</ele>
        <time>2013-07-31T09:24:12Z</time>
      </trkpt>
      <trkpt lat="42.605902" lon="1.320187">
        <ele>1346.6</ele>
        <time>2013-07-31T09:24:14Z</time>
      </trkpt>
      <trkpt lat="42.605980" lon="1.320044">
        <ele>1348.9</ele>
        <time>2013-07-31T09:24:25Z</time>
      </trkpt>
      <trkpt lat="42.606121" lon="1.319905">
        <ele>1350.3</ele>
        <time>2013-07-31T09:24:36Z</time>
      </trkpt>
      <trkpt lat="42.606192" lon="1.319832">
        <ele>1351.6</ele>
        <time>2013-07-31T09:24:44Z</time>
      </trkpt>
      <trkpt lat="42.606247" lon="1.319726">
        <ele>1353.5</ele>
        <time>2013-07-31T09:24:51Z</time>
      </trkpt>
      <trkpt lat="42.606295" lon="1.319673">
        <ele>1354.0</ele>
        <time>2013-07-31T09:24:57Z</time>
      </trkpt>
      <trkpt lat="42.606410" lon="1.319570">
        <ele>1354.9</ele>
        <time>2013-07-31T09:25:09Z</time>
      </trkpt>
      <trkpt lat="42.606541" lon="1.319477">
        <ele>1355.3</ele>
        <time>2013-07-31T09:25:21Z</time>
      </trkpt>
      <trkpt lat="42.606572" lon="1.319455">
        <ele>1355.3</ele>
        <time>2013-07-31T09:25:24Z</time>
      </trkpt>
      <trkpt lat="42.606653" lon="1.319419">
        <ele>1355.5</ele>
        <time>2013-07-31T09:25:32Z</time>
      </trkpt>
      <trkpt lat="42.606709" lon="1.319401">
        <ele>1355.7</ele>
        <time>2013-07-31T09:25:36Z</time>
      </trkpt>
      <trkpt lat="42.606742" lon="1.319396">
        <ele>1356.3</ele>
        <time>2013-07-31T09:25:39Z</time>
      </trkpt>
      <trkpt lat="42.606795" lon="1.319406">
        <ele>1357.0</ele>
        <time>2013-07-31T09:25:43Z</time>
      </trkpt>
      <trkpt lat="42.606898" lon="1.319446">
        <ele>1357.6</ele>
        <time>2013-07-31T09:25:52Z</time>
      </trkpt>
      <trkpt lat="42.606991" lon="1.319484">
        <ele>1359.7</ele>
        <time>2013-07-31T09:26:00Z</time>
      </trkpt>
      <trkpt lat="42.607032" lon="1.319489">
        <ele>1360.7</ele>
        <time>2013-07-31T09:26:04Z</time>
      </trkpt>
      <trkpt lat="42.607064" lon="1.319517">
        <ele>1361.1</ele>
        <time>2013-07-31T09:26:07Z</time>
      </trkpt>
      <trkpt lat="42.607098" lon="1.319525">
        <ele>1361.3</ele>
        <time>2013-07-31T09:26:10Z</time>
      </trkpt>
      <trkpt lat="42.607196" lon="1.319588">
        <ele>1362.7</ele>
        <time>2013-07-31T09:26:19Z</time>
      </trkpt>
      <trkpt lat="42.607332" lon="1.319641">
        <ele>1364.1</ele>
        <time>2013-07-31T09:26:32Z</time>
      </trkpt>
      <trkpt lat="42.607344" lon="1.319648">
        <ele>1363.9</ele>
        <time>2013-07-31T09:26:33Z</time>
      </trkpt>
      <trkpt lat="42.607438" lon="1.319670">
        <ele>1363.9</ele>
        <time>2013-07-31T09:26:41Z</time>
      </trkpt>
      <trkpt lat="42.607588" lon="1.319668">
        <ele>1365.5</ele>
        <time>2013-07-31T09:26:52Z</time>
      </trkpt>
      <trkpt lat="42.607750" lon="1.319658">
        <ele>1366.5</ele>
        <time>2013-07-31T09:27:05Z</time>
      </trkpt>
      <trkpt lat="42.607842" lon="1.319657">
        <ele>1366.5</ele>
        <time>2013-07-31T09:27:12Z</time>
      </trkpt>
      <trkpt lat="42.608016" lon="1.319651">
        <ele>1368.6</ele>
        <time>2013-07-31T09:27:25Z</time>
      </trkpt>
      <trkpt lat="42.608158" lon="1.319571">
        <ele>1368.1</ele>
        <time>2013-07-31T09:27:38Z</time>
      </trkpt>
      <trkpt lat="42.608167" lon="1.319564">
        <ele>1368.1</ele>
        <time>2013-07-31T09:27:40Z</time>
      </trkpt>
      <trkpt lat="42.608269" lon="1.319459">
        <ele>1368.1</ele>
        <time>2013-07-31T09:27:52Z</time>
      </trkpt>
      <trkpt lat="42.608290" lon="1.319407">
        <ele>1369.1</ele>
        <time>2013-07-31T09:27:55Z</time>
      </trkpt>
      <trkpt lat="42.608314" lon="1.319329">
        <ele>1370.2</ele>
        <time>2013-07-31T09:28:01Z</time>
      </trkpt>
      <trkpt lat="42.608324" lon="1.319284">
        <ele>1370.6</ele>
        <time>2013-07-31T09:28:04Z</time>
      </trkpt>
      <trkpt lat="42.608369" lon="1.319194">
        <ele>1370.4</ele>
        <time>2013-07-31T09:28:11Z</time>
      </trkpt>
      <trkpt lat="42.608519" lon="1.319049">
        <ele>1368.5</ele>
        <time>2013-07-31T09:28:23Z</time>
      </trkpt>
      <trkpt lat="42.608546" lon="1.319025">
        <ele>1369.4</ele>
        <time>2013-07-31T09:28:25Z</time>
      </trkpt>
      <trkpt lat="42.608571" lon="1.318990">
        <ele>1370.4</ele>
        <time>2013-07-31T09:28:28Z</time>
      </trkpt>
      <trkpt lat="42.608621" lon="1.318948">
        <ele>1371.7</ele>
        <time>2013-07-31T09:28:33Z</time>
      </trkpt>
      <trkpt lat="42.608737" lon="1.318871">
        <ele>1375.4</ele>
        <time>2013-07-31T09:28:46Z</time>
      </trkpt>
      <trkpt lat="42.608811" lon="1.318858">
        <ele>1376.1</ele>
        <time>2013-07-31T09:28:53Z</time>
      </trkpt>
      <trkpt lat="42.608942" lon="1.318863">
        <ele>1379.0</ele>
        <time>2013-07-31T09:29:06Z</time>
      </trkpt>
      <trkpt lat="42.608951" lon="1.318865">
        <ele>1379.2</ele>
        <time>2013-07-31T09:29:07Z</time>
      </trkpt>
      <trkpt lat="42.608984" lon="1.318871">
        <ele>1379.9</ele>
        <time>2013-07-31T09:29:11Z</time>
      </trkpt>
      <trkpt lat="42.609117" lon="1.318955">
        <ele>1381.5</ele>
        <time>2013-07-31T09:29:25Z</time>
      </trkpt>
      <trkpt lat="42.609241" lon="1.319038">
        <ele>1382.8</ele>
        <time>2013-07-31T09:29:38Z</time>
      </trkpt>
      <trkpt lat="42.609276" lon="1.319053">
        <ele>1383.2</ele>
        <time>2013-07-31T09:29:41Z</time>
      </trkpt>
      <trkpt lat="42.609354" lon="1.319094">
        <ele>1383.5</ele>
        <time>2013-07-31T09:29:48Z</time>
      </trkpt>
      <trkpt lat="42.609400" lon="1.319116">
        <ele>1383.2</ele>
        <time>2013-07-31T09:29:52Z</time>
      </trkpt>
      <trkpt lat="42.609445" lon="1.319138">
        <ele>1383.1</ele>
        <time>2013-07-31T09:29:56Z</time>
      </trkpt>
      <trkpt lat="42.609607" lon="1.319197">
        <ele>1384.3</ele>
        <time>2013-07-31T09:30:09Z</time>
      </trkpt>
      <trkpt lat="42.609681" lon="1.319267">
        <ele>1383.8</ele>
        <time>2013-07-31T09:30:16Z</time>
      </trkpt>
      <trkpt lat="42.609706" lon="1.319293">
        <ele>1384.6</ele>
        <time>2013-07-31T09:30:19Z</time>
      </trkpt>
      <trkpt lat="42.609730" lon="1.319307">
        <ele>1385.4</ele>
        <time>2013-07-31T09:30:21Z</time>
      </trkpt>
      <trkpt lat="42.609845" lon="1.319479">
        <ele>1388.1</ele>
        <time>2013-07-31T09:30:37Z</time>
      </trkpt>
      <trkpt lat="42.609894" lon="1.319543">
        <ele>1388.3</ele>
        <time>2013-07-31T09:30:43Z</time>
      </trkpt>
      <trkpt lat="42.609924" lon="1.319569">
        <ele>1388.5</ele>
        <time>2013-07-31T09:30:47Z</time>
      </trkpt>
      <trkpt lat="42.610012" lon="1.319654">
        <ele>1389.0</ele>
        <time>2013-07-31T09:30:56Z</time>
      </trkpt>
      <trkpt lat="42.610052" lon="1.319705">
        <ele>1388.7</ele>
        <time>2013-07-31T09:31:00Z</time>
      </trkpt>
      <trkpt lat="42.610095" lon="1.319698">
        <ele>1390.1</ele>
        <time>2013-07-31T09:31:05Z</time>
      </trkpt>
      <trkpt lat="42.610132" lon="1.319707">
        <ele>1391.4</ele>
        <time>2013-07-31T09:31:08Z</time>
      </trkpt>
      <trkpt lat="42.610154" lon="1.319708">
        <ele>1391.8</ele>
        <time>2013-07-31T09:31:10Z</time>
      </trkpt>
      <trkpt lat="42.610324" lon="1.319714">
        <ele>1392.7</ele>
        <time>2013-07-31T09:31:24Z</time>
      </trkpt>
      <trkpt lat="42.610334" lon="1.319716">
        <ele>1392.6</ele>
        <time>2013-07-31T09:31:25Z</time>
      </trkpt>
      <trkpt lat="42.610405" lon="1.319722">
        <ele>1391.8</ele>
        <time>2013-07-31T09:31:30Z</time>
      </trkpt>
      <trkpt lat="42.610648" lon="1.319699">
        <ele>1389.9</ele>
        <time>2013-07-31T09:31:46Z</time>
      </trkpt>
      <trkpt lat="42.610848" lon="1.319768">
        <ele>1391.2</ele>
        <time>2013-07-31T09:32:01Z</time>
      </trkpt>
      <trkpt lat="42.610987" lon="1.319855">
        <ele>1390.5</ele>
        <time>2013-07-31T09:32:14Z</time>
      </trkpt>
      <trkpt lat="42.611050" lon="1.319895">
        <ele>1390.5</ele>
        <time>2013-07-31T09:32:26Z</time>
      </trkpt>
      <trkpt lat="42.611102" lon="1.319927">
        <ele>1390.6</ele>
        <time>2013-07-31T09:32:34Z</time>
      </trkpt>
      <trkpt lat="42.611205" lon="1.320006">
        <ele>1390.1</ele>
        <time>2013-07-31T09:35:33Z</time>
      </trkpt>
      <trkpt lat="42.611317" lon="1.320106">
        <ele>1389.8</ele>
        <time>2013-07-31T09:35:45Z</time>
      </trkpt>
      <trkpt lat="42.611330" lon="1.320117">
        <ele>1389.6</ele>
        <time>2013-07-31T09:35:46Z</time>
      </trkpt>
      <trkpt lat="42.611381" lon="1.320130">
        <ele>1390.0</ele>
        <time>2013-07-31T09:35:51Z</time>
      </trkpt>
      <trkpt lat="42.611541" lon="1.320158">
        <ele>1391.0</ele>
        <time>2013-07-31T09:36:04Z</time>
      </trkpt>
      <trkpt lat="42.611592" lon="1.320165">
        <ele>1391.3</ele>
        <time>2013-07-31T09:36:09Z</time>
      </trkpt>
      <trkpt lat="42.611665" lon="1.320172">
        <ele>1391.3</ele>
        <time>2013-07-31T09:36:15Z</time>
      </trkpt>
      <trkpt lat="42.611739" lon="1.320188">
        <ele>1390.5</ele>
        <time>2013-07-31T09:36:20Z</time>
      </trkpt>
      <trkpt lat="42.611797" lon="1.320175">
        <ele>1390.6</ele>
        <time>2013-07-31T09:36:24Z</time>
      </trkpt>
      <trkpt lat="42.611897" lon="1.320171">
        <ele>1391.3</ele>
        <time>2013-07-31T09:36:32Z</time>
      </trkpt>
      <trkpt lat="42.612079" lon="1.320173">
        <ele>1391.5</ele>
        <time>2013-07-31T09:36:45Z</time>
      </trkpt>
      <trkpt lat="42.612134" lon="1.320173">
        <ele>1391.6</ele>
        <time>2013-07-31T09:36:49Z</time>
      </trkpt>
      <trkpt lat="42.612198" lon="1.320157">
        <ele>1392.5</ele>
        <time>2013-07-31T09:36:55Z</time>
      </trkpt>
      <trkpt lat="42.612221" lon="1.320164">
        <ele>1392.1</ele>
        <time>2013-07-31T09:36:57Z</time>
      </trkpt>
      <trkpt lat="42.612249" lon="1.320158">
        <ele>1392.5</ele>
        <time>2013-07-31T09:36:59Z</time>
      </trkpt>
      <trkpt lat="42.612416" lon="1.320222">
        <ele>1392.9</ele>
        <time>2013-07-31T09:37:12Z</time>
      </trkpt>
      <trkpt lat="42.612584" lon="1.320359">
        <ele>1392.7</ele>
        <time>2013-07-31T09:37:26Z</time>
      </trkpt>
      <trkpt lat="42.612708" lon="1.320497">
        <ele>1392.1</ele>
        <time>2013-07-31T09:37:38Z</time>
      </trkpt>
      <trkpt lat="42.612800" lon="1.320601">
        <ele>1392.8</ele>
        <time>2013-07-31T09:37:47Z</time>
      </trkpt>
      <trkpt lat="42.612909" lon="1.320737">
        <ele>1393.6</ele>
        <time>2013-07-31T09:37:58Z</time>
      </trkpt>
      <trkpt lat="42.613012" lon="1.320867">
        <ele>1394.0</ele>
        <time>2013-07-31T09:38:10Z</time>
      </trkpt>
      <trkpt lat="42.613106" lon="1.320958">
        <ele>1394.6</ele>
        <time>2013-07-31T09:38:20Z</time>
      </trkpt>
      <trkpt lat="42.613260" lon="1.321112">
        <ele>1396.2</ele>
        <time>2013-07-31T09:38:34Z</time>
      </trkpt>
      <trkpt lat="42.613321" lon="1.321181">
        <ele>1396.7</ele>
        <time>2013-07-31T09:38:43Z</time>
      </trkpt>
      <trkpt lat="42.613347" lon="1.321270">
        <ele>1397.4</ele>
        <time>2013-07-31T09:38:49Z</time>
      </trkpt>
      <trkpt lat="42.613346" lon="1.321407">
        <ele>1396.0</ele>
        <time>2013-07-31T09:39:04Z</time>
      </trkpt>
      <trkpt lat="42.613346" lon="1.321407">
        <ele>1396.0</ele>
        <time>2013-07-31T09:39:24Z</time>
      </trkpt>
      <trkpt lat="42.613353" lon="1.321560">
        <ele>1398.2</ele>
        <time>2013-07-31T09:39:42Z</time>
      </trkpt>
      <trkpt lat="42.613390" lon="1.321694">
        <ele>1398.8</ele>
        <time>2013-07-31T09:39:52Z</time>
      </trkpt>
      <trkpt lat="42.613549" lon="1.321859">
        <ele>1400.1</ele>
        <time>2013-07-31T09:40:06Z</time>
      </trkpt>
      <trkpt lat="42.613601" lon="1.321898">
        <ele>1400.5</ele>
        <time>2013-07-31T09:40:10Z</time>
      </trkpt>
      <trkpt lat="42.613688" lon="1.321973">
        <ele>1402.1</ele>
        <time>2013-07-31T09:40:19Z</time>
      </trkpt>
      <trkpt lat="42.613874" lon="1.322060">
        <ele>1405.3</ele>
        <time>2013-07-31T09:40:34Z</time>
      </trkpt>
      <trkpt lat="42.613892" lon="1.322069">
        <ele>1405.8</ele>
        <time>2013-07-31T09:40:36Z</time>
      </trkpt>
      <trkpt lat="42.614069" lon="1.322121">
        <ele>1407.5</ele>
        <time>2013-07-31T09:40:50Z</time>
      </trkpt>
      <trkpt lat="42.614197" lon="1.322172">
        <ele>1407.4</ele>
        <time>2013-07-31T09:41:04Z</time>
      </trkpt>
      <trkpt lat="42.614216" lon="1.322171">
        <ele>1407.0</ele>
        <time>2013-07-31T09:41:06Z</time>
      </trkpt>
      <trkpt lat="42.614315" lon="1.322229">
        <ele>1407.5</ele>
        <time>2013-07-31T09:41:16Z</time>
      </trkpt>
      <trkpt lat="42.614369" lon="1.322232">
        <ele>1407.5</ele>
        <time>2013-07-31T09:41:21Z</time>
      </trkpt>
      <trkpt lat="42.614418" lon="1.322238">
        <ele>1407.5</ele>
        <time>2013-07-31T09:41:25Z</time>
      </trkpt>
      <trkpt lat="42.614589" lon="1.322266">
        <ele>1407.9</ele>
        <time>2013-07-31T09:41:38Z</time>
      </trkpt>
      <trkpt lat="42.614637" lon="1.322253">
        <ele>1408.2</ele>
        <time>2013-07-31T09:41:41Z</time>
      </trkpt>
      <trkpt lat="42.614871" lon="1.322204">
        <ele>1410.1</ele>
        <time>2013-07-31T09:41:57Z</time>
      </trkpt>
      <trkpt lat="42.615052" lon="1.322191">
        <ele>1411.9</ele>
        <time>2013-07-31T09:42:11Z</time>
      </trkpt>
      <trkpt lat="42.615092" lon="1.322202">
        <ele>1412.2</ele>
        <time>2013-07-31T09:42:14Z</time>
      </trkpt>
      <trkpt lat="42.615271" lon="1.322178">
        <ele>1411.6</ele>
        <time>2013-07-31T09:42:27Z</time>
      </trkpt>
      <trkpt lat="42.615327" lon="1.322168">
        <ele>1411.2</ele>
        <time>2013-07-31T09:42:33Z</time>
      </trkpt>
      <trkpt lat="42.615369" lon="1.322160">
        <ele>1410.8</ele>
        <time>2013-07-31T09:42:37Z</time>
      </trkpt>
      <trkpt lat="42.615408" lon="1.322137">
        <ele>1409.9</ele>
        <time>2013-07-31T09:42:41Z</time>
      </trkpt>
      <trkpt lat="42.615586" lon="1.322143">
        <ele>1410.0</ele>
        <time>2013-07-31T09:42:54Z</time>
      </trkpt>
      <trkpt lat="42.615748" lon="1.322195">
        <ele>1411.3</ele>
        <time>2013-07-31T09:43:02Z</time>
      </trkpt>
      <trkpt lat="42.615850" lon="1.322199">
        <ele>1411.5</ele>
        <time>2013-07-31T09:43:08Z</time>
      </trkpt>
      <trkpt lat="42.615913" lon="1.322210">
        <ele>1412.7</ele>
        <time>2013-07-31T09:43:12Z</time>
      </trkpt>
      <trkpt lat="42.615972" lon="1.322246">
        <ele>1414.4</ele>
        <time>2013-07-31T09:43:18Z</time>
      </trkpt>
      <trkpt lat="42.616167" lon="1.322284">
        <ele>1413.7</ele>
        <time>2013-07-31T09:43:33Z</time>
      </trkpt>
      <trkpt lat="42.616224" lon="1.322291">
        <ele>1414.4</ele>
        <time>2013-07-31T09:43:37Z</time>
      </trkpt>
      <trkpt lat="42.616262" lon="1.322299">
        <ele>1414.5</ele>
        <time>2013-07-31T09:43:40Z</time>
      </trkpt>
      <trkpt lat="42.616375" lon="1.322332">
        <ele>1416.1</ele>
        <time>2013-07-31T09:43:53Z</time>
      </trkpt>
      <trkpt lat="42.616420" lon="1.322382">
        <ele>1418.0</ele>
        <time>2013-07-31T09:44:03Z</time>
      </trkpt>
      <trkpt lat="42.616461" lon="1.322418">
        <ele>1419.7</ele>
        <time>2013-07-31T09:44:20Z</time>
      </trkpt>
      <trkpt lat="42.616486" lon="1.322454">
        <ele>1421.1</ele>
        <time>2013-07-31T09:44:34Z</time>
      </trkpt>
      <trkpt lat="42.616576" lon="1.322564">
        <ele>1424.3</ele>
        <time>2013-07-31T09:44:45Z</time>
      </trkpt>
      <trkpt lat="42.616569" lon="1.322570">
        <ele>1424.7</ele>
        <time>2013-07-31T09:44:57Z</time>
      </trkpt>
      <trkpt lat="42.616569" lon="1.322570">
        <ele>1424.7</ele>
        <time>2013-07-31T09:45:09Z</time>
      </trkpt>
      <trkpt lat="42.616569" lon="1.322570">
        <ele>1424.7</ele>
        <time>2013-07-31T09:45:25Z</time>
      </trkpt>
      <trkpt lat="42.616602" lon="1.322593">
        <ele>1425.7</ele>
        <time>2013-07-31T09:45:38Z</time>
      </trkpt>
      <trkpt lat="42.616654" lon="1.322628">
        <ele>1427.4</ele>
        <time>2013-07-31T09:45:49Z</time>
      </trkpt>
      <trkpt lat="42.616736" lon="1.322688">
        <ele>1432.2</ele>
        <time>2013-07-31T09:46:01Z</time>
      </trkpt>
      <trkpt lat="42.616761" lon="1.322723">
        <ele>1434.5</ele>
        <time>2013-07-31T09:46:15Z</time>
      </trkpt>
      <trkpt lat="42.616776" lon="1.322726">
        <ele>1435.3</ele>
        <time>2013-07-31T09:46:20Z</time>
      </trkpt>
      <trkpt lat="42.616861" lon="1.322757">
        <ele>1437.3</ele>
        <time>2013-07-31T09:46:30Z</time>
      </trkpt>
      <trkpt lat="42.616894" lon="1.322797">
        <ele>1437.8</ele>
        <time>2013-07-31T09:46:35Z</time>
      </trkpt>
      <trkpt lat="42.616950" lon="1.322846">
        <ele>1438.3</ele>
        <time>2013-07-31T09:46:46Z</time>
      </trkpt>
      <trkpt lat="42.616964" lon="1.322891">
        <ele>1438.6</ele>
        <time>2013-07-31T09:46:58Z</time>
      </trkpt>
      <trkpt lat="42.617031" lon="1.322933">
        <ele>1440.0</ele>
        <time>2013-07-31T09:47:09Z</time>
      </trkpt>
      <trkpt lat="42.617233" lon="1.323078">
        <ele>1442.7</ele>
        <time>2013-07-31T09:47:23Z</time>
      </trkpt>
      <trkpt lat="42.617389" lon="1.323215">
        <ele>1442.4</ele>
        <time>2013-07-31T09:47:36Z</time>
      </trkpt>
      <trkpt lat="42.617392" lon="1.323221">
        <ele>1442.4</ele>
        <time>2013-07-31T09:47:47Z</time>
      </trkpt>
      <trkpt lat="42.617427" lon="1.323300">
        <ele>1443.1</ele>
        <time>2013-07-31T09:47:58Z</time>
      </trkpt>
      <trkpt lat="42.617497" lon="1.323420">
        <ele>1444.2</ele>
        <time>2013-07-31T09:48:09Z</time>
      </trkpt>
      <trkpt lat="42.617511" lon="1.323471">
        <ele>1445.0</ele>
        <time>2013-07-31T09:48:21Z</time>
      </trkpt>
      <trkpt lat="42.617544" lon="1.323501">
        <ele>1445.1</ele>
        <time>2013-07-31T09:48:31Z</time>
      </trkpt>
      <trkpt lat="42.617555" lon="1.323556">
        <ele>1446.0</ele>
        <time>2013-07-31T09:48:41Z</time>
      </trkpt>
      <trkpt lat="42.617556" lon="1.323603">
        <ele>1446.8</ele>
        <time>2013-07-31T09:48:52Z</time>
      </trkpt>
      <trkpt lat="42.617555" lon="1.323599">
        <ele>1446.8</ele>
        <time>2013-07-31T09:49:05Z</time>
      </trkpt>
      <trkpt lat="42.617603" lon="1.323671">
        <ele>1446.3</ele>
        <time>2013-07-31T09:49:16Z</time>
      </trkpt>
      <trkpt lat="42.617652" lon="1.323789">
        <ele>1447.5</ele>
        <time>2013-07-31T09:49:30Z</time>
      </trkpt>
      <trkpt lat="42.617771" lon="1.323890">
        <ele>1449.7</ele>
        <time>2013-07-31T09:49:41Z</time>
      </trkpt>
      <trkpt lat="42.617823" lon="1.323968">
        <ele>1450.5</ele>
        <time>2013-07-31T09:49:54Z</time>
      </trkpt>
      <trkpt lat="42.617925" lon="1.324155">
        <ele>1448.0</ele>
        <time>2013-07-31T09:50:06Z</time>
      </trkpt>
      <trkpt lat="42.617945" lon="1.324489">
        <ele>1460.5</ele>
        <time>2013-07-31T09:50:18Z</time>
      </trkpt>
      <trkpt lat="42.617981" lon="1.324660">
        <ele>1466.0</ele>
        <time>2013-07-31T09:50:28Z</time>
      </trkpt>
      <trkpt lat="42.617985" lon="1.324715">
        <ele>1468.3</ele>
        <time>2013-07-31T09:50:33Z</time>
      </trkpt>
      <trkpt lat="42.617971" lon="1.324800">
        <ele>1473.9</ele>
        <time>2013-07-31T09:50:44Z</time>
      </trkpt>
      <trkpt lat="42.617971" lon="1.324906">
        <ele>1479.8</ele>
        <time>2013-07-31T09:50:57Z</time>
      </trkpt>
      <trkpt lat="42.617963" lon="1.325027">
        <ele>1483.7</ele>
        <time>2013-07-31T09:51:09Z</time>
      </trkpt>
      <trkpt lat="42.617946" lon="1.325079">
        <ele>1485.4</ele>
        <time>2013-07-31T09:51:22Z</time>
      </trkpt>
      <trkpt lat="42.617943" lon="1.325205">
        <ele>1486.8</ele>
        <time>2013-07-31T09:51:35Z</time>
      </trkpt>
      <trkpt lat="42.617933" lon="1.325290">
        <ele>1488.2</ele>
        <time>2013-07-31T09:51:46Z</time>
      </trkpt>
      <trkpt lat="42.617937" lon="1.325427">
        <ele>1488.8</ele>
        <time>2013-07-31T09:51:56Z</time>
      </trkpt>
      <trkpt lat="42.617954" lon="1.325604">
        <ele>1489.7</ele>
        <time>2013-07-31T09:52:07Z</time>
      </trkpt>
      <trkpt lat="42.617954" lon="1.325619">
        <ele>1490.0</ele>
        <time>2013-07-31T09:52:20Z</time>
      </trkpt>
      <trkpt lat="42.617960" lon="1.325762">
        <ele>1491.7</ele>
        <time>2013-07-31T09:52:33Z</time>
      </trkpt>
      <trkpt lat="42.617943" lon="1.325861">
        <ele>1494.9</ele>
        <time>2013-07-31T09:52:44Z</time>
      </trkpt>
      <trkpt lat="42.617933" lon="1.325958">
        <ele>1498.2</ele>
        <time>2013-07-31T09:52:56Z</time>
      </trkpt>
      <trkpt lat="42.617914" lon="1.326082">
        <ele>1504.8</ele>
        <time>2013-07-31T09:53:09Z</time>
      </trkpt>
      <trkpt lat="42.617904" lon="1.326105">
        <ele>1506.1</ele>
        <time>2013-07-31T09:53:22Z</time>
      </trkpt>
      <trkpt lat="42.617897" lon="1.326136">
        <ele>1507.6</ele>
        <time>2013-07-31T09:53:34Z</time>
      </trkpt>
      <trkpt lat="42.617901" lon="1.326144">
        <ele>1507.5</ele>
        <time>2013-07-31T09:53:45Z</time>
      </trkpt>
      <trkpt lat="42.617898" lon="1.326146">
        <ele>1507.8</ele>
        <time>2013-07-31T09:54:00Z</time>
      </trkpt>
      <trkpt lat="42.617897" lon="1.326159">
        <ele>1508.3</ele>
        <time>2013-07-31T09:54:20Z</time>
      </trkpt>
      <trkpt lat="42.617897" lon="1.326159">
        <ele>1508.3</ele>
        <time>2013-07-31T09:54:49Z</time>
      </trkpt>
      <trkpt lat="42.617897" lon="1.326166">
        <ele>1508.5</ele>
        <time>2013-07-31T09:55:14Z</time>
      </trkpt>
      <trkpt lat="42.617893" lon="1.326175">
        <ele>1509.2</ele>
        <time>2013-07-31T09:55:42Z</time>
      </trkpt>
      <trkpt lat="42.618070" lon="1.327176">
        <ele>1517.0</ele>
        <time>2013-07-31T09:56:14Z</time>
      </trkpt>
      <trkpt lat="42.618179" lon="1.327130">
        <ele>1502.9</ele>
        <time>2013-07-31T09:56:30Z</time>
      </trkpt>
      <trkpt lat="42.618298" lon="1.327144">
        <ele>1496.2</ele>
        <time>2013-07-31T09:56:54Z</time>
      </trkpt>
      <trkpt lat="42.618330" lon="1.327209">
        <ele>1496.3</ele>
        <time>2013-07-31T09:57:19Z</time>
      </trkpt>
      <trkpt lat="42.618357" lon="1.327251">
        <ele>1496.3</ele>
        <time>2013-07-31T10:08:54Z</time>
      </trkpt>
      <trkpt lat="42.618368" lon="1.327320">
        <ele>1497.6</ele>
        <time>2013-07-31T10:09:04Z</time>
      </trkpt>
      <trkpt lat="42.618396" lon="1.327423">
        <ele>1499.1</ele>
        <time>2013-07-31T10:09:15Z</time>
      </trkpt>
      <trkpt lat="42.618395" lon="1.327503">
        <ele>1501.1</ele>
        <time>2013-07-31T10:09:27Z</time>
      </trkpt>
      <trkpt lat="42.618408" lon="1.327609">
        <ele>1503.2</ele>
        <time>2013-07-31T10:09:38Z</time>
      </trkpt>
      <trkpt lat="42.618448" lon="1.327706">
        <ele>1504.3</ele>
        <time>2013-07-31T10:09:50Z</time>
      </trkpt>
      <trkpt lat="42.618471" lon="1.327834">
        <ele>1506.8</ele>
        <time>2013-07-31T10:10:02Z</time>
      </trkpt>
      <trkpt lat="42.618465" lon="1.327913">
        <ele>1509.1</ele>
        <time>2013-07-31T10:10:14Z</time>
      </trkpt>
      <trkpt lat="42.618457" lon="1.327917">
        <ele>1509.6</ele>
        <time>2013-07-31T10:10:17Z</time>
      </trkpt>
      <trkpt lat="42.618440" lon="1.328013">
        <ele>1513.5</ele>
        <time>2013-07-31T10:10:27Z</time>
      </trkpt>
      <trkpt lat="42.618475" lon="1.328123">
        <ele>1514.6</ele>
        <time>2013-07-31T10:10:38Z</time>
      </trkpt>
      <trkpt lat="42.618537" lon="1.328222">
        <ele>1513.3</ele>
        <time>2013-07-31T10:10:51Z</time>
      </trkpt>
      <trkpt lat="42.618617" lon="1.328309">
        <ele>1513.3</ele>
        <time>2013-07-31T10:11:01Z</time>
      </trkpt>
      <trkpt lat="42.618662" lon="1.328356">
        <ele>1513.9</ele>
        <time>2013-07-31T10:11:15Z</time>
      </trkpt>
      <trkpt lat="42.618743" lon="1.328442">
        <ele>1515.0</ele>
        <time>2013-07-31T10:11:28Z</time>
      </trkpt>
      <trkpt lat="42.618961" lon="1.328654">
        <ele>1517.8</ele>
        <time>2013-07-31T10:11:43Z</time>
      </trkpt>
      <trkpt lat="42.619058" lon="1.328796">
        <ele>1520.2</ele>
        <time>2013-07-31T10:11:56Z</time>
      </trkpt>
      <trkpt lat="42.619035" lon="1.328963">
        <ele>1523.0</ele>
        <time>2013-07-31T10:12:09Z</time>
      </trkpt>
      <trkpt lat="42.618981" lon="1.329014">
        <ele>1524.3</ele>
        <time>2013-07-31T10:12:21Z</time>
      </trkpt>
      <trkpt lat="42.618967" lon="1.329095">
        <ele>1526.2</ele>
        <time>2013-07-31T10:12:34Z</time>
      </trkpt>
      <trkpt lat="42.618956" lon="1.329151">
        <ele>1527.4</ele>
        <time>2013-07-31T10:12:49Z</time>
      </trkpt>
      <trkpt lat="42.618923" lon="1.329182">
        <ele>1528.0</ele>
        <time>2013-07-31T10:12:59Z</time>
      </trkpt>
      <trkpt lat="42.618850" lon="1.329227">
        <ele>1529.3</ele>
        <time>2013-07-31T10:13:15Z</time>
      </trkpt>
      <trkpt lat="42.618767" lon="1.329360">
        <ele>1532.3</ele>
        <time>2013-07-31T10:13:30Z</time>
      </trkpt>
      <trkpt lat="42.618712" lon="1.329442">
        <ele>1534.3</ele>
        <time>2013-07-31T10:13:43Z</time>
      </trkpt>
      <trkpt lat="42.618715" lon="1.329529">
        <ele>1536.1</ele>
        <time>2013-07-31T10:13:58Z</time>
      </trkpt>
      <trkpt lat="42.618714" lon="1.329709">
        <ele>1539.9</ele>
        <time>2013-07-31T10:14:13Z</time>
      </trkpt>
      <trkpt lat="42.618674" lon="1.329803">
        <ele>1542.8</ele>
        <time>2013-07-31T10:14:24Z</time>
      </trkpt>
      <trkpt lat="42.618651" lon="1.329821">
        <ele>1543.5</ele>
        <time>2013-07-31T10:14:36Z</time>
      </trkpt>
      <trkpt lat="42.618568" lon="1.329899">
        <ele>1546.5</ele>
        <time>2013-07-31T10:14:51Z</time>
      </trkpt>
      <trkpt lat="42.618582" lon="1.330034">
        <ele>1549.2</ele>
        <time>2013-07-31T10:15:05Z</time>
      </trkpt>
      <trkpt lat="42.618535" lon="1.330145">
        <ele>1552.1</ele>
        <time>2013-07-31T10:15:18Z</time>
      </trkpt>
      <trkpt lat="42.618541" lon="1.330216">
        <ele>1553.4</ele>
        <time>2013-07-31T10:15:29Z</time>
      </trkpt>
      <trkpt lat="42.618563" lon="1.330271">
        <ele>1554.1</ele>
        <time>2013-07-31T10:15:44Z</time>
      </trkpt>
      <trkpt lat="42.618601" lon="1.330355">
        <ele>1554.7</ele>
        <time>2013-07-31T10:15:57Z</time>
      </trkpt>
      <trkpt lat="42.618613" lon="1.330386">
        <ele>1554.9</ele>
        <time>2013-07-31T10:16:09Z</time>
      </trkpt>
      <trkpt lat="42.618613" lon="1.330386">
        <ele>1554.9</ele>
        <time>2013-07-31T10:16:34Z</time>
      </trkpt>
      <trkpt lat="42.618634" lon="1.330423">
        <ele>1555.2</ele>
        <time>2013-07-31T10:17:05Z</time>
      </trkpt>
      <trkpt lat="42.618722" lon="1.330546">
        <ele>1556.4</ele>
        <time>2013-07-31T10:17:16Z</time>
      </trkpt>
      <trkpt lat="42.618753" lon="1.330703">
        <ele>1558.7</ele>
        <time>2013-07-31T10:17:26Z</time>
      </trkpt>
      <trkpt lat="42.618757" lon="1.330782">
        <ele>1560.8</ele>
        <time>2013-07-31T10:17:38Z</time>
      </trkpt>
      <trkpt lat="42.618733" lon="1.330891">
        <ele>1563.3</ele>
        <time>2013-07-31T10:17:52Z</time>
      </trkpt>
      <trkpt lat="42.618700" lon="1.330960">
        <ele>1565.3</ele>
        <time>2013-07-31T10:18:05Z</time>
      </trkpt>
      <trkpt lat="42.618704" lon="1.330965">
        <ele>1565.3</ele>
        <time>2013-07-31T10:18:21Z</time>
      </trkpt>
      <trkpt lat="42.618677" lon="1.330969">
        <ele>1565.9</ele>
        <time>2013-07-31T10:18:44Z</time>
      </trkpt>
      <trkpt lat="42.618640" lon="1.331064">
        <ele>1568.5</ele>
        <time>2013-07-31T10:18:57Z</time>
      </trkpt>
      <trkpt lat="42.618634" lon="1.331173">
        <ele>1570.3</ele>
        <time>2013-07-31T10:19:07Z</time>
      </trkpt>
      <trkpt lat="42.618638" lon="1.331270">
        <ele>1572.4</ele>
        <time>2013-07-31T10:19:19Z</time>
      </trkpt>
      <trkpt lat="42.618675" lon="1.331393">
        <ele>1574.0</ele>
        <time>2013-07-31T10:19:31Z</time>
      </trkpt>
      <trkpt lat="42.618776" lon="1.331514">
        <ele>1575.0</ele>
        <time>2013-07-31T10:19:43Z</time>
      </trkpt>
      <trkpt lat="42.618859" lon="1.331602">
        <ele>1576.0</ele>
        <time>2013-07-31T10:19:52Z</time>
      </trkpt>
      <trkpt lat="42.618968" lon="1.331725">
        <ele>1577.1</ele>
        <time>2013-07-31T10:20:04Z</time>
      </trkpt>
      <trkpt lat="42.618977" lon="1.331739">
        <ele>1577.1</ele>
        <time>2013-07-31T10:20:06Z</time>
      </trkpt>
      <trkpt lat="42.619036" lon="1.331821">
        <ele>1577.4</ele>
        <time>2013-07-31T10:20:12Z</time>
      </trkpt>
      <trkpt lat="42.619136" lon="1.331909">
        <ele>1576.6</ele>
        <time>2013-07-31T10:20:21Z</time>
      </trkpt>
      <trkpt lat="42.619165" lon="1.332021">
        <ele>1577.4</ele>
        <time>2013-07-31T10:20:30Z</time>
      </trkpt>
      <trkpt lat="42.619190" lon="1.332142">
        <ele>1577.4</ele>
        <time>2013-07-31T10:20:41Z</time>
      </trkpt>
      <trkpt lat="42.619191" lon="1.332145">
        <ele>1577.5</ele>
        <time>2013-07-31T10:21:02Z</time>
      </trkpt>
      <trkpt lat="42.619193" lon="1.332166">
        <ele>1577.7</ele>
        <time>2013-07-31T10:21:34Z</time>
      </trkpt>
      <trkpt lat="42.619192" lon="1.332232">
        <ele>1578.2</ele>
        <time>2013-07-31T10:21:39Z</time>
      </trkpt>
      <trkpt lat="42.619181" lon="1.332327">
        <ele>1579.2</ele>
        <time>2013-07-31T10:21:47Z</time>
      </trkpt>
      <trkpt lat="42.619181" lon="1.332355">
        <ele>1579.5</ele>
        <time>2013-07-31T10:21:49Z</time>
      </trkpt>
      <trkpt lat="42.619178" lon="1.332499">
        <ele>1580.1</ele>
        <time>2013-07-31T10:21:58Z</time>
      </trkpt>
      <trkpt lat="42.619180" lon="1.332537">
        <ele>1580.3</ele>
        <time>2013-07-31T10:22:00Z</time>
      </trkpt>
      <trkpt lat="42.619194" lon="1.332751">
        <ele>1581.7</ele>
        <time>2013-07-31T10:22:13Z</time>
      </trkpt>
      <trkpt lat="42.619202" lon="1.332847">
        <ele>1581.8</ele>
        <time>2013-07-31T10:22:20Z</time>
      </trkpt>
      <trkpt lat="42.619204" lon="1.332888">
        <ele>1582.0</ele>
        <time>2013-07-31T10:22:23Z</time>
      </trkpt>
      <trkpt lat="42.619204" lon="1.332920">
        <ele>1582.2</ele>
        <time>2013-07-31T10:22:25Z</time>
      </trkpt>
      <trkpt lat="42.619198" lon="1.333147">
        <ele>1583.3</ele>
        <time>2013-07-31T10:22:38Z</time>
      </trkpt>
      <trkpt lat="42.619222" lon="1.333327">
        <ele>1583.7</ele>
        <time>2013-07-31T10:22:49Z</time>
      </trkpt>
      <trkpt lat="42.619233" lon="1.333525">
        <ele>1584.3</ele>
        <time>2013-07-31T10:23:01Z</time>
      </trkpt>
      <trkpt lat="42.619283" lon="1.333735">
        <ele>1584.5</ele>
        <time>2013-07-31T10:23:14Z</time>
      </trkpt>
      <trkpt lat="42.619299" lon="1.333877">
        <ele>1585.1</ele>
        <time>2013-07-31T10:23:25Z</time>
      </trkpt>
      <trkpt lat="42.619324" lon="1.334035">
        <ele>1585.1</ele>
        <time>2013-07-31T10:23:38Z</time>
      </trkpt>
      <trkpt lat="42.619341" lon="1.334129">
        <ele>1585.3</ele>
        <time>2013-07-31T10:23:46Z</time>
      </trkpt>
      <trkpt lat="42.619343" lon="1.334273">
        <ele>1585.5</ele>
        <time>2013-07-31T10:23:58Z</time>
      </trkpt>
      <trkpt lat="42.619347" lon="1.334296">
        <ele>1585.4</ele>
        <time>2013-07-31T10:24:01Z</time>
      </trkpt>
      <trkpt lat="42.619358" lon="1.334408">
        <ele>1586.0</ele>
        <time>2013-07-31T10:24:08Z</time>
      </trkpt>
      <trkpt lat="42.619351" lon="1.334558">
        <ele>1587.8</ele>
        <time>2013-07-31T10:24:20Z</time>
      </trkpt>
      <trkpt lat="42.619355" lon="1.334629">
        <ele>1588.5</ele>
        <time>2013-07-31T10:24:29Z</time>
      </trkpt>
      <trkpt lat="42.619357" lon="1.334644">
        <ele>1588.6</ele>
        <time>2013-07-31T10:24:30Z</time>
      </trkpt>
      <trkpt lat="42.619370" lon="1.334723">
        <ele>1589.2</ele>
        <time>2013-07-31T10:24:35Z</time>
      </trkpt>
      <trkpt lat="42.619425" lon="1.334867">
        <ele>1590.3</ele>
        <time>2013-07-31T10:24:47Z</time>
      </trkpt>
      <trkpt lat="42.619431" lon="1.334897">
        <ele>1590.7</ele>
        <time>2013-07-31T10:24:58Z</time>
      </trkpt>
      <trkpt lat="42.619436" lon="1.335041">
        <ele>1592.1</ele>
        <time>2013-07-31T10:25:08Z</time>
      </trkpt>
      <trkpt lat="42.619486" lon="1.335228">
        <ele>1593.5</ele>
        <time>2013-07-31T10:25:21Z</time>
      </trkpt>
      <trkpt lat="42.619531" lon="1.335373">
        <ele>1594.2</ele>
        <time>2013-07-31T10:25:34Z</time>
      </trkpt>
      <trkpt lat="42.619552" lon="1.335526">
        <ele>1597.1</ele>
        <time>2013-07-31T10:25:44Z</time>
      </trkpt>
      <trkpt lat="42.619577" lon="1.335592">
        <ele>1597.5</ele>
        <time>2013-07-31T10:25:50Z</time>
      </trkpt>
      <trkpt lat="42.619604" lon="1.335741">
        <ele>1599.2</ele>
        <time>2013-07-31T10:26:02Z</time>
      </trkpt>
      <trkpt lat="42.619616" lon="1.335927">
        <ele>1601.7</ele>
        <time>2013-07-31T10:26:15Z</time>
      </trkpt>
      <trkpt lat="42.619651" lon="1.336006">
        <ele>1602.1</ele>
        <time>2013-07-31T10:26:22Z</time>
      </trkpt>
      <trkpt lat="42.619664" lon="1.336082">
        <ele>1602.9</ele>
        <time>2013-07-31T10:26:25Z</time>
      </trkpt>
      <trkpt lat="42.619772" lon="1.336255">
        <ele>1604.0</ele>
        <time>2013-07-31T10:26:41Z</time>
      </trkpt>
      <trkpt lat="42.619866" lon="1.336451">
        <ele>1606.3</ele>
        <time>2013-07-31T10:26:54Z</time>
      </trkpt>
      <trkpt lat="42.619914" lon="1.336523">
        <ele>1606.1</ele>
        <time>2013-07-31T10:27:04Z</time>
      </trkpt>
      <trkpt lat="42.619992" lon="1.336676">
        <ele>1606.0</ele>
        <time>2013-07-31T10:27:14Z</time>
      </trkpt>
      <trkpt lat="42.620062" lon="1.336844">
        <ele>1607.0</ele>
        <time>2013-07-31T10:27:26Z</time>
      </trkpt>
      <trkpt lat="42.620131" lon="1.336982">
        <ele>1608.1</ele>
        <time>2013-07-31T10:27:38Z</time>
      </trkpt>
      <trkpt lat="42.620128" lon="1.337081">
        <ele>1609.2</ele>
        <time>2013-07-31T10:27:48Z</time>
      </trkpt>
      <trkpt lat="42.620120" lon="1.337211">
        <ele>1610.4</ele>
        <time>2013-07-31T10:27:53Z</time>
      </trkpt>
      <trkpt lat="42.620141" lon="1.337393">
        <ele>1611.7</ele>
        <time>2013-07-31T10:28:05Z</time>
      </trkpt>
      <trkpt lat="42.620195" lon="1.337576">
        <ele>1614.1</ele>
        <time>2013-07-31T10:28:20Z</time>
      </trkpt>
      <trkpt lat="42.620199" lon="1.337732">
        <ele>1615.8</ele>
        <time>2013-07-31T10:28:34Z</time>
      </trkpt>
      <trkpt lat="42.620171" lon="1.337903">
        <ele>1618.3</ele>
        <time>2013-07-31T10:28:47Z</time>
      </trkpt>
      <trkpt lat="42.620196" lon="1.338068">
        <ele>1620.5</ele>
        <time>2013-07-31T10:29:00Z</time>
      </trkpt>
      <trkpt lat="42.620218" lon="1.338243">
        <ele>1622.2</ele>
        <time>2013-07-31T10:29:14Z</time>
      </trkpt>
      <trkpt lat="42.620227" lon="1.338423">
        <ele>1623.9</ele>
        <time>2013-07-31T10:29:29Z</time>
      </trkpt>
      <trkpt lat="42.620223" lon="1.338577">
        <ele>1625.4</ele>
        <time>2013-07-31T10:29:43Z</time>
      </trkpt>
      <trkpt lat="42.620218" lon="1.338759">
        <ele>1627.2</ele>
        <time>2013-07-31T10:29:53Z</time>
      </trkpt>
      <trkpt lat="42.620161" lon="1.338795">
        <ele>1628.1</ele>
        <time>2013-07-31T10:30:02Z</time>
      </trkpt>
      <trkpt lat="42.620092" lon="1.338756">
        <ele>1629.2</ele>
        <time>2013-07-31T10:30:15Z</time>
      </trkpt>
      <trkpt lat="42.620089" lon="1.338881">
        <ele>1631.2</ele>
        <time>2013-07-31T10:30:26Z</time>
      </trkpt>
      <trkpt lat="42.620090" lon="1.339040">
        <ele>1633.0</ele>
        <time>2013-07-31T10:30:37Z</time>
      </trkpt>
      <trkpt lat="42.620062" lon="1.339148">
        <ele>1634.2</ele>
        <time>2013-07-31T10:30:48Z</time>
      </trkpt>
      <trkpt lat="42.620063" lon="1.339266">
        <ele>1635.2</ele>
        <time>2013-07-31T10:30:59Z</time>
      </trkpt>
      <trkpt lat="42.620077" lon="1.339364">
        <ele>1636.0</ele>
        <time>2013-07-31T10:31:09Z</time>
      </trkpt>
      <trkpt lat="42.620085" lon="1.339513">
        <ele>1637.2</ele>
        <time>2013-07-31T10:31:21Z</time>
      </trkpt>
      <trkpt lat="42.620106" lon="1.339550">
        <ele>1636.9</ele>
        <time>2013-07-31T10:31:27Z</time>
      </trkpt>
      <trkpt lat="42.620146" lon="1.339646">
        <ele>1636.6</ele>
        <time>2013-07-31T10:31:40Z</time>
      </trkpt>
      <trkpt lat="42.620182" lon="1.339703">
        <ele>1636.4</ele>
        <time>2013-07-31T10:31:47Z</time>
      </trkpt>
      <trkpt lat="42.620211" lon="1.339835">
        <ele>1638.1</ele>
        <time>2013-07-31T10:31:59Z</time>
      </trkpt>
      <trkpt lat="42.620264" lon="1.339966">
        <ele>1639.9</ele>
        <time>2013-07-31T10:32:12Z</time>
      </trkpt>
      <trkpt lat="42.620317" lon="1.340060">
        <ele>1640.5</ele>
        <time>2013-07-31T10:32:22Z</time>
      </trkpt>
      <trkpt lat="42.620317" lon="1.340181">
        <ele>1641.9</ele>
        <time>2013-07-31T10:32:33Z</time>
      </trkpt>
      <trkpt lat="42.620317" lon="1.340227">
        <ele>1642.5</ele>
        <time>2013-07-31T10:32:44Z</time>
      </trkpt>
      <trkpt lat="42.620315" lon="1.340233">
        <ele>1642.6</ele>
        <time>2013-07-31T10:32:57Z</time>
      </trkpt>
      <trkpt lat="42.620317" lon="1.340227">
        <ele>1642.5</ele>
        <time>2013-07-31T10:33:11Z</time>
      </trkpt>
      <trkpt lat="42.620321" lon="1.340252">
        <ele>1642.9</ele>
        <time>2013-07-31T10:33:21Z</time>
      </trkpt>
      <trkpt lat="42.620321" lon="1.340252">
        <ele>1642.9</ele>
        <time>2013-07-31T10:33:36Z</time>
      </trkpt>
      <trkpt lat="42.620321" lon="1.340252">
        <ele>1642.9</ele>
        <time>2013-07-31T10:33:48Z</time>
      </trkpt>
      <trkpt lat="42.620324" lon="1.340318">
        <ele>1643.9</ele>
        <time>2013-07-31T10:34:00Z</time>
      </trkpt>
      <trkpt lat="42.620337" lon="1.340354">
        <ele>1644.5</ele>
        <time>2013-07-31T10:34:14Z</time>
      </trkpt>
      <trkpt lat="42.620337" lon="1.340350">
        <ele>1644.4</ele>
        <time>2013-07-31T10:34:26Z</time>
      </trkpt>
      <trkpt lat="42.620337" lon="1.340350">
        <ele>1644.4</ele>
        <time>2013-07-31T10:34:40Z</time>
      </trkpt>
      <trkpt lat="42.620360" lon="1.340449">
        <ele>1645.8</ele>
        <time>2013-07-31T10:34:53Z</time>
      </trkpt>
      <trkpt lat="42.620364" lon="1.340465">
        <ele>1646.1</ele>
        <time>2013-07-31T10:35:06Z</time>
      </trkpt>
      <trkpt lat="42.620376" lon="1.340496">
        <ele>1646.5</ele>
        <time>2013-07-31T10:35:18Z</time>
      </trkpt>
      <trkpt lat="42.620406" lon="1.340588">
        <ele>1648.1</ele>
        <time>2013-07-31T10:35:30Z</time>
      </trkpt>
      <trkpt lat="42.620427" lon="1.340653">
        <ele>1649.5</ele>
        <time>2013-07-31T10:35:34Z</time>
      </trkpt>
      <trkpt lat="42.620626" lon="1.341088">
        <ele>1659.8</ele>
        <time>2013-07-31T10:35:46Z</time>
      </trkpt>
      <trkpt lat="42.620710" lon="1.341346">
        <ele>1666.3</ele>
        <time>2013-07-31T10:35:59Z</time>
      </trkpt>
      <trkpt lat="42.620701" lon="1.341457">
        <ele>1669.6</ele>
        <time>2013-07-31T10:36:10Z</time>
      </trkpt>
      <trkpt lat="42.620725" lon="1.341573">
        <ele>1672.2</ele>
        <time>2013-07-31T10:36:22Z</time>
      </trkpt>
      <trkpt lat="42.620742" lon="1.341675">
        <ele>1675.0</ele>
        <time>2013-07-31T10:36:31Z</time>
      </trkpt>
      <trkpt lat="42.620746" lon="1.341801">
        <ele>1678.6</ele>
        <time>2013-07-31T10:36:43Z</time>
      </trkpt>
      <trkpt lat="42.620760" lon="1.341927">
        <ele>1681.2</ele>
        <time>2013-07-31T10:36:53Z</time>
      </trkpt>
      <trkpt lat="42.620756" lon="1.342022">
        <ele>1683.2</ele>
        <time>2013-07-31T10:37:04Z</time>
      </trkpt>
      <trkpt lat="42.620756" lon="1.342022">
        <ele>1683.2</ele>
        <time>2013-07-31T10:37:05Z</time>
      </trkpt>
      <trkpt lat="42.620796" lon="1.342107">
        <ele>1683.7</ele>
        <time>2013-07-31T10:37:12Z</time>
      </trkpt>
      <trkpt lat="42.620806" lon="1.342140">
        <ele>1684.3</ele>
        <time>2013-07-31T10:37:14Z</time>
      </trkpt>
      <trkpt lat="42.620824" lon="1.342205">
        <ele>1685.5</ele>
        <time>2013-07-31T10:37:18Z</time>
      </trkpt>
      <trkpt lat="42.620868" lon="1.342344">
        <ele>1686.8</ele>
        <time>2013-07-31T10:37:31Z</time>
      </trkpt>
      <trkpt lat="42.620858" lon="1.342511">
        <ele>1689.3</ele>
        <time>2013-07-31T10:37:41Z</time>
      </trkpt>
      <trkpt lat="42.620879" lon="1.342676">
        <ele>1692.4</ele>
        <time>2013-07-31T10:37:54Z</time>
      </trkpt>
      <trkpt lat="42.620885" lon="1.342794">
        <ele>1694.3</ele>
        <time>2013-07-31T10:38:05Z</time>
      </trkpt>
      <trkpt lat="42.620909" lon="1.342888">
        <ele>1695.9</ele>
        <time>2013-07-31T10:38:15Z</time>
      </trkpt>
      <trkpt lat="42.620966" lon="1.342987">
        <ele>1696.1</ele>
        <time>2013-07-31T10:38:26Z</time>
      </trkpt>
      <trkpt lat="42.620985" lon="1.342996">
        <ele>1695.9</ele>
        <time>2013-07-31T10:38:28Z</time>
      </trkpt>
      <trkpt lat="42.621006" lon="1.343025">
        <ele>1695.8</ele>
        <time>2013-07-31T10:38:33Z</time>
      </trkpt>
      <trkpt lat="42.621014" lon="1.343182">
        <ele>1696.0</ele>
        <time>2013-07-31T10:38:46Z</time>
      </trkpt>
      <trkpt lat="42.621015" lon="1.343193">
        <ele>1695.9</ele>
        <time>2013-07-31T10:39:02Z</time>
      </trkpt>
      <trkpt lat="42.620983" lon="1.343430">
        <ele>1695.2</ele>
        <time>2013-07-31T10:39:15Z</time>
      </trkpt>
      <trkpt lat="42.621013" lon="1.343916">
        <ele>1692.9</ele>
        <time>2013-07-31T10:40:29Z</time>
      </trkpt>
      <trkpt lat="42.621047" lon="1.344102">
        <ele>1692.4</ele>
        <time>2013-07-31T10:40:41Z</time>
      </trkpt>
      <trkpt lat="42.621081" lon="1.344216">
        <ele>1692.3</ele>
        <time>2013-07-31T10:40:47Z</time>
      </trkpt>
      <trkpt lat="42.621093" lon="1.344283">
        <ele>1692.1</ele>
        <time>2013-07-31T10:41:02Z</time>
      </trkpt>
      <trkpt lat="42.621093" lon="1.344283">
        <ele>1692.1</ele>
        <time>2013-07-31T10:41:05Z</time>
      </trkpt>
      <trkpt lat="42.621099" lon="1.344294">
        <ele>1692.1</ele>
        <time>2013-07-31T10:41:07Z</time>
      </trkpt>
      <trkpt lat="42.621211" lon="1.344463">
        <ele>1691.9</ele>
        <time>2013-07-31T10:41:21Z</time>
      </trkpt>
      <trkpt lat="42.621295" lon="1.344603">
        <ele>1691.4</ele>
        <time>2013-07-31T10:41:33Z</time>
      </trkpt>
      <trkpt lat="42.621354" lon="1.344799">
        <ele>1690.6</ele>
        <time>2013-07-31T10:41:46Z</time>
      </trkpt>
      <trkpt lat="42.621395" lon="1.345036">
        <ele>1688.6</ele>
        <time>2013-07-31T10:42:01Z</time>
      </trkpt>
      <trkpt lat="42.621437" lon="1.345159">
        <ele>1686.7</ele>
        <time>2013-07-31T10:42:15Z</time>
      </trkpt>
      <trkpt lat="42.621514" lon="1.345293">
        <ele>1685.1</ele>
        <time>2013-07-31T10:42:29Z</time>
      </trkpt>
      <trkpt lat="42.621594" lon="1.345444">
        <ele>1683.7</ele>
        <time>2013-07-31T10:42:40Z</time>
      </trkpt>
      <trkpt lat="42.621615" lon="1.345474">
        <ele>1683.2</ele>
        <time>2013-07-31T10:42:42Z</time>
      </trkpt>
      <trkpt lat="42.621653" lon="1.345509">
        <ele>1682.8</ele>
        <time>2013-07-31T10:42:45Z</time>
      </trkpt>
      <trkpt lat="42.621718" lon="1.345682">
        <ele>1681.7</ele>
        <time>2013-07-31T10:42:56Z</time>
      </trkpt>
      <trkpt lat="42.621753" lon="1.345775">
        <ele>1681.6</ele>
        <time>2013-07-31T10:43:01Z</time>
      </trkpt>
      <trkpt lat="42.621838" lon="1.345976">
        <ele>1680.4</ele>
        <time>2013-07-31T10:43:13Z</time>
      </trkpt>
      <trkpt lat="42.621913" lon="1.346194">
        <ele>1680.5</ele>
        <time>2013-07-31T10:43:27Z</time>
      </trkpt>
      <trkpt lat="42.621921" lon="1.346263">
        <ele>1680.8</ele>
        <time>2013-07-31T10:43:42Z</time>
      </trkpt>
      <trkpt lat="42.621922" lon="1.346290">
        <ele>1680.8</ele>
        <time>2013-07-31T10:43:53Z</time>
      </trkpt>
      <trkpt lat="42.621927" lon="1.346471">
        <ele>1680.5</ele>
        <time>2013-07-31T10:44:06Z</time>
      </trkpt>
      <trkpt lat="42.621971" lon="1.346618">
        <ele>1679.7</ele>
        <time>2013-07-31T10:44:17Z</time>
      </trkpt>
      <trkpt lat="42.621963" lon="1.346795">
        <ele>1679.5</ele>
        <time>2013-07-31T10:44:28Z</time>
      </trkpt>
      <trkpt lat="42.621969" lon="1.347055">
        <ele>1678.7</ele>
        <time>2013-07-31T10:44:42Z</time>
      </trkpt>
      <trkpt lat="42.621973" lon="1.347168">
        <ele>1678.3</ele>
        <time>2013-07-31T10:44:51Z</time>
      </trkpt>
      <trkpt lat="42.621963" lon="1.347387">
        <ele>1679.6</ele>
        <time>2013-07-31T10:45:03Z</time>
      </trkpt>
      <trkpt lat="42.621938" lon="1.347550">
        <ele>1681.3</ele>
        <time>2013-07-31T10:45:13Z</time>
      </trkpt>
      <trkpt lat="42.621880" lon="1.347853">
        <ele>1681.3</ele>
        <time>2013-07-31T10:45:28Z</time>
      </trkpt>
      <trkpt lat="42.621877" lon="1.347870">
        <ele>1681.1</ele>
        <time>2013-07-31T10:45:29Z</time>
      </trkpt>
      <trkpt lat="42.621871" lon="1.347915">
        <ele>1680.4</ele>
        <time>2013-07-31T10:45:33Z</time>
      </trkpt>
      <trkpt lat="42.621821" lon="1.348034">
        <ele>1679.6</ele>
        <time>2013-07-31T10:45:46Z</time>
      </trkpt>
      <trkpt lat="42.621813" lon="1.348205">
        <ele>1676.3</ele>
        <time>2013-07-31T10:45:58Z</time>
      </trkpt>
      <trkpt lat="42.621819" lon="1.348268">
        <ele>1675.2</ele>
        <time>2013-07-31T10:46:01Z</time>
      </trkpt>
      <trkpt lat="42.621836" lon="1.348495">
        <ele>1677.1</ele>
        <time>2013-07-31T10:46:14Z</time>
      </trkpt>
      <trkpt lat="42.621834" lon="1.348551">
        <ele>1677.2</ele>
        <time>2013-07-31T10:46:17Z</time>
      </trkpt>
      <trkpt lat="42.621785" lon="1.348791">
        <ele>1679.6</ele>
        <time>2013-07-31T10:46:31Z</time>
      </trkpt>
      <trkpt lat="42.621707" lon="1.348966">
        <ele>1680.6</ele>
        <time>2013-07-31T10:46:44Z</time>
      </trkpt>
      <trkpt lat="42.621694" lon="1.349077">
        <ele>1680.0</ele>
        <time>2013-07-31T10:46:51Z</time>
      </trkpt>
      <trkpt lat="42.621726" lon="1.349205">
        <ele>1678.7</ele>
        <time>2013-07-31T10:47:02Z</time>
      </trkpt>
      <trkpt lat="42.621692" lon="1.349349">
        <ele>1680.8</ele>
        <time>2013-07-31T10:47:11Z</time>
      </trkpt>
      <trkpt lat="42.621650" lon="1.349497">
        <ele>1683.1</ele>
        <time>2013-07-31T10:47:20Z</time>
      </trkpt>
      <trkpt lat="42.621617" lon="1.349649">
        <ele>1682.9</ele>
        <time>2013-07-31T10:47:32Z</time>
      </trkpt>
      <trkpt lat="42.621633" lon="1.349867">
        <ele>1679.9</ele>
        <time>2013-07-31T10:47:44Z</time>
      </trkpt>
      <trkpt lat="42.621633" lon="1.350147">
        <ele>1682.4</ele>
        <time>2013-07-31T10:47:58Z</time>
      </trkpt>
      <trkpt lat="42.621657" lon="1.350359">
        <ele>1683.2</ele>
        <time>2013-07-31T10:48:13Z</time>
      </trkpt>
      <trkpt lat="42.621708" lon="1.350505">
        <ele>1682.4</ele>
        <time>2013-07-31T10:48:26Z</time>
      </trkpt>
      <trkpt lat="42.621752" lon="1.350622">
        <ele>1683.1</ele>
        <time>2013-07-31T10:48:37Z</time>
      </trkpt>
      <trkpt lat="42.621813" lon="1.350765">
        <ele>1683.9</ele>
        <time>2013-07-31T10:48:51Z</time>
      </trkpt>
      <trkpt lat="42.621842" lon="1.350855">
        <ele>1684.8</ele>
        <time>2013-07-31T10:49:02Z</time>
      </trkpt>
      <trkpt lat="42.621874" lon="1.350899">
        <ele>1684.3</ele>
        <time>2013-07-31T10:49:10Z</time>
      </trkpt>
      <trkpt lat="42.621914" lon="1.351060">
        <ele>1686.0</ele>
        <time>2013-07-31T10:49:21Z</time>
      </trkpt>
      <trkpt lat="42.621959" lon="1.351237">
        <ele>1687.7</ele>
        <time>2013-07-31T10:49:33Z</time>
      </trkpt>
      <trkpt lat="42.622002" lon="1.351335">
        <ele>1687.1</ele>
        <time>2013-07-31T10:49:44Z</time>
      </trkpt>
      <trkpt lat="42.622038" lon="1.351400">
        <ele>1687.1</ele>
        <time>2013-07-31T10:49:56Z</time>
      </trkpt>
      <trkpt lat="42.622084" lon="1.351479">
        <ele>1687.5</ele>
        <time>2013-07-31T10:50:08Z</time>
      </trkpt>
      <trkpt lat="42.622115" lon="1.351539">
        <ele>1688.0</ele>
        <time>2013-07-31T10:50:11Z</time>
      </trkpt>
      <trkpt lat="42.622140" lon="1.351628">
        <ele>1689.0</ele>
        <time>2013-07-31T10:50:25Z</time>
      </trkpt>
      <trkpt lat="42.622149" lon="1.351661">
        <ele>1689.3</ele>
        <time>2013-07-31T10:50:41Z</time>
      </trkpt>
      <trkpt lat="42.622219" lon="1.351770">
        <ele>1689.8</ele>
        <time>2013-07-31T10:50:53Z</time>
      </trkpt>
      <trkpt lat="42.622239" lon="1.351778">
        <ele>1689.9</ele>
        <time>2013-07-31T10:51:06Z</time>
      </trkpt>
      <trkpt lat="42.622241" lon="1.351779">
        <ele>1689.9</ele>
        <time>2013-07-31T10:51:21Z</time>
      </trkpt>
      <trkpt lat="42.622530" lon="1.352466">
        <ele>1702.6</ele>
        <time>2013-07-31T10:51:43Z</time>
      </trkpt>
      <trkpt lat="42.622670" lon="1.352540">
        <ele>1704.8</ele>
        <time>2013-07-31T12:09:32Z</time>
      </trkpt>
      <trkpt lat="42.622732" lon="1.352629">
        <ele>1706.0</ele>
        <time>2013-07-31T12:09:42Z</time>
      </trkpt>
      <trkpt lat="42.622829" lon="1.352773">
        <ele>1706.3</ele>
        <time>2013-07-31T12:09:55Z</time>
      </trkpt>
      <trkpt lat="42.622852" lon="1.352945">
        <ele>1707.0</ele>
        <time>2013-07-31T12:10:10Z</time>
      </trkpt>
      <trkpt lat="42.622864" lon="1.353126">
        <ele>1707.9</ele>
        <time>2013-07-31T12:10:26Z</time>
      </trkpt>
      <trkpt lat="42.622864" lon="1.353142">
        <ele>1708.0</ele>
        <time>2013-07-31T12:10:27Z</time>
      </trkpt>
      <trkpt lat="42.622927" lon="1.353362">
        <ele>1707.6</ele>
        <time>2013-07-31T12:10:41Z</time>
      </trkpt>
      <trkpt lat="42.622950" lon="1.353499">
        <ele>1709.8</ele>
        <time>2013-07-31T12:10:55Z</time>
      </trkpt>
      <trkpt lat="42.623006" lon="1.353603">
        <ele>1711.4</ele>
        <time>2013-07-31T12:11:09Z</time>
      </trkpt>
      <trkpt lat="42.623102" lon="1.353733">
        <ele>1712.5</ele>
        <time>2013-07-31T12:11:21Z</time>
      </trkpt>
      <trkpt lat="42.623240" lon="1.353831">
        <ele>1712.2</ele>
        <time>2013-07-31T12:11:33Z</time>
      </trkpt>
      <trkpt lat="42.623270" lon="1.353951">
        <ele>1715.2</ele>
        <time>2013-07-31T12:11:44Z</time>
      </trkpt>
      <trkpt lat="42.623274" lon="1.353970">
        <ele>1715.8</ele>
        <time>2013-07-31T12:11:45Z</time>
      </trkpt>
      <trkpt lat="42.623327" lon="1.354090">
        <ele>1718.0</ele>
        <time>2013-07-31T12:11:58Z</time>
      </trkpt>
      <trkpt lat="42.623373" lon="1.354169">
        <ele>1720.2</ele>
        <time>2013-07-31T12:12:11Z</time>
      </trkpt>
      <trkpt lat="42.623445" lon="1.354265">
        <ele>1722.6</ele>
        <time>2013-07-31T12:12:24Z</time>
      </trkpt>
      <trkpt lat="42.623609" lon="1.354344">
        <ele>1721.5</ele>
        <time>2013-07-31T12:12:38Z</time>
      </trkpt>
      <trkpt lat="42.623701" lon="1.354458">
        <ele>1723.6</ele>
        <time>2013-07-31T12:12:52Z</time>
      </trkpt>
      <trkpt lat="42.623713" lon="1.354463">
        <ele>1723.6</ele>
        <time>2013-07-31T12:12:55Z</time>
      </trkpt>
      <trkpt lat="42.623826" lon="1.354456">
        <ele>1724.1</ele>
        <time>2013-07-31T12:13:04Z</time>
      </trkpt>
      <trkpt lat="42.623908" lon="1.354460">
        <ele>1725.8</ele>
        <time>2013-07-31T12:13:18Z</time>
      </trkpt>
      <trkpt lat="42.623971" lon="1.354488">
        <ele>1728.5</ele>
        <time>2013-07-31T12:13:30Z</time>
      </trkpt>
      <trkpt lat="42.624032" lon="1.354483">
        <ele>1730.0</ele>
        <time>2013-07-31T12:13:40Z</time>
      </trkpt>
      <trkpt lat="42.624062" lon="1.354527">
        <ele>1733.0</ele>
        <time>2013-07-31T12:13:51Z</time>
      </trkpt>
      <trkpt lat="42.624118" lon="1.354551">
        <ele>1735.0</ele>
        <time>2013-07-31T12:14:04Z</time>
      </trkpt>
      <trkpt lat="42.624133" lon="1.354580">
        <ele>1736.6</ele>
        <time>2013-07-31T12:14:17Z</time>
      </trkpt>
      <trkpt lat="42.624133" lon="1.354580">
        <ele>1736.6</ele>
        <time>2013-07-31T12:14:47Z</time>
      </trkpt>
      <trkpt lat="42.624138" lon="1.354601">
        <ele>1737.8</ele>
        <time>2013-07-31T12:15:13Z</time>
      </trkpt>
      <trkpt lat="42.624193" lon="1.354605">
        <ele>1737.8</ele>
        <time>2013-07-31T12:15:25Z</time>
      </trkpt>
      <trkpt lat="42.624231" lon="1.354609">
        <ele>1738.8</ele>
        <time>2013-07-31T12:15:39Z</time>
      </trkpt>
      <trkpt lat="42.624268" lon="1.354592">
        <ele>1739.4</ele>
        <time>2013-07-31T12:15:49Z</time>
      </trkpt>
      <trkpt lat="42.624309" lon="1.354555">
        <ele>1740.8</ele>
        <time>2013-07-31T12:15:56Z</time>
      </trkpt>
      <trkpt lat="42.624398" lon="1.354457">
        <ele>1742.4</ele>
        <time>2013-07-31T12:16:07Z</time>
      </trkpt>
      <trkpt lat="42.624446" lon="1.354586">
        <ele>1747.9</ele>
        <time>2013-07-31T12:16:21Z</time>
      </trkpt>
      <trkpt lat="42.624444" lon="1.354681">
        <ele>1751.6</ele>
        <time>2013-07-31T12:16:34Z</time>
      </trkpt>
      <trkpt lat="42.624486" lon="1.354712">
        <ele>1751.9</ele>
        <time>2013-07-31T12:16:48Z</time>
      </trkpt>
      <trkpt lat="42.624533" lon="1.354739">
        <ele>1752.3</ele>
        <time>2013-07-31T12:17:03Z</time>
      </trkpt>
      <trkpt lat="42.624514" lon="1.354702">
        <ele>1751.0</ele>
        <time>2013-07-31T12:17:13Z</time>
      </trkpt>
      <trkpt lat="42.624498" lon="1.354713">
        <ele>1751.7</ele>
        <time>2013-07-31T12:17:24Z</time>
      </trkpt>
      <trkpt lat="42.624427" lon="1.354795">
        <ele>1755.5</ele>
        <time>2013-07-31T12:17:37Z</time>
      </trkpt>
      <trkpt lat="42.624425" lon="1.354824">
        <ele>1756.7</ele>
        <time>2013-07-31T12:17:53Z</time>
      </trkpt>
      <trkpt lat="42.624421" lon="1.354887">
        <ele>1759.4</ele>
        <time>2013-07-31T12:18:06Z</time>
      </trkpt>
      <trkpt lat="42.624435" lon="1.354955">
        <ele>1762.0</ele>
        <time>2013-07-31T12:18:19Z</time>
      </trkpt>
      <trkpt lat="42.624482" lon="1.355007">
        <ele>1763.9</ele>
        <time>2013-07-31T12:18:34Z</time>
      </trkpt>
      <trkpt lat="42.624534" lon="1.355026">
        <ele>1764.2</ele>
        <time>2013-07-31T12:18:47Z</time>
      </trkpt>
      <trkpt lat="42.624556" lon="1.355071">
        <ele>1766.7</ele>
        <time>2013-07-31T12:18:59Z</time>
      </trkpt>
      <trkpt lat="42.624607" lon="1.355137">
        <ele>1769.0</ele>
        <time>2013-07-31T12:19:10Z</time>
      </trkpt>
      <trkpt lat="42.624667" lon="1.355223">
        <ele>1771.8</ele>
        <time>2013-07-31T12:19:23Z</time>
      </trkpt>
      <trkpt lat="42.624681" lon="1.355300">
        <ele>1774.5</ele>
        <time>2013-07-31T12:19:32Z</time>
      </trkpt>
      <trkpt lat="42.624708" lon="1.355355">
        <ele>1774.9</ele>
        <time>2013-07-31T12:19:37Z</time>
      </trkpt>
      <trkpt lat="42.624784" lon="1.355442">
        <ele>1772.7</ele>
        <time>2013-07-31T12:19:51Z</time>
      </trkpt>
      <trkpt lat="42.624823" lon="1.355529">
        <ele>1771.2</ele>
        <time>2013-07-31T12:20:04Z</time>
      </trkpt>
      <trkpt lat="42.624829" lon="1.355546">
        <ele>1770.9</ele>
        <time>2013-07-31T12:20:06Z</time>
      </trkpt>
      <trkpt lat="42.624926" lon="1.355728">
        <ele>1767.3</ele>
        <time>2013-07-31T12:20:19Z</time>
      </trkpt>
      <trkpt lat="42.624965" lon="1.355869">
        <ele>1766.9</ele>
        <time>2013-07-31T12:20:28Z</time>
      </trkpt>
      <trkpt lat="42.624956" lon="1.355948">
        <ele>1768.6</ele>
        <time>2013-07-31T12:20:34Z</time>
      </trkpt>
      <trkpt lat="42.624982" lon="1.356064">
        <ele>1767.5</ele>
        <time>2013-07-31T12:20:42Z</time>
      </trkpt>
      <trkpt lat="42.625010" lon="1.356259">
        <ele>1768.1</ele>
        <time>2013-07-31T12:20:56Z</time>
      </trkpt>
      <trkpt lat="42.625018" lon="1.356391">
        <ele>1769.0</ele>
        <time>2013-07-31T12:21:08Z</time>
      </trkpt>
      <trkpt lat="42.625022" lon="1.356518">
        <ele>1772.2</ele>
        <time>2013-07-31T12:21:21Z</time>
      </trkpt>
      <trkpt lat="42.625016" lon="1.356550">
        <ele>1773.6</ele>
        <time>2013-07-31T12:21:23Z</time>
      </trkpt>
      <trkpt lat="42.625041" lon="1.356673">
        <ele>1773.4</ele>
        <time>2013-07-31T12:21:34Z</time>
      </trkpt>
      <trkpt lat="42.625039" lon="1.356814">
        <ele>1777.2</ele>
        <time>2013-07-31T12:21:44Z</time>
      </trkpt>
      <trkpt lat="42.625100" lon="1.357017">
        <ele>1776.4</ele>
        <time>2013-07-31T12:21:56Z</time>
      </trkpt>
      <trkpt lat="42.625127" lon="1.357182">
        <ele>1776.7</ele>
        <time>2013-07-31T12:22:11Z</time>
      </trkpt>
      <trkpt lat="42.625150" lon="1.357216">
        <ele>1775.7</ele>
        <time>2013-07-31T12:22:15Z</time>
      </trkpt>
      <trkpt lat="42.625166" lon="1.357244">
        <ele>1775.0</ele>
        <time>2013-07-31T12:22:17Z</time>
      </trkpt>
      <trkpt lat="42.625183" lon="1.357254">
        <ele>1774.1</ele>
        <time>2013-07-31T12:22:19Z</time>
      </trkpt>
      <trkpt lat="42.625245" lon="1.357271">
        <ele>1771.8</ele>
        <time>2013-07-31T12:22:23Z</time>
      </trkpt>
      <trkpt lat="42.625392" lon="1.357317">
        <ele>1770.5</ele>
        <time>2013-07-31T12:22:36Z</time>
      </trkpt>
      <trkpt lat="42.625436" lon="1.357488">
        <ele>1773.8</ele>
        <time>2013-07-31T12:22:50Z</time>
      </trkpt>
      <trkpt lat="42.625441" lon="1.357550">
        <ele>1774.7</ele>
        <time>2013-07-31T12:22:58Z</time>
      </trkpt>
      <trkpt lat="42.625437" lon="1.357713">
        <ele>1776.6</ele>
        <time>2013-07-31T12:23:13Z</time>
      </trkpt>
      <trkpt lat="42.625464" lon="1.357845">
        <ele>1778.2</ele>
        <time>2013-07-31T12:23:26Z</time>
      </trkpt>
      <trkpt lat="42.625493" lon="1.357961">
        <ele>1780.5</ele>
        <time>2013-07-31T12:23:42Z</time>
      </trkpt>
      <trkpt lat="42.625538" lon="1.358084">
        <ele>1781.3</ele>
        <time>2013-07-31T12:23:55Z</time>
      </trkpt>
      <trkpt lat="42.625600" lon="1.358261">
        <ele>1782.4</ele>
        <time>2013-07-31T12:24:12Z</time>
      </trkpt>
      <trkpt lat="42.625616" lon="1.358282">
        <ele>1782.4</ele>
        <time>2013-07-31T12:24:14Z</time>
      </trkpt>
      <trkpt lat="42.625716" lon="1.358433">
        <ele>1783.4</ele>
        <time>2013-07-31T12:24:28Z</time>
      </trkpt>
      <trkpt lat="42.625756" lon="1.358475">
        <ele>1783.8</ele>
        <time>2013-07-31T12:24:33Z</time>
      </trkpt>
      <trkpt lat="42.625816" lon="1.358572">
        <ele>1785.5</ele>
        <time>2013-07-31T12:24:44Z</time>
      </trkpt>
      <trkpt lat="42.625915" lon="1.358712">
        <ele>1787.8</ele>
        <time>2013-07-31T12:25:00Z</time>
      </trkpt>
      <trkpt lat="42.626004" lon="1.358766">
        <ele>1788.0</ele>
        <time>2013-07-31T12:25:14Z</time>
      </trkpt>
      <trkpt lat="42.626076" lon="1.358857">
        <ele>1791.5</ele>
        <time>2013-07-31T12:25:29Z</time>
      </trkpt>
      <trkpt lat="42.626123" lon="1.358911">
        <ele>1792.0</ele>
        <time>2013-07-31T12:25:43Z</time>
      </trkpt>
      <trkpt lat="42.626160" lon="1.358973">
        <ele>1793.2</ele>
        <time>2013-07-31T12:25:53Z</time>
      </trkpt>
      <trkpt lat="42.626164" lon="1.359019">
        <ele>1794.8</ele>
        <time>2013-07-31T12:27:37Z</time>
      </trkpt>
      <trkpt lat="42.626176" lon="1.359110">
        <ele>1797.9</ele>
        <time>2013-07-31T12:27:48Z</time>
      </trkpt>
      <trkpt lat="42.626186" lon="1.359200">
        <ele>1800.9</ele>
        <time>2013-07-31T12:27:59Z</time>
      </trkpt>
      <trkpt lat="42.626183" lon="1.359288">
        <ele>1803.2</ele>
        <time>2013-07-31T12:28:10Z</time>
      </trkpt>
      <trkpt lat="42.626184" lon="1.359300">
        <ele>1803.2</ele>
        <time>2013-07-31T12:28:11Z</time>
      </trkpt>
      <trkpt lat="42.626194" lon="1.359351">
        <ele>1802.5</ele>
        <time>2013-07-31T12:28:15Z</time>
      </trkpt>
      <trkpt lat="42.626217" lon="1.359508">
        <ele>1803.3</ele>
        <time>2013-07-31T12:28:28Z</time>
      </trkpt>
      <trkpt lat="42.626226" lon="1.359623">
        <ele>1803.4</ele>
        <time>2013-07-31T12:28:38Z</time>
      </trkpt>
      <trkpt lat="42.626220" lon="1.359656">
        <ele>1804.1</ele>
        <time>2013-07-31T12:28:50Z</time>
      </trkpt>
      <trkpt lat="42.626232" lon="1.359745">
        <ele>1803.9</ele>
        <time>2013-07-31T12:29:00Z</time>
      </trkpt>
      <trkpt lat="42.626256" lon="1.359919">
        <ele>1804.7</ele>
        <time>2013-07-31T12:29:11Z</time>
      </trkpt>
      <trkpt lat="42.626257" lon="1.359945">
        <ele>1804.8</ele>
        <time>2013-07-31T12:29:13Z</time>
      </trkpt>
      <trkpt lat="42.626239" lon="1.360122">
        <ele>1807.1</ele>
        <time>2013-07-31T12:29:22Z</time>
      </trkpt>
      <trkpt lat="42.626247" lon="1.360145">
        <ele>1806.6</ele>
        <time>2013-07-31T12:29:35Z</time>
      </trkpt>
      <trkpt lat="42.626246" lon="1.360147">
        <ele>1806.7</ele>
        <time>2013-07-31T12:29:57Z</time>
      </trkpt>
      <trkpt lat="42.626239" lon="1.360169">
        <ele>1807.6</ele>
        <time>2013-07-31T12:30:03Z</time>
      </trkpt>
      <trkpt lat="42.626229" lon="1.360241">
        <ele>1809.3</ele>
        <time>2013-07-31T12:30:16Z</time>
      </trkpt>
      <trkpt lat="42.626205" lon="1.360353">
        <ele>1812.5</ele>
        <time>2013-07-31T12:30:28Z</time>
      </trkpt>
      <trkpt lat="42.626192" lon="1.360497">
        <ele>1813.9</ele>
        <time>2013-07-31T12:30:41Z</time>
      </trkpt>
      <trkpt lat="42.626192" lon="1.360522">
        <ele>1814.0</ele>
        <time>2013-07-31T12:30:43Z</time>
      </trkpt>
      <trkpt lat="42.626168" lon="1.360656">
        <ele>1815.4</ele>
        <time>2013-07-31T12:30:54Z</time>
      </trkpt>
      <trkpt lat="42.626147" lon="1.360740">
        <ele>1815.3</ele>
        <time>2013-07-31T12:31:02Z</time>
      </trkpt>
      <trkpt lat="42.626105" lon="1.360814">
        <ele>1817.4</ele>
        <time>2013-07-31T12:31:14Z</time>
      </trkpt>
      <trkpt lat="42.626098" lon="1.360859">
        <ele>1817.7</ele>
        <time>2013-07-31T12:31:18Z</time>
      </trkpt>
      <trkpt lat="42.626094" lon="1.360894">
        <ele>1817.9</ele>
        <time>2013-07-31T12:31:21Z</time>
      </trkpt>
      <trkpt lat="42.626089" lon="1.360929">
        <ele>1818.1</ele>
        <time>2013-07-31T12:31:24Z</time>
      </trkpt>
      <trkpt lat="42.626054" lon="1.361093">
        <ele>1819.7</ele>
        <time>2013-07-31T12:31:36Z</time>
      </trkpt>
      <trkpt lat="42.626046" lon="1.361132">
        <ele>1820.2</ele>
        <time>2013-07-31T12:31:40Z</time>
      </trkpt>
      <trkpt lat="42.626039" lon="1.361203">
        <ele>1820.6</ele>
        <time>2013-07-31T12:31:45Z</time>
      </trkpt>
      <trkpt lat="42.626020" lon="1.361264">
        <ele>1821.3</ele>
        <time>2013-07-31T12:31:50Z</time>
      </trkpt>
      <trkpt lat="42.625979" lon="1.361372">
        <ele>1822.6</ele>
        <time>2013-07-31T12:32:02Z</time>
      </trkpt>
      <trkpt lat="42.625953" lon="1.361445">
        <ele>1823.4</ele>
        <time>2013-07-31T12:32:08Z</time>
      </trkpt>
      <trkpt lat="42.625917" lon="1.361581">
        <ele>1823.4</ele>
        <time>2013-07-31T12:32:19Z</time>
      </trkpt>
      <trkpt lat="42.625864" lon="1.361678">
        <ele>1824.2</ele>
        <time>2013-07-31T12:32:26Z</time>
      </trkpt>
      <trkpt lat="42.625821" lon="1.361812">
        <ele>1825.7</ele>
        <time>2013-07-31T12:32:41Z</time>
      </trkpt>
      <trkpt lat="42.625751" lon="1.361893">
        <ele>1827.9</ele>
        <time>2013-07-31T12:32:52Z</time>
      </trkpt>
      <trkpt lat="42.625705" lon="1.362056">
        <ele>1826.9</ele>
        <time>2013-07-31T12:33:05Z</time>
      </trkpt>
      <trkpt lat="42.625632" lon="1.362231">
        <ele>1828.0</ele>
        <time>2013-07-31T12:33:18Z</time>
      </trkpt>
      <trkpt lat="42.625622" lon="1.362254">
        <ele>1828.2</ele>
        <time>2013-07-31T12:33:21Z</time>
      </trkpt>
      <trkpt lat="42.625610" lon="1.362303">
        <ele>1828.2</ele>
        <time>2013-07-31T12:33:25Z</time>
      </trkpt>
      <trkpt lat="42.625548" lon="1.362438">
        <ele>1830.2</ele>
        <time>2013-07-31T12:33:37Z</time>
      </trkpt>
      <trkpt lat="42.625484" lon="1.362566">
        <ele>1830.5</ele>
        <time>2013-07-31T12:33:48Z</time>
      </trkpt>
      <trkpt lat="42.625441" lon="1.362672">
        <ele>1830.7</ele>
        <time>2013-07-31T12:34:01Z</time>
      </trkpt>
      <trkpt lat="42.625401" lon="1.362724">
        <ele>1832.7</ele>
        <time>2013-07-31T12:34:06Z</time>
      </trkpt>
      <trkpt lat="42.625374" lon="1.362805">
        <ele>1833.3</ele>
        <time>2013-07-31T12:34:13Z</time>
      </trkpt>
      <trkpt lat="42.625357" lon="1.362931">
        <ele>1832.8</ele>
        <time>2013-07-31T12:34:24Z</time>
      </trkpt>
      <trkpt lat="42.625349" lon="1.362980">
        <ele>1832.4</ele>
        <time>2013-07-31T12:34:28Z</time>
      </trkpt>
      <trkpt lat="42.625299" lon="1.363151">
        <ele>1834.3</ele>
        <time>2013-07-31T12:34:41Z</time>
      </trkpt>
      <trkpt lat="42.625248" lon="1.363237">
        <ele>1837.6</ele>
        <time>2013-07-31T12:34:52Z</time>
      </trkpt>
      <trkpt lat="42.625224" lon="1.363407">
        <ele>1836.5</ele>
        <time>2013-07-31T12:35:04Z</time>
      </trkpt>
      <trkpt lat="42.625197" lon="1.363532">
        <ele>1837.3</ele>
        <time>2013-07-31T12:35:16Z</time>
      </trkpt>
      <trkpt lat="42.625171" lon="1.363627">
        <ele>1838.2</ele>
        <time>2013-07-31T12:35:27Z</time>
      </trkpt>
      <trkpt lat="42.625131" lon="1.363725">
        <ele>1840.7</ele>
        <time>2013-07-31T12:35:38Z</time>
      </trkpt>
      <trkpt lat="42.625067" lon="1.363826">
        <ele>1843.1</ele>
        <time>2013-07-31T12:35:51Z</time>
      </trkpt>
      <trkpt lat="42.625022" lon="1.363895">
        <ele>1843.9</ele>
        <time>2013-07-31T12:36:02Z</time>
      </trkpt>
      <trkpt lat="42.625008" lon="1.363961">
        <ele>1843.6</ele>
        <time>2013-07-31T12:36:08Z</time>
      </trkpt>
      <trkpt lat="42.624967" lon="1.364109">
        <ele>1844.0</ele>
        <time>2013-07-31T12:36:20Z</time>
      </trkpt>
      <trkpt lat="42.624960" lon="1.364206">
        <ele>1844.8</ele>
        <time>2013-07-31T12:36:25Z</time>
      </trkpt>
      <trkpt lat="42.624949" lon="1.364381">
        <ele>1846.0</ele>
        <time>2013-07-31T12:36:36Z</time>
      </trkpt>
      <trkpt lat="42.624962" lon="1.364531">
        <ele>1845.7</ele>
        <time>2013-07-31T12:36:47Z</time>
      </trkpt>
      <trkpt lat="42.624976" lon="1.364571">
        <ele>1845.4</ele>
        <time>2013-07-31T12:36:50Z</time>
      </trkpt>
      <trkpt lat="42.624979" lon="1.364708">
        <ele>1845.9</ele>
        <time>2013-07-31T12:37:04Z</time>
      </trkpt>
      <trkpt lat="42.624979" lon="1.364721">
        <ele>1846.0</ele>
        <time>2013-07-31T12:37:05Z</time>
      </trkpt>
      <trkpt lat="42.624986" lon="1.364771">
        <ele>1846.1</ele>
        <time>2013-07-31T12:37:08Z</time>
      </trkpt>
      <trkpt lat="42.624989" lon="1.364829">
        <ele>1846.5</ele>
        <time>2013-07-31T12:37:11Z</time>
      </trkpt>
      <trkpt lat="42.624953" lon="1.364973">
        <ele>1847.6</ele>
        <time>2013-07-31T12:37:25Z</time>
      </trkpt>
      <trkpt lat="42.624926" lon="1.365079">
        <ele>1848.2</ele>
        <time>2013-07-31T12:37:36Z</time>
      </trkpt>
      <trkpt lat="42.624901" lon="1.365338">
        <ele>1850.0</ele>
        <time>2013-07-31T12:37:51Z</time>
      </trkpt>
      <trkpt lat="42.624893" lon="1.365573">
        <ele>1851.0</ele>
        <time>2013-07-31T12:38:04Z</time>
      </trkpt>
      <trkpt lat="42.624903" lon="1.365768">
        <ele>1850.7</ele>
        <time>2013-07-31T12:38:18Z</time>
      </trkpt>
      <trkpt lat="42.624900" lon="1.365786">
        <ele>1850.8</ele>
        <time>2013-07-31T12:38:19Z</time>
      </trkpt>
      <trkpt lat="42.624880" lon="1.365852">
        <ele>1851.6</ele>
        <time>2013-07-31T12:38:24Z</time>
      </trkpt>
      <trkpt lat="42.624871" lon="1.365906">
        <ele>1851.7</ele>
        <time>2013-07-31T12:38:28Z</time>
      </trkpt>
      <trkpt lat="42.624860" lon="1.365957">
        <ele>1852.1</ele>
        <time>2013-07-31T12:38:31Z</time>
      </trkpt>
      <trkpt lat="42.624857" lon="1.366000">
        <ele>1852.1</ele>
        <time>2013-07-31T12:38:34Z</time>
      </trkpt>
      <trkpt lat="42.624837" lon="1.366195">
        <ele>1851.9</ele>
        <time>2013-07-31T12:38:47Z</time>
      </trkpt>
      <trkpt lat="42.624852" lon="1.366372">
        <ele>1851.1</ele>
        <time>2013-07-31T12:38:59Z</time>
      </trkpt>
      <trkpt lat="42.624860" lon="1.366474">
        <ele>1850.2</ele>
        <time>2013-07-31T12:39:04Z</time>
      </trkpt>
      <trkpt lat="42.624879" lon="1.366657">
        <ele>1848.4</ele>
        <time>2013-07-31T12:39:16Z</time>
      </trkpt>
      <trkpt lat="42.624871" lon="1.366781">
        <ele>1847.9</ele>
        <time>2013-07-31T12:39:26Z</time>
      </trkpt>
      <trkpt lat="42.624871" lon="1.366881">
        <ele>1847.7</ele>
        <time>2013-07-31T12:39:34Z</time>
      </trkpt>
      <trkpt lat="42.624843" lon="1.367088">
        <ele>1847.9</ele>
        <time>2013-07-31T12:39:47Z</time>
      </trkpt>
      <trkpt lat="42.624860" lon="1.367181">
        <ele>1847.7</ele>
        <time>2013-07-31T12:39:53Z</time>
      </trkpt>
      <trkpt lat="42.624863" lon="1.367340">
        <ele>1847.8</ele>
        <time>2013-07-31T12:40:02Z</time>
      </trkpt>
      <trkpt lat="42.624823" lon="1.367438">
        <ele>1847.4</ele>
        <time>2013-07-31T12:40:07Z</time>
      </trkpt>
      <trkpt lat="42.624806" lon="1.367484">
        <ele>1847.5</ele>
        <time>2013-07-31T12:40:12Z</time>
      </trkpt>
      <trkpt lat="42.624810" lon="1.367565">
        <ele>1847.1</ele>
        <time>2013-07-31T12:40:16Z</time>
      </trkpt>
      <trkpt lat="42.624814" lon="1.367607">
        <ele>1846.9</ele>
        <time>2013-07-31T12:40:18Z</time>
      </trkpt>
      <trkpt lat="42.624797" lon="1.367705">
        <ele>1846.9</ele>
        <time>2013-07-31T12:40:25Z</time>
      </trkpt>
      <trkpt lat="42.624788" lon="1.367738">
        <ele>1846.8</ele>
        <time>2013-07-31T12:40:27Z</time>
      </trkpt>
      <trkpt lat="42.624773" lon="1.367846">
        <ele>1846.5</ele>
        <time>2013-07-31T12:40:35Z</time>
      </trkpt>
      <trkpt lat="42.624726" lon="1.368028">
        <ele>1846.2</ele>
        <time>2013-07-31T12:40:46Z</time>
      </trkpt>
      <trkpt lat="42.624724" lon="1.368169">
        <ele>1845.3</ele>
        <time>2013-07-31T12:40:57Z</time>
      </trkpt>
      <trkpt lat="42.624741" lon="1.368233">
        <ele>1844.6</ele>
        <time>2013-07-31T12:41:00Z</time>
      </trkpt>
      <trkpt lat="42.624691" lon="1.368430">
        <ele>1843.2</ele>
        <time>2013-07-31T12:41:12Z</time>
      </trkpt>
      <trkpt lat="42.624689" lon="1.368506">
        <ele>1843.2</ele>
        <time>2013-07-31T12:41:17Z</time>
      </trkpt>
      <trkpt lat="42.624643" lon="1.368614">
        <ele>1842.9</ele>
        <time>2013-07-31T12:41:24Z</time>
      </trkpt>
      <trkpt lat="42.624645" lon="1.368663">
        <ele>1842.4</ele>
        <time>2013-07-31T12:41:26Z</time>
      </trkpt>
      <trkpt lat="42.624622" lon="1.368806">
        <ele>1842.3</ele>
        <time>2013-07-31T12:41:36Z</time>
      </trkpt>
      <trkpt lat="42.624612" lon="1.368838">
        <ele>1842.3</ele>
        <time>2013-07-31T12:41:38Z</time>
      </trkpt>
      <trkpt lat="42.624593" lon="1.368910">
        <ele>1842.1</ele>
        <time>2013-07-31T12:41:42Z</time>
      </trkpt>
      <trkpt lat="42.624539" lon="1.369066">
        <ele>1842.4</ele>
        <time>2013-07-31T12:41:54Z</time>
      </trkpt>
      <trkpt lat="42.624520" lon="1.369248">
        <ele>1838.8</ele>
        <time>2013-07-31T12:42:07Z</time>
      </trkpt>
      <trkpt lat="42.624519" lon="1.369267">
        <ele>1838.8</ele>
        <time>2013-07-31T12:42:08Z</time>
      </trkpt>
      <trkpt lat="42.624509" lon="1.369448">
        <ele>1839.5</ele>
        <time>2013-07-31T12:42:20Z</time>
      </trkpt>
      <trkpt lat="42.624546" lon="1.369638">
        <ele>1837.0</ele>
        <time>2013-07-31T12:47:48Z</time>
      </trkpt>
      <trkpt lat="42.624530" lon="1.369809">
        <ele>1836.4</ele>
        <time>2013-07-31T12:47:59Z</time>
      </trkpt>
      <trkpt lat="42.624532" lon="1.369881">
        <ele>1835.7</ele>
        <time>2013-07-31T12:48:04Z</time>
      </trkpt>
      <trkpt lat="42.624518" lon="1.369925">
        <ele>1835.9</ele>
        <time>2013-07-31T12:48:09Z</time>
      </trkpt>
      <trkpt lat="42.624515" lon="1.369989">
        <ele>1835.6</ele>
        <time>2013-07-31T12:48:14Z</time>
      </trkpt>
      <trkpt lat="42.624518" lon="1.370070">
        <ele>1835.1</ele>
        <time>2013-07-31T12:48:19Z</time>
      </trkpt>
      <trkpt lat="42.624485" lon="1.370233">
        <ele>1835.1</ele>
        <time>2013-07-31T12:48:32Z</time>
      </trkpt>
      <trkpt lat="42.624474" lon="1.370487">
        <ele>1832.4</ele>
        <time>2013-07-31T12:48:47Z</time>
      </trkpt>
      <trkpt lat="42.624508" lon="1.370650">
        <ele>1830.2</ele>
        <time>2013-07-31T12:48:59Z</time>
      </trkpt>
      <trkpt lat="42.624518" lon="1.370775">
        <ele>1829.0</ele>
        <time>2013-07-31T12:49:13Z</time>
      </trkpt>
      <trkpt lat="42.624518" lon="1.370852">
        <ele>1829.6</ele>
        <time>2013-07-31T12:49:22Z</time>
      </trkpt>
      <trkpt lat="42.624524" lon="1.371067">
        <ele>1830.0</ele>
        <time>2013-07-31T12:49:35Z</time>
      </trkpt>
      <trkpt lat="42.624551" lon="1.371137">
        <ele>1828.9</ele>
        <time>2013-07-31T12:49:41Z</time>
      </trkpt>
      <trkpt lat="42.624574" lon="1.371269">
        <ele>1829.7</ele>
        <time>2013-07-31T12:49:50Z</time>
      </trkpt>
      <trkpt lat="42.624615" lon="1.371389">
        <ele>1829.1</ele>
        <time>2013-07-31T12:50:00Z</time>
      </trkpt>
      <trkpt lat="42.624630" lon="1.371414">
        <ele>1828.8</ele>
        <time>2013-07-31T12:50:02Z</time>
      </trkpt>
      <trkpt lat="42.624649" lon="1.371537">
        <ele>1828.6</ele>
        <time>2013-07-31T12:50:10Z</time>
      </trkpt>
      <trkpt lat="42.624664" lon="1.371576">
        <ele>1828.4</ele>
        <time>2013-07-31T12:50:12Z</time>
      </trkpt>
      <trkpt lat="42.624686" lon="1.371626">
        <ele>1828.3</ele>
        <time>2013-07-31T12:50:15Z</time>
      </trkpt>
      <trkpt lat="42.624736" lon="1.371693">
        <ele>1827.7</ele>
        <time>2013-07-31T12:50:21Z</time>
      </trkpt>
      <trkpt lat="42.624777" lon="1.371811">
        <ele>1828.3</ele>
        <time>2013-07-31T12:50:31Z</time>
      </trkpt>
      <trkpt lat="42.624771" lon="1.371851">
        <ele>1829.3</ele>
        <time>2013-07-31T12:50:43Z</time>
      </trkpt>
      <trkpt lat="42.624768" lon="1.371994">
        <ele>1831.7</ele>
        <time>2013-07-31T12:50:55Z</time>
      </trkpt>
      <trkpt lat="42.624747" lon="1.372111">
        <ele>1833.6</ele>
        <time>2013-07-31T12:51:04Z</time>
      </trkpt>
      <trkpt lat="42.624767" lon="1.372288">
        <ele>1834.2</ele>
        <time>2013-07-31T12:51:14Z</time>
      </trkpt>
      <trkpt lat="42.624786" lon="1.372479">
        <ele>1835.7</ele>
        <time>2013-07-31T12:51:27Z</time>
      </trkpt>
      <trkpt lat="42.624748" lon="1.372668">
        <ele>1835.8</ele>
        <time>2013-07-31T12:51:40Z</time>
      </trkpt>
      <trkpt lat="42.624740" lon="1.372695">
        <ele>1836.0</ele>
        <time>2013-07-31T12:51:42Z</time>
      </trkpt>
      <trkpt lat="42.624767" lon="1.372815">
        <ele>1835.7</ele>
        <time>2013-07-31T12:51:50Z</time>
      </trkpt>
      <trkpt lat="42.624806" lon="1.372888">
        <ele>1835.4</ele>
        <time>2013-07-31T12:51:55Z</time>
      </trkpt>
      <trkpt lat="42.624848" lon="1.373033">
        <ele>1835.0</ele>
        <time>2013-07-31T12:52:06Z</time>
      </trkpt>
      <trkpt lat="42.624859" lon="1.373158">
        <ele>1835.8</ele>
        <time>2013-07-31T12:52:18Z</time>
      </trkpt>
      <trkpt lat="42.624892" lon="1.373278">
        <ele>1835.7</ele>
        <time>2013-07-31T12:52:25Z</time>
      </trkpt>
      <trkpt lat="42.624926" lon="1.373402">
        <ele>1836.2</ele>
        <time>2013-07-31T12:52:33Z</time>
      </trkpt>
      <trkpt lat="42.624946" lon="1.373560">
        <ele>1838.0</ele>
        <time>2013-07-31T12:52:45Z</time>
      </trkpt>
      <trkpt lat="42.624952" lon="1.373668">
        <ele>1838.3</ele>
        <time>2013-07-31T12:52:53Z</time>
      </trkpt>
      <trkpt lat="42.624949" lon="1.373751">
        <ele>1839.0</ele>
        <time>2013-07-31T12:52:59Z</time>
      </trkpt>
      <trkpt lat="42.624951" lon="1.373805">
        <ele>1839.1</ele>
        <time>2013-07-31T12:53:02Z</time>
      </trkpt>
      <trkpt lat="42.624968" lon="1.373955">
        <ele>1838.3</ele>
        <time>2013-07-31T12:53:14Z</time>
      </trkpt>
      <trkpt lat="42.624968" lon="1.373955">
        <ele>1838.3</ele>
        <time>2013-07-31T12:53:16Z</time>
      </trkpt>
      <trkpt lat="42.624951" lon="1.374003">
        <ele>1838.7</ele>
        <time>2013-07-31T12:53:20Z</time>
      </trkpt>
      <trkpt lat="42.624920" lon="1.374202">
        <ele>1838.5</ele>
        <time>2013-07-31T12:53:32Z</time>
      </trkpt>
      <trkpt lat="42.624914" lon="1.374388">
        <ele>1837.1</ele>
        <time>2013-07-31T12:53:44Z</time>
      </trkpt>
      <trkpt lat="42.624915" lon="1.374401">
        <ele>1837.0</ele>
        <time>2013-07-31T12:53:45Z</time>
      </trkpt>
      <trkpt lat="42.624897" lon="1.374429">
        <ele>1837.5</ele>
        <time>2013-07-31T12:53:47Z</time>
      </trkpt>
      <trkpt lat="42.624895" lon="1.374486">
        <ele>1837.3</ele>
        <time>2013-07-31T12:53:50Z</time>
      </trkpt>
      <trkpt lat="42.624950" lon="1.374697">
        <ele>1836.8</ele>
        <time>2013-07-31T12:54:02Z</time>
      </trkpt>
      <trkpt lat="42.624964" lon="1.374853">
        <ele>1837.8</ele>
        <time>2013-07-31T12:54:13Z</time>
      </trkpt>
      <trkpt lat="42.624973" lon="1.374954">
        <ele>1838.8</ele>
        <time>2013-07-31T12:54:19Z</time>
      </trkpt>
      <trkpt lat="42.624973" lon="1.374968">
        <ele>1838.9</ele>
        <time>2013-07-31T12:54:20Z</time>
      </trkpt>
      <trkpt lat="42.624981" lon="1.375123">
        <ele>1839.5</ele>
        <time>2013-07-31T12:54:28Z</time>
      </trkpt>
      <trkpt lat="42.624985" lon="1.375235">
        <ele>1839.6</ele>
        <time>2013-07-31T12:54:36Z</time>
      </trkpt>
      <trkpt lat="42.624961" lon="1.375395">
        <ele>1840.0</ele>
        <time>2013-07-31T12:54:49Z</time>
      </trkpt>
      <trkpt lat="42.624990" lon="1.375615">
        <ele>1837.8</ele>
        <time>2013-07-31T12:55:03Z</time>
      </trkpt>
      <trkpt lat="42.625000" lon="1.375682">
        <ele>1836.9</ele>
        <time>2013-07-31T12:55:09Z</time>
      </trkpt>
      <trkpt lat="42.624964" lon="1.375931">
        <ele>1838.9</ele>
        <time>2013-07-31T12:55:21Z</time>
      </trkpt>
      <trkpt lat="42.624980" lon="1.376030">
        <ele>1837.9</ele>
        <time>2013-07-31T12:55:31Z</time>
      </trkpt>
      <trkpt lat="42.624949" lon="1.376267">
        <ele>1839.2</ele>
        <time>2013-07-31T12:55:46Z</time>
      </trkpt>
      <trkpt lat="42.624959" lon="1.376411">
        <ele>1837.6</ele>
        <time>2013-07-31T12:55:58Z</time>
      </trkpt>
      <trkpt lat="42.624915" lon="1.376558">
        <ele>1839.5</ele>
        <time>2013-07-31T12:56:10Z</time>
      </trkpt>
      <trkpt lat="42.624901" lon="1.376646">
        <ele>1839.9</ele>
        <time>2013-07-31T12:56:17Z</time>
      </trkpt>
      <trkpt lat="42.624856" lon="1.376843">
        <ele>1839.6</ele>
        <time>2013-07-31T12:56:30Z</time>
      </trkpt>
      <trkpt lat="42.624858" lon="1.377016">
        <ele>1836.3</ele>
        <time>2013-07-31T12:56:43Z</time>
      </trkpt>
      <trkpt lat="42.624862" lon="1.377031">
        <ele>1835.7</ele>
        <time>2013-07-31T12:56:44Z</time>
      </trkpt>
      <trkpt lat="42.624877" lon="1.377162">
        <ele>1831.8</ele>
        <time>2013-07-31T12:56:53Z</time>
      </trkpt>
      <trkpt lat="42.624877" lon="1.377335">
        <ele>1831.1</ele>
        <time>2013-07-31T12:57:05Z</time>
      </trkpt>
      <trkpt lat="42.624866" lon="1.377401">
        <ele>1831.7</ele>
        <time>2013-07-31T12:57:09Z</time>
      </trkpt>
      <trkpt lat="42.624908" lon="1.377491">
        <ele>1829.5</ele>
        <time>2013-07-31T12:57:16Z</time>
      </trkpt>
      <trkpt lat="42.624907" lon="1.377639">
        <ele>1829.8</ele>
        <time>2013-07-31T12:57:25Z</time>
      </trkpt>
      <trkpt lat="42.624903" lon="1.377646">
        <ele>1829.9</ele>
        <time>2013-07-31T12:57:26Z</time>
      </trkpt>
      <trkpt lat="42.624888" lon="1.377713">
        <ele>1830.3</ele>
        <time>2013-07-31T12:57:32Z</time>
      </trkpt>
      <trkpt lat="42.624893" lon="1.377831">
        <ele>1828.7</ele>
        <time>2013-07-31T12:57:46Z</time>
      </trkpt>
      <trkpt lat="42.624919" lon="1.377929">
        <ele>1826.3</ele>
        <time>2013-07-31T12:57:58Z</time>
      </trkpt>
      <trkpt lat="42.624930" lon="1.377990">
        <ele>1824.6</ele>
        <time>2013-07-31T12:58:05Z</time>
      </trkpt>
      <trkpt lat="42.624958" lon="1.378143">
        <ele>1821.4</ele>
        <time>2013-07-31T12:58:18Z</time>
      </trkpt>
      <trkpt lat="42.624952" lon="1.378372">
        <ele>1821.0</ele>
        <time>2013-07-31T12:58:33Z</time>
      </trkpt>
      <trkpt lat="42.624946" lon="1.378458">
        <ele>1821.1</ele>
        <time>2013-07-31T12:58:37Z</time>
      </trkpt>
      <trkpt lat="42.624869" lon="1.378629">
        <ele>1826.2</ele>
        <time>2013-07-31T12:58:50Z</time>
      </trkpt>
      <trkpt lat="42.624864" lon="1.378674">
        <ele>1825.8</ele>
        <time>2013-07-31T12:58:52Z</time>
      </trkpt>
      <trkpt lat="42.624838" lon="1.378888">
        <ele>1821.8</ele>
        <time>2013-07-31T12:59:06Z</time>
      </trkpt>
      <trkpt lat="42.624810" lon="1.378965">
        <ele>1824.1</ele>
        <time>2013-07-31T12:59:17Z</time>
      </trkpt>
      <trkpt lat="42.624801" lon="1.378993">
        <ele>1824.8</ele>
        <time>2013-07-31T12:59:30Z</time>
      </trkpt>
      <trkpt lat="42.624801" lon="1.378993">
        <ele>1824.8</ele>
        <time>2013-07-31T12:59:53Z</time>
      </trkpt>
      <trkpt lat="42.624791" lon="1.379004">
        <ele>1825.6</ele>
        <time>2013-07-31T13:00:07Z</time>
      </trkpt>
      <trkpt lat="42.624756" lon="1.379085">
        <ele>1826.8</ele>
        <time>2013-07-31T13:00:18Z</time>
      </trkpt>
      <trkpt lat="42.624749" lon="1.379097">
        <ele>1827.0</ele>
        <time>2013-07-31T13:00:22Z</time>
      </trkpt>
      <trkpt lat="42.624738" lon="1.379134">
        <ele>1827.3</ele>
        <time>2013-07-31T13:00:25Z</time>
      </trkpt>
      <trkpt lat="42.624722" lon="1.379190">
        <ele>1828.5</ele>
        <time>2013-07-31T13:00:28Z</time>
      </trkpt>
      <trkpt lat="42.624698" lon="1.379309">
        <ele>1828.5</ele>
        <time>2013-07-31T13:00:40Z</time>
      </trkpt>
      <trkpt lat="42.624670" lon="1.379358">
        <ele>1829.4</ele>
        <time>2013-07-31T13:00:44Z</time>
      </trkpt>
      <trkpt lat="42.624637" lon="1.379479">
        <ele>1829.5</ele>
        <time>2013-07-31T13:00:53Z</time>
      </trkpt>
      <trkpt lat="42.624589" lon="1.379601">
        <ele>1830.7</ele>
        <time>2013-07-31T13:01:04Z</time>
      </trkpt>
      <trkpt lat="42.624545" lon="1.379720">
        <ele>1830.1</ele>
        <time>2013-07-31T13:01:15Z</time>
      </trkpt>
      <trkpt lat="42.624524" lon="1.379870">
        <ele>1826.5</ele>
        <time>2013-07-31T13:01:26Z</time>
      </trkpt>
      <trkpt lat="42.624475" lon="1.380059">
        <ele>1823.4</ele>
        <time>2013-07-31T13:01:38Z</time>
      </trkpt>
      <trkpt lat="42.624473" lon="1.380081">
        <ele>1822.9</ele>
        <time>2013-07-31T13:01:39Z</time>
      </trkpt>
      <trkpt lat="42.624481" lon="1.380258">
        <ele>1818.6</ele>
        <time>2013-07-31T13:01:50Z</time>
      </trkpt>
      <trkpt lat="42.624462" lon="1.380298">
        <ele>1819.0</ele>
        <time>2013-07-31T13:01:54Z</time>
      </trkpt>
      <trkpt lat="42.624410" lon="1.380402">
        <ele>1820.3</ele>
        <time>2013-07-31T13:02:00Z</time>
      </trkpt>
      <trkpt lat="42.624400" lon="1.380486">
        <ele>1819.1</ele>
        <time>2013-07-31T13:02:04Z</time>
      </trkpt>
      <trkpt lat="42.624352" lon="1.380681">
        <ele>1817.8</ele>
        <time>2013-07-31T13:02:17Z</time>
      </trkpt>
      <trkpt lat="42.624278" lon="1.380750">
        <ele>1821.9</ele>
        <time>2013-07-31T13:02:25Z</time>
      </trkpt>
      <trkpt lat="42.624208" lon="1.380890">
        <ele>1822.8</ele>
        <time>2013-07-31T13:02:38Z</time>
      </trkpt>
      <trkpt lat="42.624163" lon="1.381024">
        <ele>1821.4</ele>
        <time>2013-07-31T13:02:51Z</time>
      </trkpt>
      <trkpt lat="42.624109" lon="1.381118">
        <ele>1823.1</ele>
        <time>2013-07-31T13:03:03Z</time>
      </trkpt>
      <trkpt lat="42.624068" lon="1.381237">
        <ele>1824.9</ele>
        <time>2013-07-31T13:03:14Z</time>
      </trkpt>
      <trkpt lat="42.624035" lon="1.381310">
        <ele>1825.3</ele>
        <time>2013-07-31T13:03:19Z</time>
      </trkpt>
      <trkpt lat="42.624021" lon="1.381366">
        <ele>1824.7</ele>
        <time>2013-07-31T13:03:25Z</time>
      </trkpt>
      <trkpt lat="42.624016" lon="1.381454">
        <ele>1823.3</ele>
        <time>2013-07-31T13:03:32Z</time>
      </trkpt>
      <trkpt lat="42.623993" lon="1.381503">
        <ele>1823.6</ele>
        <time>2013-07-31T13:03:36Z</time>
      </trkpt>
      <trkpt lat="42.623965" lon="1.381561">
        <ele>1823.9</ele>
        <time>2013-07-31T13:03:42Z</time>
      </trkpt>
      <trkpt lat="42.623963" lon="1.381576">
        <ele>1823.7</ele>
        <time>2013-07-31T13:03:43Z</time>
      </trkpt>
      <trkpt lat="42.623960" lon="1.381670">
        <ele>1822.2</ele>
        <time>2013-07-31T13:03:52Z</time>
      </trkpt>
      <trkpt lat="42.623964" lon="1.381744">
        <ele>1820.0</ele>
        <time>2013-07-31T13:03:56Z</time>
      </trkpt>
      <trkpt lat="42.623887" lon="1.381912">
        <ele>1818.2</ele>
        <time>2013-07-31T13:04:07Z</time>
      </trkpt>
      <trkpt lat="42.623813" lon="1.382009">
        <ele>1820.1</ele>
        <time>2013-07-31T13:04:21Z</time>
      </trkpt>
      <trkpt lat="42.623804" lon="1.382095">
        <ele>1817.2</ele>
        <time>2013-07-31T13:04:24Z</time>
      </trkpt>
      <trkpt lat="42.623815" lon="1.382228">
        <ele>1812.7</ele>
        <time>2013-07-31T13:04:29Z</time>
      </trkpt>
      <trkpt lat="42.623813" lon="1.382282">
        <ele>1810.5</ele>
        <time>2013-07-31T13:04:32Z</time>
      </trkpt>
      <trkpt lat="42.623799" lon="1.382550">
        <ele>1805.4</ele>
        <time>2013-07-31T13:04:39Z</time>
      </trkpt>
      <trkpt lat="42.623764" lon="1.382703">
        <ele>1805.6</ele>
        <time>2013-07-31T13:04:46Z</time>
      </trkpt>
      <trkpt lat="42.623740" lon="1.382788">
        <ele>1805.7</ele>
        <time>2013-07-31T13:04:54Z</time>
      </trkpt>
      <trkpt lat="42.623690" lon="1.382995">
        <ele>1804.0</ele>
        <time>2013-07-31T13:05:06Z</time>
      </trkpt>
      <trkpt lat="42.623668" lon="1.383148">
        <ele>1802.8</ele>
        <time>2013-07-31T13:05:18Z</time>
      </trkpt>
      <trkpt lat="42.623630" lon="1.383231">
        <ele>1803.7</ele>
        <time>2013-07-31T13:05:29Z</time>
      </trkpt>
      <trkpt lat="42.623622" lon="1.383261">
        <ele>1803.9</ele>
        <time>2013-07-31T13:05:42Z</time>
      </trkpt>
      <trkpt lat="42.623583" lon="1.383332">
        <ele>1805.5</ele>
        <time>2013-07-31T13:06:59Z</time>
      </trkpt>
      <trkpt lat="42.623503" lon="1.383429">
        <ele>1809.2</ele>
        <time>2013-07-31T13:07:10Z</time>
      </trkpt>
      <trkpt lat="42.623503" lon="1.383545">
        <ele>1809.8</ele>
        <time>2013-07-31T13:07:23Z</time>
      </trkpt>
      <trkpt lat="42.623479" lon="1.383595">
        <ele>1810.9</ele>
        <time>2013-07-31T13:07:45Z</time>
      </trkpt>
      <trkpt lat="42.623422" lon="1.383741">
        <ele>1813.4</ele>
        <time>2013-07-31T13:07:59Z</time>
      </trkpt>
      <trkpt lat="42.623360" lon="1.383833">
        <ele>1814.1</ele>
        <time>2013-07-31T13:08:10Z</time>
      </trkpt>
      <trkpt lat="42.623325" lon="1.383920">
        <ele>1815.7</ele>
        <time>2013-07-31T13:08:19Z</time>
      </trkpt>
      <trkpt lat="42.623320" lon="1.383991">
        <ele>1816.7</ele>
        <time>2013-07-31T13:08:24Z</time>
      </trkpt>
      <trkpt lat="42.623382" lon="1.384209">
        <ele>1816.5</ele>
        <time>2013-07-31T13:08:37Z</time>
      </trkpt>
      <trkpt lat="42.623456" lon="1.384418">
        <ele>1817.7</ele>
        <time>2013-07-31T13:08:51Z</time>
      </trkpt>
      <trkpt lat="42.623466" lon="1.384451">
        <ele>1817.7</ele>
        <time>2013-07-31T13:08:54Z</time>
      </trkpt>
      <trkpt lat="42.623470" lon="1.384559">
        <ele>1817.9</ele>
        <time>2013-07-31T13:09:02Z</time>
      </trkpt>
      <trkpt lat="42.623501" lon="1.384750">
        <ele>1819.0</ele>
        <time>2013-07-31T13:09:15Z</time>
      </trkpt>
      <trkpt lat="42.623487" lon="1.384909">
        <ele>1818.7</ele>
        <time>2013-07-31T13:09:26Z</time>
      </trkpt>
      <trkpt lat="42.623460" lon="1.384956">
        <ele>1819.6</ele>
        <time>2013-07-31T13:09:31Z</time>
      </trkpt>
      <trkpt lat="42.623435" lon="1.385029">
        <ele>1820.0</ele>
        <time>2013-07-31T13:09:37Z</time>
      </trkpt>
      <trkpt lat="42.623374" lon="1.385150">
        <ele>1822.5</ele>
        <time>2013-07-31T13:09:49Z</time>
      </trkpt>
      <trkpt lat="42.623363" lon="1.385300">
        <ele>1821.8</ele>
        <time>2013-07-31T13:10:01Z</time>
      </trkpt>
      <trkpt lat="42.623307" lon="1.385385">
        <ele>1823.7</ele>
        <time>2013-07-31T13:10:11Z</time>
      </trkpt>
      <trkpt lat="42.623279" lon="1.385407">
        <ele>1824.6</ele>
        <time>2013-07-31T13:10:14Z</time>
      </trkpt>
      <trkpt lat="42.623237" lon="1.385440">
        <ele>1825.3</ele>
        <time>2013-07-31T13:10:19Z</time>
      </trkpt>
      <trkpt lat="42.623209" lon="1.385447">
        <ele>1825.7</ele>
        <time>2013-07-31T13:10:22Z</time>
      </trkpt>
      <trkpt lat="42.623143" lon="1.385466">
        <ele>1826.7</ele>
        <time>2013-07-31T13:10:30Z</time>
      </trkpt>
      <trkpt lat="42.622999" lon="1.385493">
        <ele>1830.5</ele>
        <time>2013-07-31T13:10:43Z</time>
      </trkpt>
      <trkpt lat="42.622877" lon="1.385581">
        <ele>1831.3</ele>
        <time>2013-07-31T13:10:56Z</time>
      </trkpt>
      <trkpt lat="42.622781" lon="1.385659">
        <ele>1831.5</ele>
        <time>2013-07-31T13:11:08Z</time>
      </trkpt>
      <trkpt lat="42.622676" lon="1.385790">
        <ele>1831.7</ele>
        <time>2013-07-31T13:11:21Z</time>
      </trkpt>
      <trkpt lat="42.622587" lon="1.385864">
        <ele>1832.1</ele>
        <time>2013-07-31T13:11:32Z</time>
      </trkpt>
      <trkpt lat="42.622511" lon="1.385930">
        <ele>1832.8</ele>
        <time>2013-07-31T13:11:41Z</time>
      </trkpt>
      <trkpt lat="42.622481" lon="1.385938">
        <ele>1833.3</ele>
        <time>2013-07-31T13:11:44Z</time>
      </trkpt>
      <trkpt lat="42.622361" lon="1.385972">
        <ele>1836.4</ele>
        <time>2013-07-31T13:11:57Z</time>
      </trkpt>
      <trkpt lat="42.622236" lon="1.386008">
        <ele>1838.8</ele>
        <time>2013-07-31T13:12:10Z</time>
      </trkpt>
      <trkpt lat="42.622143" lon="1.386123">
        <ele>1837.9</ele>
        <time>2013-07-31T13:12:22Z</time>
      </trkpt>
      <trkpt lat="42.622101" lon="1.386151">
        <ele>1838.7</ele>
        <time>2013-07-31T13:12:27Z</time>
      </trkpt>
      <trkpt lat="42.621992" lon="1.386183">
        <ele>1840.2</ele>
        <time>2013-07-31T13:12:39Z</time>
      </trkpt>
      <trkpt lat="42.621931" lon="1.386199">
        <ele>1841.0</ele>
        <time>2013-07-31T13:12:46Z</time>
      </trkpt>
      <trkpt lat="42.621897" lon="1.386193">
        <ele>1841.6</ele>
        <time>2013-07-31T13:12:50Z</time>
      </trkpt>
      <trkpt lat="42.621807" lon="1.386187">
        <ele>1843.1</ele>
        <time>2013-07-31T13:12:58Z</time>
      </trkpt>
      <trkpt lat="42.621670" lon="1.386200">
        <ele>1846.6</ele>
        <time>2013-07-31T13:13:11Z</time>
      </trkpt>
      <trkpt lat="42.621571" lon="1.386269">
        <ele>1846.2</ele>
        <time>2013-07-31T13:13:22Z</time>
      </trkpt>
      <trkpt lat="42.621531" lon="1.386285">
        <ele>1846.5</ele>
        <time>2013-07-31T13:13:34Z</time>
      </trkpt>
      <trkpt lat="42.621506" lon="1.386314">
        <ele>1845.8</ele>
        <time>2013-07-31T13:14:01Z</time>
      </trkpt>
      <trkpt lat="42.621493" lon="1.386316">
        <ele>1846.0</ele>
        <time>2013-07-31T13:14:23Z</time>
      </trkpt>
      <trkpt lat="42.621493" lon="1.386316">
        <ele>1846.0</ele>
        <time>2013-07-31T13:14:47Z</time>
      </trkpt>
      <trkpt lat="42.621444" lon="1.386349">
        <ele>1846.8</ele>
        <time>2013-07-31T13:14:59Z</time>
      </trkpt>
      <trkpt lat="42.621431" lon="1.386360">
        <ele>1846.9</ele>
        <time>2013-07-31T13:15:01Z</time>
      </trkpt>
      <trkpt lat="42.621349" lon="1.386471">
        <ele>1847.6</ele>
        <time>2013-07-31T13:15:14Z</time>
      </trkpt>
      <trkpt lat="42.621265" lon="1.386595">
        <ele>1849.1</ele>
        <time>2013-07-31T13:15:27Z</time>
      </trkpt>
      <trkpt lat="42.621184" lon="1.386740">
        <ele>1850.6</ele>
        <time>2013-07-31T13:15:41Z</time>
      </trkpt>
      <trkpt lat="42.621121" lon="1.386878">
        <ele>1852.0</ele>
        <time>2013-07-31T13:15:52Z</time>
      </trkpt>
      <trkpt lat="42.621094" lon="1.386892">
        <ele>1852.6</ele>
        <time>2013-07-31T13:15:55Z</time>
      </trkpt>
      <trkpt lat="42.621069" lon="1.386909">
        <ele>1852.9</ele>
        <time>2013-07-31T13:15:58Z</time>
      </trkpt>
      <trkpt lat="42.621015" lon="1.386959">
        <ele>1853.6</ele>
        <time>2013-07-31T13:16:04Z</time>
      </trkpt>
      <trkpt lat="42.620905" lon="1.387093">
        <ele>1854.6</ele>
        <time>2013-07-31T13:16:18Z</time>
      </trkpt>
      <trkpt lat="42.620886" lon="1.387117">
        <ele>1854.7</ele>
        <time>2013-07-31T13:16:21Z</time>
      </trkpt>
      <trkpt lat="42.620782" lon="1.387211">
        <ele>1856.1</ele>
        <time>2013-07-31T13:16:33Z</time>
      </trkpt>
      <trkpt lat="42.620703" lon="1.387295">
        <ele>1856.9</ele>
        <time>2013-07-31T13:16:44Z</time>
      </trkpt>
      <trkpt lat="42.620628" lon="1.387368">
        <ele>1857.7</ele>
        <time>2013-07-31T13:16:54Z</time>
      </trkpt>
      <trkpt lat="42.620505" lon="1.387420">
        <ele>1859.3</ele>
        <time>2013-07-31T13:17:07Z</time>
      </trkpt>
      <trkpt lat="42.620499" lon="1.387421">
        <ele>1859.4</ele>
        <time>2013-07-31T13:17:08Z</time>
      </trkpt>
      <trkpt lat="42.620359" lon="1.387433">
        <ele>1860.8</ele>
        <time>2013-07-31T13:17:21Z</time>
      </trkpt>
      <trkpt lat="42.620249" lon="1.387435">
        <ele>1862.0</ele>
        <time>2013-07-31T13:17:32Z</time>
      </trkpt>
      <trkpt lat="42.620101" lon="1.387411">
        <ele>1863.4</ele>
        <time>2013-07-31T13:18:33Z</time>
      </trkpt>
      <trkpt lat="42.619853" lon="1.387303">
        <ele>1865.6</ele>
        <time>2013-07-31T13:41:55Z</time>
      </trkpt>
      <trkpt lat="42.619807" lon="1.387283">
        <ele>1866.0</ele>
        <time>2013-07-31T13:41:59Z</time>
      </trkpt>
      <trkpt lat="42.619772" lon="1.387266">
        <ele>1866.4</ele>
        <time>2013-07-31T13:42:02Z</time>
      </trkpt>
      <trkpt lat="42.619626" lon="1.387189">
        <ele>1868.4</ele>
        <time>2013-07-31T13:42:16Z</time>
      </trkpt>
      <trkpt lat="42.619526" lon="1.387132">
        <ele>1870.1</ele>
        <time>2013-07-31T13:42:27Z</time>
      </trkpt>
      <trkpt lat="42.619511" lon="1.387118">
        <ele>1870.4</ele>
        <time>2013-07-31T13:42:29Z</time>
      </trkpt>
      <trkpt lat="42.619384" lon="1.387135">
        <ele>1871.1</ele>
        <time>2013-07-31T13:42:42Z</time>
      </trkpt>
      <trkpt lat="42.619357" lon="1.387156">
        <ele>1871.1</ele>
        <time>2013-07-31T13:42:45Z</time>
      </trkpt>
      <trkpt lat="42.619306" lon="1.387184">
        <ele>1871.6</ele>
        <time>2013-07-31T13:42:50Z</time>
      </trkpt>
      <trkpt lat="42.619255" lon="1.387217">
        <ele>1872.4</ele>
        <time>2013-07-31T13:42:55Z</time>
      </trkpt>
      <trkpt lat="42.619233" lon="1.387236">
        <ele>1872.8</ele>
        <time>2013-07-31T13:42:58Z</time>
      </trkpt>
      <trkpt lat="42.619136" lon="1.387290">
        <ele>1873.7</ele>
        <time>2013-07-31T13:43:09Z</time>
      </trkpt>
      <trkpt lat="42.619103" lon="1.387315">
        <ele>1874.2</ele>
        <time>2013-07-31T13:43:13Z</time>
      </trkpt>
      <trkpt lat="42.619017" lon="1.387425">
        <ele>1875.0</ele>
        <time>2013-07-31T13:43:26Z</time>
      </trkpt>
      <trkpt lat="42.618974" lon="1.387485">
        <ele>1875.3</ele>
        <time>2013-07-31T13:43:31Z</time>
      </trkpt>
      <trkpt lat="42.618890" lon="1.387629">
        <ele>1876.3</ele>
        <time>2013-07-31T13:43:43Z</time>
      </trkpt>
      <trkpt lat="42.618849" lon="1.387687">
        <ele>1877.0</ele>
        <time>2013-07-31T13:43:49Z</time>
      </trkpt>
      <trkpt lat="42.618743" lon="1.387826">
        <ele>1878.2</ele>
        <time>2013-07-31T13:44:02Z</time>
      </trkpt>
      <trkpt lat="42.618669" lon="1.387933">
        <ele>1879.4</ele>
        <time>2013-07-31T13:44:13Z</time>
      </trkpt>
      <trkpt lat="42.618551" lon="1.388018">
        <ele>1880.6</ele>
        <time>2013-07-31T13:44:27Z</time>
      </trkpt>
      <trkpt lat="42.618502" lon="1.388039">
        <ele>1881.0</ele>
        <time>2013-07-31T13:44:40Z</time>
      </trkpt>
      <trkpt lat="42.618502" lon="1.388039">
        <ele>1881.0</ele>
        <time>2013-07-31T13:45:00Z</time>
      </trkpt>
      <trkpt lat="42.618339" lon="1.388115">
        <ele>1880.2</ele>
        <time>2013-07-31T13:45:14Z</time>
      </trkpt>
      <trkpt lat="42.618284" lon="1.388132">
        <ele>1879.6</ele>
        <time>2013-07-31T13:45:20Z</time>
      </trkpt>
      <trkpt lat="42.618152" lon="1.388217">
        <ele>1878.1</ele>
        <time>2013-07-31T13:45:33Z</time>
      </trkpt>
      <trkpt lat="42.618124" lon="1.388226">
        <ele>1878.6</ele>
        <time>2013-07-31T13:45:36Z</time>
      </trkpt>
      <trkpt lat="42.618095" lon="1.388240">
        <ele>1879.0</ele>
        <time>2013-07-31T13:45:40Z</time>
      </trkpt>
      <trkpt lat="42.618013" lon="1.388261">
        <ele>1880.5</ele>
        <time>2013-07-31T13:45:49Z</time>
      </trkpt>
      <trkpt lat="42.617936" lon="1.388290">
        <ele>1880.5</ele>
        <time>2013-07-31T13:45:55Z</time>
      </trkpt>
      <trkpt lat="42.617912" lon="1.388300">
        <ele>1880.5</ele>
        <time>2013-07-31T13:45:59Z</time>
      </trkpt>
      <trkpt lat="42.617845" lon="1.388342">
        <ele>1879.9</ele>
        <time>2013-07-31T13:46:07Z</time>
      </trkpt>
      <trkpt lat="42.617763" lon="1.388406">
        <ele>1880.5</ele>
        <time>2013-07-31T13:46:17Z</time>
      </trkpt>
      <trkpt lat="42.617699" lon="1.388461">
        <ele>1881.4</ele>
        <time>2013-07-31T13:46:27Z</time>
      </trkpt>
      <trkpt lat="42.617628" lon="1.388517">
        <ele>1882.2</ele>
        <time>2013-07-31T13:46:38Z</time>
      </trkpt>
      <trkpt lat="42.617572" lon="1.388558">
        <ele>1883.2</ele>
        <time>2013-07-31T13:46:50Z</time>
      </trkpt>
      <trkpt lat="42.617527" lon="1.388635">
        <ele>1883.9</ele>
        <time>2013-07-31T13:47:02Z</time>
      </trkpt>
      <trkpt lat="42.617483" lon="1.388715">
        <ele>1885.2</ele>
        <time>2013-07-31T13:47:14Z</time>
      </trkpt>
      <trkpt lat="42.617449" lon="1.388762">
        <ele>1886.6</ele>
        <time>2013-07-31T13:47:22Z</time>
      </trkpt>
      <trkpt lat="42.617424" lon="1.388826">
        <ele>1887.1</ele>
        <time>2013-07-31T13:47:28Z</time>
      </trkpt>
      <trkpt lat="42.617404" lon="1.388853">
        <ele>1887.6</ele>
        <time>2013-07-31T13:47:31Z</time>
      </trkpt>
      <trkpt lat="42.617330" lon="1.388938">
        <ele>1888.4</ele>
        <time>2013-07-31T13:47:42Z</time>
      </trkpt>
      <trkpt lat="42.617305" lon="1.388966">
        <ele>1888.6</ele>
        <time>2013-07-31T13:47:47Z</time>
      </trkpt>
      <trkpt lat="42.617286" lon="1.388990">
        <ele>1888.4</ele>
        <time>2013-07-31T13:47:50Z</time>
      </trkpt>
      <trkpt lat="42.617203" lon="1.389062">
        <ele>1888.3</ele>
        <time>2013-07-31T13:48:01Z</time>
      </trkpt>
      <trkpt lat="42.617137" lon="1.389130">
        <ele>1889.4</ele>
        <time>2013-07-31T13:48:12Z</time>
      </trkpt>
      <trkpt lat="42.617120" lon="1.389145">
        <ele>1890.0</ele>
        <time>2013-07-31T13:48:16Z</time>
      </trkpt>
      <trkpt lat="42.617101" lon="1.389175">
        <ele>1890.5</ele>
        <time>2013-07-31T13:48:21Z</time>
      </trkpt>
      <trkpt lat="42.617039" lon="1.389265">
        <ele>1892.5</ele>
        <time>2013-07-31T13:48:32Z</time>
      </trkpt>
      <trkpt lat="42.617001" lon="1.389321">
        <ele>1893.7</ele>
        <time>2013-07-31T13:48:42Z</time>
      </trkpt>
      <trkpt lat="42.616997" lon="1.389327">
        <ele>1893.8</ele>
        <time>2013-07-31T13:48:43Z</time>
      </trkpt>
      <trkpt lat="42.616960" lon="1.389409">
        <ele>1894.8</ele>
        <time>2013-07-31T13:48:54Z</time>
      </trkpt>
      <trkpt lat="42.616938" lon="1.389455">
        <ele>1895.5</ele>
        <time>2013-07-31T13:49:07Z</time>
      </trkpt>
      <trkpt lat="42.616891" lon="1.389535">
        <ele>1896.6</ele>
        <time>2013-07-31T13:49:18Z</time>
      </trkpt>
      <trkpt lat="42.616863" lon="1.389586">
        <ele>1897.1</ele>
        <time>2013-07-31T13:49:23Z</time>
      </trkpt>
      <trkpt lat="42.616804" lon="1.389687">
        <ele>1898.4</ele>
        <time>2013-07-31T13:49:35Z</time>
      </trkpt>
      <trkpt lat="42.616769" lon="1.389719">
        <ele>1899.7</ele>
        <time>2013-07-31T13:49:46Z</time>
      </trkpt>
      <trkpt lat="42.616764" lon="1.389737">
        <ele>1899.7</ele>
        <time>2013-07-31T13:49:48Z</time>
      </trkpt>
      <trkpt lat="42.616743" lon="1.389759">
        <ele>1900.5</ele>
        <time>2013-07-31T13:49:51Z</time>
      </trkpt>
      <trkpt lat="42.616687" lon="1.389815">
        <ele>1902.5</ele>
        <time>2013-07-31T13:50:03Z</time>
      </trkpt>
      <trkpt lat="42.616628" lon="1.389848">
        <ele>1904.3</ele>
        <time>2013-07-31T13:50:13Z</time>
      </trkpt>
      <trkpt lat="42.616588" lon="1.389867">
        <ele>1905.7</ele>
        <time>2013-07-31T13:50:23Z</time>
      </trkpt>
      <trkpt lat="42.616568" lon="1.389891">
        <ele>1906.2</ele>
        <time>2013-07-31T13:50:28Z</time>
      </trkpt>
      <trkpt lat="42.616499" lon="1.389959">
        <ele>1907.8</ele>
        <time>2013-07-31T13:50:39Z</time>
      </trkpt>
      <trkpt lat="42.616433" lon="1.389993">
        <ele>1909.6</ele>
        <time>2013-07-31T13:50:52Z</time>
      </trkpt>
      <trkpt lat="42.616415" lon="1.390006">
        <ele>1910.0</ele>
        <time>2013-07-31T13:51:03Z</time>
      </trkpt>
      <trkpt lat="42.616374" lon="1.390018">
        <ele>1911.2</ele>
        <time>2013-07-31T13:51:13Z</time>
      </trkpt>
      <trkpt lat="42.616347" lon="1.390023">
        <ele>1912.0</ele>
        <time>2013-07-31T13:51:25Z</time>
      </trkpt>
      <trkpt lat="42.616235" lon="1.390048">
        <ele>1915.5</ele>
        <time>2013-07-31T13:51:37Z</time>
      </trkpt>
      <trkpt lat="42.616227" lon="1.390046">
        <ele>1915.9</ele>
        <time>2013-07-31T13:51:38Z</time>
      </trkpt>
      <trkpt lat="42.616196" lon="1.390066">
        <ele>1916.2</ele>
        <time>2013-07-31T13:51:43Z</time>
      </trkpt>
      <trkpt lat="42.616124" lon="1.390071">
        <ele>1918.0</ele>
        <time>2013-07-31T13:51:53Z</time>
      </trkpt>
      <trkpt lat="42.616060" lon="1.390072">
        <ele>1919.6</ele>
        <time>2013-07-31T13:52:07Z</time>
      </trkpt>
      <trkpt lat="42.615995" lon="1.390092">
        <ele>1921.2</ele>
        <time>2013-07-31T13:52:18Z</time>
      </trkpt>
      <trkpt lat="42.615950" lon="1.390118">
        <ele>1922.5</ele>
        <time>2013-07-31T13:52:30Z</time>
      </trkpt>
      <trkpt lat="42.615930" lon="1.390142">
        <ele>1922.9</ele>
        <time>2013-07-31T13:52:34Z</time>
      </trkpt>
      <trkpt lat="42.615864" lon="1.390216">
        <ele>1924.9</ele>
        <time>2013-07-31T13:52:45Z</time>
      </trkpt>
      <trkpt lat="42.615831" lon="1.390262">
        <ele>1925.7</ele>
        <time>2013-07-31T13:52:55Z</time>
      </trkpt>
      <trkpt lat="42.615811" lon="1.390257">
        <ele>1926.8</ele>
        <time>2013-07-31T13:53:03Z</time>
      </trkpt>
      <trkpt lat="42.615744" lon="1.390302">
        <ele>1929.4</ele>
        <time>2013-07-31T13:53:14Z</time>
      </trkpt>
      <trkpt lat="42.615672" lon="1.390341">
        <ele>1932.0</ele>
        <time>2013-07-31T13:53:27Z</time>
      </trkpt>
      <trkpt lat="42.615597" lon="1.390371">
        <ele>1934.5</ele>
        <time>2013-07-31T13:53:40Z</time>
      </trkpt>
      <trkpt lat="42.615550" lon="1.390381">
        <ele>1936.1</ele>
        <time>2013-07-31T13:53:50Z</time>
      </trkpt>
      <trkpt lat="42.615495" lon="1.390392">
        <ele>1937.6</ele>
        <time>2013-07-31T13:54:02Z</time>
      </trkpt>
      <trkpt lat="42.615454" lon="1.390409">
        <ele>1938.9</ele>
        <time>2013-07-31T13:54:13Z</time>
      </trkpt>
      <trkpt lat="42.615407" lon="1.390424">
        <ele>1940.6</ele>
        <time>2013-07-31T13:54:25Z</time>
      </trkpt>
      <trkpt lat="42.615368" lon="1.390455">
        <ele>1941.4</ele>
        <time>2013-07-31T13:54:40Z</time>
      </trkpt>
      <trkpt lat="42.615330" lon="1.390472">
        <ele>1942.6</ele>
        <time>2013-07-31T13:54:51Z</time>
      </trkpt>
      <trkpt lat="42.615234" lon="1.390490">
        <ele>1946.3</ele>
        <time>2013-07-31T13:55:03Z</time>
      </trkpt>
      <trkpt lat="42.615180" lon="1.390520">
        <ele>1947.5</ele>
        <time>2013-07-31T13:55:15Z</time>
      </trkpt>
      <trkpt lat="42.615147" lon="1.390544">
        <ele>1948.9</ele>
        <time>2013-07-31T13:55:29Z</time>
      </trkpt>
      <trkpt lat="42.615121" lon="1.390557">
        <ele>1949.8</ele>
        <time>2013-07-31T13:55:41Z</time>
      </trkpt>
      <trkpt lat="42.615071" lon="1.390547">
        <ele>1952.3</ele>
        <time>2013-07-31T13:55:54Z</time>
      </trkpt>
      <trkpt lat="42.614965" lon="1.390550">
        <ele>1956.9</ele>
        <time>2013-07-31T13:56:07Z</time>
      </trkpt>
      <trkpt lat="42.614926" lon="1.390604">
        <ele>1957.6</ele>
        <time>2013-07-31T13:56:20Z</time>
      </trkpt>
      <trkpt lat="42.614861" lon="1.390691">
        <ele>1959.9</ele>
        <time>2013-07-31T13:56:33Z</time>
      </trkpt>
      <trkpt lat="42.614815" lon="1.390697">
        <ele>1962.2</ele>
        <time>2013-07-31T13:56:46Z</time>
      </trkpt>
      <trkpt lat="42.614773" lon="1.390728">
        <ele>1964.1</ele>
        <time>2013-07-31T13:56:58Z</time>
      </trkpt>
      <trkpt lat="42.614746" lon="1.390728">
        <ele>1965.6</ele>
        <time>2013-07-31T13:57:07Z</time>
      </trkpt>
      <trkpt lat="42.614724" lon="1.390732">
        <ele>1966.6</ele>
        <time>2013-07-31T13:57:12Z</time>
      </trkpt>
      <trkpt lat="42.614681" lon="1.390718">
        <ele>1969.0</ele>
        <time>2013-07-31T13:57:23Z</time>
      </trkpt>
      <trkpt lat="42.614639" lon="1.390782">
        <ele>1970.3</ele>
        <time>2013-07-31T13:57:33Z</time>
      </trkpt>
      <trkpt lat="42.614603" lon="1.390842">
        <ele>1971.5</ele>
        <time>2013-07-31T13:57:41Z</time>
      </trkpt>
      <trkpt lat="42.614545" lon="1.390934">
        <ele>1972.2</ele>
        <time>2013-07-31T13:57:52Z</time>
      </trkpt>
      <trkpt lat="42.614511" lon="1.390992">
        <ele>1972.7</ele>
        <time>2013-07-31T13:58:05Z</time>
      </trkpt>
      <trkpt lat="42.614507" lon="1.391013">
        <ele>1972.7</ele>
        <time>2013-07-31T13:58:20Z</time>
      </trkpt>
      <trkpt lat="42.614482" lon="1.391079">
        <ele>1973.8</ele>
        <time>2013-07-31T13:58:38Z</time>
      </trkpt>
      <trkpt lat="42.614444" lon="1.391174">
        <ele>1975.0</ele>
        <time>2013-07-31T13:58:48Z</time>
      </trkpt>
      <trkpt lat="42.614408" lon="1.391204">
        <ele>1976.4</ele>
        <time>2013-07-31T13:58:58Z</time>
      </trkpt>
      <trkpt lat="42.614371" lon="1.391237">
        <ele>1977.6</ele>
        <time>2013-07-31T13:59:07Z</time>
      </trkpt>
      <trkpt lat="42.614317" lon="1.391324">
        <ele>1978.4</ele>
        <time>2013-07-31T13:59:19Z</time>
      </trkpt>
      <trkpt lat="42.614254" lon="1.391400">
        <ele>1979.7</ele>
        <time>2013-07-31T13:59:29Z</time>
      </trkpt>
      <trkpt lat="42.614206" lon="1.391481">
        <ele>1980.9</ele>
        <time>2013-07-31T13:59:41Z</time>
      </trkpt>
      <trkpt lat="42.614159" lon="1.391547">
        <ele>1982.4</ele>
        <time>2013-07-31T13:59:51Z</time>
      </trkpt>
      <trkpt lat="42.614115" lon="1.391622">
        <ele>1983.7</ele>
        <time>2013-07-31T14:00:02Z</time>
      </trkpt>
      <trkpt lat="42.614085" lon="1.391654">
        <ele>1984.9</ele>
        <time>2013-07-31T14:00:13Z</time>
      </trkpt>
      <trkpt lat="42.614022" lon="1.391705">
        <ele>1987.5</ele>
        <time>2013-07-31T14:00:25Z</time>
      </trkpt>
      <trkpt lat="42.614007" lon="1.391759">
        <ele>1987.3</ele>
        <time>2013-07-31T14:00:36Z</time>
      </trkpt>
      <trkpt lat="42.613969" lon="1.391793">
        <ele>1988.7</ele>
        <time>2013-07-31T14:00:48Z</time>
      </trkpt>
      <trkpt lat="42.613896" lon="1.391863">
        <ele>1991.8</ele>
        <time>2013-07-31T14:01:03Z</time>
      </trkpt>
      <trkpt lat="42.613818" lon="1.391932">
        <ele>1994.2</ele>
        <time>2013-07-31T14:01:14Z</time>
      </trkpt>
      <trkpt lat="42.613779" lon="1.391950">
        <ele>1995.6</ele>
        <time>2013-07-31T14:01:24Z</time>
      </trkpt>
      <trkpt lat="42.613732" lon="1.391954">
        <ele>1997.5</ele>
        <time>2013-07-31T14:01:34Z</time>
      </trkpt>
      <trkpt lat="42.613693" lon="1.391957">
        <ele>1998.5</ele>
        <time>2013-07-31T14:01:45Z</time>
      </trkpt>
      <trkpt lat="42.613628" lon="1.391974">
        <ele>1999.9</ele>
        <time>2013-07-31T14:01:55Z</time>
      </trkpt>
      <trkpt lat="42.613582" lon="1.392019">
        <ele>2000.0</ele>
        <time>2013-07-31T14:02:05Z</time>
      </trkpt>
      <trkpt lat="42.613508" lon="1.392084">
        <ele>2001.1</ele>
        <time>2013-07-31T14:02:15Z</time>
      </trkpt>
      <trkpt lat="42.613443" lon="1.392114">
        <ele>2002.8</ele>
        <time>2013-07-31T14:02:25Z</time>
      </trkpt>
      <trkpt lat="42.613411" lon="1.392137">
        <ele>2003.4</ele>
        <time>2013-07-31T14:02:30Z</time>
      </trkpt>
      <trkpt lat="42.613362" lon="1.392165">
        <ele>2004.3</ele>
        <time>2013-07-31T14:02:41Z</time>
      </trkpt>
      <trkpt lat="42.613341" lon="1.392148">
        <ele>2005.1</ele>
        <time>2013-07-31T14:02:46Z</time>
      </trkpt>
      <trkpt lat="42.613290" lon="1.392145">
        <ele>2006.5</ele>
        <time>2013-07-31T14:02:56Z</time>
      </trkpt>
      <trkpt lat="42.613207" lon="1.392161">
        <ele>2008.5</ele>
        <time>2013-07-31T14:03:06Z</time>
      </trkpt>
      <trkpt lat="42.613142" lon="1.392178">
        <ele>2009.9</ele>
        <time>2013-07-31T14:03:18Z</time>
      </trkpt>
      <trkpt lat="42.613136" lon="1.392176">
        <ele>2010.1</ele>
        <time>2013-07-31T14:03:20Z</time>
      </trkpt>
      <trkpt lat="42.613109" lon="1.392178">
        <ele>2010.7</ele>
        <time>2013-07-31T14:03:22Z</time>
      </trkpt>
      <trkpt lat="42.613085" lon="1.392171">
        <ele>2011.4</ele>
        <time>2013-07-31T14:03:27Z</time>
      </trkpt>
      <trkpt lat="42.613042" lon="1.392201">
        <ele>2011.7</ele>
        <time>2013-07-31T14:03:37Z</time>
      </trkpt>
      <trkpt lat="42.612965" lon="1.392259">
        <ele>2012.2</ele>
        <time>2013-07-31T14:03:45Z</time>
      </trkpt>
      <trkpt lat="42.612914" lon="1.392425">
        <ele>2012.3</ele>
        <time>2013-07-31T14:03:57Z</time>
      </trkpt>
      <trkpt lat="42.612894" lon="1.392476">
        <ele>2012.5</ele>
        <time>2013-07-31T14:04:01Z</time>
      </trkpt>
      <trkpt lat="42.612881" lon="1.392509">
        <ele>2012.7</ele>
        <time>2013-07-31T14:04:04Z</time>
      </trkpt>
      <trkpt lat="42.612851" lon="1.392655">
        <ele>2013.6</ele>
        <time>2013-07-31T14:04:15Z</time>
      </trkpt>
      <trkpt lat="42.612798" lon="1.392836">
        <ele>2014.3</ele>
        <time>2013-07-31T14:04:28Z</time>
      </trkpt>
      <trkpt lat="42.612743" lon="1.392980">
        <ele>2014.1</ele>
        <time>2013-07-31T14:04:39Z</time>
      </trkpt>
      <trkpt lat="42.612655" lon="1.393122">
        <ele>2013.8</ele>
        <time>2013-07-31T14:04:52Z</time>
      </trkpt>
      <trkpt lat="42.612572" lon="1.393270">
        <ele>2013.7</ele>
        <time>2013-07-31T14:05:03Z</time>
      </trkpt>
      <trkpt lat="42.612547" lon="1.393337">
        <ele>2013.4</ele>
        <time>2013-07-31T14:05:08Z</time>
      </trkpt>
      <trkpt lat="42.612499" lon="1.393472">
        <ele>2013.0</ele>
        <time>2013-07-31T14:05:19Z</time>
      </trkpt>
      <trkpt lat="42.612439" lon="1.393626">
        <ele>2013.5</ele>
        <time>2013-07-31T14:05:32Z</time>
      </trkpt>
      <trkpt lat="42.612386" lon="1.393748">
        <ele>2013.9</ele>
        <time>2013-07-31T14:05:43Z</time>
      </trkpt>
      <trkpt lat="42.612380" lon="1.393814">
        <ele>2014.1</ele>
        <time>2013-07-31T14:05:49Z</time>
      </trkpt>
      <trkpt lat="42.612401" lon="1.393986">
        <ele>2014.0</ele>
        <time>2013-07-31T14:06:01Z</time>
      </trkpt>
      <trkpt lat="42.612367" lon="1.394114">
        <ele>2013.5</ele>
        <time>2013-07-31T14:06:13Z</time>
      </trkpt>
      <trkpt lat="42.612196" lon="1.394293">
        <ele>2014.9</ele>
        <time>2013-07-31T15:09:33Z</time>
      </trkpt>
      <trkpt lat="42.612184" lon="1.394351">
        <ele>2015.5</ele>
        <time>2013-07-31T15:09:37Z</time>
      </trkpt>
      <trkpt lat="42.612180" lon="1.394556">
        <ele>2016.0</ele>
        <time>2013-07-31T15:09:51Z</time>
      </trkpt>
      <trkpt lat="42.612152" lon="1.394710">
        <ele>2015.9</ele>
        <time>2013-07-31T15:10:03Z</time>
      </trkpt>
      <trkpt lat="42.612152" lon="1.394730">
        <ele>2015.9</ele>
        <time>2013-07-31T15:10:05Z</time>
      </trkpt>
      <trkpt lat="42.612174" lon="1.394835">
        <ele>2015.8</ele>
        <time>2013-07-31T15:10:12Z</time>
      </trkpt>
      <trkpt lat="42.612194" lon="1.394965">
        <ele>2015.5</ele>
        <time>2013-07-31T15:10:21Z</time>
      </trkpt>
      <trkpt lat="42.612193" lon="1.395085">
        <ele>2015.1</ele>
        <time>2013-07-31T15:10:32Z</time>
      </trkpt>
      <trkpt lat="42.612186" lon="1.395139">
        <ele>2015.0</ele>
        <time>2013-07-31T15:10:47Z</time>
      </trkpt>
      <trkpt lat="42.612190" lon="1.395148">
        <ele>2014.9</ele>
        <time>2013-07-31T15:11:30Z</time>
      </trkpt>
      <trkpt lat="42.612190" lon="1.395148">
        <ele>2014.9</ele>
        <time>2013-07-31T15:11:36Z</time>
      </trkpt>
      <trkpt lat="42.612164" lon="1.395204">
        <ele>2015.2</ele>
        <time>2013-07-31T15:11:40Z</time>
      </trkpt>
      <trkpt lat="42.612123" lon="1.395418">
        <ele>2015.0</ele>
        <time>2013-07-31T15:11:52Z</time>
      </trkpt>
      <trkpt lat="42.612073" lon="1.395614">
        <ele>2014.3</ele>
        <time>2013-07-31T15:12:04Z</time>
      </trkpt>
      <trkpt lat="42.612066" lon="1.395708">
        <ele>2013.3</ele>
        <time>2013-07-31T15:12:17Z</time>
      </trkpt>
      <trkpt lat="42.612048" lon="1.395785">
        <ele>2013.3</ele>
        <time>2013-07-31T15:12:34Z</time>
      </trkpt>
      <trkpt lat="42.612039" lon="1.395807">
        <ele>2013.2</ele>
        <time>2013-07-31T15:12:48Z</time>
      </trkpt>
      <trkpt lat="42.612023" lon="1.395830">
        <ele>2013.1</ele>
        <time>2013-07-31T15:12:52Z</time>
      </trkpt>
      <trkpt lat="42.611997" lon="1.395941">
        <ele>2013.2</ele>
        <time>2013-07-31T15:13:03Z</time>
      </trkpt>
      <trkpt lat="42.612005" lon="1.395997">
        <ele>2012.8</ele>
        <time>2013-07-31T15:13:15Z</time>
      </trkpt>
      <trkpt lat="42.612005" lon="1.395997">
        <ele>2012.8</ele>
        <time>2013-07-31T15:13:26Z</time>
      </trkpt>
      <trkpt lat="42.612005" lon="1.395997">
        <ele>2012.8</ele>
        <time>2013-07-31T15:13:46Z</time>
      </trkpt>
      <trkpt lat="42.612005" lon="1.395997">
        <ele>2012.8</ele>
        <time>2013-07-31T15:13:50Z</time>
      </trkpt>
      <trkpt lat="42.611998" lon="1.396069">
        <ele>2012.9</ele>
        <time>2013-07-31T15:14:03Z</time>
      </trkpt>
      <trkpt lat="42.611998" lon="1.396069">
        <ele>2012.9</ele>
        <time>2013-07-31T15:14:20Z</time>
      </trkpt>
      <trkpt lat="42.611951" lon="1.396166">
        <ele>2013.6</ele>
        <time>2013-07-31T15:14:37Z</time>
      </trkpt>
      <trkpt lat="42.611871" lon="1.396301">
        <ele>2014.3</ele>
        <time>2013-07-31T15:14:48Z</time>
      </trkpt>
      <trkpt lat="42.611842" lon="1.396356">
        <ele>2014.5</ele>
        <time>2013-07-31T15:14:59Z</time>
      </trkpt>
      <trkpt lat="42.611806" lon="1.396419">
        <ele>2014.0</ele>
        <time>2013-07-31T15:15:11Z</time>
      </trkpt>
      <trkpt lat="42.611746" lon="1.396449">
        <ele>2014.2</ele>
        <time>2013-07-31T15:15:15Z</time>
      </trkpt>
      <trkpt lat="42.611668" lon="1.396509">
        <ele>2014.1</ele>
        <time>2013-07-31T15:15:26Z</time>
      </trkpt>
      <trkpt lat="42.611626" lon="1.396531">
        <ele>2014.4</ele>
        <time>2013-07-31T15:15:33Z</time>
      </trkpt>
      <trkpt lat="42.611621" lon="1.396563">
        <ele>2014.2</ele>
        <time>2013-07-31T15:15:40Z</time>
      </trkpt>
      <trkpt lat="42.611530" lon="1.396665">
        <ele>2014.5</ele>
        <time>2013-07-31T15:15:53Z</time>
      </trkpt>
      <trkpt lat="42.611483" lon="1.396706">
        <ele>2014.9</ele>
        <time>2013-07-31T15:16:04Z</time>
      </trkpt>
      <trkpt lat="42.611427" lon="1.396763">
        <ele>2014.9</ele>
        <time>2013-07-31T15:16:11Z</time>
      </trkpt>
      <trkpt lat="42.611326" lon="1.396900">
        <ele>2015.3</ele>
        <time>2013-07-31T15:16:22Z</time>
      </trkpt>
      <trkpt lat="42.611323" lon="1.396910">
        <ele>2015.2</ele>
        <time>2013-07-31T15:16:27Z</time>
      </trkpt>
      <trkpt lat="42.611252" lon="1.396956">
        <ele>2015.6</ele>
        <time>2013-07-31T15:16:32Z</time>
      </trkpt>
      <trkpt lat="42.611201" lon="1.397124">
        <ele>2015.9</ele>
        <time>2013-07-31T15:16:42Z</time>
      </trkpt>
      <trkpt lat="42.611191" lon="1.397204">
        <ele>2015.9</ele>
        <time>2013-07-31T15:16:50Z</time>
      </trkpt>
      <trkpt lat="42.611233" lon="1.397376">
        <ele>2015.8</ele>
        <time>2013-07-31T15:17:02Z</time>
      </trkpt>
      <trkpt lat="42.611236" lon="1.397402">
        <ele>2015.8</ele>
        <time>2013-07-31T15:17:05Z</time>
      </trkpt>
      <trkpt lat="42.611245" lon="1.397502">
        <ele>2015.7</ele>
        <time>2013-07-31T15:17:14Z</time>
      </trkpt>
      <trkpt lat="42.611281" lon="1.397588">
        <ele>2015.7</ele>
        <time>2013-07-31T15:17:19Z</time>
      </trkpt>
      <trkpt lat="42.611274" lon="1.397657">
        <ele>2016.2</ele>
        <time>2013-07-31T15:17:23Z</time>
      </trkpt>
      <trkpt lat="42.611258" lon="1.397703">
        <ele>2016.6</ele>
        <time>2013-07-31T15:17:26Z</time>
      </trkpt>
      <trkpt lat="42.611247" lon="1.397772">
        <ele>2016.9</ele>
        <time>2013-07-31T15:17:30Z</time>
      </trkpt>
      <trkpt lat="42.611208" lon="1.397862">
        <ele>2017.6</ele>
        <time>2013-07-31T15:17:38Z</time>
      </trkpt>
      <trkpt lat="42.611210" lon="1.397938">
        <ele>2017.8</ele>
        <time>2013-07-31T15:17:45Z</time>
      </trkpt>
      <trkpt lat="42.611249" lon="1.398054">
        <ele>2018.5</ele>
        <time>2013-07-31T15:17:56Z</time>
      </trkpt>
      <trkpt lat="42.611249" lon="1.398054">
        <ele>2018.5</ele>
        <time>2013-07-31T15:18:08Z</time>
      </trkpt>
      <trkpt lat="42.611258" lon="1.398065">
        <ele>2018.5</ele>
        <time>2013-07-31T15:18:15Z</time>
      </trkpt>
      <trkpt lat="42.611280" lon="1.398161">
        <ele>2019.2</ele>
        <time>2013-07-31T15:18:29Z</time>
      </trkpt>
      <trkpt lat="42.611257" lon="1.398342">
        <ele>2020.4</ele>
        <time>2013-07-31T15:18:41Z</time>
      </trkpt>
      <trkpt lat="42.611246" lon="1.398417">
        <ele>2020.8</ele>
        <time>2013-07-31T15:18:54Z</time>
      </trkpt>
      <trkpt lat="42.611257" lon="1.398462">
        <ele>2021.1</ele>
        <time>2013-07-31T15:19:05Z</time>
      </trkpt>
      <trkpt lat="42.611271" lon="1.398518">
        <ele>2021.8</ele>
        <time>2013-07-31T15:19:16Z</time>
      </trkpt>
      <trkpt lat="42.611276" lon="1.398552">
        <ele>2022.3</ele>
        <time>2013-07-31T15:19:28Z</time>
      </trkpt>
      <trkpt lat="42.611276" lon="1.398552">
        <ele>2022.3</ele>
        <time>2013-07-31T15:19:29Z</time>
      </trkpt>
      <trkpt lat="42.611295" lon="1.398615">
        <ele>2023.6</ele>
        <time>2013-07-31T15:19:42Z</time>
      </trkpt>
      <trkpt lat="42.611295" lon="1.398615">
        <ele>2023.6</ele>
        <time>2013-07-31T15:19:57Z</time>
      </trkpt>
      <trkpt lat="42.611309" lon="1.398677">
        <ele>2025.4</ele>
        <time>2013-07-31T15:20:24Z</time>
      </trkpt>
      <trkpt lat="42.611309" lon="1.398677">
        <ele>2025.4</ele>
        <time>2013-07-31T15:20:38Z</time>
      </trkpt>
      <trkpt lat="42.611322" lon="1.398678">
        <ele>2025.8</ele>
        <time>2013-07-31T15:20:40Z</time>
      </trkpt>
      <trkpt lat="42.611374" lon="1.398850">
        <ele>2030.9</ele>
        <time>2013-07-31T15:20:50Z</time>
      </trkpt>
      <trkpt lat="42.611440" lon="1.399036">
        <ele>2035.0</ele>
        <time>2013-07-31T15:21:01Z</time>
      </trkpt>
      <trkpt lat="42.611476" lon="1.399210">
        <ele>2038.2</ele>
        <time>2013-07-31T15:21:13Z</time>
      </trkpt>
      <trkpt lat="42.611510" lon="1.399305">
        <ele>2040.6</ele>
        <time>2013-07-31T15:21:25Z</time>
      </trkpt>
      <trkpt lat="42.611501" lon="1.399396">
        <ele>2043.1</ele>
        <time>2013-07-31T15:21:34Z</time>
      </trkpt>
      <trkpt lat="42.611501" lon="1.399396">
        <ele>2043.1</ele>
        <time>2013-07-31T15:21:46Z</time>
      </trkpt>
      <trkpt lat="42.611479" lon="1.399533">
        <ele>2049.3</ele>
        <time>2013-07-31T15:21:58Z</time>
      </trkpt>
      <trkpt lat="42.611472" lon="1.399625">
        <ele>2049.2</ele>
        <time>2013-07-31T15:22:12Z</time>
      </trkpt>
      <trkpt lat="42.611498" lon="1.399684">
        <ele>2046.0</ele>
        <time>2013-07-31T15:22:25Z</time>
      </trkpt>
      <trkpt lat="42.611573" lon="1.399826">
        <ele>2043.8</ele>
        <time>2013-07-31T15:22:38Z</time>
      </trkpt>
      <trkpt lat="42.611656" lon="1.400011">
        <ele>2046.2</ele>
        <time>2013-07-31T15:22:50Z</time>
      </trkpt>
      <trkpt lat="42.611697" lon="1.400065">
        <ele>2046.1</ele>
        <time>2013-07-31T15:23:03Z</time>
      </trkpt>
      <trkpt lat="42.611697" lon="1.400065">
        <ele>2046.1</ele>
        <time>2013-07-31T15:23:04Z</time>
      </trkpt>
      <trkpt lat="42.611850" lon="1.400138">
        <ele>2044.3</ele>
        <time>2013-07-31T15:23:18Z</time>
      </trkpt>
      <trkpt lat="42.611859" lon="1.400146">
        <ele>2044.1</ele>
        <time>2013-07-31T15:23:31Z</time>
      </trkpt>
      <trkpt lat="42.611855" lon="1.400144">
        <ele>2044.2</ele>
        <time>2013-07-31T15:23:40Z</time>
      </trkpt>
      <trkpt lat="42.611841" lon="1.400260">
        <ele>2047.1</ele>
        <time>2013-07-31T15:23:55Z</time>
      </trkpt>
      <trkpt lat="42.611879" lon="1.400401">
        <ele>2055.1</ele>
        <time>2013-07-31T15:24:07Z</time>
      </trkpt>
      <trkpt lat="42.611914" lon="1.400507">
        <ele>2055.3</ele>
        <time>2013-07-31T15:24:16Z</time>
      </trkpt>
      <trkpt lat="42.611954" lon="1.400650">
        <ele>2059.6</ele>
        <time>2013-07-31T15:24:29Z</time>
      </trkpt>
      <trkpt lat="42.611966" lon="1.400702">
        <ele>2060.4</ele>
        <time>2013-07-31T15:24:39Z</time>
      </trkpt>
      <trkpt lat="42.611971" lon="1.400793">
        <ele>2061.3</ele>
        <time>2013-07-31T15:24:50Z</time>
      </trkpt>
      <trkpt lat="42.611971" lon="1.400844">
        <ele>2062.4</ele>
        <time>2013-07-31T15:25:00Z</time>
      </trkpt>
      <trkpt lat="42.611964" lon="1.400876">
        <ele>2063.9</ele>
        <time>2013-07-31T15:25:11Z</time>
      </trkpt>
      <trkpt lat="42.611936" lon="1.400970">
        <ele>2068.7</ele>
        <time>2013-07-31T15:25:23Z</time>
      </trkpt>
      <trkpt lat="42.611963" lon="1.401012">
        <ele>2068.9</ele>
        <time>2013-07-31T15:25:34Z</time>
      </trkpt>
      <trkpt lat="42.611945" lon="1.401086">
        <ele>2071.7</ele>
        <time>2013-07-31T15:25:44Z</time>
      </trkpt>
      <trkpt lat="42.611941" lon="1.401131">
        <ele>2073.0</ele>
        <time>2013-07-31T15:25:54Z</time>
      </trkpt>
      <trkpt lat="42.611945" lon="1.401140">
        <ele>2072.9</ele>
        <time>2013-07-31T15:26:01Z</time>
      </trkpt>
      <trkpt lat="42.611963" lon="1.401222">
        <ele>2073.6</ele>
        <time>2013-07-31T15:26:12Z</time>
      </trkpt>
      <trkpt lat="42.611999" lon="1.401289">
        <ele>2072.8</ele>
        <time>2013-07-31T15:26:22Z</time>
      </trkpt>
      <trkpt lat="42.612017" lon="1.401387">
        <ele>2072.2</ele>
        <time>2013-07-31T15:26:33Z</time>
      </trkpt>
      <trkpt lat="42.612039" lon="1.401474">
        <ele>2071.9</ele>
        <time>2013-07-31T15:26:40Z</time>
      </trkpt>
      <trkpt lat="42.612058" lon="1.401516">
        <ele>2071.5</ele>
        <time>2013-07-31T15:26:44Z</time>
      </trkpt>
      <trkpt lat="42.612078" lon="1.401657">
        <ele>2073.2</ele>
        <time>2013-07-31T15:26:58Z</time>
      </trkpt>
      <trkpt lat="42.612104" lon="1.401798">
        <ele>2073.4</ele>
        <time>2013-07-31T15:27:10Z</time>
      </trkpt>
      <trkpt lat="42.612110" lon="1.401836">
        <ele>2073.2</ele>
        <time>2013-07-31T15:27:16Z</time>
      </trkpt>
      <trkpt lat="42.612132" lon="1.401974">
        <ele>2072.9</ele>
        <time>2013-07-31T15:27:30Z</time>
      </trkpt>
      <trkpt lat="42.612099" lon="1.402170">
        <ele>2072.9</ele>
        <time>2013-07-31T15:27:42Z</time>
      </trkpt>
      <trkpt lat="42.612096" lon="1.402185">
        <ele>2073.0</ele>
        <time>2013-07-31T15:27:43Z</time>
      </trkpt>
      <trkpt lat="42.612070" lon="1.402255">
        <ele>2073.8</ele>
        <time>2013-07-31T15:27:47Z</time>
      </trkpt>
      <trkpt lat="42.612051" lon="1.402363">
        <ele>2073.7</ele>
        <time>2013-07-31T15:27:55Z</time>
      </trkpt>
      <trkpt lat="42.612000" lon="1.402505">
        <ele>2074.9</ele>
        <time>2013-07-31T15:28:06Z</time>
      </trkpt>
      <trkpt lat="42.611989" lon="1.402610">
        <ele>2073.5</ele>
        <time>2013-07-31T15:28:17Z</time>
      </trkpt>
      <trkpt lat="42.612007" lon="1.402721">
        <ele>2072.2</ele>
        <time>2013-07-31T15:28:28Z</time>
      </trkpt>
      <trkpt lat="42.611993" lon="1.402873">
        <ele>2074.1</ele>
        <time>2013-07-31T15:28:42Z</time>
      </trkpt>
      <trkpt lat="42.611965" lon="1.402949">
        <ele>2075.5</ele>
        <time>2013-07-31T15:28:54Z</time>
      </trkpt>
      <trkpt lat="42.611951" lon="1.402965">
        <ele>2076.1</ele>
        <time>2013-07-31T15:29:04Z</time>
      </trkpt>
      <trkpt lat="42.611878" lon="1.403036">
        <ele>2079.7</ele>
        <time>2013-07-31T15:29:15Z</time>
      </trkpt>
      <trkpt lat="42.611894" lon="1.403076">
        <ele>2079.8</ele>
        <time>2013-07-31T15:29:25Z</time>
      </trkpt>
      <trkpt lat="42.611893" lon="1.403078">
        <ele>2079.8</ele>
        <time>2013-07-31T15:29:28Z</time>
      </trkpt>
      <trkpt lat="42.611824" lon="1.403219">
        <ele>2083.1</ele>
        <time>2013-07-31T15:29:39Z</time>
      </trkpt>
      <trkpt lat="42.611800" lon="1.403278">
        <ele>2083.6</ele>
        <time>2013-07-31T15:29:45Z</time>
      </trkpt>
      <trkpt lat="42.611775" lon="1.403376">
        <ele>2084.5</ele>
        <time>2013-07-31T15:29:55Z</time>
      </trkpt>
      <trkpt lat="42.611781" lon="1.403533">
        <ele>2085.9</ele>
        <time>2013-07-31T15:30:08Z</time>
      </trkpt>
      <trkpt lat="42.611739" lon="1.403612">
        <ele>2087.3</ele>
        <time>2013-07-31T15:30:18Z</time>
      </trkpt>
      <trkpt lat="42.611721" lon="1.403656">
        <ele>2087.9</ele>
        <time>2013-07-31T15:30:29Z</time>
      </trkpt>
      <trkpt lat="42.611662" lon="1.403755">
        <ele>2089.3</ele>
        <time>2013-07-31T15:30:41Z</time>
      </trkpt>
      <trkpt lat="42.611652" lon="1.403769">
        <ele>2089.4</ele>
        <time>2013-07-31T15:30:42Z</time>
      </trkpt>
      <trkpt lat="42.611564" lon="1.403888">
        <ele>2091.6</ele>
        <time>2013-07-31T15:30:55Z</time>
      </trkpt>
      <trkpt lat="42.611520" lon="1.403983">
        <ele>2093.1</ele>
        <time>2013-07-31T15:31:07Z</time>
      </trkpt>
      <trkpt lat="42.611465" lon="1.404096">
        <ele>2095.2</ele>
        <time>2013-07-31T15:31:18Z</time>
      </trkpt>
      <trkpt lat="42.611482" lon="1.404232">
        <ele>2095.3</ele>
        <time>2013-07-31T15:31:29Z</time>
      </trkpt>
      <trkpt lat="42.611483" lon="1.404266">
        <ele>2095.7</ele>
        <time>2013-07-31T15:31:32Z</time>
      </trkpt>
      <trkpt lat="42.611475" lon="1.404380">
        <ele>2097.1</ele>
        <time>2013-07-31T15:31:45Z</time>
      </trkpt>
      <trkpt lat="42.611388" lon="1.404406">
        <ele>2099.2</ele>
        <time>2013-07-31T15:31:56Z</time>
      </trkpt>
      <trkpt lat="42.611362" lon="1.404473">
        <ele>2102.2</ele>
        <time>2013-07-31T15:32:07Z</time>
      </trkpt>
      <trkpt lat="42.611333" lon="1.404529">
        <ele>2104.5</ele>
        <time>2013-07-31T15:32:18Z</time>
      </trkpt>
      <trkpt lat="42.611316" lon="1.404577">
        <ele>2105.3</ele>
        <time>2013-07-31T15:32:29Z</time>
      </trkpt>
      <trkpt lat="42.611299" lon="1.404641">
        <ele>2106.2</ele>
        <time>2013-07-31T15:32:41Z</time>
      </trkpt>
      <trkpt lat="42.611289" lon="1.404666">
        <ele>2107.4</ele>
        <time>2013-07-31T15:32:47Z</time>
      </trkpt>
      <trkpt lat="42.611268" lon="1.404731">
        <ele>2109.4</ele>
        <time>2013-07-31T15:32:58Z</time>
      </trkpt>
      <trkpt lat="42.611242" lon="1.404753">
        <ele>2110.9</ele>
        <time>2013-07-31T15:33:10Z</time>
      </trkpt>
      <trkpt lat="42.611217" lon="1.404785">
        <ele>2112.3</ele>
        <time>2013-07-31T15:33:24Z</time>
      </trkpt>
      <trkpt lat="42.611192" lon="1.404831">
        <ele>2114.1</ele>
        <time>2013-07-31T15:33:35Z</time>
      </trkpt>
      <trkpt lat="42.611181" lon="1.404854">
        <ele>2115.1</ele>
        <time>2013-07-31T15:33:46Z</time>
      </trkpt>
      <trkpt lat="42.611148" lon="1.404910">
        <ele>2117.7</ele>
        <time>2013-07-31T15:33:59Z</time>
      </trkpt>
      <trkpt lat="42.611123" lon="1.404966">
        <ele>2119.7</ele>
        <time>2013-07-31T15:34:11Z</time>
      </trkpt>
      <trkpt lat="42.611076" lon="1.405032">
        <ele>2123.0</ele>
        <time>2013-07-31T15:34:23Z</time>
      </trkpt>
      <trkpt lat="42.611051" lon="1.405112">
        <ele>2123.5</ele>
        <time>2013-07-31T15:34:34Z</time>
      </trkpt>
      <trkpt lat="42.611027" lon="1.405139">
        <ele>2123.7</ele>
        <time>2013-07-31T15:34:38Z</time>
      </trkpt>
      <trkpt lat="42.610944" lon="1.405222">
        <ele>2123.7</ele>
        <time>2013-07-31T15:34:50Z</time>
      </trkpt>
      <trkpt lat="42.610904" lon="1.405244">
        <ele>2123.9</ele>
        <time>2013-07-31T15:34:54Z</time>
      </trkpt>
      <trkpt lat="42.610876" lon="1.405246">
        <ele>2124.6</ele>
        <time>2013-07-31T15:34:57Z</time>
      </trkpt>
      <trkpt lat="42.610850" lon="1.405267">
        <ele>2125.0</ele>
        <time>2013-07-31T15:35:00Z</time>
      </trkpt>
      <trkpt lat="42.610820" lon="1.405351">
        <ele>2125.4</ele>
        <time>2013-07-31T15:35:07Z</time>
      </trkpt>
      <trkpt lat="42.610797" lon="1.405382">
        <ele>2126.7</ele>
        <time>2013-07-31T15:35:10Z</time>
      </trkpt>
      <trkpt lat="42.610779" lon="1.405420">
        <ele>2127.9</ele>
        <time>2013-07-31T15:35:21Z</time>
      </trkpt>
      <trkpt lat="42.610770" lon="1.405508">
        <ele>2128.5</ele>
        <time>2013-07-31T15:35:32Z</time>
      </trkpt>
      <trkpt lat="42.610761" lon="1.405579">
        <ele>2129.4</ele>
        <time>2013-07-31T15:35:43Z</time>
      </trkpt>
      <trkpt lat="42.610717" lon="1.405610">
        <ele>2131.1</ele>
        <time>2013-07-31T15:35:55Z</time>
      </trkpt>
      <trkpt lat="42.610717" lon="1.405610">
        <ele>2131.1</ele>
        <time>2013-07-31T15:35:58Z</time>
      </trkpt>
      <trkpt lat="42.610656" lon="1.405641">
        <ele>2132.1</ele>
        <time>2013-07-31T15:36:08Z</time>
      </trkpt>
      <trkpt lat="42.610624" lon="1.405697">
        <ele>2132.0</ele>
        <time>2013-07-31T15:36:18Z</time>
      </trkpt>
      <trkpt lat="42.610535" lon="1.405784">
        <ele>2134.6</ele>
        <time>2013-07-31T15:36:32Z</time>
      </trkpt>
      <trkpt lat="42.610528" lon="1.405798">
        <ele>2134.8</ele>
        <time>2013-07-31T15:36:42Z</time>
      </trkpt>
      <trkpt lat="42.610509" lon="1.405833">
        <ele>2135.2</ele>
        <time>2013-07-31T15:36:51Z</time>
      </trkpt>
      <trkpt lat="42.610485" lon="1.405892">
        <ele>2135.8</ele>
        <time>2013-07-31T15:37:02Z</time>
      </trkpt>
      <trkpt lat="42.610437" lon="1.405941">
        <ele>2137.5</ele>
        <time>2013-07-31T15:37:13Z</time>
      </trkpt>
      <trkpt lat="42.610432" lon="1.405953">
        <ele>2137.8</ele>
        <time>2013-07-31T15:37:23Z</time>
      </trkpt>
      <trkpt lat="42.610432" lon="1.405953">
        <ele>2137.8</ele>
        <time>2013-07-31T15:37:35Z</time>
      </trkpt>
      <trkpt lat="42.610366" lon="1.406027">
        <ele>2141.5</ele>
        <time>2013-07-31T15:37:45Z</time>
      </trkpt>
      <trkpt lat="42.610339" lon="1.406058">
        <ele>2143.1</ele>
        <time>2013-07-31T15:37:55Z</time>
      </trkpt>
      <trkpt lat="42.610319" lon="1.406085">
        <ele>2144.0</ele>
        <time>2013-07-31T15:37:57Z</time>
      </trkpt>
      <trkpt lat="42.610264" lon="1.406181">
        <ele>2146.1</ele>
        <time>2013-07-31T15:38:04Z</time>
      </trkpt>
      <trkpt lat="42.610244" lon="1.406233">
        <ele>2146.3</ele>
        <time>2013-07-31T15:38:07Z</time>
      </trkpt>
      <trkpt lat="42.610212" lon="1.406283">
        <ele>2146.7</ele>
        <time>2013-07-31T15:38:11Z</time>
      </trkpt>
      <trkpt lat="42.610185" lon="1.406349">
        <ele>2146.7</ele>
        <time>2013-07-31T15:38:16Z</time>
      </trkpt>
      <trkpt lat="42.610161" lon="1.406387">
        <ele>2146.8</ele>
        <time>2013-07-31T15:38:19Z</time>
      </trkpt>
      <trkpt lat="42.610146" lon="1.406410">
        <ele>2147.0</ele>
        <time>2013-07-31T15:38:21Z</time>
      </trkpt>
      <trkpt lat="42.610113" lon="1.406453">
        <ele>2147.4</ele>
        <time>2013-07-31T15:38:25Z</time>
      </trkpt>
      <trkpt lat="42.610094" lon="1.406485">
        <ele>2147.4</ele>
        <time>2013-07-31T15:38:28Z</time>
      </trkpt>
      <trkpt lat="42.610063" lon="1.406553">
        <ele>2147.6</ele>
        <time>2013-07-31T15:38:34Z</time>
      </trkpt>
      <trkpt lat="42.610080" lon="1.406603">
        <ele>2147.3</ele>
        <time>2013-07-31T15:38:38Z</time>
      </trkpt>
      <trkpt lat="42.610079" lon="1.406634">
        <ele>2147.6</ele>
        <time>2013-07-31T15:38:40Z</time>
      </trkpt>
      <trkpt lat="42.610094" lon="1.406699">
        <ele>2147.6</ele>
        <time>2013-07-31T15:38:44Z</time>
      </trkpt>
      <trkpt lat="42.610027" lon="1.406859">
        <ele>2147.6</ele>
        <time>2013-07-31T15:38:56Z</time>
      </trkpt>
      <trkpt lat="42.609946" lon="1.406972">
        <ele>2147.8</ele>
        <time>2013-07-31T15:39:07Z</time>
      </trkpt>
      <trkpt lat="42.609925" lon="1.407000">
        <ele>2147.7</ele>
        <time>2013-07-31T15:39:10Z</time>
      </trkpt>
      <trkpt lat="42.609935" lon="1.407075">
        <ele>2147.5</ele>
        <time>2013-07-31T15:39:16Z</time>
      </trkpt>
      <trkpt lat="42.609953" lon="1.407189">
        <ele>2147.7</ele>
        <time>2013-07-31T15:39:27Z</time>
      </trkpt>
      <trkpt lat="42.609982" lon="1.407262">
        <ele>2147.4</ele>
        <time>2013-07-31T15:39:34Z</time>
      </trkpt>
      <trkpt lat="42.609993" lon="1.407329">
        <ele>2148.2</ele>
        <time>2013-07-31T15:39:39Z</time>
      </trkpt>
      <trkpt lat="42.609976" lon="1.407390">
        <ele>2148.8</ele>
        <time>2013-07-31T15:39:45Z</time>
      </trkpt>
      <trkpt lat="42.610016" lon="1.407462">
        <ele>2147.3</ele>
        <time>2013-07-31T15:39:56Z</time>
      </trkpt>
      <trkpt lat="42.610017" lon="1.407461">
        <ele>2147.3</ele>
        <time>2013-07-31T15:40:10Z</time>
      </trkpt>
      <trkpt lat="42.610024" lon="1.407486">
        <ele>2147.3</ele>
        <time>2013-07-31T15:40:18Z</time>
      </trkpt>
      <trkpt lat="42.610055" lon="1.407572">
        <ele>2147.4</ele>
        <time>2013-07-31T15:40:29Z</time>
      </trkpt>
      <trkpt lat="42.610055" lon="1.407572">
        <ele>2147.4</ele>
        <time>2013-07-31T15:40:46Z</time>
      </trkpt>
      <trkpt lat="42.610052" lon="1.407583">
        <ele>2147.7</ele>
        <time>2013-07-31T15:41:17Z</time>
      </trkpt>
      <trkpt lat="42.610070" lon="1.407688">
        <ele>2148.5</ele>
        <time>2013-07-31T15:41:27Z</time>
      </trkpt>
      <trkpt lat="42.610073" lon="1.407790">
        <ele>2147.9</ele>
        <time>2013-07-31T15:41:35Z</time>
      </trkpt>
      <trkpt lat="42.610089" lon="1.407808">
        <ele>2147.5</ele>
        <time>2013-07-31T15:41:37Z</time>
      </trkpt>
      <trkpt lat="42.610120" lon="1.407868">
        <ele>2148.1</ele>
        <time>2013-07-31T15:41:46Z</time>
      </trkpt>
      <trkpt lat="42.610118" lon="1.407907">
        <ele>2148.6</ele>
        <time>2013-07-31T15:41:49Z</time>
      </trkpt>
      <trkpt lat="42.610133" lon="1.407962">
        <ele>2149.3</ele>
        <time>2013-07-31T15:41:53Z</time>
      </trkpt>
      <trkpt lat="42.610136" lon="1.407993">
        <ele>2149.5</ele>
        <time>2013-07-31T15:41:55Z</time>
      </trkpt>
      <trkpt lat="42.610135" lon="1.408022">
        <ele>2149.7</ele>
        <time>2013-07-31T15:41:57Z</time>
      </trkpt>
      <trkpt lat="42.610136" lon="1.408066">
        <ele>2149.9</ele>
        <time>2013-07-31T15:42:00Z</time>
      </trkpt>
      <trkpt lat="42.610140" lon="1.408098">
        <ele>2149.8</ele>
        <time>2013-07-31T15:42:02Z</time>
      </trkpt>
      <trkpt lat="42.610184" lon="1.408314">
        <ele>2149.6</ele>
        <time>2013-07-31T15:42:16Z</time>
      </trkpt>
      <trkpt lat="42.610236" lon="1.408481">
        <ele>2149.7</ele>
        <time>2013-07-31T15:42:27Z</time>
      </trkpt>
      <trkpt lat="42.610240" lon="1.408495">
        <ele>2149.8</ele>
        <time>2013-07-31T15:42:28Z</time>
      </trkpt>
      <trkpt lat="42.610254" lon="1.408520">
        <ele>2149.9</ele>
        <time>2013-07-31T15:42:30Z</time>
      </trkpt>
      <trkpt lat="42.610269" lon="1.408594">
        <ele>2150.0</ele>
        <time>2013-07-31T15:42:36Z</time>
      </trkpt>
      <trkpt lat="42.610280" lon="1.408648">
        <ele>2150.3</ele>
        <time>2013-07-31T15:42:40Z</time>
      </trkpt>
      <trkpt lat="42.610303" lon="1.408675">
        <ele>2150.7</ele>
        <time>2013-07-31T15:42:43Z</time>
      </trkpt>
      <trkpt lat="42.610333" lon="1.408699">
        <ele>2151.4</ele>
        <time>2013-07-31T15:42:46Z</time>
      </trkpt>
      <trkpt lat="42.610413" lon="1.408698">
        <ele>2154.6</ele>
        <time>2013-07-31T15:42:58Z</time>
      </trkpt>
      <trkpt lat="42.610417" lon="1.408702">
        <ele>2154.9</ele>
        <time>2013-07-31T15:43:11Z</time>
      </trkpt>
      <trkpt lat="42.610446" lon="1.408767">
        <ele>2156.7</ele>
        <time>2013-07-31T15:43:21Z</time>
      </trkpt>
      <trkpt lat="42.610503" lon="1.408844">
        <ele>2158.0</ele>
        <time>2013-07-31T15:43:32Z</time>
      </trkpt>
      <trkpt lat="42.610588" lon="1.408913">
        <ele>2160.2</ele>
        <time>2013-07-31T15:43:45Z</time>
      </trkpt>
      <trkpt lat="42.610643" lon="1.408946">
        <ele>2161.5</ele>
        <time>2013-07-31T15:43:59Z</time>
      </trkpt>
      <trkpt lat="42.610721" lon="1.408982">
        <ele>2162.3</ele>
        <time>2013-07-31T15:44:10Z</time>
      </trkpt>
      <trkpt lat="42.610727" lon="1.408986">
        <ele>2162.3</ele>
        <time>2013-07-31T15:44:11Z</time>
      </trkpt>
      <trkpt lat="42.610836" lon="1.409089">
        <ele>2163.5</ele>
        <time>2013-07-31T15:44:25Z</time>
      </trkpt>
      <trkpt lat="42.610930" lon="1.409200">
        <ele>2164.7</ele>
        <time>2013-07-31T15:44:38Z</time>
      </trkpt>
      <trkpt lat="42.610999" lon="1.409319">
        <ele>2166.3</ele>
        <time>2013-07-31T15:44:51Z</time>
      </trkpt>
      <trkpt lat="42.611079" lon="1.409412">
        <ele>2169.1</ele>
        <time>2013-07-31T15:45:03Z</time>
      </trkpt>
      <trkpt lat="42.611136" lon="1.409442">
        <ele>2170.3</ele>
        <time>2013-07-31T15:45:16Z</time>
      </trkpt>
      <trkpt lat="42.611215" lon="1.409352">
        <ele>2171.4</ele>
        <time>2013-07-31T15:45:28Z</time>
      </trkpt>
      <trkpt lat="42.611244" lon="1.409260">
        <ele>2172.7</ele>
        <time>2013-07-31T15:45:39Z</time>
      </trkpt>
      <trkpt lat="42.611293" lon="1.409178">
        <ele>2174.9</ele>
        <time>2013-07-31T15:45:51Z</time>
      </trkpt>
      <trkpt lat="42.611319" lon="1.409175">
        <ele>2176.0</ele>
        <time>2013-07-31T15:45:57Z</time>
      </trkpt>
      <trkpt lat="42.611412" lon="1.409181">
        <ele>2177.1</ele>
        <time>2013-07-31T15:46:10Z</time>
      </trkpt>
      <trkpt lat="42.611410" lon="1.409180">
        <ele>2177.2</ele>
        <time>2013-07-31T15:46:25Z</time>
      </trkpt>
      <trkpt lat="42.611453" lon="1.409196">
        <ele>2176.5</ele>
        <time>2013-07-31T15:46:37Z</time>
      </trkpt>
      <trkpt lat="42.611595" lon="1.409254">
        <ele>2177.6</ele>
        <time>2013-07-31T15:46:51Z</time>
      </trkpt>
      <trkpt lat="42.611602" lon="1.409259">
        <ele>2177.7</ele>
        <time>2013-07-31T15:46:52Z</time>
      </trkpt>
      <trkpt lat="42.611631" lon="1.409265">
        <ele>2178.1</ele>
        <time>2013-07-31T15:46:55Z</time>
      </trkpt>
      <trkpt lat="42.611650" lon="1.409291">
        <ele>2178.6</ele>
        <time>2013-07-31T15:46:58Z</time>
      </trkpt>
      <trkpt lat="42.611665" lon="1.409316">
        <ele>2178.9</ele>
        <time>2013-07-31T15:47:01Z</time>
      </trkpt>
      <trkpt lat="42.611729" lon="1.409326">
        <ele>2180.5</ele>
        <time>2013-07-31T15:47:12Z</time>
      </trkpt>
      <trkpt lat="42.611759" lon="1.409331">
        <ele>2180.9</ele>
        <time>2013-07-31T15:47:25Z</time>
      </trkpt>
      <trkpt lat="42.611814" lon="1.409343">
        <ele>2181.8</ele>
        <time>2013-07-31T15:47:34Z</time>
      </trkpt>
      <trkpt lat="42.611956" lon="1.409431">
        <ele>2183.9</ele>
        <time>2013-07-31T15:47:47Z</time>
      </trkpt>
      <trkpt lat="42.612065" lon="1.409483">
        <ele>2183.2</ele>
        <time>2013-07-31T15:48:00Z</time>
      </trkpt>
      <trkpt lat="42.612072" lon="1.409489">
        <ele>2183.2</ele>
        <time>2013-07-31T15:48:01Z</time>
      </trkpt>
      <trkpt lat="42.612099" lon="1.409544">
        <ele>2183.1</ele>
        <time>2013-07-31T15:48:06Z</time>
      </trkpt>
      <trkpt lat="42.612125" lon="1.409624">
        <ele>2183.3</ele>
        <time>2013-07-31T15:48:12Z</time>
      </trkpt>
      <trkpt lat="42.612139" lon="1.409758">
        <ele>2184.0</ele>
        <time>2013-07-31T15:48:24Z</time>
      </trkpt>
      <trkpt lat="42.612181" lon="1.409869">
        <ele>2184.6</ele>
        <time>2013-07-31T15:48:35Z</time>
      </trkpt>
      <trkpt lat="42.612176" lon="1.409892">
        <ele>2185.4</ele>
        <time>2013-07-31T15:48:45Z</time>
      </trkpt>
      <trkpt lat="42.612172" lon="1.409894">
        <ele>2185.5</ele>
        <time>2013-07-31T15:48:56Z</time>
      </trkpt>
      <trkpt lat="42.612179" lon="1.409927">
        <ele>2186.0</ele>
        <time>2013-07-31T15:49:08Z</time>
      </trkpt>
      <trkpt lat="42.612234" lon="1.410104">
        <ele>2186.8</ele>
        <time>2013-07-31T15:49:21Z</time>
      </trkpt>
      <trkpt lat="42.612242" lon="1.410195">
        <ele>2184.9</ele>
        <time>2013-07-31T15:49:26Z</time>
      </trkpt>
      <trkpt lat="42.612270" lon="1.410299">
        <ele>2183.6</ele>
        <time>2013-07-31T15:49:33Z</time>
      </trkpt>
      <trkpt lat="42.612274" lon="1.410353">
        <ele>2183.6</ele>
        <time>2013-07-31T15:49:36Z</time>
      </trkpt>
      <trkpt lat="42.612310" lon="1.410455">
        <ele>2183.3</ele>
        <time>2013-07-31T15:49:43Z</time>
      </trkpt>
      <trkpt lat="42.612348" lon="1.410560">
        <ele>2183.1</ele>
        <time>2013-07-31T15:49:50Z</time>
      </trkpt>
      <trkpt lat="42.612364" lon="1.410733">
        <ele>2183.7</ele>
        <time>2013-07-31T15:50:02Z</time>
      </trkpt>
      <trkpt lat="42.612357" lon="1.410856">
        <ele>2185.4</ele>
        <time>2013-07-31T15:50:14Z</time>
      </trkpt>
      <trkpt lat="42.612354" lon="1.410876">
        <ele>2185.9</ele>
        <time>2013-07-31T15:50:24Z</time>
      </trkpt>
      <trkpt lat="42.612343" lon="1.410904">
        <ele>2186.8</ele>
        <time>2013-07-31T15:50:36Z</time>
      </trkpt>
      <trkpt lat="42.612333" lon="1.411039">
        <ele>2189.1</ele>
        <time>2013-07-31T15:50:48Z</time>
      </trkpt>
      <trkpt lat="42.612346" lon="1.411109">
        <ele>2189.9</ele>
        <time>2013-07-31T15:50:58Z</time>
      </trkpt>
      <trkpt lat="42.612365" lon="1.411159">
        <ele>2190.5</ele>
        <time>2013-07-31T15:51:13Z</time>
      </trkpt>
      <trkpt lat="42.612366" lon="1.411173">
        <ele>2190.7</ele>
        <time>2013-07-31T15:51:17Z</time>
      </trkpt>
      <trkpt lat="42.612376" lon="1.411212">
        <ele>2191.3</ele>
        <time>2013-07-31T15:51:27Z</time>
      </trkpt>
      <trkpt lat="42.612387" lon="1.411261">
        <ele>2192.9</ele>
        <time>2013-07-31T15:51:37Z</time>
      </trkpt>
      <trkpt lat="42.612397" lon="1.411311">
        <ele>2194.6</ele>
        <time>2013-07-31T15:51:47Z</time>
      </trkpt>
      <trkpt lat="42.612433" lon="1.411387">
        <ele>2196.3</ele>
        <time>2013-07-31T15:51:51Z</time>
      </trkpt>
      <trkpt lat="42.612406" lon="1.411573">
        <ele>2199.6</ele>
        <time>2013-07-31T15:52:03Z</time>
      </trkpt>
      <trkpt lat="42.612371" lon="1.411664">
        <ele>2199.9</ele>
        <time>2013-07-31T15:52:13Z</time>
      </trkpt>
      <trkpt lat="42.612330" lon="1.411722">
        <ele>2201.7</ele>
        <time>2013-07-31T15:52:25Z</time>
      </trkpt>
      <trkpt lat="42.612325" lon="1.411812">
        <ele>2202.2</ele>
        <time>2013-07-31T15:52:37Z</time>
      </trkpt>
      <trkpt lat="42.612310" lon="1.411893">
        <ele>2202.7</ele>
        <time>2013-07-31T15:52:50Z</time>
      </trkpt>
      <trkpt lat="42.612305" lon="1.411905">
        <ele>2202.8</ele>
        <time>2013-07-31T15:53:01Z</time>
      </trkpt>
      <trkpt lat="42.612297" lon="1.411916">
        <ele>2203.3</ele>
        <time>2013-07-31T15:53:16Z</time>
      </trkpt>
      <trkpt lat="42.612293" lon="1.411942">
        <ele>2204.3</ele>
        <time>2013-07-31T15:53:25Z</time>
      </trkpt>
      <trkpt lat="42.612211" lon="1.412094">
        <ele>2209.4</ele>
        <time>2013-07-31T15:53:38Z</time>
      </trkpt>
      <trkpt lat="42.612194" lon="1.412154">
        <ele>2210.2</ele>
        <time>2013-07-31T15:53:43Z</time>
      </trkpt>
      <trkpt lat="42.612191" lon="1.412181">
        <ele>2210.4</ele>
        <time>2013-07-31T15:53:45Z</time>
      </trkpt>
      <trkpt lat="42.612189" lon="1.412240">
        <ele>2210.8</ele>
        <time>2013-07-31T15:53:50Z</time>
      </trkpt>
      <trkpt lat="42.612196" lon="1.412277">
        <ele>2211.0</ele>
        <time>2013-07-31T15:53:53Z</time>
      </trkpt>
      <trkpt lat="42.612197" lon="1.412306">
        <ele>2211.2</ele>
        <time>2013-07-31T15:53:55Z</time>
      </trkpt>
      <trkpt lat="42.612166" lon="1.412433">
        <ele>2211.8</ele>
        <time>2013-07-31T15:54:05Z</time>
      </trkpt>
      <trkpt lat="42.612168" lon="1.412573">
        <ele>2212.8</ele>
        <time>2013-07-31T15:54:17Z</time>
      </trkpt>
      <trkpt lat="42.612168" lon="1.412613">
        <ele>2213.3</ele>
        <time>2013-07-31T15:54:20Z</time>
      </trkpt>
      <trkpt lat="42.612177" lon="1.412660">
        <ele>2213.9</ele>
        <time>2013-07-31T15:54:25Z</time>
      </trkpt>
      <trkpt lat="42.612183" lon="1.412681">
        <ele>2214.3</ele>
        <time>2013-07-31T15:54:32Z</time>
      </trkpt>
      <trkpt lat="42.612180" lon="1.412695">
        <ele>2214.6</ele>
        <time>2013-07-31T15:54:44Z</time>
      </trkpt>
      <trkpt lat="42.612179" lon="1.412692">
        <ele>2214.5</ele>
        <time>2013-07-31T15:54:50Z</time>
      </trkpt>
      <trkpt lat="42.612174" lon="1.412768">
        <ele>2216.6</ele>
        <time>2013-07-31T15:55:01Z</time>
      </trkpt>
      <trkpt lat="42.612184" lon="1.412838">
        <ele>2218.6</ele>
        <time>2013-07-31T15:55:11Z</time>
      </trkpt>
      <trkpt lat="42.612214" lon="1.412985">
        <ele>2221.1</ele>
        <time>2013-07-31T15:55:22Z</time>
      </trkpt>
      <trkpt lat="42.612216" lon="1.413119">
        <ele>2223.2</ele>
        <time>2013-07-31T15:55:35Z</time>
      </trkpt>
      <trkpt lat="42.612208" lon="1.413260">
        <ele>2223.9</ele>
        <time>2013-07-31T15:55:46Z</time>
      </trkpt>
      <trkpt lat="42.612193" lon="1.413279">
        <ele>2224.3</ele>
        <time>2013-07-31T15:55:58Z</time>
      </trkpt>
      <trkpt lat="42.612168" lon="1.413315">
        <ele>2225.1</ele>
        <time>2013-07-31T15:56:08Z</time>
      </trkpt>
      <trkpt lat="42.612115" lon="1.413415">
        <ele>2227.5</ele>
        <time>2013-07-31T15:59:06Z</time>
      </trkpt>
      <trkpt lat="42.612024" lon="1.413516">
        <ele>2230.5</ele>
        <time>2013-07-31T15:59:18Z</time>
      </trkpt>
      <trkpt lat="42.612001" lon="1.413516">
        <ele>2231.3</ele>
        <time>2013-07-31T15:59:28Z</time>
      </trkpt>
      <trkpt lat="42.611922" lon="1.413559">
        <ele>2233.2</ele>
        <time>2013-07-31T15:59:39Z</time>
      </trkpt>
      <trkpt lat="42.611874" lon="1.413639">
        <ele>2234.6</ele>
        <time>2013-07-31T15:59:50Z</time>
      </trkpt>
      <trkpt lat="42.611824" lon="1.413706">
        <ele>2236.2</ele>
        <time>2013-07-31T16:00:01Z</time>
      </trkpt>
      <trkpt lat="42.611771" lon="1.413769">
        <ele>2238.3</ele>
        <time>2013-07-31T16:00:12Z</time>
      </trkpt>
      <trkpt lat="42.611749" lon="1.413822">
        <ele>2240.1</ele>
        <time>2013-07-31T16:00:25Z</time>
      </trkpt>
      <trkpt lat="42.611727" lon="1.413818">
        <ele>2240.8</ele>
        <time>2013-07-31T16:00:38Z</time>
      </trkpt>
      <trkpt lat="42.611700" lon="1.413824">
        <ele>2242.0</ele>
        <time>2013-07-31T16:00:49Z</time>
      </trkpt>
      <trkpt lat="42.611576" lon="1.413903">
        <ele>2244.1</ele>
        <time>2013-07-31T16:01:00Z</time>
      </trkpt>
      <trkpt lat="42.611529" lon="1.413949">
        <ele>2244.2</ele>
        <time>2013-07-31T16:01:05Z</time>
      </trkpt>
      <trkpt lat="42.611446" lon="1.414069">
        <ele>2244.7</ele>
        <time>2013-07-31T16:01:17Z</time>
      </trkpt>
      <trkpt lat="42.611401" lon="1.414129">
        <ele>2246.1</ele>
        <time>2013-07-31T16:01:24Z</time>
      </trkpt>
      <trkpt lat="42.611328" lon="1.414167">
        <ele>2248.5</ele>
        <time>2013-07-31T16:01:35Z</time>
      </trkpt>
      <trkpt lat="42.611265" lon="1.414154">
        <ele>2250.6</ele>
        <time>2013-07-31T16:01:47Z</time>
      </trkpt>
      <trkpt lat="42.611254" lon="1.414149">
        <ele>2250.8</ele>
        <time>2013-07-31T16:02:05Z</time>
      </trkpt>
      <trkpt lat="42.611255" lon="1.414153">
        <ele>2250.9</ele>
        <time>2013-07-31T16:02:31Z</time>
      </trkpt>
      <trkpt lat="42.611260" lon="1.414182">
        <ele>2251.8</ele>
        <time>2013-07-31T16:02:51Z</time>
      </trkpt>
      <trkpt lat="42.611259" lon="1.414204">
        <ele>2252.5</ele>
        <time>2013-07-31T16:02:53Z</time>
      </trkpt>
      <trkpt lat="42.611251" lon="1.414224">
        <ele>2253.4</ele>
        <time>2013-07-31T16:03:04Z</time>
      </trkpt>
      <trkpt lat="42.611242" lon="1.414243">
        <ele>2254.3</ele>
        <time>2013-07-31T16:03:17Z</time>
      </trkpt>
      <trkpt lat="42.611212" lon="1.414296">
        <ele>2256.8</ele>
        <time>2013-07-31T16:03:27Z</time>
      </trkpt>
      <trkpt lat="42.611212" lon="1.414296">
        <ele>2256.8</ele>
        <time>2013-07-31T16:03:40Z</time>
      </trkpt>
      <trkpt lat="42.611203" lon="1.414307">
        <ele>2257.4</ele>
        <time>2013-07-31T16:03:51Z</time>
      </trkpt>
      <trkpt lat="42.611189" lon="1.414330">
        <ele>2258.2</ele>
        <time>2013-07-31T16:04:04Z</time>
      </trkpt>
      <trkpt lat="42.611187" lon="1.414338">
        <ele>2258.2</ele>
        <time>2013-07-31T16:04:40Z</time>
      </trkpt>
      <trkpt lat="42.611156" lon="1.414361">
        <ele>2259.7</ele>
        <time>2013-07-31T16:04:58Z</time>
      </trkpt>
      <trkpt lat="42.611038" lon="1.414455">
        <ele>2263.7</ele>
        <time>2013-07-31T16:05:10Z</time>
      </trkpt>
      <trkpt lat="42.611010" lon="1.414488">
        <ele>2264.2</ele>
        <time>2013-07-31T16:05:13Z</time>
      </trkpt>
      <trkpt lat="42.610939" lon="1.414599">
        <ele>2265.1</ele>
        <time>2013-07-31T16:05:25Z</time>
      </trkpt>
      <trkpt lat="42.610894" lon="1.414641">
        <ele>2265.8</ele>
        <time>2013-07-31T16:05:32Z</time>
      </trkpt>
      <trkpt lat="42.610841" lon="1.414748">
        <ele>2266.5</ele>
        <time>2013-07-31T16:05:45Z</time>
      </trkpt>
      <trkpt lat="42.610793" lon="1.414873">
        <ele>2268.5</ele>
        <time>2013-07-31T16:05:58Z</time>
      </trkpt>
      <trkpt lat="42.610774" lon="1.414947">
        <ele>2268.4</ele>
        <time>2013-07-31T16:06:10Z</time>
      </trkpt>
      <trkpt lat="42.610711" lon="1.415006">
        <ele>2271.0</ele>
        <time>2013-07-31T16:06:22Z</time>
      </trkpt>
      <trkpt lat="42.610643" lon="1.415023">
        <ele>2273.0</ele>
        <time>2013-07-31T16:06:34Z</time>
      </trkpt>
      <trkpt lat="42.610633" lon="1.415021">
        <ele>2273.2</ele>
        <time>2013-07-31T16:06:35Z</time>
      </trkpt>
      <trkpt lat="42.610505" lon="1.415041">
        <ele>2274.6</ele>
        <time>2013-07-31T16:06:46Z</time>
      </trkpt>
      <trkpt lat="42.610411" lon="1.415058">
        <ele>2274.5</ele>
        <time>2013-07-31T16:06:57Z</time>
      </trkpt>
      <trkpt lat="42.610357" lon="1.415151">
        <ele>2275.7</ele>
        <time>2013-07-31T16:07:09Z</time>
      </trkpt>
      <trkpt lat="42.610303" lon="1.415232">
        <ele>2276.9</ele>
        <time>2013-07-31T16:07:21Z</time>
      </trkpt>
      <trkpt lat="42.610272" lon="1.415259">
        <ele>2278.2</ele>
        <time>2013-07-31T16:07:32Z</time>
      </trkpt>
      <trkpt lat="42.610221" lon="1.415313">
        <ele>2280.8</ele>
        <time>2013-07-31T16:07:44Z</time>
      </trkpt>
      <trkpt lat="42.610201" lon="1.415369">
        <ele>2281.7</ele>
        <time>2013-07-31T16:07:55Z</time>
      </trkpt>
      <trkpt lat="42.610190" lon="1.415390">
        <ele>2282.5</ele>
        <time>2013-07-31T16:08:07Z</time>
      </trkpt>
      <trkpt lat="42.610160" lon="1.415433">
        <ele>2284.1</ele>
        <time>2013-07-31T16:08:19Z</time>
      </trkpt>
      <trkpt lat="42.610109" lon="1.415496">
        <ele>2286.0</ele>
        <time>2013-07-31T16:08:25Z</time>
      </trkpt>
      <trkpt lat="42.610063" lon="1.415608">
        <ele>2287.0</ele>
        <time>2013-07-31T16:08:34Z</time>
      </trkpt>
      <trkpt lat="42.609986" lon="1.415694">
        <ele>2288.8</ele>
        <time>2013-07-31T16:08:45Z</time>
      </trkpt>
      <trkpt lat="42.609928" lon="1.415721">
        <ele>2289.8</ele>
        <time>2013-07-31T16:08:52Z</time>
      </trkpt>
      <trkpt lat="42.609839" lon="1.415774">
        <ele>2291.7</ele>
        <time>2013-07-31T16:09:05Z</time>
      </trkpt>
      <trkpt lat="42.609802" lon="1.415829">
        <ele>2292.7</ele>
        <time>2013-07-31T16:09:14Z</time>
      </trkpt>
      <trkpt lat="42.609764" lon="1.415855">
        <ele>2294.3</ele>
        <time>2013-07-31T16:09:23Z</time>
      </trkpt>
      <trkpt lat="42.609723" lon="1.415908">
        <ele>2295.7</ele>
        <time>2013-07-31T16:09:35Z</time>
      </trkpt>
      <trkpt lat="42.609670" lon="1.415982">
        <ele>2297.4</ele>
        <time>2013-07-31T16:09:46Z</time>
      </trkpt>
      <trkpt lat="42.609609" lon="1.416058">
        <ele>2298.1</ele>
        <time>2013-07-31T16:09:58Z</time>
      </trkpt>
      <trkpt lat="42.609532" lon="1.416142">
        <ele>2298.8</ele>
        <time>2013-07-31T16:10:09Z</time>
      </trkpt>
      <trkpt lat="42.609420" lon="1.416232">
        <ele>2298.8</ele>
        <time>2013-07-31T16:10:20Z</time>
      </trkpt>
      <trkpt lat="42.609405" lon="1.416245">
        <ele>2299.0</ele>
        <time>2013-07-31T16:10:22Z</time>
      </trkpt>
      <trkpt lat="42.609398" lon="1.416310">
        <ele>2298.1</ele>
        <time>2013-07-31T16:10:28Z</time>
      </trkpt>
      <trkpt lat="42.609388" lon="1.416345">
        <ele>2297.7</ele>
        <time>2013-07-31T16:10:31Z</time>
      </trkpt>
      <trkpt lat="42.609325" lon="1.416456">
        <ele>2298.5</ele>
        <time>2013-07-31T16:10:42Z</time>
      </trkpt>
      <trkpt lat="42.609278" lon="1.416524">
        <ele>2299.5</ele>
        <time>2013-07-31T16:10:52Z</time>
      </trkpt>
      <trkpt lat="42.609229" lon="1.416583">
        <ele>2299.8</ele>
        <time>2013-07-31T16:11:01Z</time>
      </trkpt>
      <trkpt lat="42.609142" lon="1.416635">
        <ele>2299.3</ele>
        <time>2013-07-31T16:11:14Z</time>
      </trkpt>
      <trkpt lat="42.609132" lon="1.416646">
        <ele>2299.2</ele>
        <time>2013-07-31T16:11:16Z</time>
      </trkpt>
      <trkpt lat="42.609089" lon="1.416682">
        <ele>2299.6</ele>
        <time>2013-07-31T16:11:28Z</time>
      </trkpt>
      <trkpt lat="42.609067" lon="1.416684">
        <ele>2300.4</ele>
        <time>2013-07-31T16:11:39Z</time>
      </trkpt>
      <trkpt lat="42.609028" lon="1.416699">
        <ele>2301.3</ele>
        <time>2013-07-31T16:11:50Z</time>
      </trkpt>
      <trkpt lat="42.608994" lon="1.416723">
        <ele>2302.5</ele>
        <time>2013-07-31T16:11:57Z</time>
      </trkpt>
      <trkpt lat="42.608930" lon="1.416775">
        <ele>2305.6</ele>
        <time>2013-07-31T16:12:07Z</time>
      </trkpt>
      <trkpt lat="42.608906" lon="1.416790">
        <ele>2306.6</ele>
        <time>2013-07-31T16:12:12Z</time>
      </trkpt>
      <trkpt lat="42.608889" lon="1.416819">
        <ele>2307.1</ele>
        <time>2013-07-31T16:12:15Z</time>
      </trkpt>
      <trkpt lat="42.608849" lon="1.416876">
        <ele>2307.6</ele>
        <time>2013-07-31T16:12:21Z</time>
      </trkpt>
      <trkpt lat="42.608807" lon="1.416893">
        <ele>2308.1</ele>
        <time>2013-07-31T16:12:26Z</time>
      </trkpt>
      <trkpt lat="42.608797" lon="1.416854">
        <ele>2309.1</ele>
        <time>2013-07-31T16:12:37Z</time>
      </trkpt>
      <trkpt lat="42.608771" lon="1.416852">
        <ele>2309.8</ele>
        <time>2013-07-31T16:12:46Z</time>
      </trkpt>
      <trkpt lat="42.608737" lon="1.416914">
        <ele>2310.9</ele>
        <time>2013-07-31T16:12:54Z</time>
      </trkpt>
      <trkpt lat="42.608698" lon="1.416988">
        <ele>2311.4</ele>
        <time>2013-07-31T16:13:01Z</time>
      </trkpt>
      <trkpt lat="42.608660" lon="1.417022">
        <ele>2311.2</ele>
        <time>2013-07-31T16:13:05Z</time>
      </trkpt>
      <trkpt lat="42.608618" lon="1.417040">
        <ele>2311.7</ele>
        <time>2013-07-31T16:13:09Z</time>
      </trkpt>
      <trkpt lat="42.608500" lon="1.417051">
        <ele>2313.3</ele>
        <time>2013-07-31T16:13:21Z</time>
      </trkpt>
      <trkpt lat="42.608477" lon="1.417070">
        <ele>2313.4</ele>
        <time>2013-07-31T16:15:16Z</time>
      </trkpt>
      <trkpt lat="42.608446" lon="1.417091">
        <ele>2313.5</ele>
        <time>2013-07-31T16:15:20Z</time>
      </trkpt>
      <trkpt lat="42.608400" lon="1.417099">
        <ele>2313.0</ele>
        <time>2013-07-31T16:15:33Z</time>
      </trkpt>
      <trkpt lat="42.608280" lon="1.417095">
        <ele>2311.8</ele>
        <time>2013-07-31T16:15:44Z</time>
      </trkpt>
      <trkpt lat="42.608154" lon="1.417106">
        <ele>2311.5</ele>
        <time>2013-07-31T16:15:56Z</time>
      </trkpt>
      <trkpt lat="42.608139" lon="1.417102">
        <ele>2311.7</ele>
        <time>2013-07-31T16:15:58Z</time>
      </trkpt>
      <trkpt lat="42.608073" lon="1.417073">
        <ele>2313.2</ele>
        <time>2013-07-31T16:16:10Z</time>
      </trkpt>
      <trkpt lat="42.608063" lon="1.417070">
        <ele>2313.4</ele>
        <time>2013-07-31T16:16:11Z</time>
      </trkpt>
      <trkpt lat="42.608001" lon="1.417057">
        <ele>2313.0</ele>
        <time>2013-07-31T16:16:17Z</time>
      </trkpt>
      <trkpt lat="42.607864" lon="1.417004">
        <ele>2312.4</ele>
        <time>2013-07-31T16:16:30Z</time>
      </trkpt>
      <trkpt lat="42.607841" lon="1.417011">
        <ele>2312.4</ele>
        <time>2013-07-31T16:16:34Z</time>
      </trkpt>
      <trkpt lat="42.607771" lon="1.417021">
        <ele>2312.8</ele>
        <time>2013-07-31T16:16:42Z</time>
      </trkpt>
      <trkpt lat="42.607711" lon="1.417009">
        <ele>2313.5</ele>
        <time>2013-07-31T16:16:49Z</time>
      </trkpt>
      <trkpt lat="42.607681" lon="1.417020">
        <ele>2313.6</ele>
        <time>2013-07-31T16:16:52Z</time>
      </trkpt>
      <trkpt lat="42.607550" lon="1.416977">
        <ele>2313.4</ele>
        <time>2013-07-31T16:17:05Z</time>
      </trkpt>
      <trkpt lat="42.607544" lon="1.416972">
        <ele>2313.5</ele>
        <time>2013-07-31T16:17:06Z</time>
      </trkpt>
      <trkpt lat="42.607533" lon="1.416955">
        <ele>2313.6</ele>
        <time>2013-07-31T16:17:08Z</time>
      </trkpt>
      <trkpt lat="42.607488" lon="1.416919">
        <ele>2314.2</ele>
        <time>2013-07-31T16:17:13Z</time>
      </trkpt>
      <trkpt lat="42.607372" lon="1.416846">
        <ele>2314.0</ele>
        <time>2013-07-31T16:17:26Z</time>
      </trkpt>
      <trkpt lat="42.607308" lon="1.416836">
        <ele>2313.0</ele>
        <time>2013-07-31T16:17:33Z</time>
      </trkpt>
      <trkpt lat="42.607224" lon="1.416865">
        <ele>2313.6</ele>
        <time>2013-07-31T16:17:43Z</time>
      </trkpt>
      <trkpt lat="42.607143" lon="1.416894">
        <ele>2314.8</ele>
        <time>2013-07-31T16:17:54Z</time>
      </trkpt>
      <trkpt lat="42.607085" lon="1.416938">
        <ele>2316.1</ele>
        <time>2013-07-31T16:18:05Z</time>
      </trkpt>
      <trkpt lat="42.607055" lon="1.416981">
        <ele>2317.6</ele>
        <time>2013-07-31T16:18:16Z</time>
      </trkpt>
      <trkpt lat="42.607025" lon="1.417002">
        <ele>2318.7</ele>
        <time>2013-07-31T16:18:25Z</time>
      </trkpt>
      <trkpt lat="42.606966" lon="1.417066">
        <ele>2320.8</ele>
        <time>2013-07-31T16:18:33Z</time>
      </trkpt>
      <trkpt lat="42.606872" lon="1.417133">
        <ele>2321.9</ele>
        <time>2013-07-31T16:18:44Z</time>
      </trkpt>
      <trkpt lat="42.606804" lon="1.417128">
        <ele>2323.3</ele>
        <time>2013-07-31T16:18:55Z</time>
      </trkpt>
      <trkpt lat="42.606772" lon="1.417128">
        <ele>2324.0</ele>
        <time>2013-07-31T16:19:00Z</time>
      </trkpt>
      <trkpt lat="42.606748" lon="1.417142">
        <ele>2324.5</ele>
        <time>2013-07-31T16:19:03Z</time>
      </trkpt>
      <trkpt lat="42.606704" lon="1.417165">
        <ele>2324.7</ele>
        <time>2013-07-31T16:19:08Z</time>
      </trkpt>
      <trkpt lat="42.606568" lon="1.417192">
        <ele>2325.0</ele>
        <time>2013-07-31T16:19:22Z</time>
      </trkpt>
      <trkpt lat="42.606562" lon="1.417195">
        <ele>2325.0</ele>
        <time>2013-07-31T16:19:23Z</time>
      </trkpt>
      <trkpt lat="42.606524" lon="1.417207">
        <ele>2325.8</ele>
        <time>2013-07-31T16:19:28Z</time>
      </trkpt>
      <trkpt lat="42.606472" lon="1.417227">
        <ele>2327.0</ele>
        <time>2013-07-31T16:19:36Z</time>
      </trkpt>
      <trkpt lat="42.606397" lon="1.417327">
        <ele>2329.3</ele>
        <time>2013-07-31T16:19:50Z</time>
      </trkpt>
      <trkpt lat="42.606353" lon="1.417376">
        <ele>2330.8</ele>
        <time>2013-07-31T16:20:01Z</time>
      </trkpt>
      <trkpt lat="42.606301" lon="1.417397">
        <ele>2332.2</ele>
        <time>2013-07-31T16:20:11Z</time>
      </trkpt>
      <trkpt lat="42.606222" lon="1.417452">
        <ele>2332.4</ele>
        <time>2013-07-31T16:20:20Z</time>
      </trkpt>
      <trkpt lat="42.606208" lon="1.417475">
        <ele>2332.6</ele>
        <time>2013-07-31T16:20:22Z</time>
      </trkpt>
      <trkpt lat="42.606137" lon="1.417532">
        <ele>2333.7</ele>
        <time>2013-07-31T16:20:32Z</time>
      </trkpt>
      <trkpt lat="42.606080" lon="1.417605">
        <ele>2335.0</ele>
        <time>2013-07-31T16:20:43Z</time>
      </trkpt>
      <trkpt lat="42.606037" lon="1.417641">
        <ele>2336.2</ele>
        <time>2013-07-31T16:20:54Z</time>
      </trkpt>
      <trkpt lat="42.606019" lon="1.417669">
        <ele>2337.1</ele>
        <time>2013-07-31T16:21:04Z</time>
      </trkpt>
      <trkpt lat="42.605978" lon="1.417708">
        <ele>2339.5</ele>
        <time>2013-07-31T16:21:15Z</time>
      </trkpt>
      <trkpt lat="42.605897" lon="1.417734">
        <ele>2340.8</ele>
        <time>2013-07-31T16:21:30Z</time>
      </trkpt>
      <trkpt lat="42.605842" lon="1.417741">
        <ele>2340.4</ele>
        <time>2013-07-31T16:21:36Z</time>
      </trkpt>
      <trkpt lat="42.605723" lon="1.417773">
        <ele>2341.7</ele>
        <time>2013-07-31T16:21:49Z</time>
      </trkpt>
      <trkpt lat="42.605631" lon="1.417771">
        <ele>2342.5</ele>
        <time>2013-07-31T16:22:00Z</time>
      </trkpt>
      <trkpt lat="42.605537" lon="1.417776">
        <ele>2342.7</ele>
        <time>2013-07-31T16:22:10Z</time>
      </trkpt>
      <trkpt lat="42.605515" lon="1.417771">
        <ele>2343.0</ele>
        <time>2013-07-31T16:22:12Z</time>
      </trkpt>
      <trkpt lat="42.605394" lon="1.417786">
        <ele>2343.5</ele>
        <time>2013-07-31T16:22:24Z</time>
      </trkpt>
      <trkpt lat="42.605313" lon="1.417807">
        <ele>2343.6</ele>
        <time>2013-07-31T16:22:36Z</time>
      </trkpt>
      <trkpt lat="42.605296" lon="1.417816">
        <ele>2343.7</ele>
        <time>2013-07-31T16:22:41Z</time>
      </trkpt>
      <trkpt lat="42.605253" lon="1.417856">
        <ele>2343.9</ele>
        <time>2013-07-31T16:22:53Z</time>
      </trkpt>
      <trkpt lat="42.605228" lon="1.417938">
        <ele>2345.3</ele>
        <time>2013-07-31T16:23:04Z</time>
      </trkpt>
      <trkpt lat="42.605223" lon="1.417957">
        <ele>2345.9</ele>
        <time>2013-07-31T16:23:06Z</time>
      </trkpt>
      <trkpt lat="42.605191" lon="1.418000">
        <ele>2348.0</ele>
        <time>2013-07-31T16:23:17Z</time>
      </trkpt>
      <trkpt lat="42.605167" lon="1.418058">
        <ele>2349.1</ele>
        <time>2013-07-31T16:23:27Z</time>
      </trkpt>
      <trkpt lat="42.605122" lon="1.418118">
        <ele>2350.0</ele>
        <time>2013-07-31T16:23:37Z</time>
      </trkpt>
      <trkpt lat="42.605075" lon="1.418155">
        <ele>2351.1</ele>
        <time>2013-07-31T16:23:47Z</time>
      </trkpt>
      <trkpt lat="42.605021" lon="1.418191">
        <ele>2353.3</ele>
        <time>2013-07-31T16:23:57Z</time>
      </trkpt>
      <trkpt lat="42.604950" lon="1.418200">
        <ele>2354.3</ele>
        <time>2013-07-31T16:24:06Z</time>
      </trkpt>
      <trkpt lat="42.604916" lon="1.418215">
        <ele>2354.5</ele>
        <time>2013-07-31T16:24:11Z</time>
      </trkpt>
      <trkpt lat="42.604902" lon="1.418226">
        <ele>2354.7</ele>
        <time>2013-07-31T16:24:16Z</time>
      </trkpt>
      <trkpt lat="42.604888" lon="1.418212">
        <ele>2355.1</ele>
        <time>2013-07-31T16:24:27Z</time>
      </trkpt>
      <trkpt lat="42.604847" lon="1.418238">
        <ele>2356.4</ele>
        <time>2013-07-31T16:24:37Z</time>
      </trkpt>
      <trkpt lat="42.604810" lon="1.418251">
        <ele>2357.7</ele>
        <time>2013-07-31T16:24:43Z</time>
      </trkpt>
      <trkpt lat="42.604737" lon="1.418266">
        <ele>2360.9</ele>
        <time>2013-07-31T16:24:55Z</time>
      </trkpt>
      <trkpt lat="42.604714" lon="1.418259">
        <ele>2360.9</ele>
        <time>2013-07-31T16:25:06Z</time>
      </trkpt>
      <trkpt lat="42.604643" lon="1.418278">
        <ele>2358.6</ele>
        <time>2013-07-31T16:25:12Z</time>
      </trkpt>
      <trkpt lat="42.604540" lon="1.418312">
        <ele>2358.4</ele>
        <time>2013-07-31T16:25:22Z</time>
      </trkpt>
      <trkpt lat="42.604486" lon="1.418341">
        <ele>2358.6</ele>
        <time>2013-07-31T16:25:29Z</time>
      </trkpt>
      <trkpt lat="42.604419" lon="1.418356">
        <ele>2357.9</ele>
        <time>2013-07-31T16:25:34Z</time>
      </trkpt>
      <trkpt lat="42.604399" lon="1.418377">
        <ele>2357.4</ele>
        <time>2013-07-31T16:25:36Z</time>
      </trkpt>
      <trkpt lat="42.604335" lon="1.418444">
        <ele>2356.9</ele>
        <time>2013-07-31T16:25:43Z</time>
      </trkpt>
      <trkpt lat="42.604250" lon="1.418492">
        <ele>2357.6</ele>
        <time>2013-07-31T16:25:51Z</time>
      </trkpt>
      <trkpt lat="42.604222" lon="1.418496">
        <ele>2358.0</ele>
        <time>2013-07-31T16:25:54Z</time>
      </trkpt>
      <trkpt lat="42.604165" lon="1.418545">
        <ele>2358.2</ele>
        <time>2013-07-31T16:26:00Z</time>
      </trkpt>
      <trkpt lat="42.604048" lon="1.418593">
        <ele>2359.0</ele>
        <time>2013-07-31T16:26:12Z</time>
      </trkpt>
      <trkpt lat="42.603928" lon="1.418641">
        <ele>2359.1</ele>
        <time>2013-07-31T16:26:24Z</time>
      </trkpt>
      <trkpt lat="42.603861" lon="1.418690">
        <ele>2360.3</ele>
        <time>2013-07-31T16:26:34Z</time>
      </trkpt>
      <trkpt lat="42.603793" lon="1.418723">
        <ele>2361.5</ele>
        <time>2013-07-31T16:26:42Z</time>
      </trkpt>
      <trkpt lat="42.603720" lon="1.418737">
        <ele>2362.7</ele>
        <time>2013-07-31T16:26:53Z</time>
      </trkpt>
      <trkpt lat="42.603662" lon="1.418745">
        <ele>2364.3</ele>
        <time>2013-07-31T16:27:03Z</time>
      </trkpt>
      <trkpt lat="42.603641" lon="1.418753">
        <ele>2365.1</ele>
        <time>2013-07-31T16:27:13Z</time>
      </trkpt>
      <trkpt lat="42.603612" lon="1.418795">
        <ele>2366.0</ele>
        <time>2013-07-31T16:27:21Z</time>
      </trkpt>
      <trkpt lat="42.603527" lon="1.418888">
        <ele>2368.1</ele>
        <time>2013-07-31T16:27:32Z</time>
      </trkpt>
      <trkpt lat="42.603427" lon="1.418943">
        <ele>2368.9</ele>
        <time>2013-07-31T16:27:43Z</time>
      </trkpt>
      <trkpt lat="42.603283" lon="1.419007">
        <ele>2367.9</ele>
        <time>2013-07-31T16:27:55Z</time>
      </trkpt>
      <trkpt lat="42.603174" lon="1.419091">
        <ele>2367.1</ele>
        <time>2013-07-31T16:28:08Z</time>
      </trkpt>
      <trkpt lat="42.603142" lon="1.419143">
        <ele>2367.4</ele>
        <time>2013-07-31T16:28:14Z</time>
      </trkpt>
      <trkpt lat="42.603123" lon="1.419192">
        <ele>2367.5</ele>
        <time>2013-07-31T16:28:18Z</time>
      </trkpt>
      <trkpt lat="42.603119" lon="1.419219">
        <ele>2367.4</ele>
        <time>2013-07-31T16:28:20Z</time>
      </trkpt>
      <trkpt lat="42.603049" lon="1.419272">
        <ele>2368.0</ele>
        <time>2013-07-31T16:28:30Z</time>
      </trkpt>
      <trkpt lat="42.603044" lon="1.419276">
        <ele>2368.1</ele>
        <time>2013-07-31T16:28:31Z</time>
      </trkpt>
      <trkpt lat="42.603013" lon="1.419302">
        <ele>2368.0</ele>
        <time>2013-07-31T16:28:36Z</time>
      </trkpt>
      <trkpt lat="42.602992" lon="1.419387">
        <ele>2367.2</ele>
        <time>2013-07-31T16:28:47Z</time>
      </trkpt>
      <trkpt lat="42.602974" lon="1.419412">
        <ele>2367.8</ele>
        <time>2013-07-31T16:28:52Z</time>
      </trkpt>
      <trkpt lat="42.602942" lon="1.419459">
        <ele>2369.4</ele>
        <time>2013-07-31T16:29:04Z</time>
      </trkpt>
      <trkpt lat="42.602937" lon="1.419499">
        <ele>2370.5</ele>
        <time>2013-07-31T16:29:14Z</time>
      </trkpt>
      <trkpt lat="42.602937" lon="1.419499">
        <ele>2370.5</ele>
        <time>2013-07-31T16:29:16Z</time>
      </trkpt>
      <trkpt lat="42.602924" lon="1.419501">
        <ele>2371.0</ele>
        <time>2013-07-31T16:29:24Z</time>
      </trkpt>
      <trkpt lat="42.602897" lon="1.419499">
        <ele>2372.0</ele>
        <time>2013-07-31T16:29:38Z</time>
      </trkpt>
      <trkpt lat="42.602878" lon="1.419483">
        <ele>2372.7</ele>
        <time>2013-07-31T16:29:41Z</time>
      </trkpt>
      <trkpt lat="42.602864" lon="1.419475">
        <ele>2373.3</ele>
        <time>2013-07-31T16:29:58Z</time>
      </trkpt>
      <trkpt lat="42.602866" lon="1.419488">
        <ele>2373.3</ele>
        <time>2013-07-31T16:30:23Z</time>
      </trkpt>
      <trkpt lat="42.602866" lon="1.419488">
        <ele>2373.3</ele>
        <time>2013-07-31T16:30:48Z</time>
      </trkpt>
      <trkpt lat="42.602854" lon="1.419522">
        <ele>2374.0</ele>
        <time>2013-07-31T16:30:51Z</time>
      </trkpt>
      <trkpt lat="42.602824" lon="1.419543">
        <ele>2373.8</ele>
        <time>2013-07-31T16:30:54Z</time>
      </trkpt>
      <trkpt lat="42.602743" lon="1.419706">
        <ele>2373.7</ele>
        <time>2013-07-31T16:41:34Z</time>
      </trkpt>
      <trkpt lat="42.602742" lon="1.419714">
        <ele>2373.8</ele>
        <time>2013-07-31T16:41:35Z</time>
      </trkpt>
      <trkpt lat="42.602731" lon="1.419730">
        <ele>2373.9</ele>
        <time>2013-07-31T16:41:37Z</time>
      </trkpt>
      <trkpt lat="42.602643" lon="1.419845">
        <ele>2373.9</ele>
        <time>2013-07-31T16:41:49Z</time>
      </trkpt>
      <trkpt lat="42.602614" lon="1.419873">
        <ele>2373.7</ele>
        <time>2013-07-31T16:41:53Z</time>
      </trkpt>
      <trkpt lat="42.602532" lon="1.419975">
        <ele>2374.1</ele>
        <time>2013-07-31T16:42:04Z</time>
      </trkpt>
      <trkpt lat="42.602524" lon="1.419984">
        <ele>2374.1</ele>
        <time>2013-07-31T16:42:05Z</time>
      </trkpt>
      <trkpt lat="42.602515" lon="1.420006">
        <ele>2374.3</ele>
        <time>2013-07-31T16:42:07Z</time>
      </trkpt>
      <trkpt lat="42.602464" lon="1.420117">
        <ele>2374.3</ele>
        <time>2013-07-31T16:42:16Z</time>
      </trkpt>
      <trkpt lat="42.602457" lon="1.420136">
        <ele>2374.2</ele>
        <time>2013-07-31T16:42:18Z</time>
      </trkpt>
      <trkpt lat="42.602426" lon="1.420203">
        <ele>2374.0</ele>
        <time>2013-07-31T16:42:24Z</time>
      </trkpt>
      <trkpt lat="42.602406" lon="1.420233">
        <ele>2373.9</ele>
        <time>2013-07-31T16:42:27Z</time>
      </trkpt>
      <trkpt lat="42.602392" lon="1.420253">
        <ele>2373.8</ele>
        <time>2013-07-31T16:42:29Z</time>
      </trkpt>
      <trkpt lat="42.602333" lon="1.420413">
        <ele>2373.9</ele>
        <time>2013-07-31T16:42:41Z</time>
      </trkpt>
      <trkpt lat="42.602311" lon="1.420454">
        <ele>2374.1</ele>
        <time>2013-07-31T16:42:45Z</time>
      </trkpt>
      <trkpt lat="42.602214" lon="1.420510">
        <ele>2374.1</ele>
        <time>2013-07-31T16:42:56Z</time>
      </trkpt>
      <trkpt lat="42.602080" lon="1.420624">
        <ele>2372.2</ele>
        <time>2013-07-31T16:43:10Z</time>
      </trkpt>
      <trkpt lat="42.602033" lon="1.420649">
        <ele>2371.9</ele>
        <time>2013-07-31T16:43:14Z</time>
      </trkpt>
      <trkpt lat="42.601989" lon="1.420700">
        <ele>2370.6</ele>
        <time>2013-07-31T16:43:20Z</time>
      </trkpt>
      <trkpt lat="42.601960" lon="1.420728">
        <ele>2370.4</ele>
        <time>2013-07-31T16:43:23Z</time>
      </trkpt>
      <trkpt lat="42.601928" lon="1.420765">
        <ele>2369.9</ele>
        <time>2013-07-31T16:43:27Z</time>
      </trkpt>
      <trkpt lat="42.601847" lon="1.420956">
        <ele>2370.1</ele>
        <time>2013-07-31T16:43:40Z</time>
      </trkpt>
      <trkpt lat="42.601762" lon="1.421082">
        <ele>2369.5</ele>
        <time>2013-07-31T16:43:50Z</time>
      </trkpt>
      <trkpt lat="42.601693" lon="1.421190">
        <ele>2369.5</ele>
        <time>2013-07-31T16:44:01Z</time>
      </trkpt>
      <trkpt lat="42.601693" lon="1.421218">
        <ele>2369.5</ele>
        <time>2013-07-31T16:44:03Z</time>
      </trkpt>
      <trkpt lat="42.601674" lon="1.421279">
        <ele>2369.6</ele>
        <time>2013-07-31T16:44:10Z</time>
      </trkpt>
      <trkpt lat="42.601635" lon="1.421365">
        <ele>2369.5</ele>
        <time>2013-07-31T16:44:18Z</time>
      </trkpt>
      <trkpt lat="42.601649" lon="1.421405">
        <ele>2369.4</ele>
        <time>2013-07-31T16:44:22Z</time>
      </trkpt>
      <trkpt lat="42.601658" lon="1.421535">
        <ele>2369.7</ele>
        <time>2013-07-31T16:44:33Z</time>
      </trkpt>
      <trkpt lat="42.601656" lon="1.421559">
        <ele>2369.8</ele>
        <time>2013-07-31T16:44:35Z</time>
      </trkpt>
      <trkpt lat="42.601650" lon="1.421722">
        <ele>2370.4</ele>
        <time>2013-07-31T16:44:47Z</time>
      </trkpt>
      <trkpt lat="42.601658" lon="1.421825">
        <ele>2371.6</ele>
        <time>2013-07-31T16:44:57Z</time>
      </trkpt>
      <trkpt lat="42.601597" lon="1.421875">
        <ele>2373.2</ele>
        <time>2013-07-31T16:45:07Z</time>
      </trkpt>
      <trkpt lat="42.601552" lon="1.421921">
        <ele>2374.8</ele>
        <time>2013-07-31T16:45:18Z</time>
      </trkpt>
      <trkpt lat="42.601547" lon="1.421955">
        <ele>2375.9</ele>
        <time>2013-07-31T16:45:29Z</time>
      </trkpt>
      <trkpt lat="42.601517" lon="1.422057">
        <ele>2378.5</ele>
        <time>2013-07-31T16:45:40Z</time>
      </trkpt>
      <trkpt lat="42.601441" lon="1.422161">
        <ele>2379.9</ele>
        <time>2013-07-31T16:45:52Z</time>
      </trkpt>
      <trkpt lat="42.601377" lon="1.422189">
        <ele>2380.6</ele>
        <time>2013-07-31T16:46:01Z</time>
      </trkpt>
      <trkpt lat="42.601343" lon="1.422223">
        <ele>2381.2</ele>
        <time>2013-07-31T16:46:07Z</time>
      </trkpt>
      <trkpt lat="42.601329" lon="1.422276">
        <ele>2382.2</ele>
        <time>2013-07-31T16:46:18Z</time>
      </trkpt>
      <trkpt lat="42.601317" lon="1.422345">
        <ele>2383.7</ele>
        <time>2013-07-31T16:46:29Z</time>
      </trkpt>
      <trkpt lat="42.601317" lon="1.422345">
        <ele>2383.7</ele>
        <time>2013-07-31T16:46:30Z</time>
      </trkpt>
      <trkpt lat="42.601311" lon="1.422355">
        <ele>2383.8</ele>
        <time>2013-07-31T16:46:32Z</time>
      </trkpt>
      <trkpt lat="42.601301" lon="1.422385">
        <ele>2384.5</ele>
        <time>2013-07-31T16:46:44Z</time>
      </trkpt>
      <trkpt lat="42.601288" lon="1.422432">
        <ele>2385.5</ele>
        <time>2013-07-31T16:46:52Z</time>
      </trkpt>
      <trkpt lat="42.601286" lon="1.422517">
        <ele>2387.5</ele>
        <time>2013-07-31T16:47:04Z</time>
      </trkpt>
      <trkpt lat="42.601233" lon="1.422647">
        <ele>2389.6</ele>
        <time>2013-07-31T16:47:15Z</time>
      </trkpt>
      <trkpt lat="42.601227" lon="1.422713">
        <ele>2391.1</ele>
        <time>2013-07-31T16:47:24Z</time>
      </trkpt>
      <trkpt lat="42.601221" lon="1.422798">
        <ele>2392.9</ele>
        <time>2013-07-31T16:47:36Z</time>
      </trkpt>
      <trkpt lat="42.601215" lon="1.422880">
        <ele>2394.3</ele>
        <time>2013-07-31T16:47:43Z</time>
      </trkpt>
      <trkpt lat="42.601181" lon="1.422963">
        <ele>2395.7</ele>
        <time>2013-07-31T16:47:51Z</time>
      </trkpt>
      <trkpt lat="42.601149" lon="1.423024">
        <ele>2397.0</ele>
        <time>2013-07-31T16:48:01Z</time>
      </trkpt>
      <trkpt lat="42.601108" lon="1.423087">
        <ele>2398.7</ele>
        <time>2013-07-31T16:48:09Z</time>
      </trkpt>
      <trkpt lat="42.601106" lon="1.423114">
        <ele>2399.3</ele>
        <time>2013-07-31T16:48:12Z</time>
      </trkpt>
      <trkpt lat="42.601087" lon="1.423256">
        <ele>2400.9</ele>
        <time>2013-07-31T16:48:24Z</time>
      </trkpt>
      <trkpt lat="42.601101" lon="1.423291">
        <ele>2401.0</ele>
        <time>2013-07-31T16:48:27Z</time>
      </trkpt>
      <trkpt lat="42.601139" lon="1.423426">
        <ele>2402.5</ele>
        <time>2013-07-31T16:48:38Z</time>
      </trkpt>
      <trkpt lat="42.601142" lon="1.423528">
        <ele>2404.2</ele>
        <time>2013-07-31T16:48:49Z</time>
      </trkpt>
      <trkpt lat="42.601141" lon="1.423554">
        <ele>2404.5</ele>
        <time>2013-07-31T16:48:52Z</time>
      </trkpt>
      <trkpt lat="42.601143" lon="1.423564">
        <ele>2404.7</ele>
        <time>2013-07-31T16:48:57Z</time>
      </trkpt>
      <trkpt lat="42.601139" lon="1.423702">
        <ele>2405.9</ele>
        <time>2013-07-31T16:49:08Z</time>
      </trkpt>
      <trkpt lat="42.601138" lon="1.423713">
        <ele>2405.9</ele>
        <time>2013-07-31T16:49:09Z</time>
      </trkpt>
      <trkpt lat="42.601128" lon="1.423747">
        <ele>2406.3</ele>
        <time>2013-07-31T16:49:12Z</time>
      </trkpt>
      <trkpt lat="42.601137" lon="1.423876">
        <ele>2407.5</ele>
        <time>2013-07-31T16:49:24Z</time>
      </trkpt>
      <trkpt lat="42.601130" lon="1.423952">
        <ele>2408.6</ele>
        <time>2013-07-31T16:49:35Z</time>
      </trkpt>
      <trkpt lat="42.601118" lon="1.424010">
        <ele>2409.5</ele>
        <time>2013-07-31T16:49:40Z</time>
      </trkpt>
      <trkpt lat="42.601082" lon="1.424127">
        <ele>2409.7</ele>
        <time>2013-07-31T16:49:51Z</time>
      </trkpt>
      <trkpt lat="42.601052" lon="1.424240">
        <ele>2411.0</ele>
        <time>2013-07-31T16:50:02Z</time>
      </trkpt>
      <trkpt lat="42.601049" lon="1.424248">
        <ele>2411.0</ele>
        <time>2013-07-31T16:50:03Z</time>
      </trkpt>
      <trkpt lat="42.601036" lon="1.424282">
        <ele>2411.3</ele>
        <time>2013-07-31T16:50:06Z</time>
      </trkpt>
      <trkpt lat="42.601026" lon="1.424320">
        <ele>2411.6</ele>
        <time>2013-07-31T16:50:09Z</time>
      </trkpt>
      <trkpt lat="42.601013" lon="1.424365">
        <ele>2411.9</ele>
        <time>2013-07-31T16:50:13Z</time>
      </trkpt>
      <trkpt lat="42.601002" lon="1.424416">
        <ele>2412.3</ele>
        <time>2013-07-31T16:50:18Z</time>
      </trkpt>
      <trkpt lat="42.600985" lon="1.424433">
        <ele>2412.3</ele>
        <time>2013-07-31T16:50:21Z</time>
      </trkpt>
      <trkpt lat="42.600934" lon="1.424537">
        <ele>2413.7</ele>
        <time>2013-07-31T16:50:32Z</time>
      </trkpt>
      <trkpt lat="42.600906" lon="1.424655">
        <ele>2415.0</ele>
        <time>2013-07-31T16:50:41Z</time>
      </trkpt>
      <trkpt lat="42.600859" lon="1.424720">
        <ele>2415.6</ele>
        <time>2013-07-31T16:50:49Z</time>
      </trkpt>
      <trkpt lat="42.600840" lon="1.424756">
        <ele>2416.0</ele>
        <time>2013-07-31T16:50:53Z</time>
      </trkpt>
      <trkpt lat="42.600820" lon="1.424824">
        <ele>2416.2</ele>
        <time>2013-07-31T16:50:59Z</time>
      </trkpt>
      <trkpt lat="42.600796" lon="1.424851">
        <ele>2416.1</ele>
        <time>2013-07-31T16:51:03Z</time>
      </trkpt>
      <trkpt lat="42.600777" lon="1.424895">
        <ele>2416.2</ele>
        <time>2013-07-31T16:51:08Z</time>
      </trkpt>
      <trkpt lat="42.600755" lon="1.424964">
        <ele>2416.6</ele>
        <time>2013-07-31T16:51:15Z</time>
      </trkpt>
      <trkpt lat="42.600727" lon="1.425002">
        <ele>2416.7</ele>
        <time>2013-07-31T16:51:20Z</time>
      </trkpt>
      <trkpt lat="42.600707" lon="1.425105">
        <ele>2417.2</ele>
        <time>2013-07-31T16:51:32Z</time>
      </trkpt>
      <trkpt lat="42.600698" lon="1.425172">
        <ele>2417.5</ele>
        <time>2013-07-31T16:51:43Z</time>
      </trkpt>
      <trkpt lat="42.600695" lon="1.425176">
        <ele>2417.6</ele>
        <time>2013-07-31T16:51:44Z</time>
      </trkpt>
      <trkpt lat="42.600677" lon="1.425225">
        <ele>2417.8</ele>
        <time>2013-07-31T16:51:53Z</time>
      </trkpt>
      <trkpt lat="42.600657" lon="1.425308">
        <ele>2417.9</ele>
        <time>2013-07-31T16:52:01Z</time>
      </trkpt>
      <trkpt lat="42.600628" lon="1.425355">
        <ele>2418.4</ele>
        <time>2013-07-31T16:52:12Z</time>
      </trkpt>
      <trkpt lat="42.600588" lon="1.425396">
        <ele>2419.2</ele>
        <time>2013-07-31T16:52:23Z</time>
      </trkpt>
      <trkpt lat="42.600564" lon="1.425448">
        <ele>2419.4</ele>
        <time>2013-07-31T16:52:31Z</time>
      </trkpt>
      <trkpt lat="42.600530" lon="1.425508">
        <ele>2419.7</ele>
        <time>2013-07-31T16:52:43Z</time>
      </trkpt>
      <trkpt lat="42.600523" lon="1.425515">
        <ele>2419.8</ele>
        <time>2013-07-31T16:52:58Z</time>
      </trkpt>
      <trkpt lat="42.600494" lon="1.425609">
        <ele>2420.0</ele>
        <time>2013-07-31T16:53:03Z</time>
      </trkpt>
      <trkpt lat="42.600480" lon="1.425635">
        <ele>2420.1</ele>
        <time>2013-07-31T16:53:05Z</time>
      </trkpt>
      <trkpt lat="42.600412" lon="1.425712">
        <ele>2420.9</ele>
        <time>2013-07-31T16:53:15Z</time>
      </trkpt>
      <trkpt lat="42.600358" lon="1.425743">
        <ele>2421.4</ele>
        <time>2013-07-31T16:53:21Z</time>
      </trkpt>
      <trkpt lat="42.600343" lon="1.425758">
        <ele>2421.5</ele>
        <time>2013-07-31T16:53:23Z</time>
      </trkpt>
      <trkpt lat="42.600286" lon="1.425825">
        <ele>2422.1</ele>
        <time>2013-07-31T16:53:32Z</time>
      </trkpt>
      <trkpt lat="42.600250" lon="1.425865">
        <ele>2423.0</ele>
        <time>2013-07-31T16:53:38Z</time>
      </trkpt>
      <trkpt lat="42.600235" lon="1.425889">
        <ele>2423.4</ele>
        <time>2013-07-31T16:53:44Z</time>
      </trkpt>
      <trkpt lat="42.600189" lon="1.425942">
        <ele>2424.8</ele>
        <time>2013-07-31T16:53:54Z</time>
      </trkpt>
      <trkpt lat="42.600169" lon="1.425985">
        <ele>2425.7</ele>
        <time>2013-07-31T16:54:01Z</time>
      </trkpt>
      <trkpt lat="42.600152" lon="1.426054">
        <ele>2427.5</ele>
        <time>2013-07-31T16:54:11Z</time>
      </trkpt>
      <trkpt lat="42.600142" lon="1.426110">
        <ele>2429.1</ele>
        <time>2013-07-31T16:54:21Z</time>
      </trkpt>
      <trkpt lat="42.600129" lon="1.426171">
        <ele>2430.7</ele>
        <time>2013-07-31T16:54:31Z</time>
      </trkpt>
      <trkpt lat="42.600113" lon="1.426246">
        <ele>2432.8</ele>
        <time>2013-07-31T16:54:39Z</time>
      </trkpt>
      <trkpt lat="42.600090" lon="1.426319">
        <ele>2433.7</ele>
        <time>2013-07-31T16:54:50Z</time>
      </trkpt>
      <trkpt lat="42.600067" lon="1.426346">
        <ele>2434.9</ele>
        <time>2013-07-31T16:55:04Z</time>
      </trkpt>
      <trkpt lat="42.600030" lon="1.426365">
        <ele>2436.2</ele>
        <time>2013-07-31T16:55:15Z</time>
      </trkpt>
      <trkpt lat="42.600031" lon="1.426362">
        <ele>2436.3</ele>
        <time>2013-07-31T16:55:34Z</time>
      </trkpt>
      <trkpt lat="42.600038" lon="1.426330">
        <ele>2436.3</ele>
        <time>2013-07-31T16:55:47Z</time>
      </trkpt>
      <trkpt lat="42.599958" lon="1.426332">
        <ele>2437.9</ele>
        <time>2013-07-31T16:55:59Z</time>
      </trkpt>
      <trkpt lat="42.599870" lon="1.426341">
        <ele>2439.8</ele>
        <time>2013-07-31T16:56:11Z</time>
      </trkpt>
      <trkpt lat="42.599854" lon="1.426342">
        <ele>2440.2</ele>
        <time>2013-07-31T16:56:13Z</time>
      </trkpt>
      <trkpt lat="42.599835" lon="1.426334">
        <ele>2440.8</ele>
        <time>2013-07-31T16:56:15Z</time>
      </trkpt>
      <trkpt lat="42.599769" lon="1.426322">
        <ele>2441.4</ele>
        <time>2013-07-31T16:56:22Z</time>
      </trkpt>
      <trkpt lat="42.599725" lon="1.426308">
        <ele>2441.3</ele>
        <time>2013-07-31T16:56:26Z</time>
      </trkpt>
      <trkpt lat="42.599555" lon="1.426358">
        <ele>2440.8</ele>
        <time>2013-07-31T16:56:41Z</time>
      </trkpt>
      <trkpt lat="42.599494" lon="1.426396">
        <ele>2440.5</ele>
        <time>2013-07-31T16:56:47Z</time>
      </trkpt>
      <trkpt lat="42.599398" lon="1.426431">
        <ele>2440.4</ele>
        <time>2013-07-31T16:56:57Z</time>
      </trkpt>
      <trkpt lat="42.599326" lon="1.426469">
        <ele>2440.0</ele>
        <time>2013-07-31T16:57:10Z</time>
      </trkpt>
      <trkpt lat="42.599326" lon="1.426469">
        <ele>2440.0</ele>
        <time>2013-07-31T16:57:30Z</time>
      </trkpt>
      <trkpt lat="42.599290" lon="1.426475">
        <ele>2440.4</ele>
        <time>2013-07-31T16:57:34Z</time>
      </trkpt>
      <trkpt lat="42.599231" lon="1.426493">
        <ele>2440.9</ele>
        <time>2013-07-31T16:57:40Z</time>
      </trkpt>
      <trkpt lat="42.599118" lon="1.426534">
        <ele>2441.9</ele>
        <time>2013-07-31T16:57:51Z</time>
      </trkpt>
      <trkpt lat="42.599073" lon="1.426533">
        <ele>2442.3</ele>
        <time>2013-07-31T16:57:56Z</time>
      </trkpt>
      <trkpt lat="42.599033" lon="1.426534">
        <ele>2442.4</ele>
        <time>2013-07-31T16:58:01Z</time>
      </trkpt>
      <trkpt lat="42.598935" lon="1.426536">
        <ele>2442.9</ele>
        <time>2013-07-31T16:58:12Z</time>
      </trkpt>
      <trkpt lat="42.598886" lon="1.426547">
        <ele>2443.0</ele>
        <time>2013-07-31T16:58:17Z</time>
      </trkpt>
      <trkpt lat="42.598861" lon="1.426541">
        <ele>2443.5</ele>
        <time>2013-07-31T16:58:20Z</time>
      </trkpt>
      <trkpt lat="42.598832" lon="1.426546">
        <ele>2443.7</ele>
        <time>2013-07-31T16:58:24Z</time>
      </trkpt>
      <trkpt lat="42.598722" lon="1.426560">
        <ele>2444.8</ele>
        <time>2013-07-31T16:58:36Z</time>
      </trkpt>
      <trkpt lat="42.598601" lon="1.426528">
        <ele>2448.1</ele>
        <time>2013-07-31T17:02:32Z</time>
      </trkpt>
      <trkpt lat="42.598526" lon="1.426502">
        <ele>2450.0</ele>
        <time>2013-07-31T17:02:45Z</time>
      </trkpt>
      <trkpt lat="42.598458" lon="1.426482">
        <ele>2451.7</ele>
        <time>2013-07-31T17:02:57Z</time>
      </trkpt>
      <trkpt lat="42.598402" lon="1.426444">
        <ele>2453.8</ele>
        <time>2013-07-31T17:03:07Z</time>
      </trkpt>
      <trkpt lat="42.598345" lon="1.426448">
        <ele>2454.9</ele>
        <time>2013-07-31T17:03:18Z</time>
      </trkpt>
      <trkpt lat="42.598293" lon="1.426429">
        <ele>2456.8</ele>
        <time>2013-07-31T17:03:28Z</time>
      </trkpt>
      <trkpt lat="42.598231" lon="1.426430">
        <ele>2458.5</ele>
        <time>2013-07-31T17:03:40Z</time>
      </trkpt>
      <trkpt lat="42.598205" lon="1.426425">
        <ele>2459.4</ele>
        <time>2013-07-31T17:03:49Z</time>
      </trkpt>
      <trkpt lat="42.598142" lon="1.426512">
        <ele>2459.8</ele>
        <time>2013-07-31T17:04:01Z</time>
      </trkpt>
      <trkpt lat="42.598114" lon="1.426564">
        <ele>2459.7</ele>
        <time>2013-07-31T17:04:07Z</time>
      </trkpt>
      <trkpt lat="42.598107" lon="1.426617">
        <ele>2459.3</ele>
        <time>2013-07-31T17:04:20Z</time>
      </trkpt>
      <trkpt lat="42.598089" lon="1.426601">
        <ele>2460.4</ele>
        <time>2013-07-31T17:04:31Z</time>
      </trkpt>
      <trkpt lat="42.598078" lon="1.426597">
        <ele>2461.0</ele>
        <time>2013-07-31T17:04:38Z</time>
      </trkpt>
      <trkpt lat="42.598010" lon="1.426675">
        <ele>2464.8</ele>
        <time>2013-07-31T17:04:49Z</time>
      </trkpt>
      <trkpt lat="42.597999" lon="1.426697">
        <ele>2465.4</ele>
        <time>2013-07-31T17:04:52Z</time>
      </trkpt>
      <trkpt lat="42.597989" lon="1.426731">
        <ele>2466.0</ele>
        <time>2013-07-31T17:04:55Z</time>
      </trkpt>
      <trkpt lat="42.597971" lon="1.426775">
        <ele>2466.9</ele>
        <time>2013-07-31T17:05:00Z</time>
      </trkpt>
      <trkpt lat="42.597908" lon="1.426855">
        <ele>2468.4</ele>
        <time>2013-07-31T17:05:12Z</time>
      </trkpt>
      <trkpt lat="42.597896" lon="1.426868">
        <ele>2468.5</ele>
        <time>2013-07-31T17:05:14Z</time>
      </trkpt>
      <trkpt lat="42.597873" lon="1.426888">
        <ele>2468.7</ele>
        <time>2013-07-31T17:05:17Z</time>
      </trkpt>
      <trkpt lat="42.597837" lon="1.426928">
        <ele>2469.7</ele>
        <time>2013-07-31T17:05:23Z</time>
      </trkpt>
      <trkpt lat="42.597795" lon="1.426977">
        <ele>2471.1</ele>
        <time>2013-07-31T17:05:33Z</time>
      </trkpt>
      <trkpt lat="42.597763" lon="1.427058">
        <ele>2472.2</ele>
        <time>2013-07-31T17:05:41Z</time>
      </trkpt>
      <trkpt lat="42.597678" lon="1.427174">
        <ele>2472.3</ele>
        <time>2013-07-31T17:05:53Z</time>
      </trkpt>
      <trkpt lat="42.597649" lon="1.427208">
        <ele>2473.3</ele>
        <time>2013-07-31T17:06:01Z</time>
      </trkpt>
      <trkpt lat="42.597627" lon="1.427209">
        <ele>2473.8</ele>
        <time>2013-07-31T17:06:04Z</time>
      </trkpt>
      <trkpt lat="42.597559" lon="1.427273">
        <ele>2475.0</ele>
        <time>2013-07-31T17:06:15Z</time>
      </trkpt>
      <trkpt lat="42.597488" lon="1.427327">
        <ele>2475.3</ele>
        <time>2013-07-31T17:06:26Z</time>
      </trkpt>
      <trkpt lat="42.597438" lon="1.427327">
        <ele>2476.2</ele>
        <time>2013-07-31T17:06:37Z</time>
      </trkpt>
      <trkpt lat="42.597383" lon="1.427420">
        <ele>2476.3</ele>
        <time>2013-07-31T17:06:48Z</time>
      </trkpt>
      <trkpt lat="42.597372" lon="1.427479">
        <ele>2477.0</ele>
        <time>2013-07-31T17:06:55Z</time>
      </trkpt>
      <trkpt lat="42.597368" lon="1.427514">
        <ele>2477.6</ele>
        <time>2013-07-31T17:06:59Z</time>
      </trkpt>
      <trkpt lat="42.597372" lon="1.427674">
        <ele>2478.2</ele>
        <time>2013-07-31T17:07:11Z</time>
      </trkpt>
      <trkpt lat="42.597370" lon="1.427685">
        <ele>2478.2</ele>
        <time>2013-07-31T17:07:12Z</time>
      </trkpt>
      <trkpt lat="42.597326" lon="1.427765">
        <ele>2478.1</ele>
        <time>2013-07-31T17:07:23Z</time>
      </trkpt>
      <trkpt lat="42.597324" lon="1.427776">
        <ele>2478.1</ele>
        <time>2013-07-31T17:07:29Z</time>
      </trkpt>
      <trkpt lat="42.597267" lon="1.427775">
        <ele>2479.6</ele>
        <time>2013-07-31T17:07:40Z</time>
      </trkpt>
      <trkpt lat="42.597261" lon="1.427775">
        <ele>2479.8</ele>
        <time>2013-07-31T17:08:01Z</time>
      </trkpt>
      <trkpt lat="42.597264" lon="1.427781">
        <ele>2479.7</ele>
        <time>2013-07-31T17:08:42Z</time>
      </trkpt>
      <trkpt lat="42.597262" lon="1.427784">
        <ele>2479.7</ele>
        <time>2013-07-31T17:09:04Z</time>
      </trkpt>
      <trkpt lat="42.597236" lon="1.427822">
        <ele>2479.9</ele>
        <time>2013-07-31T17:09:07Z</time>
      </trkpt>
      <trkpt lat="42.597198" lon="1.427929">
        <ele>2480.0</ele>
        <time>2013-07-31T17:09:19Z</time>
      </trkpt>
      <trkpt lat="42.597198" lon="1.427929">
        <ele>2480.0</ele>
        <time>2013-07-31T17:09:20Z</time>
      </trkpt>
      <trkpt lat="42.597190" lon="1.428008">
        <ele>2480.7</ele>
        <time>2013-07-31T17:09:29Z</time>
      </trkpt>
      <trkpt lat="42.597191" lon="1.428016">
        <ele>2480.8</ele>
        <time>2013-07-31T17:09:30Z</time>
      </trkpt>
      <trkpt lat="42.597228" lon="1.428048">
        <ele>2481.4</ele>
        <time>2013-07-31T17:09:39Z</time>
      </trkpt>
      <trkpt lat="42.597247" lon="1.428147">
        <ele>2482.7</ele>
        <time>2013-07-31T17:09:50Z</time>
      </trkpt>
      <trkpt lat="42.597249" lon="1.428152">
        <ele>2482.8</ele>
        <time>2013-07-31T17:09:51Z</time>
      </trkpt>
      <trkpt lat="42.597249" lon="1.428174">
        <ele>2483.4</ele>
        <time>2013-07-31T17:10:03Z</time>
      </trkpt>
      <trkpt lat="42.597287" lon="1.428220">
        <ele>2485.1</ele>
        <time>2013-07-31T17:10:14Z</time>
      </trkpt>
      <trkpt lat="42.597293" lon="1.428294">
        <ele>2487.8</ele>
        <time>2013-07-31T17:10:26Z</time>
      </trkpt>
      <trkpt lat="42.597306" lon="1.428350">
        <ele>2489.8</ele>
        <time>2013-07-31T17:10:38Z</time>
      </trkpt>
      <trkpt lat="42.597317" lon="1.428401">
        <ele>2491.4</ele>
        <time>2013-07-31T17:10:50Z</time>
      </trkpt>
      <trkpt lat="42.597317" lon="1.428427">
        <ele>2492.2</ele>
        <time>2013-07-31T17:11:02Z</time>
      </trkpt>
      <trkpt lat="42.597319" lon="1.428444">
        <ele>2492.6</ele>
        <time>2013-07-31T17:11:12Z</time>
      </trkpt>
      <trkpt lat="42.597331" lon="1.428503">
        <ele>2494.6</ele>
        <time>2013-07-31T17:11:23Z</time>
      </trkpt>
      <trkpt lat="42.597332" lon="1.428529">
        <ele>2495.5</ele>
        <time>2013-07-31T17:11:36Z</time>
      </trkpt>
      <trkpt lat="42.597332" lon="1.428529">
        <ele>2495.5</ele>
        <time>2013-07-31T17:11:41Z</time>
      </trkpt>
      <trkpt lat="42.597420" lon="1.428609">
        <ele>2503.2</ele>
        <time>2013-07-31T17:11:53Z</time>
      </trkpt>
      <trkpt lat="42.597482" lon="1.428628">
        <ele>2504.4</ele>
        <time>2013-07-31T17:12:00Z</time>
      </trkpt>
      <trkpt lat="42.597526" lon="1.428642">
        <ele>2504.9</ele>
        <time>2013-07-31T17:12:13Z</time>
      </trkpt>
      <trkpt lat="42.597546" lon="1.428701">
        <ele>2507.7</ele>
        <time>2013-07-31T17:12:22Z</time>
      </trkpt>
      <trkpt lat="42.597537" lon="1.428732">
        <ele>2509.2</ele>
        <time>2013-07-31T17:12:32Z</time>
      </trkpt>
      <trkpt lat="42.597536" lon="1.428747">
        <ele>2509.8</ele>
        <time>2013-07-31T17:12:43Z</time>
      </trkpt>
      <trkpt lat="42.597542" lon="1.428789">
        <ele>2511.5</ele>
        <time>2013-07-31T17:12:54Z</time>
      </trkpt>
      <trkpt lat="42.597542" lon="1.428885">
        <ele>2514.5</ele>
        <time>2013-07-31T17:13:04Z</time>
      </trkpt>
      <trkpt lat="42.597540" lon="1.428981">
        <ele>2516.1</ele>
        <time>2013-07-31T17:13:14Z</time>
      </trkpt>
      <trkpt lat="42.597555" lon="1.429060">
        <ele>2516.5</ele>
        <time>2013-07-31T17:13:26Z</time>
      </trkpt>
      <trkpt lat="42.597582" lon="1.429107">
        <ele>2516.8</ele>
        <time>2013-07-31T17:13:37Z</time>
      </trkpt>
      <trkpt lat="42.597401" lon="1.429895">
        <ele>2501.7</ele>
        <time>2013-08-01T05:35:36Z</time>
      </trkpt>
      <trkpt lat="42.597409" lon="1.429956">
        <ele>2501.8</ele>
        <time>2013-08-01T05:35:40Z</time>
      </trkpt>
      <trkpt lat="42.597407" lon="1.429967">
        <ele>2501.8</ele>
        <time>2013-08-01T05:35:41Z</time>
      </trkpt>
      <trkpt lat="42.597369" lon="1.430064">
        <ele>2501.6</ele>
        <time>2013-08-01T05:35:49Z</time>
      </trkpt>
      <trkpt lat="42.597354" lon="1.430114">
        <ele>2501.4</ele>
        <time>2013-08-01T05:35:54Z</time>
      </trkpt>
      <trkpt lat="42.597349" lon="1.430165">
        <ele>2501.4</ele>
        <time>2013-08-01T05:35:57Z</time>
      </trkpt>
      <trkpt lat="42.597291" lon="1.430268">
        <ele>2499.9</ele>
        <time>2013-08-01T05:36:11Z</time>
      </trkpt>
      <trkpt lat="42.597297" lon="1.430288">
        <ele>2500.0</ele>
        <time>2013-08-01T05:41:02Z</time>
      </trkpt>
      <trkpt lat="42.597323" lon="1.430319">
        <ele>2500.5</ele>
        <time>2013-08-01T05:41:05Z</time>
      </trkpt>
      <trkpt lat="42.597317" lon="1.430450">
        <ele>2499.7</ele>
        <time>2013-08-01T05:41:18Z</time>
      </trkpt>
      <trkpt lat="42.597427" lon="1.430495">
        <ele>2502.4</ele>
        <time>2013-08-01T05:41:31Z</time>
      </trkpt>
      <trkpt lat="42.597458" lon="1.430551">
        <ele>2503.2</ele>
        <time>2013-08-01T05:41:43Z</time>
      </trkpt>
      <trkpt lat="42.597454" lon="1.430627">
        <ele>2503.0</ele>
        <time>2013-08-01T05:41:48Z</time>
      </trkpt>
      <trkpt lat="42.597463" lon="1.430678">
        <ele>2502.9</ele>
        <time>2013-08-01T05:41:52Z</time>
      </trkpt>
      <trkpt lat="42.597493" lon="1.430804">
        <ele>2501.7</ele>
        <time>2013-08-01T05:42:05Z</time>
      </trkpt>
      <trkpt lat="42.597557" lon="1.430884">
        <ele>2501.4</ele>
        <time>2013-08-01T05:42:14Z</time>
      </trkpt>
      <trkpt lat="42.597602" lon="1.431038">
        <ele>2498.8</ele>
        <time>2013-08-01T05:42:28Z</time>
      </trkpt>
      <trkpt lat="42.597627" lon="1.431074">
        <ele>2498.6</ele>
        <time>2013-08-01T05:42:33Z</time>
      </trkpt>
      <trkpt lat="42.597643" lon="1.431089">
        <ele>2498.6</ele>
        <time>2013-08-01T05:42:35Z</time>
      </trkpt>
      <trkpt lat="42.597685" lon="1.431108">
        <ele>2498.8</ele>
        <time>2013-08-01T05:42:39Z</time>
      </trkpt>
      <trkpt lat="42.597749" lon="1.431127">
        <ele>2499.1</ele>
        <time>2013-08-01T05:42:47Z</time>
      </trkpt>
      <trkpt lat="42.597791" lon="1.431193">
        <ele>2497.9</ele>
        <time>2013-08-01T05:42:55Z</time>
      </trkpt>
      <trkpt lat="42.597851" lon="1.431270">
        <ele>2496.3</ele>
        <time>2013-08-01T05:43:04Z</time>
      </trkpt>
      <trkpt lat="42.597863" lon="1.431309">
        <ele>2495.4</ele>
        <time>2013-08-01T05:43:08Z</time>
      </trkpt>
      <trkpt lat="42.597903" lon="1.431319">
        <ele>2495.2</ele>
        <time>2013-08-01T05:43:20Z</time>
      </trkpt>
      <trkpt lat="42.597914" lon="1.431351">
        <ele>2494.4</ele>
        <time>2013-08-01T05:43:32Z</time>
      </trkpt>
      <trkpt lat="42.597925" lon="1.431461">
        <ele>2491.3</ele>
        <time>2013-08-01T05:43:46Z</time>
      </trkpt>
      <trkpt lat="42.597888" lon="1.431514">
        <ele>2490.0</ele>
        <time>2013-08-01T05:43:54Z</time>
      </trkpt>
      <trkpt lat="42.597804" lon="1.431623">
        <ele>2487.1</ele>
        <time>2013-08-01T05:44:07Z</time>
      </trkpt>
      <trkpt lat="42.597806" lon="1.431725">
        <ele>2484.3</ele>
        <time>2013-08-01T05:44:19Z</time>
      </trkpt>
      <trkpt lat="42.597832" lon="1.431765">
        <ele>2483.6</ele>
        <time>2013-08-01T05:44:32Z</time>
      </trkpt>
      <trkpt lat="42.597832" lon="1.431765">
        <ele>2483.6</ele>
        <time>2013-08-01T05:44:54Z</time>
      </trkpt>
      <trkpt lat="42.597760" lon="1.432015">
        <ele>2484.8</ele>
        <time>2013-08-01T05:45:08Z</time>
      </trkpt>
      <trkpt lat="42.597764" lon="1.432059">
        <ele>2485.7</ele>
        <time>2013-08-01T05:45:11Z</time>
      </trkpt>
      <trkpt lat="42.597706" lon="1.432233">
        <ele>2487.7</ele>
        <time>2013-08-01T05:45:23Z</time>
      </trkpt>
      <trkpt lat="42.597694" lon="1.432268">
        <ele>2488.0</ele>
        <time>2013-08-01T05:45:30Z</time>
      </trkpt>
      <trkpt lat="42.597643" lon="1.432311">
        <ele>2487.1</ele>
        <time>2013-08-01T05:45:37Z</time>
      </trkpt>
      <trkpt lat="42.597607" lon="1.432363">
        <ele>2486.4</ele>
        <time>2013-08-01T05:45:42Z</time>
      </trkpt>
      <trkpt lat="42.597560" lon="1.432387">
        <ele>2485.3</ele>
        <time>2013-08-01T05:45:46Z</time>
      </trkpt>
      <trkpt lat="42.597426" lon="1.432461">
        <ele>2483.3</ele>
        <time>2013-08-01T05:45:59Z</time>
      </trkpt>
      <trkpt lat="42.597336" lon="1.432624">
        <ele>2484.4</ele>
        <time>2013-08-01T05:46:12Z</time>
      </trkpt>
      <trkpt lat="42.597258" lon="1.432694">
        <ele>2484.5</ele>
        <time>2013-08-01T05:46:20Z</time>
      </trkpt>
      <trkpt lat="42.597164" lon="1.432781">
        <ele>2485.0</ele>
        <time>2013-08-01T05:46:32Z</time>
      </trkpt>
      <trkpt lat="42.597141" lon="1.432795">
        <ele>2485.0</ele>
        <time>2013-08-01T05:46:46Z</time>
      </trkpt>
      <trkpt lat="42.597128" lon="1.432817">
        <ele>2485.1</ele>
        <time>2013-08-01T05:47:03Z</time>
      </trkpt>
      <trkpt lat="42.597073" lon="1.432872">
        <ele>2485.5</ele>
        <time>2013-08-01T05:48:46Z</time>
      </trkpt>
      <trkpt lat="42.596985" lon="1.432876">
        <ele>2485.2</ele>
        <time>2013-08-01T05:48:59Z</time>
      </trkpt>
      <trkpt lat="42.596938" lon="1.432878">
        <ele>2485.4</ele>
        <time>2013-08-01T05:49:04Z</time>
      </trkpt>
      <trkpt lat="42.596870" lon="1.432867">
        <ele>2486.0</ele>
        <time>2013-08-01T05:49:15Z</time>
      </trkpt>
      <trkpt lat="42.596812" lon="1.432899">
        <ele>2487.1</ele>
        <time>2013-08-01T05:49:25Z</time>
      </trkpt>
      <trkpt lat="42.596756" lon="1.432897">
        <ele>2488.3</ele>
        <time>2013-08-01T05:49:39Z</time>
      </trkpt>
      <trkpt lat="42.596720" lon="1.432917">
        <ele>2489.5</ele>
        <time>2013-08-01T05:49:49Z</time>
      </trkpt>
      <trkpt lat="42.596688" lon="1.432896">
        <ele>2490.0</ele>
        <time>2013-08-01T05:50:00Z</time>
      </trkpt>
      <trkpt lat="42.596659" lon="1.432854">
        <ele>2489.7</ele>
        <time>2013-08-01T05:50:04Z</time>
      </trkpt>
      <trkpt lat="42.596568" lon="1.432765">
        <ele>2489.6</ele>
        <time>2013-08-01T05:50:18Z</time>
      </trkpt>
      <trkpt lat="42.596507" lon="1.432708">
        <ele>2489.9</ele>
        <time>2013-08-01T05:50:32Z</time>
      </trkpt>
      <trkpt lat="42.596434" lon="1.432645">
        <ele>2490.1</ele>
        <time>2013-08-01T05:50:44Z</time>
      </trkpt>
      <trkpt lat="42.596394" lon="1.432656">
        <ele>2490.9</ele>
        <time>2013-08-01T05:50:54Z</time>
      </trkpt>
      <trkpt lat="42.596337" lon="1.432648">
        <ele>2491.1</ele>
        <time>2013-08-01T05:51:05Z</time>
      </trkpt>
      <trkpt lat="42.596254" lon="1.432688">
        <ele>2492.4</ele>
        <time>2013-08-01T05:51:18Z</time>
      </trkpt>
      <trkpt lat="42.596200" lon="1.432740">
        <ele>2494.2</ele>
        <time>2013-08-01T05:51:30Z</time>
      </trkpt>
      <trkpt lat="42.596200" lon="1.432740">
        <ele>2494.2</ele>
        <time>2013-08-01T05:51:32Z</time>
      </trkpt>
      <trkpt lat="42.596156" lon="1.432776">
        <ele>2495.5</ele>
        <time>2013-08-01T05:51:43Z</time>
      </trkpt>
      <trkpt lat="42.596111" lon="1.432860">
        <ele>2498.4</ele>
        <time>2013-08-01T05:51:53Z</time>
      </trkpt>
      <trkpt lat="42.596097" lon="1.432902">
        <ele>2499.9</ele>
        <time>2013-08-01T05:52:06Z</time>
      </trkpt>
      <trkpt lat="42.596084" lon="1.432920">
        <ele>2500.4</ele>
        <time>2013-08-01T05:52:17Z</time>
      </trkpt>
      <trkpt lat="42.596096" lon="1.432951">
        <ele>2501.7</ele>
        <time>2013-08-01T05:52:28Z</time>
      </trkpt>
      <trkpt lat="42.596098" lon="1.432966">
        <ele>2502.2</ele>
        <time>2013-08-01T05:52:39Z</time>
      </trkpt>
      <trkpt lat="42.596099" lon="1.433081">
        <ele>2506.8</ele>
        <time>2013-08-01T05:52:46Z</time>
      </trkpt>
      <trkpt lat="42.596101" lon="1.433224">
        <ele>2512.2</ele>
        <time>2013-08-01T05:52:55Z</time>
      </trkpt>
      <trkpt lat="42.596092" lon="1.433273">
        <ele>2513.4</ele>
        <time>2013-08-01T05:53:07Z</time>
      </trkpt>
      <trkpt lat="42.596086" lon="1.433314">
        <ele>2514.5</ele>
        <time>2013-08-01T05:53:18Z</time>
      </trkpt>
      <trkpt lat="42.596086" lon="1.433314">
        <ele>2514.5</ele>
        <time>2013-08-01T05:53:29Z</time>
      </trkpt>
      <trkpt lat="42.596086" lon="1.433314">
        <ele>2514.5</ele>
        <time>2013-08-01T05:53:31Z</time>
      </trkpt>
      <trkpt lat="42.596079" lon="1.433337">
        <ele>2515.2</ele>
        <time>2013-08-01T05:53:33Z</time>
      </trkpt>
      <trkpt lat="42.596093" lon="1.433449">
        <ele>2519.8</ele>
        <time>2013-08-01T05:53:44Z</time>
      </trkpt>
      <trkpt lat="42.596083" lon="1.433503">
        <ele>2521.2</ele>
        <time>2013-08-01T05:53:56Z</time>
      </trkpt>
      <trkpt lat="42.596097" lon="1.433545">
        <ele>2523.6</ele>
        <time>2013-08-01T05:54:06Z</time>
      </trkpt>
      <trkpt lat="42.596096" lon="1.433553">
        <ele>2523.8</ele>
        <time>2013-08-01T05:54:13Z</time>
      </trkpt>
      <trkpt lat="42.596098" lon="1.433561">
        <ele>2524.2</ele>
        <time>2013-08-01T05:54:26Z</time>
      </trkpt>
      <trkpt lat="42.596096" lon="1.433553">
        <ele>2523.8</ele>
        <time>2013-08-01T05:54:38Z</time>
      </trkpt>
      <trkpt lat="42.596097" lon="1.433610">
        <ele>2526.0</ele>
        <time>2013-08-01T05:54:49Z</time>
      </trkpt>
      <trkpt lat="42.596097" lon="1.433610">
        <ele>2526.0</ele>
        <time>2013-08-01T05:54:59Z</time>
      </trkpt>
      <trkpt lat="42.596097" lon="1.433610">
        <ele>2526.0</ele>
        <time>2013-08-01T05:55:01Z</time>
      </trkpt>
      <trkpt lat="42.596122" lon="1.433703">
        <ele>2530.6</ele>
        <time>2013-08-01T05:55:11Z</time>
      </trkpt>
      <trkpt lat="42.596122" lon="1.433703">
        <ele>2530.6</ele>
        <time>2013-08-01T05:55:24Z</time>
      </trkpt>
      <trkpt lat="42.596131" lon="1.433740">
        <ele>2532.2</ele>
        <time>2013-08-01T05:55:33Z</time>
      </trkpt>
      <trkpt lat="42.596140" lon="1.433787">
        <ele>2533.9</ele>
        <time>2013-08-01T05:55:45Z</time>
      </trkpt>
      <trkpt lat="42.596149" lon="1.433812">
        <ele>2534.9</ele>
        <time>2013-08-01T05:55:57Z</time>
      </trkpt>
      <trkpt lat="42.596149" lon="1.433846">
        <ele>2535.8</ele>
        <time>2013-08-01T05:56:05Z</time>
      </trkpt>
      <trkpt lat="42.596158" lon="1.433870">
        <ele>2536.8</ele>
        <time>2013-08-01T05:56:15Z</time>
      </trkpt>
      <trkpt lat="42.596157" lon="1.433864">
        <ele>2536.6</ele>
        <time>2013-08-01T05:56:25Z</time>
      </trkpt>
      <trkpt lat="42.596157" lon="1.433872">
        <ele>2536.8</ele>
        <time>2013-08-01T05:56:29Z</time>
      </trkpt>
      <trkpt lat="42.596180" lon="1.433915">
        <ele>2539.0</ele>
        <time>2013-08-01T05:56:40Z</time>
      </trkpt>
      <trkpt lat="42.596227" lon="1.434197">
        <ele>2548.2</ele>
        <time>2013-08-01T05:56:51Z</time>
      </trkpt>
      <trkpt lat="42.596235" lon="1.434211">
        <ele>2548.8</ele>
        <time>2013-08-01T05:56:52Z</time>
      </trkpt>
      <trkpt lat="42.596231" lon="1.434363">
        <ele>2552.1</ele>
        <time>2013-08-01T05:57:02Z</time>
      </trkpt>
      <trkpt lat="42.596225" lon="1.434387">
        <ele>2552.5</ele>
        <time>2013-08-01T05:57:03Z</time>
      </trkpt>
      <trkpt lat="42.596217" lon="1.434446">
        <ele>2553.9</ele>
        <time>2013-08-01T05:57:06Z</time>
      </trkpt>
      <trkpt lat="42.596189" lon="1.434556">
        <ele>2556.7</ele>
        <time>2013-08-01T05:57:17Z</time>
      </trkpt>
      <trkpt lat="42.596162" lon="1.434601">
        <ele>2557.8</ele>
        <time>2013-08-01T05:57:28Z</time>
      </trkpt>
      <trkpt lat="42.596140" lon="1.434625">
        <ele>2558.5</ele>
        <time>2013-08-01T05:57:33Z</time>
      </trkpt>
      <trkpt lat="42.596115" lon="1.434667">
        <ele>2559.6</ele>
        <time>2013-08-01T05:57:40Z</time>
      </trkpt>
      <trkpt lat="42.596108" lon="1.434688">
        <ele>2560.0</ele>
        <time>2013-08-01T05:57:55Z</time>
      </trkpt>
      <trkpt lat="42.596088" lon="1.434816">
        <ele>2560.0</ele>
        <time>2013-08-01T05:58:08Z</time>
      </trkpt>
      <trkpt lat="42.596084" lon="1.434838">
        <ele>2560.0</ele>
        <time>2013-08-01T05:58:10Z</time>
      </trkpt>
      <trkpt lat="42.596077" lon="1.434887">
        <ele>2560.0</ele>
        <time>2013-08-01T05:58:13Z</time>
      </trkpt>
      <trkpt lat="42.596058" lon="1.434982">
        <ele>2560.0</ele>
        <time>2013-08-01T05:58:18Z</time>
      </trkpt>
      <trkpt lat="42.596052" lon="1.435046">
        <ele>2560.0</ele>
        <time>2013-08-01T05:58:21Z</time>
      </trkpt>
      <trkpt lat="42.596069" lon="1.435157">
        <ele>2560.0</ele>
        <time>2013-08-01T05:58:28Z</time>
      </trkpt>
      <trkpt lat="42.596082" lon="1.435229">
        <ele>2560.0</ele>
        <time>2013-08-01T05:58:33Z</time>
      </trkpt>
      <trkpt lat="42.596073" lon="1.435326">
        <ele>2560.0</ele>
        <time>2013-08-01T05:58:42Z</time>
      </trkpt>
      <trkpt lat="42.596069" lon="1.435367">
        <ele>2560.0</ele>
        <time>2013-08-01T05:58:47Z</time>
      </trkpt>
      <trkpt lat="42.596066" lon="1.435532">
        <ele>2560.0</ele>
        <time>2013-08-01T05:58:59Z</time>
      </trkpt>
      <trkpt lat="42.596040" lon="1.435626">
        <ele>2560.0</ele>
        <time>2013-08-01T05:59:11Z</time>
      </trkpt>
      <trkpt lat="42.596077" lon="1.435712">
        <ele>2560.0</ele>
        <time>2013-08-01T05:59:23Z</time>
      </trkpt>
      <trkpt lat="42.596086" lon="1.435734">
        <ele>2560.1</ele>
        <time>2013-08-01T05:59:30Z</time>
      </trkpt>
      <trkpt lat="42.596079" lon="1.435768">
        <ele>2560.2</ele>
        <time>2013-08-01T05:59:41Z</time>
      </trkpt>
      <trkpt lat="42.596042" lon="1.435795">
        <ele>2560.3</ele>
        <time>2013-08-01T06:03:35Z</time>
      </trkpt>
      <trkpt lat="42.596002" lon="1.435780">
        <ele>2560.2</ele>
        <time>2013-08-01T06:03:43Z</time>
      </trkpt>
      <trkpt lat="42.596002" lon="1.435780">
        <ele>2560.2</ele>
        <time>2013-08-01T06:03:44Z</time>
      </trkpt>
      <trkpt lat="42.595969" lon="1.435839">
        <ele>2561.0</ele>
        <time>2013-08-01T06:03:55Z</time>
      </trkpt>
      <trkpt lat="42.595920" lon="1.435850">
        <ele>2561.8</ele>
        <time>2013-08-01T06:04:07Z</time>
      </trkpt>
      <trkpt lat="42.595889" lon="1.435891">
        <ele>2562.7</ele>
        <time>2013-08-01T06:04:17Z</time>
      </trkpt>
      <trkpt lat="42.595858" lon="1.435961">
        <ele>2564.3</ele>
        <time>2013-08-01T06:04:27Z</time>
      </trkpt>
      <trkpt lat="42.595844" lon="1.436012">
        <ele>2565.5</ele>
        <time>2013-08-01T06:04:36Z</time>
      </trkpt>
      <trkpt lat="42.595854" lon="1.436115">
        <ele>2566.9</ele>
        <time>2013-08-01T06:04:47Z</time>
      </trkpt>
      <trkpt lat="42.595854" lon="1.436120">
        <ele>2566.9</ele>
        <time>2013-08-01T06:04:49Z</time>
      </trkpt>
      <trkpt lat="42.595850" lon="1.436172">
        <ele>2567.8</ele>
        <time>2013-08-01T06:05:02Z</time>
      </trkpt>
      <trkpt lat="42.595817" lon="1.436166">
        <ele>2568.3</ele>
        <time>2013-08-01T06:05:12Z</time>
      </trkpt>
      <trkpt lat="42.595809" lon="1.436127">
        <ele>2568.0</ele>
        <time>2013-08-01T06:05:24Z</time>
      </trkpt>
      <trkpt lat="42.595787" lon="1.436059">
        <ele>2567.7</ele>
        <time>2013-08-01T06:05:30Z</time>
      </trkpt>
      <trkpt lat="42.595754" lon="1.436029">
        <ele>2568.2</ele>
        <time>2013-08-01T06:05:35Z</time>
      </trkpt>
      <trkpt lat="42.595690" lon="1.435947">
        <ele>2569.3</ele>
        <time>2013-08-01T06:05:46Z</time>
      </trkpt>
      <trkpt lat="42.595634" lon="1.435906">
        <ele>2570.7</ele>
        <time>2013-08-01T06:05:57Z</time>
      </trkpt>
      <trkpt lat="42.595603" lon="1.435903">
        <ele>2571.7</ele>
        <time>2013-08-01T06:06:06Z</time>
      </trkpt>
      <trkpt lat="42.595517" lon="1.435885">
        <ele>2574.4</ele>
        <time>2013-08-01T06:06:19Z</time>
      </trkpt>
      <trkpt lat="42.595461" lon="1.435845">
        <ele>2575.9</ele>
        <time>2013-08-01T06:06:30Z</time>
      </trkpt>
      <trkpt lat="42.595444" lon="1.435825">
        <ele>2576.3</ele>
        <time>2013-08-01T06:06:35Z</time>
      </trkpt>
      <trkpt lat="42.595404" lon="1.435784">
        <ele>2576.9</ele>
        <time>2013-08-01T06:06:48Z</time>
      </trkpt>
      <trkpt lat="42.595364" lon="1.435748">
        <ele>2577.5</ele>
        <time>2013-08-01T06:07:00Z</time>
      </trkpt>
      <trkpt lat="42.595352" lon="1.435728">
        <ele>2577.5</ele>
        <time>2013-08-01T06:07:13Z</time>
      </trkpt>
      <trkpt lat="42.595348" lon="1.435739">
        <ele>2577.7</ele>
        <time>2013-08-01T06:07:24Z</time>
      </trkpt>
      <trkpt lat="42.595345" lon="1.435754">
        <ele>2578.0</ele>
        <time>2013-08-01T06:07:34Z</time>
      </trkpt>
      <trkpt lat="42.595303" lon="1.435719">
        <ele>2578.3</ele>
        <time>2013-08-01T06:07:46Z</time>
      </trkpt>
      <trkpt lat="42.595275" lon="1.435697">
        <ele>2578.5</ele>
        <time>2013-08-01T06:07:59Z</time>
      </trkpt>
      <trkpt lat="42.595239" lon="1.435668">
        <ele>2578.9</ele>
        <time>2013-08-01T06:08:17Z</time>
      </trkpt>
      <trkpt lat="42.595239" lon="1.435668">
        <ele>2578.9</ele>
        <time>2013-08-01T06:08:35Z</time>
      </trkpt>
      <trkpt lat="42.595239" lon="1.435668">
        <ele>2578.9</ele>
        <time>2013-08-01T06:08:37Z</time>
      </trkpt>
      <trkpt lat="42.595155" lon="1.435759">
        <ele>2580.2</ele>
        <time>2013-08-01T06:08:50Z</time>
      </trkpt>
      <trkpt lat="42.595117" lon="1.435815">
        <ele>2580.6</ele>
        <time>2013-08-01T06:09:02Z</time>
      </trkpt>
      <trkpt lat="42.595112" lon="1.435868">
        <ele>2581.1</ele>
        <time>2013-08-01T06:09:08Z</time>
      </trkpt>
      <trkpt lat="42.595058" lon="1.435931">
        <ele>2582.2</ele>
        <time>2013-08-01T06:09:19Z</time>
      </trkpt>
      <trkpt lat="42.595057" lon="1.435937">
        <ele>2582.4</ele>
        <time>2013-08-01T06:09:30Z</time>
      </trkpt>
      <trkpt lat="42.595017" lon="1.436053">
        <ele>2584.8</ele>
        <time>2013-08-01T06:09:41Z</time>
      </trkpt>
      <trkpt lat="42.595006" lon="1.436074">
        <ele>2585.3</ele>
        <time>2013-08-01T06:09:46Z</time>
      </trkpt>
      <trkpt lat="42.594985" lon="1.436150">
        <ele>2586.8</ele>
        <time>2013-08-01T06:09:59Z</time>
      </trkpt>
      <trkpt lat="42.594992" lon="1.436215">
        <ele>2588.1</ele>
        <time>2013-08-01T06:10:11Z</time>
      </trkpt>
      <trkpt lat="42.594979" lon="1.436265">
        <ele>2589.4</ele>
        <time>2013-08-01T06:10:25Z</time>
      </trkpt>
      <trkpt lat="42.594979" lon="1.436265">
        <ele>2589.4</ele>
        <time>2013-08-01T06:10:30Z</time>
      </trkpt>
      <trkpt lat="42.594967" lon="1.436321">
        <ele>2590.9</ele>
        <time>2013-08-01T06:10:39Z</time>
      </trkpt>
      <trkpt lat="42.594958" lon="1.436387">
        <ele>2592.5</ele>
        <time>2013-08-01T06:10:50Z</time>
      </trkpt>
      <trkpt lat="42.594958" lon="1.436387">
        <ele>2592.5</ele>
        <time>2013-08-01T06:11:04Z</time>
      </trkpt>
      <trkpt lat="42.594958" lon="1.436387">
        <ele>2592.5</ele>
        <time>2013-08-01T06:11:19Z</time>
      </trkpt>
      <trkpt lat="42.594948" lon="1.436401">
        <ele>2593.0</ele>
        <time>2013-08-01T06:11:34Z</time>
      </trkpt>
      <trkpt lat="42.594934" lon="1.436441">
        <ele>2594.2</ele>
        <time>2013-08-01T06:11:46Z</time>
      </trkpt>
      <trkpt lat="42.594902" lon="1.436493">
        <ele>2596.2</ele>
        <time>2013-08-01T06:11:54Z</time>
      </trkpt>
      <trkpt lat="42.594861" lon="1.436574">
        <ele>2599.4</ele>
        <time>2013-08-01T06:12:09Z</time>
      </trkpt>
      <trkpt lat="42.594838" lon="1.436602">
        <ele>2600.7</ele>
        <time>2013-08-01T06:12:18Z</time>
      </trkpt>
      <trkpt lat="42.594818" lon="1.436614">
        <ele>2601.4</ele>
        <time>2013-08-01T06:12:28Z</time>
      </trkpt>
      <trkpt lat="42.594810" lon="1.436623">
        <ele>2601.9</ele>
        <time>2013-08-01T06:12:38Z</time>
      </trkpt>
      <trkpt lat="42.594752" lon="1.436687">
        <ele>2605.0</ele>
        <time>2013-08-01T06:12:50Z</time>
      </trkpt>
      <trkpt lat="42.594731" lon="1.436751">
        <ele>2607.2</ele>
        <time>2013-08-01T06:13:02Z</time>
      </trkpt>
      <trkpt lat="42.594690" lon="1.436766">
        <ele>2608.7</ele>
        <time>2013-08-01T06:13:13Z</time>
      </trkpt>
      <trkpt lat="42.594638" lon="1.436786">
        <ele>2611.0</ele>
        <time>2013-08-01T06:13:27Z</time>
      </trkpt>
      <trkpt lat="42.594601" lon="1.436808">
        <ele>2612.7</ele>
        <time>2013-08-01T06:13:38Z</time>
      </trkpt>
      <trkpt lat="42.594595" lon="1.436872">
        <ele>2614.8</ele>
        <time>2013-08-01T06:13:48Z</time>
      </trkpt>
      <trkpt lat="42.594575" lon="1.436890">
        <ele>2615.9</ele>
        <time>2013-08-01T06:14:00Z</time>
      </trkpt>
      <trkpt lat="42.594570" lon="1.436902">
        <ele>2616.4</ele>
        <time>2013-08-01T06:14:10Z</time>
      </trkpt>
      <trkpt lat="42.594532" lon="1.436915">
        <ele>2618.1</ele>
        <time>2013-08-01T06:14:15Z</time>
      </trkpt>
      <trkpt lat="42.594492" lon="1.436913">
        <ele>2619.4</ele>
        <time>2013-08-01T06:14:25Z</time>
      </trkpt>
      <trkpt lat="42.594449" lon="1.436922">
        <ele>2621.6</ele>
        <time>2013-08-01T06:14:36Z</time>
      </trkpt>
      <trkpt lat="42.594433" lon="1.436925">
        <ele>2622.4</ele>
        <time>2013-08-01T06:14:46Z</time>
      </trkpt>
      <trkpt lat="42.594421" lon="1.436925">
        <ele>2622.9</ele>
        <time>2013-08-01T06:14:56Z</time>
      </trkpt>
      <trkpt lat="42.594375" lon="1.436932">
        <ele>2625.3</ele>
        <time>2013-08-01T06:15:10Z</time>
      </trkpt>
      <trkpt lat="42.594325" lon="1.436930">
        <ele>2627.4</ele>
        <time>2013-08-01T06:15:19Z</time>
      </trkpt>
      <trkpt lat="42.594306" lon="1.436929">
        <ele>2628.2</ele>
        <time>2013-08-01T06:15:33Z</time>
      </trkpt>
      <trkpt lat="42.594225" lon="1.436908">
        <ele>2630.9</ele>
        <time>2013-08-01T06:15:44Z</time>
      </trkpt>
      <trkpt lat="42.594156" lon="1.436938">
        <ele>2634.7</ele>
        <time>2013-08-01T06:15:55Z</time>
      </trkpt>
      <trkpt lat="42.594096" lon="1.436964">
        <ele>2638.1</ele>
        <time>2013-08-01T06:16:06Z</time>
      </trkpt>
      <trkpt lat="42.594067" lon="1.436984">
        <ele>2639.9</ele>
        <time>2013-08-01T06:16:20Z</time>
      </trkpt>
      <trkpt lat="42.594054" lon="1.436995">
        <ele>2640.8</ele>
        <time>2013-08-01T06:16:31Z</time>
      </trkpt>
      <trkpt lat="42.594030" lon="1.437022">
        <ele>2643.1</ele>
        <time>2013-08-01T06:16:40Z</time>
      </trkpt>
      <trkpt lat="42.594014" lon="1.437062">
        <ele>2645.7</ele>
        <time>2013-08-01T06:16:50Z</time>
      </trkpt>
      <trkpt lat="42.593997" lon="1.437086">
        <ele>2647.6</ele>
        <time>2013-08-01T06:17:00Z</time>
      </trkpt>
      <trkpt lat="42.593984" lon="1.437090">
        <ele>2648.4</ele>
        <time>2013-08-01T06:17:03Z</time>
      </trkpt>
      <trkpt lat="42.593952" lon="1.437096">
        <ele>2650.2</ele>
        <time>2013-08-01T06:17:14Z</time>
      </trkpt>
      <trkpt lat="42.593958" lon="1.437097">
        <ele>2650.0</ele>
        <time>2013-08-01T06:17:27Z</time>
      </trkpt>
      <trkpt lat="42.593949" lon="1.437099">
        <ele>2650.5</ele>
        <time>2013-08-01T06:17:43Z</time>
      </trkpt>
      <trkpt lat="42.593950" lon="1.437103">
        <ele>2650.7</ele>
        <time>2013-08-01T06:17:55Z</time>
      </trkpt>
      <trkpt lat="42.593908" lon="1.437113">
        <ele>2653.3</ele>
        <time>2013-08-01T06:18:02Z</time>
      </trkpt>
      <trkpt lat="42.593875" lon="1.437117">
        <ele>2655.2</ele>
        <time>2013-08-01T06:18:12Z</time>
      </trkpt>
      <trkpt lat="42.593873" lon="1.437123">
        <ele>2655.6</ele>
        <time>2013-08-01T06:18:24Z</time>
      </trkpt>
      <trkpt lat="42.593872" lon="1.437135">
        <ele>2656.2</ele>
        <time>2013-08-01T06:18:35Z</time>
      </trkpt>
      <trkpt lat="42.593870" lon="1.437151">
        <ele>2657.0</ele>
        <time>2013-08-01T06:18:45Z</time>
      </trkpt>
      <trkpt lat="42.593866" lon="1.437150">
        <ele>2657.2</ele>
        <time>2013-08-01T06:18:58Z</time>
      </trkpt>
      <trkpt lat="42.593850" lon="1.437161">
        <ele>2658.4</ele>
        <time>2013-08-01T06:19:09Z</time>
      </trkpt>
      <trkpt lat="42.593772" lon="1.437200">
        <ele>2663.2</ele>
        <time>2013-08-01T06:19:20Z</time>
      </trkpt>
      <trkpt lat="42.593753" lon="1.437215">
        <ele>2664.5</ele>
        <time>2013-08-01T06:19:31Z</time>
      </trkpt>
      <trkpt lat="42.593750" lon="1.437211">
        <ele>2664.4</ele>
        <time>2013-08-01T06:19:36Z</time>
      </trkpt>
      <trkpt lat="42.593726" lon="1.437224">
        <ele>2665.8</ele>
        <time>2013-08-01T06:19:47Z</time>
      </trkpt>
      <trkpt lat="42.593710" lon="1.437233">
        <ele>2666.7</ele>
        <time>2013-08-01T06:19:59Z</time>
      </trkpt>
      <trkpt lat="42.593686" lon="1.437246">
        <ele>2668.1</ele>
        <time>2013-08-01T06:20:12Z</time>
      </trkpt>
      <trkpt lat="42.593589" lon="1.437300">
        <ele>2674.0</ele>
        <time>2013-08-01T06:20:26Z</time>
      </trkpt>
      <trkpt lat="42.593573" lon="1.437305">
        <ele>2674.7</ele>
        <time>2013-08-01T06:20:40Z</time>
      </trkpt>
      <trkpt lat="42.593553" lon="1.437310">
        <ele>2675.6</ele>
        <time>2013-08-01T06:20:51Z</time>
      </trkpt>
      <trkpt lat="42.593538" lon="1.437312">
        <ele>2676.2</ele>
        <time>2013-08-01T06:21:04Z</time>
      </trkpt>
      <trkpt lat="42.593512" lon="1.437315">
        <ele>2677.1</ele>
        <time>2013-08-01T06:21:11Z</time>
      </trkpt>
      <trkpt lat="42.593430" lon="1.437292">
        <ele>2678.5</ele>
        <time>2013-08-01T06:21:21Z</time>
      </trkpt>
      <trkpt lat="42.593399" lon="1.437299">
        <ele>2679.7</ele>
        <time>2013-08-01T06:21:32Z</time>
      </trkpt>
      <trkpt lat="42.593393" lon="1.437296">
        <ele>2679.7</ele>
        <time>2013-08-01T06:21:46Z</time>
      </trkpt>
      <trkpt lat="42.593393" lon="1.437296">
        <ele>2679.7</ele>
        <time>2013-08-01T06:22:00Z</time>
      </trkpt>
      <trkpt lat="42.593383" lon="1.437297">
        <ele>2680.0</ele>
        <time>2013-08-01T06:22:15Z</time>
      </trkpt>
      <trkpt lat="42.593383" lon="1.437297">
        <ele>2680.0</ele>
        <time>2013-08-01T06:22:28Z</time>
      </trkpt>
      <trkpt lat="42.593383" lon="1.437297">
        <ele>2680.0</ele>
        <time>2013-08-01T06:22:38Z</time>
      </trkpt>
      <trkpt lat="42.593361" lon="1.437305">
        <ele>2680.9</ele>
        <time>2013-08-01T06:22:50Z</time>
      </trkpt>
      <trkpt lat="42.593338" lon="1.437313">
        <ele>2681.8</ele>
        <time>2013-08-01T06:23:01Z</time>
      </trkpt>
      <trkpt lat="42.593321" lon="1.437326">
        <ele>2682.8</ele>
        <time>2013-08-01T06:23:07Z</time>
      </trkpt>
      <trkpt lat="42.593321" lon="1.437326">
        <ele>2682.8</ele>
        <time>2013-08-01T06:23:12Z</time>
      </trkpt>
      <trkpt lat="42.593321" lon="1.437326">
        <ele>2682.8</ele>
        <time>2013-08-01T06:23:13Z</time>
      </trkpt>
      <trkpt lat="42.593321" lon="1.437326">
        <ele>2682.8</ele>
        <time>2013-08-01T06:23:27Z</time>
      </trkpt>
      <trkpt lat="42.593321" lon="1.437326">
        <ele>2682.8</ele>
        <time>2013-08-01T06:23:38Z</time>
      </trkpt>
      <trkpt lat="42.593311" lon="1.437360">
        <ele>2684.6</ele>
        <time>2013-08-01T06:23:55Z</time>
      </trkpt>
      <trkpt lat="42.593296" lon="1.437376">
        <ele>2685.8</ele>
        <time>2013-08-01T06:24:07Z</time>
      </trkpt>
      <trkpt lat="42.593297" lon="1.437380">
        <ele>2685.9</ele>
        <time>2013-08-01T06:24:19Z</time>
      </trkpt>
      <trkpt lat="42.593296" lon="1.437376">
        <ele>2685.8</ele>
        <time>2013-08-01T06:24:33Z</time>
      </trkpt>
      <trkpt lat="42.593282" lon="1.437379">
        <ele>2686.3</ele>
        <time>2013-08-01T06:24:45Z</time>
      </trkpt>
      <trkpt lat="42.593276" lon="1.437376">
        <ele>2686.3</ele>
        <time>2013-08-01T06:24:58Z</time>
      </trkpt>
      <trkpt lat="42.593262" lon="1.437421">
        <ele>2688.9</ele>
        <time>2013-08-01T06:25:11Z</time>
      </trkpt>
      <trkpt lat="42.593225" lon="1.437447">
        <ele>2691.2</ele>
        <time>2013-08-01T06:25:24Z</time>
      </trkpt>
      <trkpt lat="42.593225" lon="1.437447">
        <ele>2691.2</ele>
        <time>2013-08-01T06:25:38Z</time>
      </trkpt>
      <trkpt lat="42.593223" lon="1.437452">
        <ele>2691.5</ele>
        <time>2013-08-01T06:25:53Z</time>
      </trkpt>
      <trkpt lat="42.593182" lon="1.437471">
        <ele>2693.7</ele>
        <time>2013-08-01T06:26:07Z</time>
      </trkpt>
      <trkpt lat="42.593145" lon="1.437531">
        <ele>2698.8</ele>
        <time>2013-08-01T06:26:20Z</time>
      </trkpt>
      <trkpt lat="42.593129" lon="1.437547">
        <ele>2700.4</ele>
        <time>2013-08-01T06:26:30Z</time>
      </trkpt>
      <trkpt lat="42.593128" lon="1.437546">
        <ele>2700.3</ele>
        <time>2013-08-01T06:26:44Z</time>
      </trkpt>
      <trkpt lat="42.593117" lon="1.437570">
        <ele>2702.4</ele>
        <time>2013-08-01T06:26:58Z</time>
      </trkpt>
      <trkpt lat="42.593117" lon="1.437570">
        <ele>2702.4</ele>
        <time>2013-08-01T06:27:08Z</time>
      </trkpt>
      <trkpt lat="42.593090" lon="1.437614">
        <ele>2706.4</ele>
        <time>2013-08-01T06:27:18Z</time>
      </trkpt>
      <trkpt lat="42.593088" lon="1.437609">
        <ele>2706.0</ele>
        <time>2013-08-01T06:27:28Z</time>
      </trkpt>
      <trkpt lat="42.593083" lon="1.437629">
        <ele>2707.7</ele>
        <time>2013-08-01T06:27:38Z</time>
      </trkpt>
      <trkpt lat="42.593074" lon="1.437649">
        <ele>2709.4</ele>
        <time>2013-08-01T06:27:49Z</time>
      </trkpt>
      <trkpt lat="42.593071" lon="1.437651">
        <ele>2709.7</ele>
        <time>2013-08-01T06:28:02Z</time>
      </trkpt>
      <trkpt lat="42.593068" lon="1.437649">
        <ele>2709.6</ele>
        <time>2013-08-01T06:28:12Z</time>
      </trkpt>
      <trkpt lat="42.593044" lon="1.437702">
        <ele>2714.5</ele>
        <time>2013-08-01T06:28:22Z</time>
      </trkpt>
      <trkpt lat="42.593037" lon="1.437712">
        <ele>2715.5</ele>
        <time>2013-08-01T06:28:35Z</time>
      </trkpt>
      <trkpt lat="42.593037" lon="1.437712">
        <ele>2715.5</ele>
        <time>2013-08-01T06:28:47Z</time>
      </trkpt>
      <trkpt lat="42.593033" lon="1.437716">
        <ele>2715.9</ele>
        <time>2013-08-01T06:28:50Z</time>
      </trkpt>
      <trkpt lat="42.593038" lon="1.437714">
        <ele>2715.6</ele>
        <time>2013-08-01T06:28:56Z</time>
      </trkpt>
      <trkpt lat="42.593023" lon="1.437748">
        <ele>2718.7</ele>
        <time>2013-08-01T06:29:08Z</time>
      </trkpt>
      <trkpt lat="42.593023" lon="1.437748">
        <ele>2718.7</ele>
        <time>2013-08-01T06:29:24Z</time>
      </trkpt>
      <trkpt lat="42.593023" lon="1.437748">
        <ele>2718.7</ele>
        <time>2013-08-01T06:29:36Z</time>
      </trkpt>
      <trkpt lat="42.593012" lon="1.437766">
        <ele>2720.2</ele>
        <time>2013-08-01T06:29:50Z</time>
      </trkpt>
      <trkpt lat="42.593009" lon="1.437793">
        <ele>2722.3</ele>
        <time>2013-08-01T06:30:01Z</time>
      </trkpt>
      <trkpt lat="42.593000" lon="1.437808">
        <ele>2723.5</ele>
        <time>2013-08-01T06:30:13Z</time>
      </trkpt>
      <trkpt lat="42.593000" lon="1.437808">
        <ele>2723.5</ele>
        <time>2013-08-01T06:30:18Z</time>
      </trkpt>
      <trkpt lat="42.593000" lon="1.437808">
        <ele>2723.5</ele>
        <time>2013-08-01T06:30:32Z</time>
      </trkpt>
      <trkpt lat="42.593005" lon="1.437845">
        <ele>2726.5</ele>
        <time>2013-08-01T06:30:48Z</time>
      </trkpt>
      <trkpt lat="42.593004" lon="1.437838">
        <ele>2725.9</ele>
        <time>2013-08-01T06:31:03Z</time>
      </trkpt>
      <trkpt lat="42.593004" lon="1.437838">
        <ele>2725.9</ele>
        <time>2013-08-01T06:31:17Z</time>
      </trkpt>
      <trkpt lat="42.593015" lon="1.437889">
        <ele>2730.1</ele>
        <time>2013-08-01T06:31:24Z</time>
      </trkpt>
      <trkpt lat="42.593023" lon="1.437935">
        <ele>2733.9</ele>
        <time>2013-08-01T06:31:33Z</time>
      </trkpt>
      <trkpt lat="42.593023" lon="1.437935">
        <ele>2733.9</ele>
        <time>2013-08-01T06:31:46Z</time>
      </trkpt>
      <trkpt lat="42.593023" lon="1.437935">
        <ele>2733.9</ele>
        <time>2013-08-01T06:32:02Z</time>
      </trkpt>
      <trkpt lat="42.593029" lon="1.437972">
        <ele>2737.0</ele>
        <time>2013-08-01T06:32:11Z</time>
      </trkpt>
      <trkpt lat="42.593026" lon="1.438017">
        <ele>2740.7</ele>
        <time>2013-08-01T06:32:22Z</time>
      </trkpt>
      <trkpt lat="42.593020" lon="1.438111">
        <ele>2748.5</ele>
        <time>2013-08-01T06:32:32Z</time>
      </trkpt>
      <trkpt lat="42.593008" lon="1.438163">
        <ele>2752.2</ele>
        <time>2013-08-01T06:32:46Z</time>
      </trkpt>
      <trkpt lat="42.593010" lon="1.438163">
        <ele>2752.3</ele>
        <time>2013-08-01T06:33:11Z</time>
      </trkpt>
      <trkpt lat="42.593015" lon="1.438265">
        <ele>2760.9</ele>
        <time>2013-08-01T06:33:36Z</time>
      </trkpt>
      <trkpt lat="42.592947" lon="1.438379">
        <ele>2765.7</ele>
        <time>2013-08-01T06:33:49Z</time>
      </trkpt>
      <trkpt lat="42.592776" lon="1.438808">
        <ele>2776.6</ele>
        <time>2013-08-01T06:34:04Z</time>
      </trkpt>
      <trkpt lat="42.592766" lon="1.438832">
        <ele>2776.3</ele>
        <time>2013-08-01T06:34:05Z</time>
      </trkpt>
      <trkpt lat="42.592665" lon="1.438992">
        <ele>2772.2</ele>
        <time>2013-08-01T06:34:13Z</time>
      </trkpt>
      <trkpt lat="42.592565" lon="1.439092">
        <ele>2768.2</ele>
        <time>2013-08-01T06:34:22Z</time>
      </trkpt>
      <trkpt lat="42.592496" lon="1.439197">
        <ele>2765.6</ele>
        <time>2013-08-01T06:34:35Z</time>
      </trkpt>
      <trkpt lat="42.592443" lon="1.439242">
        <ele>2763.5</ele>
        <time>2013-08-01T06:34:43Z</time>
      </trkpt>
      <trkpt lat="42.592372" lon="1.439321">
        <ele>2760.8</ele>
        <time>2013-08-01T06:34:50Z</time>
      </trkpt>
      <trkpt lat="42.592314" lon="1.439354">
        <ele>2758.9</ele>
        <time>2013-08-01T06:34:56Z</time>
      </trkpt>
      <trkpt lat="42.592237" lon="1.439335">
        <ele>2756.4</ele>
        <time>2013-08-01T06:35:03Z</time>
      </trkpt>
      <trkpt lat="42.592178" lon="1.439342">
        <ele>2754.5</ele>
        <time>2013-08-01T06:35:10Z</time>
      </trkpt>
      <trkpt lat="42.592083" lon="1.439360">
        <ele>2751.3</ele>
        <time>2013-08-01T06:35:23Z</time>
      </trkpt>
      <trkpt lat="42.592015" lon="1.439395">
        <ele>2749.3</ele>
        <time>2013-08-01T06:41:53Z</time>
      </trkpt>
      <trkpt lat="42.591929" lon="1.439414">
        <ele>2746.9</ele>
        <time>2013-08-01T06:42:03Z</time>
      </trkpt>
      <trkpt lat="42.591900" lon="1.439432">
        <ele>2746.1</ele>
        <time>2013-08-01T06:42:07Z</time>
      </trkpt>
      <trkpt lat="42.591856" lon="1.439455">
        <ele>2745.0</ele>
        <time>2013-08-01T06:42:14Z</time>
      </trkpt>
      <trkpt lat="42.591775" lon="1.439420">
        <ele>2742.2</ele>
        <time>2013-08-01T06:42:28Z</time>
      </trkpt>
      <trkpt lat="42.591755" lon="1.439407">
        <ele>2741.4</ele>
        <time>2013-08-01T06:42:50Z</time>
      </trkpt>
      <trkpt lat="42.591673" lon="1.439348">
        <ele>2737.9</ele>
        <time>2013-08-01T06:43:02Z</time>
      </trkpt>
      <trkpt lat="42.591644" lon="1.439289">
        <ele>2736.0</ele>
        <time>2013-08-01T06:43:08Z</time>
      </trkpt>
      <trkpt lat="42.591596" lon="1.439248">
        <ele>2733.6</ele>
        <time>2013-08-01T06:43:15Z</time>
      </trkpt>
      <trkpt lat="42.591568" lon="1.439249">
        <ele>2732.5</ele>
        <time>2013-08-01T06:43:19Z</time>
      </trkpt>
      <trkpt lat="42.591563" lon="1.439242">
        <ele>2732.2</ele>
        <time>2013-08-01T06:43:20Z</time>
      </trkpt>
      <trkpt lat="42.591534" lon="1.439195">
        <ele>2730.1</ele>
        <time>2013-08-01T06:43:24Z</time>
      </trkpt>
      <trkpt lat="42.591466" lon="1.439166">
        <ele>2726.3</ele>
        <time>2013-08-01T06:43:40Z</time>
      </trkpt>
      <trkpt lat="42.591466" lon="1.439166">
        <ele>2726.3</ele>
        <time>2013-08-01T06:43:49Z</time>
      </trkpt>
      <trkpt lat="42.591425" lon="1.439196">
        <ele>2724.9</ele>
        <time>2013-08-01T06:44:01Z</time>
      </trkpt>
      <trkpt lat="42.591376" lon="1.439194">
        <ele>2722.9</ele>
        <time>2013-08-01T06:44:06Z</time>
      </trkpt>
      <trkpt lat="42.591319" lon="1.439064">
        <ele>2719.4</ele>
        <time>2013-08-01T07:33:20Z</time>
      </trkpt>
      <trkpt lat="42.591280" lon="1.439048">
        <ele>2718.0</ele>
        <time>2013-08-01T07:33:24Z</time>
      </trkpt>
      <trkpt lat="42.591216" lon="1.438970">
        <ele>2715.4</ele>
        <time>2013-08-01T07:33:31Z</time>
      </trkpt>
      <trkpt lat="42.591173" lon="1.438952">
        <ele>2713.9</ele>
        <time>2013-08-01T07:33:35Z</time>
      </trkpt>
      <trkpt lat="42.591118" lon="1.438941">
        <ele>2712.3</ele>
        <time>2013-08-01T07:33:41Z</time>
      </trkpt>
      <trkpt lat="42.591059" lon="1.438880">
        <ele>2710.1</ele>
        <time>2013-08-01T07:33:50Z</time>
      </trkpt>
      <trkpt lat="42.591036" lon="1.438845">
        <ele>2709.1</ele>
        <time>2013-08-01T07:33:54Z</time>
      </trkpt>
      <trkpt lat="42.591009" lon="1.438829">
        <ele>2708.1</ele>
        <time>2013-08-01T07:33:58Z</time>
      </trkpt>
      <trkpt lat="42.591009" lon="1.438829">
        <ele>2708.1</ele>
        <time>2013-08-01T07:34:02Z</time>
      </trkpt>
      <trkpt lat="42.591001" lon="1.438831">
        <ele>2708.0</ele>
        <time>2013-08-01T07:34:04Z</time>
      </trkpt>
      <trkpt lat="42.590978" lon="1.438823">
        <ele>2707.3</ele>
        <time>2013-08-01T07:34:06Z</time>
      </trkpt>
      <trkpt lat="42.590960" lon="1.438800">
        <ele>2706.4</ele>
        <time>2013-08-01T07:34:08Z</time>
      </trkpt>
      <trkpt lat="42.590857" lon="1.438758">
        <ele>2703.2</ele>
        <time>2013-08-01T07:34:18Z</time>
      </trkpt>
      <trkpt lat="42.590836" lon="1.438654">
        <ele>2700.2</ele>
        <time>2013-08-01T07:34:24Z</time>
      </trkpt>
      <trkpt lat="42.590835" lon="1.438617">
        <ele>2699.7</ele>
        <time>2013-08-01T07:34:26Z</time>
      </trkpt>
      <trkpt lat="42.590823" lon="1.438505">
        <ele>2697.7</ele>
        <time>2013-08-01T07:34:33Z</time>
      </trkpt>
      <trkpt lat="42.590814" lon="1.438462">
        <ele>2696.8</ele>
        <time>2013-08-01T07:34:37Z</time>
      </trkpt>
      <trkpt lat="42.590768" lon="1.438453">
        <ele>2695.3</ele>
        <time>2013-08-01T07:34:42Z</time>
      </trkpt>
      <trkpt lat="42.590753" lon="1.438432">
        <ele>2694.5</ele>
        <time>2013-08-01T07:34:44Z</time>
      </trkpt>
      <trkpt lat="42.590657" lon="1.438423">
        <ele>2691.6</ele>
        <time>2013-08-01T07:34:54Z</time>
      </trkpt>
      <trkpt lat="42.590642" lon="1.438412">
        <ele>2691.0</ele>
        <time>2013-08-01T07:34:56Z</time>
      </trkpt>
      <trkpt lat="42.590623" lon="1.438420">
        <ele>2690.6</ele>
        <time>2013-08-01T07:34:58Z</time>
      </trkpt>
      <trkpt lat="42.590562" lon="1.438444">
        <ele>2689.7</ele>
        <time>2013-08-01T07:35:04Z</time>
      </trkpt>
      <trkpt lat="42.590430" lon="1.438390">
        <ele>2685.1</ele>
        <time>2013-08-01T07:35:21Z</time>
      </trkpt>
      <trkpt lat="42.590316" lon="1.438374">
        <ele>2681.4</ele>
        <time>2013-08-01T07:35:34Z</time>
      </trkpt>
      <trkpt lat="42.590299" lon="1.438361">
        <ele>2680.6</ele>
        <time>2013-08-01T07:35:36Z</time>
      </trkpt>
      <trkpt lat="42.590251" lon="1.438314">
        <ele>2678.1</ele>
        <time>2013-08-01T07:35:41Z</time>
      </trkpt>
      <trkpt lat="42.590158" lon="1.438239">
        <ele>2673.6</ele>
        <time>2013-08-01T07:35:55Z</time>
      </trkpt>
      <trkpt lat="42.590158" lon="1.438239">
        <ele>2673.6</ele>
        <time>2013-08-01T07:36:10Z</time>
      </trkpt>
      <trkpt lat="42.590155" lon="1.438234">
        <ele>2673.4</ele>
        <time>2013-08-01T07:36:39Z</time>
      </trkpt>
      <trkpt lat="42.590140" lon="1.438225">
        <ele>2672.8</ele>
        <time>2013-08-01T07:37:14Z</time>
      </trkpt>
      <trkpt lat="42.590101" lon="1.438197">
        <ele>2670.9</ele>
        <time>2013-08-01T07:37:18Z</time>
      </trkpt>
      <trkpt lat="42.590078" lon="1.438213">
        <ele>2670.7</ele>
        <time>2013-08-01T07:37:33Z</time>
      </trkpt>
      <trkpt lat="42.590078" lon="1.438213">
        <ele>2670.7</ele>
        <time>2013-08-01T07:37:53Z</time>
      </trkpt>
      <trkpt lat="42.590071" lon="1.438205">
        <ele>2670.3</ele>
        <time>2013-08-01T07:38:10Z</time>
      </trkpt>
      <trkpt lat="42.590043" lon="1.438179">
        <ele>2669.0</ele>
        <time>2013-08-01T07:38:14Z</time>
      </trkpt>
      <trkpt lat="42.589977" lon="1.438103">
        <ele>2666.0</ele>
        <time>2013-08-01T07:38:27Z</time>
      </trkpt>
      <trkpt lat="42.589972" lon="1.438095">
        <ele>2665.7</ele>
        <time>2013-08-01T07:38:28Z</time>
      </trkpt>
      <trkpt lat="42.589921" lon="1.438063">
        <ele>2664.2</ele>
        <time>2013-08-01T07:38:34Z</time>
      </trkpt>
      <trkpt lat="42.589883" lon="1.438054">
        <ele>2663.5</ele>
        <time>2013-08-01T07:38:39Z</time>
      </trkpt>
      <trkpt lat="42.589839" lon="1.438034">
        <ele>2662.7</ele>
        <time>2013-08-01T07:38:43Z</time>
      </trkpt>
      <trkpt lat="42.589722" lon="1.438031">
        <ele>2661.8</ele>
        <time>2013-08-01T07:38:54Z</time>
      </trkpt>
      <trkpt lat="42.589682" lon="1.438018">
        <ele>2661.2</ele>
        <time>2013-08-01T07:39:06Z</time>
      </trkpt>
      <trkpt lat="42.589619" lon="1.437989">
        <ele>2660.0</ele>
        <time>2013-08-01T07:39:25Z</time>
      </trkpt>
      <trkpt lat="42.589523" lon="1.437912">
        <ele>2657.1</ele>
        <time>2013-08-01T07:39:41Z</time>
      </trkpt>
      <trkpt lat="42.589489" lon="1.437894">
        <ele>2656.3</ele>
        <time>2013-08-01T07:39:46Z</time>
      </trkpt>
      <trkpt lat="42.589439" lon="1.437873">
        <ele>2655.5</ele>
        <time>2013-08-01T07:39:52Z</time>
      </trkpt>
      <trkpt lat="42.589331" lon="1.437812">
        <ele>2653.4</ele>
        <time>2013-08-01T07:40:06Z</time>
      </trkpt>
      <trkpt lat="42.589244" lon="1.437751">
        <ele>2650.9</ele>
        <time>2013-08-01T07:40:19Z</time>
      </trkpt>
      <trkpt lat="42.589167" lon="1.437701">
        <ele>2648.0</ele>
        <time>2013-08-01T07:40:33Z</time>
      </trkpt>
      <trkpt lat="42.589081" lon="1.437631">
        <ele>2644.7</ele>
        <time>2013-08-01T07:40:48Z</time>
      </trkpt>
      <trkpt lat="42.589056" lon="1.437624">
        <ele>2644.4</ele>
        <time>2013-08-01T07:41:01Z</time>
      </trkpt>
      <trkpt lat="42.589056" lon="1.437624">
        <ele>2644.4</ele>
        <time>2013-08-01T07:41:32Z</time>
      </trkpt>
      <trkpt lat="42.589041" lon="1.437609">
        <ele>2643.9</ele>
        <time>2013-08-01T07:41:35Z</time>
      </trkpt>
      <trkpt lat="42.589005" lon="1.437569">
        <ele>2642.4</ele>
        <time>2013-08-01T07:41:42Z</time>
      </trkpt>
      <trkpt lat="42.588938" lon="1.437525">
        <ele>2641.2</ele>
        <time>2013-08-01T07:41:55Z</time>
      </trkpt>
      <trkpt lat="42.588922" lon="1.437510">
        <ele>2640.9</ele>
        <time>2013-08-01T07:42:06Z</time>
      </trkpt>
      <trkpt lat="42.588910" lon="1.437506">
        <ele>2640.8</ele>
        <time>2013-08-01T07:42:18Z</time>
      </trkpt>
      <trkpt lat="42.588869" lon="1.437503">
        <ele>2640.7</ele>
        <time>2013-08-01T07:42:37Z</time>
      </trkpt>
      <trkpt lat="42.588860" lon="1.437495">
        <ele>2640.6</ele>
        <time>2013-08-01T07:43:17Z</time>
      </trkpt>
      <trkpt lat="42.588813" lon="1.437481">
        <ele>2640.3</ele>
        <time>2013-08-01T07:43:32Z</time>
      </trkpt>
      <trkpt lat="42.588813" lon="1.437481">
        <ele>2640.3</ele>
        <time>2013-08-01T07:43:47Z</time>
      </trkpt>
      <trkpt lat="42.588743" lon="1.437507">
        <ele>2640.8</ele>
        <time>2013-08-01T07:43:59Z</time>
      </trkpt>
      <trkpt lat="42.588675" lon="1.437509">
        <ele>2640.7</ele>
        <time>2013-08-01T07:44:14Z</time>
      </trkpt>
      <trkpt lat="42.588578" lon="1.437534">
        <ele>2640.8</ele>
        <time>2013-08-01T07:44:25Z</time>
      </trkpt>
      <trkpt lat="42.588466" lon="1.437570">
        <ele>2641.2</ele>
        <time>2013-08-01T07:44:35Z</time>
      </trkpt>
      <trkpt lat="42.588428" lon="1.437589">
        <ele>2641.3</ele>
        <time>2013-08-01T07:44:50Z</time>
      </trkpt>
      <trkpt lat="42.588318" lon="1.437663">
        <ele>2641.0</ele>
        <time>2013-08-01T07:45:02Z</time>
      </trkpt>
      <trkpt lat="42.588267" lon="1.437698">
        <ele>2640.6</ele>
        <time>2013-08-01T07:45:14Z</time>
      </trkpt>
      <trkpt lat="42.588161" lon="1.437755">
        <ele>2639.9</ele>
        <time>2013-08-01T07:45:26Z</time>
      </trkpt>
      <trkpt lat="42.588069" lon="1.437830">
        <ele>2639.8</ele>
        <time>2013-08-01T07:45:39Z</time>
      </trkpt>
      <trkpt lat="42.588048" lon="1.437820">
        <ele>2639.8</ele>
        <time>2013-08-01T07:45:51Z</time>
      </trkpt>
      <trkpt lat="42.587990" lon="1.437843">
        <ele>2639.8</ele>
        <time>2013-08-01T07:46:04Z</time>
      </trkpt>
      <trkpt lat="42.587960" lon="1.437873">
        <ele>2639.8</ele>
        <time>2013-08-01T07:46:18Z</time>
      </trkpt>
      <trkpt lat="42.587925" lon="1.437892">
        <ele>2639.8</ele>
        <time>2013-08-01T07:46:30Z</time>
      </trkpt>
      <trkpt lat="42.587861" lon="1.437909">
        <ele>2639.8</ele>
        <time>2013-08-01T05:08:24Z</time>
      </trkpt>
      <trkpt lat="42.587819" lon="1.437901">
        <ele>2639.8</ele>
        <time>2013-07-19T17:41:10Z</time>
      </trkpt>
      <trkpt lat="42.587733" lon="1.437803">
        <ele>2639.9</ele>
        <time>2013-08-01T07:48:34Z</time>
      </trkpt>
      <trkpt lat="42.587733" lon="1.437803">
        <ele>2639.9</ele>
        <time>2013-08-01T07:48:50Z</time>
      </trkpt>
      <trkpt lat="42.587690" lon="1.437740">
        <ele>2640.0</ele>
        <time>2013-08-01T07:49:01Z</time>
      </trkpt>
      <trkpt lat="42.587595" lon="1.437655">
        <ele>2640.2</ele>
        <time>2013-08-01T07:49:13Z</time>
      </trkpt>
      <trkpt lat="42.587499" lon="1.437457">
        <ele>2639.8</ele>
        <time>2013-08-01T07:49:25Z</time>
      </trkpt>
      <trkpt lat="42.587473" lon="1.437421">
        <ele>2639.8</ele>
        <time>2013-08-01T07:49:28Z</time>
      </trkpt>
      <trkpt lat="42.587400" lon="1.437313">
        <ele>2639.8</ele>
        <time>2013-08-01T07:49:39Z</time>
      </trkpt>
      <trkpt lat="42.587387" lon="1.437271">
        <ele>2639.8</ele>
        <time>2013-08-01T07:49:44Z</time>
      </trkpt>
      <trkpt lat="42.587362" lon="1.437211">
        <ele>2639.8</ele>
        <time>2013-08-01T07:49:49Z</time>
      </trkpt>
      <trkpt lat="42.587342" lon="1.437152">
        <ele>2639.8</ele>
        <time>2013-08-01T07:49:56Z</time>
      </trkpt>
      <trkpt lat="42.587328" lon="1.437121">
        <ele>2639.8</ele>
        <time>2013-08-01T07:49:59Z</time>
      </trkpt>
      <trkpt lat="42.587314" lon="1.437101">
        <ele>2639.8</ele>
        <time>2013-08-01T07:50:01Z</time>
      </trkpt>
      <trkpt lat="42.587291" lon="1.437063">
        <ele>2639.8</ele>
        <time>2013-08-01T07:50:05Z</time>
      </trkpt>
      <trkpt lat="42.587263" lon="1.437015">
        <ele>2640.1</ele>
        <time>2013-08-01T07:50:19Z</time>
      </trkpt>
      <trkpt lat="42.587264" lon="1.437026">
        <ele>2640.1</ele>
        <time>2013-08-01T07:50:50Z</time>
      </trkpt>
      <trkpt lat="42.587236" lon="1.436973">
        <ele>2640.3</ele>
        <time>2013-08-01T07:51:05Z</time>
      </trkpt>
      <trkpt lat="42.587201" lon="1.436917">
        <ele>2640.4</ele>
        <time>2013-08-01T07:51:11Z</time>
      </trkpt>
      <trkpt lat="42.587188" lon="1.436881">
        <ele>2640.8</ele>
        <time>2013-08-01T07:51:14Z</time>
      </trkpt>
      <trkpt lat="42.587158" lon="1.436828">
        <ele>2641.8</ele>
        <time>2013-08-01T07:51:26Z</time>
      </trkpt>
      <trkpt lat="42.587067" lon="1.436752">
        <ele>2642.9</ele>
        <time>2013-08-01T07:51:39Z</time>
      </trkpt>
      <trkpt lat="42.587034" lon="1.436705">
        <ele>2643.5</ele>
        <time>2013-08-01T07:51:44Z</time>
      </trkpt>
      <trkpt lat="42.586995" lon="1.436671">
        <ele>2643.3</ele>
        <time>2013-08-01T07:51:50Z</time>
      </trkpt>
      <trkpt lat="42.586959" lon="1.436633">
        <ele>2642.6</ele>
        <time>2013-08-01T07:51:55Z</time>
      </trkpt>
      <trkpt lat="42.586929" lon="1.436613">
        <ele>2641.7</ele>
        <time>2013-08-01T07:51:59Z</time>
      </trkpt>
      <trkpt lat="42.586884" lon="1.436599">
        <ele>2640.6</ele>
        <time>2013-08-01T07:52:03Z</time>
      </trkpt>
      <trkpt lat="42.586712" lon="1.436578">
        <ele>2638.1</ele>
        <time>2013-08-01T07:52:17Z</time>
      </trkpt>
      <trkpt lat="42.586555" lon="1.436545">
        <ele>2636.4</ele>
        <time>2013-08-01T07:52:31Z</time>
      </trkpt>
      <trkpt lat="42.586413" lon="1.436506">
        <ele>2631.0</ele>
        <time>2013-08-01T07:52:44Z</time>
      </trkpt>
      <trkpt lat="42.586263" lon="1.436480">
        <ele>2625.7</ele>
        <time>2013-08-01T07:52:56Z</time>
      </trkpt>
      <trkpt lat="42.586100" lon="1.436446">
        <ele>2622.7</ele>
        <time>2013-08-01T07:53:12Z</time>
      </trkpt>
      <trkpt lat="42.585952" lon="1.436410">
        <ele>2622.4</ele>
        <time>2013-08-01T07:53:27Z</time>
      </trkpt>
      <trkpt lat="42.585841" lon="1.436339">
        <ele>2622.1</ele>
        <time>2013-08-01T07:53:40Z</time>
      </trkpt>
      <trkpt lat="42.585740" lon="1.436305">
        <ele>2621.7</ele>
        <time>2013-08-01T07:53:53Z</time>
      </trkpt>
      <trkpt lat="42.585701" lon="1.436300">
        <ele>2621.3</ele>
        <time>2013-08-01T07:53:58Z</time>
      </trkpt>
      <trkpt lat="42.585680" lon="1.436297">
        <ele>2621.0</ele>
        <time>2013-08-01T07:54:00Z</time>
      </trkpt>
      <trkpt lat="42.585620" lon="1.436259">
        <ele>2619.9</ele>
        <time>2013-08-01T07:54:09Z</time>
      </trkpt>
      <trkpt lat="42.585579" lon="1.436233">
        <ele>2619.0</ele>
        <time>2013-08-01T07:54:14Z</time>
      </trkpt>
      <trkpt lat="42.585567" lon="1.436230">
        <ele>2618.8</ele>
        <time>2013-08-01T07:54:16Z</time>
      </trkpt>
      <trkpt lat="42.585543" lon="1.436227">
        <ele>2618.2</ele>
        <time>2013-08-01T07:54:19Z</time>
      </trkpt>
      <trkpt lat="42.585508" lon="1.436227">
        <ele>2617.3</ele>
        <time>2013-08-01T07:54:25Z</time>
      </trkpt>
      <trkpt lat="42.585504" lon="1.436221">
        <ele>2617.0</ele>
        <time>2013-08-01T07:54:40Z</time>
      </trkpt>
      <trkpt lat="42.585491" lon="1.436217">
        <ele>2616.6</ele>
        <time>2013-08-01T07:55:17Z</time>
      </trkpt>
      <trkpt lat="42.585491" lon="1.436217">
        <ele>2616.6</ele>
        <time>2013-08-01T07:55:40Z</time>
      </trkpt>
      <trkpt lat="42.585493" lon="1.436223">
        <ele>2616.7</ele>
        <time>2013-08-01T07:56:07Z</time>
      </trkpt>
      <trkpt lat="42.585456" lon="1.436252">
        <ele>2616.4</ele>
        <time>2013-08-01T07:56:18Z</time>
      </trkpt>
      <trkpt lat="42.585370" lon="1.436283">
        <ele>2614.9</ele>
        <time>2013-08-01T07:56:33Z</time>
      </trkpt>
      <trkpt lat="42.585370" lon="1.436283">
        <ele>2614.9</ele>
        <time>2013-08-01T07:56:48Z</time>
      </trkpt>
      <trkpt lat="42.585370" lon="1.436283">
        <ele>2614.9</ele>
        <time>2013-08-01T07:57:04Z</time>
      </trkpt>
      <trkpt lat="42.585360" lon="1.436285">
        <ele>2614.7</ele>
        <time>2013-08-01T07:57:18Z</time>
      </trkpt>
      <trkpt lat="42.585362" lon="1.436286">
        <ele>2614.8</ele>
        <time>2013-08-01T07:57:33Z</time>
      </trkpt>
      <trkpt lat="42.585362" lon="1.436286">
        <ele>2614.8</ele>
        <time>2013-08-01T07:57:45Z</time>
      </trkpt>
      <trkpt lat="42.585347" lon="1.436281">
        <ele>2614.2</ele>
        <time>2013-08-01T07:58:00Z</time>
      </trkpt>
      <trkpt lat="42.585331" lon="1.436275">
        <ele>2613.7</ele>
        <time>2013-08-01T07:58:06Z</time>
      </trkpt>
      <trkpt lat="42.585296" lon="1.436261">
        <ele>2612.4</ele>
        <time>2013-08-01T07:58:16Z</time>
      </trkpt>
      <trkpt lat="42.585287" lon="1.436259">
        <ele>2612.1</ele>
        <time>2013-08-01T07:58:27Z</time>
      </trkpt>
      <trkpt lat="42.585286" lon="1.436254">
        <ele>2611.9</ele>
        <time>2013-08-01T07:58:42Z</time>
      </trkpt>
      <trkpt lat="42.585162" lon="1.436200">
        <ele>2608.1</ele>
        <time>2013-08-01T07:58:54Z</time>
      </trkpt>
      <trkpt lat="42.585069" lon="1.436118">
        <ele>2605.4</ele>
        <time>2013-08-01T07:59:08Z</time>
      </trkpt>
      <trkpt lat="42.585029" lon="1.436090">
        <ele>2604.4</ele>
        <time>2013-08-01T07:59:21Z</time>
      </trkpt>
      <trkpt lat="42.585029" lon="1.436090">
        <ele>2604.4</ele>
        <time>2013-08-01T07:59:36Z</time>
      </trkpt>
      <trkpt lat="42.585016" lon="1.436105">
        <ele>2604.6</ele>
        <time>2013-08-01T07:59:46Z</time>
      </trkpt>
      <trkpt lat="42.584996" lon="1.436108">
        <ele>2604.4</ele>
        <time>2013-08-01T07:59:53Z</time>
      </trkpt>
      <trkpt lat="42.584887" lon="1.436090">
        <ele>2603.3</ele>
        <time>2013-08-01T08:00:00Z</time>
      </trkpt>
      <trkpt lat="42.584853" lon="1.436079">
        <ele>2602.7</ele>
        <time>2013-08-01T08:00:14Z</time>
      </trkpt>
      <trkpt lat="42.584853" lon="1.436079">
        <ele>2602.7</ele>
        <time>2013-08-01T08:00:40Z</time>
      </trkpt>
      <trkpt lat="42.584851" lon="1.436078">
        <ele>2602.6</ele>
        <time>2013-08-01T08:01:08Z</time>
      </trkpt>
      <trkpt lat="42.584845" lon="1.436075">
        <ele>2602.5</ele>
        <time>2013-08-01T08:01:35Z</time>
      </trkpt>
      <trkpt lat="42.584845" lon="1.436075">
        <ele>2602.5</ele>
        <time>2013-08-01T08:01:58Z</time>
      </trkpt>
      <trkpt lat="42.584845" lon="1.436074">
        <ele>2602.5</ele>
        <time>2013-08-01T08:02:26Z</time>
      </trkpt>
      <trkpt lat="42.584844" lon="1.436074">
        <ele>2602.5</ele>
        <time>2013-08-01T08:02:55Z</time>
      </trkpt>
      <trkpt lat="42.584844" lon="1.436077">
        <ele>2602.5</ele>
        <time>2013-08-01T08:03:10Z</time>
      </trkpt>
      <trkpt lat="42.584816" lon="1.436058">
        <ele>2601.8</ele>
        <time>2013-08-01T08:03:16Z</time>
      </trkpt>
      <trkpt lat="42.584771" lon="1.435956">
        <ele>2599.3</ele>
        <time>2013-08-01T08:03:27Z</time>
      </trkpt>
      <trkpt lat="42.584770" lon="1.435956">
        <ele>2599.3</ele>
        <time>2013-08-01T08:03:43Z</time>
      </trkpt>
      <trkpt lat="42.584748" lon="1.435865">
        <ele>2597.0</ele>
        <time>2013-08-01T08:03:55Z</time>
      </trkpt>
      <trkpt lat="42.584694" lon="1.435768">
        <ele>2594.3</ele>
        <time>2013-08-01T08:04:02Z</time>
      </trkpt>
      <trkpt lat="42.584669" lon="1.435717">
        <ele>2593.2</ele>
        <time>2013-08-01T08:04:05Z</time>
      </trkpt>
      <trkpt lat="42.584595" lon="1.435571">
        <ele>2589.9</ele>
        <time>2013-08-01T08:04:18Z</time>
      </trkpt>
      <trkpt lat="42.584537" lon="1.435457">
        <ele>2587.2</ele>
        <time>2013-08-01T08:04:28Z</time>
      </trkpt>
      <trkpt lat="42.584512" lon="1.435288">
        <ele>2586.1</ele>
        <time>2013-08-01T08:04:41Z</time>
      </trkpt>
      <trkpt lat="42.584510" lon="1.435272">
        <ele>2586.1</ele>
        <time>2013-08-01T08:04:42Z</time>
      </trkpt>
      <trkpt lat="42.584504" lon="1.435148">
        <ele>2588.2</ele>
        <time>2013-08-01T08:04:52Z</time>
      </trkpt>
      <trkpt lat="42.584489" lon="1.435117">
        <ele>2588.7</ele>
        <time>2013-08-01T08:04:55Z</time>
      </trkpt>
      <trkpt lat="42.584479" lon="1.435063">
        <ele>2590.1</ele>
        <time>2013-08-01T08:05:02Z</time>
      </trkpt>
      <trkpt lat="42.584463" lon="1.435061">
        <ele>2589.6</ele>
        <time>2013-08-01T08:05:04Z</time>
      </trkpt>
      <trkpt lat="42.584429" lon="1.435044">
        <ele>2589.0</ele>
        <time>2013-08-01T08:05:08Z</time>
      </trkpt>
      <trkpt lat="42.584380" lon="1.435000">
        <ele>2588.7</ele>
        <time>2013-08-01T08:05:14Z</time>
      </trkpt>
      <trkpt lat="42.584261" lon="1.434970">
        <ele>2585.7</ele>
        <time>2013-08-01T08:05:28Z</time>
      </trkpt>
      <trkpt lat="42.584056" lon="1.434898">
        <ele>2576.4</ele>
        <time>2013-08-01T08:05:45Z</time>
      </trkpt>
      <trkpt lat="42.583928" lon="1.434814">
        <ele>2572.1</ele>
        <time>2013-08-01T08:05:56Z</time>
      </trkpt>
      <trkpt lat="42.583889" lon="1.434775">
        <ele>2571.5</ele>
        <time>2013-08-01T08:06:00Z</time>
      </trkpt>
      <trkpt lat="42.583887" lon="1.434764">
        <ele>2571.7</ele>
        <time>2013-08-01T08:06:01Z</time>
      </trkpt>
      <trkpt lat="42.583879" lon="1.434709">
        <ele>2572.8</ele>
        <time>2013-08-01T08:06:05Z</time>
      </trkpt>
      <trkpt lat="42.583752" lon="1.434673">
        <ele>2568.7</ele>
        <time>2013-08-01T08:06:17Z</time>
      </trkpt>
      <trkpt lat="42.583700" lon="1.434654">
        <ele>2567.2</ele>
        <time>2013-08-01T08:06:22Z</time>
      </trkpt>
      <trkpt lat="42.583658" lon="1.434633">
        <ele>2566.0</ele>
        <time>2013-08-01T08:06:26Z</time>
      </trkpt>
      <trkpt lat="42.583626" lon="1.434604">
        <ele>2565.4</ele>
        <time>2013-08-01T08:06:29Z</time>
      </trkpt>
      <trkpt lat="42.583567" lon="1.434572">
        <ele>2563.7</ele>
        <time>2013-08-01T08:06:36Z</time>
      </trkpt>
      <trkpt lat="42.583496" lon="1.434477">
        <ele>2563.5</ele>
        <time>2013-08-01T08:06:49Z</time>
      </trkpt>
      <trkpt lat="42.583489" lon="1.434478">
        <ele>2563.1</ele>
        <time>2013-08-01T08:06:50Z</time>
      </trkpt>
      <trkpt lat="42.583460" lon="1.434467">
        <ele>2562.1</ele>
        <time>2013-08-01T08:19:30Z</time>
      </trkpt>
      <trkpt lat="42.583420" lon="1.434427">
        <ele>2561.4</ele>
        <time>2013-08-01T08:19:36Z</time>
      </trkpt>
      <trkpt lat="42.583366" lon="1.434368">
        <ele>2560.5</ele>
        <time>2013-08-01T08:19:43Z</time>
      </trkpt>
      <trkpt lat="42.583359" lon="1.434362">
        <ele>2560.3</ele>
        <time>2013-08-01T08:19:44Z</time>
      </trkpt>
      <trkpt lat="42.583269" lon="1.434253">
        <ele>2558.1</ele>
        <time>2013-08-01T08:19:58Z</time>
      </trkpt>
      <trkpt lat="42.583204" lon="1.434195">
        <ele>2555.9</ele>
        <time>2013-08-01T08:20:08Z</time>
      </trkpt>
      <trkpt lat="42.583178" lon="1.434168">
        <ele>2555.0</ele>
        <time>2013-08-01T08:20:12Z</time>
      </trkpt>
      <trkpt lat="42.583145" lon="1.434141">
        <ele>2553.7</ele>
        <time>2013-08-01T08:20:16Z</time>
      </trkpt>
      <trkpt lat="42.583095" lon="1.434041">
        <ele>2552.4</ele>
        <time>2013-08-01T08:20:30Z</time>
      </trkpt>
      <trkpt lat="42.583022" lon="1.434062">
        <ele>2547.5</ele>
        <time>2013-08-01T08:20:42Z</time>
      </trkpt>
      <trkpt lat="42.582947" lon="1.434086">
        <ele>2542.0</ele>
        <time>2013-08-01T08:20:52Z</time>
      </trkpt>
      <trkpt lat="42.582875" lon="1.434127">
        <ele>2536.9</ele>
        <time>2013-08-01T08:21:02Z</time>
      </trkpt>
      <trkpt lat="42.582854" lon="1.434122">
        <ele>2535.5</ele>
        <time>2013-08-01T08:21:06Z</time>
      </trkpt>
      <trkpt lat="42.582835" lon="1.433981">
        <ele>2535.7</ele>
        <time>2013-08-01T08:21:19Z</time>
      </trkpt>
      <trkpt lat="42.582815" lon="1.433952">
        <ele>2534.8</ele>
        <time>2013-08-01T08:21:33Z</time>
      </trkpt>
      <trkpt lat="42.582803" lon="1.433891">
        <ele>2534.8</ele>
        <time>2013-08-01T08:21:46Z</time>
      </trkpt>
      <trkpt lat="42.582744" lon="1.433845">
        <ele>2532.1</ele>
        <time>2013-08-01T08:21:56Z</time>
      </trkpt>
      <trkpt lat="42.582705" lon="1.433835">
        <ele>2530.2</ele>
        <time>2013-08-01T08:22:02Z</time>
      </trkpt>
      <trkpt lat="42.582684" lon="1.433848">
        <ele>2528.9</ele>
        <time>2013-08-01T08:22:04Z</time>
      </trkpt>
      <trkpt lat="42.582630" lon="1.433856">
        <ele>2526.0</ele>
        <time>2013-08-01T08:22:10Z</time>
      </trkpt>
      <trkpt lat="42.582628" lon="1.433851">
        <ele>2525.9</ele>
        <time>2013-08-01T08:22:11Z</time>
      </trkpt>
      <trkpt lat="42.582564" lon="1.433816">
        <ele>2523.1</ele>
        <time>2013-08-01T08:22:21Z</time>
      </trkpt>
      <trkpt lat="42.582563" lon="1.433659">
        <ele>2525.0</ele>
        <time>2013-08-01T08:22:33Z</time>
      </trkpt>
      <trkpt lat="42.582562" lon="1.433642">
        <ele>2525.1</ele>
        <time>2013-08-01T08:22:34Z</time>
      </trkpt>
      <trkpt lat="42.582546" lon="1.433571">
        <ele>2525.0</ele>
        <time>2013-08-01T08:22:40Z</time>
      </trkpt>
      <trkpt lat="42.582489" lon="1.433514">
        <ele>2522.8</ele>
        <time>2013-08-01T08:22:48Z</time>
      </trkpt>
      <trkpt lat="42.582420" lon="1.433460">
        <ele>2518.1</ele>
        <time>2013-08-01T08:22:57Z</time>
      </trkpt>
      <trkpt lat="42.582405" lon="1.433483">
        <ele>2516.8</ele>
        <time>2013-08-01T08:22:59Z</time>
      </trkpt>
      <trkpt lat="42.582371" lon="1.433560">
        <ele>2513.8</ele>
        <time>2013-08-01T08:23:05Z</time>
      </trkpt>
      <trkpt lat="42.582349" lon="1.433554">
        <ele>2512.3</ele>
        <time>2013-08-01T08:23:08Z</time>
      </trkpt>
      <trkpt lat="42.582302" lon="1.433460">
        <ele>2509.0</ele>
        <time>2013-08-01T08:23:18Z</time>
      </trkpt>
      <trkpt lat="42.582248" lon="1.433297">
        <ele>2504.6</ele>
        <time>2013-08-01T08:23:32Z</time>
      </trkpt>
      <trkpt lat="42.582229" lon="1.433271">
        <ele>2502.7</ele>
        <time>2013-08-01T08:23:37Z</time>
      </trkpt>
      <trkpt lat="42.582169" lon="1.433281">
        <ele>2498.4</ele>
        <time>2013-08-01T08:23:49Z</time>
      </trkpt>
      <trkpt lat="42.582188" lon="1.433202">
        <ele>2498.4</ele>
        <time>2013-08-01T08:23:57Z</time>
      </trkpt>
      <trkpt lat="42.582201" lon="1.433169">
        <ele>2499.0</ele>
        <time>2013-08-01T08:24:07Z</time>
      </trkpt>
      <trkpt lat="42.582205" lon="1.433125">
        <ele>2499.0</ele>
        <time>2013-08-01T08:24:11Z</time>
      </trkpt>
      <trkpt lat="42.582207" lon="1.433100">
        <ele>2499.1</ele>
        <time>2013-08-01T08:24:13Z</time>
      </trkpt>
      <trkpt lat="42.582201" lon="1.433052">
        <ele>2498.4</ele>
        <time>2013-08-01T08:24:17Z</time>
      </trkpt>
      <trkpt lat="42.582156" lon="1.432935">
        <ele>2494.8</ele>
        <time>2013-08-01T08:24:29Z</time>
      </trkpt>
      <trkpt lat="42.582110" lon="1.432832">
        <ele>2491.6</ele>
        <time>2013-08-01T08:24:41Z</time>
      </trkpt>
      <trkpt lat="42.582086" lon="1.432753">
        <ele>2489.9</ele>
        <time>2013-08-01T08:24:53Z</time>
      </trkpt>
      <trkpt lat="42.582082" lon="1.432678">
        <ele>2489.9</ele>
        <time>2013-08-01T08:25:04Z</time>
      </trkpt>
      <trkpt lat="42.582074" lon="1.432634">
        <ele>2489.4</ele>
        <time>2013-08-01T08:25:13Z</time>
      </trkpt>
      <trkpt lat="42.582065" lon="1.432575">
        <ele>2488.6</ele>
        <time>2013-08-01T08:25:17Z</time>
      </trkpt>
      <trkpt lat="42.582057" lon="1.432550">
        <ele>2487.8</ele>
        <time>2013-08-01T08:25:19Z</time>
      </trkpt>
      <trkpt lat="42.581956" lon="1.432517">
        <ele>2479.3</ele>
        <time>2013-08-01T08:25:33Z</time>
      </trkpt>
      <trkpt lat="42.581941" lon="1.432535">
        <ele>2478.2</ele>
        <time>2013-08-01T08:25:36Z</time>
      </trkpt>
      <trkpt lat="42.581864" lon="1.432599">
        <ele>2474.1</ele>
        <time>2013-08-01T08:25:48Z</time>
      </trkpt>
      <trkpt lat="42.581848" lon="1.432642">
        <ele>2473.1</ele>
        <time>2013-08-01T08:25:52Z</time>
      </trkpt>
      <trkpt lat="42.581801" lon="1.432694">
        <ele>2470.6</ele>
        <time>2013-08-01T08:25:59Z</time>
      </trkpt>
      <trkpt lat="42.581715" lon="1.432764">
        <ele>2466.0</ele>
        <time>2013-08-01T08:26:12Z</time>
      </trkpt>
      <trkpt lat="42.581649" lon="1.432793">
        <ele>2462.6</ele>
        <time>2013-08-01T08:26:23Z</time>
      </trkpt>
      <trkpt lat="42.581621" lon="1.432818">
        <ele>2461.0</ele>
        <time>2013-08-01T08:26:27Z</time>
      </trkpt>
      <trkpt lat="42.581563" lon="1.432995">
        <ele>2457.3</ele>
        <time>2013-08-01T08:26:42Z</time>
      </trkpt>
      <trkpt lat="42.581533" lon="1.433041">
        <ele>2456.3</ele>
        <time>2013-08-01T08:26:46Z</time>
      </trkpt>
      <trkpt lat="42.581478" lon="1.433182">
        <ele>2454.8</ele>
        <time>2013-08-01T08:27:00Z</time>
      </trkpt>
      <trkpt lat="42.581430" lon="1.433379">
        <ele>2452.9</ele>
        <time>2013-08-01T08:27:15Z</time>
      </trkpt>
      <trkpt lat="42.581393" lon="1.433496">
        <ele>2450.3</ele>
        <time>2013-08-01T08:27:26Z</time>
      </trkpt>
      <trkpt lat="42.581360" lon="1.433595">
        <ele>2447.6</ele>
        <time>2013-08-01T08:27:36Z</time>
      </trkpt>
      <trkpt lat="42.581351" lon="1.433642">
        <ele>2446.7</ele>
        <time>2013-08-01T08:27:40Z</time>
      </trkpt>
      <trkpt lat="42.581337" lon="1.433688">
        <ele>2445.6</ele>
        <time>2013-08-01T08:27:45Z</time>
      </trkpt>
      <trkpt lat="42.581306" lon="1.433797">
        <ele>2443.1</ele>
        <time>2013-08-01T08:27:56Z</time>
      </trkpt>
      <trkpt lat="42.581251" lon="1.433787">
        <ele>2440.4</ele>
        <time>2013-08-01T08:28:08Z</time>
      </trkpt>
      <trkpt lat="42.581204" lon="1.433880">
        <ele>2437.4</ele>
        <time>2013-08-01T08:28:21Z</time>
      </trkpt>
      <trkpt lat="42.581198" lon="1.433874">
        <ele>2437.2</ele>
        <time>2013-08-01T08:28:22Z</time>
      </trkpt>
      <trkpt lat="42.581169" lon="1.433831">
        <ele>2436.6</ele>
        <time>2013-08-01T08:28:28Z</time>
      </trkpt>
      <trkpt lat="42.581127" lon="1.433797">
        <ele>2436.0</ele>
        <time>2013-08-01T08:28:34Z</time>
      </trkpt>
      <trkpt lat="42.581101" lon="1.433799">
        <ele>2435.3</ele>
        <time>2013-08-01T08:28:36Z</time>
      </trkpt>
      <trkpt lat="42.581011" lon="1.433814">
        <ele>2433.3</ele>
        <time>2013-08-01T08:28:50Z</time>
      </trkpt>
      <trkpt lat="42.580991" lon="1.433872">
        <ele>2431.7</ele>
        <time>2013-08-01T08:31:47Z</time>
      </trkpt>
      <trkpt lat="42.580972" lon="1.433909">
        <ele>2430.6</ele>
        <time>2013-08-01T08:31:51Z</time>
      </trkpt>
      <trkpt lat="42.580906" lon="1.433980">
        <ele>2428.1</ele>
        <time>2013-08-01T08:32:00Z</time>
      </trkpt>
      <trkpt lat="42.580837" lon="1.434135">
        <ele>2424.4</ele>
        <time>2013-08-01T08:32:15Z</time>
      </trkpt>
      <trkpt lat="42.580822" lon="1.434166">
        <ele>2424.0</ele>
        <time>2013-08-01T08:32:18Z</time>
      </trkpt>
      <trkpt lat="42.580821" lon="1.434205">
        <ele>2423.3</ele>
        <time>2013-08-01T08:32:21Z</time>
      </trkpt>
      <trkpt lat="42.580809" lon="1.434260">
        <ele>2422.5</ele>
        <time>2013-08-01T08:32:25Z</time>
      </trkpt>
      <trkpt lat="42.580850" lon="1.434303">
        <ele>2421.7</ele>
        <time>2013-08-01T08:32:31Z</time>
      </trkpt>
      <trkpt lat="42.580842" lon="1.434450">
        <ele>2419.3</ele>
        <time>2013-08-01T08:32:44Z</time>
      </trkpt>
      <trkpt lat="42.580838" lon="1.434472">
        <ele>2418.8</ele>
        <time>2013-08-01T08:32:46Z</time>
      </trkpt>
      <trkpt lat="42.580819" lon="1.434595">
        <ele>2416.3</ele>
        <time>2013-08-01T08:32:59Z</time>
      </trkpt>
      <trkpt lat="42.580760" lon="1.434674">
        <ele>2414.2</ele>
        <time>2013-08-01T08:33:12Z</time>
      </trkpt>
      <trkpt lat="42.580757" lon="1.434686">
        <ele>2413.9</ele>
        <time>2013-08-01T08:33:13Z</time>
      </trkpt>
      <trkpt lat="42.580772" lon="1.434765">
        <ele>2412.1</ele>
        <time>2013-08-01T08:33:20Z</time>
      </trkpt>
      <trkpt lat="42.580793" lon="1.434792">
        <ele>2411.6</ele>
        <time>2013-08-01T08:33:24Z</time>
      </trkpt>
      <trkpt lat="42.580794" lon="1.434823">
        <ele>2410.9</ele>
        <time>2013-08-01T08:33:27Z</time>
      </trkpt>
      <trkpt lat="42.580758" lon="1.434901">
        <ele>2408.8</ele>
        <time>2013-08-01T08:33:36Z</time>
      </trkpt>
      <trkpt lat="42.580751" lon="1.434919">
        <ele>2408.4</ele>
        <time>2013-08-01T08:33:38Z</time>
      </trkpt>
      <trkpt lat="42.580733" lon="1.434958">
        <ele>2407.4</ele>
        <time>2013-08-01T08:33:42Z</time>
      </trkpt>
      <trkpt lat="42.580701" lon="1.435057">
        <ele>2404.4</ele>
        <time>2013-08-01T08:33:51Z</time>
      </trkpt>
      <trkpt lat="42.580714" lon="1.435128">
        <ele>2402.8</ele>
        <time>2013-08-01T08:33:58Z</time>
      </trkpt>
      <trkpt lat="42.580722" lon="1.435179">
        <ele>2401.5</ele>
        <time>2013-08-01T08:34:05Z</time>
      </trkpt>
      <trkpt lat="42.580732" lon="1.435221">
        <ele>2400.4</ele>
        <time>2013-08-01T08:34:09Z</time>
      </trkpt>
      <trkpt lat="42.580736" lon="1.435264">
        <ele>2399.2</ele>
        <time>2013-08-01T08:34:14Z</time>
      </trkpt>
      <trkpt lat="42.580749" lon="1.435299">
        <ele>2398.3</ele>
        <time>2013-08-01T08:34:17Z</time>
      </trkpt>
      <trkpt lat="42.580748" lon="1.435363">
        <ele>2396.7</ele>
        <time>2013-08-01T08:34:22Z</time>
      </trkpt>
      <trkpt lat="42.580762" lon="1.435383">
        <ele>2396.4</ele>
        <time>2013-08-01T08:34:24Z</time>
      </trkpt>
      <trkpt lat="42.580754" lon="1.435465">
        <ele>2394.4</ele>
        <time>2013-08-01T08:34:32Z</time>
      </trkpt>
      <trkpt lat="42.580721" lon="1.435625">
        <ele>2389.4</ele>
        <time>2013-08-01T08:34:45Z</time>
      </trkpt>
      <trkpt lat="42.580692" lon="1.435743">
        <ele>2386.6</ele>
        <time>2013-08-01T08:34:56Z</time>
      </trkpt>
      <trkpt lat="42.580657" lon="1.435803">
        <ele>2385.5</ele>
        <time>2013-08-01T08:35:03Z</time>
      </trkpt>
      <trkpt lat="42.580656" lon="1.435944">
        <ele>2381.8</ele>
        <time>2013-08-01T08:35:18Z</time>
      </trkpt>
      <trkpt lat="42.580651" lon="1.436010">
        <ele>2380.2</ele>
        <time>2013-08-01T08:35:26Z</time>
      </trkpt>
      <trkpt lat="42.580644" lon="1.436167">
        <ele>2376.5</ele>
        <time>2013-08-01T08:35:38Z</time>
      </trkpt>
      <trkpt lat="42.580612" lon="1.436262">
        <ele>2374.7</ele>
        <time>2013-08-01T08:35:54Z</time>
      </trkpt>
      <trkpt lat="42.580653" lon="1.436370">
        <ele>2371.3</ele>
        <time>2013-08-01T08:36:06Z</time>
      </trkpt>
      <trkpt lat="42.580624" lon="1.436446">
        <ele>2369.3</ele>
        <time>2013-08-01T08:36:18Z</time>
      </trkpt>
      <trkpt lat="42.580592" lon="1.436524">
        <ele>2366.9</ele>
        <time>2013-08-01T08:36:29Z</time>
      </trkpt>
      <trkpt lat="42.580587" lon="1.436577">
        <ele>2364.9</ele>
        <time>2013-08-01T08:36:35Z</time>
      </trkpt>
      <trkpt lat="42.580592" lon="1.436602">
        <ele>2363.9</ele>
        <time>2013-08-01T08:36:37Z</time>
      </trkpt>
      <trkpt lat="42.580604" lon="1.436624">
        <ele>2363.0</ele>
        <time>2013-08-01T08:36:39Z</time>
      </trkpt>
      <trkpt lat="42.580658" lon="1.436645">
        <ele>2362.0</ele>
        <time>2013-08-01T08:36:46Z</time>
      </trkpt>
      <trkpt lat="42.580663" lon="1.436697">
        <ele>2359.9</ele>
        <time>2013-08-01T08:36:50Z</time>
      </trkpt>
      <trkpt lat="42.580653" lon="1.436729">
        <ele>2358.7</ele>
        <time>2013-08-01T08:36:55Z</time>
      </trkpt>
      <trkpt lat="42.580614" lon="1.436776">
        <ele>2357.0</ele>
        <time>2013-08-01T08:37:03Z</time>
      </trkpt>
      <trkpt lat="42.580593" lon="1.436799">
        <ele>2356.2</ele>
        <time>2013-08-01T08:37:07Z</time>
      </trkpt>
      <trkpt lat="42.580542" lon="1.436853">
        <ele>2353.9</ele>
        <time>2013-08-01T08:37:15Z</time>
      </trkpt>
      <trkpt lat="42.580510" lon="1.436862">
        <ele>2353.2</ele>
        <time>2013-08-01T08:37:19Z</time>
      </trkpt>
      <trkpt lat="42.580483" lon="1.436893">
        <ele>2351.4</ele>
        <time>2013-08-01T08:37:26Z</time>
      </trkpt>
      <trkpt lat="42.580417" lon="1.436908">
        <ele>2349.7</ele>
        <time>2013-08-01T08:37:36Z</time>
      </trkpt>
      <trkpt lat="42.580328" lon="1.436996">
        <ele>2345.8</ele>
        <time>2013-08-01T08:37:52Z</time>
      </trkpt>
      <trkpt lat="42.580310" lon="1.437043">
        <ele>2344.5</ele>
        <time>2013-08-01T08:37:58Z</time>
      </trkpt>
      <trkpt lat="42.580277" lon="1.437088">
        <ele>2343.4</ele>
        <time>2013-08-01T08:38:03Z</time>
      </trkpt>
      <trkpt lat="42.580237" lon="1.437119">
        <ele>2342.6</ele>
        <time>2013-08-01T08:38:10Z</time>
      </trkpt>
      <trkpt lat="42.580208" lon="1.437192">
        <ele>2340.2</ele>
        <time>2013-08-01T08:38:22Z</time>
      </trkpt>
      <trkpt lat="42.580186" lon="1.437275">
        <ele>2337.1</ele>
        <time>2013-08-01T08:38:33Z</time>
      </trkpt>
      <trkpt lat="42.580162" lon="1.437308">
        <ele>2335.7</ele>
        <time>2013-08-01T08:38:37Z</time>
      </trkpt>
      <trkpt lat="42.580172" lon="1.437394">
        <ele>2332.5</ele>
        <time>2013-08-01T08:38:46Z</time>
      </trkpt>
      <trkpt lat="42.580183" lon="1.437465">
        <ele>2330.0</ele>
        <time>2013-08-01T08:38:53Z</time>
      </trkpt>
      <trkpt lat="42.580159" lon="1.437602">
        <ele>2325.7</ele>
        <time>2013-08-01T08:39:08Z</time>
      </trkpt>
      <trkpt lat="42.580131" lon="1.437606">
        <ele>2325.3</ele>
        <time>2013-08-01T08:39:11Z</time>
      </trkpt>
      <trkpt lat="42.580106" lon="1.437619">
        <ele>2324.7</ele>
        <time>2013-08-01T08:39:14Z</time>
      </trkpt>
      <trkpt lat="42.580033" lon="1.437709">
        <ele>2321.8</ele>
        <time>2013-08-01T08:39:27Z</time>
      </trkpt>
      <trkpt lat="42.579999" lon="1.437756">
        <ele>2320.4</ele>
        <time>2013-08-01T08:39:33Z</time>
      </trkpt>
      <trkpt lat="42.579985" lon="1.437782">
        <ele>2319.6</ele>
        <time>2013-08-01T08:39:36Z</time>
      </trkpt>
      <trkpt lat="42.579981" lon="1.437804">
        <ele>2319.0</ele>
        <time>2013-08-01T08:39:38Z</time>
      </trkpt>
      <trkpt lat="42.579979" lon="1.437814">
        <ele>2318.7</ele>
        <time>2013-08-01T08:39:39Z</time>
      </trkpt>
      <trkpt lat="42.579947" lon="1.437944">
        <ele>2314.8</ele>
        <time>2013-08-01T08:39:52Z</time>
      </trkpt>
      <trkpt lat="42.579957" lon="1.438091">
        <ele>2310.5</ele>
        <time>2013-08-01T08:40:05Z</time>
      </trkpt>
      <trkpt lat="42.579939" lon="1.438136">
        <ele>2309.1</ele>
        <time>2013-08-01T08:40:12Z</time>
      </trkpt>
      <trkpt lat="42.579925" lon="1.438251">
        <ele>2306.3</ele>
        <time>2013-08-01T08:40:24Z</time>
      </trkpt>
      <trkpt lat="42.579918" lon="1.438259">
        <ele>2306.1</ele>
        <time>2013-08-01T08:40:25Z</time>
      </trkpt>
      <trkpt lat="42.579925" lon="1.438374">
        <ele>2303.5</ele>
        <time>2013-08-01T08:40:37Z</time>
      </trkpt>
      <trkpt lat="42.579927" lon="1.438403">
        <ele>2302.8</ele>
        <time>2013-08-01T08:40:43Z</time>
      </trkpt>
      <trkpt lat="42.579927" lon="1.438403">
        <ele>2302.8</ele>
        <time>2013-08-01T08:41:01Z</time>
      </trkpt>
      <trkpt lat="42.579927" lon="1.438408">
        <ele>2302.7</ele>
        <time>2013-08-01T08:41:29Z</time>
      </trkpt>
      <trkpt lat="42.579908" lon="1.438463">
        <ele>2301.2</ele>
        <time>2013-08-01T08:41:44Z</time>
      </trkpt>
      <trkpt lat="42.579920" lon="1.438503">
        <ele>2300.2</ele>
        <time>2013-08-01T08:41:48Z</time>
      </trkpt>
      <trkpt lat="42.579912" lon="1.438527">
        <ele>2299.6</ele>
        <time>2013-08-01T08:41:50Z</time>
      </trkpt>
      <trkpt lat="42.579932" lon="1.438621">
        <ele>2297.3</ele>
        <time>2013-08-01T08:41:59Z</time>
      </trkpt>
      <trkpt lat="42.579914" lon="1.438664">
        <ele>2296.4</ele>
        <time>2013-08-01T08:42:04Z</time>
      </trkpt>
      <trkpt lat="42.579901" lon="1.438718">
        <ele>2294.8</ele>
        <time>2013-08-01T08:42:09Z</time>
      </trkpt>
      <trkpt lat="42.579900" lon="1.438865">
        <ele>2290.6</ele>
        <time>2013-08-01T08:42:21Z</time>
      </trkpt>
      <trkpt lat="42.579895" lon="1.438875">
        <ele>2290.3</ele>
        <time>2013-08-01T08:42:22Z</time>
      </trkpt>
      <trkpt lat="42.579884" lon="1.438893">
        <ele>2290.0</ele>
        <time>2013-08-01T08:42:24Z</time>
      </trkpt>
      <trkpt lat="42.579892" lon="1.438985">
        <ele>2287.4</ele>
        <time>2013-08-01T08:42:31Z</time>
      </trkpt>
      <trkpt lat="42.579901" lon="1.439052">
        <ele>2285.6</ele>
        <time>2013-08-01T08:42:36Z</time>
      </trkpt>
      <trkpt lat="42.579883" lon="1.439223">
        <ele>2281.4</ele>
        <time>2013-08-01T08:42:50Z</time>
      </trkpt>
      <trkpt lat="42.579906" lon="1.439410">
        <ele>2280.3</ele>
        <time>2013-08-01T08:43:04Z</time>
      </trkpt>
      <trkpt lat="42.579935" lon="1.439596">
        <ele>2279.9</ele>
        <time>2013-08-01T08:43:17Z</time>
      </trkpt>
      <trkpt lat="42.579984" lon="1.439825">
        <ele>2279.2</ele>
        <time>2013-08-01T08:43:30Z</time>
      </trkpt>
      <trkpt lat="42.580016" lon="1.439968">
        <ele>2277.5</ele>
        <time>2013-08-01T08:43:42Z</time>
      </trkpt>
      <trkpt lat="42.580044" lon="1.440120">
        <ele>2275.3</ele>
        <time>2013-08-01T08:43:50Z</time>
      </trkpt>
      <trkpt lat="42.580072" lon="1.440361">
        <ele>2271.8</ele>
        <time>2013-08-01T08:44:04Z</time>
      </trkpt>
      <trkpt lat="42.580078" lon="1.440414">
        <ele>2271.1</ele>
        <time>2013-08-01T08:44:08Z</time>
      </trkpt>
      <trkpt lat="42.580118" lon="1.440594">
        <ele>2269.2</ele>
        <time>2013-08-01T08:44:22Z</time>
      </trkpt>
      <trkpt lat="42.580139" lon="1.440698">
        <ele>2267.8</ele>
        <time>2013-08-01T08:44:29Z</time>
      </trkpt>
      <trkpt lat="42.580127" lon="1.440950">
        <ele>2265.7</ele>
        <time>2013-08-01T08:44:44Z</time>
      </trkpt>
      <trkpt lat="42.580082" lon="1.441235">
        <ele>2263.5</ele>
        <time>2013-08-01T08:45:00Z</time>
      </trkpt>
      <trkpt lat="42.580068" lon="1.441432">
        <ele>2260.5</ele>
        <time>2013-08-01T08:45:11Z</time>
      </trkpt>
      <trkpt lat="42.580073" lon="1.441577">
        <ele>2260.1</ele>
        <time>2013-08-01T08:45:21Z</time>
      </trkpt>
      <trkpt lat="42.580030" lon="1.441843">
        <ele>2260.1</ele>
        <time>2013-08-01T08:45:37Z</time>
      </trkpt>
      <trkpt lat="42.580031" lon="1.441969">
        <ele>2260.1</ele>
        <time>2013-08-01T08:45:45Z</time>
      </trkpt>
      <trkpt lat="42.580013" lon="1.442093">
        <ele>2260.1</ele>
        <time>2013-08-01T08:46:01Z</time>
      </trkpt>
      <trkpt lat="42.580018" lon="1.442104">
        <ele>2260.1</ele>
        <time>2013-08-01T08:46:16Z</time>
      </trkpt>
      <trkpt lat="42.580000" lon="1.442160">
        <ele>2260.1</ele>
        <time>2013-08-01T08:46:45Z</time>
      </trkpt>
      <trkpt lat="42.579998" lon="1.442176">
        <ele>2260.1</ele>
        <time>2013-08-01T08:47:01Z</time>
      </trkpt>
      <trkpt lat="42.579998" lon="1.442188">
        <ele>2260.1</ele>
        <time>2013-08-01T08:47:10Z</time>
      </trkpt>
      <trkpt lat="42.580002" lon="1.442250">
        <ele>2260.1</ele>
        <time>2013-08-01T08:47:27Z</time>
      </trkpt>
      <trkpt lat="42.580031" lon="1.442383">
        <ele>2260.1</ele>
        <time>2013-08-01T08:47:52Z</time>
      </trkpt>
      <trkpt lat="42.580051" lon="1.442656">
        <ele>2258.9</ele>
        <time>2013-08-01T08:48:07Z</time>
      </trkpt>
      <trkpt lat="42.580047" lon="1.442699">
        <ele>2258.4</ele>
        <time>2013-08-01T08:48:11Z</time>
      </trkpt>
      <trkpt lat="42.580056" lon="1.442801">
        <ele>2256.8</ele>
        <time>2013-08-01T08:48:17Z</time>
      </trkpt>
      <trkpt lat="42.580046" lon="1.443003">
        <ele>2252.8</ele>
        <time>2013-08-01T08:48:32Z</time>
      </trkpt>
      <trkpt lat="42.580036" lon="1.443109">
        <ele>2250.7</ele>
        <time>2013-08-01T08:48:40Z</time>
      </trkpt>
      <trkpt lat="42.580046" lon="1.443140">
        <ele>2250.2</ele>
        <time>2013-08-01T08:48:42Z</time>
      </trkpt>
      <trkpt lat="42.580038" lon="1.443322">
        <ele>2248.7</ele>
        <time>2013-08-01T08:48:56Z</time>
      </trkpt>
      <trkpt lat="42.580031" lon="1.443396">
        <ele>2248.5</ele>
        <time>2013-08-01T08:49:01Z</time>
      </trkpt>
      <trkpt lat="42.580057" lon="1.443520">
        <ele>2247.1</ele>
        <time>2013-08-01T08:49:08Z</time>
      </trkpt>
      <trkpt lat="42.580094" lon="1.443669">
        <ele>2245.3</ele>
        <time>2013-08-01T08:49:22Z</time>
      </trkpt>
      <trkpt lat="42.580107" lon="1.443768">
        <ele>2244.7</ele>
        <time>2013-08-01T08:49:31Z</time>
      </trkpt>
      <trkpt lat="42.580144" lon="1.443887">
        <ele>2244.7</ele>
        <time>2013-08-01T08:49:43Z</time>
      </trkpt>
      <trkpt lat="42.580165" lon="1.443993">
        <ele>2244.9</ele>
        <time>2013-08-01T08:49:54Z</time>
      </trkpt>
      <trkpt lat="42.580206" lon="1.444004">
        <ele>2244.1</ele>
        <time>2013-08-01T08:50:01Z</time>
      </trkpt>
      <trkpt lat="42.580206" lon="1.444004">
        <ele>2244.1</ele>
        <time>2013-08-01T08:50:05Z</time>
      </trkpt>
      <trkpt lat="42.580218" lon="1.444157">
        <ele>2245.1</ele>
        <time>2013-08-01T08:50:18Z</time>
      </trkpt>
      <trkpt lat="42.580235" lon="1.444262">
        <ele>2244.9</ele>
        <time>2013-08-01T08:50:25Z</time>
      </trkpt>
      <trkpt lat="42.580225" lon="1.444365">
        <ele>2244.4</ele>
        <time>2013-08-01T08:50:32Z</time>
      </trkpt>
      <trkpt lat="42.580218" lon="1.444525">
        <ele>2239.1</ele>
        <time>2013-08-01T08:50:43Z</time>
      </trkpt>
      <trkpt lat="42.580206" lon="1.444561">
        <ele>2237.9</ele>
        <time>2013-08-01T08:50:47Z</time>
      </trkpt>
      <trkpt lat="42.580198" lon="1.444604">
        <ele>2236.3</ele>
        <time>2013-08-01T08:50:52Z</time>
      </trkpt>
      <trkpt lat="42.580205" lon="1.444685">
        <ele>2232.6</ele>
        <time>2013-08-01T08:50:57Z</time>
      </trkpt>
      <trkpt lat="42.580203" lon="1.444747">
        <ele>2230.1</ele>
        <time>2013-08-01T08:51:03Z</time>
      </trkpt>
      <trkpt lat="42.580198" lon="1.444865">
        <ele>2225.9</ele>
        <time>2013-08-01T08:51:14Z</time>
      </trkpt>
      <trkpt lat="42.580202" lon="1.444966">
        <ele>2223.7</ele>
        <time>2013-08-01T08:51:24Z</time>
      </trkpt>
      <trkpt lat="42.580226" lon="1.445022">
        <ele>2224.0</ele>
        <time>2013-08-01T08:51:29Z</time>
      </trkpt>
      <trkpt lat="42.580218" lon="1.445101">
        <ele>2225.4</ele>
        <time>2013-08-01T08:51:35Z</time>
      </trkpt>
      <trkpt lat="42.580217" lon="1.445170">
        <ele>2226.4</ele>
        <time>2013-08-01T08:51:39Z</time>
      </trkpt>
      <trkpt lat="42.580228" lon="1.445245">
        <ele>2227.1</ele>
        <time>2013-08-01T08:51:45Z</time>
      </trkpt>
      <trkpt lat="42.580234" lon="1.445318">
        <ele>2228.4</ele>
        <time>2013-08-01T08:51:57Z</time>
      </trkpt>
      <trkpt lat="42.580255" lon="1.445339">
        <ele>2228.2</ele>
        <time>2013-08-01T08:52:21Z</time>
      </trkpt>
      <trkpt lat="42.580265" lon="1.445343">
        <ele>2228.0</ele>
        <time>2013-08-01T08:52:35Z</time>
      </trkpt>
      <trkpt lat="42.580265" lon="1.445352">
        <ele>2228.1</ele>
        <time>2013-08-01T08:52:44Z</time>
      </trkpt>
      <trkpt lat="42.580290" lon="1.445529">
        <ele>2228.6</ele>
        <time>2013-08-01T08:52:56Z</time>
      </trkpt>
      <trkpt lat="42.580300" lon="1.445631">
        <ele>2227.2</ele>
        <time>2013-08-01T08:53:04Z</time>
      </trkpt>
      <trkpt lat="42.580309" lon="1.445726">
        <ele>2226.0</ele>
        <time>2013-08-01T08:53:08Z</time>
      </trkpt>
      <trkpt lat="42.580334" lon="1.445839">
        <ele>2224.5</ele>
        <time>2013-08-01T08:53:16Z</time>
      </trkpt>
      <trkpt lat="42.580335" lon="1.445920">
        <ele>2223.9</ele>
        <time>2013-08-01T08:53:20Z</time>
      </trkpt>
      <trkpt lat="42.580346" lon="1.446192">
        <ele>2221.5</ele>
        <time>2013-08-01T08:53:35Z</time>
      </trkpt>
      <trkpt lat="42.580377" lon="1.446418">
        <ele>2220.6</ele>
        <time>2013-08-01T08:53:46Z</time>
      </trkpt>
      <trkpt lat="42.580393" lon="1.446453">
        <ele>2220.4</ele>
        <time>2013-08-01T08:53:49Z</time>
      </trkpt>
      <trkpt lat="42.580383" lon="1.446517">
        <ele>2220.2</ele>
        <time>2013-08-01T08:53:53Z</time>
      </trkpt>
      <trkpt lat="42.580360" lon="1.446595">
        <ele>2219.9</ele>
        <time>2013-08-01T08:53:58Z</time>
      </trkpt>
      <trkpt lat="42.580340" lon="1.446805">
        <ele>2219.8</ele>
        <time>2013-08-01T08:54:12Z</time>
      </trkpt>
      <trkpt lat="42.580369" lon="1.446896">
        <ele>2219.8</ele>
        <time>2013-08-01T08:54:17Z</time>
      </trkpt>
      <trkpt lat="42.580342" lon="1.447111">
        <ele>2219.8</ele>
        <time>2013-08-01T08:54:30Z</time>
      </trkpt>
      <trkpt lat="42.580351" lon="1.447222">
        <ele>2219.8</ele>
        <time>2013-08-01T08:54:37Z</time>
      </trkpt>
      <trkpt lat="42.580396" lon="1.447338">
        <ele>2219.8</ele>
        <time>2013-08-01T08:54:44Z</time>
      </trkpt>
      <trkpt lat="42.580384" lon="1.447457">
        <ele>2219.8</ele>
        <time>2013-08-01T08:54:52Z</time>
      </trkpt>
      <trkpt lat="42.580383" lon="1.447548">
        <ele>2219.8</ele>
        <time>2013-08-01T08:55:04Z</time>
      </trkpt>
      <trkpt lat="42.580396" lon="1.447571">
        <ele>2219.8</ele>
        <time>2013-08-01T08:55:22Z</time>
      </trkpt>
      <trkpt lat="42.580402" lon="1.447599">
        <ele>2219.8</ele>
        <time>2013-08-01T08:55:36Z</time>
      </trkpt>
      <trkpt lat="42.580409" lon="1.447619">
        <ele>2219.8</ele>
        <time>2013-08-01T08:55:49Z</time>
      </trkpt>
      <trkpt lat="42.580429" lon="1.447678">
        <ele>2219.8</ele>
        <time>2013-08-01T08:55:53Z</time>
      </trkpt>
      <trkpt lat="42.580410" lon="1.447847">
        <ele>2219.8</ele>
        <time>2013-08-01T08:56:05Z</time>
      </trkpt>
      <trkpt lat="42.580408" lon="1.447860">
        <ele>2219.8</ele>
        <time>2013-08-01T08:56:06Z</time>
      </trkpt>
      <trkpt lat="42.580380" lon="1.447907">
        <ele>2219.8</ele>
        <time>2013-08-01T08:56:10Z</time>
      </trkpt>
      <trkpt lat="42.580364" lon="1.447921">
        <ele>2219.8</ele>
        <time>2013-08-01T08:56:12Z</time>
      </trkpt>
      <trkpt lat="42.580334" lon="1.447952">
        <ele>2219.8</ele>
        <time>2013-08-01T08:56:15Z</time>
      </trkpt>
      <trkpt lat="42.580315" lon="1.448003">
        <ele>2219.8</ele>
        <time>2013-08-01T08:56:19Z</time>
      </trkpt>
      <trkpt lat="42.580267" lon="1.448112">
        <ele>2219.8</ele>
        <time>2013-08-01T08:56:28Z</time>
      </trkpt>
      <trkpt lat="42.580241" lon="1.448128">
        <ele>2219.9</ele>
        <time>2013-08-01T08:56:31Z</time>
      </trkpt>
      <trkpt lat="42.580218" lon="1.448191">
        <ele>2220.1</ele>
        <time>2013-08-01T08:56:38Z</time>
      </trkpt>
      <trkpt lat="42.580167" lon="1.448304">
        <ele>2220.8</ele>
        <time>2013-08-01T08:56:49Z</time>
      </trkpt>
      <trkpt lat="42.580161" lon="1.448316">
        <ele>2221.0</ele>
        <time>2013-08-01T08:57:01Z</time>
      </trkpt>
      <trkpt lat="42.580161" lon="1.448315">
        <ele>2221.0</ele>
        <time>2013-08-01T08:57:38Z</time>
      </trkpt>
      <trkpt lat="42.580124" lon="1.448361">
        <ele>2222.0</ele>
        <time>2013-08-01T08:57:57Z</time>
      </trkpt>
      <trkpt lat="42.580123" lon="1.448372">
        <ele>2222.2</ele>
        <time>2013-08-01T08:57:58Z</time>
      </trkpt>
      <trkpt lat="42.580099" lon="1.448474">
        <ele>2223.6</ele>
        <time>2013-08-01T08:58:06Z</time>
      </trkpt>
      <trkpt lat="42.580051" lon="1.448614">
        <ele>2225.3</ele>
        <time>2013-08-01T08:58:18Z</time>
      </trkpt>
      <trkpt lat="42.580044" lon="1.448630">
        <ele>2225.5</ele>
        <time>2013-08-01T08:58:28Z</time>
      </trkpt>
      <trkpt lat="42.580044" lon="1.448630">
        <ele>2225.5</ele>
        <time>2013-08-01T08:58:58Z</time>
      </trkpt>
      <trkpt lat="42.580041" lon="1.448629">
        <ele>2225.5</ele>
        <time>2013-08-01T08:59:16Z</time>
      </trkpt>
      <trkpt lat="42.580020" lon="1.448657">
        <ele>2225.8</ele>
        <time>2013-08-01T08:59:25Z</time>
      </trkpt>
      <trkpt lat="42.580014" lon="1.448701">
        <ele>2226.1</ele>
        <time>2013-08-01T08:59:28Z</time>
      </trkpt>
      <trkpt lat="42.580012" lon="1.448810">
        <ele>2226.6</ele>
        <time>2013-08-01T08:59:34Z</time>
      </trkpt>
      <trkpt lat="42.580018" lon="1.448872">
        <ele>2227.0</ele>
        <time>2013-08-01T08:59:38Z</time>
      </trkpt>
      <trkpt lat="42.580027" lon="1.448974">
        <ele>2227.2</ele>
        <time>2013-08-01T08:59:44Z</time>
      </trkpt>
      <trkpt lat="42.580031" lon="1.449044">
        <ele>2226.8</ele>
        <time>2013-08-01T08:59:48Z</time>
      </trkpt>
      <trkpt lat="42.580032" lon="1.449123">
        <ele>2226.2</ele>
        <time>2013-08-01T08:59:53Z</time>
      </trkpt>
      <trkpt lat="42.580005" lon="1.449222">
        <ele>2225.4</ele>
        <time>2013-08-01T09:00:05Z</time>
      </trkpt>
      <trkpt lat="42.580005" lon="1.449230">
        <ele>2225.4</ele>
        <time>2013-08-01T09:00:06Z</time>
      </trkpt>
      <trkpt lat="42.579988" lon="1.449327">
        <ele>2224.8</ele>
        <time>2013-08-01T09:00:14Z</time>
      </trkpt>
      <trkpt lat="42.579986" lon="1.449359">
        <ele>2224.6</ele>
        <time>2013-08-01T09:00:16Z</time>
      </trkpt>
      <trkpt lat="42.579987" lon="1.449476">
        <ele>2223.3</ele>
        <time>2013-08-01T09:00:23Z</time>
      </trkpt>
      <trkpt lat="42.579979" lon="1.449516">
        <ele>2222.4</ele>
        <time>2013-08-01T09:00:26Z</time>
      </trkpt>
      <trkpt lat="42.579980" lon="1.449560">
        <ele>2221.1</ele>
        <time>2013-08-01T09:00:29Z</time>
      </trkpt>
      <trkpt lat="42.579994" lon="1.449601">
        <ele>2219.7</ele>
        <time>2013-08-01T09:00:32Z</time>
      </trkpt>
      <trkpt lat="42.580000" lon="1.449735">
        <ele>2215.3</ele>
        <time>2013-08-01T09:00:44Z</time>
      </trkpt>
      <trkpt lat="42.580021" lon="1.449763">
        <ele>2214.4</ele>
        <time>2013-08-01T09:00:47Z</time>
      </trkpt>
      <trkpt lat="42.580015" lon="1.449831">
        <ele>2212.1</ele>
        <time>2013-08-01T09:00:53Z</time>
      </trkpt>
      <trkpt lat="42.579998" lon="1.449894">
        <ele>2210.0</ele>
        <time>2013-08-01T09:00:59Z</time>
      </trkpt>
      <trkpt lat="42.580003" lon="1.449939">
        <ele>2208.3</ele>
        <time>2013-08-01T09:01:04Z</time>
      </trkpt>
      <trkpt lat="42.580029" lon="1.449992">
        <ele>2206.6</ele>
        <time>2013-08-01T09:01:09Z</time>
      </trkpt>
      <trkpt lat="42.580025" lon="1.450019">
        <ele>2205.8</ele>
        <time>2013-08-01T09:01:12Z</time>
      </trkpt>
      <trkpt lat="42.580005" lon="1.450088">
        <ele>2203.8</ele>
        <time>2013-08-01T09:01:22Z</time>
      </trkpt>
      <trkpt lat="42.579998" lon="1.450094">
        <ele>2203.6</ele>
        <time>2013-08-01T09:01:23Z</time>
      </trkpt>
      <trkpt lat="42.579998" lon="1.450131">
        <ele>2202.7</ele>
        <time>2013-08-01T09:01:26Z</time>
      </trkpt>
      <trkpt lat="42.579972" lon="1.450240">
        <ele>2199.6</ele>
        <time>2013-08-01T09:01:40Z</time>
      </trkpt>
      <trkpt lat="42.579967" lon="1.450316">
        <ele>2197.4</ele>
        <time>2013-08-01T09:01:48Z</time>
      </trkpt>
      <trkpt lat="42.579971" lon="1.450339">
        <ele>2196.8</ele>
        <time>2013-08-01T09:01:50Z</time>
      </trkpt>
      <trkpt lat="42.579969" lon="1.450418">
        <ele>2194.3</ele>
        <time>2013-08-01T09:01:58Z</time>
      </trkpt>
      <trkpt lat="42.579960" lon="1.450457">
        <ele>2193.0</ele>
        <time>2013-08-01T09:02:02Z</time>
      </trkpt>
      <trkpt lat="42.579943" lon="1.450518">
        <ele>2190.5</ele>
        <time>2013-08-01T09:02:13Z</time>
      </trkpt>
      <trkpt lat="42.579963" lon="1.450569">
        <ele>2189.5</ele>
        <time>2013-08-01T09:02:22Z</time>
      </trkpt>
      <trkpt lat="42.579958" lon="1.450598">
        <ele>2188.3</ele>
        <time>2013-08-01T09:02:24Z</time>
      </trkpt>
      <trkpt lat="42.579974" lon="1.450661">
        <ele>2186.9</ele>
        <time>2013-08-01T09:02:29Z</time>
      </trkpt>
      <trkpt lat="42.579959" lon="1.450686">
        <ele>2185.3</ele>
        <time>2013-08-01T09:02:33Z</time>
      </trkpt>
      <trkpt lat="42.579941" lon="1.450738">
        <ele>2182.8</ele>
        <time>2013-08-01T09:02:43Z</time>
      </trkpt>
      <trkpt lat="42.579962" lon="1.450820">
        <ele>2181.2</ele>
        <time>2013-08-01T09:02:54Z</time>
      </trkpt>
      <trkpt lat="42.579963" lon="1.450863">
        <ele>2179.8</ele>
        <time>2013-08-01T09:02:58Z</time>
      </trkpt>
      <trkpt lat="42.579940" lon="1.450879">
        <ele>2178.0</ele>
        <time>2013-08-01T09:03:08Z</time>
      </trkpt>
      <trkpt lat="42.579956" lon="1.450924">
        <ele>2177.2</ele>
        <time>2013-08-01T09:03:15Z</time>
      </trkpt>
      <trkpt lat="42.579924" lon="1.450960">
        <ele>2174.0</ele>
        <time>2013-08-01T09:03:21Z</time>
      </trkpt>
      <trkpt lat="42.579947" lon="1.451009">
        <ele>2173.6</ele>
        <time>2013-08-01T09:03:32Z</time>
      </trkpt>
      <trkpt lat="42.579911" lon="1.451097">
        <ele>2168.1</ele>
        <time>2013-08-01T09:03:45Z</time>
      </trkpt>
      <trkpt lat="42.579893" lon="1.451188">
        <ele>2163.6</ele>
        <time>2013-08-01T09:03:56Z</time>
      </trkpt>
      <trkpt lat="42.579860" lon="1.451225">
        <ele>2160.4</ele>
        <time>2013-08-01T09:04:06Z</time>
      </trkpt>
      <trkpt lat="42.579834" lon="1.451267">
        <ele>2157.7</ele>
        <time>2013-08-01T09:04:10Z</time>
      </trkpt>
      <trkpt lat="42.579830" lon="1.451318">
        <ele>2155.8</ele>
        <time>2013-08-01T09:04:15Z</time>
      </trkpt>
      <trkpt lat="42.579838" lon="1.451334">
        <ele>2155.7</ele>
        <time>2013-08-01T09:04:17Z</time>
      </trkpt>
      <trkpt lat="42.579852" lon="1.451333">
        <ele>2156.4</ele>
        <time>2013-08-01T09:04:28Z</time>
      </trkpt>
      <trkpt lat="42.579806" lon="1.451358">
        <ele>2153.4</ele>
        <time>2013-08-01T09:04:36Z</time>
      </trkpt>
      <trkpt lat="42.579777" lon="1.451466">
        <ele>2148.8</ele>
        <time>2013-08-01T09:04:46Z</time>
      </trkpt>
      <trkpt lat="42.579791" lon="1.451540">
        <ele>2146.7</ele>
        <time>2013-08-01T09:04:51Z</time>
      </trkpt>
      <trkpt lat="42.579795" lon="1.451564">
        <ele>2146.0</ele>
        <time>2013-08-01T09:04:53Z</time>
      </trkpt>
      <trkpt lat="42.579810" lon="1.451672">
        <ele>2142.9</ele>
        <time>2013-08-01T09:05:00Z</time>
      </trkpt>
      <trkpt lat="42.579801" lon="1.451758">
        <ele>2140.6</ele>
        <time>2013-08-01T09:05:06Z</time>
      </trkpt>
      <trkpt lat="42.579754" lon="1.451835">
        <ele>2140.0</ele>
        <time>2013-08-01T09:05:13Z</time>
      </trkpt>
      <trkpt lat="42.579755" lon="1.452034">
        <ele>2140.3</ele>
        <time>2013-08-01T09:05:23Z</time>
      </trkpt>
      <trkpt lat="42.579851" lon="1.452179">
        <ele>2140.4</ele>
        <time>2013-08-01T09:05:35Z</time>
      </trkpt>
      <trkpt lat="42.579870" lon="1.452259">
        <ele>2140.0</ele>
        <time>2013-08-01T09:05:48Z</time>
      </trkpt>
      <trkpt lat="42.579870" lon="1.452259">
        <ele>2140.0</ele>
        <time>2013-08-01T09:06:12Z</time>
      </trkpt>
      <trkpt lat="42.579900" lon="1.452274">
        <ele>2140.0</ele>
        <time>2013-08-01T09:06:20Z</time>
      </trkpt>
      <trkpt lat="42.579940" lon="1.452301">
        <ele>2140.1</ele>
        <time>2013-08-01T09:06:23Z</time>
      </trkpt>
      <trkpt lat="42.579964" lon="1.452331">
        <ele>2140.0</ele>
        <time>2013-08-01T09:06:26Z</time>
      </trkpt>
      <trkpt lat="42.580017" lon="1.452367">
        <ele>2139.8</ele>
        <time>2013-08-01T09:06:33Z</time>
      </trkpt>
      <trkpt lat="42.580035" lon="1.452390">
        <ele>2139.5</ele>
        <time>2013-08-01T09:06:35Z</time>
      </trkpt>
      <trkpt lat="42.580081" lon="1.452434">
        <ele>2138.8</ele>
        <time>2013-08-01T09:06:40Z</time>
      </trkpt>
      <trkpt lat="42.580118" lon="1.452456">
        <ele>2138.1</ele>
        <time>2013-08-01T09:06:44Z</time>
      </trkpt>
      <trkpt lat="42.580203" lon="1.452556">
        <ele>2135.0</ele>
        <time>2013-08-01T09:06:56Z</time>
      </trkpt>
      <trkpt lat="42.580227" lon="1.452659">
        <ele>2131.8</ele>
        <time>2013-08-01T09:07:02Z</time>
      </trkpt>
      <trkpt lat="42.580226" lon="1.452708">
        <ele>2130.6</ele>
        <time>2013-08-01T09:07:05Z</time>
      </trkpt>
      <trkpt lat="42.580278" lon="1.452898">
        <ele>2124.7</ele>
        <time>2013-08-01T09:07:17Z</time>
      </trkpt>
      <trkpt lat="42.580292" lon="1.452961">
        <ele>2122.8</ele>
        <time>2013-08-01T09:07:21Z</time>
      </trkpt>
      <trkpt lat="42.580316" lon="1.453105">
        <ele>2118.1</ele>
        <time>2013-08-01T09:07:34Z</time>
      </trkpt>
      <trkpt lat="42.580325" lon="1.453198">
        <ele>2114.5</ele>
        <time>2013-08-01T09:07:46Z</time>
      </trkpt>
      <trkpt lat="42.580339" lon="1.453224">
        <ele>2113.1</ele>
        <time>2013-08-01T09:07:49Z</time>
      </trkpt>
      <trkpt lat="42.580380" lon="1.453209">
        <ele>2112.4</ele>
        <time>2013-08-01T09:07:56Z</time>
      </trkpt>
      <trkpt lat="42.580376" lon="1.453267">
        <ele>2110.5</ele>
        <time>2013-08-01T09:08:02Z</time>
      </trkpt>
      <trkpt lat="42.580358" lon="1.453358">
        <ele>2107.8</ele>
        <time>2013-08-01T09:08:14Z</time>
      </trkpt>
      <trkpt lat="42.580350" lon="1.453452">
        <ele>2104.7</ele>
        <time>2013-08-01T09:08:25Z</time>
      </trkpt>
      <trkpt lat="42.580356" lon="1.453507">
        <ele>2103.5</ele>
        <time>2013-08-01T09:08:32Z</time>
      </trkpt>
      <trkpt lat="42.580412" lon="1.453507">
        <ele>2101.6</ele>
        <time>2013-08-01T09:08:42Z</time>
      </trkpt>
      <trkpt lat="42.580433" lon="1.453499">
        <ele>2101.0</ele>
        <time>2013-08-01T09:08:44Z</time>
      </trkpt>
      <trkpt lat="42.580445" lon="1.453534">
        <ele>2099.9</ele>
        <time>2013-08-01T09:08:47Z</time>
      </trkpt>
      <trkpt lat="42.580437" lon="1.453584">
        <ele>2099.2</ele>
        <time>2013-08-01T09:08:50Z</time>
      </trkpt>
      <trkpt lat="42.580425" lon="1.453621">
        <ele>2098.9</ele>
        <time>2013-08-01T09:08:53Z</time>
      </trkpt>
      <trkpt lat="42.580424" lon="1.453686">
        <ele>2097.5</ele>
        <time>2013-08-01T09:09:01Z</time>
      </trkpt>
      <trkpt lat="42.580458" lon="1.453706">
        <ele>2095.2</ele>
        <time>2013-08-01T09:09:06Z</time>
      </trkpt>
      <trkpt lat="42.580486" lon="1.453677">
        <ele>2094.7</ele>
        <time>2013-08-01T09:09:11Z</time>
      </trkpt>
      <trkpt lat="42.580502" lon="1.453663">
        <ele>2094.3</ele>
        <time>2013-08-01T09:09:13Z</time>
      </trkpt>
      <trkpt lat="42.580534" lon="1.453646">
        <ele>2093.3</ele>
        <time>2013-08-01T09:09:18Z</time>
      </trkpt>
      <trkpt lat="42.580554" lon="1.453636">
        <ele>2092.9</ele>
        <time>2013-08-01T09:09:22Z</time>
      </trkpt>
      <trkpt lat="42.580558" lon="1.453625">
        <ele>2093.1</ele>
        <time>2013-08-01T09:09:32Z</time>
      </trkpt>
      <trkpt lat="42.580556" lon="1.453634">
        <ele>2092.9</ele>
        <time>2013-08-01T09:09:47Z</time>
      </trkpt>
      <trkpt lat="42.580550" lon="1.453764">
        <ele>2089.2</ele>
        <time>2013-08-01T09:09:59Z</time>
      </trkpt>
      <trkpt lat="42.580560" lon="1.453853">
        <ele>2086.0</ele>
        <time>2013-08-01T09:10:06Z</time>
      </trkpt>
      <trkpt lat="42.580566" lon="1.453884">
        <ele>2084.7</ele>
        <time>2013-08-01T09:10:09Z</time>
      </trkpt>
      <trkpt lat="42.580611" lon="1.453862">
        <ele>2083.3</ele>
        <time>2013-08-01T09:10:16Z</time>
      </trkpt>
      <trkpt lat="42.580646" lon="1.453942">
        <ele>2079.2</ele>
        <time>2013-08-01T09:10:27Z</time>
      </trkpt>
      <trkpt lat="42.580650" lon="1.453957">
        <ele>2078.7</ele>
        <time>2013-08-01T09:10:29Z</time>
      </trkpt>
      <trkpt lat="42.580657" lon="1.454029">
        <ele>2076.2</ele>
        <time>2013-08-01T09:10:35Z</time>
      </trkpt>
      <trkpt lat="42.580669" lon="1.454076">
        <ele>2075.0</ele>
        <time>2013-08-01T09:10:39Z</time>
      </trkpt>
      <trkpt lat="42.580671" lon="1.454124">
        <ele>2074.1</ele>
        <time>2013-08-01T09:10:44Z</time>
      </trkpt>
      <trkpt lat="42.580690" lon="1.454157">
        <ele>2073.0</ele>
        <time>2013-08-01T09:10:48Z</time>
      </trkpt>
      <trkpt lat="42.580762" lon="1.454208">
        <ele>2069.8</ele>
        <time>2013-08-01T09:11:00Z</time>
      </trkpt>
      <trkpt lat="42.580776" lon="1.454281">
        <ele>2067.8</ele>
        <time>2013-08-01T09:11:07Z</time>
      </trkpt>
      <trkpt lat="42.580814" lon="1.454385">
        <ele>2064.0</ele>
        <time>2013-08-01T09:11:18Z</time>
      </trkpt>
      <trkpt lat="42.580831" lon="1.454402">
        <ele>2062.9</ele>
        <time>2013-08-01T09:11:22Z</time>
      </trkpt>
      <trkpt lat="42.580853" lon="1.454470">
        <ele>2060.2</ele>
        <time>2013-08-01T09:11:28Z</time>
      </trkpt>
      <trkpt lat="42.580860" lon="1.454521">
        <ele>2058.7</ele>
        <time>2013-08-01T09:11:32Z</time>
      </trkpt>
      <trkpt lat="42.580861" lon="1.454545">
        <ele>2058.1</ele>
        <time>2013-08-01T09:11:34Z</time>
      </trkpt>
      <trkpt lat="42.580881" lon="1.454674">
        <ele>2055.2</ele>
        <time>2013-08-01T09:11:46Z</time>
      </trkpt>
      <trkpt lat="42.580930" lon="1.454856">
        <ele>2051.7</ele>
        <time>2013-08-01T09:11:58Z</time>
      </trkpt>
      <trkpt lat="42.580930" lon="1.454873">
        <ele>2051.6</ele>
        <time>2013-08-01T09:11:59Z</time>
      </trkpt>
      <trkpt lat="42.580904" lon="1.455037">
        <ele>2051.4</ele>
        <time>2013-08-01T09:12:09Z</time>
      </trkpt>
      <trkpt lat="42.580923" lon="1.455194">
        <ele>2049.6</ele>
        <time>2013-08-01T09:12:19Z</time>
      </trkpt>
      <trkpt lat="42.580987" lon="1.455262">
        <ele>2046.9</ele>
        <time>2013-08-01T09:12:26Z</time>
      </trkpt>
      <trkpt lat="42.581039" lon="1.455435">
        <ele>2043.8</ele>
        <time>2013-08-01T09:12:41Z</time>
      </trkpt>
      <trkpt lat="42.580990" lon="1.455625">
        <ele>2043.4</ele>
        <time>2013-08-01T09:12:53Z</time>
      </trkpt>
      <trkpt lat="42.580989" lon="1.455638">
        <ele>2043.3</ele>
        <time>2013-08-01T09:12:55Z</time>
      </trkpt>
      <trkpt lat="42.581009" lon="1.455676">
        <ele>2042.7</ele>
        <time>2013-08-01T09:12:58Z</time>
      </trkpt>
      <trkpt lat="42.581045" lon="1.455745">
        <ele>2041.5</ele>
        <time>2013-08-01T09:13:08Z</time>
      </trkpt>
      <trkpt lat="42.581100" lon="1.455819">
        <ele>2039.7</ele>
        <time>2013-08-01T09:13:18Z</time>
      </trkpt>
      <trkpt lat="42.581134" lon="1.455828">
        <ele>2039.0</ele>
        <time>2013-08-01T09:13:22Z</time>
      </trkpt>
      <trkpt lat="42.581172" lon="1.455900">
        <ele>2037.4</ele>
        <time>2013-08-01T09:13:33Z</time>
      </trkpt>
      <trkpt lat="42.581169" lon="1.455965">
        <ele>2036.5</ele>
        <time>2013-08-01T09:13:39Z</time>
      </trkpt>
      <trkpt lat="42.581159" lon="1.456004">
        <ele>2036.2</ele>
        <time>2013-08-01T09:13:43Z</time>
      </trkpt>
      <trkpt lat="42.581182" lon="1.456065">
        <ele>2034.8</ele>
        <time>2013-08-01T09:13:50Z</time>
      </trkpt>
      <trkpt lat="42.581211" lon="1.456132">
        <ele>2033.5</ele>
        <time>2013-08-01T09:13:56Z</time>
      </trkpt>
      <trkpt lat="42.581202" lon="1.456278">
        <ele>2031.7</ele>
        <time>2013-08-01T09:14:08Z</time>
      </trkpt>
      <trkpt lat="42.581273" lon="1.456373">
        <ele>2028.0</ele>
        <time>2013-08-01T09:14:21Z</time>
      </trkpt>
      <trkpt lat="42.581267" lon="1.456479">
        <ele>2025.7</ele>
        <time>2013-08-01T09:14:33Z</time>
      </trkpt>
      <trkpt lat="42.581285" lon="1.456590">
        <ele>2022.7</ele>
        <time>2013-08-01T09:14:45Z</time>
      </trkpt>
      <trkpt lat="42.581299" lon="1.456707">
        <ele>2020.0</ele>
        <time>2013-08-01T09:14:56Z</time>
      </trkpt>
      <trkpt lat="42.581328" lon="1.456747">
        <ele>2018.6</ele>
        <time>2013-08-01T09:15:00Z</time>
      </trkpt>
      <trkpt lat="42.581303" lon="1.456868">
        <ele>2016.4</ele>
        <time>2013-08-01T09:15:14Z</time>
      </trkpt>
      <trkpt lat="42.581307" lon="1.456959">
        <ele>2013.6</ele>
        <time>2013-08-01T09:15:26Z</time>
      </trkpt>
      <trkpt lat="42.581313" lon="1.457058">
        <ele>2010.5</ele>
        <time>2013-08-01T09:15:37Z</time>
      </trkpt>
      <trkpt lat="42.581313" lon="1.457119">
        <ele>2008.7</ele>
        <time>2013-08-01T09:15:54Z</time>
      </trkpt>
      <trkpt lat="42.581330" lon="1.457237">
        <ele>2004.4</ele>
        <time>2013-08-01T09:16:07Z</time>
      </trkpt>
      <trkpt lat="42.581336" lon="1.457314">
        <ele>2001.7</ele>
        <time>2013-08-01T09:16:18Z</time>
      </trkpt>
      <trkpt lat="42.581325" lon="1.457324">
        <ele>2001.7</ele>
        <time>2013-08-01T09:16:21Z</time>
      </trkpt>
      <trkpt lat="42.581311" lon="1.457377">
        <ele>2000.6</ele>
        <time>2013-08-01T09:16:33Z</time>
      </trkpt>
      <trkpt lat="42.581312" lon="1.457437">
        <ele>1999.2</ele>
        <time>2013-08-01T09:16:41Z</time>
      </trkpt>
      <trkpt lat="42.581296" lon="1.457509">
        <ele>1997.8</ele>
        <time>2013-08-01T09:16:47Z</time>
      </trkpt>
      <trkpt lat="42.581316" lon="1.457587">
        <ele>1995.5</ele>
        <time>2013-08-01T09:16:58Z</time>
      </trkpt>
      <trkpt lat="42.581386" lon="1.457618">
        <ele>1992.5</ele>
        <time>2013-08-01T09:17:10Z</time>
      </trkpt>
      <trkpt lat="42.581422" lon="1.457670">
        <ele>1989.8</ele>
        <time>2013-08-01T09:17:16Z</time>
      </trkpt>
      <trkpt lat="42.581432" lon="1.457716">
        <ele>1988.3</ele>
        <time>2013-08-01T09:17:19Z</time>
      </trkpt>
      <trkpt lat="42.581433" lon="1.457909">
        <ele>1983.0</ele>
        <time>2013-08-01T09:17:32Z</time>
      </trkpt>
      <trkpt lat="42.581435" lon="1.457939">
        <ele>1982.1</ele>
        <time>2013-08-01T09:17:34Z</time>
      </trkpt>
      <trkpt lat="42.581422" lon="1.457982">
        <ele>1981.4</ele>
        <time>2013-08-01T09:17:38Z</time>
      </trkpt>
      <trkpt lat="42.581406" lon="1.458081">
        <ele>1980.8</ele>
        <time>2013-08-01T09:17:45Z</time>
      </trkpt>
      <trkpt lat="42.581417" lon="1.458161">
        <ele>1979.4</ele>
        <time>2013-08-01T09:17:50Z</time>
      </trkpt>
      <trkpt lat="42.581430" lon="1.458257">
        <ele>1977.9</ele>
        <time>2013-08-01T09:18:02Z</time>
      </trkpt>
      <trkpt lat="42.581419" lon="1.458342">
        <ele>1978.0</ele>
        <time>2013-08-01T09:18:08Z</time>
      </trkpt>
      <trkpt lat="42.581443" lon="1.458452">
        <ele>1975.7</ele>
        <time>2013-08-01T09:18:16Z</time>
      </trkpt>
      <trkpt lat="42.581460" lon="1.458474">
        <ele>1974.5</ele>
        <time>2013-08-01T09:18:18Z</time>
      </trkpt>
      <trkpt lat="42.581476" lon="1.458630">
        <ele>1971.4</ele>
        <time>2013-08-01T09:18:30Z</time>
      </trkpt>
      <trkpt lat="42.581539" lon="1.458730">
        <ele>1966.1</ele>
        <time>2013-08-01T09:18:42Z</time>
      </trkpt>
      <trkpt lat="42.581552" lon="1.458800">
        <ele>1964.6</ele>
        <time>2013-08-01T09:18:49Z</time>
      </trkpt>
      <trkpt lat="42.581557" lon="1.458813">
        <ele>1964.2</ele>
        <time>2013-08-01T09:18:55Z</time>
      </trkpt>
      <trkpt lat="42.581548" lon="1.458928">
        <ele>1963.2</ele>
        <time>2013-08-01T09:19:08Z</time>
      </trkpt>
      <trkpt lat="42.581540" lon="1.458985">
        <ele>1963.1</ele>
        <time>2013-08-01T09:19:21Z</time>
      </trkpt>
      <trkpt lat="42.581570" lon="1.459066">
        <ele>1960.7</ele>
        <time>2013-08-01T09:19:31Z</time>
      </trkpt>
      <trkpt lat="42.581631" lon="1.459151">
        <ele>1956.7</ele>
        <time>2013-08-01T09:19:44Z</time>
      </trkpt>
      <trkpt lat="42.581649" lon="1.459186">
        <ele>1955.7</ele>
        <time>2013-08-01T09:19:48Z</time>
      </trkpt>
      <trkpt lat="42.581665" lon="1.459345">
        <ele>1953.0</ele>
        <time>2013-08-01T09:20:01Z</time>
      </trkpt>
      <trkpt lat="42.581672" lon="1.459360">
        <ele>1952.7</ele>
        <time>2013-08-01T09:20:15Z</time>
      </trkpt>
      <trkpt lat="42.581674" lon="1.459353">
        <ele>1952.7</ele>
        <time>2013-08-01T09:20:32Z</time>
      </trkpt>
      <trkpt lat="42.581673" lon="1.459369">
        <ele>1952.5</ele>
        <time>2013-08-01T09:20:48Z</time>
      </trkpt>
      <trkpt lat="42.581681" lon="1.459417">
        <ele>1951.7</ele>
        <time>2013-08-01T09:20:53Z</time>
      </trkpt>
      <trkpt lat="42.581712" lon="1.459540">
        <ele>1949.2</ele>
        <time>2013-08-01T09:21:06Z</time>
      </trkpt>
      <trkpt lat="42.581738" lon="1.459633">
        <ele>1946.7</ele>
        <time>2013-08-01T09:21:18Z</time>
      </trkpt>
      <trkpt lat="42.581756" lon="1.459763">
        <ele>1943.5</ele>
        <time>2013-08-01T09:21:31Z</time>
      </trkpt>
      <trkpt lat="42.581770" lon="1.459795">
        <ele>1942.0</ele>
        <time>2013-08-01T09:21:37Z</time>
      </trkpt>
      <trkpt lat="42.581792" lon="1.459930">
        <ele>1937.6</ele>
        <time>2013-08-01T09:21:50Z</time>
      </trkpt>
      <trkpt lat="42.581800" lon="1.459994">
        <ele>1935.7</ele>
        <time>2013-08-01T09:22:01Z</time>
      </trkpt>
      <trkpt lat="42.581800" lon="1.460121">
        <ele>1932.0</ele>
        <time>2013-08-01T09:22:10Z</time>
      </trkpt>
      <trkpt lat="42.581783" lon="1.460158">
        <ele>1931.7</ele>
        <time>2013-08-01T09:22:14Z</time>
      </trkpt>
      <trkpt lat="42.581741" lon="1.460221">
        <ele>1931.8</ele>
        <time>2013-08-01T09:22:26Z</time>
      </trkpt>
      <trkpt lat="42.581734" lon="1.460255">
        <ele>1931.4</ele>
        <time>2013-08-01T09:22:33Z</time>
      </trkpt>
      <trkpt lat="42.581716" lon="1.460421">
        <ele>1929.2</ele>
        <time>2013-08-01T09:22:47Z</time>
      </trkpt>
      <trkpt lat="42.581678" lon="1.460622">
        <ele>1927.6</ele>
        <time>2013-08-01T09:22:57Z</time>
      </trkpt>
      <trkpt lat="42.581674" lon="1.460877">
        <ele>1924.9</ele>
        <time>2013-08-01T09:23:07Z</time>
      </trkpt>
      <trkpt lat="42.581680" lon="1.461060">
        <ele>1926.1</ele>
        <time>2013-08-01T09:23:18Z</time>
      </trkpt>
      <trkpt lat="42.581714" lon="1.461173">
        <ele>1924.8</ele>
        <time>2013-08-01T09:23:29Z</time>
      </trkpt>
      <trkpt lat="42.581713" lon="1.461210">
        <ele>1925.1</ele>
        <time>2013-08-01T09:23:32Z</time>
      </trkpt>
      <trkpt lat="42.581724" lon="1.461277">
        <ele>1924.8</ele>
        <time>2013-08-01T09:23:37Z</time>
      </trkpt>
      <trkpt lat="42.581731" lon="1.461304">
        <ele>1924.6</ele>
        <time>2013-08-01T09:23:39Z</time>
      </trkpt>
      <trkpt lat="42.581728" lon="1.461419">
        <ele>1926.1</ele>
        <time>2013-08-01T09:23:48Z</time>
      </trkpt>
      <trkpt lat="42.581736" lon="1.461454">
        <ele>1926.1</ele>
        <time>2013-08-01T09:23:50Z</time>
      </trkpt>
      <trkpt lat="42.581758" lon="1.461504">
        <ele>1925.6</ele>
        <time>2013-08-01T09:23:55Z</time>
      </trkpt>
      <trkpt lat="42.581791" lon="1.461635">
        <ele>1925.0</ele>
        <time>2013-08-01T09:24:04Z</time>
      </trkpt>
      <trkpt lat="42.581800" lon="1.461829">
        <ele>1927.1</ele>
        <time>2013-08-01T09:24:17Z</time>
      </trkpt>
      <trkpt lat="42.581860" lon="1.461944">
        <ele>1925.1</ele>
        <time>2013-08-01T09:24:27Z</time>
      </trkpt>
      <trkpt lat="42.581866" lon="1.461959">
        <ele>1925.0</ele>
        <time>2013-08-01T09:24:28Z</time>
      </trkpt>
      <trkpt lat="42.581912" lon="1.462104">
        <ele>1924.6</ele>
        <time>2013-08-01T09:24:41Z</time>
      </trkpt>
      <trkpt lat="42.581955" lon="1.462177">
        <ele>1923.2</ele>
        <time>2013-08-01T09:24:53Z</time>
      </trkpt>
      <trkpt lat="42.582002" lon="1.462245">
        <ele>1921.6</ele>
        <time>2013-08-01T09:25:01Z</time>
      </trkpt>
      <trkpt lat="42.582077" lon="1.462392">
        <ele>1919.0</ele>
        <time>2013-08-01T09:25:14Z</time>
      </trkpt>
      <trkpt lat="42.582109" lon="1.462560">
        <ele>1919.1</ele>
        <time>2013-08-01T09:25:26Z</time>
      </trkpt>
      <trkpt lat="42.582115" lon="1.462626">
        <ele>1918.7</ele>
        <time>2013-08-01T09:25:30Z</time>
      </trkpt>
      <trkpt lat="42.582096" lon="1.462708">
        <ele>1919.5</ele>
        <time>2013-08-01T09:25:36Z</time>
      </trkpt>
      <trkpt lat="42.582100" lon="1.462768">
        <ele>1918.8</ele>
        <time>2013-08-01T09:25:40Z</time>
      </trkpt>
      <trkpt lat="42.582105" lon="1.462977">
        <ele>1917.4</ele>
        <time>2013-08-01T09:25:53Z</time>
      </trkpt>
      <trkpt lat="42.582129" lon="1.463101">
        <ele>1914.1</ele>
        <time>2013-08-01T09:26:05Z</time>
      </trkpt>
      <trkpt lat="42.582137" lon="1.463097">
        <ele>1913.5</ele>
        <time>2013-08-01T09:26:22Z</time>
      </trkpt>
      <trkpt lat="42.582138" lon="1.463142">
        <ele>1911.9</ele>
        <time>2013-08-01T09:26:48Z</time>
      </trkpt>
      <trkpt lat="42.582146" lon="1.463207">
        <ele>1908.7</ele>
        <time>2013-08-01T09:27:02Z</time>
      </trkpt>
      <trkpt lat="42.582144" lon="1.463283">
        <ele>1905.2</ele>
        <time>2013-08-01T09:27:12Z</time>
      </trkpt>
      <trkpt lat="42.582141" lon="1.463319">
        <ele>1903.6</ele>
        <time>2013-08-01T09:27:16Z</time>
      </trkpt>
      <trkpt lat="42.582129" lon="1.463362">
        <ele>1902.4</ele>
        <time>2013-08-01T09:27:29Z</time>
      </trkpt>
      <trkpt lat="42.582120" lon="1.463415">
        <ele>1900.4</ele>
        <time>2013-08-01T09:27:42Z</time>
      </trkpt>
      <trkpt lat="42.582121" lon="1.463493">
        <ele>1896.3</ele>
        <time>2013-08-01T09:27:54Z</time>
      </trkpt>
      <trkpt lat="42.582109" lon="1.463556">
        <ele>1894.2</ele>
        <time>2013-08-01T09:28:03Z</time>
      </trkpt>
      <trkpt lat="42.582109" lon="1.463556">
        <ele>1894.2</ele>
        <time>2013-08-01T09:28:04Z</time>
      </trkpt>
      <trkpt lat="42.582106" lon="1.463576">
        <ele>1893.5</ele>
        <time>2013-08-01T09:28:06Z</time>
      </trkpt>
      <trkpt lat="42.582087" lon="1.463696">
        <ele>1889.3</ele>
        <time>2013-08-01T09:28:13Z</time>
      </trkpt>
      <trkpt lat="42.582086" lon="1.463706">
        <ele>1888.9</ele>
        <time>2013-08-01T09:28:14Z</time>
      </trkpt>
      <trkpt lat="42.582062" lon="1.463879">
        <ele>1883.8</ele>
        <time>2013-08-01T09:28:24Z</time>
      </trkpt>
      <trkpt lat="42.582010" lon="1.463995">
        <ele>1882.7</ele>
        <time>2013-08-01T09:28:36Z</time>
      </trkpt>
      <trkpt lat="42.581978" lon="1.464019">
        <ele>1883.7</ele>
        <time>2013-08-01T09:28:46Z</time>
      </trkpt>
      <trkpt lat="42.581948" lon="1.464069">
        <ele>1883.5</ele>
        <time>2013-08-01T09:28:56Z</time>
      </trkpt>
      <trkpt lat="42.581931" lon="1.464098">
        <ele>1883.4</ele>
        <time>2013-08-01T09:28:59Z</time>
      </trkpt>
      <trkpt lat="42.581924" lon="1.464215">
        <ele>1879.5</ele>
        <time>2013-08-01T09:29:10Z</time>
      </trkpt>
      <trkpt lat="42.581909" lon="1.464388">
        <ele>1874.8</ele>
        <time>2013-08-01T09:29:21Z</time>
      </trkpt>
      <trkpt lat="42.581939" lon="1.464429">
        <ele>1871.8</ele>
        <time>2013-08-01T09:29:31Z</time>
      </trkpt>
      <trkpt lat="42.581939" lon="1.464429">
        <ele>1871.8</ele>
        <time>2013-08-01T09:29:35Z</time>
      </trkpt>
      <trkpt lat="42.581989" lon="1.464416">
        <ele>1869.2</ele>
        <time>2013-08-01T09:29:47Z</time>
      </trkpt>
      <trkpt lat="42.582028" lon="1.464423">
        <ele>1866.7</ele>
        <time>2013-08-01T09:29:52Z</time>
      </trkpt>
      <trkpt lat="42.582171" lon="1.464344">
        <ele>1860.7</ele>
        <time>2013-08-01T09:30:05Z</time>
      </trkpt>
      <trkpt lat="42.582265" lon="1.464272">
        <ele>1857.3</ele>
        <time>2013-08-01T09:30:19Z</time>
      </trkpt>
      <trkpt lat="42.582335" lon="1.464253">
        <ele>1852.8</ele>
        <time>2013-08-01T09:30:31Z</time>
      </trkpt>
      <trkpt lat="42.582312" lon="1.464304">
        <ele>1853.1</ele>
        <time>2013-08-01T09:30:43Z</time>
      </trkpt>
      <trkpt lat="42.582331" lon="1.464390">
        <ele>1849.2</ele>
        <time>2013-08-01T09:30:55Z</time>
      </trkpt>
      <trkpt lat="42.582338" lon="1.464460">
        <ele>1846.5</ele>
        <time>2013-08-01T09:31:08Z</time>
      </trkpt>
      <trkpt lat="42.582398" lon="1.464469">
        <ele>1842.0</ele>
        <time>2013-08-01T09:31:20Z</time>
      </trkpt>
      <trkpt lat="42.582398" lon="1.464469">
        <ele>1842.0</ele>
        <time>2013-08-01T09:31:23Z</time>
      </trkpt>
      <trkpt lat="42.582406" lon="1.464509">
        <ele>1840.3</ele>
        <time>2013-08-01T09:31:34Z</time>
      </trkpt>
      <trkpt lat="42.582376" lon="1.464562">
        <ele>1841.1</ele>
        <time>2013-08-01T09:31:45Z</time>
      </trkpt>
      <trkpt lat="42.582375" lon="1.464575">
        <ele>1840.8</ele>
        <time>2013-08-01T09:31:48Z</time>
      </trkpt>
      <trkpt lat="42.582392" lon="1.464705">
        <ele>1836.1</ele>
        <time>2013-08-01T09:32:02Z</time>
      </trkpt>
      <trkpt lat="42.582407" lon="1.464824">
        <ele>1832.2</ele>
        <time>2013-08-01T09:32:14Z</time>
      </trkpt>
      <trkpt lat="42.582431" lon="1.464873">
        <ele>1829.9</ele>
        <time>2013-08-01T09:32:26Z</time>
      </trkpt>
      <trkpt lat="42.582435" lon="1.464883">
        <ele>1829.5</ele>
        <time>2013-08-01T09:32:29Z</time>
      </trkpt>
      <trkpt lat="42.582494" lon="1.464866">
        <ele>1826.2</ele>
        <time>2013-08-01T09:32:42Z</time>
      </trkpt>
      <trkpt lat="42.582558" lon="1.464819">
        <ele>1823.2</ele>
        <time>2013-08-01T09:32:54Z</time>
      </trkpt>
      <trkpt lat="42.582625" lon="1.464795">
        <ele>1819.4</ele>
        <time>2013-08-01T09:33:06Z</time>
      </trkpt>
      <trkpt lat="42.582683" lon="1.464807">
        <ele>1815.6</ele>
        <time>2013-08-01T09:33:18Z</time>
      </trkpt>
      <trkpt lat="42.582697" lon="1.464829">
        <ele>1814.3</ele>
        <time>2013-08-01T09:33:29Z</time>
      </trkpt>
      <trkpt lat="42.582734" lon="1.464901">
        <ele>1811.3</ele>
        <time>2013-08-01T09:33:40Z</time>
      </trkpt>
      <trkpt lat="42.582754" lon="1.464887">
        <ele>1810.2</ele>
        <time>2013-08-01T09:33:45Z</time>
      </trkpt>
      <trkpt lat="42.582754" lon="1.464887">
        <ele>1810.2</ele>
        <time>2013-08-01T09:33:57Z</time>
      </trkpt>
      <trkpt lat="42.582789" lon="1.464913">
        <ele>1808.3</ele>
        <time>2013-08-01T09:34:08Z</time>
      </trkpt>
      <trkpt lat="42.582846" lon="1.464957">
        <ele>1805.3</ele>
        <time>2013-08-01T09:34:17Z</time>
      </trkpt>
      <trkpt lat="42.582895" lon="1.464996">
        <ele>1802.3</ele>
        <time>2013-08-01T09:34:25Z</time>
      </trkpt>
      <trkpt lat="42.582900" lon="1.465110">
        <ele>1800.6</ele>
        <time>2013-08-01T09:34:38Z</time>
      </trkpt>
      <trkpt lat="42.582934" lon="1.465193">
        <ele>1797.8</ele>
        <time>2013-08-01T09:34:50Z</time>
      </trkpt>
      <trkpt lat="42.582953" lon="1.465174">
        <ele>1797.0</ele>
        <time>2013-08-01T09:34:58Z</time>
      </trkpt>
      <trkpt lat="42.582996" lon="1.465143">
        <ele>1795.0</ele>
        <time>2013-08-01T09:35:04Z</time>
      </trkpt>
      <trkpt lat="42.582996" lon="1.465143">
        <ele>1795.0</ele>
        <time>2013-08-01T09:35:16Z</time>
      </trkpt>
      <trkpt lat="42.582997" lon="1.465142">
        <ele>1795.0</ele>
        <time>2013-08-01T09:35:18Z</time>
      </trkpt>
      <trkpt lat="42.583104" lon="1.464838">
        <ele>1793.6</ele>
        <time>2013-08-01T09:35:31Z</time>
      </trkpt>
      <trkpt lat="42.583114" lon="1.464824">
        <ele>1793.4</ele>
        <time>2013-08-01T09:35:49Z</time>
      </trkpt>
      <trkpt lat="42.583136" lon="1.464795">
        <ele>1792.8</ele>
        <time>2013-08-01T09:36:09Z</time>
      </trkpt>
      <trkpt lat="42.583205" lon="1.464679">
        <ele>1792.7</ele>
        <time>2013-08-01T09:36:20Z</time>
      </trkpt>
      <trkpt lat="42.583208" lon="1.464665">
        <ele>1792.8</ele>
        <time>2013-08-01T09:36:32Z</time>
      </trkpt>
      <trkpt lat="42.583215" lon="1.464653">
        <ele>1792.9</ele>
        <time>2013-08-01T09:36:33Z</time>
      </trkpt>
      <trkpt lat="42.583263" lon="1.464650">
        <ele>1792.4</ele>
        <time>2013-08-01T09:36:40Z</time>
      </trkpt>
      <trkpt lat="42.583275" lon="1.464668">
        <ele>1791.9</ele>
        <time>2013-08-01T09:36:42Z</time>
      </trkpt>
      <trkpt lat="42.583287" lon="1.464710">
        <ele>1790.8</ele>
        <time>2013-08-01T09:36:46Z</time>
      </trkpt>
      <trkpt lat="42.583337" lon="1.464754">
        <ele>1789.8</ele>
        <time>2013-08-01T09:36:53Z</time>
      </trkpt>
      <trkpt lat="42.583363" lon="1.464762">
        <ele>1790.0</ele>
        <time>2013-08-01T09:36:55Z</time>
      </trkpt>
      <trkpt lat="42.583462" lon="1.464828">
        <ele>1790.3</ele>
        <time>2013-08-01T09:37:07Z</time>
      </trkpt>
      <trkpt lat="42.583525" lon="1.464896">
        <ele>1789.7</ele>
        <time>2013-08-01T09:37:15Z</time>
      </trkpt>
      <trkpt lat="42.583623" lon="1.464955">
        <ele>1789.9</ele>
        <time>2013-08-01T09:37:27Z</time>
      </trkpt>
      <trkpt lat="42.583700" lon="1.465021">
        <ele>1789.7</ele>
        <time>2013-08-01T09:37:36Z</time>
      </trkpt>
      <trkpt lat="42.583772" lon="1.465059">
        <ele>1790.5</ele>
        <time>2013-08-01T09:37:47Z</time>
      </trkpt>
      <trkpt lat="42.583869" lon="1.465113">
        <ele>1792.9</ele>
        <time>2013-08-01T09:37:57Z</time>
      </trkpt>
      <trkpt lat="42.583916" lon="1.465131">
        <ele>1794.5</ele>
        <time>2013-08-01T09:38:10Z</time>
      </trkpt>
      <trkpt lat="42.583912" lon="1.465144">
        <ele>1794.2</ele>
        <time>2013-08-01T09:38:22Z</time>
      </trkpt>
      <trkpt lat="42.583946" lon="1.465226">
        <ele>1794.9</ele>
        <time>2013-08-01T09:38:33Z</time>
      </trkpt>
      <trkpt lat="42.583946" lon="1.465239">
        <ele>1794.8</ele>
        <time>2013-08-01T09:38:48Z</time>
      </trkpt>
      <trkpt lat="42.583831" lon="1.465409">
        <ele>1787.9</ele>
        <time>2013-08-01T09:56:49Z</time>
      </trkpt>
      <trkpt lat="42.583828" lon="1.465511">
        <ele>1786.5</ele>
        <time>2013-08-01T09:57:01Z</time>
      </trkpt>
      <trkpt lat="42.583838" lon="1.465566">
        <ele>1786.4</ele>
        <time>2013-08-01T09:57:06Z</time>
      </trkpt>
      <trkpt lat="42.583765" lon="1.465774">
        <ele>1781.6</ele>
        <time>2013-08-01T09:57:19Z</time>
      </trkpt>
      <trkpt lat="42.583758" lon="1.465925">
        <ele>1780.4</ele>
        <time>2013-08-01T09:57:26Z</time>
      </trkpt>
      <trkpt lat="42.583736" lon="1.465999">
        <ele>1778.4</ele>
        <time>2013-08-01T09:57:31Z</time>
      </trkpt>
      <trkpt lat="42.583700" lon="1.466246">
        <ele>1771.5</ele>
        <time>2013-08-01T09:57:45Z</time>
      </trkpt>
      <trkpt lat="42.583679" lon="1.466365">
        <ele>1768.0</ele>
        <time>2013-08-01T09:57:57Z</time>
      </trkpt>
      <trkpt lat="42.583708" lon="1.466439">
        <ele>1767.3</ele>
        <time>2013-08-01T09:58:08Z</time>
      </trkpt>
      <trkpt lat="42.583721" lon="1.466459">
        <ele>1767.2</ele>
        <time>2013-08-01T09:58:11Z</time>
      </trkpt>
      <trkpt lat="42.583757" lon="1.466516">
        <ele>1767.2</ele>
        <time>2013-08-01T09:58:19Z</time>
      </trkpt>
      <trkpt lat="42.583756" lon="1.466533">
        <ele>1766.6</ele>
        <time>2013-08-01T09:58:24Z</time>
      </trkpt>
      <trkpt lat="42.583770" lon="1.466638">
        <ele>1763.8</ele>
        <time>2013-08-01T09:58:38Z</time>
      </trkpt>
      <trkpt lat="42.583735" lon="1.466744">
        <ele>1759.1</ele>
        <time>2013-08-01T09:58:50Z</time>
      </trkpt>
      <trkpt lat="42.583769" lon="1.466805">
        <ele>1758.5</ele>
        <time>2013-08-01T09:58:54Z</time>
      </trkpt>
      <trkpt lat="42.583838" lon="1.466908">
        <ele>1757.7</ele>
        <time>2013-08-01T09:59:07Z</time>
      </trkpt>
      <trkpt lat="42.583883" lon="1.466990">
        <ele>1756.5</ele>
        <time>2013-08-01T09:59:14Z</time>
      </trkpt>
      <trkpt lat="42.583875" lon="1.467059">
        <ele>1753.5</ele>
        <time>2013-08-01T09:59:19Z</time>
      </trkpt>
      <trkpt lat="42.583861" lon="1.467127">
        <ele>1751.1</ele>
        <time>2013-08-01T09:59:25Z</time>
      </trkpt>
      <trkpt lat="42.583956" lon="1.467301">
        <ele>1749.8</ele>
        <time>2013-08-01T09:59:37Z</time>
      </trkpt>
      <trkpt lat="42.583989" lon="1.467359">
        <ele>1750.5</ele>
        <time>2013-08-01T09:59:40Z</time>
      </trkpt>
      <trkpt lat="42.584026" lon="1.467412">
        <ele>1752.0</ele>
        <time>2013-08-01T09:59:54Z</time>
      </trkpt>
      <trkpt lat="42.584026" lon="1.467412">
        <ele>1752.0</ele>
        <time>2013-08-01T10:00:13Z</time>
      </trkpt>
      <trkpt lat="42.584022" lon="1.467501">
        <ele>1750.3</ele>
        <time>2013-08-01T10:00:21Z</time>
      </trkpt>
      <trkpt lat="42.584039" lon="1.467540">
        <ele>1751.0</ele>
        <time>2013-08-01T10:00:33Z</time>
      </trkpt>
      <trkpt lat="42.584001" lon="1.467609">
        <ele>1747.0</ele>
        <time>2013-08-01T10:00:44Z</time>
      </trkpt>
      <trkpt lat="42.583954" lon="1.467645">
        <ele>1743.2</ele>
        <time>2013-08-01T10:00:49Z</time>
      </trkpt>
      <trkpt lat="42.583879" lon="1.467632">
        <ele>1740.6</ele>
        <time>2013-08-01T10:01:02Z</time>
      </trkpt>
      <trkpt lat="42.583829" lon="1.467725">
        <ele>1738.1</ele>
        <time>2013-08-01T10:01:14Z</time>
      </trkpt>
      <trkpt lat="42.583710" lon="1.467894">
        <ele>1733.9</ele>
        <time>2013-08-01T10:01:28Z</time>
      </trkpt>
      <trkpt lat="42.583752" lon="1.468075">
        <ele>1731.4</ele>
        <time>2013-08-01T10:01:37Z</time>
      </trkpt>
      <trkpt lat="42.583829" lon="1.468107">
        <ele>1733.2</ele>
        <time>2013-08-01T10:01:44Z</time>
      </trkpt>
      <trkpt lat="42.583829" lon="1.468215">
        <ele>1732.6</ele>
        <time>2013-08-01T10:01:51Z</time>
      </trkpt>
      <trkpt lat="42.583838" lon="1.468340">
        <ele>1733.9</ele>
        <time>2013-08-01T10:02:01Z</time>
      </trkpt>
      <trkpt lat="42.583835" lon="1.468385">
        <ele>1734.5</ele>
        <time>2013-08-01T10:02:05Z</time>
      </trkpt>
      <trkpt lat="42.583840" lon="1.468472">
        <ele>1736.0</ele>
        <time>2013-08-01T10:02:14Z</time>
      </trkpt>
      <trkpt lat="42.583816" lon="1.468512">
        <ele>1735.6</ele>
        <time>2013-08-01T10:02:20Z</time>
      </trkpt>
      <trkpt lat="42.583807" lon="1.468544">
        <ele>1735.6</ele>
        <time>2013-08-01T10:02:23Z</time>
      </trkpt>
      <trkpt lat="42.583772" lon="1.468689">
        <ele>1735.6</ele>
        <time>2013-08-01T10:02:35Z</time>
      </trkpt>
      <trkpt lat="42.583763" lon="1.468815">
        <ele>1736.9</ele>
        <time>2013-08-01T10:02:43Z</time>
      </trkpt>
      <trkpt lat="42.583728" lon="1.468939">
        <ele>1738.0</ele>
        <time>2013-08-01T10:02:55Z</time>
      </trkpt>
      <trkpt lat="42.583701" lon="1.469013">
        <ele>1738.4</ele>
        <time>2013-08-01T10:03:06Z</time>
      </trkpt>
      <trkpt lat="42.583642" lon="1.469037">
        <ele>1737.0</ele>
        <time>2013-08-01T10:03:19Z</time>
      </trkpt>
      <trkpt lat="42.583586" lon="1.469102">
        <ele>1736.8</ele>
        <time>2013-08-01T10:03:31Z</time>
      </trkpt>
      <trkpt lat="42.583473" lon="1.469221">
        <ele>1736.3</ele>
        <time>2013-08-01T10:03:42Z</time>
      </trkpt>
      <trkpt lat="42.583420" lon="1.469362">
        <ele>1737.9</ele>
        <time>2013-08-01T10:03:51Z</time>
      </trkpt>
      <trkpt lat="42.583357" lon="1.469535">
        <ele>1740.0</ele>
        <time>2013-08-01T10:04:03Z</time>
      </trkpt>
      <trkpt lat="42.583320" lon="1.469633">
        <ele>1740.6</ele>
        <time>2013-08-01T10:04:13Z</time>
      </trkpt>
      <trkpt lat="42.583303" lon="1.469676">
        <ele>1740.8</ele>
        <time>2013-08-01T10:04:15Z</time>
      </trkpt>
      <trkpt lat="42.583246" lon="1.469831">
        <ele>1740.7</ele>
        <time>2013-08-01T10:04:29Z</time>
      </trkpt>
      <trkpt lat="42.583284" lon="1.469846">
        <ele>1743.4</ele>
        <time>2013-08-01T10:04:41Z</time>
      </trkpt>
      <trkpt lat="42.583284" lon="1.469846">
        <ele>1743.4</ele>
        <time>2013-08-01T10:05:02Z</time>
      </trkpt>
      <trkpt lat="42.583286" lon="1.469852">
        <ele>1743.7</ele>
        <time>2013-08-01T10:05:19Z</time>
      </trkpt>
      <trkpt lat="42.583286" lon="1.469852">
        <ele>1743.7</ele>
        <time>2013-08-01T10:05:43Z</time>
      </trkpt>
      <trkpt lat="42.583286" lon="1.469856">
        <ele>1743.7</ele>
        <time>2013-08-01T10:06:13Z</time>
      </trkpt>
      <trkpt lat="42.583244" lon="1.469923">
        <ele>1742.2</ele>
        <time>2013-08-01T10:06:22Z</time>
      </trkpt>
      <trkpt lat="42.583238" lon="1.469946">
        <ele>1742.2</ele>
        <time>2013-08-01T10:06:24Z</time>
      </trkpt>
      <trkpt lat="42.583151" lon="1.470114">
        <ele>1738.8</ele>
        <time>2013-08-01T10:06:38Z</time>
      </trkpt>
      <trkpt lat="42.583149" lon="1.470122">
        <ele>1738.8</ele>
        <time>2013-08-01T10:06:57Z</time>
      </trkpt>
      <trkpt lat="42.583097" lon="1.470184">
        <ele>1736.6</ele>
        <time>2013-08-01T10:07:09Z</time>
      </trkpt>
      <trkpt lat="42.583018" lon="1.470317">
        <ele>1734.2</ele>
        <time>2013-08-01T10:07:21Z</time>
      </trkpt>
      <trkpt lat="42.582994" lon="1.470388">
        <ele>1734.0</ele>
        <time>2013-08-01T10:07:27Z</time>
      </trkpt>
      <trkpt lat="42.582966" lon="1.470444">
        <ele>1733.4</ele>
        <time>2013-08-01T10:07:31Z</time>
      </trkpt>
      <trkpt lat="42.582903" lon="1.470526">
        <ele>1731.3</ele>
        <time>2013-08-01T10:07:38Z</time>
      </trkpt>
      <trkpt lat="42.582816" lon="1.470631">
        <ele>1728.9</ele>
        <time>2013-08-01T10:07:51Z</time>
      </trkpt>
      <trkpt lat="42.582757" lon="1.470728">
        <ele>1728.6</ele>
        <time>2013-08-01T10:07:58Z</time>
      </trkpt>
      <trkpt lat="42.582647" lon="1.470863">
        <ele>1727.1</ele>
        <time>2013-08-01T10:08:09Z</time>
      </trkpt>
      <trkpt lat="42.582481" lon="1.471001">
        <ele>1721.6</ele>
        <time>2013-08-01T10:08:24Z</time>
      </trkpt>
      <trkpt lat="42.582438" lon="1.471043">
        <ele>1720.7</ele>
        <time>2013-08-01T10:08:28Z</time>
      </trkpt>
      <trkpt lat="42.582408" lon="1.471089">
        <ele>1720.9</ele>
        <time>2013-08-01T10:08:32Z</time>
      </trkpt>
      <trkpt lat="42.582386" lon="1.471124">
        <ele>1721.0</ele>
        <time>2013-08-01T10:08:35Z</time>
      </trkpt>
      <trkpt lat="42.582320" lon="1.471258">
        <ele>1722.1</ele>
        <time>2013-08-01T10:08:43Z</time>
      </trkpt>
      <trkpt lat="42.582273" lon="1.471338">
        <ele>1722.5</ele>
        <time>2013-08-01T10:08:48Z</time>
      </trkpt>
      <trkpt lat="42.582179" lon="1.471373">
        <ele>1718.4</ele>
        <time>2013-08-01T10:08:56Z</time>
      </trkpt>
      <trkpt lat="42.582161" lon="1.471395">
        <ele>1718.2</ele>
        <time>2013-08-01T10:09:12Z</time>
      </trkpt>
      <trkpt lat="42.582162" lon="1.471401">
        <ele>1718.6</ele>
        <time>2013-08-01T10:09:47Z</time>
      </trkpt>
      <trkpt lat="42.582106" lon="1.471458">
        <ele>1717.8</ele>
        <time>2013-08-01T10:09:53Z</time>
      </trkpt>
      <trkpt lat="42.582056" lon="1.471488">
        <ele>1716.3</ele>
        <time>2013-08-01T10:09:57Z</time>
      </trkpt>
      <trkpt lat="42.581912" lon="1.471543">
        <ele>1710.5</ele>
        <time>2013-08-01T10:10:10Z</time>
      </trkpt>
      <trkpt lat="42.581851" lon="1.471558">
        <ele>1706.7</ele>
        <time>2013-08-01T10:10:15Z</time>
      </trkpt>
      <trkpt lat="42.581771" lon="1.471564">
        <ele>1700.3</ele>
        <time>2013-08-01T10:10:20Z</time>
      </trkpt>
      <trkpt lat="42.581738" lon="1.471562">
        <ele>1697.6</ele>
        <time>2013-08-01T10:10:22Z</time>
      </trkpt>
      <trkpt lat="42.581692" lon="1.471571">
        <ele>1693.7</ele>
        <time>2013-08-01T10:10:25Z</time>
      </trkpt>
      <trkpt lat="42.581494" lon="1.471650">
        <ele>1680.3</ele>
        <time>2013-08-01T10:10:38Z</time>
      </trkpt>
      <trkpt lat="42.581442" lon="1.471689">
        <ele>1678.8</ele>
        <time>2013-08-01T10:10:42Z</time>
      </trkpt>
      <trkpt lat="42.581310" lon="1.471812">
        <ele>1675.8</ele>
        <time>2013-08-01T10:10:56Z</time>
      </trkpt>
      <trkpt lat="42.581263" lon="1.471982">
        <ele>1678.2</ele>
        <time>2013-08-01T10:11:08Z</time>
      </trkpt>
      <trkpt lat="42.581216" lon="1.472143">
        <ele>1680.4</ele>
        <time>2013-08-01T10:11:17Z</time>
      </trkpt>
      <trkpt lat="42.581191" lon="1.472228">
        <ele>1680.8</ele>
        <time>2013-08-01T10:11:21Z</time>
      </trkpt>
      <trkpt lat="42.581113" lon="1.472481">
        <ele>1679.1</ele>
        <time>2013-08-01T10:11:35Z</time>
      </trkpt>
      <trkpt lat="42.581113" lon="1.472481">
        <ele>1679.1</ele>
        <time>2013-08-01T10:11:36Z</time>
      </trkpt>
      <trkpt lat="42.581098" lon="1.472531">
        <ele>1679.0</ele>
        <time>2013-08-01T10:11:40Z</time>
      </trkpt>
      <trkpt lat="42.581096" lon="1.472564">
        <ele>1679.6</ele>
        <time>2013-08-01T10:11:42Z</time>
      </trkpt>
      <trkpt lat="42.581120" lon="1.472617">
        <ele>1682.5</ele>
        <time>2013-08-01T10:11:53Z</time>
      </trkpt>
      <trkpt lat="42.581111" lon="1.472736">
        <ele>1684.0</ele>
        <time>2013-08-01T10:12:08Z</time>
      </trkpt>
      <trkpt lat="42.581114" lon="1.472853">
        <ele>1683.6</ele>
        <time>2013-08-01T10:12:18Z</time>
      </trkpt>
      <trkpt lat="42.581098" lon="1.472965">
        <ele>1679.1</ele>
        <time>2013-08-01T10:12:24Z</time>
      </trkpt>
      <trkpt lat="42.581112" lon="1.473057">
        <ele>1676.7</ele>
        <time>2013-08-01T10:12:30Z</time>
      </trkpt>
      <trkpt lat="42.581155" lon="1.473109">
        <ele>1677.4</ele>
        <time>2013-08-01T10:12:35Z</time>
      </trkpt>
      <trkpt lat="42.581195" lon="1.473173">
        <ele>1677.7</ele>
        <time>2013-08-01T10:12:39Z</time>
      </trkpt>
      <trkpt lat="42.581224" lon="1.473219">
        <ele>1678.0</ele>
        <time>2013-08-01T10:12:43Z</time>
      </trkpt>
      <trkpt lat="42.581241" lon="1.473288">
        <ele>1676.8</ele>
        <time>2013-08-01T10:12:49Z</time>
      </trkpt>
      <trkpt lat="42.581247" lon="1.473374">
        <ele>1675.0</ele>
        <time>2013-08-01T10:12:54Z</time>
      </trkpt>
      <trkpt lat="42.581254" lon="1.473631">
        <ele>1676.2</ele>
        <time>2013-08-01T10:13:07Z</time>
      </trkpt>
      <trkpt lat="42.581225" lon="1.473737">
        <ele>1674.3</ele>
        <time>2013-08-01T10:13:13Z</time>
      </trkpt>
      <trkpt lat="42.581200" lon="1.473921">
        <ele>1672.9</ele>
        <time>2013-08-01T10:13:20Z</time>
      </trkpt>
      <trkpt lat="42.581178" lon="1.474012">
        <ele>1671.3</ele>
        <time>2013-08-01T10:13:24Z</time>
      </trkpt>
      <trkpt lat="42.581148" lon="1.474150">
        <ele>1669.4</ele>
        <time>2013-08-01T10:13:32Z</time>
      </trkpt>
      <trkpt lat="42.581053" lon="1.474446">
        <ele>1664.1</ele>
        <time>2013-08-01T10:13:46Z</time>
      </trkpt>
      <trkpt lat="42.581073" lon="1.474692">
        <ele>1662.9</ele>
        <time>2013-08-01T10:14:01Z</time>
      </trkpt>
      <trkpt lat="42.581108" lon="1.474914">
        <ele>1661.9</ele>
        <time>2013-08-01T10:14:15Z</time>
      </trkpt>
      <trkpt lat="42.581140" lon="1.475172">
        <ele>1658.7</ele>
        <time>2013-08-01T10:14:30Z</time>
      </trkpt>
      <trkpt lat="42.581151" lon="1.475260">
        <ele>1656.8</ele>
        <time>2013-08-01T10:14:45Z</time>
      </trkpt>
      <trkpt lat="42.581173" lon="1.475396">
        <ele>1654.3</ele>
        <time>2013-08-01T10:14:51Z</time>
      </trkpt>
      <trkpt lat="42.581192" lon="1.475429">
        <ele>1654.6</ele>
        <time>2013-08-01T10:14:53Z</time>
      </trkpt>
      <trkpt lat="42.581328" lon="1.475710">
        <ele>1655.8</ele>
        <time>2013-08-01T10:15:09Z</time>
      </trkpt>
      <trkpt lat="42.581396" lon="1.475894">
        <ele>1655.6</ele>
        <time>2013-08-01T10:15:21Z</time>
      </trkpt>
      <trkpt lat="42.581431" lon="1.476095">
        <ele>1653.2</ele>
        <time>2013-08-01T10:15:36Z</time>
      </trkpt>
      <trkpt lat="42.581432" lon="1.476110">
        <ele>1652.9</ele>
        <time>2013-08-01T10:15:37Z</time>
      </trkpt>
      <trkpt lat="42.581430" lon="1.476295">
        <ele>1651.4</ele>
        <time>2013-08-01T10:15:50Z</time>
      </trkpt>
      <trkpt lat="42.581398" lon="1.476388">
        <ele>1649.9</ele>
        <time>2013-08-01T10:15:55Z</time>
      </trkpt>
      <trkpt lat="42.581359" lon="1.476487">
        <ele>1648.1</ele>
        <time>2013-08-01T10:16:00Z</time>
      </trkpt>
      <trkpt lat="42.581269" lon="1.476626">
        <ele>1642.3</ele>
        <time>2013-08-01T10:16:08Z</time>
      </trkpt>
      <trkpt lat="42.581213" lon="1.476707">
        <ele>1638.7</ele>
        <time>2013-08-01T10:16:13Z</time>
      </trkpt>
      <trkpt lat="42.581194" lon="1.476768">
        <ele>1637.8</ele>
        <time>2013-08-01T10:16:16Z</time>
      </trkpt>
      <trkpt lat="42.581124" lon="1.476859">
        <ele>1634.0</ele>
        <time>2013-08-01T10:16:23Z</time>
      </trkpt>
      <trkpt lat="42.581053" lon="1.476980">
        <ele>1630.7</ele>
        <time>2013-08-01T10:16:32Z</time>
      </trkpt>
      <trkpt lat="42.581027" lon="1.477014">
        <ele>1629.4</ele>
        <time>2013-08-01T10:16:35Z</time>
      </trkpt>
      <trkpt lat="42.581011" lon="1.477056">
        <ele>1628.9</ele>
        <time>2013-08-01T10:16:38Z</time>
      </trkpt>
      <trkpt lat="42.580948" lon="1.477273">
        <ele>1627.6</ele>
        <time>2013-08-01T10:16:51Z</time>
      </trkpt>
      <trkpt lat="42.580935" lon="1.477327">
        <ele>1627.5</ele>
        <time>2013-08-01T10:16:54Z</time>
      </trkpt>
      <trkpt lat="42.580879" lon="1.477578">
        <ele>1626.6</ele>
        <time>2013-08-01T10:17:07Z</time>
      </trkpt>
      <trkpt lat="42.580874" lon="1.477596">
        <ele>1626.5</ele>
        <time>2013-08-01T10:17:08Z</time>
      </trkpt>
      <trkpt lat="42.580848" lon="1.477668">
        <ele>1625.7</ele>
        <time>2013-08-01T10:17:12Z</time>
      </trkpt>
      <trkpt lat="42.580813" lon="1.477714">
        <ele>1624.2</ele>
        <time>2013-08-01T10:17:16Z</time>
      </trkpt>
      <trkpt lat="42.580739" lon="1.477842">
        <ele>1621.5</ele>
        <time>2013-08-01T10:17:25Z</time>
      </trkpt>
      <trkpt lat="42.580681" lon="1.477939">
        <ele>1619.0</ele>
        <time>2013-08-01T10:17:33Z</time>
      </trkpt>
      <trkpt lat="42.580660" lon="1.477984">
        <ele>1618.2</ele>
        <time>2013-08-01T10:17:37Z</time>
      </trkpt>
      <trkpt lat="42.580622" lon="1.478065">
        <ele>1616.4</ele>
        <time>2013-08-01T10:17:42Z</time>
      </trkpt>
      <trkpt lat="42.580547" lon="1.478287">
        <ele>1612.4</ele>
        <time>2013-08-01T10:17:55Z</time>
      </trkpt>
      <trkpt lat="42.580514" lon="1.478529">
        <ele>1610.8</ele>
        <time>2013-08-01T10:18:07Z</time>
      </trkpt>
      <trkpt lat="42.580502" lon="1.478756">
        <ele>1611.0</ele>
        <time>2013-08-01T10:18:20Z</time>
      </trkpt>
      <trkpt lat="42.580524" lon="1.478865">
        <ele>1612.6</ele>
        <time>2013-08-01T10:18:31Z</time>
      </trkpt>
      <trkpt lat="42.580516" lon="1.478873">
        <ele>1612.2</ele>
        <time>2013-08-01T10:18:48Z</time>
      </trkpt>
      <trkpt lat="42.580517" lon="1.478880">
        <ele>1612.3</ele>
        <time>2013-08-01T10:18:50Z</time>
      </trkpt>
      <trkpt lat="42.580474" lon="1.479042">
        <ele>1611.6</ele>
        <time>2013-08-01T10:19:02Z</time>
      </trkpt>
      <trkpt lat="42.580449" lon="1.479057">
        <ele>1610.5</ele>
        <time>2013-08-01T10:19:19Z</time>
      </trkpt>
      <trkpt lat="42.580424" lon="1.479116">
        <ele>1610.3</ele>
        <time>2013-08-01T10:19:37Z</time>
      </trkpt>
      <trkpt lat="42.580406" lon="1.479144">
        <ele>1610.3</ele>
        <time>2013-08-01T10:19:39Z</time>
      </trkpt>
      <trkpt lat="42.580347" lon="1.479218">
        <ele>1609.0</ele>
        <time>2013-08-01T10:19:46Z</time>
      </trkpt>
      <trkpt lat="42.580300" lon="1.479291">
        <ele>1608.1</ele>
        <time>2013-08-01T10:19:51Z</time>
      </trkpt>
      <trkpt lat="42.580293" lon="1.479319">
        <ele>1608.3</ele>
        <time>2013-08-01T10:19:53Z</time>
      </trkpt>
      <trkpt lat="42.580195" lon="1.479453">
        <ele>1605.6</ele>
        <time>2013-08-01T10:20:03Z</time>
      </trkpt>
      <trkpt lat="42.580075" lon="1.479417">
        <ele>1598.4</ele>
        <time>2013-08-01T10:20:14Z</time>
      </trkpt>
      <trkpt lat="42.580022" lon="1.479398">
        <ele>1597.5</ele>
        <time>2013-08-01T10:20:19Z</time>
      </trkpt>
      <trkpt lat="42.580005" lon="1.479374">
        <ele>1597.1</ele>
        <time>2013-08-01T10:20:21Z</time>
      </trkpt>
      <trkpt lat="42.579944" lon="1.479300">
        <ele>1595.2</ele>
        <time>2013-08-01T10:20:29Z</time>
      </trkpt>
      <trkpt lat="42.579918" lon="1.479257">
        <ele>1594.2</ele>
        <time>2013-08-01T10:20:33Z</time>
      </trkpt>
      <trkpt lat="42.579911" lon="1.479242">
        <ele>1593.9</ele>
        <time>2013-08-01T10:20:34Z</time>
      </trkpt>
      <trkpt lat="42.579874" lon="1.479210">
        <ele>1592.9</ele>
        <time>2013-08-01T10:20:38Z</time>
      </trkpt>
      <trkpt lat="42.579838" lon="1.479213">
        <ele>1592.4</ele>
        <time>2013-08-01T10:20:41Z</time>
      </trkpt>
      <trkpt lat="42.579725" lon="1.479132">
        <ele>1590.1</ele>
        <time>2013-08-01T10:20:52Z</time>
      </trkpt>
      <trkpt lat="42.579683" lon="1.479069">
        <ele>1588.7</ele>
        <time>2013-08-01T10:20:57Z</time>
      </trkpt>
      <trkpt lat="42.579667" lon="1.479015">
        <ele>1587.8</ele>
        <time>2013-08-01T10:21:01Z</time>
      </trkpt>
      <trkpt lat="42.579574" lon="1.478820">
        <ele>1583.9</ele>
        <time>2013-08-01T10:21:14Z</time>
      </trkpt>
      <trkpt lat="42.579537" lon="1.478733">
        <ele>1582.2</ele>
        <time>2013-08-01T10:21:28Z</time>
      </trkpt>
      <trkpt lat="42.579505" lon="1.478647">
        <ele>1580.5</ele>
        <time>2013-08-01T10:21:48Z</time>
      </trkpt>
      <trkpt lat="42.579487" lon="1.478565">
        <ele>1579.0</ele>
        <time>2013-08-01T10:21:52Z</time>
      </trkpt>
      <trkpt lat="42.579471" lon="1.478424">
        <ele>1576.5</ele>
        <time>2013-08-01T10:22:01Z</time>
      </trkpt>
      <trkpt lat="42.579484" lon="1.478370">
        <ele>1576.3</ele>
        <time>2013-08-01T10:22:05Z</time>
      </trkpt>
      <trkpt lat="42.579525" lon="1.478284">
        <ele>1576.4</ele>
        <time>2013-08-01T10:22:11Z</time>
      </trkpt>
      <trkpt lat="42.579617" lon="1.478164">
        <ele>1577.0</ele>
        <time>2013-08-01T10:22:24Z</time>
      </trkpt>
      <trkpt lat="42.579665" lon="1.478050">
        <ele>1576.9</ele>
        <time>2013-08-01T10:22:36Z</time>
      </trkpt>
      <trkpt lat="42.579665" lon="1.478050">
        <ele>1576.9</ele>
        <time>2013-08-01T10:22:51Z</time>
      </trkpt>
      <trkpt lat="42.579581" lon="1.477912">
        <ele>1574.0</ele>
        <time>2013-08-01T10:23:04Z</time>
      </trkpt>
      <trkpt lat="42.579465" lon="1.477601">
        <ele>1570.3</ele>
        <time>2013-08-01T10:23:18Z</time>
      </trkpt>
      <trkpt lat="42.579444" lon="1.477565">
        <ele>1569.8</ele>
        <time>2013-08-01T10:23:20Z</time>
      </trkpt>
      <trkpt lat="42.579304" lon="1.477273">
        <ele>1568.0</ele>
        <time>2013-08-01T10:23:33Z</time>
      </trkpt>
      <trkpt lat="42.579247" lon="1.477171">
        <ele>1569.1</ele>
        <time>2013-08-01T10:23:38Z</time>
      </trkpt>
      <trkpt lat="42.579222" lon="1.477099">
        <ele>1570.2</ele>
        <time>2013-08-01T10:23:41Z</time>
      </trkpt>
      <trkpt lat="42.579128" lon="1.476879">
        <ele>1573.3</ele>
        <time>2013-08-01T10:23:53Z</time>
      </trkpt>
      <trkpt lat="42.579091" lon="1.476844">
        <ele>1573.5</ele>
        <time>2013-08-01T10:24:05Z</time>
      </trkpt>
      <trkpt lat="42.578981" lon="1.476848">
        <ele>1572.1</ele>
        <time>2013-08-01T10:24:18Z</time>
      </trkpt>
      <trkpt lat="42.578972" lon="1.476851">
        <ele>1571.9</ele>
        <time>2013-08-01T10:24:19Z</time>
      </trkpt>
      <trkpt lat="42.578951" lon="1.476939">
        <ele>1569.7</ele>
        <time>2013-08-01T10:24:36Z</time>
      </trkpt>
      <trkpt lat="42.578120" lon="1.478710">
        <ele>1559.9</ele>
        <time>2013-08-01T10:26:42Z</time>
      </trkpt>
      <trkpt lat="42.578308" lon="1.478880">
        <ele>1559.9</ele>
        <time>2013-08-01T10:31:54Z</time>
      </trkpt>
      <trkpt lat="42.578308" lon="1.478880">
        <ele>1559.9</ele>
        <time>2013-08-01T10:32:14Z</time>
      </trkpt>
      <trkpt lat="42.578308" lon="1.478880">
        <ele>1559.9</ele>
        <time>2013-08-01T10:32:25Z</time>
      </trkpt>
      <trkpt lat="42.578324" lon="1.478902">
        <ele>1559.9</ele>
        <time>2013-08-01T10:32:29Z</time>
      </trkpt>
      <trkpt lat="42.578337" lon="1.478921">
        <ele>1559.9</ele>
        <time>2013-08-01T10:32:37Z</time>
      </trkpt>
      <trkpt lat="42.578232" lon="1.479184">
        <ele>1559.5</ele>
        <time>2013-08-01T10:32:53Z</time>
      </trkpt>
      <trkpt lat="42.578186" lon="1.479274">
        <ele>1558.5</ele>
        <time>2013-08-01T10:33:05Z</time>
      </trkpt>
      <trkpt lat="42.578183" lon="1.479281">
        <ele>1558.4</ele>
        <time>2013-08-01T10:33:17Z</time>
      </trkpt>
      <trkpt lat="42.578171" lon="1.479296">
        <ele>1558.0</ele>
        <time>2013-08-01T10:33:25Z</time>
      </trkpt>
      <trkpt lat="42.578055" lon="1.479488">
        <ele>1551.6</ele>
        <time>2013-08-01T10:33:39Z</time>
      </trkpt>
      <trkpt lat="42.577970" lon="1.479625">
        <ele>1545.3</ele>
        <time>2013-08-01T10:33:51Z</time>
      </trkpt>
      <trkpt lat="42.577840" lon="1.479802">
        <ele>1542.3</ele>
        <time>2013-08-01T10:34:05Z</time>
      </trkpt>
      <trkpt lat="42.577793" lon="1.479849">
        <ele>1541.8</ele>
        <time>2013-08-01T10:34:14Z</time>
      </trkpt>
      <trkpt lat="42.577756" lon="1.479904">
        <ele>1541.4</ele>
        <time>2013-08-01T10:34:18Z</time>
      </trkpt>
      <trkpt lat="42.577601" lon="1.480173">
        <ele>1540.9</ele>
        <time>2013-08-01T10:34:36Z</time>
      </trkpt>
      <trkpt lat="42.577522" lon="1.480309">
        <ele>1541.2</ele>
        <time>2013-08-01T10:34:46Z</time>
      </trkpt>
      <trkpt lat="42.577451" lon="1.480378">
        <ele>1541.5</ele>
        <time>2013-08-01T10:34:54Z</time>
      </trkpt>
      <trkpt lat="42.577295" lon="1.480526">
        <ele>1541.1</ele>
        <time>2013-08-01T10:35:10Z</time>
      </trkpt>
      <trkpt lat="42.577121" lon="1.480677">
        <ele>1541.0</ele>
        <time>2013-08-01T10:35:27Z</time>
      </trkpt>
      <trkpt lat="42.576915" lon="1.480824">
        <ele>1540.0</ele>
        <time>2013-08-01T10:35:42Z</time>
      </trkpt>
      <trkpt lat="42.576723" lon="1.480902">
        <ele>1534.3</ele>
        <time>2013-08-01T10:36:00Z</time>
      </trkpt>
      <trkpt lat="42.576508" lon="1.481021">
        <ele>1529.8</ele>
        <time>2013-08-01T10:36:16Z</time>
      </trkpt>
      <trkpt lat="42.576327" lon="1.481145">
        <ele>1525.4</ele>
        <time>2013-08-01T10:36:29Z</time>
      </trkpt>
      <trkpt lat="42.576183" lon="1.481261">
        <ele>1521.3</ele>
        <time>2013-08-01T10:36:43Z</time>
      </trkpt>
      <trkpt lat="42.576099" lon="1.481285">
        <ele>1520.9</ele>
        <time>2013-08-01T10:36:52Z</time>
      </trkpt>
      <trkpt lat="42.576032" lon="1.481318">
        <ele>1520.3</ele>
        <time>2013-08-01T10:36:58Z</time>
      </trkpt>
      <trkpt lat="42.575896" lon="1.481365">
        <ele>1519.9</ele>
        <time>2013-08-01T10:37:08Z</time>
      </trkpt>
      <trkpt lat="42.575657" lon="1.481407">
        <ele>1516.2</ele>
        <time>2013-08-01T10:37:25Z</time>
      </trkpt>
      <trkpt lat="42.575549" lon="1.481398">
        <ele>1514.8</ele>
        <time>2013-08-01T10:37:40Z</time>
      </trkpt>
      <trkpt lat="42.575349" lon="1.481337">
        <ele>1512.2</ele>
        <time>2013-08-01T10:37:55Z</time>
      </trkpt>
      <trkpt lat="42.575225" lon="1.481356">
        <ele>1510.5</ele>
        <time>2013-08-01T10:38:09Z</time>
      </trkpt>
      <trkpt lat="42.575211" lon="1.481358">
        <ele>1510.3</ele>
        <time>2013-08-01T10:38:10Z</time>
      </trkpt>
      <trkpt lat="42.575003" lon="1.481453">
        <ele>1504.7</ele>
        <time>2013-08-01T10:38:24Z</time>
      </trkpt>
      <trkpt lat="42.574988" lon="1.481459">
        <ele>1504.4</ele>
        <time>2013-08-01T10:38:34Z</time>
      </trkpt>
      <trkpt lat="42.575029" lon="1.481457">
        <ele>1505.2</ele>
        <time>2013-08-01T10:38:43Z</time>
      </trkpt>
      <trkpt lat="42.574990" lon="1.481477">
        <ele>1504.2</ele>
        <time>2013-08-01T10:38:55Z</time>
      </trkpt>
      <trkpt lat="42.574909" lon="1.481523">
        <ele>1504.1</ele>
        <time>2013-08-01T10:39:06Z</time>
      </trkpt>
      <trkpt lat="42.574716" lon="1.481686">
        <ele>1503.3</ele>
        <time>2013-08-01T10:39:21Z</time>
      </trkpt>
      <trkpt lat="42.574621" lon="1.481774">
        <ele>1502.2</ele>
        <time>2013-08-01T10:39:32Z</time>
      </trkpt>
      <trkpt lat="42.574574" lon="1.481803">
        <ele>1501.6</ele>
        <time>2013-08-01T10:39:36Z</time>
      </trkpt>
      <trkpt lat="42.574492" lon="1.481904">
        <ele>1500.1</ele>
        <time>2013-08-01T10:39:44Z</time>
      </trkpt>
      <trkpt lat="42.574352" lon="1.482120">
        <ele>1499.9</ele>
        <time>2013-08-01T10:40:01Z</time>
      </trkpt>
      <trkpt lat="42.574346" lon="1.482145">
        <ele>1499.9</ele>
        <time>2013-08-01T10:40:14Z</time>
      </trkpt>
      <trkpt lat="42.574341" lon="1.482149">
        <ele>1499.9</ele>
        <time>2013-08-01T10:40:46Z</time>
      </trkpt>
      <trkpt lat="42.574340" lon="1.482149">
        <ele>1499.9</ele>
        <time>2013-08-01T10:41:00Z</time>
      </trkpt>
      <trkpt lat="42.574304" lon="1.482181">
        <ele>1499.7</ele>
        <time>2013-08-01T10:41:07Z</time>
      </trkpt>
      <trkpt lat="42.574145" lon="1.482399">
        <ele>1498.1</ele>
        <time>2013-08-01T10:41:23Z</time>
      </trkpt>
      <trkpt lat="42.574091" lon="1.482458">
        <ele>1496.8</ele>
        <time>2013-08-01T10:41:36Z</time>
      </trkpt>
      <trkpt lat="42.574010" lon="1.482596">
        <ele>1494.6</ele>
        <time>2013-08-01T10:41:52Z</time>
      </trkpt>
      <trkpt lat="42.573899" lon="1.482714">
        <ele>1492.0</ele>
        <time>2013-08-01T10:42:05Z</time>
      </trkpt>
      <trkpt lat="42.573792" lon="1.482853">
        <ele>1489.3</ele>
        <time>2013-08-01T10:42:16Z</time>
      </trkpt>
      <trkpt lat="42.573667" lon="1.483010">
        <ele>1486.6</ele>
        <time>2013-08-01T10:42:32Z</time>
      </trkpt>
      <trkpt lat="42.573490" lon="1.483177">
        <ele>1484.4</ele>
        <time>2013-08-01T10:42:46Z</time>
      </trkpt>
      <trkpt lat="42.573379" lon="1.483350">
        <ele>1483.5</ele>
        <time>2013-08-01T10:42:59Z</time>
      </trkpt>
      <trkpt lat="42.573350" lon="1.483392">
        <ele>1483.2</ele>
        <time>2013-08-01T10:43:02Z</time>
      </trkpt>
      <trkpt lat="42.573249" lon="1.483551">
        <ele>1482.2</ele>
        <time>2013-08-01T10:43:15Z</time>
      </trkpt>
      <trkpt lat="42.573218" lon="1.483584">
        <ele>1482.1</ele>
        <time>2013-08-01T10:43:19Z</time>
      </trkpt>
      <trkpt lat="42.573131" lon="1.483736">
        <ele>1484.7</ele>
        <time>2013-08-01T10:43:32Z</time>
      </trkpt>
      <trkpt lat="42.573080" lon="1.483769">
        <ele>1485.8</ele>
        <time>2013-08-01T10:43:47Z</time>
      </trkpt>
      <trkpt lat="42.573067" lon="1.483778">
        <ele>1486.0</ele>
        <time>2013-08-01T10:44:03Z</time>
      </trkpt>
      <trkpt lat="42.573068" lon="1.483781">
        <ele>1486.1</ele>
        <time>2013-08-01T10:44:19Z</time>
      </trkpt>
      <trkpt lat="42.573067" lon="1.483767">
        <ele>1485.6</ele>
        <time>2013-08-01T10:44:42Z</time>
      </trkpt>
      <trkpt lat="42.573068" lon="1.483743">
        <ele>1484.9</ele>
        <time>2013-08-01T10:44:57Z</time>
      </trkpt>
      <trkpt lat="42.573059" lon="1.483741">
        <ele>1484.8</ele>
        <time>2013-08-01T10:45:10Z</time>
      </trkpt>
      <trkpt lat="42.572999" lon="1.483766">
        <ele>1485.3</ele>
        <time>2013-08-01T10:45:16Z</time>
      </trkpt>
      <trkpt lat="42.572892" lon="1.483801">
        <ele>1485.6</ele>
        <time>2013-08-01T10:45:27Z</time>
      </trkpt>
      <trkpt lat="42.572707" lon="1.483877">
        <ele>1484.1</ele>
        <time>2013-08-01T10:45:41Z</time>
      </trkpt>
      <trkpt lat="42.572627" lon="1.483889">
        <ele>1482.6</ele>
        <time>2013-08-01T10:45:49Z</time>
      </trkpt>
      <trkpt lat="42.572661" lon="1.483757">
        <ele>1481.8</ele>
        <time>2013-08-01T10:46:02Z</time>
      </trkpt>
      <trkpt lat="42.572663" lon="1.483758">
        <ele>1481.8</ele>
        <time>2013-08-01T10:46:06Z</time>
      </trkpt>
      <trkpt lat="42.572567" lon="1.483931">
        <ele>1481.9</ele>
        <time>2013-08-01T10:46:20Z</time>
      </trkpt>
      <trkpt lat="42.572513" lon="1.483952">
        <ele>1481.3</ele>
        <time>2013-08-01T10:46:27Z</time>
      </trkpt>
      <trkpt lat="42.572451" lon="1.483941">
        <ele>1480.8</ele>
        <time>2013-08-01T10:46:32Z</time>
      </trkpt>
      <trkpt lat="42.572383" lon="1.483923">
        <ele>1480.3</ele>
        <time>2013-08-01T10:46:39Z</time>
      </trkpt>
      <trkpt lat="42.572261" lon="1.483870">
        <ele>1480.1</ele>
        <time>2013-08-01T10:46:49Z</time>
      </trkpt>
      <trkpt lat="42.572091" lon="1.483908">
        <ele>1479.0</ele>
        <time>2013-08-01T10:47:04Z</time>
      </trkpt>
      <trkpt lat="42.572057" lon="1.483979">
        <ele>1478.8</ele>
        <time>2013-08-01T10:47:08Z</time>
      </trkpt>
      <trkpt lat="42.571933" lon="1.484164">
        <ele>1476.6</ele>
        <time>2013-08-01T10:47:21Z</time>
      </trkpt>
      <trkpt lat="42.571857" lon="1.484387">
        <ele>1472.4</ele>
        <time>2013-08-01T10:47:32Z</time>
      </trkpt>
      <trkpt lat="42.571805" lon="1.484602">
        <ele>1468.8</ele>
        <time>2013-08-01T10:47:45Z</time>
      </trkpt>
      <trkpt lat="42.571757" lon="1.484782">
        <ele>1466.1</ele>
        <time>2013-08-01T10:47:59Z</time>
      </trkpt>
      <trkpt lat="42.571713" lon="1.484612">
        <ele>1466.1</ele>
        <time>2013-08-01T10:48:13Z</time>
      </trkpt>
      <trkpt lat="42.571712" lon="1.484612">
        <ele>1466.1</ele>
        <time>2013-08-01T10:48:32Z</time>
      </trkpt>
      <trkpt lat="42.571706" lon="1.484606">
        <ele>1466.0</ele>
        <time>2013-08-01T10:48:47Z</time>
      </trkpt>
      <trkpt lat="42.571678" lon="1.484422">
        <ele>1468.1</ele>
        <time>2013-08-01T10:49:12Z</time>
      </trkpt>
      <trkpt lat="42.571432" lon="1.485601">
        <ele>1460.0</ele>
        <time>2013-08-01T10:59:16Z</time>
      </trkpt>
      <trkpt lat="42.571403" lon="1.485569">
        <ele>1460.0</ele>
        <time>2013-08-01T10:59:37Z</time>
      </trkpt>
      <trkpt lat="42.571321" lon="1.485705">
        <ele>1460.0</ele>
        <time>2013-08-01T10:59:50Z</time>
      </trkpt>
      <trkpt lat="42.571280" lon="1.485798">
        <ele>1460.0</ele>
        <time>2013-08-01T11:00:00Z</time>
      </trkpt>
      <trkpt lat="42.571231" lon="1.485882">
        <ele>1460.1</ele>
        <time>2013-08-01T11:00:09Z</time>
      </trkpt>
      <trkpt lat="42.571172" lon="1.485971">
        <ele>1460.3</ele>
        <time>2013-08-01T11:00:23Z</time>
      </trkpt>
      <trkpt lat="42.571025" lon="1.486114">
        <ele>1460.0</ele>
        <time>2013-08-01T11:00:37Z</time>
      </trkpt>
      <trkpt lat="42.571009" lon="1.486182">
        <ele>1460.0</ele>
        <time>2013-08-01T11:00:43Z</time>
      </trkpt>
      <trkpt lat="42.571002" lon="1.486387">
        <ele>1459.9</ele>
        <time>2013-08-01T11:00:58Z</time>
      </trkpt>
      <trkpt lat="42.571001" lon="1.486394">
        <ele>1459.9</ele>
        <time>2013-08-01T11:00:59Z</time>
      </trkpt>
      <trkpt lat="42.570891" lon="1.486657">
        <ele>1459.1</ele>
        <time>2013-08-01T11:01:14Z</time>
      </trkpt>
      <trkpt lat="42.570762" lon="1.486836">
        <ele>1455.5</ele>
        <time>2013-08-01T11:01:28Z</time>
      </trkpt>
      <trkpt lat="42.570683" lon="1.487022">
        <ele>1454.0</ele>
        <time>2013-08-01T11:01:41Z</time>
      </trkpt>
      <trkpt lat="42.570702" lon="1.486983">
        <ele>1454.2</ele>
        <time>2013-08-01T11:01:53Z</time>
      </trkpt>
      <trkpt lat="42.570689" lon="1.487034">
        <ele>1454.3</ele>
        <time>2013-08-01T11:01:59Z</time>
      </trkpt>
      <trkpt lat="42.570666" lon="1.487118">
        <ele>1454.9</ele>
        <time>2013-08-01T11:02:06Z</time>
      </trkpt>
      <trkpt lat="42.570669" lon="1.487136">
        <ele>1455.4</ele>
        <time>2013-08-01T11:02:07Z</time>
      </trkpt>
      <trkpt lat="42.570653" lon="1.487273">
        <ele>1457.9</ele>
        <time>2013-08-01T11:02:14Z</time>
      </trkpt>
      <trkpt lat="42.570633" lon="1.487346">
        <ele>1458.8</ele>
        <time>2013-08-01T11:02:18Z</time>
      </trkpt>
      <trkpt lat="42.570564" lon="1.487557">
        <ele>1460.0</ele>
        <time>2013-08-01T11:02:31Z</time>
      </trkpt>
      <trkpt lat="42.570564" lon="1.487557">
        <ele>1460.0</ele>
        <time>2013-08-01T11:02:34Z</time>
      </trkpt>
      <trkpt lat="42.570559" lon="1.487589">
        <ele>1460.3</ele>
        <time>2013-08-01T11:02:37Z</time>
      </trkpt>
      <trkpt lat="42.570536" lon="1.487692">
        <ele>1459.9</ele>
        <time>2013-08-01T11:02:42Z</time>
      </trkpt>
      <trkpt lat="42.570436" lon="1.487929">
        <ele>1456.5</ele>
        <time>2013-08-01T11:02:57Z</time>
      </trkpt>
      <trkpt lat="42.570380" lon="1.488158">
        <ele>1455.8</ele>
        <time>2013-08-01T11:03:11Z</time>
      </trkpt>
      <trkpt lat="42.570337" lon="1.488344">
        <ele>1458.8</ele>
        <time>2013-08-01T11:03:24Z</time>
      </trkpt>
      <trkpt lat="42.570328" lon="1.488376">
        <ele>1459.4</ele>
        <time>2013-08-01T11:03:26Z</time>
      </trkpt>
      <trkpt lat="42.570294" lon="1.488436">
        <ele>1459.9</ele>
        <time>2013-08-01T11:03:32Z</time>
      </trkpt>
      <trkpt lat="42.570212" lon="1.488596">
        <ele>1462.4</ele>
        <time>2013-08-01T11:03:45Z</time>
      </trkpt>
      <trkpt lat="42.570205" lon="1.488605">
        <ele>1462.5</ele>
        <time>2013-08-01T11:03:46Z</time>
      </trkpt>
      <trkpt lat="42.570081" lon="1.488777">
        <ele>1465.6</ele>
        <time>2013-08-01T11:03:59Z</time>
      </trkpt>
      <trkpt lat="42.569983" lon="1.488891">
        <ele>1467.2</ele>
        <time>2013-08-01T11:04:11Z</time>
      </trkpt>
      <trkpt lat="42.569890" lon="1.489051">
        <ele>1468.2</ele>
        <time>2013-08-01T11:04:24Z</time>
      </trkpt>
      <trkpt lat="42.569865" lon="1.489126">
        <ele>1469.2</ele>
        <time>2013-08-01T11:04:30Z</time>
      </trkpt>
      <trkpt lat="42.569839" lon="1.489154">
        <ele>1468.9</ele>
        <time>2013-08-01T11:04:33Z</time>
      </trkpt>
      <trkpt lat="42.569820" lon="1.489209">
        <ele>1469.3</ele>
        <time>2013-08-01T11:04:37Z</time>
      </trkpt>
      <trkpt lat="42.569768" lon="1.489269">
        <ele>1468.9</ele>
        <time>2013-08-01T11:04:43Z</time>
      </trkpt>
      <trkpt lat="42.569743" lon="1.489290">
        <ele>1468.8</ele>
        <time>2013-08-01T11:04:45Z</time>
      </trkpt>
      <trkpt lat="42.569731" lon="1.489312">
        <ele>1468.9</ele>
        <time>2013-08-01T11:04:47Z</time>
      </trkpt>
      <trkpt lat="42.569715" lon="1.489328">
        <ele>1469.0</ele>
        <time>2013-08-01T11:04:49Z</time>
      </trkpt>
      <trkpt lat="42.569681" lon="1.489351">
        <ele>1468.9</ele>
        <time>2013-08-01T11:04:52Z</time>
      </trkpt>
      <trkpt lat="42.569671" lon="1.489372">
        <ele>1469.2</ele>
        <time>2013-08-01T11:04:54Z</time>
      </trkpt>
      <trkpt lat="42.569575" lon="1.489508">
        <ele>1469.5</ele>
        <time>2013-08-01T11:05:05Z</time>
      </trkpt>
      <trkpt lat="42.569567" lon="1.489529">
        <ele>1469.6</ele>
        <time>2013-08-01T11:05:07Z</time>
      </trkpt>
      <trkpt lat="42.569535" lon="1.489583">
        <ele>1469.6</ele>
        <time>2013-08-01T11:05:11Z</time>
      </trkpt>
      <trkpt lat="42.569531" lon="1.489633">
        <ele>1470.0</ele>
        <time>2013-08-01T11:05:14Z</time>
      </trkpt>
      <trkpt lat="42.569525" lon="1.489725">
        <ele>1471.3</ele>
        <time>2013-08-01T11:05:21Z</time>
      </trkpt>
      <trkpt lat="42.569509" lon="1.489789">
        <ele>1471.5</ele>
        <time>2013-08-01T11:05:26Z</time>
      </trkpt>
      <trkpt lat="42.569479" lon="1.489976">
        <ele>1473.1</ele>
        <time>2013-08-01T11:05:38Z</time>
      </trkpt>
      <trkpt lat="42.569479" lon="1.490186">
        <ele>1474.9</ele>
        <time>2013-08-01T11:05:51Z</time>
      </trkpt>
      <trkpt lat="42.569498" lon="1.490371">
        <ele>1476.6</ele>
        <time>2013-08-01T11:06:04Z</time>
      </trkpt>
      <trkpt lat="42.569503" lon="1.490432">
        <ele>1477.4</ele>
        <time>2013-08-01T11:06:08Z</time>
      </trkpt>
      <trkpt lat="42.569491" lon="1.490667">
        <ele>1482.2</ele>
        <time>2013-08-01T11:06:22Z</time>
      </trkpt>
      <trkpt lat="42.569482" lon="1.490692">
        <ele>1482.7</ele>
        <time>2013-08-01T11:06:24Z</time>
      </trkpt>
      <trkpt lat="42.569339" lon="1.490820">
        <ele>1485.2</ele>
        <time>2013-08-01T11:06:39Z</time>
      </trkpt>
      <trkpt lat="42.569297" lon="1.490839">
        <ele>1485.9</ele>
        <time>2013-08-01T11:06:43Z</time>
      </trkpt>
      <trkpt lat="42.569178" lon="1.490818">
        <ele>1486.4</ele>
        <time>2013-08-01T11:06:54Z</time>
      </trkpt>
      <trkpt lat="42.569075" lon="1.490819">
        <ele>1485.9</ele>
        <time>2013-08-01T11:07:03Z</time>
      </trkpt>
      <trkpt lat="42.569049" lon="1.490842">
        <ele>1486.3</ele>
        <time>2013-08-01T11:07:06Z</time>
      </trkpt>
      <trkpt lat="42.568961" lon="1.490858">
        <ele>1485.7</ele>
        <time>2013-08-01T11:07:13Z</time>
      </trkpt>
      <trkpt lat="42.568816" lon="1.490875">
        <ele>1484.6</ele>
        <time>2013-08-01T11:07:24Z</time>
      </trkpt>
      <trkpt lat="42.568678" lon="1.490943">
        <ele>1484.8</ele>
        <time>2013-08-01T11:07:36Z</time>
      </trkpt>
      <trkpt lat="42.568663" lon="1.490976">
        <ele>1485.5</ele>
        <time>2013-08-01T11:07:39Z</time>
      </trkpt>
      <trkpt lat="42.568594" lon="1.491026">
        <ele>1485.6</ele>
        <time>2013-08-01T11:07:47Z</time>
      </trkpt>
      <trkpt lat="42.568573" lon="1.491035">
        <ele>1485.6</ele>
        <time>2013-08-01T11:07:49Z</time>
      </trkpt>
      <trkpt lat="42.568540" lon="1.491066">
        <ele>1486.1</ele>
        <time>2013-08-01T11:07:53Z</time>
      </trkpt>
      <trkpt lat="42.568403" lon="1.491156">
        <ele>1486.4</ele>
        <time>2013-08-01T11:08:07Z</time>
      </trkpt>
      <trkpt lat="42.568338" lon="1.491195">
        <ele>1486.3</ele>
        <time>2013-08-01T11:08:14Z</time>
      </trkpt>
      <trkpt lat="42.568321" lon="1.491206">
        <ele>1486.3</ele>
        <time>2013-08-01T11:08:16Z</time>
      </trkpt>
      <trkpt lat="42.568201" lon="1.491291">
        <ele>1487.5</ele>
        <time>2013-08-01T11:08:29Z</time>
      </trkpt>
      <trkpt lat="42.568154" lon="1.491322">
        <ele>1488.3</ele>
        <time>2013-08-01T11:08:34Z</time>
      </trkpt>
      <trkpt lat="42.568115" lon="1.491346">
        <ele>1489.1</ele>
        <time>2013-08-01T11:08:38Z</time>
      </trkpt>
      <trkpt lat="42.568058" lon="1.491380">
        <ele>1490.4</ele>
        <time>2013-08-01T11:08:52Z</time>
      </trkpt>
      <trkpt lat="42.568058" lon="1.491380">
        <ele>1490.4</ele>
        <time>2013-08-01T11:09:15Z</time>
      </trkpt>
      <trkpt lat="42.568036" lon="1.491414">
        <ele>1491.7</ele>
        <time>2013-08-01T11:09:19Z</time>
      </trkpt>
      <trkpt lat="42.568027" lon="1.491458">
        <ele>1493.5</ele>
        <time>2013-08-01T11:09:23Z</time>
      </trkpt>
      <trkpt lat="42.568025" lon="1.491491">
        <ele>1494.8</ele>
        <time>2013-08-01T11:09:25Z</time>
      </trkpt>
      <trkpt lat="42.568017" lon="1.491631">
        <ele>1501.9</ele>
        <time>2013-08-01T11:09:33Z</time>
      </trkpt>
      <trkpt lat="42.568053" lon="1.491694">
        <ele>1504.6</ele>
        <time>2013-08-01T11:09:39Z</time>
      </trkpt>
      <trkpt lat="42.568192" lon="1.491716">
        <ele>1503.8</ele>
        <time>2013-08-01T11:09:54Z</time>
      </trkpt>
      <trkpt lat="42.568412" lon="1.491642">
        <ele>1502.1</ele>
        <time>2013-08-01T11:10:09Z</time>
      </trkpt>
      <trkpt lat="42.568555" lon="1.491603">
        <ele>1501.8</ele>
        <time>2013-08-01T11:10:21Z</time>
      </trkpt>
      <trkpt lat="42.568632" lon="1.491599">
        <ele>1503.3</ele>
        <time>2013-08-01T11:10:27Z</time>
      </trkpt>
      <trkpt lat="42.568757" lon="1.491563">
        <ele>1506.0</ele>
        <time>2013-08-01T11:10:38Z</time>
      </trkpt>
      <trkpt lat="42.568808" lon="1.491496">
        <ele>1505.3</ele>
        <time>2013-08-01T11:10:45Z</time>
      </trkpt>
      <trkpt lat="42.568863" lon="1.491465">
        <ele>1505.9</ele>
        <time>2013-08-01T11:10:49Z</time>
      </trkpt>
      <trkpt lat="42.568958" lon="1.491439">
        <ele>1506.5</ele>
        <time>2013-08-01T11:10:56Z</time>
      </trkpt>
      <trkpt lat="42.569136" lon="1.491421">
        <ele>1507.4</ele>
        <time>2013-08-01T11:11:12Z</time>
      </trkpt>
      <trkpt lat="42.569295" lon="1.491443">
        <ele>1507.0</ele>
        <time>2013-08-01T11:11:25Z</time>
      </trkpt>
      <trkpt lat="42.569314" lon="1.491458">
        <ele>1507.2</ele>
        <time>2013-08-01T11:11:28Z</time>
      </trkpt>
      <trkpt lat="42.569458" lon="1.491541">
        <ele>1507.7</ele>
        <time>2013-08-01T11:11:42Z</time>
      </trkpt>
      <trkpt lat="42.569517" lon="1.491623">
        <ele>1510.2</ele>
        <time>2013-08-01T11:11:50Z</time>
      </trkpt>
      <trkpt lat="42.569635" lon="1.491743">
        <ele>1513.8</ele>
        <time>2013-08-01T11:12:03Z</time>
      </trkpt>
      <trkpt lat="42.569660" lon="1.491788">
        <ele>1515.5</ele>
        <time>2013-08-01T11:12:07Z</time>
      </trkpt>
      <trkpt lat="42.569772" lon="1.491935">
        <ele>1520.1</ele>
        <time>2013-08-01T11:12:21Z</time>
      </trkpt>
      <trkpt lat="42.569840" lon="1.492014">
        <ele>1522.6</ele>
        <time>2013-08-01T11:12:28Z</time>
      </trkpt>
      <trkpt lat="42.569901" lon="1.492014">
        <ele>1521.6</ele>
        <time>2013-08-01T11:12:33Z</time>
      </trkpt>
      <trkpt lat="42.570028" lon="1.492062">
        <ele>1521.2</ele>
        <time>2013-08-01T11:12:45Z</time>
      </trkpt>
      <trkpt lat="42.570128" lon="1.492059">
        <ele>1520.8</ele>
        <time>2013-08-01T11:12:54Z</time>
      </trkpt>
      <trkpt lat="42.570149" lon="1.492026">
        <ele>1520.3</ele>
        <time>2013-08-01T11:12:56Z</time>
      </trkpt>
      <trkpt lat="42.570163" lon="1.491970">
        <ele>1519.4</ele>
        <time>2013-08-01T11:12:59Z</time>
      </trkpt>
      <trkpt lat="42.570210" lon="1.491762">
        <ele>1517.2</ele>
        <time>2013-08-01T11:13:12Z</time>
      </trkpt>
      <trkpt lat="42.570261" lon="1.491666">
        <ele>1517.2</ele>
        <time>2013-08-01T11:13:18Z</time>
      </trkpt>
      <trkpt lat="42.570301" lon="1.491569">
        <ele>1517.8</ele>
        <time>2013-08-01T11:13:25Z</time>
      </trkpt>
      <trkpt lat="42.570305" lon="1.491521">
        <ele>1517.8</ele>
        <time>2013-08-01T11:13:28Z</time>
      </trkpt>
      <trkpt lat="42.570334" lon="1.491335">
        <ele>1519.0</ele>
        <time>2013-08-01T11:13:40Z</time>
      </trkpt>
      <trkpt lat="42.570383" lon="1.491233">
        <ele>1521.9</ele>
        <time>2013-08-01T11:13:47Z</time>
      </trkpt>
      <trkpt lat="42.570363" lon="1.491052">
        <ele>1520.9</ele>
        <time>2013-08-01T11:13:59Z</time>
      </trkpt>
      <trkpt lat="42.570361" lon="1.490868">
        <ele>1519.4</ele>
        <time>2013-08-01T11:14:12Z</time>
      </trkpt>
      <trkpt lat="42.570423" lon="1.490810">
        <ele>1522.7</ele>
        <time>2013-08-01T11:14:19Z</time>
      </trkpt>
      <trkpt lat="42.570481" lon="1.490821">
        <ele>1526.8</ele>
        <time>2013-08-01T11:14:25Z</time>
      </trkpt>
      <trkpt lat="42.570473" lon="1.490885">
        <ele>1527.4</ele>
        <time>2013-08-01T11:14:30Z</time>
      </trkpt>
      <trkpt lat="42.570454" lon="1.491091">
        <ele>1527.5</ele>
        <time>2013-08-01T11:14:44Z</time>
      </trkpt>
      <trkpt lat="42.570451" lon="1.491241">
        <ele>1527.0</ele>
        <time>2013-08-01T11:14:55Z</time>
      </trkpt>
      <trkpt lat="42.570441" lon="1.491434">
        <ele>1525.8</ele>
        <time>2013-08-01T11:15:07Z</time>
      </trkpt>
      <trkpt lat="42.570442" lon="1.491496">
        <ele>1525.5</ele>
        <time>2013-08-01T11:15:11Z</time>
      </trkpt>
      <trkpt lat="42.570478" lon="1.491699">
        <ele>1528.2</ele>
        <time>2013-08-01T11:15:24Z</time>
      </trkpt>
      <trkpt lat="42.570480" lon="1.491730">
        <ele>1528.4</ele>
        <time>2013-08-01T11:15:26Z</time>
      </trkpt>
      <trkpt lat="42.570493" lon="1.491786">
        <ele>1529.3</ele>
        <time>2013-08-01T11:15:30Z</time>
      </trkpt>
      <trkpt lat="42.570497" lon="1.491820">
        <ele>1529.4</ele>
        <time>2013-08-01T11:15:32Z</time>
      </trkpt>
      <trkpt lat="42.570543" lon="1.492018">
        <ele>1531.6</ele>
        <time>2013-08-01T11:15:45Z</time>
      </trkpt>
      <trkpt lat="42.570563" lon="1.492108">
        <ele>1532.7</ele>
        <time>2013-08-01T11:15:52Z</time>
      </trkpt>
      <trkpt lat="42.570581" lon="1.492198">
        <ele>1534.5</ele>
        <time>2013-08-01T11:15:58Z</time>
      </trkpt>
      <trkpt lat="42.570607" lon="1.492271">
        <ele>1536.7</ele>
        <time>2013-08-01T11:16:04Z</time>
      </trkpt>
      <trkpt lat="42.570623" lon="1.492339">
        <ele>1538.2</ele>
        <time>2013-08-01T11:16:09Z</time>
      </trkpt>
      <trkpt lat="42.570642" lon="1.492499">
        <ele>1540.5</ele>
        <time>2013-08-01T11:16:19Z</time>
      </trkpt>
      <trkpt lat="42.570748" lon="1.492609">
        <ele>1544.6</ele>
        <time>2013-08-01T11:16:33Z</time>
      </trkpt>
      <trkpt lat="42.570831" lon="1.492703">
        <ele>1548.0</ele>
        <time>2013-08-01T11:16:47Z</time>
      </trkpt>
      <trkpt lat="42.570851" lon="1.492715">
        <ele>1549.1</ele>
        <time>2013-08-01T11:16:50Z</time>
      </trkpt>
      <trkpt lat="42.570914" lon="1.492763">
        <ele>1552.7</ele>
        <time>2013-08-01T11:17:01Z</time>
      </trkpt>
      <trkpt lat="42.570988" lon="1.492787">
        <ele>1556.0</ele>
        <time>2013-08-01T11:17:13Z</time>
      </trkpt>
      <trkpt lat="42.571033" lon="1.492827">
        <ele>1559.4</ele>
        <time>2013-08-01T11:17:24Z</time>
      </trkpt>
      <trkpt lat="42.571101" lon="1.492861">
        <ele>1563.2</ele>
        <time>2013-08-01T11:17:36Z</time>
      </trkpt>
      <trkpt lat="42.571105" lon="1.492864">
        <ele>1563.4</ele>
        <time>2013-08-01T11:17:49Z</time>
      </trkpt>
      <trkpt lat="42.571125" lon="1.492891">
        <ele>1564.9</ele>
        <time>2013-08-01T11:18:00Z</time>
      </trkpt>
      <trkpt lat="42.571125" lon="1.492891">
        <ele>1564.9</ele>
        <time>2013-08-01T11:18:14Z</time>
      </trkpt>
      <trkpt lat="42.571182" lon="1.492911">
        <ele>1566.7</ele>
        <time>2013-08-01T11:18:27Z</time>
      </trkpt>
      <trkpt lat="42.571266" lon="1.492909">
        <ele>1567.4</ele>
        <time>2013-08-01T11:18:41Z</time>
      </trkpt>
      <trkpt lat="42.571335" lon="1.492953">
        <ele>1570.0</ele>
        <time>2013-08-01T11:18:52Z</time>
      </trkpt>
      <trkpt lat="42.571391" lon="1.492993">
        <ele>1572.5</ele>
        <time>2013-08-01T11:19:04Z</time>
      </trkpt>
      <trkpt lat="42.571434" lon="1.493034">
        <ele>1575.6</ele>
        <time>2013-08-01T11:19:19Z</time>
      </trkpt>
      <trkpt lat="42.571571" lon="1.493060">
        <ele>1581.6</ele>
        <time>2013-08-01T11:19:36Z</time>
      </trkpt>
      <trkpt lat="42.571624" lon="1.493080">
        <ele>1583.0</ele>
        <time>2013-08-01T11:19:52Z</time>
      </trkpt>
      <trkpt lat="42.571664" lon="1.493093">
        <ele>1583.9</ele>
        <time>2013-08-01T11:20:06Z</time>
      </trkpt>
      <trkpt lat="42.571747" lon="1.493169">
        <ele>1586.0</ele>
        <time>2013-08-01T11:20:18Z</time>
      </trkpt>
      <trkpt lat="42.571787" lon="1.493230">
        <ele>1587.9</ele>
        <time>2013-08-01T11:20:32Z</time>
      </trkpt>
      <trkpt lat="42.571821" lon="1.493279">
        <ele>1589.6</ele>
        <time>2013-08-01T11:20:46Z</time>
      </trkpt>
      <trkpt lat="42.571862" lon="1.493310">
        <ele>1590.8</ele>
        <time>2013-08-01T11:21:00Z</time>
      </trkpt>
      <trkpt lat="42.571903" lon="1.493353">
        <ele>1592.4</ele>
        <time>2013-08-01T11:21:17Z</time>
      </trkpt>
      <trkpt lat="42.571931" lon="1.493373">
        <ele>1593.2</ele>
        <time>2013-08-01T11:21:31Z</time>
      </trkpt>
      <trkpt lat="42.571980" lon="1.493423">
        <ele>1595.9</ele>
        <time>2013-08-01T11:21:43Z</time>
      </trkpt>
      <trkpt lat="42.572044" lon="1.493499">
        <ele>1599.0</ele>
        <time>2013-08-01T11:22:01Z</time>
      </trkpt>
      <trkpt lat="42.572101" lon="1.493591">
        <ele>1601.6</ele>
        <time>2013-08-01T11:22:14Z</time>
      </trkpt>
      <trkpt lat="42.572127" lon="1.493679">
        <ele>1604.3</ele>
        <time>2013-08-01T11:22:27Z</time>
      </trkpt>
      <trkpt lat="42.572200" lon="1.493777">
        <ele>1606.1</ele>
        <time>2013-08-01T11:22:42Z</time>
      </trkpt>
      <trkpt lat="42.572227" lon="1.493821">
        <ele>1606.6</ele>
        <time>2013-08-01T11:22:46Z</time>
      </trkpt>
      <trkpt lat="42.572277" lon="1.493942">
        <ele>1609.1</ele>
        <time>2013-08-01T11:22:57Z</time>
      </trkpt>
      <trkpt lat="42.572302" lon="1.493980">
        <ele>1609.8</ele>
        <time>2013-08-01T11:23:09Z</time>
      </trkpt>
      <trkpt lat="42.572319" lon="1.494007">
        <ele>1610.6</ele>
        <time>2013-08-01T11:23:21Z</time>
      </trkpt>
      <trkpt lat="42.572374" lon="1.494052">
        <ele>1611.2</ele>
        <time>2013-08-01T11:23:33Z</time>
      </trkpt>
      <trkpt lat="42.572430" lon="1.494175">
        <ele>1614.5</ele>
        <time>2013-08-01T11:23:44Z</time>
      </trkpt>
      <trkpt lat="42.572485" lon="1.494247">
        <ele>1615.5</ele>
        <time>2013-08-01T11:23:56Z</time>
      </trkpt>
      <trkpt lat="42.572513" lon="1.494290">
        <ele>1617.6</ele>
        <time>2013-08-01T11:24:06Z</time>
      </trkpt>
      <trkpt lat="42.572516" lon="1.494347">
        <ele>1619.6</ele>
        <time>2013-08-01T11:24:19Z</time>
      </trkpt>
      <trkpt lat="42.572523" lon="1.494409">
        <ele>1621.9</ele>
        <time>2013-08-01T11:24:31Z</time>
      </trkpt>
      <trkpt lat="42.572525" lon="1.494433">
        <ele>1622.8</ele>
        <time>2013-08-01T11:24:42Z</time>
      </trkpt>
      <trkpt lat="42.572527" lon="1.494439">
        <ele>1623.1</ele>
        <time>2013-08-01T11:24:54Z</time>
      </trkpt>
      <trkpt lat="42.572525" lon="1.494433">
        <ele>1622.8</ele>
        <time>2013-08-01T11:25:08Z</time>
      </trkpt>
      <trkpt lat="42.572544" lon="1.494442">
        <ele>1623.6</ele>
        <time>2013-08-01T11:25:21Z</time>
      </trkpt>
      <trkpt lat="42.572466" lon="1.494602">
        <ele>1630.4</ele>
        <time>2013-08-01T11:25:33Z</time>
      </trkpt>
      <trkpt lat="42.572461" lon="1.494602">
        <ele>1630.6</ele>
        <time>2013-08-01T11:25:46Z</time>
      </trkpt>
      <trkpt lat="42.572461" lon="1.494602">
        <ele>1630.6</ele>
        <time>2013-08-01T11:26:00Z</time>
      </trkpt>
      <trkpt lat="42.572458" lon="1.494601">
        <ele>1630.6</ele>
        <time>2013-08-01T11:26:18Z</time>
      </trkpt>
      <trkpt lat="42.572301" lon="1.494631">
        <ele>1638.5</ele>
        <time>2013-08-01T11:49:28Z</time>
      </trkpt>
      <trkpt lat="42.572208" lon="1.494624">
        <ele>1643.5</ele>
        <time>2013-08-01T11:49:49Z</time>
      </trkpt>
      <trkpt lat="42.572131" lon="1.494611">
        <ele>1647.1</ele>
        <time>2013-08-01T11:50:00Z</time>
      </trkpt>
      <trkpt lat="42.572127" lon="1.494602">
        <ele>1646.9</ele>
        <time>2013-08-01T11:50:02Z</time>
      </trkpt>
      <trkpt lat="42.572071" lon="1.494546">
        <ele>1646.9</ele>
        <time>2013-08-01T11:50:13Z</time>
      </trkpt>
      <trkpt lat="42.571986" lon="1.494474">
        <ele>1647.2</ele>
        <time>2013-08-01T11:50:26Z</time>
      </trkpt>
      <trkpt lat="42.571921" lon="1.494447">
        <ele>1648.4</ele>
        <time>2013-08-01T11:50:36Z</time>
      </trkpt>
      <trkpt lat="42.571860" lon="1.494371">
        <ele>1646.8</ele>
        <time>2013-08-01T11:50:49Z</time>
      </trkpt>
      <trkpt lat="42.571822" lon="1.494401">
        <ele>1649.6</ele>
        <time>2013-08-01T11:51:01Z</time>
      </trkpt>
      <trkpt lat="42.571830" lon="1.494476">
        <ele>1653.3</ele>
        <time>2013-08-01T11:51:12Z</time>
      </trkpt>
      <trkpt lat="42.571828" lon="1.494609">
        <ele>1660.2</ele>
        <time>2013-08-01T11:51:23Z</time>
      </trkpt>
      <trkpt lat="42.571844" lon="1.494735">
        <ele>1666.0</ele>
        <time>2013-08-01T11:51:38Z</time>
      </trkpt>
      <trkpt lat="42.571855" lon="1.494745">
        <ele>1666.0</ele>
        <time>2013-08-01T11:51:51Z</time>
      </trkpt>
      <trkpt lat="42.571830" lon="1.494742">
        <ele>1666.8</ele>
        <time>2013-08-01T11:52:05Z</time>
      </trkpt>
      <trkpt lat="42.571806" lon="1.494787">
        <ele>1669.6</ele>
        <time>2013-08-01T11:52:16Z</time>
      </trkpt>
      <trkpt lat="42.571808" lon="1.494929">
        <ele>1676.6</ele>
        <time>2013-08-01T11:52:33Z</time>
      </trkpt>
      <trkpt lat="42.571800" lon="1.494998">
        <ele>1680.2</ele>
        <time>2013-08-01T11:52:47Z</time>
      </trkpt>
      <trkpt lat="42.571807" lon="1.495020">
        <ele>1681.0</ele>
        <time>2013-08-01T11:53:02Z</time>
      </trkpt>
      <trkpt lat="42.571808" lon="1.495173">
        <ele>1687.3</ele>
        <time>2013-08-01T11:53:19Z</time>
      </trkpt>
      <trkpt lat="42.571857" lon="1.495355">
        <ele>1692.8</ele>
        <time>2013-08-01T11:53:35Z</time>
      </trkpt>
      <trkpt lat="42.571888" lon="1.495401">
        <ele>1693.9</ele>
        <time>2013-08-01T11:53:50Z</time>
      </trkpt>
      <trkpt lat="42.571924" lon="1.495438">
        <ele>1694.6</ele>
        <time>2013-08-01T11:53:56Z</time>
      </trkpt>
      <trkpt lat="42.572010" lon="1.495543">
        <ele>1695.4</ele>
        <time>2013-08-01T11:54:09Z</time>
      </trkpt>
      <trkpt lat="42.572035" lon="1.495651">
        <ele>1698.7</ele>
        <time>2013-08-01T11:54:22Z</time>
      </trkpt>
      <trkpt lat="42.572071" lon="1.495714">
        <ele>1699.9</ele>
        <time>2013-08-01T11:54:34Z</time>
      </trkpt>
      <trkpt lat="42.572158" lon="1.495764">
        <ele>1699.0</ele>
        <time>2013-08-01T11:54:47Z</time>
      </trkpt>
      <trkpt lat="42.572200" lon="1.495872">
        <ele>1702.5</ele>
        <time>2013-08-01T11:55:00Z</time>
      </trkpt>
      <trkpt lat="42.572247" lon="1.495922">
        <ele>1703.9</ele>
        <time>2013-08-01T11:55:11Z</time>
      </trkpt>
      <trkpt lat="42.572278" lon="1.496044">
        <ele>1708.5</ele>
        <time>2013-08-01T11:55:26Z</time>
      </trkpt>
      <trkpt lat="42.572336" lon="1.496102">
        <ele>1710.4</ele>
        <time>2013-08-01T11:55:37Z</time>
      </trkpt>
      <trkpt lat="42.572384" lon="1.496268">
        <ele>1717.3</ele>
        <time>2013-08-01T11:55:51Z</time>
      </trkpt>
      <trkpt lat="42.572437" lon="1.496383">
        <ele>1721.9</ele>
        <time>2013-08-01T11:56:04Z</time>
      </trkpt>
      <trkpt lat="42.572467" lon="1.496466">
        <ele>1725.2</ele>
        <time>2013-08-01T11:56:20Z</time>
      </trkpt>
      <trkpt lat="42.572466" lon="1.496500">
        <ele>1726.6</ele>
        <time>2013-08-01T11:56:34Z</time>
      </trkpt>
      <trkpt lat="42.572447" lon="1.496507">
        <ele>1727.0</ele>
        <time>2013-08-01T11:56:48Z</time>
      </trkpt>
      <trkpt lat="42.572431" lon="1.496613">
        <ele>1731.7</ele>
        <time>2013-08-01T11:57:03Z</time>
      </trkpt>
      <trkpt lat="42.572464" lon="1.496722">
        <ele>1736.6</ele>
        <time>2013-08-01T11:57:19Z</time>
      </trkpt>
      <trkpt lat="42.572507" lon="1.496816">
        <ele>1740.2</ele>
        <time>2013-08-01T11:57:34Z</time>
      </trkpt>
      <trkpt lat="42.572551" lon="1.496872">
        <ele>1741.8</ele>
        <time>2013-08-01T11:57:46Z</time>
      </trkpt>
      <trkpt lat="42.572602" lon="1.496903">
        <ele>1742.0</ele>
        <time>2013-08-01T11:58:01Z</time>
      </trkpt>
      <trkpt lat="42.572646" lon="1.496935">
        <ele>1742.2</ele>
        <time>2013-08-01T11:58:17Z</time>
      </trkpt>
      <trkpt lat="42.572666" lon="1.496976">
        <ele>1743.4</ele>
        <time>2013-08-01T11:58:28Z</time>
      </trkpt>
      <trkpt lat="42.572646" lon="1.497017">
        <ele>1745.5</ele>
        <time>2013-08-01T11:58:41Z</time>
      </trkpt>
      <trkpt lat="42.572702" lon="1.497107">
        <ele>1747.8</ele>
        <time>2013-08-01T11:58:53Z</time>
      </trkpt>
      <trkpt lat="42.572754" lon="1.497154">
        <ele>1748.4</ele>
        <time>2013-08-01T11:59:06Z</time>
      </trkpt>
      <trkpt lat="42.572811" lon="1.497214">
        <ele>1750.0</ele>
        <time>2013-08-01T11:59:12Z</time>
      </trkpt>
      <trkpt lat="42.572867" lon="1.497254">
        <ele>1751.4</ele>
        <time>2013-08-01T11:59:23Z</time>
      </trkpt>
      <trkpt lat="42.572944" lon="1.497269">
        <ele>1752.0</ele>
        <time>2013-08-01T11:59:36Z</time>
      </trkpt>
      <trkpt lat="42.572989" lon="1.497330">
        <ele>1755.4</ele>
        <time>2013-08-01T11:59:48Z</time>
      </trkpt>
      <trkpt lat="42.572962" lon="1.497375">
        <ele>1757.9</ele>
        <time>2013-08-01T11:59:58Z</time>
      </trkpt>
      <trkpt lat="42.572935" lon="1.497373">
        <ele>1757.9</ele>
        <time>2013-08-01T12:00:11Z</time>
      </trkpt>
      <trkpt lat="42.572956" lon="1.497429">
        <ele>1761.0</ele>
        <time>2013-08-01T12:00:23Z</time>
      </trkpt>
      <trkpt lat="42.572995" lon="1.497444">
        <ele>1761.9</ele>
        <time>2013-08-01T12:00:28Z</time>
      </trkpt>
      <trkpt lat="42.573047" lon="1.497525">
        <ele>1766.6</ele>
        <time>2013-08-01T12:00:42Z</time>
      </trkpt>
      <trkpt lat="42.573042" lon="1.497540">
        <ele>1767.5</ele>
        <time>2013-08-01T12:00:54Z</time>
      </trkpt>
      <trkpt lat="42.573014" lon="1.497569">
        <ele>1769.2</ele>
        <time>2013-08-01T12:01:04Z</time>
      </trkpt>
      <trkpt lat="42.573029" lon="1.497607">
        <ele>1771.3</ele>
        <time>2013-08-01T12:01:19Z</time>
      </trkpt>
      <trkpt lat="42.573087" lon="1.497657">
        <ele>1774.2</ele>
        <time>2013-08-01T12:01:31Z</time>
      </trkpt>
      <trkpt lat="42.573173" lon="1.497717">
        <ele>1776.8</ele>
        <time>2013-08-01T12:01:42Z</time>
      </trkpt>
      <trkpt lat="42.573242" lon="1.497802">
        <ele>1780.1</ele>
        <time>2013-08-01T12:01:54Z</time>
      </trkpt>
      <trkpt lat="42.573284" lon="1.497851">
        <ele>1782.3</ele>
        <time>2013-08-01T12:02:06Z</time>
      </trkpt>
      <trkpt lat="42.573346" lon="1.497815">
        <ele>1780.9</ele>
        <time>2013-08-01T12:02:21Z</time>
      </trkpt>
      <trkpt lat="42.573429" lon="1.497754">
        <ele>1780.4</ele>
        <time>2013-08-01T12:02:36Z</time>
      </trkpt>
      <trkpt lat="42.573482" lon="1.497728">
        <ele>1782.8</ele>
        <time>2013-08-01T12:02:49Z</time>
      </trkpt>
      <trkpt lat="42.573482" lon="1.497728">
        <ele>1782.8</ele>
        <time>2013-08-01T12:03:08Z</time>
      </trkpt>
      <trkpt lat="42.573472" lon="1.497774">
        <ele>1784.1</ele>
        <time>2013-08-01T12:03:22Z</time>
      </trkpt>
      <trkpt lat="42.573463" lon="1.497815">
        <ele>1785.4</ele>
        <time>2013-08-01T12:03:34Z</time>
      </trkpt>
      <trkpt lat="42.573480" lon="1.497835">
        <ele>1787.4</ele>
        <time>2013-08-01T12:04:01Z</time>
      </trkpt>
      <trkpt lat="42.573494" lon="1.497840">
        <ele>1788.6</ele>
        <time>2013-08-01T12:04:18Z</time>
      </trkpt>
      <trkpt lat="42.573494" lon="1.497840">
        <ele>1788.6</ele>
        <time>2013-08-01T12:04:40Z</time>
      </trkpt>
      <trkpt lat="42.573497" lon="1.497842">
        <ele>1788.8</ele>
        <time>2013-08-01T12:05:08Z</time>
      </trkpt>
      <trkpt lat="42.573509" lon="1.497860">
        <ele>1790.4</ele>
        <time>2013-08-01T12:05:36Z</time>
      </trkpt>
      <trkpt lat="42.573512" lon="1.497868">
        <ele>1790.9</ele>
        <time>2013-08-01T12:06:02Z</time>
      </trkpt>
      <trkpt lat="42.573534" lon="1.497883">
        <ele>1792.7</ele>
        <time>2013-08-01T12:06:24Z</time>
      </trkpt>
      <trkpt lat="42.573563" lon="1.497909">
        <ele>1795.2</ele>
        <time>2013-08-01T12:06:38Z</time>
      </trkpt>
      <trkpt lat="42.573561" lon="1.497926">
        <ele>1795.7</ele>
        <time>2013-08-01T12:06:55Z</time>
      </trkpt>
      <trkpt lat="42.573553" lon="1.497963">
        <ele>1796.8</ele>
        <time>2013-08-01T12:07:13Z</time>
      </trkpt>
      <trkpt lat="42.573532" lon="1.498015">
        <ele>1797.8</ele>
        <time>2013-08-01T12:07:30Z</time>
      </trkpt>
      <trkpt lat="42.573472" lon="1.498141">
        <ele>1799.8</ele>
        <time>2013-08-01T12:07:45Z</time>
      </trkpt>
      <trkpt lat="42.573461" lon="1.498234">
        <ele>1803.5</ele>
        <time>2013-08-01T12:07:57Z</time>
      </trkpt>
      <trkpt lat="42.573452" lon="1.498358">
        <ele>1808.8</ele>
        <time>2013-08-01T12:08:09Z</time>
      </trkpt>
      <trkpt lat="42.573479" lon="1.498428">
        <ele>1813.3</ele>
        <time>2013-08-01T12:08:20Z</time>
      </trkpt>
      <trkpt lat="42.573478" lon="1.498456">
        <ele>1814.8</ele>
        <time>2013-08-01T12:08:34Z</time>
      </trkpt>
      <trkpt lat="42.573531" lon="1.498437">
        <ele>1815.6</ele>
        <time>2013-08-01T12:08:48Z</time>
      </trkpt>
      <trkpt lat="42.573586" lon="1.498405">
        <ele>1816.1</ele>
        <time>2013-08-01T12:09:04Z</time>
      </trkpt>
      <trkpt lat="42.573649" lon="1.498377">
        <ele>1817.2</ele>
        <time>2013-08-01T12:09:15Z</time>
      </trkpt>
      <trkpt lat="42.573750" lon="1.498370">
        <ele>1821.1</ele>
        <time>2013-08-01T12:09:27Z</time>
      </trkpt>
      <trkpt lat="42.573792" lon="1.498315">
        <ele>1820.5</ele>
        <time>2013-08-01T12:09:41Z</time>
      </trkpt>
      <trkpt lat="42.573848" lon="1.498283">
        <ele>1821.6</ele>
        <time>2013-08-01T12:09:54Z</time>
      </trkpt>
      <trkpt lat="42.573890" lon="1.498291">
        <ele>1823.8</ele>
        <time>2013-08-01T12:10:06Z</time>
      </trkpt>
      <trkpt lat="42.573938" lon="1.498304">
        <ele>1826.5</ele>
        <time>2013-08-01T12:10:12Z</time>
      </trkpt>
      <trkpt lat="42.574000" lon="1.498293">
        <ele>1828.5</ele>
        <time>2013-08-01T12:10:23Z</time>
      </trkpt>
      <trkpt lat="42.574155" lon="1.498210">
        <ele>1830.2</ele>
        <time>2013-08-01T12:10:36Z</time>
      </trkpt>
      <trkpt lat="42.574222" lon="1.498175">
        <ele>1830.8</ele>
        <time>2013-08-01T12:10:47Z</time>
      </trkpt>
      <trkpt lat="42.574300" lon="1.498126">
        <ele>1831.9</ele>
        <time>2013-08-01T12:11:00Z</time>
      </trkpt>
      <trkpt lat="42.574393" lon="1.498063">
        <ele>1833.7</ele>
        <time>2013-08-01T12:11:13Z</time>
      </trkpt>
      <trkpt lat="42.574488" lon="1.497997">
        <ele>1835.2</ele>
        <time>2013-08-01T12:11:25Z</time>
      </trkpt>
      <trkpt lat="42.574518" lon="1.497958">
        <ele>1834.6</ele>
        <time>2013-08-01T12:11:35Z</time>
      </trkpt>
      <trkpt lat="42.574559" lon="1.497969">
        <ele>1837.1</ele>
        <time>2013-08-01T12:11:40Z</time>
      </trkpt>
      <trkpt lat="42.574662" lon="1.497945">
        <ele>1840.1</ele>
        <time>2013-08-01T12:11:53Z</time>
      </trkpt>
      <trkpt lat="42.574747" lon="1.497955">
        <ele>1843.7</ele>
        <time>2013-08-01T12:12:06Z</time>
      </trkpt>
      <trkpt lat="42.574821" lon="1.497956">
        <ele>1846.6</ele>
        <time>2013-08-01T12:12:20Z</time>
      </trkpt>
      <trkpt lat="42.574861" lon="1.497956">
        <ele>1848.1</ele>
        <time>2013-08-01T12:12:31Z</time>
      </trkpt>
      <trkpt lat="42.574889" lon="1.497953">
        <ele>1849.0</ele>
        <time>2013-08-01T12:12:43Z</time>
      </trkpt>
      <trkpt lat="42.574921" lon="1.497949">
        <ele>1850.0</ele>
        <time>2013-08-01T12:13:00Z</time>
      </trkpt>
      <trkpt lat="42.574942" lon="1.497988">
        <ele>1852.5</ele>
        <time>2013-08-01T12:13:14Z</time>
      </trkpt>
      <trkpt lat="42.574951" lon="1.498060">
        <ele>1855.7</ele>
        <time>2013-08-01T12:13:25Z</time>
      </trkpt>
      <trkpt lat="42.574957" lon="1.498157">
        <ele>1859.3</ele>
        <time>2013-08-01T12:13:37Z</time>
      </trkpt>
      <trkpt lat="42.574981" lon="1.498220">
        <ele>1862.1</ele>
        <time>2013-08-01T12:13:49Z</time>
      </trkpt>
      <trkpt lat="42.574978" lon="1.498260">
        <ele>1863.7</ele>
        <time>2013-08-01T12:14:02Z</time>
      </trkpt>
      <trkpt lat="42.574992" lon="1.498312">
        <ele>1865.7</ele>
        <time>2013-08-01T12:14:14Z</time>
      </trkpt>
      <trkpt lat="42.574988" lon="1.498329">
        <ele>1866.3</ele>
        <time>2013-08-01T12:14:18Z</time>
      </trkpt>
      <trkpt lat="42.574993" lon="1.498344">
        <ele>1866.9</ele>
        <time>2013-08-01T12:14:21Z</time>
      </trkpt>
      <trkpt lat="42.575026" lon="1.498365">
        <ele>1867.9</ele>
        <time>2013-08-01T12:14:33Z</time>
      </trkpt>
      <trkpt lat="42.575111" lon="1.498359">
        <ele>1869.1</ele>
        <time>2013-08-01T12:14:46Z</time>
      </trkpt>
      <trkpt lat="42.575161" lon="1.498360">
        <ele>1870.4</ele>
        <time>2013-08-01T12:14:58Z</time>
      </trkpt>
      <trkpt lat="42.575195" lon="1.498350">
        <ele>1871.6</ele>
        <time>2013-08-01T12:15:08Z</time>
      </trkpt>
      <trkpt lat="42.575199" lon="1.498355">
        <ele>1872.0</ele>
        <time>2013-08-01T12:15:23Z</time>
      </trkpt>
      <trkpt lat="42.575197" lon="1.498382">
        <ele>1872.8</ele>
        <time>2013-08-01T12:15:38Z</time>
      </trkpt>
      <trkpt lat="42.575165" lon="1.498511">
        <ele>1876.2</ele>
        <time>2013-08-01T12:15:56Z</time>
      </trkpt>
      <trkpt lat="42.575131" lon="1.498622">
        <ele>1880.5</ele>
        <time>2013-08-01T12:16:11Z</time>
      </trkpt>
      <trkpt lat="42.575116" lon="1.498768">
        <ele>1886.9</ele>
        <time>2013-08-01T12:16:25Z</time>
      </trkpt>
      <trkpt lat="42.575109" lon="1.498810">
        <ele>1888.7</ele>
        <time>2013-08-01T12:16:39Z</time>
      </trkpt>
      <trkpt lat="42.575086" lon="1.498830">
        <ele>1889.2</ele>
        <time>2013-08-01T12:16:59Z</time>
      </trkpt>
      <trkpt lat="42.575080" lon="1.498875">
        <ele>1891.1</ele>
        <time>2013-08-01T12:17:15Z</time>
      </trkpt>
      <trkpt lat="42.575110" lon="1.498971">
        <ele>1895.7</ele>
        <time>2013-08-01T12:17:26Z</time>
      </trkpt>
      <trkpt lat="42.575138" lon="1.499031">
        <ele>1898.8</ele>
        <time>2013-08-01T12:17:40Z</time>
      </trkpt>
      <trkpt lat="42.575149" lon="1.499065">
        <ele>1900.5</ele>
        <time>2013-08-01T12:17:51Z</time>
      </trkpt>
      <trkpt lat="42.575156" lon="1.499074">
        <ele>1901.1</ele>
        <time>2013-08-01T12:18:03Z</time>
      </trkpt>
      <trkpt lat="42.575141" lon="1.499098">
        <ele>1901.8</ele>
        <time>2013-08-01T12:18:16Z</time>
      </trkpt>
      <trkpt lat="42.575141" lon="1.499098">
        <ele>1901.8</ele>
        <time>2013-08-01T12:18:35Z</time>
      </trkpt>
      <trkpt lat="42.575140" lon="1.499106">
        <ele>1902.0</ele>
        <time>2013-08-01T12:19:02Z</time>
      </trkpt>
      <trkpt lat="42.575102" lon="1.499119">
        <ele>1901.8</ele>
        <time>2013-08-01T12:19:24Z</time>
      </trkpt>
      <trkpt lat="42.575145" lon="1.499137">
        <ele>1903.3</ele>
        <time>2013-08-01T12:19:48Z</time>
      </trkpt>
      <trkpt lat="42.575164" lon="1.499121">
        <ele>1903.0</ele>
        <time>2013-08-01T12:20:08Z</time>
      </trkpt>
      <trkpt lat="42.575183" lon="1.499141">
        <ele>1904.2</ele>
        <time>2013-08-01T12:20:29Z</time>
      </trkpt>
      <trkpt lat="42.575173" lon="1.499154">
        <ele>1904.4</ele>
        <time>2013-08-01T12:20:50Z</time>
      </trkpt>
      <trkpt lat="42.575214" lon="1.499176">
        <ele>1906.2</ele>
        <time>2013-08-01T12:21:04Z</time>
      </trkpt>
      <trkpt lat="42.575237" lon="1.499198">
        <ele>1907.5</ele>
        <time>2013-08-01T12:21:16Z</time>
      </trkpt>
      <trkpt lat="42.575303" lon="1.499235">
        <ele>1910.5</ele>
        <time>2013-08-01T12:21:28Z</time>
      </trkpt>
      <trkpt lat="42.575337" lon="1.499265">
        <ele>1912.5</ele>
        <time>2013-08-01T12:21:37Z</time>
      </trkpt>
      <trkpt lat="42.575326" lon="1.499326">
        <ele>1914.5</ele>
        <time>2013-08-01T12:21:52Z</time>
      </trkpt>
      <trkpt lat="42.575328" lon="1.499372">
        <ele>1916.3</ele>
        <time>2013-08-01T12:22:07Z</time>
      </trkpt>
      <trkpt lat="42.575338" lon="1.499393">
        <ele>1917.3</ele>
        <time>2013-08-01T12:22:22Z</time>
      </trkpt>
      <trkpt lat="42.575343" lon="1.499429">
        <ele>1918.7</ele>
        <time>2013-08-01T12:22:38Z</time>
      </trkpt>
      <trkpt lat="42.575325" lon="1.499518">
        <ele>1921.6</ele>
        <time>2013-08-01T12:22:56Z</time>
      </trkpt>
      <trkpt lat="42.575326" lon="1.499563">
        <ele>1923.3</ele>
        <time>2013-08-01T12:23:10Z</time>
      </trkpt>
      <trkpt lat="42.575331" lon="1.499594">
        <ele>1924.7</ele>
        <time>2013-08-01T12:23:27Z</time>
      </trkpt>
      <trkpt lat="42.575376" lon="1.499680">
        <ele>1929.2</ele>
        <time>2013-08-01T12:23:38Z</time>
      </trkpt>
      <trkpt lat="42.575397" lon="1.499716">
        <ele>1931.1</ele>
        <time>2013-08-01T12:23:50Z</time>
      </trkpt>
      <trkpt lat="42.575464" lon="1.499724">
        <ele>1933.0</ele>
        <time>2013-08-01T12:24:02Z</time>
      </trkpt>
      <trkpt lat="42.575588" lon="1.499692">
        <ele>1935.7</ele>
        <time>2013-08-01T12:24:15Z</time>
      </trkpt>
      <trkpt lat="42.575623" lon="1.499705">
        <ele>1937.6</ele>
        <time>2013-08-01T12:24:27Z</time>
      </trkpt>
      <trkpt lat="42.575640" lon="1.499725">
        <ele>1938.9</ele>
        <time>2013-08-01T12:24:40Z</time>
      </trkpt>
      <trkpt lat="42.575676" lon="1.499783">
        <ele>1942.1</ele>
        <time>2013-08-01T12:24:54Z</time>
      </trkpt>
      <trkpt lat="42.575667" lon="1.499858">
        <ele>1943.9</ele>
        <time>2013-08-01T12:25:07Z</time>
      </trkpt>
      <trkpt lat="42.575695" lon="1.499929">
        <ele>1947.0</ele>
        <time>2013-08-01T12:25:18Z</time>
      </trkpt>
      <trkpt lat="42.575727" lon="1.499975">
        <ele>1949.6</ele>
        <time>2013-08-01T12:25:29Z</time>
      </trkpt>
      <trkpt lat="42.575802" lon="1.499989">
        <ele>1952.9</ele>
        <time>2013-08-01T12:25:39Z</time>
      </trkpt>
      <trkpt lat="42.575826" lon="1.499994">
        <ele>1953.9</ele>
        <time>2013-08-01T12:25:53Z</time>
      </trkpt>
      <trkpt lat="42.575859" lon="1.500039">
        <ele>1955.7</ele>
        <time>2013-08-01T12:26:02Z</time>
      </trkpt>
      <trkpt lat="42.575921" lon="1.500056">
        <ele>1957.7</ele>
        <time>2013-08-01T12:26:15Z</time>
      </trkpt>
      <trkpt lat="42.575960" lon="1.500121">
        <ele>1959.0</ele>
        <time>2013-08-01T12:26:27Z</time>
      </trkpt>
      <trkpt lat="42.575986" lon="1.500206">
        <ele>1959.7</ele>
        <time>2013-08-01T12:26:37Z</time>
      </trkpt>
      <trkpt lat="42.576013" lon="1.500310">
        <ele>1959.8</ele>
        <time>2013-08-01T12:26:46Z</time>
      </trkpt>
      <trkpt lat="42.576024" lon="1.500376">
        <ele>1959.8</ele>
        <time>2013-08-01T12:26:53Z</time>
      </trkpt>
      <trkpt lat="42.575997" lon="1.500404">
        <ele>1959.8</ele>
        <time>2013-08-01T12:27:06Z</time>
      </trkpt>
      <trkpt lat="42.576008" lon="1.500427">
        <ele>1959.8</ele>
        <time>2013-08-01T12:27:22Z</time>
      </trkpt>
      <trkpt lat="42.576051" lon="1.500477">
        <ele>1959.7</ele>
        <time>2013-08-01T12:27:30Z</time>
      </trkpt>
      <trkpt lat="42.576077" lon="1.500527">
        <ele>1959.5</ele>
        <time>2013-08-01T12:27:35Z</time>
      </trkpt>
      <trkpt lat="42.576146" lon="1.500565">
        <ele>1958.4</ele>
        <time>2013-08-01T12:27:45Z</time>
      </trkpt>
      <trkpt lat="42.576278" lon="1.500704">
        <ele>1954.0</ele>
        <time>2013-08-01T12:44:02Z</time>
      </trkpt>
      <trkpt lat="42.576399" lon="1.500764">
        <ele>1950.4</ele>
        <time>2013-08-01T12:44:16Z</time>
      </trkpt>
      <trkpt lat="42.576438" lon="1.500787">
        <ele>1949.4</ele>
        <time>2013-08-01T12:44:25Z</time>
      </trkpt>
      <trkpt lat="42.576435" lon="1.500787">
        <ele>1949.4</ele>
        <time>2013-08-01T12:44:52Z</time>
      </trkpt>
      <trkpt lat="42.576439" lon="1.500787">
        <ele>1949.4</ele>
        <time>2013-08-01T12:45:13Z</time>
      </trkpt>
      <trkpt lat="42.576472" lon="1.500807">
        <ele>1948.4</ele>
        <time>2013-08-01T12:45:32Z</time>
      </trkpt>
      <trkpt lat="42.576508" lon="1.500820">
        <ele>1947.2</ele>
        <time>2013-08-01T12:45:36Z</time>
      </trkpt>
      <trkpt lat="42.576591" lon="1.500829">
        <ele>1945.2</ele>
        <time>2013-08-01T12:45:43Z</time>
      </trkpt>
      <trkpt lat="42.576626" lon="1.500854">
        <ele>1943.9</ele>
        <time>2013-08-01T12:45:47Z</time>
      </trkpt>
      <trkpt lat="42.576635" lon="1.501004">
        <ele>1939.5</ele>
        <time>2013-08-01T12:46:01Z</time>
      </trkpt>
      <trkpt lat="42.576631" lon="1.501014">
        <ele>1939.4</ele>
        <time>2013-08-01T12:46:02Z</time>
      </trkpt>
      <trkpt lat="42.576599" lon="1.501154">
        <ele>1936.6</ele>
        <time>2013-08-01T12:46:14Z</time>
      </trkpt>
      <trkpt lat="42.576619" lon="1.501235">
        <ele>1934.4</ele>
        <time>2013-08-01T12:46:23Z</time>
      </trkpt>
      <trkpt lat="42.576637" lon="1.501264">
        <ele>1933.3</ele>
        <time>2013-08-01T12:46:27Z</time>
      </trkpt>
      <trkpt lat="42.576675" lon="1.501310">
        <ele>1931.4</ele>
        <time>2013-08-01T12:46:33Z</time>
      </trkpt>
      <trkpt lat="42.576754" lon="1.501406">
        <ele>1927.4</ele>
        <time>2013-08-01T12:46:47Z</time>
      </trkpt>
      <trkpt lat="42.576762" lon="1.501453">
        <ele>1926.1</ele>
        <time>2013-08-01T12:46:50Z</time>
      </trkpt>
      <trkpt lat="42.576766" lon="1.501488">
        <ele>1925.1</ele>
        <time>2013-08-01T12:46:52Z</time>
      </trkpt>
      <trkpt lat="42.576790" lon="1.501578">
        <ele>1922.6</ele>
        <time>2013-08-01T12:46:59Z</time>
      </trkpt>
      <trkpt lat="42.576797" lon="1.501632">
        <ele>1921.3</ele>
        <time>2013-08-01T12:47:03Z</time>
      </trkpt>
      <trkpt lat="42.576801" lon="1.501664">
        <ele>1920.4</ele>
        <time>2013-08-01T12:47:08Z</time>
      </trkpt>
      <trkpt lat="42.576904" lon="1.501735">
        <ele>1915.6</ele>
        <time>2013-08-01T12:47:21Z</time>
      </trkpt>
      <trkpt lat="42.576905" lon="1.501800">
        <ele>1914.0</ele>
        <time>2013-08-01T12:47:31Z</time>
      </trkpt>
      <trkpt lat="42.576887" lon="1.501866">
        <ele>1913.1</ele>
        <time>2013-08-01T12:47:35Z</time>
      </trkpt>
      <trkpt lat="42.576882" lon="1.501878">
        <ele>1913.0</ele>
        <time>2013-08-01T12:47:36Z</time>
      </trkpt>
      <trkpt lat="42.576818" lon="1.502102">
        <ele>1910.1</ele>
        <time>2013-08-01T12:47:51Z</time>
      </trkpt>
      <trkpt lat="42.576791" lon="1.502270">
        <ele>1907.7</ele>
        <time>2013-08-01T12:48:04Z</time>
      </trkpt>
      <trkpt lat="42.576791" lon="1.502296">
        <ele>1907.3</ele>
        <time>2013-08-01T12:48:06Z</time>
      </trkpt>
      <trkpt lat="42.576791" lon="1.502367">
        <ele>1905.8</ele>
        <time>2013-08-01T12:48:13Z</time>
      </trkpt>
      <trkpt lat="42.576796" lon="1.502413">
        <ele>1904.4</ele>
        <time>2013-08-01T12:48:17Z</time>
      </trkpt>
      <trkpt lat="42.576843" lon="1.502549">
        <ele>1899.8</ele>
        <time>2013-08-01T12:48:30Z</time>
      </trkpt>
      <trkpt lat="42.576853" lon="1.502680">
        <ele>1897.2</ele>
        <time>2013-08-01T12:48:41Z</time>
      </trkpt>
      <trkpt lat="42.576832" lon="1.502855">
        <ele>1895.3</ele>
        <time>2013-08-01T12:48:56Z</time>
      </trkpt>
      <trkpt lat="42.576826" lon="1.502957">
        <ele>1893.0</ele>
        <time>2013-08-01T12:49:09Z</time>
      </trkpt>
      <trkpt lat="42.576831" lon="1.503079">
        <ele>1889.6</ele>
        <time>2013-08-01T12:49:16Z</time>
      </trkpt>
      <trkpt lat="42.576844" lon="1.503142">
        <ele>1887.3</ele>
        <time>2013-08-01T12:49:20Z</time>
      </trkpt>
      <trkpt lat="42.576841" lon="1.503161">
        <ele>1887.0</ele>
        <time>2013-08-01T12:49:21Z</time>
      </trkpt>
      <trkpt lat="42.576807" lon="1.503363">
        <ele>1883.4</ele>
        <time>2013-08-01T12:49:34Z</time>
      </trkpt>
      <trkpt lat="42.576785" lon="1.503576">
        <ele>1878.8</ele>
        <time>2013-08-01T12:49:49Z</time>
      </trkpt>
      <trkpt lat="42.576773" lon="1.503733">
        <ele>1876.8</ele>
        <time>2013-08-01T12:50:05Z</time>
      </trkpt>
      <trkpt lat="42.576784" lon="1.503907">
        <ele>1872.5</ele>
        <time>2013-08-01T12:50:18Z</time>
      </trkpt>
      <trkpt lat="42.576786" lon="1.503928">
        <ele>1872.2</ele>
        <time>2013-08-01T12:50:19Z</time>
      </trkpt>
      <trkpt lat="42.576813" lon="1.504025">
        <ele>1869.2</ele>
        <time>2013-08-01T12:50:25Z</time>
      </trkpt>
      <trkpt lat="42.576825" lon="1.504148">
        <ele>1865.9</ele>
        <time>2013-08-01T12:50:36Z</time>
      </trkpt>
      <trkpt lat="42.576837" lon="1.504252">
        <ele>1863.2</ele>
        <time>2013-08-01T12:50:51Z</time>
      </trkpt>
      <trkpt lat="42.576809" lon="1.504489">
        <ele>1860.6</ele>
        <time>2013-08-01T12:51:04Z</time>
      </trkpt>
      <trkpt lat="42.576840" lon="1.504602">
        <ele>1856.6</ele>
        <time>2013-08-01T12:51:13Z</time>
      </trkpt>
      <trkpt lat="42.576838" lon="1.504643">
        <ele>1856.0</ele>
        <time>2013-08-01T12:51:16Z</time>
      </trkpt>
      <trkpt lat="42.576843" lon="1.504801">
        <ele>1851.6</ele>
        <time>2013-08-01T12:51:29Z</time>
      </trkpt>
      <trkpt lat="42.576890" lon="1.504782">
        <ele>1849.4</ele>
        <time>2013-08-01T12:51:39Z</time>
      </trkpt>
      <trkpt lat="42.576892" lon="1.504882">
        <ele>1846.7</ele>
        <time>2013-08-01T12:51:52Z</time>
      </trkpt>
      <trkpt lat="42.576896" lon="1.504960">
        <ele>1844.5</ele>
        <time>2013-08-01T12:51:59Z</time>
      </trkpt>
      <trkpt lat="42.576883" lon="1.505012">
        <ele>1843.9</ele>
        <time>2013-08-01T12:52:04Z</time>
      </trkpt>
      <trkpt lat="42.576878" lon="1.505105">
        <ele>1841.4</ele>
        <time>2013-08-01T12:52:18Z</time>
      </trkpt>
      <trkpt lat="42.576847" lon="1.505268">
        <ele>1838.5</ele>
        <time>2013-08-01T12:52:33Z</time>
      </trkpt>
      <trkpt lat="42.576785" lon="1.505414">
        <ele>1837.8</ele>
        <time>2013-08-01T12:52:45Z</time>
      </trkpt>
      <trkpt lat="42.576775" lon="1.505482">
        <ele>1836.3</ele>
        <time>2013-08-01T12:52:58Z</time>
      </trkpt>
      <trkpt lat="42.576806" lon="1.505608">
        <ele>1830.1</ele>
        <time>2013-08-01T12:53:05Z</time>
      </trkpt>
      <trkpt lat="42.576782" lon="1.505668">
        <ele>1829.2</ele>
        <time>2013-08-01T12:53:10Z</time>
      </trkpt>
      <trkpt lat="42.576730" lon="1.505786">
        <ele>1827.8</ele>
        <time>2013-08-01T12:53:23Z</time>
      </trkpt>
      <trkpt lat="42.576659" lon="1.506026">
        <ele>1823.6</ele>
        <time>2013-08-01T12:53:40Z</time>
      </trkpt>
      <trkpt lat="42.576654" lon="1.506105">
        <ele>1821.2</ele>
        <time>2013-08-01T12:53:49Z</time>
      </trkpt>
      <trkpt lat="42.576657" lon="1.506165">
        <ele>1819.0</ele>
        <time>2013-08-01T12:53:53Z</time>
      </trkpt>
      <trkpt lat="42.576656" lon="1.506324">
        <ele>1813.6</ele>
        <time>2013-08-01T12:54:07Z</time>
      </trkpt>
      <trkpt lat="42.576607" lon="1.506435">
        <ele>1812.0</ele>
        <time>2013-08-01T12:54:15Z</time>
      </trkpt>
      <trkpt lat="42.576653" lon="1.506453">
        <ele>1809.5</ele>
        <time>2013-08-01T12:54:28Z</time>
      </trkpt>
      <trkpt lat="42.576687" lon="1.506466">
        <ele>1807.6</ele>
        <time>2013-08-01T12:54:35Z</time>
      </trkpt>
      <trkpt lat="42.576702" lon="1.506513">
        <ele>1805.3</ele>
        <time>2013-08-01T12:54:40Z</time>
      </trkpt>
      <trkpt lat="42.576748" lon="1.506661">
        <ele>1798.5</ele>
        <time>2013-08-01T12:54:55Z</time>
      </trkpt>
      <trkpt lat="42.576882" lon="1.506695">
        <ele>1791.5</ele>
        <time>2013-08-01T12:55:09Z</time>
      </trkpt>
      <trkpt lat="42.576932" lon="1.506748">
        <ele>1787.5</ele>
        <time>2013-08-01T12:55:21Z</time>
      </trkpt>
      <trkpt lat="42.576947" lon="1.506756">
        <ele>1786.6</ele>
        <time>2013-08-01T12:55:22Z</time>
      </trkpt>
      <trkpt lat="42.577013" lon="1.506735">
        <ele>1784.5</ele>
        <time>2013-08-01T12:55:32Z</time>
      </trkpt>
      <trkpt lat="42.577127" lon="1.506670">
        <ele>1782.2</ele>
        <time>2013-08-01T12:55:44Z</time>
      </trkpt>
      <trkpt lat="42.577220" lon="1.506662">
        <ele>1779.7</ele>
        <time>2013-08-01T12:55:58Z</time>
      </trkpt>
      <trkpt lat="42.577285" lon="1.506682">
        <ele>1777.1</ele>
        <time>2013-08-01T12:56:05Z</time>
      </trkpt>
      <trkpt lat="42.577325" lon="1.506692">
        <ele>1775.4</ele>
        <time>2013-08-01T12:56:09Z</time>
      </trkpt>
      <trkpt lat="42.577451" lon="1.506674">
        <ele>1772.2</ele>
        <time>2013-08-01T12:56:24Z</time>
      </trkpt>
      <trkpt lat="42.577580" lon="1.506635">
        <ele>1769.3</ele>
        <time>2013-08-01T12:56:37Z</time>
      </trkpt>
      <trkpt lat="42.577682" lon="1.506605">
        <ele>1766.8</ele>
        <time>2013-08-01T12:56:48Z</time>
      </trkpt>
      <trkpt lat="42.577707" lon="1.506591">
        <ele>1766.1</ele>
        <time>2013-08-01T12:57:01Z</time>
      </trkpt>
      <trkpt lat="42.577722" lon="1.506598">
        <ele>1765.3</ele>
        <time>2013-08-01T12:57:13Z</time>
      </trkpt>
      <trkpt lat="42.577739" lon="1.506604">
        <ele>1764.5</ele>
        <time>2013-08-01T12:57:27Z</time>
      </trkpt>
      <trkpt lat="42.577790" lon="1.506599">
        <ele>1762.6</ele>
        <time>2013-08-01T12:57:45Z</time>
      </trkpt>
      <trkpt lat="42.577892" lon="1.506542">
        <ele>1759.7</ele>
        <time>2013-08-01T12:57:56Z</time>
      </trkpt>
      <trkpt lat="42.577976" lon="1.506559">
        <ele>1755.6</ele>
        <time>2013-08-01T12:58:10Z</time>
      </trkpt>
      <trkpt lat="42.577989" lon="1.506593">
        <ele>1754.3</ele>
        <time>2013-08-01T12:58:15Z</time>
      </trkpt>
      <trkpt lat="42.578002" lon="1.506641">
        <ele>1752.6</ele>
        <time>2013-08-01T12:58:19Z</time>
      </trkpt>
      <trkpt lat="42.577994" lon="1.506784">
        <ele>1749.5</ele>
        <time>2013-08-01T12:58:30Z</time>
      </trkpt>
      <trkpt lat="42.578019" lon="1.506904">
        <ele>1745.4</ele>
        <time>2013-08-01T12:58:43Z</time>
      </trkpt>
      <trkpt lat="42.578050" lon="1.506948">
        <ele>1742.8</ele>
        <time>2013-08-01T12:58:57Z</time>
      </trkpt>
      <trkpt lat="42.578106" lon="1.506969">
        <ele>1739.7</ele>
        <time>2013-08-01T12:59:09Z</time>
      </trkpt>
      <trkpt lat="42.578106" lon="1.506994">
        <ele>1738.6</ele>
        <time>2013-08-01T12:59:15Z</time>
      </trkpt>
      <trkpt lat="42.578097" lon="1.507011">
        <ele>1738.2</ele>
        <time>2013-08-01T12:59:19Z</time>
      </trkpt>
      <trkpt lat="42.578081" lon="1.507085">
        <ele>1735.7</ele>
        <time>2013-08-01T12:59:34Z</time>
      </trkpt>
      <trkpt lat="42.578153" lon="1.507169">
        <ele>1730.4</ele>
        <time>2013-08-01T12:59:49Z</time>
      </trkpt>
      <trkpt lat="42.578174" lon="1.507217">
        <ele>1728.3</ele>
        <time>2013-08-01T13:00:01Z</time>
      </trkpt>
      <trkpt lat="42.578180" lon="1.507249">
        <ele>1726.9</ele>
        <time>2013-08-01T13:00:06Z</time>
      </trkpt>
      <trkpt lat="42.578161" lon="1.507296">
        <ele>1725.3</ele>
        <time>2013-08-01T13:00:11Z</time>
      </trkpt>
      <trkpt lat="42.578071" lon="1.507471">
        <ele>1720.5</ele>
        <time>2013-08-01T13:00:26Z</time>
      </trkpt>
      <trkpt lat="42.577993" lon="1.507672">
        <ele>1714.2</ele>
        <time>2013-08-01T13:00:40Z</time>
      </trkpt>
      <trkpt lat="42.577982" lon="1.507723">
        <ele>1712.1</ele>
        <time>2013-08-01T13:00:52Z</time>
      </trkpt>
      <trkpt lat="42.577972" lon="1.507750">
        <ele>1711.1</ele>
        <time>2013-08-01T13:01:03Z</time>
      </trkpt>
      <trkpt lat="42.577962" lon="1.507754">
        <ele>1711.3</ele>
        <time>2013-08-01T13:01:07Z</time>
      </trkpt>
      <trkpt lat="42.577949" lon="1.507767">
        <ele>1711.1</ele>
        <time>2013-08-01T13:01:10Z</time>
      </trkpt>
      <trkpt lat="42.577832" lon="1.507879">
        <ele>1710.4</ele>
        <time>2013-08-01T13:01:24Z</time>
      </trkpt>
      <trkpt lat="42.577698" lon="1.508058">
        <ele>1707.4</ele>
        <time>2013-08-01T13:01:38Z</time>
      </trkpt>
      <trkpt lat="42.577620" lon="1.508176">
        <ele>1704.5</ele>
        <time>2013-08-01T13:01:48Z</time>
      </trkpt>
      <trkpt lat="42.577490" lon="1.508362">
        <ele>1700.5</ele>
        <time>2013-08-01T13:02:03Z</time>
      </trkpt>
      <trkpt lat="42.577459" lon="1.508441">
        <ele>1698.1</ele>
        <time>2013-08-01T13:02:10Z</time>
      </trkpt>
      <trkpt lat="42.577578" lon="1.508482">
        <ele>1692.0</ele>
        <time>2013-08-01T13:02:25Z</time>
      </trkpt>
      <trkpt lat="42.577594" lon="1.508492">
        <ele>1691.0</ele>
        <time>2013-08-01T13:02:29Z</time>
      </trkpt>
      <trkpt lat="42.577713" lon="1.508493">
        <ele>1686.4</ele>
        <time>2013-08-01T13:02:45Z</time>
      </trkpt>
      <trkpt lat="42.577813" lon="1.508481">
        <ele>1684.4</ele>
        <time>2013-08-01T13:02:56Z</time>
      </trkpt>
      <trkpt lat="42.577849" lon="1.508473">
        <ele>1684.3</ele>
        <time>2013-08-01T13:03:08Z</time>
      </trkpt>
      <trkpt lat="42.577886" lon="1.508476">
        <ele>1684.6</ele>
        <time>2013-08-01T13:03:19Z</time>
      </trkpt>
      <trkpt lat="42.577905" lon="1.508535">
        <ele>1682.8</ele>
        <time>2013-08-01T13:03:31Z</time>
      </trkpt>
      <trkpt lat="42.577967" lon="1.508653">
        <ele>1680.6</ele>
        <time>2013-08-01T13:03:41Z</time>
      </trkpt>
      <trkpt lat="42.578015" lon="1.508866">
        <ele>1674.4</ele>
        <time>2013-08-01T13:03:54Z</time>
      </trkpt>
      <trkpt lat="42.578001" lon="1.508981">
        <ele>1669.7</ele>
        <time>2013-08-01T13:04:04Z</time>
      </trkpt>
      <trkpt lat="42.578005" lon="1.509014">
        <ele>1668.7</ele>
        <time>2013-08-01T13:04:08Z</time>
      </trkpt>
      <trkpt lat="42.577985" lon="1.509130">
        <ele>1663.8</ele>
        <time>2013-08-01T13:04:21Z</time>
      </trkpt>
      <trkpt lat="42.578014" lon="1.509319">
        <ele>1658.3</ele>
        <time>2013-08-01T13:04:34Z</time>
      </trkpt>
      <trkpt lat="42.578045" lon="1.509441">
        <ele>1656.3</ele>
        <time>2013-08-01T13:04:44Z</time>
      </trkpt>
      <trkpt lat="42.578057" lon="1.509503">
        <ele>1655.3</ele>
        <time>2013-08-01T13:04:49Z</time>
      </trkpt>
      <trkpt lat="42.578081" lon="1.509683">
        <ele>1651.7</ele>
        <time>2013-08-01T13:05:03Z</time>
      </trkpt>
      <trkpt lat="42.578084" lon="1.509774">
        <ele>1649.3</ele>
        <time>2013-08-01T13:05:11Z</time>
      </trkpt>
      <trkpt lat="42.578095" lon="1.509856">
        <ele>1647.4</ele>
        <time>2013-08-01T13:05:15Z</time>
      </trkpt>
      <trkpt lat="42.578121" lon="1.509993">
        <ele>1644.7</ele>
        <time>2013-08-01T13:05:27Z</time>
      </trkpt>
      <trkpt lat="42.578131" lon="1.510018">
        <ele>1644.5</ele>
        <time>2013-08-01T13:05:33Z</time>
      </trkpt>
      <trkpt lat="42.578154" lon="1.510090">
        <ele>1643.8</ele>
        <time>2013-08-01T13:05:36Z</time>
      </trkpt>
      <trkpt lat="42.578217" lon="1.510333">
        <ele>1639.2</ele>
        <time>2013-08-01T13:05:51Z</time>
      </trkpt>
      <trkpt lat="42.578272" lon="1.510470">
        <ele>1636.8</ele>
        <time>2013-08-01T13:06:04Z</time>
      </trkpt>
      <trkpt lat="42.578298" lon="1.510530">
        <ele>1635.9</ele>
        <time>2013-08-01T13:06:09Z</time>
      </trkpt>
      <trkpt lat="42.578353" lon="1.510677">
        <ele>1633.3</ele>
        <time>2013-08-01T13:06:21Z</time>
      </trkpt>
      <trkpt lat="42.578399" lon="1.510823">
        <ele>1630.8</ele>
        <time>2013-08-01T13:06:35Z</time>
      </trkpt>
      <trkpt lat="42.578435" lon="1.510966">
        <ele>1628.1</ele>
        <time>2013-08-01T13:06:47Z</time>
      </trkpt>
      <trkpt lat="42.578457" lon="1.511084">
        <ele>1625.2</ele>
        <time>2013-08-01T13:06:58Z</time>
      </trkpt>
      <trkpt lat="42.578457" lon="1.511084">
        <ele>1625.2</ele>
        <time>2013-08-01T13:07:01Z</time>
      </trkpt>
      <trkpt lat="42.578476" lon="1.511156">
        <ele>1624.1</ele>
        <time>2013-08-01T13:07:06Z</time>
      </trkpt>
      <trkpt lat="42.578487" lon="1.511334">
        <ele>1618.0</ele>
        <time>2013-08-01T13:07:19Z</time>
      </trkpt>
      <trkpt lat="42.578511" lon="1.511538">
        <ele>1612.0</ele>
        <time>2013-08-01T13:07:32Z</time>
      </trkpt>
      <trkpt lat="42.578509" lon="1.511579">
        <ele>1610.5</ele>
        <time>2013-08-01T13:07:38Z</time>
      </trkpt>
      <trkpt lat="42.578505" lon="1.511608">
        <ele>1609.4</ele>
        <time>2013-08-01T13:07:42Z</time>
      </trkpt>
      <trkpt lat="42.578526" lon="1.511716">
        <ele>1607.6</ele>
        <time>2013-08-01T13:07:57Z</time>
      </trkpt>
      <trkpt lat="42.578511" lon="1.511834">
        <ele>1603.1</ele>
        <time>2013-08-01T13:08:11Z</time>
      </trkpt>
      <trkpt lat="42.578512" lon="1.511874">
        <ele>1601.9</ele>
        <time>2013-08-01T13:08:16Z</time>
      </trkpt>
      <trkpt lat="42.578502" lon="1.511910">
        <ele>1600.3</ele>
        <time>2013-08-01T13:08:20Z</time>
      </trkpt>
      <trkpt lat="42.578484" lon="1.512027">
        <ele>1595.6</ele>
        <time>2013-08-01T13:08:33Z</time>
      </trkpt>
      <trkpt lat="42.578520" lon="1.512154">
        <ele>1592.3</ele>
        <time>2013-08-01T13:08:45Z</time>
      </trkpt>
      <trkpt lat="42.578598" lon="1.512226">
        <ele>1591.8</ele>
        <time>2013-08-01T13:08:58Z</time>
      </trkpt>
      <trkpt lat="42.578616" lon="1.512297">
        <ele>1589.6</ele>
        <time>2013-08-01T13:09:08Z</time>
      </trkpt>
      <trkpt lat="42.578630" lon="1.512313">
        <ele>1589.2</ele>
        <time>2013-08-01T13:09:11Z</time>
      </trkpt>
      <trkpt lat="42.578649" lon="1.512320">
        <ele>1589.3</ele>
        <time>2013-08-01T13:09:14Z</time>
      </trkpt>
      <trkpt lat="42.578700" lon="1.512394">
        <ele>1586.5</ele>
        <time>2013-08-01T13:09:26Z</time>
      </trkpt>
      <trkpt lat="42.578773" lon="1.512478">
        <ele>1582.4</ele>
        <time>2013-08-01T13:09:43Z</time>
      </trkpt>
      <trkpt lat="42.578799" lon="1.512505">
        <ele>1581.1</ele>
        <time>2013-08-01T13:09:56Z</time>
      </trkpt>
      <trkpt lat="42.578901" lon="1.512630">
        <ele>1575.0</ele>
        <time>2013-08-01T13:10:08Z</time>
      </trkpt>
      <trkpt lat="42.578930" lon="1.512670">
        <ele>1572.8</ele>
        <time>2013-08-01T13:10:13Z</time>
      </trkpt>
      <trkpt lat="42.578975" lon="1.512724">
        <ele>1570.3</ele>
        <time>2013-08-01T13:10:20Z</time>
      </trkpt>
      <trkpt lat="42.579011" lon="1.512766">
        <ele>1568.8</ele>
        <time>2013-08-01T13:10:32Z</time>
      </trkpt>
      <trkpt lat="42.579074" lon="1.512847">
        <ele>1566.1</ele>
        <time>2013-08-01T13:10:45Z</time>
      </trkpt>
      <trkpt lat="42.579133" lon="1.512926">
        <ele>1563.3</ele>
        <time>2013-08-01T13:10:57Z</time>
      </trkpt>
      <trkpt lat="42.579166" lon="1.513011">
        <ele>1559.6</ele>
        <time>2013-08-01T13:11:07Z</time>
      </trkpt>
      <trkpt lat="42.579190" lon="1.513038">
        <ele>1559.0</ele>
        <time>2013-08-01T13:11:11Z</time>
      </trkpt>
      <trkpt lat="42.579244" lon="1.513166">
        <ele>1554.0</ele>
        <time>2013-08-01T13:11:24Z</time>
      </trkpt>
      <trkpt lat="42.579334" lon="1.513276">
        <ele>1551.4</ele>
        <time>2013-08-01T13:11:38Z</time>
      </trkpt>
      <trkpt lat="42.579398" lon="1.513397">
        <ele>1546.9</ele>
        <time>2013-08-01T13:11:49Z</time>
      </trkpt>
      <trkpt lat="42.579419" lon="1.513446">
        <ele>1544.6</ele>
        <time>2013-08-01T13:12:03Z</time>
      </trkpt>
      <trkpt lat="42.579492" lon="1.513530">
        <ele>1540.8</ele>
        <time>2013-08-01T13:12:16Z</time>
      </trkpt>
      <trkpt lat="42.579574" lon="1.513586">
        <ele>1538.6</ele>
        <time>2013-08-01T13:12:27Z</time>
      </trkpt>
      <trkpt lat="42.579639" lon="1.513665">
        <ele>1534.7</ele>
        <time>2013-08-01T13:12:39Z</time>
      </trkpt>
      <trkpt lat="42.579685" lon="1.513696">
        <ele>1533.3</ele>
        <time>2013-08-01T13:12:50Z</time>
      </trkpt>
      <trkpt lat="42.579748" lon="1.513736">
        <ele>1532.7</ele>
        <time>2013-08-01T13:13:02Z</time>
      </trkpt>
      <trkpt lat="42.579773" lon="1.513749">
        <ele>1532.8</ele>
        <time>2013-08-01T13:13:08Z</time>
      </trkpt>
      <trkpt lat="42.579788" lon="1.513757">
        <ele>1532.8</ele>
        <time>2013-08-01T13:13:10Z</time>
      </trkpt>
      <trkpt lat="42.579859" lon="1.513840">
        <ele>1528.6</ele>
        <time>2013-08-01T13:13:21Z</time>
      </trkpt>
      <trkpt lat="42.579899" lon="1.513884">
        <ele>1526.4</ele>
        <time>2013-08-01T13:13:36Z</time>
      </trkpt>
      <trkpt lat="42.579916" lon="1.513890">
        <ele>1526.0</ele>
        <time>2013-08-01T13:13:49Z</time>
      </trkpt>
      <trkpt lat="42.579951" lon="1.513912">
        <ele>1524.8</ele>
        <time>2013-08-01T13:13:54Z</time>
      </trkpt>
      <trkpt lat="42.580076" lon="1.513877">
        <ele>1525.6</ele>
        <time>2013-08-01T13:14:07Z</time>
      </trkpt>
      <trkpt lat="42.580200" lon="1.513776">
        <ele>1521.8</ele>
        <time>2013-08-01T13:14:21Z</time>
      </trkpt>
      <trkpt lat="42.580275" lon="1.513732">
        <ele>1517.6</ele>
        <time>2013-08-01T13:14:29Z</time>
      </trkpt>
      <trkpt lat="42.580273" lon="1.513686">
        <ele>1519.5</ele>
        <time>2013-08-01T13:14:37Z</time>
      </trkpt>
      <trkpt lat="42.580322" lon="1.513528">
        <ele>1521.4</ele>
        <time>2013-08-01T13:14:47Z</time>
      </trkpt>
      <trkpt lat="42.580326" lon="1.513513">
        <ele>1521.6</ele>
        <time>2013-08-01T13:14:48Z</time>
      </trkpt>
      <trkpt lat="42.580345" lon="1.513457">
        <ele>1522.3</ele>
        <time>2013-08-01T13:15:01Z</time>
      </trkpt>
      <trkpt lat="42.580572" lon="1.513355">
        <ele>1513.2</ele>
        <time>2013-08-01T13:15:13Z</time>
      </trkpt>
      <trkpt lat="42.580597" lon="1.513378">
        <ele>1511.8</ele>
        <time>2013-08-01T13:15:17Z</time>
      </trkpt>
      <trkpt lat="42.580668" lon="1.513456">
        <ele>1507.2</ele>
        <time>2013-08-01T13:15:26Z</time>
      </trkpt>
      <trkpt lat="42.580797" lon="1.513530">
        <ele>1502.2</ele>
        <time>2013-08-01T13:15:40Z</time>
      </trkpt>
      <trkpt lat="42.580797" lon="1.513556">
        <ele>1500.5</ele>
        <time>2013-08-01T13:15:45Z</time>
      </trkpt>
      <trkpt lat="42.580789" lon="1.513561">
        <ele>1500.2</ele>
        <time>2013-08-01T13:15:46Z</time>
      </trkpt>
      <trkpt lat="42.580773" lon="1.513569">
        <ele>1499.7</ele>
        <time>2013-08-01T13:15:48Z</time>
      </trkpt>
      <trkpt lat="42.580686" lon="1.513591">
        <ele>1499.1</ele>
        <time>2013-08-01T13:16:01Z</time>
      </trkpt>
      <trkpt lat="42.580768" lon="1.513672">
        <ele>1493.2</ele>
        <time>2013-08-01T13:16:13Z</time>
      </trkpt>
      <trkpt lat="42.580807" lon="1.513684">
        <ele>1492.1</ele>
        <time>2013-08-01T13:16:17Z</time>
      </trkpt>
      <trkpt lat="42.580831" lon="1.513681">
        <ele>1492.1</ele>
        <time>2013-08-01T13:16:19Z</time>
      </trkpt>
      <trkpt lat="42.580956" lon="1.513691">
        <ele>1490.1</ele>
        <time>2013-08-01T13:16:30Z</time>
      </trkpt>
      <trkpt lat="42.581006" lon="1.513732">
        <ele>1486.7</ele>
        <time>2013-08-01T13:16:42Z</time>
      </trkpt>
      <trkpt lat="42.580903" lon="1.513749">
        <ele>1487.3</ele>
        <time>2013-08-01T13:16:55Z</time>
      </trkpt>
      <trkpt lat="42.580871" lon="1.513772">
        <ele>1486.2</ele>
        <time>2013-08-01T13:17:03Z</time>
      </trkpt>
      <trkpt lat="42.580871" lon="1.513772">
        <ele>1486.2</ele>
        <time>2013-08-01T13:17:05Z</time>
      </trkpt>
      <trkpt lat="42.580871" lon="1.513772">
        <ele>1486.2</ele>
        <time>2013-08-01T13:17:07Z</time>
      </trkpt>
      <trkpt lat="42.580821" lon="1.513834">
        <ele>1483.5</ele>
        <time>2013-08-01T13:17:13Z</time>
      </trkpt>
      <trkpt lat="42.580767" lon="1.513870">
        <ele>1482.7</ele>
        <time>2013-08-01T13:17:25Z</time>
      </trkpt>
      <trkpt lat="42.580773" lon="1.513866">
        <ele>1482.8</ele>
        <time>2013-08-01T13:17:41Z</time>
      </trkpt>
      <trkpt lat="42.580798" lon="1.513933">
        <ele>1479.1</ele>
        <time>2013-08-01T13:17:51Z</time>
      </trkpt>
      <trkpt lat="42.580852" lon="1.514048">
        <ele>1472.0</ele>
        <time>2013-08-01T13:18:05Z</time>
      </trkpt>
      <trkpt lat="42.580867" lon="1.514059">
        <ele>1471.0</ele>
        <time>2013-08-01T13:18:08Z</time>
      </trkpt>
      <trkpt lat="42.580898" lon="1.514107">
        <ele>1467.4</ele>
        <time>2013-08-01T13:18:13Z</time>
      </trkpt>
      <trkpt lat="42.580946" lon="1.514144">
        <ele>1464.2</ele>
        <time>2013-08-01T13:18:22Z</time>
      </trkpt>
      <trkpt lat="42.581008" lon="1.514176">
        <ele>1461.2</ele>
        <time>2013-08-01T13:18:34Z</time>
      </trkpt>
      <trkpt lat="42.581090" lon="1.514214">
        <ele>1459.6</ele>
        <time>2013-08-01T13:18:46Z</time>
      </trkpt>
      <trkpt lat="42.581137" lon="1.514256">
        <ele>1458.5</ele>
        <time>2013-08-01T13:18:58Z</time>
      </trkpt>
      <trkpt lat="42.581163" lon="1.514277">
        <ele>1458.4</ele>
        <time>2013-08-01T13:19:09Z</time>
      </trkpt>
      <trkpt lat="42.581175" lon="1.514289">
        <ele>1458.2</ele>
        <time>2013-08-01T13:19:14Z</time>
      </trkpt>
      <trkpt lat="42.581203" lon="1.514311">
        <ele>1458.3</ele>
        <time>2013-08-01T13:19:18Z</time>
      </trkpt>
      <trkpt lat="42.581206" lon="1.514311">
        <ele>1458.4</ele>
        <time>2013-08-01T13:19:19Z</time>
      </trkpt>
      <trkpt lat="42.581239" lon="1.514293">
        <ele>1459.9</ele>
        <time>2013-08-01T13:19:29Z</time>
      </trkpt>
      <trkpt lat="42.581332" lon="1.514389">
        <ele>1458.6</ele>
        <time>2013-08-01T13:35:17Z</time>
      </trkpt>
      <trkpt lat="42.581378" lon="1.514317">
        <ele>1460.5</ele>
        <time>2013-08-01T13:35:32Z</time>
      </trkpt>
      <trkpt lat="42.581409" lon="1.514306">
        <ele>1461.5</ele>
        <time>2013-08-01T13:35:43Z</time>
      </trkpt>
      <trkpt lat="42.581435" lon="1.514285">
        <ele>1462.5</ele>
        <time>2013-08-01T13:35:52Z</time>
      </trkpt>
      <trkpt lat="42.581474" lon="1.514243">
        <ele>1464.8</ele>
        <time>2013-08-01T13:36:03Z</time>
      </trkpt>
      <trkpt lat="42.581518" lon="1.514196">
        <ele>1468.0</ele>
        <time>2013-08-01T13:36:17Z</time>
      </trkpt>
      <trkpt lat="42.581531" lon="1.514205">
        <ele>1468.1</ele>
        <time>2013-08-01T13:36:19Z</time>
      </trkpt>
      <trkpt lat="42.581559" lon="1.514248">
        <ele>1467.9</ele>
        <time>2013-08-01T13:36:24Z</time>
      </trkpt>
      <trkpt lat="42.581580" lon="1.514313">
        <ele>1467.2</ele>
        <time>2013-08-01T13:36:31Z</time>
      </trkpt>
      <trkpt lat="42.581649" lon="1.514361">
        <ele>1469.6</ele>
        <time>2013-08-01T13:36:43Z</time>
      </trkpt>
      <trkpt lat="42.581710" lon="1.514398">
        <ele>1471.7</ele>
        <time>2013-08-01T13:36:56Z</time>
      </trkpt>
      <trkpt lat="42.581710" lon="1.514398">
        <ele>1471.7</ele>
        <time>2013-08-01T13:37:22Z</time>
      </trkpt>
      <trkpt lat="42.581735" lon="1.514436">
        <ele>1471.9</ele>
        <time>2013-08-01T13:37:34Z</time>
      </trkpt>
      <trkpt lat="42.581762" lon="1.514456">
        <ele>1472.6</ele>
        <time>2013-08-01T13:37:37Z</time>
      </trkpt>
      <trkpt lat="42.581800" lon="1.514501">
        <ele>1472.9</ele>
        <time>2013-08-01T13:37:41Z</time>
      </trkpt>
      <trkpt lat="42.581902" lon="1.514676">
        <ele>1474.0</ele>
        <time>2013-08-01T13:37:56Z</time>
      </trkpt>
      <trkpt lat="42.581966" lon="1.514882">
        <ele>1473.0</ele>
        <time>2013-08-01T13:38:10Z</time>
      </trkpt>
      <trkpt lat="42.582000" lon="1.514955">
        <ele>1474.1</ele>
        <time>2013-08-01T13:38:15Z</time>
      </trkpt>
      <trkpt lat="42.581990" lon="1.515018">
        <ele>1471.8</ele>
        <time>2013-08-01T13:38:20Z</time>
      </trkpt>
      <trkpt lat="42.581987" lon="1.515048">
        <ele>1470.9</ele>
        <time>2013-08-01T13:38:23Z</time>
      </trkpt>
      <trkpt lat="42.581986" lon="1.515058">
        <ele>1470.6</ele>
        <time>2013-08-01T13:38:24Z</time>
      </trkpt>
      <trkpt lat="42.581991" lon="1.515148">
        <ele>1469.3</ele>
        <time>2013-08-01T13:38:35Z</time>
      </trkpt>
      <trkpt lat="42.581995" lon="1.515244">
        <ele>1467.9</ele>
        <time>2013-08-01T13:38:49Z</time>
      </trkpt>
      <trkpt lat="42.581990" lon="1.515297">
        <ele>1466.5</ele>
        <time>2013-08-01T13:38:56Z</time>
      </trkpt>
      <trkpt lat="42.582000" lon="1.515334">
        <ele>1466.9</ele>
        <time>2013-08-01T13:39:01Z</time>
      </trkpt>
      <trkpt lat="42.581989" lon="1.515398">
        <ele>1464.3</ele>
        <time>2013-08-01T13:39:14Z</time>
      </trkpt>
      <trkpt lat="42.581972" lon="1.515497">
        <ele>1459.1</ele>
        <time>2013-08-01T13:39:25Z</time>
      </trkpt>
      <trkpt lat="42.581968" lon="1.515548">
        <ele>1456.6</ele>
        <time>2013-08-01T13:39:34Z</time>
      </trkpt>
      <trkpt lat="42.581960" lon="1.515603">
        <ele>1453.3</ele>
        <time>2013-08-01T13:39:41Z</time>
      </trkpt>
      <trkpt lat="42.581940" lon="1.515611">
        <ele>1450.7</ele>
        <time>2013-08-01T13:39:45Z</time>
      </trkpt>
      <trkpt lat="42.581908" lon="1.515677">
        <ele>1445.1</ele>
        <time>2013-08-01T13:39:57Z</time>
      </trkpt>
      <trkpt lat="42.581879" lon="1.515768">
        <ele>1439.4</ele>
        <time>2013-08-01T13:40:09Z</time>
      </trkpt>
      <trkpt lat="42.581861" lon="1.515875">
        <ele>1434.0</ele>
        <time>2013-08-01T13:40:18Z</time>
      </trkpt>
      <trkpt lat="42.581856" lon="1.515886">
        <ele>1433.3</ele>
        <time>2013-08-01T13:40:19Z</time>
      </trkpt>
      <trkpt lat="42.581876" lon="1.515940">
        <ele>1432.2</ele>
        <time>2013-08-01T13:40:27Z</time>
      </trkpt>
      <trkpt lat="42.581919" lon="1.516044">
        <ele>1429.9</ele>
        <time>2013-08-01T13:40:41Z</time>
      </trkpt>
      <trkpt lat="42.581938" lon="1.516065">
        <ele>1430.5</ele>
        <time>2013-08-01T13:41:00Z</time>
      </trkpt>
      <trkpt lat="42.581961" lon="1.516096">
        <ele>1431.3</ele>
        <time>2013-08-01T13:41:03Z</time>
      </trkpt>
      <trkpt lat="42.582045" lon="1.516286">
        <ele>1428.7</ele>
        <time>2013-08-01T13:41:16Z</time>
      </trkpt>
      <trkpt lat="42.582087" lon="1.516418">
        <ele>1423.5</ele>
        <time>2013-08-01T13:41:28Z</time>
      </trkpt>
      <trkpt lat="42.582113" lon="1.516452">
        <ele>1422.6</ele>
        <time>2013-08-01T13:41:32Z</time>
      </trkpt>
      <trkpt lat="42.582135" lon="1.516484">
        <ele>1421.4</ele>
        <time>2013-08-01T13:41:35Z</time>
      </trkpt>
      <trkpt lat="42.582194" lon="1.516633">
        <ele>1415.1</ele>
        <time>2013-08-01T13:41:44Z</time>
      </trkpt>
      <trkpt lat="42.582262" lon="1.516732">
        <ele>1412.1</ele>
        <time>2013-08-01T13:41:54Z</time>
      </trkpt>
      <trkpt lat="42.582334" lon="1.516765">
        <ele>1412.5</ele>
        <time>2013-08-01T13:41:59Z</time>
      </trkpt>
      <trkpt lat="42.582397" lon="1.516836">
        <ele>1411.3</ele>
        <time>2013-08-01T13:42:05Z</time>
      </trkpt>
      <trkpt lat="42.582427" lon="1.516866">
        <ele>1411.0</ele>
        <time>2013-08-01T13:42:08Z</time>
      </trkpt>
      <trkpt lat="42.582619" lon="1.516967">
        <ele>1410.2</ele>
        <time>2013-08-01T13:42:24Z</time>
      </trkpt>
      <trkpt lat="42.582675" lon="1.517026">
        <ele>1407.3</ele>
        <time>2013-08-01T13:42:29Z</time>
      </trkpt>
      <trkpt lat="42.582684" lon="1.517039">
        <ele>1406.5</ele>
        <time>2013-08-01T13:42:30Z</time>
      </trkpt>
      <trkpt lat="42.582663" lon="1.517149">
        <ele>1399.9</ele>
        <time>2013-08-01T13:42:37Z</time>
      </trkpt>
      <trkpt lat="42.582598" lon="1.517185">
        <ele>1397.8</ele>
        <time>2013-08-01T13:42:42Z</time>
      </trkpt>
      <trkpt lat="42.582413" lon="1.517208">
        <ele>1396.1</ele>
        <time>2013-08-01T13:42:57Z</time>
      </trkpt>
      <trkpt lat="42.582123" lon="1.517241">
        <ele>1392.9</ele>
        <time>2013-08-01T13:43:18Z</time>
      </trkpt>
      <trkpt lat="42.581922" lon="1.517289">
        <ele>1390.8</ele>
        <time>2013-08-01T13:43:33Z</time>
      </trkpt>
      <trkpt lat="42.581645" lon="1.517359">
        <ele>1390.1</ele>
        <time>2013-08-01T13:43:52Z</time>
      </trkpt>
      <trkpt lat="42.581625" lon="1.517404">
        <ele>1389.5</ele>
        <time>2013-08-01T13:43:55Z</time>
      </trkpt>
      <trkpt lat="42.581612" lon="1.517616">
        <ele>1386.1</ele>
        <time>2013-08-01T13:44:08Z</time>
      </trkpt>
      <trkpt lat="42.581824" lon="1.517694">
        <ele>1384.0</ele>
        <time>2013-08-01T13:44:25Z</time>
      </trkpt>
      <trkpt lat="42.582036" lon="1.517695">
        <ele>1382.6</ele>
        <time>2013-08-01T13:44:41Z</time>
      </trkpt>
      <trkpt lat="42.582223" lon="1.517676">
        <ele>1383.2</ele>
        <time>2013-08-01T13:44:55Z</time>
      </trkpt>
      <trkpt lat="42.582291" lon="1.517663">
        <ele>1383.9</ele>
        <time>2013-08-01T13:45:08Z</time>
      </trkpt>
      <trkpt lat="42.582367" lon="1.517796">
        <ele>1381.8</ele>
        <time>2013-08-01T13:45:21Z</time>
      </trkpt>
      <trkpt lat="42.582368" lon="1.517822">
        <ele>1381.5</ele>
        <time>2013-08-01T13:45:25Z</time>
      </trkpt>
      <trkpt lat="42.582385" lon="1.518011">
        <ele>1380.4</ele>
        <time>2013-08-01T13:45:35Z</time>
      </trkpt>
      <trkpt lat="42.582346" lon="1.518253">
        <ele>1379.1</ele>
        <time>2013-08-01T13:45:49Z</time>
      </trkpt>
      <trkpt lat="42.582297" lon="1.518509">
        <ele>1376.9</ele>
        <time>2013-08-01T13:46:06Z</time>
      </trkpt>
      <trkpt lat="42.582299" lon="1.518634">
        <ele>1375.6</ele>
        <time>2013-08-01T13:48:14Z</time>
      </trkpt>
      <trkpt lat="42.582269" lon="1.518878">
        <ele>1373.5</ele>
        <time>2013-08-01T13:48:31Z</time>
      </trkpt>
      <trkpt lat="42.582254" lon="1.519049">
        <ele>1371.9</ele>
        <time>2013-08-01T13:48:38Z</time>
      </trkpt>
      <trkpt lat="42.582284" lon="1.519133">
        <ele>1371.2</ele>
        <time>2013-08-01T13:48:52Z</time>
      </trkpt>
      <trkpt lat="42.582284" lon="1.519133">
        <ele>1371.2</ele>
        <time>2013-08-01T13:49:07Z</time>
      </trkpt>
    </trkseg>
  </trk>
</gpx>
